<?xml version="1.0" encoding="UTF-8" standalone="no" ?><gpx xmlns="http://www.topografix.com/GPX/1/1" xmlns:gpxx="http://www.garmin.com/xmlschemas/GpxExtensions/v3" xmlns:wptx1="http://www.garmin.com/xmlschemas/WaypointExtension/v1" xmlns:gpxtpx="http://www.garmin.com/xmlschemas/TrackPointExtension/v1" creator="GuideVTT.com" version="1.1" xmlns:xsi="http://www.w3.org/2001/XMLSchema-instance" xsi:schemaLocation="http://www.topografix.com/GPX/1/1 http://www.topografix.com/GPX/1/1/gpx.xsd http://www.garmin.com/xmlschemas/GpxExtensions/v3 http://www8.garmin.com/xmlschemas/GpxExtensionsv3.xsd http://www.garmin.com/xmlschemas/WaypointExtension/v1 http://www8.garmin.com/xmlschemas/WaypointExtensionv1.xsd http://www.garmin.com/xmlschemas/TrackPointExtension/v1 http://www.garmin.com/xmlschemas/TrackPointExtensionv1.xsd">
<metadata><link href="http://www.garmin.com"><text>Garmin International</text></link><time>2013-06-22T15:13:50Z</time></metadata>
<trk><name>activity_350752831.gpx</name><extensions><gpxx:TrackExtension><gpxx:DisplayColor>Cyan</gpxx:DisplayColor></gpxx:TrackExtension></extensions><trkseg>
<trkpt lat="46.144620375707746" lon="7.233560057356954"><ele></ele><time>2013-8-1T12:22:43Z</time></trkpt>
<trkpt lat="46.14460193552077" lon="7.233541449531913"><ele></ele><time>2013-8-1T12:22:46Z</time></trkpt>
<trkpt lat="46.144550973549485" lon="7.233519908040762"><ele></ele><time>2013-8-1T12:22:49Z</time></trkpt>
<trkpt lat="46.14451509900391" lon="7.233532480895519"><ele></ele><time>2013-8-1T12:22:52Z</time></trkpt>
<trkpt lat="46.14448140375316" lon="7.233551004901528"><ele></ele><time>2013-8-1T12:22:55Z</time></trkpt>
<trkpt lat="46.14441283978522" lon="7.2335827723145485"><ele></ele><time>2013-8-1T12:22:58Z</time></trkpt>
<trkpt lat="46.1443099938333" lon="7.233620574697852"><ele></ele><time>2013-8-1T12:23:1Z</time></trkpt>
<trkpt lat="46.14427822642028" lon="7.233628872781992"><ele></ele><time>2013-8-1T12:23:4Z</time></trkpt>
<trkpt lat="46.144153755158186" lon="7.233662316575646"><ele></ele><time>2013-8-1T12:23:7Z</time></trkpt>
<trkpt lat="46.14412165246904" lon="7.233669776469469"><ele></ele><time>2013-8-1T12:23:10Z</time></trkpt>
<trkpt lat="46.14409198053181" lon="7.233679164201021"><ele></ele><time>2013-8-1T12:23:13Z</time></trkpt>
<trkpt lat="46.14406222477555" lon="7.233685282990336"><ele></ele><time>2013-8-1T12:23:16Z</time></trkpt>
<trkpt lat="46.1440338101238" lon="7.2336893901228905"><ele></ele><time>2013-8-1T12:23:19Z</time></trkpt>
<trkpt lat="46.1438974365592" lon="7.233745716512203"><ele></ele><time>2013-8-1T12:23:22Z</time></trkpt>
<trkpt lat="46.143868770450354" lon="7.233761390671134"><ele></ele><time>2013-8-1T12:23:25Z</time></trkpt>
<trkpt lat="46.143846893683076" lon="7.233776478096843"><ele></ele><time>2013-8-1T12:23:28Z</time></trkpt>
<trkpt lat="46.143822837620974" lon="7.233787793666124"><ele></ele><time>2013-8-1T12:23:31Z</time></trkpt>
<trkpt lat="46.14379760809243" lon="7.233799276873469"><ele></ele><time>2013-8-1T12:23:34Z</time></trkpt>
<trkpt lat="46.143717393279076" lon="7.233862644061446"><ele></ele><time>2013-8-1T12:23:37Z</time></trkpt>
<trkpt lat="46.143695348873734" lon="7.233879240229726"><ele></ele><time>2013-8-1T12:23:40Z</time></trkpt>
<trkpt lat="46.14367104135454" lon="7.233894830569625"><ele></ele><time>2013-8-1T12:23:43Z</time></trkpt>
<trkpt lat="46.14364832639694" lon="7.233918635174632"><ele></ele><time>2013-8-1T12:23:46Z</time></trkpt>
<trkpt lat="46.14362636581063" lon="7.233938165009022"><ele></ele><time>2013-8-1T12:23:49Z</time></trkpt>
<trkpt lat="46.14360482431948" lon="7.233959874138236"><ele></ele><time>2013-8-1T12:23:52Z</time></trkpt>
<trkpt lat="46.14358680322766" lon="7.2339794877916574"><ele></ele><time>2013-8-1T12:23:55Z</time></trkpt>
<trkpt lat="46.143531734123826" lon="7.234034053981304"><ele></ele><time>2013-8-1T12:23:58Z</time></trkpt>
<trkpt lat="46.14349485374987" lon="7.234069928526878"><ele></ele><time>2013-8-1T12:24:1Z</time></trkpt>
<trkpt lat="46.14347683265805" lon="7.234084764495492"><ele></ele><time>2013-8-1T12:24:4Z</time></trkpt>
<trkpt lat="46.14345512352884" lon="7.234097002074122"><ele></ele><time>2013-8-1T12:24:7Z</time></trkpt>
<trkpt lat="46.1434328276664" lon="7.234110496938229"><ele></ele><time>2013-8-1T12:24:10Z</time></trkpt>
<trkpt lat="46.14341371692717" lon="7.234126003459096"><ele></ele><time>2013-8-1T12:24:13Z</time></trkpt>
<trkpt lat="46.14337323233485" lon="7.234160201624036"><ele></ele><time>2013-8-1T12:24:16Z</time></trkpt>
<trkpt lat="46.1432827077806" lon="7.234256928786635"><ele></ele><time>2013-8-1T12:24:19Z</time></trkpt>
<trkpt lat="46.14326133392751" lon="7.234273860231042"><ele></ele><time>2013-8-1T12:24:22Z</time></trkpt>
<trkpt lat="46.1432430613786" lon="7.234290037304163"><ele></ele><time>2013-8-1T12:24:25Z</time></trkpt>
<trkpt lat="46.14322621375322" lon="7.23431040532887"><ele></ele><time>2013-8-1T12:24:28Z</time></trkpt>
<trkpt lat="46.143208695575595" lon="7.234330689534545"><ele></ele><time>2013-8-1T12:24:31Z</time></trkpt>
<trkpt lat="46.14317324012518" lon="7.2343694139271975"><ele></ele><time>2013-8-1T12:24:34Z</time></trkpt>
<trkpt lat="46.14315454848111" lon="7.234389362856746"><ele></ele><time>2013-8-1T12:24:37Z</time></trkpt>
<trkpt lat="46.143118757754564" lon="7.234429512172937"><ele></ele><time>2013-8-1T12:24:40Z</time></trkpt>
<trkpt lat="46.143079195171595" lon="7.234473265707493"><ele></ele><time>2013-8-1T12:24:43Z</time></trkpt>
<trkpt lat="46.14305891096592" lon="7.234494723379612"><ele></ele><time>2013-8-1T12:24:46Z</time></trkpt>
<trkpt lat="46.143040638417006" lon="7.234514253214002"><ele></ele><time>2013-8-1T12:24:49Z</time></trkpt>
<trkpt lat="46.14302236586809" lon="7.234539818018675"><ele></ele><time>2013-8-1T12:24:52Z</time></trkpt>
<trkpt lat="46.142969727516174" lon="7.234609052538872"><ele></ele><time>2013-8-1T12:24:55Z</time></trkpt>
<trkpt lat="46.14291608333588" lon="7.23468029871583"><ele></ele><time>2013-8-1T12:24:58Z</time></trkpt>
<trkpt lat="46.142894960939884" lon="7.2347010020166636"><ele></ele><time>2013-8-1T12:25:1Z</time></trkpt>
<trkpt lat="46.1428751796484" lon="7.234728494659066"><ele></ele><time>2013-8-1T12:25:4Z</time></trkpt>
<trkpt lat="46.142860762774944" lon="7.234754227101803"><ele></ele><time>2013-8-1T12:25:7Z</time></trkpt>
<trkpt lat="46.142848609015346" lon="7.2347750980407"><ele></ele><time>2013-8-1T12:25:10Z</time></trkpt>
<trkpt lat="46.142753725871444" lon="7.234917338937521"><ele></ele><time>2013-8-1T12:25:13Z</time></trkpt>
<trkpt lat="46.14273729734123" lon="7.234940975904465"><ele></ele><time>2013-8-1T12:25:16Z</time></trkpt>
<trkpt lat="46.142724975943565" lon="7.234965870156884"><ele></ele><time>2013-8-1T12:25:19Z</time></trkpt>
<trkpt lat="46.142714163288474" lon="7.23499839194119"><ele></ele><time>2013-8-1T12:25:22Z</time></trkpt>
<trkpt lat="46.14270309917629" lon="7.235022950917482"><ele></ele><time>2013-8-1T12:25:25Z</time></trkpt>
<trkpt lat="46.14266999065876" lon="7.235110038891435"><ele></ele><time>2013-8-1T12:25:28Z</time></trkpt>
<trkpt lat="46.14264006726444" lon="7.235165778547525"><ele></ele><time>2013-8-1T12:25:31Z</time></trkpt>
<trkpt lat="46.14259480498731" lon="7.235246412456036"><ele></ele><time>2013-8-1T12:25:34Z</time></trkpt>
<trkpt lat="46.1425797175616" lon="7.235275413841009"><ele></ele><time>2013-8-1T12:25:37Z</time></trkpt>
<trkpt lat="46.1425659712404" lon="7.235303493216634"><ele></ele><time>2013-8-1T12:25:40Z</time></trkpt>
<trkpt lat="46.142551470547915" lon="7.235328974202275"><ele></ele><time>2013-8-1T12:25:43Z</time></trkpt>
<trkpt lat="46.14253898151219" lon="7.235355209559202"><ele></ele><time>2013-8-1T12:25:46Z</time></trkpt>
<trkpt lat="46.142507465556264" lon="7.235436346381903"><ele></ele><time>2013-8-1T12:25:49Z</time></trkpt>
<trkpt lat="46.142464047297835" lon="7.2355150524526834"><ele></ele><time>2013-8-1T12:25:52Z</time></trkpt>
<trkpt lat="46.14244611002505" lon="7.235539443790913"><ele></ele><time>2013-8-1T12:25:55Z</time></trkpt>
<trkpt lat="46.14243169315159" lon="7.235560733824968"><ele></ele><time>2013-8-1T12:25:58Z</time></trkpt>
<trkpt lat="46.14241333678365" lon="7.235581940039992"><ele></ele><time>2013-8-1T12:26:1Z</time></trkpt>
<trkpt lat="46.1423986684531" lon="7.235605828464031"><ele></ele><time>2013-8-1T12:26:4Z</time></trkpt>
<trkpt lat="46.142347203567624" lon="7.235670955851674"><ele></ele><time>2013-8-1T12:26:7Z</time></trkpt>
<trkpt lat="46.142310574650764" lon="7.235707081854343"><ele></ele><time>2013-8-1T12:26:10Z</time></trkpt>
<trkpt lat="46.14229129627347" lon="7.2357261925935745"><ele></ele><time>2013-8-1T12:26:13Z</time></trkpt>
<trkpt lat="46.14227084442973" lon="7.2357427049428225"><ele></ele><time>2013-8-1T12:26:16Z</time></trkpt>
<trkpt lat="46.142255337908864" lon="7.2357606422156096"><ele></ele><time>2013-8-1T12:26:19Z</time></trkpt>
<trkpt lat="46.14224259741604" lon="7.235782267525792"><ele></ele><time>2013-8-1T12:26:22Z</time></trkpt>
<trkpt lat="46.14219322800636" lon="7.2358310502022505"><ele></ele><time>2013-8-1T12:26:25Z</time></trkpt>
<trkpt lat="46.14213656634092" lon="7.235872708261013"><ele></ele><time>2013-8-1T12:26:28Z</time></trkpt>
<trkpt lat="46.14211603067815" lon="7.2358837723731995"><ele></ele><time>2013-8-1T12:26:31Z</time></trkpt>
<trkpt lat="46.142097087576985" lon="7.235900452360511"><ele></ele><time>2013-8-1T12:26:34Z</time></trkpt>
<trkpt lat="46.142076049000025" lon="7.235916210338473"><ele></ele><time>2013-8-1T12:26:37Z</time></trkpt>
<trkpt lat="46.142058027908206" lon="7.235935153439641"><ele></ele><time>2013-8-1T12:26:40Z</time></trkpt>
<trkpt lat="46.14196063019335" lon="7.236061301082373"><ele></ele><time>2013-8-1T12:26:43Z</time></trkpt>
<trkpt lat="46.14194470457733" lon="7.236082088202238"><ele></ele><time>2013-8-1T12:26:46Z</time></trkpt>
<trkpt lat="46.14192936569452" lon="7.2361052222549915"><ele></ele><time>2013-8-1T12:26:49Z</time></trkpt>
<trkpt lat="46.1419150326401" lon="7.236126763746142"><ele></ele><time>2013-8-1T12:26:52Z</time></trkpt>
<trkpt lat="46.14190321415663" lon="7.236151741817594"><ele></ele><time>2013-8-1T12:26:55Z</time></trkpt>
<trkpt lat="46.14185241982341" lon="7.236259281635284"><ele></ele><time>2013-8-1T12:26:58Z</time></trkpt>
<trkpt lat="46.14182903431356" lon="7.236356344074011"><ele></ele><time>2013-8-1T12:27:1Z</time></trkpt>
<trkpt lat="46.141817132011056" lon="7.236389871686697"><ele></ele><time>2013-8-1T12:27:4Z</time></trkpt>
<trkpt lat="46.141806319355965" lon="7.236422477290034"><ele></ele><time>2013-8-1T12:27:7Z</time></trkpt>
<trkpt lat="46.14179450087249" lon="7.236455753445625"><ele></ele><time>2013-8-1T12:27:10Z</time></trkpt>
<trkpt lat="46.141782850027084" lon="7.23649213090539"><ele></ele><time>2013-8-1T12:27:13Z</time></trkpt>
<trkpt lat="46.14177614450455" lon="7.2365272510796785"><ele></ele><time>2013-8-1T12:27:16Z</time></trkpt>
<trkpt lat="46.141771115362644" lon="7.236563628539443"><ele></ele><time>2013-8-1T12:27:19Z</time></trkpt>
<trkpt lat="46.14176214672625" lon="7.236666390672326"><ele></ele><time>2013-8-1T12:27:22Z</time></trkpt>
<trkpt lat="46.141756195575" lon="7.2366957273334265"><ele></ele><time>2013-8-1T12:27:25Z</time></trkpt>
<trkpt lat="46.141750160604715" lon="7.236725147813559"><ele></ele><time>2013-8-1T12:27:28Z</time></trkpt>
<trkpt lat="46.141744796186686" lon="7.2367549035698175"><ele></ele><time>2013-8-1T12:27:31Z</time></trkpt>
<trkpt lat="46.1417440418154" lon="7.236783150583506"><ele></ele><time>2013-8-1T12:27:34Z</time></trkpt>
<trkpt lat="46.14174303598702" lon="7.2368082124739885"><ele></ele><time>2013-8-1T12:27:37Z</time></trkpt>
<trkpt lat="46.1417421977967" lon="7.23688549362123"><ele></ele><time>2013-8-1T12:27:40Z</time></trkpt>
<trkpt lat="46.141730127856135" lon="7.237033182755113"><ele></ele><time>2013-8-1T12:27:43Z</time></trkpt>
<trkpt lat="46.14172434434295" lon="7.237070314586163"><ele></ele><time>2013-8-1T12:27:46Z</time></trkpt>
<trkpt lat="46.141720404848456" lon="7.23710392601788"><ele></ele><time>2013-8-1T12:27:49Z</time></trkpt>
<trkpt lat="46.14171856082976" lon="7.237142315134406"><ele></ele><time>2013-8-1T12:27:52Z</time></trkpt>
<trkpt lat="46.141714956611395" lon="7.23717525601387"><ele></ele><time>2013-8-1T12:27:55Z</time></trkpt>
<trkpt lat="46.141690062358975" lon="7.2373144794255495"><ele></ele><time>2013-8-1T12:27:58Z</time></trkpt>
<trkpt lat="46.1416629049927" lon="7.237400813028216"><ele></ele><time>2013-8-1T12:28:1Z</time></trkpt>
<trkpt lat="46.14165309816599" lon="7.2374319937080145"><ele></ele><time>2013-8-1T12:28:4Z</time></trkpt>
<trkpt lat="46.141643626615405" lon="7.237459234893322"><ele></ele><time>2013-8-1T12:28:7Z</time></trkpt>
<trkpt lat="46.14163960330188" lon="7.237492762506008"><ele></ele><time>2013-8-1T12:28:10Z</time></trkpt>
<trkpt lat="46.141637256368995" lon="7.2375277150422335"><ele></ele><time>2013-8-1T12:28:13Z</time></trkpt>
<trkpt lat="46.141632394865155" lon="7.23756417632103"><ele></ele><time>2013-8-1T12:28:16Z</time></trkpt>
<trkpt lat="46.14158461801708" lon="7.237674817442894"><ele></ele><time>2013-8-1T12:28:19Z</time></trkpt>
<trkpt lat="46.14156760275364" lon="7.23769954405725"><ele></ele><time>2013-8-1T12:28:22Z</time></trkpt>
<trkpt lat="46.14155000075698" lon="7.237726617604494"><ele></ele><time>2013-8-1T12:28:25Z</time></trkpt>
<trkpt lat="46.141535080969334" lon="7.237755702808499"><ele></ele><time>2013-8-1T12:28:28Z</time></trkpt>
<trkpt lat="46.14152351394296" lon="7.237785961478949"><ele></ele><time>2013-8-1T12:28:31Z</time></trkpt>
<trkpt lat="46.14144581370056" lon="7.237965501844883"><ele></ele><time>2013-8-1T12:28:34Z</time></trkpt>
<trkpt lat="46.14142846316099" lon="7.237990228459239"><ele></ele><time>2013-8-1T12:28:37Z</time></trkpt>
<trkpt lat="46.141412956640124" lon="7.238015374168754"><ele></ele><time>2013-8-1T12:28:40Z</time></trkpt>
<trkpt lat="46.141396444290876" lon="7.2380375023931265"><ele></ele><time>2013-8-1T12:28:43Z</time></trkpt>
<trkpt lat="46.1413795966655" lon="7.238057116046548"><ele></ele><time>2013-8-1T12:28:46Z</time></trkpt>
<trkpt lat="46.141317738220096" lon="7.238143449649215"><ele></ele><time>2013-8-1T12:28:49Z</time></trkpt>
<trkpt lat="46.141302986070514" lon="7.238165158778429"><ele></ele><time>2013-8-1T12:28:52Z</time></trkpt>
<trkpt lat="46.14128580316901" lon="7.238183431327343"><ele></ele><time>2013-8-1T12:28:55Z</time></trkpt>
<trkpt lat="46.14126526750624" lon="7.238199273124337"><ele></ele><time>2013-8-1T12:28:58Z</time></trkpt>
<trkpt lat="46.141245821490884" lon="7.238211343064904"><ele></ele><time>2013-8-1T12:29:1Z</time></trkpt>
<trkpt lat="46.14122645929456" lon="7.238227184861898"><ele></ele><time>2013-8-1T12:29:4Z</time></trkpt>
<trkpt lat="46.14120558835566" lon="7.238246044144034"><ele></ele><time>2013-8-1T12:29:7Z</time></trkpt>
<trkpt lat="46.141167702153325" lon="7.238269178196788"><ele></ele><time>2013-8-1T12:29:10Z</time></trkpt>
<trkpt lat="46.1411499325186" lon="7.238287953659892"><ele></ele><time>2013-8-1T12:29:13Z</time></trkpt>
<trkpt lat="46.14115269854665" lon="7.2382898814976215"><ele></ele><time>2013-8-1T12:29:16Z</time></trkpt>
<trkpt lat="46.1411501839757" lon="7.238288875669241"><ele></ele><time>2013-8-1T12:29:19Z</time></trkpt>
<trkpt lat="46.1411501839757" lon="7.238288875669241"><ele></ele><time>2013-8-1T12:29:22Z</time></trkpt>
<trkpt lat="46.1411501839757" lon="7.238288875669241"><ele></ele><time>2013-8-1T12:29:25Z</time></trkpt>
<trkpt lat="46.1411501839757" lon="7.238288875669241"><ele></ele><time>2013-8-1T12:29:28Z</time></trkpt>
<trkpt lat="46.1411501839757" lon="7.238288875669241"><ele></ele><time>2013-8-1T12:29:31Z</time></trkpt>
<trkpt lat="46.1411501839757" lon="7.238288875669241"><ele></ele><time>2013-8-1T12:29:34Z</time></trkpt>
<trkpt lat="46.1411501839757" lon="7.238288875669241"><ele></ele><time>2013-8-1T12:29:37Z</time></trkpt>
<trkpt lat="46.1411501839757" lon="7.238288875669241"><ele></ele><time>2013-8-1T12:29:40Z</time></trkpt>
<trkpt lat="46.1411501839757" lon="7.238288875669241"><ele></ele><time>2013-8-1T12:29:43Z</time></trkpt>
<trkpt lat="46.1411501839757" lon="7.238288875669241"><ele></ele><time>2013-8-1T12:29:46Z</time></trkpt>
<trkpt lat="46.1411501839757" lon="7.238288875669241"><ele></ele><time>2013-8-1T12:29:49Z</time></trkpt>
<trkpt lat="46.1411501839757" lon="7.238288875669241"><ele></ele><time>2013-8-1T12:29:52Z</time></trkpt>
<trkpt lat="46.1411501839757" lon="7.238288875669241"><ele></ele><time>2013-8-1T12:29:55Z</time></trkpt>
<trkpt lat="46.1411501839757" lon="7.238288875669241"><ele></ele><time>2013-8-1T12:29:58Z</time></trkpt>
<trkpt lat="46.1411501839757" lon="7.238288875669241"><ele></ele><time>2013-8-1T12:30:1Z</time></trkpt>
<trkpt lat="46.14114356227219" lon="7.238301280885935"><ele></ele><time>2013-8-1T12:30:4Z</time></trkpt>
<trkpt lat="46.14110718481243" lon="7.238330282270908"><ele></ele><time>2013-8-1T12:30:7Z</time></trkpt>
<trkpt lat="46.140937115997076" lon="7.2384222317487"><ele></ele><time>2013-8-1T12:30:10Z</time></trkpt>
<trkpt lat="46.140892105177045" lon="7.23845693282783"><ele></ele><time>2013-8-1T12:30:13Z</time></trkpt>
<trkpt lat="46.14086746238172" lon="7.238474115729332"><ele></ele><time>2013-8-1T12:30:16Z</time></trkpt>
<trkpt lat="46.14084147848189" lon="7.2384933941066265"><ele></ele><time>2013-8-1T12:30:19Z</time></trkpt>
<trkpt lat="46.14081750623882" lon="7.238512588664889"><ele></ele><time>2013-8-1T12:30:22Z</time></trkpt>
<trkpt lat="46.14079319871962" lon="7.238529855385423"><ele></ele><time>2013-8-1T12:30:25Z</time></trkpt>
<trkpt lat="46.14077216014266" lon="7.23855315707624"><ele></ele><time>2013-8-1T12:30:28Z</time></trkpt>
<trkpt lat="46.14066822454333" lon="7.238678717985749"><ele></ele><time>2013-8-1T12:30:31Z</time></trkpt>
<trkpt lat="46.14064944908023" lon="7.238704198971391"><ele></ele><time>2013-8-1T12:30:34Z</time></trkpt>
<trkpt lat="46.14063176326454" lon="7.238730937242508"><ele></ele><time>2013-8-1T12:30:37Z</time></trkpt>
<trkpt lat="46.14061525091529" lon="7.238758094608784"><ele></ele><time>2013-8-1T12:30:40Z</time></trkpt>
<trkpt lat="46.14059966057539" lon="7.238787682726979"><ele></ele><time>2013-8-1T12:30:43Z</time></trkpt>
<trkpt lat="46.140582812950015" lon="7.238820623606443"><ele></ele><time>2013-8-1T12:30:46Z</time></trkpt>
<trkpt lat="46.14054014906287" lon="7.238911734893918"><ele></ele><time>2013-8-1T12:30:49Z</time></trkpt>
<trkpt lat="46.14051265642047" lon="7.238978203386068"><ele></ele><time>2013-8-1T12:30:52Z</time></trkpt>
<trkpt lat="46.140505615621805" lon="7.239011814817786"><ele></ele><time>2013-8-1T12:30:55Z</time></trkpt>
<trkpt lat="46.14049999974668" lon="7.239046432077885"><ele></ele><time>2013-8-1T12:30:58Z</time></trkpt>
<trkpt lat="46.14048985764384" lon="7.239078199490905"><ele></ele><time>2013-8-1T12:31:1Z</time></trkpt>
<trkpt lat="46.140482146292925" lon="7.239108206704259"><ele></ele><time>2013-8-1T12:31:4Z</time></trkpt>
<trkpt lat="46.14046714268625" lon="7.23917274735868"><ele></ele><time>2013-8-1T12:31:7Z</time></trkpt>
<trkpt lat="46.1404263228178" lon="7.239392856135964"><ele></ele><time>2013-8-1T12:31:10Z</time></trkpt>
<trkpt lat="46.14041844382882" lon="7.239425461739302"><ele></ele><time>2013-8-1T12:31:13Z</time></trkpt>
<trkpt lat="46.1404107324779" lon="7.239459492266178"><ele></ele><time>2013-8-1T12:31:16Z</time></trkpt>
<trkpt lat="46.14040327258408" lon="7.23949184641242"><ele></ele><time>2013-8-1T12:31:19Z</time></trkpt>
<trkpt lat="46.14040176384151" lon="7.239525793120265"><ele></ele><time>2013-8-1T12:31:22Z</time></trkpt>
<trkpt lat="46.140389274805784" lon="7.239592764526606"><ele></ele><time>2013-8-1T12:31:25Z</time></trkpt>
<trkpt lat="46.140381982550025" lon="7.239624951034784"><ele></ele><time>2013-8-1T12:31:28Z</time></trkpt>
<trkpt lat="46.140378043055534" lon="7.239659568294883"><ele></ele><time>2013-8-1T12:31:31Z</time></trkpt>
<trkpt lat="46.14036278799176" lon="7.239726288244128"><ele></ele><time>2013-8-1T12:31:34Z</time></trkpt>
<trkpt lat="46.140357507392764" lon="7.2397600673139095"><ele></ele><time>2013-8-1T12:31:37Z</time></trkpt>
<trkpt lat="46.1403539031744" lon="7.2397898230701685"><ele></ele><time>2013-8-1T12:31:40Z</time></trkpt>
<trkpt lat="46.14034694619477" lon="7.239824775606394"><ele></ele><time>2013-8-1T12:31:43Z</time></trkpt>
<trkpt lat="46.140332613140345" lon="7.239891914650798"><ele></ele><time>2013-8-1T12:31:46Z</time></trkpt>
<trkpt lat="46.14030411466956" lon="7.239985875785351"><ele></ele><time>2013-8-1T12:31:49Z</time></trkpt>
<trkpt lat="46.140291541814804" lon="7.240016972646117"><ele></ele><time>2013-8-1T12:31:52Z</time></trkpt>
<trkpt lat="46.14027628675103" lon="7.240048572421074"><ele></ele><time>2013-8-1T12:31:55Z</time></trkpt>
<trkpt lat="46.140262288972735" lon="7.240080423653126"><ele></ele><time>2013-8-1T12:31:58Z</time></trkpt>
<trkpt lat="46.14025080576539" lon="7.240109592676163"><ele></ele><time>2013-8-1T12:32:1Z</time></trkpt>
<trkpt lat="46.140233874320984" lon="7.240141024813056"><ele></ele><time>2013-8-1T12:32:4Z</time></trkpt>
<trkpt lat="46.14013681188226" lon="7.240334395319223"><ele></ele><time>2013-8-1T12:32:7Z</time></trkpt>
<trkpt lat="46.14011753350496" lon="7.240356272086501"><ele></ele><time>2013-8-1T12:32:10Z</time></trkpt>
<trkpt lat="46.14009456709027" lon="7.240377143025398"><ele></ele><time>2013-8-1T12:32:13Z</time></trkpt>
<trkpt lat="46.1400793120265" lon="7.2403970919549465"><ele></ele><time>2013-8-1T12:32:16Z</time></trkpt>
<trkpt lat="46.14006573334336" lon="7.240416873246431"><ele></ele><time>2013-8-1T12:32:19Z</time></trkpt>
<trkpt lat="46.139998426660895" lon="7.240486862137914"><ele></ele><time>2013-8-1T12:32:22Z</time></trkpt>
<trkpt lat="46.13997965119779" lon="7.240506308153272"><ele></ele><time>2013-8-1T12:32:25Z</time></trkpt>
<trkpt lat="46.13995810970664" lon="7.240521563217044"><ele></ele><time>2013-8-1T12:32:28Z</time></trkpt>
<trkpt lat="46.13993941806257" lon="7.240536147728562"><ele></ele><time>2013-8-1T12:32:31Z</time></trkpt>
<trkpt lat="46.13991938531399" lon="7.240553665906191"><ele></ele><time>2013-8-1T12:32:34Z</time></trkpt>
<trkpt lat="46.13989809527993" lon="7.240573195740581"><ele></ele><time>2013-8-1T12:32:37Z</time></trkpt>
<trkpt lat="46.13985157571733" lon="7.240628348663449"><ele></ele><time>2013-8-1T12:32:40Z</time></trkpt>
<trkpt lat="46.13980899564922" lon="7.240652069449425"><ele></ele><time>2013-8-1T12:32:43Z</time></trkpt>
<trkpt lat="46.13978904671967" lon="7.24066698923707"><ele></ele><time>2013-8-1T12:32:46Z</time></trkpt>
<trkpt lat="46.139770187437534" lon="7.240682831034064"><ele></ele><time>2013-8-1T12:32:49Z</time></trkpt>
<trkpt lat="46.139749148860574" lon="7.240699091926217"><ele></ele><time>2013-8-1T12:32:52Z</time></trkpt>
<trkpt lat="46.139726182445884" lon="7.240714430809021"><ele></ele><time>2013-8-1T12:32:55Z</time></trkpt>
<trkpt lat="46.139706233516335" lon="7.240734212100506"><ele></ele><time>2013-8-1T12:32:58Z</time></trkpt>
<trkpt lat="46.13961596041918" lon="7.2408311907202005"><ele></ele><time>2013-8-1T12:33:1Z</time></trkpt>
<trkpt lat="46.13959785550833" lon="7.240853318944573"><ele></ele><time>2013-8-1T12:33:4Z</time></trkpt>
<trkpt lat="46.13957983441651" lon="7.240873770788312"><ele></ele><time>2013-8-1T12:33:7Z</time></trkpt>
<trkpt lat="46.13956608809531" lon="7.240898162126541"><ele></ele><time>2013-8-1T12:33:10Z</time></trkpt>
<trkpt lat="46.139549827203155" lon="7.240919535979629"><ele></ele><time>2013-8-1T12:33:13Z</time></trkpt>
<trkpt lat="46.139488723129034" lon="7.241026489064097"><ele></ele><time>2013-8-1T12:33:16Z</time></trkpt>
<trkpt lat="46.13944689743221" lon="7.241104021668434"><ele></ele><time>2013-8-1T12:33:19Z</time></trkpt>
<trkpt lat="46.13943658769131" lon="7.241129921749234"><ele></ele><time>2013-8-1T12:33:22Z</time></trkpt>
<trkpt lat="46.13942359574139" lon="7.24115657620132"><ele></ele><time>2013-8-1T12:33:25Z</time></trkpt>
<trkpt lat="46.13940892741084" lon="7.241187170147896"><ele></ele><time>2013-8-1T12:33:28Z</time></trkpt>
<trkpt lat="46.13939082249999" lon="7.241218518465757"><ele></ele><time>2013-8-1T12:33:31Z</time></trkpt>
<trkpt lat="46.13926433958113" lon="7.24143167026341"><ele></ele><time>2013-8-1T12:33:34Z</time></trkpt>
<trkpt lat="46.13924263045192" lon="7.241446506232023"><ele></ele><time>2013-8-1T12:33:37Z</time></trkpt>
<trkpt lat="46.139216143637896" lon="7.2414464224129915"><ele></ele><time>2013-8-1T12:33:40Z</time></trkpt>
<trkpt lat="46.139193093404174" lon="7.2414258029311895"><ele></ele><time>2013-8-1T12:33:43Z</time></trkpt>
<trkpt lat="46.139181861653924" lon="7.241396466270089"><ele></ele><time>2013-8-1T12:33:46Z</time></trkpt>
<trkpt lat="46.13919745199382" lon="7.241268306970596"><ele></ele><time>2013-8-1T12:33:49Z</time></trkpt>
<trkpt lat="46.139207845553756" lon="7.241242658346891"><ele></ele><time>2013-8-1T12:33:52Z</time></trkpt>
<trkpt lat="46.139221508055925" lon="7.241215081885457"><ele></ele><time>2013-8-1T12:33:55Z</time></trkpt>
<trkpt lat="46.13923450000584" lon="7.241185577586293"><ele></ele><time>2013-8-1T12:33:58Z</time></trkpt>
<trkpt lat="46.13924422301352" lon="7.241158504039049"><ele></ele><time>2013-8-1T12:34:1Z</time></trkpt>
<trkpt lat="46.13928386941552" lon="7.241078624501824"><ele></ele><time>2013-8-1T12:34:4Z</time></trkpt>
<trkpt lat="46.13930951803923" lon="7.2410158440470695"><ele></ele><time>2013-8-1T12:34:7Z</time></trkpt>
<trkpt lat="46.13933717831969" lon="7.240955326706171"><ele></ele><time>2013-8-1T12:34:10Z</time></trkpt>
<trkpt lat="46.13935025408864" lon="7.24092498421669"><ele></ele><time>2013-8-1T12:34:13Z</time></trkpt>
<trkpt lat="46.13936064764857" lon="7.240893468260765"><ele></ele><time>2013-8-1T12:34:16Z</time></trkpt>
<trkpt lat="46.13937179557979" lon="7.240860611200333"><ele></ele><time>2013-8-1T12:34:19Z</time></trkpt>
<trkpt lat="46.13938445225358" lon="7.2408306039869785"><ele></ele><time>2013-8-1T12:34:22Z</time></trkpt>
<trkpt lat="46.13945494405925" lon="7.240645196288824"><ele></ele><time>2013-8-1T12:34:25Z</time></trkpt>
<trkpt lat="46.13946374505758" lon="7.240612339228392"><ele></ele><time>2013-8-1T12:34:28Z</time></trkpt>
<trkpt lat="46.13947254605591" lon="7.240579649806023"><ele></ele><time>2013-8-1T12:34:31Z</time></trkpt>
<trkpt lat="46.13948277197778" lon="7.2405467089265585"><ele></ele><time>2013-8-1T12:34:34Z</time></trkpt>
<trkpt lat="46.13948964513838" lon="7.2405110858380795"><ele></ele><time>2013-8-1T12:34:37Z</time></trkpt>
<trkpt lat="46.13952845335007" lon="7.240301705896854"><ele></ele><time>2013-8-1T12:34:40Z</time></trkpt>
<trkpt lat="46.13953507505357" lon="7.240267172455788"><ele></ele><time>2013-8-1T12:34:43Z</time></trkpt>
<trkpt lat="46.13953934982419" lon="7.240232722833753"><ele></ele><time>2013-8-1T12:34:46Z</time></trkpt>
<trkpt lat="46.13954287022352" lon="7.240198524668813"><ele></ele><time>2013-8-1T12:34:49Z</time></trkpt>
<trkpt lat="46.13954856991768" lon="7.240164242684841"><ele></ele><time>2013-8-1T12:34:52Z</time></trkpt>
<trkpt lat="46.13955385051668" lon="7.240126188844442"><ele></ele><time>2013-8-1T12:34:55Z</time></trkpt>
<trkpt lat="46.13956583663821" lon="7.239982690662146"><ele></ele><time>2013-8-1T12:34:58Z</time></trkpt>
<trkpt lat="46.13956734538078" lon="7.239874312654138"><ele></ele><time>2013-8-1T12:35:1Z</time></trkpt>
<trkpt lat="46.1395647469908" lon="7.239838186651468"><ele></ele><time>2013-8-1T12:35:4Z</time></trkpt>
<trkpt lat="46.13956080749631" lon="7.239803234115243"><ele></ele><time>2013-8-1T12:35:7Z</time></trkpt>
<trkpt lat="46.13955804146826" lon="7.239768449217081"><ele></ele><time>2013-8-1T12:35:10Z</time></trkpt>
<trkpt lat="46.13955351524055" lon="7.2397335804998875"><ele></ele><time>2013-8-1T12:35:13Z</time></trkpt>
<trkpt lat="46.13954764790833" lon="7.2396952752023935"><ele></ele><time>2013-8-1T12:35:16Z</time></trkpt>
<trkpt lat="46.13955250941217" lon="7.239512465894222"><ele></ele><time>2013-8-1T12:35:19Z</time></trkpt>
<trkpt lat="46.13955887965858" lon="7.239478267729282"><ele></ele><time>2013-8-1T12:35:22Z</time></trkpt>
<trkpt lat="46.13956809975207" lon="7.2394434828311205"><ele></ele><time>2013-8-1T12:35:25Z</time></trkpt>
<trkpt lat="46.139575811102986" lon="7.2394078597426414"><ele></ele><time>2013-8-1T12:35:28Z</time></trkpt>
<trkpt lat="46.13958419300616" lon="7.239375254139304"><ele></ele><time>2013-8-1T12:35:31Z</time></trkpt>
<trkpt lat="46.13965946249664" lon="7.239165790379047"><ele></ele><time>2013-8-1T12:35:34Z</time></trkpt>
<trkpt lat="46.13966985605657" lon="7.239134944975376"><ele></ele><time>2013-8-1T12:35:37Z</time></trkpt>
<trkpt lat="46.13968192599714" lon="7.23910384811461"><ele></ele><time>2013-8-1T12:35:40Z</time></trkpt>
<trkpt lat="46.139690056443214" lon="7.239069230854511"><ele></ele><time>2013-8-1T12:35:43Z</time></trkpt>
<trkpt lat="46.1396992765367" lon="7.2390370443463326"><ele></ele><time>2013-8-1T12:35:46Z</time></trkpt>
<trkpt lat="46.139703802764416" lon="7.239003349095583"><ele></ele><time>2013-8-1T12:35:49Z</time></trkpt>
<trkpt lat="46.139722326770425" lon="7.238896731287241"><ele></ele><time>2013-8-1T12:35:52Z</time></trkpt>
<trkpt lat="46.13972878083587" lon="7.238820623606443"><ele></ele><time>2013-8-1T12:35:55Z</time></trkpt>
<trkpt lat="46.13972643390298" lon="7.238778797909617"><ele></ele><time>2013-8-1T12:35:58Z</time></trkpt>
<trkpt lat="46.139723332598805" lon="7.23873789422214"><ele></ele><time>2013-8-1T12:36:1Z</time></trkpt>
<trkpt lat="46.139717465266585" lon="7.238698247820139"><ele></ele><time>2013-8-1T12:36:4Z</time></trkpt>
<trkpt lat="46.13971218466759" lon="7.238658852875233"><ele></ele><time>2013-8-1T12:36:7Z</time></trkpt>
<trkpt lat="46.13970246165991" lon="7.2386206313967705"><ele></ele><time>2013-8-1T12:36:10Z</time></trkpt>
<trkpt lat="46.139670023694634" lon="7.238396583124995"><ele></ele><time>2013-8-1T12:36:13Z</time></trkpt>
<trkpt lat="46.13965761847794" lon="7.238360457122326"><ele></ele><time>2013-8-1T12:36:16Z</time></trkpt>
<trkpt lat="46.13965217024088" lon="7.238323409110308"><ele></ele><time>2013-8-1T12:36:19Z</time></trkpt>
<trkpt lat="46.13964839838445" lon="7.238287786021829"><ele></ele><time>2013-8-1T12:36:22Z</time></trkpt>
<trkpt lat="46.13964261487126" lon="7.238255683332682"><ele></ele><time>2013-8-1T12:36:25Z</time></trkpt>
<trkpt lat="46.13962207920849" lon="7.23808016628027"><ele></ele><time>2013-8-1T12:36:28Z</time></trkpt>
<trkpt lat="46.13961319439113" lon="7.238041358068585"><ele></ele><time>2013-8-1T12:36:31Z</time></trkpt>
<trkpt lat="46.139614367857575" lon="7.238001795485616"><ele></ele><time>2013-8-1T12:36:34Z</time></trkpt>
<trkpt lat="46.139616295695305" lon="7.237967597320676"><ele></ele><time>2013-8-1T12:36:37Z</time></trkpt>
<trkpt lat="46.13961989991367" lon="7.237931555137038"><ele></ele><time>2013-8-1T12:36:40Z</time></trkpt>
<trkpt lat="46.13962098956108" lon="7.237894842401147"><ele></ele><time>2013-8-1T12:36:43Z</time></trkpt>
<trkpt lat="46.13963565789163" lon="7.237677415832877"><ele></ele><time>2013-8-1T12:36:46Z</time></trkpt>
<trkpt lat="46.13963607698679" lon="7.237642295658588"><ele></ele><time>2013-8-1T12:36:49Z</time></trkpt>
<trkpt lat="46.13963465206325" lon="7.2376069240272045"><ele></ele><time>2013-8-1T12:36:52Z</time></trkpt>
<trkpt lat="46.13963364623487" lon="7.237569456920028"><ele></ele><time>2013-8-1T12:36:55Z</time></trkpt>
<trkpt lat="46.13962886855006" lon="7.237528972327709"><ele></ele><time>2013-8-1T12:36:58Z</time></trkpt>
<trkpt lat="46.13963599316776" lon="7.237317832186818"><ele></ele><time>2013-8-1T12:37:1Z</time></trkpt>
<trkpt lat="46.13963917829096" lon="7.237281957641244"><ele></ele><time>2013-8-1T12:37:4Z</time></trkpt>
<trkpt lat="46.13964035175741" lon="7.237247843295336"><ele></ele><time>2013-8-1T12:37:7Z</time></trkpt>
<trkpt lat="46.13964093849063" lon="7.237209705635905"><ele></ele><time>2013-8-1T12:37:10Z</time></trkpt>
<trkpt lat="46.13969567231834" lon="7.2369934525340796"><ele></ele><time>2013-8-1T12:37:13Z</time></trkpt>
<trkpt lat="46.13970547914505" lon="7.236962607130408"><ele></ele><time>2013-8-1T12:37:16Z</time></trkpt>
<trkpt lat="46.13971587270498" lon="7.236930588260293"><ele></ele><time>2013-8-1T12:37:19Z</time></trkpt>
<trkpt lat="46.1397254280746" lon="7.236898317933083"><ele></ele><time>2013-8-1T12:37:22Z</time></trkpt>
<trkpt lat="46.13973875530064" lon="7.236864874139428"><ele></ele><time>2013-8-1T12:37:25Z</time></trkpt>
<trkpt lat="46.13975300453603" lon="7.236837297677994"><ele></ele><time>2013-8-1T12:37:28Z</time></trkpt>
<trkpt lat="46.13979298621416" lon="7.236757082864642"><ele></ele><time>2013-8-1T12:37:31Z</time></trkpt>
<trkpt lat="46.13984679803252" lon="7.236637305468321"><ele></ele><time>2013-8-1T12:37:34Z</time></trkpt>
<trkpt lat="46.13986414857209" lon="7.2366150096058846"><ele></ele><time>2013-8-1T12:37:37Z</time></trkpt>
<trkpt lat="46.13988367840648" lon="7.236591205000877"><ele></ele><time>2013-8-1T12:37:40Z</time></trkpt>
<trkpt lat="46.13990086130798" lon="7.236568070948124"><ele></ele><time>2013-8-1T12:37:43Z</time></trkpt>
<trkpt lat="46.13991997204721" lon="7.236541751772165"><ele></ele><time>2013-8-1T12:37:46Z</time></trkpt>
<trkpt lat="46.14002147689462" lon="7.2364124190062284"><ele></ele><time>2013-8-1T12:37:49Z</time></trkpt>
<trkpt lat="46.14004301838577" lon="7.236390123143792"><ele></ele><time>2013-8-1T12:37:52Z</time></trkpt>
<trkpt lat="46.14006506279111" lon="7.236366318538785"><ele></ele><time>2013-8-1T12:37:55Z</time></trkpt>
<trkpt lat="46.14008333534002" lon="7.236344777047634"><ele></ele><time>2013-8-1T12:37:58Z</time></trkpt>
<trkpt lat="46.14010185934603" lon="7.2363166976720095"><ele></ele><time>2013-8-1T12:38:1Z</time></trkpt>
<trkpt lat="46.14017738029361" lon="7.236216953024268"><ele></ele><time>2013-8-1T12:38:4Z</time></trkpt>
<trkpt lat="46.14022767171264" lon="7.236156016588211"><ele></ele><time>2013-8-1T12:38:7Z</time></trkpt>
<trkpt lat="46.140243681147695" lon="7.236145539209247"><ele></ele><time>2013-8-1T12:38:10Z</time></trkpt>
<trkpt lat="46.14025524817407" lon="7.236133636906743"><ele></ele><time>2013-8-1T12:38:13Z</time></trkpt>
<trkpt lat="46.14026010967791" lon="7.23613103851676"><ele></ele><time>2013-8-1T12:38:16Z</time></trkpt>
<trkpt lat="46.14025759510696" lon="7.236128691583872"><ele></ele><time>2013-8-1T12:38:19Z</time></trkpt>
<trkpt lat="46.14025759510696" lon="7.236128691583872"><ele></ele><time>2013-8-1T12:38:22Z</time></trkpt>
<trkpt lat="46.14025759510696" lon="7.236128691583872"><ele></ele><time>2013-8-1T12:38:25Z</time></trkpt>
<trkpt lat="46.13918068818748" lon="7.237570881843567"><ele></ele><time>2013-8-1T12:38:28Z</time></trkpt>
<trkpt lat="46.139169204980135" lon="7.237602062523365"><ele></ele><time>2013-8-1T12:38:31Z</time></trkpt>
<trkpt lat="46.13915487192571" lon="7.2376349195837975"><ele></ele><time>2013-8-1T12:38:34Z</time></trkpt>
<trkpt lat="46.13905814476311" lon="7.23782217130065"><ele></ele><time>2013-8-1T12:38:37Z</time></trkpt>
<trkpt lat="46.13904180005193" lon="7.237850418314338"><ele></ele><time>2013-8-1T12:38:40Z</time></trkpt>
<trkpt lat="46.13902436569333" lon="7.237879419699311"><ele></ele><time>2013-8-1T12:38:43Z</time></trkpt>
<trkpt lat="46.13900818862021" lon="7.23790917545557"><ele></ele><time>2013-8-1T12:38:46Z</time></trkpt>
<trkpt lat="46.138989329338074" lon="7.237934321165085"><ele></ele><time>2013-8-1T12:38:49Z</time></trkpt>
<trkpt lat="46.13888841122389" lon="7.238118890672922"><ele></ele><time>2013-8-1T12:38:52Z</time></trkpt>
<trkpt lat="46.138841807842255" lon="7.238208074122667"><ele></ele><time>2013-8-1T12:38:55Z</time></trkpt>
<trkpt lat="46.138825630769134" lon="7.238236488774419"><ele></ele><time>2013-8-1T12:38:58Z</time></trkpt>
<trkpt lat="46.13880869932473" lon="7.23826733417809"><ele></ele><time>2013-8-1T12:39:1Z</time></trkpt>
<trkpt lat="46.1387946177274" lon="7.238297676667571"><ele></ele><time>2013-8-1T12:39:4Z</time></trkpt>
<trkpt lat="46.138780787587166" lon="7.238330030813813"><ele></ele><time>2013-8-1T12:39:7Z</time></trkpt>
<trkpt lat="46.138767125084996" lon="7.238363390788436"><ele></ele><time>2013-8-1T12:39:10Z</time></trkpt>
<trkpt lat="46.13869881257415" lon="7.238522227853537"><ele></ele><time>2013-8-1T12:39:13Z</time></trkpt>
<trkpt lat="46.13868908956647" lon="7.238556845113635"><ele></ele><time>2013-8-1T12:39:16Z</time></trkpt>
<trkpt lat="46.138674672693014" lon="7.238590456545353"><ele></ele><time>2013-8-1T12:39:19Z</time></trkpt>
<trkpt lat="46.13865740597248" lon="7.238624570891261"><ele></ele><time>2013-8-1T12:39:22Z</time></trkpt>
<trkpt lat="46.138642989099026" lon="7.23865726031363"><ele></ele><time>2013-8-1T12:39:25Z</time></trkpt>
<trkpt lat="46.13856252282858" lon="7.238822970539331"><ele></ele><time>2013-8-1T12:39:28Z</time></trkpt>
<trkpt lat="46.13852882757783" lon="7.238930510357022"><ele></ele><time>2013-8-1T12:39:31Z</time></trkpt>
<trkpt lat="46.13852254115045" lon="7.238967893645167"><ele></ele><time>2013-8-1T12:39:34Z</time></trkpt>
<trkpt lat="46.13850938156247" lon="7.239001505076885"><ele></ele><time>2013-8-1T12:39:37Z</time></trkpt>
<trkpt lat="46.13850485533476" lon="7.239038720726967"><ele></ele><time>2013-8-1T12:39:40Z</time></trkpt>
<trkpt lat="46.138497395440936" lon="7.239073673263192"><ele></ele><time>2013-8-1T12:39:43Z</time></trkpt>
<trkpt lat="46.138479793444276" lon="7.239315323531628"><ele></ele><time>2013-8-1T12:39:46Z</time></trkpt>
<trkpt lat="46.13846470601857" lon="7.23939361050725"><ele></ele><time>2013-8-1T12:39:49Z</time></trkpt>
<trkpt lat="46.13845808431506" lon="7.239432167261839"><ele></ele><time>2013-8-1T12:39:52Z</time></trkpt>
<trkpt lat="46.138449450954795" lon="7.239470304921269"><ele></ele><time>2013-8-1T12:39:55Z</time></trkpt>
<trkpt lat="46.138441152870655" lon="7.239508023485541"><ele></ele><time>2013-8-1T12:39:58Z</time></trkpt>
<trkpt lat="46.13843008875847" lon="7.239545406773686"><ele></ele><time>2013-8-1T12:40:1Z</time></trkpt>
<trkpt lat="46.13840854726732" lon="7.239621095359325"><ele></ele><time>2013-8-1T12:40:4Z</time></trkpt>
<trkpt lat="46.138349287211895" lon="7.239786135032773"><ele></ele><time>2013-8-1T12:40:7Z</time></trkpt>
<trkpt lat="46.138333696871996" lon="7.23981874063611"><ele></ele><time>2013-8-1T12:40:10Z</time></trkpt>
<trkpt lat="46.13831768743694" lon="7.239846820011735"><ele></ele><time>2013-8-1T12:40:13Z</time></trkpt>
<trkpt lat="46.13830268383026" lon="7.239877916872501"><ele></ele><time>2013-8-1T12:40:16Z</time></trkpt>
<trkpt lat="46.13828617148101" lon="7.239905828610063"><ele></ele><time>2013-8-1T12:40:19Z</time></trkpt>
<trkpt lat="46.13815021701157" lon="7.240112191066146"><ele></ele><time>2013-8-1T12:40:22Z</time></trkpt>
<trkpt lat="46.138129346072674" lon="7.240138929337263"><ele></ele><time>2013-8-1T12:40:25Z</time></trkpt>
<trkpt lat="46.13811115734279" lon="7.240166841074824"><ele></ele><time>2013-8-1T12:40:28Z</time></trkpt>
<trkpt lat="46.138090789318085" lon="7.240193663164973"><ele></ele><time>2013-8-1T12:40:31Z</time></trkpt>
<trkpt lat="46.138069834560156" lon="7.240219479426742"><ele></ele><time>2013-8-1T12:40:34Z</time></trkpt>
<trkpt lat="46.13800395280123" lon="7.240337412804365"><ele></ele><time>2013-8-1T12:40:37Z</time></trkpt>
<trkpt lat="46.1379880271852" lon="7.2403661627322435"><ele></ele><time>2013-8-1T12:40:40Z</time></trkpt>
<trkpt lat="46.13793388009071" lon="7.240449395030737"><ele></ele><time>2013-8-1T12:40:43Z</time></trkpt>
<trkpt lat="46.13792055286467" lon="7.240482084453106"><ele></ele><time>2013-8-1T12:40:46Z</time></trkpt>
<trkpt lat="46.13790823146701" lon="7.2405151929706335"><ele></ele><time>2013-8-1T12:40:49Z</time></trkpt>
<trkpt lat="46.13789699971676" lon="7.240550396963954"><ele></ele><time>2013-8-1T12:40:52Z</time></trkpt>
<trkpt lat="46.13787855952978" lon="7.240580739453435"><ele></ele><time>2013-8-1T12:40:55Z</time></trkpt>
<trkpt lat="46.137827932834625" lon="7.2406757902354"><ele></ele><time>2013-8-1T12:40:58Z</time></trkpt>
<trkpt lat="46.13780119456351" lon="7.240786263719201"><ele></ele><time>2013-8-1T12:41:1Z</time></trkpt>
<trkpt lat="46.137784430757165" lon="7.240864131599665"><ele></ele><time>2013-8-1T12:41:4Z</time></trkpt>
<trkpt lat="46.13777688704431" lon="7.240900592878461"><ele></ele><time>2013-8-1T12:41:7Z</time></trkpt>
<trkpt lat="46.13777353428304" lon="7.2409395687282085"><ele></ele><time>2013-8-1T12:41:10Z</time></trkpt>
<trkpt lat="46.13776984624565" lon="7.2409797180444"><ele></ele><time>2013-8-1T12:41:13Z</time></trkpt>
<trkpt lat="46.13776163198054" lon="7.2410588432103395"><ele></ele><time>2013-8-1T12:41:16Z</time></trkpt>
<trkpt lat="46.13768560811877" lon="7.24126311019063"><ele></ele><time>2013-8-1T12:41:19Z</time></trkpt>
<trkpt lat="46.13766700029373" lon="7.241295212879777"><ele></ele><time>2013-8-1T12:41:22Z</time></trkpt>
<trkpt lat="46.13764579407871" lon="7.241324717178941"><ele></ele><time>2013-8-1T12:41:25Z</time></trkpt>
<trkpt lat="46.13762550987303" lon="7.241348521783948"><ele></ele><time>2013-8-1T12:41:28Z</time></trkpt>
<trkpt lat="46.13760396838188" lon="7.241375930607319"><ele></ele><time>2013-8-1T12:41:31Z</time></trkpt>
<trkpt lat="46.137578655034304" lon="7.241390515118837"><ele></ele><time>2013-8-1T12:41:34Z</time></trkpt>
<trkpt lat="46.13752878271043" lon="7.2414321731776"><ele></ele><time>2013-8-1T12:41:37Z</time></trkpt>
<trkpt lat="46.137396432459354" lon="7.241556812077761"><ele></ele><time>2013-8-1T12:41:40Z</time></trkpt>
<trkpt lat="46.13737380132079" lon="7.241577431559563"><ele></ele><time>2013-8-1T12:41:43Z</time></trkpt>
<trkpt lat="46.13734966143966" lon="7.241594614461064"><ele></ele><time>2013-8-1T12:41:46Z</time></trkpt>
<trkpt lat="46.13732476718724" lon="7.241621185094118"><ele></ele><time>2013-8-1T12:41:49Z</time></trkpt>
<trkpt lat="46.137177580967546" lon="7.241774071007967"><ele></ele><time>2013-8-1T12:41:52Z</time></trkpt>
<trkpt lat="46.13715972751379" lon="7.241797456517816"><ele></ele><time>2013-8-1T12:41:55Z</time></trkpt>
<trkpt lat="46.13713885657489" lon="7.241821093484759"><ele></ele><time>2013-8-1T12:41:58Z</time></trkpt>
<trkpt lat="46.13711806945503" lon="7.241847580298781"><ele></ele><time>2013-8-1T12:42:1Z</time></trkpt>
<trkpt lat="46.13709636032581" lon="7.241871384903789"><ele></ele><time>2013-8-1T12:42:4Z</time></trkpt>
<trkpt lat="46.13707758486271" lon="7.241896698251367"><ele></ele><time>2013-8-1T12:42:7Z</time></trkpt>
<trkpt lat="46.137059815227985" lon="7.24192326888442"><ele></ele><time>2013-8-1T12:42:10Z</time></trkpt>
<trkpt lat="46.137005081400275" lon="7.241999041289091"><ele></ele><time>2013-8-1T12:42:13Z</time></trkpt>
<trkpt lat="46.13699309527874" lon="7.242030389606953"><ele></ele><time>2013-8-1T12:42:16Z</time></trkpt>
<trkpt lat="46.13698077388108" lon="7.242054110392928"><ele></ele><time>2013-8-1T12:42:19Z</time></trkpt>
<trkpt lat="46.13696384243667" lon="7.242077579721808"><ele></ele><time>2013-8-1T12:42:22Z</time></trkpt>
<trkpt lat="46.136947413906455" lon="7.242101468145847"><ele></ele><time>2013-8-1T12:42:25Z</time></trkpt>
<trkpt lat="46.136926459148526" lon="7.242126613855362"><ele></ele><time>2013-8-1T12:42:28Z</time></trkpt>
<trkpt lat="46.13689846359193" lon="7.24218562245369"><ele></ele><time>2013-8-1T12:42:31Z</time></trkpt>
<trkpt lat="46.136864768341184" lon="7.242272542789578"><ele></ele><time>2013-8-1T12:42:34Z</time></trkpt>
<trkpt lat="46.136852195486426" lon="7.242296263575554"><ele></ele><time>2013-8-1T12:42:37Z</time></trkpt>
<trkpt lat="46.136840460821986" lon="7.242325516417623"><ele></ele><time>2013-8-1T12:42:40Z</time></trkpt>
<trkpt lat="46.136823277920485" lon="7.242355020716786"><ele></ele><time>2013-8-1T12:42:43Z</time></trkpt>
<trkpt lat="46.1368085257709" lon="7.242382932454348"><ele></ele><time>2013-8-1T12:42:46Z</time></trkpt>
<trkpt lat="46.13677826710045" lon="7.242438001558185"><ele></ele><time>2013-8-1T12:42:49Z</time></trkpt>
<trkpt lat="46.13671221770346" lon="7.242581667378545"><ele></ele><time>2013-8-1T12:42:52Z</time></trkpt>
<trkpt lat="46.136697717010975" lon="7.242604969069362"><ele></ele><time>2013-8-1T12:42:55Z</time></trkpt>
<trkpt lat="46.13668078556657" lon="7.242627767845988"><ele></ele><time>2013-8-1T12:42:58Z</time></trkpt>
<trkpt lat="46.13666242919862" lon="7.242647465318441"><ele></ele><time>2013-8-1T12:43:1Z</time></trkpt>
<trkpt lat="46.13664516247809" lon="7.242671437561512"><ele></ele><time>2013-8-1T12:43:4Z</time></trkpt>
<trkpt lat="46.136555559933186" lon="7.242768248543143"><ele></ele><time>2013-8-1T12:43:7Z</time></trkpt>
<trkpt lat="46.13653770647943" lon="7.242793561890721"><ele></ele><time>2013-8-1T12:43:10Z</time></trkpt>
<trkpt lat="46.13651708699763" lon="7.242811415344477"><ele></ele><time>2013-8-1T12:43:13Z</time></trkpt>
<trkpt lat="46.136494874954224" lon="7.242828095331788"><ele></ele><time>2013-8-1T12:43:16Z</time></trkpt>
<trkpt lat="46.13634710200131" lon="7.242954159155488"><ele></ele><time>2013-8-1T12:43:19Z</time></trkpt>
<trkpt lat="46.13629035651684" lon="7.243024483323097"><ele></ele><time>2013-8-1T12:43:22Z</time></trkpt>
<trkpt lat="46.13627350889146" lon="7.2430456057190895"><ele></ele><time>2013-8-1T12:43:25Z</time></trkpt>
<trkpt lat="46.13625900819898" lon="7.243065889924765"><ele></ele><time>2013-8-1T12:43:28Z</time></trkpt>
<trkpt lat="46.13624467514455" lon="7.243089945986867"><ele></ele><time>2013-8-1T12:43:31Z</time></trkpt>
<trkpt lat="46.136232605203986" lon="7.243116851896048"><ele></ele><time>2013-8-1T12:43:34Z</time></trkpt>
<trkpt lat="46.13620846532285" lon="7.2431654669344425"><ele></ele><time>2013-8-1T12:43:37Z</time></trkpt>
<trkpt lat="46.13613797351718" lon="7.243283987045288"><ele></ele><time>2013-8-1T12:43:40Z</time></trkpt>
<trkpt lat="46.13612053915858" lon="7.243303935974836"><ele></ele><time>2013-8-1T12:43:43Z</time></trkpt>
<trkpt lat="46.13610176369548" lon="7.243326231837273"><ele></ele><time>2013-8-1T12:43:46Z</time></trkpt>
<trkpt lat="46.13608558662236" lon="7.243348862975836"><ele></ele><time>2013-8-1T12:43:49Z</time></trkpt>
<trkpt lat="46.13593772985041" lon="7.243508538231254"><ele></ele><time>2013-8-1T12:43:52Z</time></trkpt>
<trkpt lat="46.13591711036861" lon="7.243529241532087"><ele></ele><time>2013-8-1T12:43:55Z</time></trkpt>
<trkpt lat="46.13589774817228" lon="7.243546340614557"><ele></ele><time>2013-8-1T12:43:58Z</time></trkpt>
<trkpt lat="46.135876877233386" lon="7.243562014773488"><ele></ele><time>2013-8-1T12:44:1Z</time></trkpt>
<trkpt lat="46.13585835322738" lon="7.243574587628245"><ele></ele><time>2013-8-1T12:44:4Z</time></trkpt>
<trkpt lat="46.13575944676995" lon="7.243649270385504"><ele></ele><time>2013-8-1T12:44:7Z</time></trkpt>
<trkpt lat="46.13569733686745" lon="7.243678271770477"><ele></ele><time>2013-8-1T12:44:10Z</time></trkpt>
<trkpt lat="46.13567629829049" lon="7.243688581511378"><ele></ele><time>2013-8-1T12:44:13Z</time></trkpt>
<trkpt lat="46.135657941922545" lon="7.2437044233083725"><ele></ele><time>2013-8-1T12:44:16Z</time></trkpt>
<trkpt lat="46.13563572987914" lon="7.243710709735751"><ele></ele><time>2013-8-1T12:44:19Z</time></trkpt>
<trkpt lat="46.13561326637864" lon="7.243712553754449"><ele></ele><time>2013-8-1T12:44:22Z</time></trkpt>
<trkpt lat="46.13559264689684" lon="7.2437194269150496"><ele></ele><time>2013-8-1T12:44:25Z</time></trkpt>
<trkpt lat="46.135569512844086" lon="7.24372336640954"><ele></ele><time>2013-8-1T12:44:28Z</time></trkpt>
<trkpt lat="46.13548384979367" lon="7.243731329217553"><ele></ele><time>2013-8-1T12:44:31Z</time></trkpt>
<trkpt lat="46.135463984683156" lon="7.243743650615215"><ele></ele><time>2013-8-1T12:44:34Z</time></trkpt>
<trkpt lat="46.13544470630586" lon="7.243742644786835"><ele></ele><time>2013-8-1T12:44:37Z</time></trkpt>
<trkpt lat="46.13542299717665" lon="7.2437394596636295"><ele></ele><time>2013-8-1T12:44:40Z</time></trkpt>
<trkpt lat="46.13540070131421" lon="7.243751110509038"><ele></ele><time>2013-8-1T12:44:43Z</time></trkpt>
<trkpt lat="46.135318391025066" lon="7.243788577616215"><ele></ele><time>2013-8-1T12:44:46Z</time></trkpt>
<trkpt lat="46.13529718481004" lon="7.243797294795513"><ele></ele><time>2013-8-1T12:44:49Z</time></trkpt>
<trkpt lat="46.135270865634084" lon="7.2438083589077"><ele></ele><time>2013-8-1T12:44:52Z</time></trkpt>
<trkpt lat="46.1352458037436" lon="7.243816656991839"><ele></ele><time>2013-8-1T12:44:55Z</time></trkpt>
<trkpt lat="46.13522484898567" lon="7.24382109940052"><ele></ele><time>2013-8-1T12:44:58Z</time></trkpt>
<trkpt lat="46.135202469304204" lon="7.2438266314566135"><ele></ele><time>2013-8-1T12:45:1Z</time></trkpt>
<trkpt lat="46.135139437392354" lon="7.243845406919718"><ele></ele><time>2013-8-1T12:45:4Z</time></trkpt>
<trkpt lat="46.13504379987717" lon="7.243865188211203"><ele></ele><time>2013-8-1T12:45:7Z</time></trkpt>
<trkpt lat="46.135019576177" lon="7.243865942582488"><ele></ele><time>2013-8-1T12:45:10Z</time></trkpt>
<trkpt lat="46.134999208152294" lon="7.243861919268966"><ele></ele><time>2013-8-1T12:45:13Z</time></trkpt>
<trkpt lat="46.13498009741306" lon="7.243873402476311"><ele></ele><time>2013-8-1T12:45:16Z</time></trkpt>
<trkpt lat="46.13495763391256" lon="7.243872312828898"><ele></ele><time>2013-8-1T12:45:19Z</time></trkpt>
<trkpt lat="46.134899128228426" lon="7.2438734862953424"><ele></ele><time>2013-8-1T12:45:22Z</time></trkpt>
<trkpt lat="46.13477231003344" lon="7.243897374719381"><ele></ele><time>2013-8-1T12:45:25Z</time></trkpt>
<trkpt lat="46.13474699668586" lon="7.243903074413538"><ele></ele><time>2013-8-1T12:45:28Z</time></trkpt>
<trkpt lat="46.13472352735698" lon="7.243916401639581"><ele></ele><time>2013-8-1T12:45:31Z</time></trkpt>
<trkpt lat="46.13471120595932" lon="7.243928303942084"><ele></ele><time>2013-8-1T12:45:34Z</time></trkpt>
<trkpt lat="46.1347037460655" lon="7.243938948959112"><ele></ele><time>2013-8-1T12:45:37Z</time></trkpt>
<trkpt lat="46.134685054421425" lon="7.243946073576808"><ele></ele><time>2013-8-1T12:45:40Z</time></trkpt>
<trkpt lat="46.134669464081526" lon="7.243952946737409"><ele></ele><time>2013-8-1T12:45:43Z</time></trkpt>
<trkpt lat="46.13457382656634" lon="7.243967950344086"><ele></ele><time>2013-8-1T12:45:46Z</time></trkpt>
<trkpt lat="46.134558068588376" lon="7.243966776877642"><ele></ele><time>2013-8-1T12:45:49Z</time></trkpt>
<trkpt lat="46.13454063422978" lon="7.24396669305861"><ele></ele><time>2013-8-1T12:45:52Z</time></trkpt>
<trkpt lat="46.13451917655766" lon="7.243980439379811"><ele></ele><time>2013-8-1T12:45:55Z</time></trkpt>
<trkpt lat="46.13443795591593" lon="7.244029473513365"><ele></ele><time>2013-8-1T12:45:58Z</time></trkpt>
<trkpt lat="46.13436830230057" lon="7.244063252583146"><ele></ele><time>2013-8-1T12:46:1Z</time></trkpt>
<trkpt lat="46.134347850456834" lon="7.244065348058939"><ele></ele><time>2013-8-1T12:46:4Z</time></trkpt>
<trkpt lat="46.13432798534632" lon="7.244067443534732"><ele></ele><time>2013-8-1T12:46:7Z</time></trkpt>
<trkpt lat="46.1343062762171" lon="7.244066772982478"><ele></ele><time>2013-8-1T12:46:10Z</time></trkpt>
<trkpt lat="46.134287249296904" lon="7.244063084945083"><ele></ele><time>2013-8-1T12:46:13Z</time></trkpt>
<trkpt lat="46.134149534627795" lon="7.244001561775804"><ele></ele><time>2013-8-1T12:46:16Z</time></trkpt>
<trkpt lat="46.13410728983581" lon="7.243960238993168"><ele></ele><time>2013-8-1T12:46:19Z</time></trkpt>
<trkpt lat="46.13408784382045" lon="7.243940206244588"><ele></ele><time>2013-8-1T12:46:22Z</time></trkpt>
<trkpt lat="46.134062111377716" lon="7.243917575106025"><ele></ele><time>2013-8-1T12:46:25Z</time></trkpt>
<trkpt lat="46.134039647877216" lon="7.243903828784823"><ele></ele><time>2013-8-1T12:46:28Z</time></trkpt>
<trkpt lat="46.13401701673865" lon="7.2438920103013515"><ele></ele><time>2013-8-1T12:46:31Z</time></trkpt>
<trkpt lat="46.13399421796203" lon="7.243882371112704"><ele></ele><time>2013-8-1T12:46:34Z</time></trkpt>
<trkpt lat="46.133971167728305" lon="7.243871726095676"><ele></ele><time>2013-8-1T12:46:37Z</time></trkpt>
<trkpt lat="46.133913500234485" lon="7.243836019188166"><ele></ele><time>2013-8-1T12:46:40Z</time></trkpt>
<trkpt lat="46.1338987480849" lon="7.243824116885662"><ele></ele><time>2013-8-1T12:46:43Z</time></trkpt>
<trkpt lat="46.133878380060196" lon="7.243817495182157"><ele></ele><time>2013-8-1T12:46:46Z</time></trkpt>
<trkpt lat="46.133857844397426" lon="7.243810370564461"><ele></ele><time>2013-8-1T12:46:49Z</time></trkpt>
<trkpt lat="46.13383403979242" lon="7.243806766346097"><ele></ele><time>2013-8-1T12:46:52Z</time></trkpt>
<trkpt lat="46.13369649276137" lon="7.24384012632072"><ele></ele><time>2013-8-1T12:46:55Z</time></trkpt>
<trkpt lat="46.13362197764218" lon="7.243899554014206"><ele></ele><time>2013-8-1T12:46:58Z</time></trkpt>
<trkpt lat="46.1335985083133" lon="7.243918916210532"><ele></ele><time>2013-8-1T12:47:1Z</time></trkpt>
<trkpt lat="46.13357470370829" lon="7.243939954787493"><ele></ele><time>2013-8-1T12:47:4Z</time></trkpt>
<trkpt lat="46.13355500623584" lon="7.243962334468961"><ele></ele><time>2013-8-1T12:47:7Z</time></trkpt>
<trkpt lat="46.133538242429495" lon="7.243979014456272"><ele></ele><time>2013-8-1T12:47:10Z</time></trkpt>
<trkpt lat="46.13338669762015" lon="7.244099713861942"><ele></ele><time>2013-8-1T12:47:13Z</time></trkpt>
<trkpt lat="46.13320925273001" lon="7.244243631139398"><ele></ele><time>2013-8-1T12:47:16Z</time></trkpt>
<trkpt lat="46.13317974843085" lon="7.2442692797631025"><ele></ele><time>2013-8-1T12:47:19Z</time></trkpt>
<trkpt lat="46.133150244131684" lon="7.244294760748744"><ele></ele><time>2013-8-1T12:47:22Z</time></trkpt>
<trkpt lat="46.133116632699966" lon="7.244318313896656"><ele></ele><time>2013-8-1T12:47:25Z</time></trkpt>
<trkpt lat="46.13307958468795" lon="7.24434245377779"><ele></ele><time>2013-8-1T12:47:28Z</time></trkpt>
<trkpt lat="46.133010014891624" lon="7.244379501789808"><ele></ele><time>2013-8-1T12:47:31Z</time></trkpt>
<trkpt lat="46.13285796716809" lon="7.244457034394145"><ele></ele><time>2013-8-1T12:47:34Z</time></trkpt>
<trkpt lat="46.132785715162754" lon="7.244508164003491"><ele></ele><time>2013-8-1T12:47:37Z</time></trkpt>
<trkpt lat="46.132738860324025" lon="7.244593324139714"><ele></ele><time>2013-8-1T12:47:40Z</time></trkpt>
<trkpt lat="46.13272117450833" lon="7.244633054360747"><ele></ele><time>2013-8-1T12:47:43Z</time></trkpt>
<trkpt lat="46.132707092911005" lon="7.244673790410161"><ele></ele><time>2013-8-1T12:47:46Z</time></trkpt>
<trkpt lat="46.13269812427461" lon="7.244717292487621"><ele></ele><time>2013-8-1T12:47:49Z</time></trkpt>
<trkpt lat="46.13269217312336" lon="7.244765153154731"><ele></ele><time>2013-8-1T12:47:52Z</time></trkpt>
<trkpt lat="46.132688065990806" lon="7.244812678545713"><ele></ele><time>2013-8-1T12:47:55Z</time></trkpt>
<trkpt lat="46.13265881314874" lon="7.2450014390051365"><ele></ele><time>2013-8-1T12:47:58Z</time></trkpt>
<trkpt lat="46.132653281092644" lon="7.245177794247866"><ele></ele><time>2013-8-1T12:48:1Z</time></trkpt>
<trkpt lat="46.13266627304256" lon="7.245353227481246"><ele></ele><time>2013-8-1T12:48:4Z</time></trkpt>
<trkpt lat="46.132650850340724" lon="7.245461102575064"><ele></ele><time>2013-8-1T12:48:7Z</time></trkpt>
<trkpt lat="46.132622519508004" lon="7.245603343471885"><ele></ele><time>2013-8-1T12:48:10Z</time></trkpt>
<trkpt lat="46.13261355087161" lon="7.245650952681899"><ele></ele><time>2013-8-1T12:48:13Z</time></trkpt>
<trkpt lat="46.132606007158756" lon="7.2456982266157866"><ele></ele><time>2013-8-1T12:48:16Z</time></trkpt>
<trkpt lat="46.13259745761752" lon="7.245741644874215"><ele></ele><time>2013-8-1T12:48:19Z</time></trkpt>
<trkpt lat="46.13259150646627" lon="7.245779782533646"><ele></ele><time>2013-8-1T12:48:22Z</time></trkpt>
<trkpt lat="46.13258262164891" lon="7.245818506926298"><ele></ele><time>2013-8-1T12:48:25Z</time></trkpt>
<trkpt lat="46.13257046788931" lon="7.245855554938316"><ele></ele><time>2013-8-1T12:48:28Z</time></trkpt>
<trkpt lat="46.13252269104123" lon="7.245966112241149"><ele></ele><time>2013-8-1T12:48:31Z</time></trkpt>
<trkpt lat="46.13250751979649" lon="7.246002154424787"><ele></ele><time>2013-8-1T12:48:34Z</time></trkpt>
<trkpt lat="46.13248849287629" lon="7.246040292084217"><ele></ele><time>2013-8-1T12:48:37Z</time></trkpt>
<trkpt lat="46.13246602937579" lon="7.246073232963681"><ele></ele><time>2013-8-1T12:48:40Z</time></trkpt>
<trkpt lat="46.13243727944791" lon="7.24610248580575"><ele></ele><time>2013-8-1T12:48:43Z</time></trkpt>
<trkpt lat="46.13241129554808" lon="7.246132660657167"><ele></ele><time>2013-8-1T12:48:46Z</time></trkpt>
<trkpt lat="46.132283471524715" lon="7.2462893184274435"><ele></ele><time>2013-8-1T12:48:49Z</time></trkpt>
<trkpt lat="46.1322564817965" lon="7.246317062526941"><ele></ele><time>2013-8-1T12:48:52Z</time></trkpt>
<trkpt lat="46.13212580792606" lon="7.246446730569005"><ele></ele><time>2013-8-1T12:48:55Z</time></trkpt>
<trkpt lat="46.13209546543658" lon="7.246465170755982"><ele></ele><time>2013-8-1T12:48:58Z</time></trkpt>
<trkpt lat="46.13206822425127" lon="7.246490651741624"><ele></ele><time>2013-8-1T12:49:1Z</time></trkpt>
<trkpt lat="46.1320426594466" lon="7.246520658954978"><ele></ele><time>2013-8-1T12:49:4Z</time></trkpt>
<trkpt lat="46.13201608881354" lon="7.24654957652092"><ele></ele><time>2013-8-1T12:49:7Z</time></trkpt>
<trkpt lat="46.13199722953141" lon="7.24658427760005"><ele></ele><time>2013-8-1T12:49:10Z</time></trkpt>
<trkpt lat="46.13194735720754" lon="7.246698774397373"><ele></ele><time>2013-8-1T12:49:13Z</time></trkpt>
<trkpt lat="46.131845684722066" lon="7.246902706101537"><ele></ele><time>2013-8-1T12:49:16Z</time></trkpt>
<trkpt lat="46.131777707487345" lon="7.247120970860124"><ele></ele><time>2013-8-1T12:49:19Z</time></trkpt>
<trkpt lat="46.13177066668868" lon="7.247154079377651"><ele></ele><time>2013-8-1T12:49:22Z</time></trkpt>
<trkpt lat="46.131762536242604" lon="7.247187355533242"><ele></ele><time>2013-8-1T12:49:25Z</time></trkpt>
<trkpt lat="46.13175557926297" lon="7.247219793498516"><ele></ele><time>2013-8-1T12:49:28Z</time></trkpt>
<trkpt lat="46.13174677826464" lon="7.247254746034741"><ele></ele><time>2013-8-1T12:49:31Z</time></trkpt>
<trkpt lat="46.13173596560955" lon="7.247322052717209"><ele></ele><time>2013-8-1T12:49:34Z</time></trkpt>
<trkpt lat="46.131724985316396" lon="7.247382067143917"><ele></ele><time>2013-8-1T12:49:37Z</time></trkpt>
<trkpt lat="46.13171526230872" lon="7.247407212853432"><ele></ele><time>2013-8-1T12:49:40Z</time></trkpt>
<trkpt lat="46.13170428201556" lon="7.247431520372629"><ele></ele><time>2013-8-1T12:49:43Z</time></trkpt>
<trkpt lat="46.13168894313276" lon="7.247451804578304"><ele></ele><time>2013-8-1T12:49:46Z</time></trkpt>
<trkpt lat="46.13167083822191" lon="7.247463036328554"><ele></ele><time>2013-8-1T12:49:49Z</time></trkpt>
<trkpt lat="46.13162691704929" lon="7.247450798749924"><ele></ele><time>2013-8-1T12:49:52Z</time></trkpt>
<trkpt lat="46.13161166198552" lon="7.247431771829724"><ele></ele><time>2013-8-1T12:49:55Z</time></trkpt>
<trkpt lat="46.13159975968301" lon="7.247406877577305"><ele></ele><time>2013-8-1T12:49:58Z</time></trkpt>
<trkpt lat="46.13158877938986" lon="7.2473775409162045"><ele></ele><time>2013-8-1T12:50:1Z</time></trkpt>
<trkpt lat="46.131575368344784" lon="7.247348036617041"><ele></ele><time>2013-8-1T12:50:4Z</time></trkpt>
<trkpt lat="46.13152130506933" lon="7.247226247563958"><ele></ele><time>2013-8-1T12:50:7Z</time></trkpt>
<trkpt lat="46.13146774470806" lon="7.247059112414718"><ele></ele><time>2013-8-1T12:50:10Z</time></trkpt>
<trkpt lat="46.131457602605224" lon="7.247023908421397"><ele></ele><time>2013-8-1T12:50:13Z</time></trkpt>
<trkpt lat="46.13145391456783" lon="7.2469887882471085"><ele></ele><time>2013-8-1T12:50:16Z</time></trkpt>
<trkpt lat="46.13145550712943" lon="7.246954506263137"><ele></ele><time>2013-8-1T12:50:19Z</time></trkpt>
<trkpt lat="46.13146187737584" lon="7.246921146288514"><ele></ele><time>2013-8-1T12:50:22Z</time></trkpt>
<trkpt lat="46.13147906027734" lon="7.246858952566981"><ele></ele><time>2013-8-1T12:50:25Z</time></trkpt>
<trkpt lat="46.13151032477617" lon="7.246799441054463"><ele></ele><time>2013-8-1T12:50:28Z</time></trkpt>
<trkpt lat="46.13159280270338" lon="7.2466677613556385"><ele></ele><time>2013-8-1T12:50:31Z</time></trkpt>
<trkpt lat="46.131610153242946" lon="7.246640268713236"><ele></ele><time>2013-8-1T12:50:34Z</time></trkpt>
<trkpt lat="46.131626162678" lon="7.2466162126511335"><ele></ele><time>2013-8-1T12:50:37Z</time></trkpt>
<trkpt lat="46.13163974136114" lon="7.2465950064361095"><ele></ele><time>2013-8-1T12:50:40Z</time></trkpt>
<trkpt lat="46.13165440969169" lon="7.24657497368753"><ele></ele><time>2013-8-1T12:50:43Z</time></trkpt>
<trkpt lat="46.13167838193476" lon="7.246532645076513"><ele></ele><time>2013-8-1T12:50:46Z</time></trkpt>
<trkpt lat="46.13169103860855" lon="7.24645234644413"><ele></ele><time>2013-8-1T12:50:49Z</time></trkpt>
<trkpt lat="46.131715597584844" lon="7.246417980641127"><ele></ele><time>2013-8-1T12:50:52Z</time></trkpt>
<trkpt lat="46.13174116238952" lon="7.246382441371679"><ele></ele><time>2013-8-1T12:50:55Z</time></trkpt>
<trkpt lat="46.131763542070985" lon="7.246347237378359"><ele></ele><time>2013-8-1T12:50:58Z</time></trkpt>
<trkpt lat="46.13178567029536" lon="7.246306333690882"><ele></ele><time>2013-8-1T12:51:1Z</time></trkpt>
<trkpt lat="46.131802098825574" lon="7.246264675632119"><ele></ele><time>2013-8-1T12:51:4Z</time></trkpt>
<trkpt lat="46.1318922881037" lon="7.2460912540555"><ele></ele><time>2013-8-1T12:51:7Z</time></trkpt>
<trkpt lat="46.13191525451839" lon="7.246058229357004"><ele></ele><time>2013-8-1T12:51:10Z</time></trkpt>
<trkpt lat="46.13193771801889" lon="7.246032832190394"><ele></ele><time>2013-8-1T12:51:13Z</time></trkpt>
<trkpt lat="46.1319559905678" lon="7.245999723672867"><ele></ele><time>2013-8-1T12:51:16Z</time></trkpt>
<trkpt lat="46.1319734249264" lon="7.245968207716942"><ele></ele><time>2013-8-1T12:51:19Z</time></trkpt>
<trkpt lat="46.13199044018984" lon="7.245939709246159"><ele></ele><time>2013-8-1T12:51:22Z</time></trkpt>
<trkpt lat="46.1320302542299" lon="7.245846502482891"><ele></ele><time>2013-8-1T12:51:25Z</time></trkpt>
<trkpt lat="46.13206076435745" lon="7.245739214122295"><ele></ele><time>2013-8-1T12:51:28Z</time></trkpt>
<trkpt lat="46.13207115791738" lon="7.2457056026905775"><ele></ele><time>2013-8-1T12:51:31Z</time></trkpt>
<trkpt lat="46.13207794725895" lon="7.245668638497591"><ele></ele><time>2013-8-1T12:51:34Z</time></trkpt>
<trkpt lat="46.132086496800184" lon="7.245634356513619"><ele></ele><time>2013-8-1T12:51:37Z</time></trkpt>
<trkpt lat="46.132096303626895" lon="7.245603175833821"><ele></ele><time>2013-8-1T12:51:40Z</time></trkpt>
<trkpt lat="46.13210921175778" lon="7.2455766052007675"><ele></ele><time>2013-8-1T12:51:43Z</time></trkpt>
<trkpt lat="46.13216402940452" lon="7.245419025421143"><ele></ele><time>2013-8-1T12:51:46Z</time></trkpt>
<trkpt lat="46.13217568024993" lon="7.245393879711628"><ele></ele><time>2013-8-1T12:51:49Z</time></trkpt>
<trkpt lat="46.13218682818115" lon="7.245365213602781"><ele></ele><time>2013-8-1T12:51:52Z</time></trkpt>
<trkpt lat="46.132195461541414" lon="7.245338810607791"><ele></ele><time>2013-8-1T12:51:55Z</time></trkpt>
<trkpt lat="46.13220317289233" lon="7.245286172255874"><ele></ele><time>2013-8-1T12:51:58Z</time></trkpt>
<trkpt lat="46.13221080042422" lon="7.2451534029096365"><ele></ele><time>2013-8-1T12:52:1Z</time></trkpt>
<trkpt lat="46.132209710776806" lon="7.2451189532876015"><ele></ele><time>2013-8-1T12:52:4Z</time></trkpt>
<trkpt lat="46.13220602273941" lon="7.24508810788393"><ele></ele><time>2013-8-1T12:52:7Z</time></trkpt>
<trkpt lat="46.132200825959444" lon="7.245056256651878"><ele></ele><time>2013-8-1T12:52:10Z</time></trkpt>
<trkpt lat="46.13220199942589" lon="7.245028093457222"><ele></ele><time>2013-8-1T12:52:13Z</time></trkpt>
<trkpt lat="46.132206777110696" lon="7.245003031566739"><ele></ele><time>2013-8-1T12:52:16Z</time></trkpt>
<trkpt lat="46.13221004605293" lon="7.244974533095956"><ele></ele><time>2013-8-1T12:52:19Z</time></trkpt>
<trkpt lat="46.132222870364785" lon="7.244851738214493"><ele></ele><time>2013-8-1T12:52:22Z</time></trkpt>
<trkpt lat="46.13222907297313" lon="7.244818210601807"><ele></ele><time>2013-8-1T12:52:25Z</time></trkpt>
<trkpt lat="46.1322324257344" lon="7.244786862283945"><ele></ele><time>2013-8-1T12:52:28Z</time></trkpt>
<trkpt lat="46.13223276101053" lon="7.244755094870925"><ele></ele><time>2013-8-1T12:52:31Z</time></trkpt>
<trkpt lat="46.13222982734442" lon="7.244720812886953"><ele></ele><time>2013-8-1T12:52:34Z</time></trkpt>
<trkpt lat="46.132224295288324" lon="7.244574213400483"><ele></ele><time>2013-8-1T12:52:37Z</time></trkpt>
<trkpt lat="46.132225301116705" lon="7.244543870911002"><ele></ele><time>2013-8-1T12:52:40Z</time></trkpt>
<trkpt lat="46.132223373278975" lon="7.2445152048021555"><ele></ele><time>2013-8-1T12:52:43Z</time></trkpt>
<trkpt lat="46.13222060725093" lon="7.244484527036548"><ele></ele><time>2013-8-1T12:52:46Z</time></trkpt>
<trkpt lat="46.132218511775136" lon="7.244451167061925"><ele></ele><time>2013-8-1T12:52:49Z</time></trkpt>
<trkpt lat="46.1322186794132" lon="7.244420405477285"><ele></ele><time>2013-8-1T12:52:52Z</time></trkpt>
<trkpt lat="46.13221591338515" lon="7.244328455999494"><ele></ele><time>2013-8-1T12:52:55Z</time></trkpt>
<trkpt lat="46.13220166414976" lon="7.244263663887978"><ele></ele><time>2013-8-1T12:52:58Z</time></trkpt>
<trkpt lat="46.13219361752272" lon="7.24423055537045"><ele></ele><time>2013-8-1T12:53:1Z</time></trkpt>
<trkpt lat="46.13218925893307" lon="7.244195519015193"><ele></ele><time>2013-8-1T12:53:4Z</time></trkpt>
<trkpt lat="46.13218213431537" lon="7.244165511801839"><ele></ele><time>2013-8-1T12:53:7Z</time></trkpt>
<trkpt lat="46.132178949192166" lon="7.244134582579136"><ele></ele><time>2013-8-1T12:53:10Z</time></trkpt>
<trkpt lat="46.13217140547931" lon="7.244102144613862"><ele></ele><time>2013-8-1T12:53:13Z</time></trkpt>
<trkpt lat="46.13216352649033" lon="7.243993012234569"><ele></ele><time>2013-8-1T12:53:16Z</time></trkpt>
<trkpt lat="46.13214751705527" lon="7.243869798257947"><ele></ele><time>2013-8-1T12:53:19Z</time></trkpt>
<trkpt lat="46.1321462597698" lon="7.2438413836061954"><ele></ele><time>2013-8-1T12:53:22Z</time></trkpt>
<trkpt lat="46.132145170122385" lon="7.243809951469302"><ele></ele><time>2013-8-1T12:53:25Z</time></trkpt>
<trkpt lat="46.13213988952339" lon="7.243781369179487"><ele></ele><time>2013-8-1T12:53:28Z</time></trkpt>
<trkpt lat="46.13213695585728" lon="7.243749937042594"><ele></ele><time>2013-8-1T12:53:31Z</time></trkpt>
<trkpt lat="46.13210342824459" lon="7.2435816284269094"><ele></ele><time>2013-8-1T12:53:34Z</time></trkpt>
<trkpt lat="46.13209739327431" lon="7.243550028651953"><ele></ele><time>2013-8-1T12:53:37Z</time></trkpt>
<trkpt lat="46.132089011371136" lon="7.2435180097818375"><ele></ele><time>2013-8-1T12:53:40Z</time></trkpt>
<trkpt lat="46.13208197057247" lon="7.2434859070926905"><ele></ele><time>2013-8-1T12:53:43Z</time></trkpt>
<trkpt lat="46.132076773792505" lon="7.243456905707717"><ele></ele><time>2013-8-1T12:53:46Z</time></trkpt>
<trkpt lat="46.13204332999885" lon="7.243340481072664"><ele></ele><time>2013-8-1T12:53:49Z</time></trkpt>
<trkpt lat="46.132020112127066" lon="7.243257248774171"><ele></ele><time>2013-8-1T12:53:52Z</time></trkpt>
<trkpt lat="46.13201089203358" lon="7.243227493017912"><ele></ele><time>2013-8-1T12:53:55Z</time></trkpt>
<trkpt lat="46.132002426311374" lon="7.243199832737446"><ele></ele><time>2013-8-1T12:53:58Z</time></trkpt>
<trkpt lat="46.13199454732239" lon="7.243167394772172"><ele></ele><time>2013-8-1T12:54:1Z</time></trkpt>
<trkpt lat="46.13198524340987" lon="7.243139650672674"><ele></ele><time>2013-8-1T12:54:4Z</time></trkpt>
<trkpt lat="46.13194844685495" lon="7.242984501644969"><ele></ele><time>2013-8-1T12:54:7Z</time></trkpt>
<trkpt lat="46.131949285045266" lon="7.2429555002599955"><ele></ele><time>2013-8-1T12:54:10Z</time></trkpt>
<trkpt lat="46.1319665517658" lon="7.242899676784873"><ele></ele><time>2013-8-1T12:54:13Z</time></trkpt>
<trkpt lat="46.13197929225862" lon="7.242878973484039"><ele></ele><time>2013-8-1T12:54:16Z</time></trkpt>
<trkpt lat="46.131990691646934" lon="7.242865562438965"><ele></ele><time>2013-8-1T12:54:19Z</time></trkpt>
<trkpt lat="46.13200661726296" lon="7.242850223556161"><ele></ele><time>2013-8-1T12:54:22Z</time></trkpt>
<trkpt lat="46.13202162086964" lon="7.242835471406579"><ele></ele><time>2013-8-1T12:54:25Z</time></trkpt>
<trkpt lat="46.13203939050436" lon="7.242820216342807"><ele></ele><time>2013-8-1T12:54:28Z</time></trkpt>
<trkpt lat="46.13205657340586" lon="7.2428094036877155"><ele></ele><time>2013-8-1T12:54:31Z</time></trkpt>
<trkpt lat="46.13213519565761" lon="7.242762967944145"><ele></ele><time>2013-8-1T12:54:34Z</time></trkpt>
<trkpt lat="46.13215221092105" lon="7.242758190259337"><ele></ele><time>2013-8-1T12:54:37Z</time></trkpt>
<trkpt lat="46.13216788507998" lon="7.242747712880373"><ele></ele><time>2013-8-1T12:54:40Z</time></trkpt>
<trkpt lat="46.13218355923891" lon="7.24273631349206"><ele></ele><time>2013-8-1T12:54:43Z</time></trkpt>
<trkpt lat="46.13219361752272" lon="7.242724830284715"><ele></ele><time>2013-8-1T12:54:46Z</time></trkpt>
<trkpt lat="46.13220593892038" lon="7.242715274915099"><ele></ele><time>2013-8-1T12:54:49Z</time></trkpt>
<trkpt lat="46.1322514526546" lon="7.242690967395902"><ele></ele><time>2013-8-1T12:54:52Z</time></trkpt>
<trkpt lat="46.13228531554341" lon="7.242671856656671"><ele></ele><time>2013-8-1T12:54:55Z</time></trkpt>
<trkpt lat="46.132303504273295" lon="7.242658277973533"><ele></ele><time>2013-8-1T12:54:58Z</time></trkpt>
<trkpt lat="46.132321106269956" lon="7.2426447831094265"><ele></ele><time>2013-8-1T12:55:1Z</time></trkpt>
<trkpt lat="46.13233694806695" lon="7.2426327131688595"><ele></ele><time>2013-8-1T12:55:4Z</time></trkpt>
<trkpt lat="46.13235496915877" lon="7.242615446448326"><ele></ele><time>2013-8-1T12:55:7Z</time></trkpt>
<trkpt lat="46.132374079898" lon="7.2425994370132685"><ele></ele><time>2013-8-1T12:55:10Z</time></trkpt>
<trkpt lat="46.13247189670801" lon="7.242527017369866"><ele></ele><time>2013-8-1T12:55:13Z</time></trkpt>
<trkpt lat="46.13248589448631" lon="7.2425110917538404"><ele></ele><time>2013-8-1T12:55:16Z</time></trkpt>
<trkpt lat="46.13250106573105" lon="7.242491813376546"><ele></ele><time>2013-8-1T12:55:19Z</time></trkpt>
<trkpt lat="46.13251875154674" lon="7.242472367361188"><ele></ele><time>2013-8-1T12:55:22Z</time></trkpt>
<trkpt lat="46.1325347609818" lon="7.2424533404409885"><ele></ele><time>2013-8-1T12:55:25Z</time></trkpt>
<trkpt lat="46.132577089592814" lon="7.242387123405933"><ele></ele><time>2013-8-1T12:55:28Z</time></trkpt>
<trkpt lat="46.13260357640684" lon="7.242344543337822"><ele></ele><time>2013-8-1T12:55:31Z</time></trkpt>
<trkpt lat="46.13261849619448" lon="7.242321576923132"><ele></ele><time>2013-8-1T12:55:34Z</time></trkpt>
<trkpt lat="46.132631907239556" lon="7.242295928299427"><ele></ele><time>2013-8-1T12:55:37Z</time></trkpt>
<trkpt lat="46.13264489918947" lon="7.242270614951849"><ele></ele><time>2013-8-1T12:55:40Z</time></trkpt>
<trkpt lat="46.13265864551067" lon="7.242245972156525"><ele></ele><time>2013-8-1T12:55:43Z</time></trkpt>
<trkpt lat="46.13268337212503" lon="7.242186293005943"><ele></ele><time>2013-8-1T12:55:46Z</time></trkpt>
<trkpt lat="46.132720755413175" lon="7.2421367559581995"><ele></ele><time>2013-8-1T12:55:49Z</time></trkpt>
<trkpt lat="46.13277020864189" lon="7.242086967453361"><ele></ele><time>2013-8-1T12:55:52Z</time></trkpt>
<trkpt lat="46.13278470933437" lon="7.24207179620862"><ele></ele><time>2013-8-1T12:55:55Z</time></trkpt>
<trkpt lat="46.13279418088496" lon="7.242059223353863"><ele></ele><time>2013-8-1T12:55:58Z</time></trkpt>
<trkpt lat="46.13281086087227" lon="7.2420434653759"><ele></ele><time>2013-8-1T12:56:1Z</time></trkpt>
<trkpt lat="46.13282226026058" lon="7.242034496739507"><ele></ele><time>2013-8-1T12:56:4Z</time></trkpt>
<trkpt lat="46.13287364132702" lon="7.241985630244017"><ele></ele><time>2013-8-1T12:56:7Z</time></trkpt>
<trkpt lat="46.13292175345123" lon="7.241938523948193"><ele></ele><time>2013-8-1T12:56:10Z</time></trkpt>
<trkpt lat="46.132941115647554" lon="7.241923101246357"><ele></ele><time>2013-8-1T12:56:13Z</time></trkpt>
<trkpt lat="46.13296190276742" lon="7.241910109296441"><ele></ele><time>2013-8-1T12:56:16Z</time></trkpt>
<trkpt lat="46.13298671320081" lon="7.241895608603954"><ele></ele><time>2013-8-1T12:56:19Z</time></trkpt>
<trkpt lat="46.133009595796466" lon="7.241886220872402"><ele></ele><time>2013-8-1T12:56:22Z</time></trkpt>
<trkpt lat="46.133029544726014" lon="7.241877084597945"><ele></ele><time>2013-8-1T12:56:25Z</time></trkpt>
<trkpt lat="46.13309693522751" lon="7.241832911968231"><ele></ele><time>2013-8-1T12:56:28Z</time></trkpt>
<trkpt lat="46.133132642135024" lon="7.241807095706463"><ele></ele><time>2013-8-1T12:56:31Z</time></trkpt>
<trkpt lat="46.133156698197126" lon="7.241792511194944"><ele></ele><time>2013-8-1T12:56:34Z</time></trkpt>
<trkpt lat="46.133182011544704" lon="7.2417836263775826"><ele></ele><time>2013-8-1T12:56:37Z</time></trkpt>
<trkpt lat="46.13320321775973" lon="7.241777842864394"><ele></ele><time>2013-8-1T12:56:40Z</time></trkpt>
<trkpt lat="46.133221657946706" lon="7.241771221160889"><ele></ele><time>2013-8-1T12:56:43Z</time></trkpt>
<trkpt lat="46.13333866931498" lon="7.241706261411309"><ele></ele><time>2013-8-1T12:56:46Z</time></trkpt>
<trkpt lat="46.1333910562098" lon="7.24168723449111"><ele></ele><time>2013-8-1T12:56:49Z</time></trkpt>
<trkpt lat="46.1334119271487" lon="7.241679942235351"><ele></ele><time>2013-8-1T12:56:52Z</time></trkpt>
<trkpt lat="46.13343187607825" lon="7.241665944457054"><ele></ele><time>2013-8-1T12:56:55Z</time></trkpt>
<trkpt lat="46.13345383666456" lon="7.241653623059392"><ele></ele><time>2013-8-1T12:56:58Z</time></trkpt>
<trkpt lat="46.13348233513534" lon="7.241638787090778"><ele></ele><time>2013-8-1T12:57:1Z</time></trkpt>
<trkpt lat="46.133507480844855" lon="7.241628980264068"><ele></ele><time>2013-8-1T12:57:4Z</time></trkpt>
<trkpt lat="46.13364418968558" lon="7.241590674966574"><ele></ele><time>2013-8-1T12:57:7Z</time></trkpt>
<trkpt lat="46.13366212695837" lon="7.241584807634354"><ele></ele><time>2013-8-1T12:57:10Z</time></trkpt>
<trkpt lat="46.133685763925314" lon="7.241580951958895"><ele></ele><time>2013-8-1T12:57:13Z</time></trkpt>
<trkpt lat="46.13370789214969" lon="7.241580951958895"><ele></ele><time>2013-8-1T12:57:16Z</time></trkpt>
<trkpt lat="46.13373085856438" lon="7.241576928645372"><ele></ele><time>2013-8-1T12:57:19Z</time></trkpt>
<trkpt lat="46.13379799760878" lon="7.2415489330887794"><ele></ele><time>2013-8-1T12:57:22Z</time></trkpt>
<trkpt lat="46.133875865489244" lon="7.241517249494791"><ele></ele><time>2013-8-1T12:57:25Z</time></trkpt>
<trkpt lat="46.13389950245619" lon="7.241504760459065"><ele></ele><time>2013-8-1T12:57:28Z</time></trkpt>
<trkpt lat="46.13392238505185" lon="7.241493193432689"><ele></ele><time>2013-8-1T12:57:31Z</time></trkpt>
<trkpt lat="46.13394157961011" lon="7.241483302786946"><ele></ele><time>2013-8-1T12:57:34Z</time></trkpt>
<trkpt lat="46.1339611094445" lon="7.241468299180269"><ele></ele><time>2013-8-1T12:57:37Z</time></trkpt>
<trkpt lat="46.13402372226119" lon="7.241441644728184"><ele></ele><time>2013-8-1T12:57:40Z</time></trkpt>
<trkpt lat="46.13409421406686" lon="7.241411218419671"><ele></ele><time>2013-8-1T12:57:43Z</time></trkpt>
<trkpt lat="46.13411961123347" lon="7.241412978619337"><ele></ele><time>2013-8-1T12:57:46Z</time></trkpt>
<trkpt lat="46.1341458465904" lon="7.241421528160572"><ele></ele><time>2013-8-1T12:57:49Z</time></trkpt>
<trkpt lat="46.13417065702379" lon="7.241427479311824"><ele></ele><time>2013-8-1T12:57:52Z</time></trkpt>
<trkpt lat="46.134194964542985" lon="7.241427060216665"><ele></ele><time>2013-8-1T12:57:55Z</time></trkpt>
<trkpt lat="46.13426604308188" lon="7.24141507409513"><ele></ele><time>2013-8-1T12:57:58Z</time></trkpt>
<trkpt lat="46.13429110497236" lon="7.2413931135088205"><ele></ele><time>2013-8-1T12:58:1Z</time></trkpt>
<trkpt lat="46.13430040888488" lon="7.24138137884438"><ele></ele><time>2013-8-1T12:58:4Z</time></trkpt>
<trkpt lat="46.13430703058839" lon="7.241367297247052"><ele></ele><time>2013-8-1T12:58:7Z</time></trkpt>
<trkpt lat="46.134317172691226" lon="7.241350868716836"><ele></ele><time>2013-8-1T12:58:10Z</time></trkpt>
<trkpt lat="46.13432823680341" lon="7.241336451843381"><ele></ele><time>2013-8-1T12:58:13Z</time></trkpt>
<trkpt lat="46.13436813466251" lon="7.241276856511831"><ele></ele><time>2013-8-1T12:58:16Z</time></trkpt>
<trkpt lat="46.13442722707987" lon="7.24117074161768"><ele></ele><time>2013-8-1T12:58:19Z</time></trkpt>
<trkpt lat="46.13444147631526" lon="7.241147439926863"><ele></ele><time>2013-8-1T12:58:22Z</time></trkpt>
<trkpt lat="46.1344550549984" lon="7.241120534017682"><ele></ele><time>2013-8-1T12:58:25Z</time></trkpt>
<trkpt lat="46.13447031006217" lon="7.241086335852742"><ele></ele><time>2013-8-1T12:58:28Z</time></trkpt>
<trkpt lat="46.1344825476408" lon="7.241055490449071"><ele></ele><time>2013-8-1T12:58:31Z</time></trkpt>
<trkpt lat="46.13449679687619" lon="7.2410014271736145"><ele></ele><time>2013-8-1T12:58:34Z</time></trkpt>
<trkpt lat="46.13451833836734" lon="7.240871340036392"><ele></ele><time>2013-8-1T12:58:37Z</time></trkpt>
<trkpt lat="46.134523283690214" lon="7.240844601765275"><ele></ele><time>2013-8-1T12:58:40Z</time></trkpt>
<trkpt lat="46.13452856428921" lon="7.240821300074458"><ele></ele><time>2013-8-1T12:58:43Z</time></trkpt>
<trkpt lat="46.134534599259496" lon="7.240795399993658"><ele></ele><time>2013-8-1T12:58:46Z</time></trkpt>
<trkpt lat="46.13454155623913" lon="7.24077058956027"><ele></ele><time>2013-8-1T12:58:49Z</time></trkpt>
<trkpt lat="46.134584387764335" lon="7.240685177966952"><ele></ele><time>2013-8-1T12:58:52Z</time></trkpt>
<trkpt lat="46.13462470471859" lon="7.240617787465453"><ele></ele><time>2013-8-1T12:58:55Z</time></trkpt>
<trkpt lat="46.134636187925935" lon="7.240592557936907"><ele></ele><time>2013-8-1T12:58:58Z</time></trkpt>
<trkpt lat="46.1346450727433" lon="7.240567244589329"><ele></ele><time>2013-8-1T12:59:1Z</time></trkpt>
<trkpt lat="46.134654292836785" lon="7.240543272346258"><ele></ele><time>2013-8-1T12:59:4Z</time></trkpt>
<trkpt lat="46.134664015844464" lon="7.240518294274807"><ele></ele><time>2013-8-1T12:59:7Z</time></trkpt>
<trkpt lat="46.13467273302376" lon="7.240493902936578"><ele></ele><time>2013-8-1T12:59:10Z</time></trkpt>
<trkpt lat="46.134686479344964" lon="7.2404733672738075"><ele></ele><time>2013-8-1T12:59:13Z</time></trkpt>
<trkpt lat="46.13471891731024" lon="7.240402372553945"><ele></ele><time>2013-8-1T12:59:16Z</time></trkpt>
<trkpt lat="46.13472822122276" lon="7.2403782326728106"><ele></ele><time>2013-8-1T12:59:19Z</time></trkpt>
<trkpt lat="46.13473769277334" lon="7.240350991487503"><ele></ele><time>2013-8-1T12:59:22Z</time></trkpt>
<trkpt lat="46.13474825397134" lon="7.240319140255451"><ele></ele><time>2013-8-1T12:59:25Z</time></trkpt>
<trkpt lat="46.134758898988366" lon="7.240288965404034"><ele></ele><time>2013-8-1T12:59:28Z</time></trkpt>
<trkpt lat="46.13476895727217" lon="7.24025996401906"><ele></ele><time>2013-8-1T12:59:31Z</time></trkpt>
<trkpt lat="46.13478111103177" lon="7.240227609872818"><ele></ele><time>2013-8-1T12:59:34Z</time></trkpt>
<trkpt lat="46.13480399362743" lon="7.240161225199699"><ele></ele><time>2013-8-1T12:59:37Z</time></trkpt>
<trkpt lat="46.13490030169487" lon="7.240005824714899"><ele></ele><time>2013-8-1T12:59:40Z</time></trkpt>
<trkpt lat="46.13493366166949" lon="7.23996676504612"><ele></ele><time>2013-8-1T12:59:43Z</time></trkpt>
<trkpt lat="46.134946485981345" lon="7.239937596023083"><ele></ele><time>2013-8-1T12:59:46Z</time></trkpt>
<trkpt lat="46.13495847210288" lon="7.239906499162316"><ele></ele><time>2013-8-1T12:59:49Z</time></trkpt>
<trkpt lat="46.134968027472496" lon="7.239872049540281"><ele></ele><time>2013-8-1T12:59:52Z</time></trkpt>
<trkpt lat="46.13498034887016" lon="7.239841036498547"><ele></ele><time>2013-8-1T12:59:55Z</time></trkpt>
<trkpt lat="46.135023180395365" lon="7.239675829187036"><ele></ele><time>2013-8-1T12:59:58Z</time></trkpt>
<trkpt lat="46.135024856776" lon="7.23963987082243"><ele></ele><time>2013-8-1T13:0:1Z</time></trkpt>
<trkpt lat="46.13502343185246" lon="7.2396028228104115"><ele></ele><time>2013-8-1T13:0:4Z</time></trkpt>
<trkpt lat="46.135023683309555" lon="7.239567870274186"><ele></ele><time>2013-8-1T13:0:7Z</time></trkpt>
<trkpt lat="46.13502527587116" lon="7.239536270499229"><ele></ele><time>2013-8-1T13:0:10Z</time></trkpt>
<trkpt lat="46.13502770662308" lon="7.239504503086209"><ele></ele><time>2013-8-1T13:0:13Z</time></trkpt>
<trkpt lat="46.13503038883209" lon="7.239474579691887"><ele></ele><time>2013-8-1T13:0:16Z</time></trkpt>
<trkpt lat="46.13505209796131" lon="7.239387491717935"><ele></ele><time>2013-8-1T13:0:19Z</time></trkpt>
<trkpt lat="46.135096941143274" lon="7.239234438166022"><ele></ele><time>2013-8-1T13:0:22Z</time></trkpt>
<trkpt lat="46.13510565832257" lon="7.239213734865189"><ele></ele><time>2013-8-1T13:0:25Z</time></trkpt>
<trkpt lat="46.135117057710886" lon="7.239200156182051"><ele></ele><time>2013-8-1T13:0:28Z</time></trkpt>
<trkpt lat="46.135132648050785" lon="7.239182470366359"><ele></ele><time>2013-8-1T13:0:31Z</time></trkpt>
<trkpt lat="46.135149747133255" lon="7.239163024351001"><ele></ele><time>2013-8-1T13:0:34Z</time></trkpt>
<trkpt lat="46.135178077965975" lon="7.239120025187731"><ele></ele><time>2013-8-1T13:0:37Z</time></trkpt>
<trkpt lat="46.135215712711215" lon="7.239045845344663"><ele></ele><time>2013-8-1T13:0:40Z</time></trkpt>
<trkpt lat="46.13522610627115" lon="7.239020531997085"><ele></ele><time>2013-8-1T13:0:43Z</time></trkpt>
<trkpt lat="46.135235745459795" lon="7.238993877544999"><ele></ele><time>2013-8-1T13:0:46Z</time></trkpt>
<trkpt lat="46.13525200635195" lon="7.238973258063197"><ele></ele><time>2013-8-1T13:0:49Z</time></trkpt>
<trkpt lat="46.13527405075729" lon="7.238958086818457"><ele></ele><time>2013-8-1T13:0:52Z</time></trkpt>
<trkpt lat="46.13533012568951" lon="7.238893546164036"><ele></ele><time>2013-8-1T13:0:55Z</time></trkpt>
<trkpt lat="46.13532627001405" lon="7.23878332413733"><ele></ele><time>2013-8-1T13:0:58Z</time></trkpt>
<trkpt lat="46.13533331081271" lon="7.238752394914627"><ele></ele><time>2013-8-1T13:1:1Z</time></trkpt>
<trkpt lat="46.13534152507782" lon="7.238719705492258"><ele></ele><time>2013-8-1T13:1:4Z</time></trkpt>
<trkpt lat="46.13534529693425" lon="7.238687435165048"><ele></ele><time>2013-8-1T13:1:7Z</time></trkpt>
<trkpt lat="46.1353512480855" lon="7.238656925037503"><ele></ele><time>2013-8-1T13:1:10Z</time></trkpt>
<trkpt lat="46.135356863960624" lon="7.238626917824149"><ele></ele><time>2013-8-1T13:1:13Z</time></trkpt>
<trkpt lat="46.1353634018451" lon="7.238600347191095"><ele></ele><time>2013-8-1T13:1:16Z</time></trkpt>
<trkpt lat="46.13537681289017" lon="7.238543266430497"><ele></ele><time>2013-8-1T13:1:19Z</time></trkpt>
<trkpt lat="46.13538988865912" lon="7.238416280597448"><ele></ele><time>2013-8-1T13:1:22Z</time></trkpt>
<trkpt lat="46.135394498705864" lon="7.2383814956992865"><ele></ele><time>2013-8-1T13:1:25Z</time></trkpt>
<trkpt lat="46.13539315760136" lon="7.238345621153712"><ele></ele><time>2013-8-1T13:1:28Z</time></trkpt>
<trkpt lat="46.135397013276815" lon="7.238317709416151"><ele></ele><time>2013-8-1T13:1:31Z</time></trkpt>
<trkpt lat="46.13541386090219" lon="7.238201787695289"><ele></ele><time>2013-8-1T13:1:34Z</time></trkpt>
<trkpt lat="46.13541821949184" lon="7.238080333918333"><ele></ele><time>2013-8-1T13:1:37Z</time></trkpt>
<trkpt lat="46.135420985519886" lon="7.2380466386675835"><ele></ele><time>2013-8-1T13:1:40Z</time></trkpt>
<trkpt lat="46.13542408682406" lon="7.238012943416834"><ele></ele><time>2013-8-1T13:1:43Z</time></trkpt>
<trkpt lat="46.135422913357615" lon="7.2379774041473866"><ele></ele><time>2013-8-1T13:1:46Z</time></trkpt>
<trkpt lat="46.1354220751673" lon="7.237946642562747"><ele></ele><time>2013-8-1T13:1:49Z</time></trkpt>
<trkpt lat="46.13543649204075" lon="7.237790152430534"><ele></ele><time>2013-8-1T13:1:52Z</time></trkpt>
<trkpt lat="46.13544512540102" lon="7.237688899040222"><ele></ele><time>2013-8-1T13:1:55Z</time></trkpt>
<trkpt lat="46.13544948399067" lon="7.237660065293312"><ele></ele><time>2013-8-1T13:1:58Z</time></trkpt>
<trkpt lat="46.13544571213424" lon="7.237629387527704"><ele></ele><time>2013-8-1T13:2:1Z</time></trkpt>
<trkpt lat="46.1354442872107" lon="7.237601056694984"><ele></ele><time>2013-8-1T13:2:4Z</time></trkpt>
<trkpt lat="46.13544328138232" lon="7.2375707142055035"><ele></ele><time>2013-8-1T13:2:7Z</time></trkpt>
<trkpt lat="46.135447807610035" lon="7.2375403717160225"><ele></ele><time>2013-8-1T13:2:10Z</time></trkpt>
<trkpt lat="46.135455099865794" lon="7.237395364791155"><ele></ele><time>2013-8-1T13:2:13Z</time></trkpt>
<trkpt lat="46.13544965162873" lon="7.237328393384814"><ele></ele><time>2013-8-1T13:2:16Z</time></trkpt>
<trkpt lat="46.135446298867464" lon="7.237294698134065"><ele></ele><time>2013-8-1T13:2:19Z</time></trkpt>
<trkpt lat="46.13544068299234" lon="7.237262092530727"><ele></ele><time>2013-8-1T13:2:22Z</time></trkpt>
<trkpt lat="46.13543188199401" lon="7.237229738384485"><ele></ele><time>2013-8-1T13:2:25Z</time></trkpt>
<trkpt lat="46.13542718812823" lon="7.237197132781148"><ele></ele><time>2013-8-1T13:2:28Z</time></trkpt>
<trkpt lat="46.13541419617832" lon="7.237010300159454"><ele></ele><time>2013-8-1T13:2:31Z</time></trkpt>
<trkpt lat="46.1354117654264" lon="7.236982388421893"><ele></ele><time>2013-8-1T13:2:34Z</time></trkpt>
<trkpt lat="46.13541008904576" lon="7.236953219398856"><ele></ele><time>2013-8-1T13:2:37Z</time></trkpt>
<trkpt lat="46.135408664122224" lon="7.236923212185502"><ele></ele><time>2013-8-1T13:2:40Z</time></trkpt>
<trkpt lat="46.135407323017716" lon="7.236893372610211"><ele></ele><time>2013-8-1T13:2:43Z</time></trkpt>
<trkpt lat="46.13540028221905" lon="7.23678189329803"><ele></ele><time>2013-8-1T13:2:46Z</time></trkpt>
<trkpt lat="46.135400952771306" lon="7.236751215532422"><ele></ele><time>2013-8-1T13:2:49Z</time></trkpt>
<trkpt lat="46.13540019840002" lon="7.236718190833926"><ele></ele><time>2013-8-1T13:2:52Z</time></trkpt>
<trkpt lat="46.13540254533291" lon="7.236683825030923"><ele></ele><time>2013-8-1T13:2:55Z</time></trkpt>
<trkpt lat="46.1354064848274" lon="7.236650213599205"><ele></ele><time>2013-8-1T13:2:58Z</time></trkpt>
<trkpt lat="46.135423332452774" lon="7.236484168097377"><ele></ele><time>2013-8-1T13:3:1Z</time></trkpt>
<trkpt lat="46.13547236658633" lon="7.236383752897382"><ele></ele><time>2013-8-1T13:3:4Z</time></trkpt>
<trkpt lat="46.13548711873591" lon="7.236361373215914"><ele></ele><time>2013-8-1T13:3:7Z</time></trkpt>
<trkpt lat="46.13550337962806" lon="7.236341508105397"><ele></ele><time>2013-8-1T13:3:10Z</time></trkpt>
<trkpt lat="46.13551922142506" lon="7.236322062090039"><ele></ele><time>2013-8-1T13:3:13Z</time></trkpt>
<trkpt lat="46.135532381013036" lon="7.236304376274347"><ele></ele><time>2013-8-1T13:3:16Z</time></trkpt>
<trkpt lat="46.13556842319667" lon="7.236222987994552"><ele></ele><time>2013-8-1T13:3:19Z</time></trkpt>
<trkpt lat="46.13557269796729" lon="7.236198177561164"><ele></ele><time>2013-8-1T13:3:22Z</time></trkpt>
<trkpt lat="46.13557169213891" lon="7.236172696575522"><ele></ele><time>2013-8-1T13:3:25Z</time></trkpt>
<trkpt lat="46.13556574098766" lon="7.236147550866008"><ele></ele><time>2013-8-1T13:3:28Z</time></trkpt>
<trkpt lat="46.1355566047132" lon="7.236124752089381"><ele></ele><time>2013-8-1T13:3:31Z</time></trkpt>
<trkpt lat="46.13552676513791" lon="7.236095247790217"><ele></ele><time>2013-8-1T13:3:34Z</time></trkpt>
<trkpt lat="46.13543154671788" lon="7.236132211983204"><ele></ele><time>2013-8-1T13:3:37Z</time></trkpt>
<trkpt lat="46.13541101105511" lon="7.236143779009581"><ele></ele><time>2013-8-1T13:3:40Z</time></trkpt>
<trkpt lat="46.13539039157331" lon="7.236150987446308"><ele></ele><time>2013-8-1T13:3:43Z</time></trkpt>
<trkpt lat="46.13537128083408" lon="7.236160039901733"><ele></ele><time>2013-8-1T13:3:46Z</time></trkpt>
<trkpt lat="46.13535275682807" lon="7.236172948032618"><ele></ele><time>2013-8-1T13:3:49Z</time></trkpt>
<trkpt lat="46.13533599302173" lon="7.2361814975738525"><ele></ele><time>2013-8-1T13:3:52Z</time></trkpt>
<trkpt lat="46.13531864248216" lon="7.23618920892477"><ele></ele><time>2013-8-1T13:3:55Z</time></trkpt>
<trkpt lat="46.13525745458901" lon="7.236202284693718"><ele></ele><time>2013-8-1T13:3:58Z</time></trkpt>
<trkpt lat="46.13520288839936" lon="7.236230531707406"><ele></ele><time>2013-8-1T13:4:1Z</time></trkpt>
<trkpt lat="46.13518578931689" lon="7.2362427692860365"><ele></ele><time>2013-8-1T13:4:4Z</time></trkpt>
<trkpt lat="46.13516843877733" lon="7.236252157017589"><ele></ele><time>2013-8-1T13:4:7Z</time></trkpt>
<trkpt lat="46.13515402190387" lon="7.236260371282697"><ele></ele><time>2013-8-1T13:4:10Z</time></trkpt>
<trkpt lat="46.135122925043106" lon="7.236286606639624"><ele></ele><time>2013-8-1T13:4:13Z</time></trkpt>
<trkpt lat="46.13505218178034" lon="7.236415101215243"><ele></ele><time>2013-8-1T13:4:16Z</time></trkpt>
<trkpt lat="46.135042291134596" lon="7.236441755667329"><ele></ele><time>2013-8-1T13:4:19Z</time></trkpt>
<trkpt lat="46.13503483124077" lon="7.2364691644907"><ele></ele><time>2013-8-1T13:4:22Z</time></trkpt>
<trkpt lat="46.13502837717533" lon="7.236496992409229"><ele></ele><time>2013-8-1T13:4:25Z</time></trkpt>
<trkpt lat="46.13501949235797" lon="7.236524652689695"><ele></ele><time>2013-8-1T13:4:28Z</time></trkpt>
<trkpt lat="46.13501186482608" lon="7.236553151160479"><ele></ele><time>2013-8-1T13:4:31Z</time></trkpt>
<trkpt lat="46.135004656389356" lon="7.2366091422736645"><ele></ele><time>2013-8-1T13:4:34Z</time></trkpt>
<trkpt lat="46.13498101942241" lon="7.236770577728748"><ele></ele><time>2013-8-1T13:4:37Z</time></trkpt>
<trkpt lat="46.134974649176" lon="7.236798238009214"><ele></ele><time>2013-8-1T13:4:40Z</time></trkpt>
<trkpt lat="46.134971380233765" lon="7.236827407032251"><ele></ele><time>2013-8-1T13:4:43Z</time></trkpt>
<trkpt lat="46.13497448153794" lon="7.236860180273652"><ele></ele><time>2013-8-1T13:4:46Z</time></trkpt>
<trkpt lat="46.13497909158468" lon="7.236888175830245"><ele></ele><time>2013-8-1T13:4:49Z</time></trkpt>
<trkpt lat="46.13499007187784" lon="7.236967300996184"><ele></ele><time>2013-8-1T13:4:52Z</time></trkpt>
<trkpt lat="46.13499325700104" lon="7.2370226215571165"><ele></ele><time>2013-8-1T13:4:55Z</time></trkpt>
<trkpt lat="46.13499409519136" lon="7.23705212585628"><ele></ele><time>2013-8-1T13:4:58Z</time></trkpt>
<trkpt lat="46.134995855391026" lon="7.237082133069634"><ele></ele><time>2013-8-1T13:5:1Z</time></trkpt>
<trkpt lat="46.13499501720071" lon="7.237115073949099"><ele></ele><time>2013-8-1T13:5:4Z</time></trkpt>
<trkpt lat="46.13499116152525" lon="7.237146338447928"><ele></ele><time>2013-8-1T13:5:7Z</time></trkpt>
<trkpt lat="46.1349659319967" lon="7.237346498295665"><ele></ele><time>2013-8-1T13:5:10Z</time></trkpt>
<trkpt lat="46.134965093806386" lon="7.237381702288985"><ele></ele><time>2013-8-1T13:5:13Z</time></trkpt>
<trkpt lat="46.134964004158974" lon="7.237417828291655"><ele></ele><time>2013-8-1T13:5:16Z</time></trkpt>
<trkpt lat="46.134963082149625" lon="7.237449260428548"><ele></ele><time>2013-8-1T13:5:19Z</time></trkpt>
<trkpt lat="46.13495939411223" lon="7.23747868090868"><ele></ele><time>2013-8-1T13:5:22Z</time></trkpt>
<trkpt lat="46.134955789893866" lon="7.2375633381307125"><ele></ele><time>2013-8-1T13:5:25Z</time></trkpt>
<trkpt lat="46.13495101220906" lon="7.237592171877623"><ele></ele><time>2013-8-1T13:5:28Z</time></trkpt>
<trkpt lat="46.13494246266782" lon="7.237621759995818"><ele></ele><time>2013-8-1T13:5:31Z</time></trkpt>
<trkpt lat="46.13493022508919" lon="7.237644391134381"><ele></ele><time>2013-8-1T13:5:34Z</time></trkpt>
<trkpt lat="46.1349178198725" lon="7.237669201567769"><ele></ele><time>2013-8-1T13:5:37Z</time></trkpt>
<trkpt lat="46.134906923398376" lon="7.237695353105664"><ele></ele><time>2013-8-1T13:5:40Z</time></trkpt>
<trkpt lat="46.13489443436265" lon="7.237716978415847"><ele></ele><time>2013-8-1T13:5:43Z</time></trkpt>
<trkpt lat="46.13483006134629" lon="7.237742207944393"><ele></ele><time>2013-8-1T13:5:46Z</time></trkpt>
<trkpt lat="46.13479955121875" lon="7.23775084130466"><ele></ele><time>2013-8-1T13:5:49Z</time></trkpt>
<trkpt lat="46.13478044047952" lon="7.237753355875611"><ele></ele><time>2013-8-1T13:5:52Z</time></trkpt>
<trkpt lat="46.13476485013962" lon="7.237758217379451"><ele></ele><time>2013-8-1T13:5:55Z</time></trkpt>
<trkpt lat="46.1347518581897" lon="7.237763162702322"><ele></ele><time>2013-8-1T13:5:58Z</time></trkpt>
<trkpt lat="46.134734423831105" lon="7.2377703711390495"><ele></ele><time>2013-8-1T13:6:1Z</time></trkpt>
<trkpt lat="46.13460064865649" lon="7.2378248535096645"><ele></ele><time>2013-8-1T13:6:4Z</time></trkpt>
<trkpt lat="46.13458497449756" lon="7.237842790782452"><ele></ele><time>2013-8-1T13:6:7Z</time></trkpt>
<trkpt lat="46.13457432948053" lon="7.237868523225188"><ele></ele><time>2013-8-1T13:6:10Z</time></trkpt>
<trkpt lat="46.13456008024514" lon="7.237895345315337"><ele></ele><time>2013-8-1T13:6:13Z</time></trkpt>
<trkpt lat="46.134538454934955" lon="7.237941697239876"><ele></ele><time>2013-8-1T13:6:16Z</time></trkpt>
<trkpt lat="46.134486151859164" lon="7.238019397482276"><ele></ele><time>2013-8-1T13:6:19Z</time></trkpt>
<trkpt lat="46.13447282463312" lon="7.23804010078311"><ele></ele><time>2013-8-1T13:6:22Z</time></trkpt>
<trkpt lat="46.13446050323546" lon="7.238062312826514"><ele></ele><time>2013-8-1T13:6:25Z</time></trkpt>
<trkpt lat="46.13444969058037" lon="7.2380857821553946"><ele></ele><time>2013-8-1T13:6:28Z</time></trkpt>
<trkpt lat="46.13444005139172" lon="7.238110173493624"><ele></ele><time>2013-8-1T13:6:31Z</time></trkpt>
<trkpt lat="46.13442923873663" lon="7.238131798803806"><ele></ele><time>2013-8-1T13:6:34Z</time></trkpt>
<trkpt lat="46.134419683367014" lon="7.238156441599131"><ele></ele><time>2013-8-1T13:6:37Z</time></trkpt>
<trkpt lat="46.134410463273525" lon="7.238179827108979"><ele></ele><time>2013-8-1T13:6:40Z</time></trkpt>
<trkpt lat="46.13434365950525" lon="7.2382978443056345"><ele></ele><time>2013-8-1T13:6:43Z</time></trkpt>
<trkpt lat="46.13432865589857" lon="7.238322235643864"><ele></ele><time>2013-8-1T13:6:46Z</time></trkpt>
<trkpt lat="46.134311808273196" lon="7.238348051905632"><ele></ele><time>2013-8-1T13:6:49Z</time></trkpt>
<trkpt lat="46.1342959664762" lon="7.238363642245531"><ele></ele><time>2013-8-1T13:6:52Z</time></trkpt>
<trkpt lat="46.134277023375034" lon="7.238376550376415"><ele></ele><time>2013-8-1T13:6:55Z</time></trkpt>
<trkpt lat="46.13421466201544" lon="7.238416615873575"><ele></ele><time>2013-8-1T13:6:58Z</time></trkpt>
<trkpt lat="46.13419974222779" lon="7.238431284204125"><ele></ele><time>2013-8-1T13:7:1Z</time></trkpt>
<trkpt lat="46.134164119139314" lon="7.238459195941687"><ele></ele><time>2013-8-1T13:7:4Z</time></trkpt>
<trkpt lat="46.13414492458105" lon="7.2384704276919365"><ele></ele><time>2013-8-1T13:7:7Z</time></trkpt>
<trkpt lat="46.13412396982312" lon="7.238480318337679"><ele></ele><time>2013-8-1T13:7:10Z</time></trkpt>
<trkpt lat="46.13410343416035" lon="7.238488448783755"><ele></ele><time>2013-8-1T13:7:13Z</time></trkpt>
<trkpt lat="46.13408365286887" lon="7.238493142649531"><ele></ele><time>2013-8-1T13:7:16Z</time></trkpt>
<trkpt lat="46.13398508168757" lon="7.238513762131333"><ele></ele><time>2013-8-1T13:7:19Z</time></trkpt>
<trkpt lat="46.13397493958473" lon="7.238515606150031"><ele></ele><time>2013-8-1T13:7:22Z</time></trkpt>
<trkpt lat="46.13396345637739" lon="7.238522479310632"><ele></ele><time>2013-8-1T13:7:25Z</time></trkpt>
<trkpt lat="46.13394635729492" lon="7.238529687747359"><ele></ele><time>2013-8-1T13:7:28Z</time></trkpt>
<trkpt lat="46.133927749469876" lon="7.238539243116975"><ele></ele><time>2013-8-1T13:7:31Z</time></trkpt>
<trkpt lat="46.13390897400677" lon="7.238545697182417"><ele></ele><time>2013-8-1T13:7:34Z</time></trkpt>
<trkpt lat="46.133891958743334" lon="7.238551145419478"><ele></ele><time>2013-8-1T13:7:37Z</time></trkpt>
<trkpt lat="46.13380034454167" lon="7.238588109612465"><ele></ele><time>2013-8-1T13:7:40Z</time></trkpt>
<trkpt lat="46.133787520229816" lon="7.238594396039844"><ele></ele><time>2013-8-1T13:7:43Z</time></trkpt>
<trkpt lat="46.13377444446087" lon="7.238597832620144"><ele></ele><time>2013-8-1T13:7:46Z</time></trkpt>
<trkpt lat="46.13375994376838" lon="7.238600179553032"><ele></ele><time>2013-8-1T13:7:49Z</time></trkpt>
<trkpt lat="46.133743934333324" lon="7.238600682467222"><ele></ele><time>2013-8-1T13:7:52Z</time></trkpt>
<trkpt lat="46.13366983830929" lon="7.238590037450194"><ele></ele><time>2013-8-1T13:7:55Z</time></trkpt>
<trkpt lat="46.13359188660979" lon="7.238574447110295"><ele></ele><time>2013-8-1T13:7:58Z</time></trkpt>
<trkpt lat="46.13357059657574" lon="7.238577548414469"><ele></ele><time>2013-8-1T13:8:1Z</time></trkpt>
<trkpt lat="46.13355106674135" lon="7.238583918660879"><ele></ele><time>2013-8-1T13:8:4Z</time></trkpt>
<trkpt lat="46.13353153690696" lon="7.238588193431497"><ele></ele><time>2013-8-1T13:8:7Z</time></trkpt>
<trkpt lat="46.13351292908192" lon="7.238586517050862"><ele></ele><time>2013-8-1T13:8:10Z</time></trkpt>
<trkpt lat="46.133373621851206" lon="7.238617027178407"><ele></ele><time>2013-8-1T13:8:13Z</time></trkpt>
<trkpt lat="46.13335384055972" lon="7.238628258928657"><ele></ele><time>2013-8-1T13:8:16Z</time></trkpt>
<trkpt lat="46.13333439454436" lon="7.238635299727321"><ele></ele><time>2013-8-1T13:8:19Z</time></trkpt>
<trkpt lat="46.13332383334637" lon="7.23863773047924"><ele></ele><time>2013-8-1T13:8:22Z</time></trkpt>
<trkpt lat="46.13331327214837" lon="7.238633455708623"><ele></ele><time>2013-8-1T13:8:25Z</time></trkpt>
<trkpt lat="46.133242193609476" lon="7.238624906167388"><ele></ele><time>2013-8-1T13:8:28Z</time></trkpt>
<trkpt lat="46.133186956867576" lon="7.238616943359375"><ele></ele><time>2013-8-1T13:8:31Z</time></trkpt>
<trkpt lat="46.133170360699296" lon="7.238616021350026"><ele></ele><time>2013-8-1T13:8:34Z</time></trkpt>
<trkpt lat="46.13315485417843" lon="7.238617781549692"><ele></ele><time>2013-8-1T13:8:37Z</time></trkpt>
<trkpt lat="46.13313716836274" lon="7.238616775721312"><ele></ele><time>2013-8-1T13:8:40Z</time></trkpt>
<trkpt lat="46.133120991289616" lon="7.238614344969392"><ele></ele><time>2013-8-1T13:8:43Z</time></trkpt>
<trkpt lat="46.133013954386115" lon="7.238609315827489"><ele></ele><time>2013-8-1T13:8:46Z</time></trkpt>
<trkpt lat="46.13295025192201" lon="7.238624403253198"><ele></ele><time>2013-8-1T13:8:49Z</time></trkpt>
<trkpt lat="46.132933823391795" lon="7.238627839833498"><ele></ele><time>2013-8-1T13:8:52Z</time></trkpt>
<trkpt lat="46.132912281900644" lon="7.238630773499608"><ele></ele><time>2013-8-1T13:8:55Z</time></trkpt>
<trkpt lat="46.132892835885286" lon="7.238637562841177"><ele></ele><time>2013-8-1T13:8:58Z</time></trkpt>
<trkpt lat="46.13275076262653" lon="7.238688105717301"><ele></ele><time>2013-8-1T13:9:1Z</time></trkpt>
<trkpt lat="46.13273039460182" lon="7.238689865916967"><ele></ele><time>2013-8-1T13:9:4Z</time></trkpt>
<trkpt lat="46.13271036185324" lon="7.2386889439076185"><ele></ele><time>2013-8-1T13:9:7Z</time></trkpt>
<trkpt lat="46.13269024528563" lon="7.23868559114635"><ele></ele><time>2013-8-1T13:9:10Z</time></trkpt>
<trkpt lat="46.13266970962286" lon="7.238682406023145"><ele></ele><time>2013-8-1T13:9:13Z</time></trkpt>
<trkpt lat="46.13263098523021" lon="7.238685926422477"><ele></ele><time>2013-8-1T13:9:16Z</time></trkpt>
<trkpt lat="46.132487151771784" lon="7.23872079513967"><ele></ele><time>2013-8-1T13:9:19Z</time></trkpt>
<trkpt lat="46.13246317952871" lon="7.23872808739543"><ele></ele><time>2013-8-1T13:9:22Z</time></trkpt>
<trkpt lat="46.1324380338192" lon="7.23873789422214"><ele></ele><time>2013-8-1T13:9:25Z</time></trkpt>
<trkpt lat="46.132416324689984" lon="7.238752311095595"><ele></ele><time>2013-8-1T13:9:28Z</time></trkpt>
<trkpt lat="46.13239713013172" lon="7.238765386864543"><ele></ele><time>2013-8-1T13:9:31Z</time></trkpt>
<trkpt lat="46.132356310263276" lon="7.238794136792421"><ele></ele><time>2013-8-1T13:9:34Z</time></trkpt>
<trkpt lat="46.13229788839817" lon="7.238822048529983"><ele></ele><time>2013-8-1T13:9:37Z</time></trkpt>
<trkpt lat="46.132278610020876" lon="7.238833280280232"><ele></ele><time>2013-8-1T13:9:40Z</time></trkpt>
<trkpt lat="46.13226058892906" lon="7.238842835649848"><ele></ele><time>2013-8-1T13:9:43Z</time></trkpt>
<trkpt lat="46.132239466533065" lon="7.238854318857193"><ele></ele><time>2013-8-1T13:9:46Z</time></trkpt>
<trkpt lat="46.13222077488899" lon="7.23886638879776"><ele></ele><time>2013-8-1T13:9:49Z</time></trkpt>
<trkpt lat="46.132118264213204" lon="7.2389366291463375"><ele></ele><time>2013-8-1T13:9:52Z</time></trkpt>
<trkpt lat="46.132102170959115" lon="7.23894358612597"><ele></ele><time>2013-8-1T13:9:55Z</time></trkpt>
<trkpt lat="46.13208498805761" lon="7.238955069333315"><ele></ele><time>2013-8-1T13:9:58Z</time></trkpt>
<trkpt lat="46.13206788897514" lon="7.238969234749675"><ele></ele><time>2013-8-1T13:10:1Z</time></trkpt>
<trkpt lat="46.1320458445698" lon="7.238979376852512"><ele></ele><time>2013-8-1T13:10:4Z</time></trkpt>
<trkpt lat="46.13202162086964" lon="7.238989267498255"><ele></ele><time>2013-8-1T13:10:7Z</time></trkpt>
<trkpt lat="46.131998067721725" lon="7.23900175653398"><ele></ele><time>2013-8-1T13:10:10Z</time></trkpt>
<trkpt lat="46.13188650459051" lon="7.239027405157685"><ele></ele><time>2013-8-1T13:10:13Z</time></trkpt>
<trkpt lat="46.131866220384836" lon="7.239029752090573"><ele></ele><time>2013-8-1T13:10:16Z</time></trkpt>
<trkpt lat="46.13184719346464" lon="7.239033104851842"><ele></ele><time>2013-8-1T13:10:19Z</time></trkpt>
<trkpt lat="46.131828082725406" lon="7.239039978012443"><ele></ele><time>2013-8-1T13:10:22Z</time></trkpt>
<trkpt lat="46.13181123510003" lon="7.239046012982726"><ele></ele><time>2013-8-1T13:10:25Z</time></trkpt>
<trkpt lat="46.13173202611506" lon="7.239056071266532"><ele></ele><time>2013-8-1T13:10:28Z</time></trkpt>
<trkpt lat="46.13164787180722" lon="7.23905498161912"><ele></ele><time>2013-8-1T13:10:31Z</time></trkpt>
<trkpt lat="46.13162934780121" lon="7.2390564903616905"><ele></ele><time>2013-8-1T13:10:34Z</time></trkpt>
<trkpt lat="46.13160629756749" lon="7.2390644531697035"><ele></ele><time>2013-8-1T13:10:37Z</time></trkpt>
<trkpt lat="46.131584253162146" lon="7.2390735894441605"><ele></ele><time>2013-8-1T13:10:40Z</time></trkpt>
<trkpt lat="46.1315608676523" lon="7.239081719890237"><ele></ele><time>2013-8-1T13:10:43Z</time></trkpt>
<trkpt lat="46.13146875053644" lon="7.239102087914944"><ele></ele><time>2013-8-1T13:10:46Z</time></trkpt>
<trkpt lat="46.131400940939784" lon="7.239129664376378"><ele></ele><time>2013-8-1T13:10:49Z</time></trkpt>
<trkpt lat="46.131377471610904" lon="7.239137375727296"><ele></ele><time>2013-8-1T13:10:52Z</time></trkpt>
<trkpt lat="46.13135232590139" lon="7.239149194210768"><ele></ele><time>2013-8-1T13:10:55Z</time></trkpt>
<trkpt lat="46.13132826983929" lon="7.2391625214368105"><ele></ele><time>2013-8-1T13:10:58Z</time></trkpt>
<trkpt lat="46.13130656071007" lon="7.239168640226126"><ele></ele><time>2013-8-1T13:11:1Z</time></trkpt>
<trkpt lat="46.13126389682293" lon="7.239196132868528"><ele></ele><time>2013-8-1T13:11:4Z</time></trkpt>
<trkpt lat="46.131223076954484" lon="7.239289842545986"><ele></ele><time>2013-8-1T13:11:7Z</time></trkpt>
<trkpt lat="46.13120790570974" lon="7.2393150720745325"><ele></ele><time>2013-8-1T13:11:10Z</time></trkpt>
<trkpt lat="46.13118778914213" lon="7.239334769546986"><ele></ele><time>2013-8-1T13:11:13Z</time></trkpt>
<trkpt lat="46.13116918131709" lon="7.239350443705916"><ele></ele><time>2013-8-1T13:11:16Z</time></trkpt>
<trkpt lat="46.13114923238754" lon="7.239362094551325"><ele></ele><time>2013-8-1T13:11:19Z</time></trkpt>
<trkpt lat="46.13110355101526" lon="7.23937994800508"><ele></ele><time>2013-8-1T13:11:22Z</time></trkpt>
<trkpt lat="46.131035489961505" lon="7.239385480061173"><ele></ele><time>2013-8-1T13:11:25Z</time></trkpt>
<trkpt lat="46.13101537339389" lon="7.239392185583711"><ele></ele><time>2013-8-1T13:11:28Z</time></trkpt>
<trkpt lat="46.13099467009306" lon="7.239396879449487"><ele></ele><time>2013-8-1T13:11:31Z</time></trkpt>
<trkpt lat="46.13097321242094" lon="7.23940291441977"><ele></ele><time>2013-8-1T13:11:34Z</time></trkpt>
<trkpt lat="46.13095351494849" lon="7.239406602457166"><ele></ele><time>2013-8-1T13:11:37Z</time></trkpt>
<trkpt lat="46.13087011501193" lon="7.239407105371356"><ele></ele><time>2013-8-1T13:11:40Z</time></trkpt>
<trkpt lat="46.130829714238644" lon="7.239414062350988"><ele></ele><time>2013-8-1T13:11:43Z</time></trkpt>
<trkpt lat="46.13081010058522" lon="7.239422025159001"><ele></ele><time>2013-8-1T13:11:46Z</time></trkpt>
<trkpt lat="46.13079283386469" lon="7.2394307423383"><ele></ele><time>2013-8-1T13:11:49Z</time></trkpt>
<trkpt lat="46.130777075886726" lon="7.239446919411421"><ele></ele><time>2013-8-1T13:11:52Z</time></trkpt>
<trkpt lat="46.13075972534716" lon="7.23945714533329"><ele></ele><time>2013-8-1T13:11:55Z</time></trkpt>
<trkpt lat="46.130739357322454" lon="7.239462174475193"><ele></ele><time>2013-8-1T13:11:58Z</time></trkpt>
<trkpt lat="46.13068194128573" lon="7.239491259679198"><ele></ele><time>2013-8-1T13:12:1Z</time></trkpt>
<trkpt lat="46.13064430654049" lon="7.2395123820751905"><ele></ele><time>2013-8-1T13:12:4Z</time></trkpt>
<trkpt lat="46.130606420338154" lon="7.23954364657402"><ele></ele><time>2013-8-1T13:12:7Z</time></trkpt>
<trkpt lat="46.130591752007604" lon="7.239568959921598"><ele></ele><time>2013-8-1T13:12:10Z</time></trkpt>
<trkpt lat="46.13057498820126" lon="7.23957977257669"><ele></ele><time>2013-8-1T13:12:13Z</time></trkpt>
<trkpt lat="46.13055696710944" lon="7.239597290754318"><ele></ele><time>2013-8-1T13:12:16Z</time></trkpt>
<trkpt lat="46.13053693436086" lon="7.239607432857156"><ele></ele><time>2013-8-1T13:12:19Z</time></trkpt>
<trkpt lat="46.13044121302664" lon="7.239677086472511"><ele></ele><time>2013-8-1T13:12:22Z</time></trkpt>
<trkpt lat="46.13040097989142" lon="7.239711452275515"><ele></ele><time>2013-8-1T13:12:25Z</time></trkpt>
<trkpt lat="46.13038161769509" lon="7.239727629348636"><ele></ele><time>2013-8-1T13:12:28Z</time></trkpt>
<trkpt lat="46.13036175258458" lon="7.239736933261156"><ele></ele><time>2013-8-1T13:12:31Z</time></trkpt>
<trkpt lat="46.130340630188584" lon="7.239739950746298"><ele></ele><time>2013-8-1T13:12:34Z</time></trkpt>
<trkpt lat="46.13032319582999" lon="7.239744728431106"><ele></ele><time>2013-8-1T13:12:37Z</time></trkpt>
<trkpt lat="46.13019377924502" lon="7.239813543856144"><ele></ele><time>2013-8-1T13:12:40Z</time></trkpt>
<trkpt lat="46.13009160384536" lon="7.239875318482518"><ele></ele><time>2013-8-1T13:12:43Z</time></trkpt>
<trkpt lat="46.13007173873484" lon="7.2398902382701635"><ele></ele><time>2013-8-1T13:12:46Z</time></trkpt>
<trkpt lat="46.130048520863056" lon="7.239905241876841"><ele></ele><time>2013-8-1T13:12:49Z</time></trkpt>
<trkpt lat="46.13002764992416" lon="7.239920161664486"><ele></ele><time>2013-8-1T13:12:52Z</time></trkpt>
<trkpt lat="46.13000862300396" lon="7.239938182756305"><ele></ele><time>2013-8-1T13:12:55Z</time></trkpt>
<trkpt lat="46.13000024110079" lon="7.239975398406386"><ele></ele><time>2013-8-1T13:12:58Z</time></trkpt>
<trkpt lat="46.12998582422733" lon="7.239997191354632"><ele></ele><time>2013-8-1T13:13:1Z</time></trkpt>
<trkpt lat="46.129964366555214" lon="7.2400513384491205"><ele></ele><time>2013-8-1T13:13:4Z</time></trkpt>
<trkpt lat="46.129953637719154" lon="7.240087129175663"><ele></ele><time>2013-8-1T13:13:7Z</time></trkpt>
<trkpt lat="46.12993829883635" lon="7.240119399502873"><ele></ele><time>2013-8-1T13:13:10Z</time></trkpt>
<trkpt lat="46.129919439554214" lon="7.240138426423073"><ele></ele><time>2013-8-1T13:13:13Z</time></trkpt>
<trkpt lat="46.129901334643364" lon="7.240153010934591"><ele></ele><time>2013-8-1T13:13:16Z</time></trkpt>
<trkpt lat="46.12988356500864" lon="7.240164326503873"><ele></ele><time>2013-8-1T13:13:19Z</time></trkpt>
<trkpt lat="46.12986546009779" lon="7.240176480263472"><ele></ele><time>2013-8-1T13:13:22Z</time></trkpt>
<trkpt lat="46.12983469851315" lon="7.240195758640766"><ele></ele><time>2013-8-1T13:13:25Z</time></trkpt>
<trkpt lat="46.12982581369579" lon="7.24017639644444"><ele></ele><time>2013-8-1T13:13:28Z</time></trkpt>
<trkpt lat="46.129830088466406" lon="7.240133564919233"><ele></ele><time>2013-8-1T13:13:31Z</time></trkpt>
<trkpt lat="46.129838386550546" lon="7.240107748657465"><ele></ele><time>2013-8-1T13:13:34Z</time></trkpt>
<trkpt lat="46.129850624129176" lon="7.240082770586014"><ele></ele><time>2013-8-1T13:13:37Z</time></trkpt>
<trkpt lat="46.12986512482166" lon="7.2400604747235775"><ele></ele><time>2013-8-1T13:13:40Z</time></trkpt>
<trkpt lat="46.12988264299929" lon="7.240043208003044"><ele></ele><time>2013-8-1T13:13:43Z</time></trkpt>
<trkpt lat="46.12989865243435" lon="7.240032562986016"><ele></ele><time>2013-8-1T13:13:46Z</time></trkpt>
<trkpt lat="46.129950284957886" lon="7.239990150555968"><ele></ele><time>2013-8-1T13:13:49Z</time></trkpt>
<trkpt lat="46.12996470183134" lon="7.239971961826086"><ele></ele><time>2013-8-1T13:13:52Z</time></trkpt>
<trkpt lat="46.129987584427" lon="7.23993013612926"><ele></ele><time>2013-8-1T13:13:55Z</time></trkpt>
<trkpt lat="46.13000049255788" lon="7.239912198856473"><ele></ele><time>2013-8-1T13:13:58Z</time></trkpt>
<trkpt lat="46.13001398742199" lon="7.239894177764654"><ele></ele><time>2013-8-1T13:14:1Z</time></trkpt>
<trkpt lat="46.13002572208643" lon="7.2398740611970425"><ele></ele><time>2013-8-1T13:14:4Z</time></trkpt>
<trkpt lat="46.13003745675087" lon="7.239849669858813"><ele></ele><time>2013-8-1T13:14:7Z</time></trkpt>
<trkpt lat="46.130049442872405" lon="7.239824943244457"><ele></ele><time>2013-8-1T13:14:10Z</time></trkpt>
<trkpt lat="46.13011574372649" lon="7.23970047198236"><ele></ele><time>2013-8-1T13:14:13Z</time></trkpt>
<trkpt lat="46.130127143114805" lon="7.239680187776685"><ele></ele><time>2013-8-1T13:14:16Z</time></trkpt>
<trkpt lat="46.13013368099928" lon="7.239654622972012"><ele></ele><time>2013-8-1T13:14:19Z</time></trkpt>
<trkpt lat="46.13014005124569" lon="7.239630734547973"><ele></ele><time>2013-8-1T13:14:22Z</time></trkpt>
<trkpt lat="46.13014935515821" lon="7.2396039962768555"><ele></ele><time>2013-8-1T13:14:25Z</time></trkpt>
<trkpt lat="46.1301601678133" lon="7.239579437300563"><ele></ele><time>2013-8-1T13:14:28Z</time></trkpt>
<trkpt lat="46.13017089664936" lon="7.2395542077720165"><ele></ele><time>2013-8-1T13:14:31Z</time></trkpt>
<trkpt lat="46.13018388859928" lon="7.239526882767677"><ele></ele><time>2013-8-1T13:14:34Z</time></trkpt>
<trkpt lat="46.130209201946855" lon="7.239484805613756"><ele></ele><time>2013-8-1T13:14:37Z</time></trkpt>
<trkpt lat="46.13024507649243" lon="7.239431161433458"><ele></ele><time>2013-8-1T13:14:40Z</time></trkpt>
<trkpt lat="46.13026066683233" lon="7.239416912198067"><ele></ele><time>2013-8-1T13:14:43Z</time></trkpt>
<trkpt lat="46.13027491606772" lon="7.239398472011089"><ele></ele><time>2013-8-1T13:14:46Z</time></trkpt>
<trkpt lat="46.13029167987406" lon="7.239378606900573"><ele></ele><time>2013-8-1T13:14:49Z</time></trkpt>
<trkpt lat="46.13030819222331" lon="7.239362094551325"><ele></ele><time>2013-8-1T13:14:52Z</time></trkpt>
<trkpt lat="46.13032235763967" lon="7.239341642707586"><ele></ele><time>2013-8-1T13:14:55Z</time></trkpt>
<trkpt lat="46.130385557189584" lon="7.239271150901914"><ele></ele><time>2013-8-1T13:14:58Z</time></trkpt>
<trkpt lat="46.13040248863399" lon="7.239255644381046"><ele></ele><time>2013-8-1T13:15:1Z</time></trkpt>
<trkpt lat="46.130411038175225" lon="7.239231755957007"><ele></ele><time>2013-8-1T13:15:4Z</time></trkpt>
<trkpt lat="46.13042344339192" lon="7.23920501768589"><ele></ele><time>2013-8-1T13:15:7Z</time></trkpt>
<trkpt lat="46.13043853081763" lon="7.239179955795407"><ele></ele><time>2013-8-1T13:15:10Z</time></trkpt>
<trkpt lat="46.13046493381262" lon="7.239126311615109"><ele></ele><time>2013-8-1T13:15:13Z</time></trkpt>
<trkpt lat="46.13047817721963" lon="7.239101668819785"><ele></ele><time>2013-8-1T13:15:16Z</time></trkpt>
<trkpt lat="46.13052058964968" lon="7.239009635522962"><ele></ele><time>2013-8-1T13:15:19Z</time></trkpt>
<trkpt lat="46.130523858591914" lon="7.238985328003764"><ele></ele><time>2013-8-1T13:15:22Z</time></trkpt>
<trkpt lat="46.13053014501929" lon="7.238963535055518"><ele></ele><time>2013-8-1T13:15:25Z</time></trkpt>
<trkpt lat="46.13053483888507" lon="7.238936964422464"><ele></ele><time>2013-8-1T13:15:28Z</time></trkpt>
<trkpt lat="46.130542969331145" lon="7.238910645246506"><ele></ele><time>2013-8-1T13:15:31Z</time></trkpt>
<trkpt lat="46.13057951442897" lon="7.238762369379401"><ele></ele><time>2013-8-1T13:15:34Z</time></trkpt>
<trkpt lat="46.130586471408606" lon="7.238734792917967"><ele></ele><time>2013-8-1T13:15:37Z</time></trkpt>
<trkpt lat="46.130593763664365" lon="7.238705204799771"><ele></ele><time>2013-8-1T13:15:40Z</time></trkpt>
<trkpt lat="46.1305972840637" lon="7.238674275577068"><ele></ele><time>2013-8-1T13:15:43Z</time></trkpt>
<trkpt lat="46.130603989586234" lon="7.238640915602446"><ele></ele><time>2013-8-1T13:15:46Z</time></trkpt>
<trkpt lat="46.13061144948006" lon="7.23860889673233"><ele></ele><time>2013-8-1T13:15:49Z</time></trkpt>
<trkpt lat="46.13062025047839" lon="7.238579224795103"><ele></ele><time>2013-8-1T13:15:52Z</time></trkpt>
<trkpt lat="46.13066039979458" lon="7.2383997682482"><ele></ele><time>2013-8-1T13:15:55Z</time></trkpt>
<trkpt lat="46.130671966820955" lon="7.238369090482593"><ele></ele><time>2013-8-1T13:15:58Z</time></trkpt>
<trkpt lat="46.130680767819285" lon="7.238341933116317"><ele></ele><time>2013-8-1T13:16:1Z</time></trkpt>
<trkpt lat="46.130689568817616" lon="7.238314943388104"><ele></ele><time>2013-8-1T13:16:4Z</time></trkpt>
<trkpt lat="46.13069862127304" lon="7.2382887080311775"><ele></ele><time>2013-8-1T13:16:7Z</time></trkpt>
<trkpt lat="46.130713960155845" lon="7.238242104649544"><ele></ele><time>2013-8-1T13:16:10Z</time></trkpt>
<trkpt lat="46.130739357322454" lon="7.238193741068244"><ele></ele><time>2013-8-1T13:16:13Z</time></trkpt>
<trkpt lat="46.13075519911945" lon="7.238174378871918"><ele></ele><time>2013-8-1T13:16:16Z</time></trkpt>
<trkpt lat="46.13079819828272" lon="7.238108329474926"><ele></ele><time>2013-8-1T13:16:19Z</time></trkpt>
<trkpt lat="46.1308113578707" lon="7.238088045269251"><ele></ele><time>2013-8-1T13:16:22Z</time></trkpt>
<trkpt lat="46.130827786400914" lon="7.238076142966747"><ele></ele><time>2013-8-1T13:16:25Z</time></trkpt>
<trkpt lat="46.13084890879691" lon="7.2380666714161634"><ele></ele><time>2013-8-1T13:16:28Z</time></trkpt>
<trkpt lat="46.13088076002896" lon="7.2380489856004715"><ele></ele><time>2013-8-1T13:16:31Z</time></trkpt>
<trkpt lat="46.13093616440892" lon="7.238001627847552"><ele></ele><time>2013-8-1T13:16:34Z</time></trkpt>
<trkpt lat="46.130952006205916" lon="7.23798586986959"><ele></ele><time>2013-8-1T13:16:37Z</time></trkpt>
<trkpt lat="46.130970949307084" lon="7.237976146861911"><ele></ele><time>2013-8-1T13:16:40Z</time></trkpt>
<trkpt lat="46.13099014386535" lon="7.2379629034549"><ele></ele><time>2013-8-1T13:16:43Z</time></trkpt>
<trkpt lat="46.13100682385266" lon="7.2379515040665865"><ele></ele><time>2013-8-1T13:16:46Z</time></trkpt>
<trkpt lat="46.13111620768905" lon="7.237840024754405"><ele></ele><time>2013-8-1T13:16:49Z</time></trkpt>
<trkpt lat="46.13115887157619" lon="7.2377800941467285"><ele></ele><time>2013-8-1T13:16:52Z</time></trkpt>
<trkpt lat="46.13117932341993" lon="7.237753858789802"><ele></ele><time>2013-8-1T13:16:55Z</time></trkpt>
<trkpt lat="46.13119684159756" lon="7.237729299813509"><ele></ele><time>2013-8-1T13:16:58Z</time></trkpt>
<trkpt lat="46.13121083937585" lon="7.237706081941724"><ele></ele><time>2013-8-1T13:17:1Z</time></trkpt>
<trkpt lat="46.13131318241358" lon="7.23757884465158"><ele></ele><time>2013-8-1T13:17:4Z</time></trkpt>
<trkpt lat="46.1313312035054" lon="7.237566942349076"><ele></ele><time>2013-8-1T13:17:7Z</time></trkpt>
<trkpt lat="46.131346710026264" lon="7.237556213513017"><ele></ele><time>2013-8-1T13:17:10Z</time></trkpt>
<trkpt lat="46.13136121071875" lon="7.237544059753418"><ele></ele><time>2013-8-1T13:17:13Z</time></trkpt>
<trkpt lat="46.13137713633478" lon="7.237530229613185"><ele></ele><time>2013-8-1T13:17:16Z</time></trkpt>
<trkpt lat="46.13138752989471" lon="7.237520087510347"><ele></ele><time>2013-8-1T13:17:19Z</time></trkpt>
<trkpt lat="46.131426338106394" lon="7.2374829556792974"><ele></ele><time>2013-8-1T13:17:22Z</time></trkpt>
<trkpt lat="46.13148224540055" lon="7.2374361846596"><ele></ele><time>2013-8-1T13:17:25Z</time></trkpt>
<trkpt lat="46.1315003503114" lon="7.237417576834559"><ele></ele><time>2013-8-1T13:17:28Z</time></trkpt>
<trkpt lat="46.13151946105063" lon="7.237404333427548"><ele></ele><time>2013-8-1T13:17:31Z</time></trkpt>
<trkpt lat="46.131539745256305" lon="7.237388743087649"><ele></ele><time>2013-8-1T13:17:34Z</time></trkpt>
<trkpt lat="46.13155793398619" lon="7.2373707219958305"><ele></ele><time>2013-8-1T13:17:37Z</time></trkpt>
<trkpt lat="46.131632113829255" lon="7.237274581566453"><ele></ele><time>2013-8-1T13:17:40Z</time></trkpt>
<trkpt lat="46.13164158537984" lon="7.237248932942748"><ele></ele><time>2013-8-1T13:17:43Z</time></trkpt>
<trkpt lat="46.131652146577835" lon="7.237222194671631"><ele></ele><time>2013-8-1T13:17:46Z</time></trkpt>
<trkpt lat="46.13166052848101" lon="7.2371987253427505"><ele></ele><time>2013-8-1T13:17:49Z</time></trkpt>
<trkpt lat="46.13173118792474" lon="7.237061010673642"><ele></ele><time>2013-8-1T13:17:52Z</time></trkpt>
<trkpt lat="46.13176639191806" lon="7.236984735354781"><ele></ele><time>2013-8-1T13:17:55Z</time></trkpt>
<trkpt lat="46.13177896477282" lon="7.236959505826235"><ele></ele><time>2013-8-1T13:17:58Z</time></trkpt>
<trkpt lat="46.13179011270404" lon="7.236933019012213"><ele></ele><time>2013-8-1T13:18:1Z</time></trkpt>
<trkpt lat="46.131804529577494" lon="7.236904436722398"><ele></ele><time>2013-8-1T13:18:4Z</time></trkpt>
<trkpt lat="46.131816348060966" lon="7.236877363175154"><ele></ele><time>2013-8-1T13:18:7Z</time></trkpt>
<trkpt lat="46.1318283341825" lon="7.236849199980497"><ele></ele><time>2013-8-1T13:18:10Z</time></trkpt>
<trkpt lat="46.13185415044427" lon="7.236800752580166"><ele></ele><time>2013-8-1T13:18:13Z</time></trkpt>
<trkpt lat="46.13187041133642" lon="7.236782647669315"><ele></ele><time>2013-8-1T13:18:16Z</time></trkpt>
<trkpt lat="46.131930174306035" lon="7.236741157248616"><ele></ele><time>2013-8-1T13:18:19Z</time></trkpt>
<trkpt lat="46.1319681443274" lon="7.236702516674995"><ele></ele><time>2013-8-1T13:18:22Z</time></trkpt>
<trkpt lat="46.13198725506663" lon="7.236685752868652"><ele></ele><time>2013-8-1T13:18:25Z</time></trkpt>
<trkpt lat="46.13200519233942" lon="7.236665720120072"><ele></ele><time>2013-8-1T13:18:28Z</time></trkpt>
<trkpt lat="46.13202480599284" lon="7.236648621037602"><ele></ele><time>2013-8-1T13:18:31Z</time></trkpt>
<trkpt lat="46.13209663890302" lon="7.236577291041613"><ele></ele><time>2013-8-1T13:18:34Z</time></trkpt>
<trkpt lat="46.132129495963454" lon="7.236549211665988"><ele></ele><time>2013-8-1T13:18:37Z</time></trkpt>
<trkpt lat="46.13214768469334" lon="7.236534459516406"><ele></ele><time>2013-8-1T13:18:40Z</time></trkpt>
<trkpt lat="46.13216486759484" lon="7.236518450081348"><ele></ele><time>2013-8-1T13:18:43Z</time></trkpt>
<trkpt lat="46.13218121230602" lon="7.236501099541783"><ele></ele><time>2013-8-1T13:18:46Z</time></trkpt>
<trkpt lat="46.13219571299851" lon="7.236481066793203"><ele></ele><time>2013-8-1T13:18:49Z</time></trkpt>
<trkpt lat="46.13222270272672" lon="7.236444437876344"><ele></ele><time>2013-8-1T13:18:52Z</time></trkpt>
<trkpt lat="46.132270731031895" lon="7.236389368772507"><ele></ele><time>2013-8-1T13:18:55Z</time></trkpt>
<trkpt lat="46.13229042850435" lon="7.236372856423259"><ele></ele><time>2013-8-1T13:18:58Z</time></trkpt>
<trkpt lat="46.132308868691325" lon="7.236351063475013"><ele></ele><time>2013-8-1T13:19:1Z</time></trkpt>
<trkpt lat="46.13232714124024" lon="7.236324744299054"><ele></ele><time>2013-8-1T13:19:4Z</time></trkpt>
<trkpt lat="46.13233954645693" lon="7.236301610246301"><ele></ele><time>2013-8-1T13:19:7Z</time></trkpt>
<trkpt lat="46.13235807046294" lon="7.236280236393213"><ele></ele><time>2013-8-1T13:19:10Z</time></trkpt>
<trkpt lat="46.132423700764775" lon="7.23618233576417"><ele></ele><time>2013-8-1T13:19:13Z</time></trkpt>
<trkpt lat="46.13243744708598" lon="7.236163644120097"><ele></ele><time>2013-8-1T13:19:16Z</time></trkpt>
<trkpt lat="46.13245370797813" lon="7.236147131770849"><ele></ele><time>2013-8-1T13:19:19Z</time></trkpt>
<trkpt lat="46.13246988505125" lon="7.236124919727445"><ele></ele><time>2013-8-1T13:19:22Z</time></trkpt>
<trkpt lat="46.132481787353754" lon="7.23610513843596"><ele></ele><time>2013-8-1T13:19:25Z</time></trkpt>
<trkpt lat="46.132493522018194" lon="7.23608611151576"><ele></ele><time>2013-8-1T13:19:28Z</time></trkpt>
<trkpt lat="46.13251665607095" lon="7.23604797385633"><ele></ele><time>2013-8-1T13:19:31Z</time></trkpt>
<trkpt lat="46.13253274932504" lon="7.235998352989554"><ele></ele><time>2013-8-1T13:19:34Z</time></trkpt>
<trkpt lat="46.13254113122821" lon="7.235884862020612"><ele></ele><time>2013-8-1T13:19:37Z</time></trkpt>
<trkpt lat="46.13254364579916" lon="7.235860889777541"><ele></ele><time>2013-8-1T13:19:40Z</time></trkpt>
<trkpt lat="46.132545322179794" lon="7.2358351573348045"><ele></ele><time>2013-8-1T13:19:43Z</time></trkpt>
<trkpt lat="46.13254129886627" lon="7.235805653035641"><ele></ele><time>2013-8-1T13:19:46Z</time></trkpt>
<trkpt lat="46.13253761082888" lon="7.235773298889399"><ele></ele><time>2013-8-1T13:19:49Z</time></trkpt>
<trkpt lat="46.13253048621118" lon="7.235708758234978"><ele></ele><time>2013-8-1T13:19:52Z</time></trkpt>
<trkpt lat="46.13250466994941" lon="7.235600128769875"><ele></ele><time>2013-8-1T13:19:55Z</time></trkpt>
<trkpt lat="46.132498383522034" lon="7.235572300851345"><ele></ele><time>2013-8-1T13:19:58Z</time></trkpt>
<trkpt lat="46.132490169256926" lon="7.235542042180896"><ele></ele><time>2013-8-1T13:20:1Z</time></trkpt>
<trkpt lat="46.13247826695442" lon="7.235512789338827"><ele></ele><time>2013-8-1T13:20:4Z</time></trkpt>
<trkpt lat="46.13246904686093" lon="7.235481943935156"><ele></ele><time>2013-8-1T13:20:7Z</time></trkpt>
<trkpt lat="46.132427556440234" lon="7.235337607562542"><ele></ele><time>2013-8-1T13:20:10Z</time></trkpt>
<trkpt lat="46.132417330518365" lon="7.235285891219974"><ele></ele><time>2013-8-1T13:20:13Z</time></trkpt>
<trkpt lat="46.13241456449032" lon="7.235258985310793"><ele></ele><time>2013-8-1T13:20:16Z</time></trkpt>
<trkpt lat="46.13241037353873" lon="7.235232666134834"><ele></ele><time>2013-8-1T13:20:19Z</time></trkpt>
<trkpt lat="46.132406601682305" lon="7.235205676406622"><ele></ele><time>2013-8-1T13:20:22Z</time></trkpt>
<trkpt lat="46.132404590025544" lon="7.235174244269729"><ele></ele><time>2013-8-1T13:20:25Z</time></trkpt>
<trkpt lat="46.132404087111354" lon="7.235145075246692"><ele></ele><time>2013-8-1T13:20:28Z</time></trkpt>
<trkpt lat="46.13240936771035" lon="7.235088497400284"><ele></ele><time>2013-8-1T13:20:31Z</time></trkpt>
<trkpt lat="46.13241565413773" lon="7.23505949601531"><ele></ele><time>2013-8-1T13:20:34Z</time></trkpt>
<trkpt lat="46.132450103759766" lon="7.234926139935851"><ele></ele><time>2013-8-1T13:20:37Z</time></trkpt>
<trkpt lat="46.132456390187144" lon="7.234897557646036"><ele></ele><time>2013-8-1T13:20:40Z</time></trkpt>
<trkpt lat="46.13246602937579" lon="7.234868220984936"><ele></ele><time>2013-8-1T13:20:43Z</time></trkpt>
<trkpt lat="46.1324723996222" lon="7.234837207943201"><ele></ele><time>2013-8-1T13:20:46Z</time></trkpt>
<trkpt lat="46.13248706795275" lon="7.234717179089785"><ele></ele><time>2013-8-1T13:20:49Z</time></trkpt>
<trkpt lat="46.132497042417526" lon="7.234597150236368"><ele></ele><time>2013-8-1T13:20:52Z</time></trkpt>
<trkpt lat="46.132498970255256" lon="7.2345649637281895"><ele></ele><time>2013-8-1T13:20:55Z</time></trkpt>
<trkpt lat="46.13250249065459" lon="7.234531603753567"><ele></ele><time>2013-8-1T13:20:58Z</time></trkpt>
<trkpt lat="46.132507184520364" lon="7.234500087797642"><ele></ele><time>2013-8-1T13:21:1Z</time></trkpt>
<trkpt lat="46.132509699091315" lon="7.234467901289463"><ele></ele><time>2013-8-1T13:21:4Z</time></trkpt>
<trkpt lat="46.13254079595208" lon="7.234334293752909"><ele></ele><time>2013-8-1T13:21:7Z</time></trkpt>
<trkpt lat="46.13254968076944" lon="7.2343069687485695"><ele></ele><time>2013-8-1T13:21:10Z</time></trkpt>
<trkpt lat="46.13256510347128" lon="7.234258102253079"><ele></ele><time>2013-8-1T13:21:13Z</time></trkpt>
<trkpt lat="46.13257382065058" lon="7.234227424487472"><ele></ele><time>2013-8-1T13:21:16Z</time></trkpt>
<trkpt lat="46.132580107077956" lon="7.234199428930879"><ele></ele><time>2013-8-1T13:21:19Z</time></trkpt>
<trkpt lat="46.13258622586727" lon="7.234171349555254"><ele></ele><time>2013-8-1T13:21:22Z</time></trkpt>
<trkpt lat="46.132639115676284" lon="7.233998514711857"><ele></ele><time>2013-8-1T13:21:25Z</time></trkpt>
<trkpt lat="46.13264624029398" lon="7.233968004584312"><ele></ele><time>2013-8-1T13:21:28Z</time></trkpt>
<trkpt lat="46.132650850340724" lon="7.2339382488280535"><ele></ele><time>2013-8-1T13:21:31Z</time></trkpt>
<trkpt lat="46.132657807320356" lon="7.233909331262112"><ele></ele><time>2013-8-1T13:21:34Z</time></trkpt>
<trkpt lat="46.132664596661925" lon="7.233879659324884"><ele></ele><time>2013-8-1T13:21:37Z</time></trkpt>
<trkpt lat="46.13267063163221" lon="7.233849400654435"><ele></ele><time>2013-8-1T13:21:40Z</time></trkpt>
<trkpt lat="46.132684629410505" lon="7.2337868716567755"><ele></ele><time>2013-8-1T13:21:43Z</time></trkpt>
<trkpt lat="46.13270139321685" lon="7.23359651863575"><ele></ele><time>2013-8-1T13:21:46Z</time></trkpt>
<trkpt lat="46.132705081254244" lon="7.233567265793681"><ele></ele><time>2013-8-1T13:21:49Z</time></trkpt>
<trkpt lat="46.13270977512002" lon="7.233535582199693"><ele></ele><time>2013-8-1T13:21:52Z</time></trkpt>
<trkpt lat="46.132713463157415" lon="7.233503228053451"><ele></ele><time>2013-8-1T13:21:55Z</time></trkpt>
<trkpt lat="46.13271656446159" lon="7.233474059030414"><ele></ele><time>2013-8-1T13:21:58Z</time></trkpt>
<trkpt lat="46.13272067159414" lon="7.233279179781675"><ele></ele><time>2013-8-1T13:22:1Z</time></trkpt>
<trkpt lat="46.13272301852703" lon="7.233217488974333"><ele></ele><time>2013-8-1T13:22:4Z</time></trkpt>
<trkpt lat="46.132728634402156" lon="7.233183877542615"><ele></ele><time>2013-8-1T13:22:7Z</time></trkpt>
<trkpt lat="46.13273458555341" lon="7.233151439577341"><ele></ele><time>2013-8-1T13:22:10Z</time></trkpt>
<trkpt lat="46.132740871980786" lon="7.233119001612067"><ele></ele><time>2013-8-1T13:22:13Z</time></trkpt>
<trkpt lat="46.132747158408165" lon="7.233084384351969"><ele></ele><time>2013-8-1T13:22:16Z</time></trkpt>
<trkpt lat="46.13275604322553" lon="7.233053455129266"><ele></ele><time>2013-8-1T13:22:19Z</time></trkpt>
<trkpt lat="46.13282561302185" lon="7.232920182868838"><ele></ele><time>2013-8-1T13:22:22Z</time></trkpt>
<trkpt lat="46.132842879742384" lon="7.232907358556986"><ele></ele><time>2013-8-1T13:22:25Z</time></trkpt>
<trkpt lat="46.1328645888716" lon="7.2329027485102415"><ele></ele><time>2013-8-1T13:22:28Z</time></trkpt>
<trkpt lat="46.13288369961083" lon="7.232899479568005"><ele></ele><time>2013-8-1T13:22:31Z</time></trkpt>
<trkpt lat="46.13290071487427" lon="7.23288799636066"><ele></ele><time>2013-8-1T13:22:34Z</time></trkpt>
<trkpt lat="46.13293063826859" lon="7.23285673186183"><ele></ele><time>2013-8-1T13:22:37Z</time></trkpt>
<trkpt lat="46.13295410759747" lon="7.232822785153985"><ele></ele><time>2013-8-1T13:22:40Z</time></trkpt>
<trkpt lat="46.13296374678612" lon="7.232801914215088"><ele></ele><time>2013-8-1T13:22:43Z</time></trkpt>
<trkpt lat="46.132972883060575" lon="7.23277760669589"><ele></ele><time>2013-8-1T13:22:46Z</time></trkpt>
<trkpt lat="46.13297891803086" lon="7.232752293348312"><ele></ele><time>2013-8-1T13:22:49Z</time></trkpt>
<trkpt lat="46.13298671320081" lon="7.232726393267512"><ele></ele><time>2013-8-1T13:22:52Z</time></trkpt>
<trkpt lat="46.13296869210899" lon="7.232568226754665"><ele></ele><time>2013-8-1T13:22:55Z</time></trkpt>
<trkpt lat="46.13293960690498" lon="7.2325145825743675"><ele></ele><time>2013-8-1T13:22:58Z</time></trkpt>
<trkpt lat="46.13292586058378" lon="7.232491280883551"><ele></ele><time>2013-8-1T13:23:1Z</time></trkpt>
<trkpt lat="46.13291664049029" lon="7.232463788241148"><ele></ele><time>2013-8-1T13:23:4Z</time></trkpt>
<trkpt lat="46.132908426225185" lon="7.232433361932635"><ele></ele><time>2013-8-1T13:23:7Z</time></trkpt>
<trkpt lat="46.13290071487427" lon="7.2324056178331375"><ele></ele><time>2013-8-1T13:23:10Z</time></trkpt>
<trkpt lat="46.13289459608495" lon="7.232378711923957"><ele></ele><time>2013-8-1T13:23:13Z</time></trkpt>
<trkpt lat="46.132879089564085" lon="7.232230268418789"><ele></ele><time>2013-8-1T13:23:16Z</time></trkpt>
<trkpt lat="46.13288034684956" lon="7.232195818796754"><ele></ele><time>2013-8-1T13:23:19Z</time></trkpt>
<trkpt lat="46.13288286142051" lon="7.232164302840829"><ele></ele><time>2013-8-1T13:23:22Z</time></trkpt>
<trkpt lat="46.13288554362953" lon="7.232133373618126"><ele></ele><time>2013-8-1T13:23:25Z</time></trkpt>
<trkpt lat="46.13288956694305" lon="7.232102109119296"><ele></ele><time>2013-8-1T13:23:28Z</time></trkpt>
<trkpt lat="46.13289501518011" lon="7.232070844620466"><ele></ele><time>2013-8-1T13:23:31Z</time></trkpt>
<trkpt lat="46.13289987668395" lon="7.2320404183119535"><ele></ele><time>2013-8-1T13:23:34Z</time></trkpt>
<trkpt lat="46.13291840068996" lon="7.231953330338001"><ele></ele><time>2013-8-1T13:23:37Z</time></trkpt>
<trkpt lat="46.13292611204088" lon="7.231928603723645"><ele></ele><time>2013-8-1T13:23:40Z</time></trkpt>
<trkpt lat="46.13295955583453" lon="7.231798768043518"><ele></ele><time>2013-8-1T13:23:43Z</time></trkpt>
<trkpt lat="46.13296785391867" lon="7.231766413897276"><ele></ele><time>2013-8-1T13:23:46Z</time></trkpt>
<trkpt lat="46.13297615200281" lon="7.231735233217478"><ele></ele><time>2013-8-1T13:23:49Z</time></trkpt>
<trkpt lat="46.13298428244889" lon="7.231703381985426"><ele></ele><time>2013-8-1T13:23:52Z</time></trkpt>
<trkpt lat="46.132994843646884" lon="7.231675973162055"><ele></ele><time>2013-8-1T13:23:55Z</time></trkpt>
<trkpt lat="46.133079417049885" lon="7.231497438624501"><ele></ele><time>2013-8-1T13:23:58Z</time></trkpt>
<trkpt lat="46.133092576637864" lon="7.231471370905638"><ele></ele><time>2013-8-1T13:24:1Z</time></trkpt>
<trkpt lat="46.13310498185456" lon="7.2314446326345205"><ele></ele><time>2013-8-1T13:24:4Z</time></trkpt>
<trkpt lat="46.13311713561416" lon="7.23141429014504"><ele></ele><time>2013-8-1T13:24:7Z</time></trkpt>
<trkpt lat="46.133181005716324" lon="7.2312714625149965"><ele></ele><time>2013-8-1T13:24:10Z</time></trkpt>
<trkpt lat="46.13318921998143" lon="7.231151768937707"><ele></ele><time>2013-8-1T13:24:13Z</time></trkpt>
<trkpt lat="46.133174216374755" lon="7.231125449761748"><ele></ele><time>2013-8-1T13:24:16Z</time></trkpt>
<trkpt lat="46.13315778784454" lon="7.231110529974103"><ele></ele><time>2013-8-1T13:24:19Z</time></trkpt>
<trkpt lat="46.13313959911466" lon="7.231105584651232"><ele></ele><time>2013-8-1T13:24:22Z</time></trkpt>
<trkpt lat="46.13311939872801" lon="7.231109105050564"><ele></ele><time>2013-8-1T13:24:25Z</time></trkpt>
<trkpt lat="46.13308268599212" lon="7.231123689562082"><ele></ele><time>2013-8-1T13:24:28Z</time></trkpt>
<trkpt lat="46.13299509510398" lon="7.2312193270772696"><ele></ele><time>2013-8-1T13:24:31Z</time></trkpt>
<trkpt lat="46.13298092968762" lon="7.231247574090958"><ele></ele><time>2013-8-1T13:24:34Z</time></trkpt>
<trkpt lat="46.13296525552869" lon="7.231271043419838"><ele></ele><time>2013-8-1T13:24:37Z</time></trkpt>
<trkpt lat="46.132951844483614" lon="7.231294931843877"><ele></ele><time>2013-8-1T13:24:40Z</time></trkpt>
<trkpt lat="46.13292963244021" lon="7.231349749490619"><ele></ele><time>2013-8-1T13:24:43Z</time></trkpt>
<trkpt lat="46.13292083144188" lon="7.2313792537897825"><ele></ele><time>2013-8-1T13:24:46Z</time></trkpt>
<trkpt lat="46.13291027024388" lon="7.231408255174756"><ele></ele><time>2013-8-1T13:24:49Z</time></trkpt>
<trkpt lat="46.13286190666258" lon="7.231473131105304"><ele></ele><time>2013-8-1T13:24:52Z</time></trkpt>
<trkpt lat="46.132843885570765" lon="7.231493918225169"><ele></ele><time>2013-8-1T13:24:55Z</time></trkpt>
<trkpt lat="46.132826283574104" lon="7.231509173288941"><ele></ele><time>2013-8-1T13:24:58Z</time></trkpt>
<trkpt lat="46.13280599936843" lon="7.231523841619492"><ele></ele><time>2013-8-1T13:25:1Z</time></trkpt>
<trkpt lat="46.13278512842953" lon="7.231537755578756"><ele></ele><time>2013-8-1T13:25:4Z</time></trkpt>
<trkpt lat="46.132762748748064" lon="7.231548232957721"><ele></ele><time>2013-8-1T13:25:7Z</time></trkpt>
<trkpt lat="46.13270306959748" lon="7.231595758348703"><ele></ele><time>2013-8-1T13:25:10Z</time></trkpt>
<trkpt lat="46.132685048505664" lon="7.231614617630839"><ele></ele><time>2013-8-1T13:25:13Z</time></trkpt>
<trkpt lat="46.13267180509865" lon="7.231635740026832"><ele></ele><time>2013-8-1T13:25:16Z</time></trkpt>
<trkpt lat="46.13265755586326" lon="7.2316555213183165"><ele></ele><time>2013-8-1T13:25:19Z</time></trkpt>
<trkpt lat="46.132640205323696" lon="7.231673542410135"><ele></ele><time>2013-8-1T13:25:22Z</time></trkpt>
<trkpt lat="46.13262285478413" lon="7.231685109436512"><ele></ele><time>2013-8-1T13:25:25Z</time></trkpt>
<trkpt lat="46.132607348263264" lon="7.2316996939480305"><ele></ele><time>2013-8-1T13:25:28Z</time></trkpt>
<trkpt lat="46.132591338828206" lon="7.231710758060217"><ele></ele><time>2013-8-1T13:25:31Z</time></trkpt>
<trkpt lat="46.132575161755085" lon="7.231723163276911"><ele></ele><time>2013-8-1T13:25:34Z</time></trkpt>
<trkpt lat="46.13251078873873" lon="7.231768341735005"><ele></ele><time>2013-8-1T13:25:37Z</time></trkpt>
<trkpt lat="46.1324951145798" lon="7.231780579313636"><ele></ele><time>2013-8-1T13:25:40Z</time></trkpt>
<trkpt lat="46.13247868604958" lon="7.231792313978076"><ele></ele><time>2013-8-1T13:25:43Z</time></trkpt>
<trkpt lat="46.132461838424206" lon="7.231805808842182"><ele></ele><time>2013-8-1T13:25:46Z</time></trkpt>
<trkpt lat="46.132444236427546" lon="7.231823997572064"><ele></ele><time>2013-8-1T13:25:49Z</time></trkpt>
<trkpt lat="46.13232605159283" lon="7.231960454955697"><ele></ele><time>2013-8-1T13:25:52Z</time></trkpt>
<trkpt lat="46.13230124115944" lon="7.232007225975394"><ele></ele><time>2013-8-1T13:25:55Z</time></trkpt>
<trkpt lat="46.13229160197079" lon="7.232030779123306"><ele></ele><time>2013-8-1T13:25:58Z</time></trkpt>
<trkpt lat="46.13227827474475" lon="7.232056595385075"><ele></ele><time>2013-8-1T13:26:1Z</time></trkpt>
<trkpt lat="46.13226721063256" lon="7.232079561799765"><ele></ele><time>2013-8-1T13:26:4Z</time></trkpt>
<trkpt lat="46.13225631415844" lon="7.23210034891963"><ele></ele><time>2013-8-1T13:26:7Z</time></trkpt>
<trkpt lat="46.13224499858916" lon="7.232123147696257"><ele></ele><time>2013-8-1T13:26:10Z</time></trkpt>
<trkpt lat="46.13219713792205" lon="7.232226245105267"><ele></ele><time>2013-8-1T13:26:13Z</time></trkpt>
<trkpt lat="46.132189175114036" lon="7.232254492118955"><ele></ele><time>2013-8-1T13:26:16Z</time></trkpt>
<trkpt lat="46.132175009697676" lon="7.232277374714613"><ele></ele><time>2013-8-1T13:26:19Z</time></trkpt>
<trkpt lat="46.13216218538582" lon="7.232298161834478"><ele></ele><time>2013-8-1T13:26:22Z</time></trkpt>
<trkpt lat="46.132147097960114" lon="7.232312494888902"><ele></ele><time>2013-8-1T13:26:25Z</time></trkpt>
<trkpt lat="46.132128993049264" lon="7.232326241210103"><ele></ele><time>2013-8-1T13:26:28Z</time></trkpt>
<trkpt lat="46.132057746872306" lon="7.232381729409099"><ele></ele><time>2013-8-1T13:26:31Z</time></trkpt>
<trkpt lat="46.13201625645161" lon="7.232394386082888"><ele></ele><time>2013-8-1T13:26:34Z</time></trkpt>
<trkpt lat="46.13199622370303" lon="7.2324020974338055"><ele></ele><time>2013-8-1T13:26:37Z</time></trkpt>
<trkpt lat="46.131975604221225" lon="7.232411652803421"><ele></ele><time>2013-8-1T13:26:40Z</time></trkpt>
<trkpt lat="46.13195858895779" lon="7.2324279975146055"><ele></ele><time>2013-8-1T13:26:43Z</time></trkpt>
<trkpt lat="46.131940986961126" lon="7.232440402731299"><ele></ele><time>2013-8-1T13:26:46Z</time></trkpt>
<trkpt lat="46.13190293312073" lon="7.23246093839407"><ele></ele><time>2013-8-1T13:26:49Z</time></trkpt>
<trkpt lat="46.131866220384836" lon="7.232486167922616"><ele></ele><time>2013-8-1T13:26:52Z</time></trkpt>
<trkpt lat="46.13183026202023" lon="7.232522796839476"><ele></ele><time>2013-8-1T13:26:55Z</time></trkpt>
<trkpt lat="46.13179857842624" lon="7.232564287260175"><ele></ele><time>2013-8-1T13:26:58Z</time></trkpt>
<trkpt lat="46.13178483210504" lon="7.232587169855833"><ele></ele><time>2013-8-1T13:27:1Z</time></trkpt>
<trkpt lat="46.131770918145776" lon="7.2326120641082525"><ele></ele><time>2013-8-1T13:27:4Z</time></trkpt>
<trkpt lat="46.13176136277616" lon="7.23263343796134"><ele></ele><time>2013-8-1T13:27:7Z</time></trkpt>
<trkpt lat="46.131718531250954" lon="7.232768889516592"><ele></ele><time>2013-8-1T13:27:10Z</time></trkpt>
<trkpt lat="46.131704868748784" lon="7.232827981933951"><ele></ele><time>2013-8-1T13:27:13Z</time></trkpt>
<trkpt lat="46.131697073578835" lon="7.23285723477602"><ele></ele><time>2013-8-1T13:27:16Z</time></trkpt>
<trkpt lat="46.13168659619987" lon="7.232884224504232"><ele></ele><time>2013-8-1T13:27:19Z</time></trkpt>
<trkpt lat="46.13167989067733" lon="7.232909202575684"><ele></ele><time>2013-8-1T13:27:22Z</time></trkpt>
<trkpt lat="46.13166689872742" lon="7.232935689389706"><ele></ele><time>2013-8-1T13:27:25Z</time></trkpt>
<trkpt lat="46.13165038637817" lon="7.232960080727935"><ele></ele><time>2013-8-1T13:27:28Z</time></trkpt>
<trkpt lat="46.13153211772442" lon="7.23301992751658"><ele></ele><time>2013-8-1T13:27:31Z</time></trkpt>
<trkpt lat="46.13150864839554" lon="7.233022106811404"><ele></ele><time>2013-8-1T13:27:34Z</time></trkpt>
<trkpt lat="46.13148467615247" lon="7.23302386701107"><ele></ele><time>2013-8-1T13:27:37Z</time></trkpt>
<trkpt lat="46.13145852461457" lon="7.233027135953307"><ele></ele><time>2013-8-1T13:27:40Z</time></trkpt>
<trkpt lat="46.1314345523715" lon="7.233029147610068"><ele></ele><time>2013-8-1T13:27:43Z</time></trkpt>
<trkpt lat="46.131385853514075" lon="7.233042726293206"><ele></ele><time>2013-8-1T13:27:46Z</time></trkpt>
<trkpt lat="46.13136322237551" lon="7.2330517787486315"><ele></ele><time>2013-8-1T13:27:49Z</time></trkpt>
<trkpt lat="46.1312672495842" lon="7.2331309877336025"><ele></ele><time>2013-8-1T13:27:52Z</time></trkpt>
<trkpt lat="46.13125601783395" lon="7.2331516072154045"><ele></ele><time>2013-8-1T13:27:55Z</time></trkpt>
<trkpt lat="46.13124252296984" lon="7.233173903077841"><ele></ele><time>2013-8-1T13:27:58Z</time></trkpt>
<trkpt lat="46.13122936338186" lon="7.233195025473833"><ele></ele><time>2013-8-1T13:28:1Z</time></trkpt>
<trkpt lat="46.13121561706066" lon="7.233216147869825"><ele></ele><time>2013-8-1T13:28:4Z</time></trkpt>
<trkpt lat="46.131132217124104" lon="7.233302481472492"><ele></ele><time>2013-8-1T13:28:7Z</time></trkpt>
<trkpt lat="46.13111427985132" lon="7.233318742364645"><ele></ele><time>2013-8-1T13:28:10Z</time></trkpt>
<trkpt lat="46.131093660369515" lon="7.233332907781005"><ele></ele><time>2013-8-1T13:28:13Z</time></trkpt>
<trkpt lat="46.13107396289706" lon="7.2333448100835085"><ele></ele><time>2013-8-1T13:28:16Z</time></trkpt>
<trkpt lat="46.1310497391969" lon="7.233351347967982"><ele></ele><time>2013-8-1T13:28:19Z</time></trkpt>
<trkpt lat="46.131031550467014" lon="7.233361741527915"><ele></ele><time>2013-8-1T13:28:22Z</time></trkpt>
<trkpt lat="46.1309754755348" lon="7.233389401808381"><ele></ele><time>2013-8-1T13:28:25Z</time></trkpt>
<trkpt lat="46.130899116396904" lon="7.233435418456793"><ele></ele><time>2013-8-1T13:28:28Z</time></trkpt>
<trkpt lat="46.13087698817253" lon="7.233442375436425"><ele></ele><time>2013-8-1T13:28:31Z</time></trkpt>
<trkpt lat="46.13085645250976" lon="7.233447739854455"><ele></ele><time>2013-8-1T13:28:34Z</time></trkpt>
<trkpt lat="46.13083533011377" lon="7.233451176434755"><ele></ele><time>2013-8-1T13:28:37Z</time></trkpt>
<trkpt lat="46.13081378862262" lon="7.233452936634421"><ele></ele><time>2013-8-1T13:28:40Z</time></trkpt>
<trkpt lat="46.13079191185534" lon="7.2334572952240705"><ele></ele><time>2013-8-1T13:28:43Z</time></trkpt>
<trkpt lat="46.13073089160025" lon="7.233466599136591"><ele></ele><time>2013-8-1T13:28:46Z</time></trkpt>
<trkpt lat="46.1307109426707" lon="7.2334773279726505"><ele></ele><time>2013-8-1T13:28:49Z</time></trkpt>
<trkpt lat="46.13064858131111" lon="7.233515381813049"><ele></ele><time>2013-8-1T13:28:52Z</time></trkpt>
<trkpt lat="46.13063072785735" lon="7.233534660190344"><ele></ele><time>2013-8-1T13:28:55Z</time></trkpt>
<trkpt lat="46.130609940737486" lon="7.2335536032915115"><ele></ele><time>2013-8-1T13:28:58Z</time></trkpt>
<trkpt lat="46.13058898597956" lon="7.233568103983998"><ele></ele><time>2013-8-1T13:29:1Z</time></trkpt>
<trkpt lat="46.13057062961161" lon="7.233589729294181"><ele></ele><time>2013-8-1T13:29:4Z</time></trkpt>
<trkpt lat="46.13055503927171" lon="7.233610600233078"><ele></ele><time>2013-8-1T13:29:7Z</time></trkpt>
<trkpt lat="46.13054137676954" lon="7.233632644638419"><ele></ele><time>2013-8-1T13:29:10Z</time></trkpt>
<trkpt lat="46.13048161379993" lon="7.233714368194342"><ele></ele><time>2013-8-1T13:29:13Z</time></trkpt>
<trkpt lat="46.1304677836597" lon="7.233741441741586"><ele></ele><time>2013-8-1T13:29:16Z</time></trkpt>
<trkpt lat="46.1304556299001" lon="7.2337697725743055"><ele></ele><time>2013-8-1T13:29:19Z</time></trkpt>
<trkpt lat="46.13044096156955" lon="7.233799025416374"><ele></ele><time>2013-8-1T13:29:22Z</time></trkpt>
<trkpt lat="46.13042503595352" lon="7.233826098963618"><ele></ele><time>2013-8-1T13:29:25Z</time></trkpt>
<trkpt lat="46.130412546917796" lon="7.233854681253433"><ele></ele><time>2013-8-1T13:29:28Z</time></trkpt>
<trkpt lat="46.130308862775564" lon="7.234103204682469"><ele></ele><time>2013-8-1T13:29:31Z</time></trkpt>
<trkpt lat="46.130291512236" lon="7.234162045642734"><ele></ele><time>2013-8-1T13:29:34Z</time></trkpt>
<trkpt lat="46.130283549427986" lon="7.234191885218024"><ele></ele><time>2013-8-1T13:29:37Z</time></trkpt>
<trkpt lat="46.130270808935165" lon="7.234213929623365"><ele></ele><time>2013-8-1T13:29:40Z</time></trkpt>
<trkpt lat="46.13026267848909" lon="7.234240081161261"><ele></ele><time>2013-8-1T13:29:43Z</time></trkpt>
<trkpt lat="46.13024960272014" lon="7.234265813603997"><ele></ele><time>2013-8-1T13:29:46Z</time></trkpt>
<trkpt lat="46.130233593285084" lon="7.234288277104497"><ele></ele><time>2013-8-1T13:29:49Z</time></trkpt>
<trkpt lat="46.13012680783868" lon="7.234369916841388"><ele></ele><time>2013-8-1T13:29:52Z</time></trkpt>
<trkpt lat="46.13010702654719" lon="7.2343832440674305"><ele></ele><time>2013-8-1T13:29:55Z</time></trkpt>
<trkpt lat="46.13008573651314" lon="7.234398331493139"><ele></ele><time>2013-8-1T13:29:58Z</time></trkpt>
<trkpt lat="46.130067044869065" lon="7.234413754194975"><ele></ele><time>2013-8-1T13:30:1Z</time></trkpt>
<trkpt lat="46.1300496943295" lon="7.234426662325859"><ele></ele><time>2013-8-1T13:30:4Z</time></trkpt>
<trkpt lat="46.13003209233284" lon="7.23444334231317"><ele></ele><time>2013-8-1T13:30:7Z</time></trkpt>
<trkpt lat="46.13001197576523" lon="7.2344571724534035"><ele></ele><time>2013-8-1T13:30:10Z</time></trkpt>
<trkpt lat="46.12997584976256" lon="7.234485168009996"><ele></ele><time>2013-8-1T13:30:13Z</time></trkpt>
<trkpt lat="46.12990862689912" lon="7.23454300314188"><ele></ele><time>2013-8-1T13:30:16Z</time></trkpt>
<trkpt lat="46.12989094108343" lon="7.234553145244718"><ele></ele><time>2013-8-1T13:30:19Z</time></trkpt>
<trkpt lat="46.1298734229058" lon="7.234561527147889"><ele></ele><time>2013-8-1T13:30:22Z</time></trkpt>
<trkpt lat="46.12985615618527" lon="7.234575022011995"><ele></ele><time>2013-8-1T13:30:25Z</time></trkpt>
<trkpt lat="46.12983729690313" lon="7.234587678685784"><ele></ele><time>2013-8-1T13:30:28Z</time></trkpt>
<trkpt lat="46.12981676124036" lon="7.234599832445383"><ele></ele><time>2013-8-1T13:30:31Z</time></trkpt>
<trkpt lat="46.129723470658064" lon="7.23466563038528"><ele></ele><time>2013-8-1T13:30:34Z</time></trkpt>
<trkpt lat="46.12970670685172" lon="7.234685076400638"><ele></ele><time>2013-8-1T13:30:37Z</time></trkpt>
<trkpt lat="46.12968851812184" lon="7.234700163826346"><ele></ele><time>2013-8-1T13:30:40Z</time></trkpt>
<trkpt lat="46.12967091612518" lon="7.234712401404977"><ele></ele><time>2013-8-1T13:30:43Z</time></trkpt>
<trkpt lat="46.12965046428144" lon="7.234725560992956"><ele></ele><time>2013-8-1T13:30:46Z</time></trkpt>
<trkpt lat="46.129632694646716" lon="7.234738217666745"><ele></ele><time>2013-8-1T13:30:49Z</time></trkpt>
<trkpt lat="46.129581313580275" lon="7.234780630096793"><ele></ele><time>2013-8-1T13:30:52Z</time></trkpt>
<trkpt lat="46.129510486498475" lon="7.234818013384938"><ele></ele><time>2013-8-1T13:30:55Z</time></trkpt>
<trkpt lat="46.12949263304472" lon="7.234828490763903"><ele></ele><time>2013-8-1T13:30:58Z</time></trkpt>
<trkpt lat="46.12947419285774" lon="7.234836369752884"><ele></ele><time>2013-8-1T13:31:1Z</time></trkpt>
<trkpt lat="46.12945491448045" lon="7.234846679493785"><ele></ele><time>2013-8-1T13:31:4Z</time></trkpt>
<trkpt lat="46.129433792084455" lon="7.234857827425003"><ele></ele><time>2013-8-1T13:31:7Z</time></trkpt>
<trkpt lat="46.12937243655324" lon="7.234881212934852"><ele></ele><time>2013-8-1T13:31:10Z</time></trkpt>
<trkpt lat="46.12933438271284" lon="7.234898563474417"><ele></ele><time>2013-8-1T13:31:13Z</time></trkpt>
<trkpt lat="46.12929850816727" lon="7.234916836023331"><ele></ele><time>2013-8-1T13:31:16Z</time></trkpt>
<trkpt lat="46.12927906215191" lon="7.234927900135517"><ele></ele><time>2013-8-1T13:31:19Z</time></trkpt>
<trkpt lat="46.129258861765265" lon="7.234936449676752"><ele></ele><time>2013-8-1T13:31:22Z</time></trkpt>
<trkpt lat="46.12923673354089" lon="7.234943322837353"><ele></ele><time>2013-8-1T13:31:25Z</time></trkpt>
<trkpt lat="46.12921711988747" lon="7.234951620921493"><ele></ele><time>2013-8-1T13:31:28Z</time></trkpt>
<trkpt lat="46.12911745905876" lon="7.235011802986264"><ele></ele><time>2013-8-1T13:31:31Z</time></trkpt>
<trkpt lat="46.12905643880367" lon="7.235067626461387"><ele></ele><time>2013-8-1T13:31:34Z</time></trkpt>
<trkpt lat="46.12903447821736" lon="7.23507952876389"><ele></ele><time>2013-8-1T13:31:37Z</time></trkpt>
<trkpt lat="46.12901980988681" lon="7.235096795484424"><ele></ele><time>2013-8-1T13:31:40Z</time></trkpt>
<trkpt lat="46.12899960950017" lon="7.235113056376576"><ele></ele><time>2013-8-1T13:31:43Z</time></trkpt>
<trkpt lat="46.128983264788985" lon="7.2351366095244884"><ele></ele><time>2013-8-1T13:31:46Z</time></trkpt>
<trkpt lat="46.128860637545586" lon="7.235324867069721"><ele></ele><time>2013-8-1T13:31:49Z</time></trkpt>
<trkpt lat="46.12884328700602" lon="7.235343139618635"><ele></ele><time>2013-8-1T13:31:52Z</time></trkpt>
<trkpt lat="46.12882610410452" lon="7.235367614775896"><ele></ele><time>2013-8-1T13:31:55Z</time></trkpt>
<trkpt lat="46.128814620897174" lon="7.235391670837998"><ele></ele><time>2013-8-1T13:31:58Z</time></trkpt>
<trkpt lat="46.128771202638745" lon="7.235467443242669"><ele></ele><time>2013-8-1T13:32:1Z</time></trkpt>
<trkpt lat="46.12875318154693" lon="7.235490242019296"><ele></ele><time>2013-8-1T13:32:4Z</time></trkpt>
<trkpt lat="46.12873608246446" lon="7.2355111967772245"><ele></ele><time>2013-8-1T13:32:7Z</time></trkpt>
<trkpt lat="46.12870347686112" lon="7.235554112121463"><ele></ele><time>2013-8-1T13:32:10Z</time></trkpt>
<trkpt lat="46.12868495285511" lon="7.235572217032313"><ele></ele><time>2013-8-1T13:32:13Z</time></trkpt>
<trkpt lat="46.128670535981655" lon="7.235590489581227"><ele></ele><time>2013-8-1T13:32:16Z</time></trkpt>
<trkpt lat="46.128657292574644" lon="7.235611444339156"><ele></ele><time>2013-8-1T13:32:19Z</time></trkpt>
<trkpt lat="46.12864186987281" lon="7.235627034679055"><ele></ele><time>2013-8-1T13:32:22Z</time></trkpt>
<trkpt lat="46.128624603152275" lon="7.235643211752176"><ele></ele><time>2013-8-1T13:32:25Z</time></trkpt>
<trkpt lat="46.128589399158955" lon="7.23568101413548"><ele></ele><time>2013-8-1T13:32:28Z</time></trkpt>
<trkpt lat="46.1285490822047" lon="7.235713452100754"><ele></ele><time>2013-8-1T13:32:31Z</time></trkpt>
<trkpt lat="46.12852863036096" lon="7.2357279527932405"><ele></ele><time>2013-8-1T13:32:34Z</time></trkpt>
<trkpt lat="46.128508346155286" lon="7.235735580325127"><ele></ele><time>2013-8-1T13:32:37Z</time></trkpt>
<trkpt lat="46.12848814576864" lon="7.235737591981888"><ele></ele><time>2013-8-1T13:32:40Z</time></trkpt>
<trkpt lat="46.12846568226814" lon="7.23572351038456"><ele></ele><time>2013-8-1T13:32:43Z</time></trkpt>
<trkpt lat="46.12844950519502" lon="7.235713368281722"><ele></ele><time>2013-8-1T13:32:46Z</time></trkpt>
<trkpt lat="46.12842201255262" lon="7.235682271420956"><ele></ele><time>2013-8-1T13:32:49Z</time></trkpt>
<trkpt lat="46.128430142998695" lon="7.235606582835317"><ele></ele><time>2013-8-1T13:32:52Z</time></trkpt>
<trkpt lat="46.12844405695796" lon="7.235590908676386"><ele></ele><time>2013-8-1T13:32:55Z</time></trkpt>
<trkpt lat="46.12846216186881" lon="7.235581856220961"><ele></ele><time>2013-8-1T13:32:58Z</time></trkpt>
<trkpt lat="46.12848378717899" lon="7.235573390498757"><ele></ele><time>2013-8-1T13:33:1Z</time></trkpt>
<trkpt lat="46.12850164063275" lon="7.235563583672047"><ele></ele><time>2013-8-1T13:33:4Z</time></trkpt>
<trkpt lat="46.12861328758299" lon="7.235431484878063"><ele></ele><time>2013-8-1T13:33:7Z</time></trkpt>
<trkpt lat="46.12861940637231" lon="7.235404495149851"><ele></ele><time>2013-8-1T13:33:10Z</time></trkpt>
<trkpt lat="46.12862435169518" lon="7.235374907031655"><ele></ele><time>2013-8-1T13:33:13Z</time></trkpt>
<trkpt lat="46.12863063812256" lon="7.235345151275396"><ele></ele><time>2013-8-1T13:33:16Z</time></trkpt>
<trkpt lat="46.12863600254059" lon="7.235311958938837"><ele></ele><time>2013-8-1T13:33:19Z</time></trkpt>
<trkpt lat="46.128649581223726" lon="7.235251693055034"><ele></ele><time>2013-8-1T13:33:22Z</time></trkpt>
<trkpt lat="46.12870498560369" lon="7.235090425238013"><ele></ele><time>2013-8-1T13:33:25Z</time></trkpt>
<trkpt lat="46.12871672026813" lon="7.2350650280714035"><ele></ele><time>2013-8-1T13:33:28Z</time></trkpt>
<trkpt lat="46.12872937694192" lon="7.235037954524159"><ele></ele><time>2013-8-1T13:33:31Z</time></trkpt>
<trkpt lat="46.12873625010252" lon="7.235010964795947"><ele></ele><time>2013-8-1T13:33:34Z</time></trkpt>
<trkpt lat="46.12874119542539" lon="7.234981209039688"><ele></ele><time>2013-8-1T13:33:37Z</time></trkpt>
<trkpt lat="46.12877824343741" lon="7.2349107172340155"><ele></ele><time>2013-8-1T13:33:40Z</time></trkpt>
<trkpt lat="46.12880414351821" lon="7.234826646745205"><ele></ele><time>2013-8-1T13:33:43Z</time></trkpt>
<trkpt lat="46.12881353124976" lon="7.23480393178761"><ele></ele><time>2013-8-1T13:33:46Z</time></trkpt>
<trkpt lat="46.12882358953357" lon="7.234777277335525"><ele></ele><time>2013-8-1T13:33:49Z</time></trkpt>
<trkpt lat="46.128835659474134" lon="7.234746851027012"><ele></ele><time>2013-8-1T13:33:52Z</time></trkpt>
<trkpt lat="46.12884705886245" lon="7.234714664518833"><ele></ele><time>2013-8-1T13:33:55Z</time></trkpt>
<trkpt lat="46.12888955511153" lon="7.234534285962582"><ele></ele><time>2013-8-1T13:33:58Z</time></trkpt>
<trkpt lat="46.128921154886484" lon="7.234456753358245"><ele></ele><time>2013-8-1T13:34:1Z</time></trkpt>
<trkpt lat="46.12893129698932" lon="7.2344291768968105"><ele></ele><time>2013-8-1T13:34:4Z</time></trkpt>
<trkpt lat="46.12893900834024" lon="7.2344003431499"><ele></ele><time>2013-8-1T13:34:7Z</time></trkpt>
<trkpt lat="46.128947557881474" lon="7.234371928498149"><ele></ele><time>2013-8-1T13:34:10Z</time></trkpt>
<trkpt lat="46.12895568832755" lon="7.234338987618685"><ele></ele><time>2013-8-1T13:34:13Z</time></trkpt>
<trkpt lat="46.12903079017997" lon="7.234150227159262"><ele></ele><time>2013-8-1T13:34:16Z</time></trkpt>
<trkpt lat="46.12904403358698" lon="7.234124327078462"><ele></ele><time>2013-8-1T13:34:19Z</time></trkpt>
<trkpt lat="46.12905727699399" lon="7.2341040428727865"><ele></ele><time>2013-8-1T13:34:22Z</time></trkpt>
<trkpt lat="46.12906884402037" lon="7.234082585200667"><ele></ele><time>2013-8-1T13:34:25Z</time></trkpt>
<trkpt lat="46.12908066250384" lon="7.234057690948248"><ele></ele><time>2013-8-1T13:34:28Z</time></trkpt>
<trkpt lat="46.129091307520866" lon="7.234031036496162"><ele></ele><time>2013-8-1T13:34:31Z</time></trkpt>
<trkpt lat="46.12914050929248" lon="7.233908660709858"><ele></ele><time>2013-8-1T13:34:34Z</time></trkpt>
<trkpt lat="46.129146963357925" lon="7.233882928267121"><ele></ele><time>2013-8-1T13:34:37Z</time></trkpt>
<trkpt lat="46.129151321947575" lon="7.233856106176972"><ele></ele><time>2013-8-1T13:34:40Z</time></trkpt>
<trkpt lat="46.129155764356256" lon="7.233829367905855"><ele></ele><time>2013-8-1T13:34:43Z</time></trkpt>
<trkpt lat="46.129157273098826" lon="7.233800534158945"><ele></ele><time>2013-8-1T13:34:46Z</time></trkpt>
<trkpt lat="46.12916121259332" lon="7.233772873878479"><ele></ele><time>2013-8-1T13:34:49Z</time></trkpt>
<trkpt lat="46.12917177379131" lon="7.233715122565627"><ele></ele><time>2013-8-1T13:34:52Z</time></trkpt>
<trkpt lat="46.129207061603665" lon="7.233577826991677"><ele></ele><time>2013-8-1T13:34:55Z</time></trkpt>
<trkpt lat="46.129210917279124" lon="7.233548406511545"><ele></ele><time>2013-8-1T13:34:58Z</time></trkpt>
<trkpt lat="46.12921502441168" lon="7.233517561107874"><ele></ele><time>2013-8-1T13:35:1Z</time></trkpt>
<trkpt lat="46.12921888008714" lon="7.233487134799361"><ele></ele><time>2013-8-1T13:35:4Z</time></trkpt>
<trkpt lat="46.129224663600326" lon="7.233459558337927"><ele></ele><time>2013-8-1T13:35:7Z</time></trkpt>
<trkpt lat="46.12923790700734" lon="7.23339568823576"><ele></ele><time>2013-8-1T13:35:10Z</time></trkpt>
<trkpt lat="46.12926263362169" lon="7.2332554589957"><ele></ele><time>2013-8-1T13:35:13Z</time></trkpt>
<trkpt lat="46.129265651106834" lon="7.23322369158268"><ele></ele><time>2013-8-1T13:35:16Z</time></trkpt>
<trkpt lat="46.12926783040166" lon="7.233191002160311"><ele></ele><time>2013-8-1T13:35:19Z</time></trkpt>
<trkpt lat="46.12926850095391" lon="7.233155965805054"><ele></ele><time>2013-8-1T13:35:22Z</time></trkpt>
<trkpt lat="46.129273949190974" lon="7.233125539496541"><ele></ele><time>2013-8-1T13:35:25Z</time></trkpt>
<trkpt lat="46.129280403256416" lon="7.233094526454806"><ele></ele><time>2013-8-1T13:35:28Z</time></trkpt>
<trkpt lat="46.129317032173276" lon="7.232986316084862"><ele></ele><time>2013-8-1T13:35:31Z</time></trkpt>
<trkpt lat="46.129326755180955" lon="7.232963517308235"><ele></ele><time>2013-8-1T13:35:34Z</time></trkpt>
<trkpt lat="46.129334801808" lon="7.232938790693879"><ele></ele><time>2013-8-1T13:35:37Z</time></trkpt>
<trkpt lat="46.12934117205441" lon="7.232913561165333"><ele></ele><time>2013-8-1T13:35:40Z</time></trkpt>
<trkpt lat="46.12935005687177" lon="7.232890762388706"><ele></ele><time>2013-8-1T13:35:43Z</time></trkpt>
<trkpt lat="46.129360031336546" lon="7.232860503718257"><ele></ele><time>2013-8-1T13:35:46Z</time></trkpt>
<trkpt lat="46.12936707213521" lon="7.232828317210078"><ele></ele><time>2013-8-1T13:35:49Z</time></trkpt>
<trkpt lat="46.129373693838716" lon="7.23279663361609"><ele></ele><time>2013-8-1T13:35:52Z</time></trkpt>
<trkpt lat="46.12941627390683" lon="7.232553390786052"><ele></ele><time>2013-8-1T13:35:55Z</time></trkpt>
<trkpt lat="46.12942700274289" lon="7.232523215934634"><ele></ele><time>2013-8-1T13:35:58Z</time></trkpt>
<trkpt lat="46.129436725750566" lon="7.23249664530158"><ele></ele><time>2013-8-1T13:36:1Z</time></trkpt>
<trkpt lat="46.129446448758245" lon="7.232471751049161"><ele></ele><time>2013-8-1T13:36:4Z</time></trkpt>
<trkpt lat="46.129456758499146" lon="7.232445515692234"><ele></ele><time>2013-8-1T13:36:7Z</time></trkpt>
<trkpt lat="46.12946623004973" lon="7.232421459630132"><ele></ele><time>2013-8-1T13:36:10Z</time></trkpt>
<trkpt lat="46.129492381587625" lon="7.232325151562691"><ele></ele><time>2013-8-1T13:36:13Z</time></trkpt>
<trkpt lat="46.129496823996305" lon="7.232297658920288"><ele></ele><time>2013-8-1T13:36:16Z</time></trkpt>
<trkpt lat="46.129500176757574" lon="7.232269495725632"><ele></ele><time>2013-8-1T13:36:19Z</time></trkpt>
<trkpt lat="46.12950813956559" lon="7.232245188206434"><ele></ele><time>2013-8-1T13:36:22Z</time></trkpt>
<trkpt lat="46.129513420164585" lon="7.2322174441069365"><ele></ele><time>2013-8-1T13:36:25Z</time></trkpt>
<trkpt lat="46.12951853312552" lon="7.232188526540995"><ele></ele><time>2013-8-1T13:36:28Z</time></trkpt>
<trkpt lat="46.12952792085707" lon="7.23212867975235"><ele></ele><time>2013-8-1T13:36:31Z</time></trkpt>
<trkpt lat="46.12958198413253" lon="7.231936063617468"><ele></ele><time>2013-8-1T13:36:34Z</time></trkpt>
<trkpt lat="46.12958902493119" lon="7.231908235698938"><ele></ele><time>2013-8-1T13:36:37Z</time></trkpt>
<trkpt lat="46.129599083215" lon="7.231888119131327"><ele></ele><time>2013-8-1T13:36:40Z</time></trkpt>
<trkpt lat="46.129607213661075" lon="7.231866829097271"><ele></ele><time>2013-8-1T13:36:43Z</time></trkpt>
<trkpt lat="46.12961567938328" lon="7.231845203787088"><ele></ele><time>2013-8-1T13:36:46Z</time></trkpt>
<trkpt lat="46.12963143736124" lon="7.231794828549027"><ele></ele><time>2013-8-1T13:36:49Z</time></trkpt>
<trkpt lat="46.12964023835957" lon="7.231769934296608"><ele></ele><time>2013-8-1T13:36:52Z</time></trkpt>
<trkpt lat="46.1296456027776" lon="7.231741603463888"><ele></ele><time>2013-8-1T13:36:55Z</time></trkpt>
<trkpt lat="46.129660941660404" lon="7.231683852151036"><ele></ele><time>2013-8-1T13:36:58Z</time></trkpt>
<trkpt lat="46.129666808992624" lon="7.231654264032841"><ele></ele><time>2013-8-1T13:37:1Z</time></trkpt>
<trkpt lat="46.1296765320003" lon="7.231625430285931"><ele></ele><time>2013-8-1T13:37:4Z</time></trkpt>
<trkpt lat="46.12968407571316" lon="7.231596931815147"><ele></ele><time>2013-8-1T13:37:7Z</time></trkpt>
<trkpt lat="46.129688853397965" lon="7.231567511335015"><ele></ele><time>2013-8-1T13:37:10Z</time></trkpt>
<trkpt lat="46.12971902824938" lon="7.23145536147058"><ele></ele><time>2013-8-1T13:37:13Z</time></trkpt>
<trkpt lat="46.12972632050514" lon="7.2314296290278435"><ele></ele><time>2013-8-1T13:37:16Z</time></trkpt>
<trkpt lat="46.12976588308811" lon="7.231359556317329"><ele></ele><time>2013-8-1T13:37:19Z</time></trkpt>
<trkpt lat="46.129782646894455" lon="7.231343882158399"><ele></ele><time>2013-8-1T13:37:22Z</time></trkpt>
<trkpt lat="46.12979848869145" lon="7.231328627094626"><ele></ele><time>2013-8-1T13:37:25Z</time></trkpt>
<trkpt lat="46.12981718033552" lon="7.231315886601806"><ele></ele><time>2013-8-1T13:37:28Z</time></trkpt>
<trkpt lat="46.12983427941799" lon="7.231300715357065"><ele></ele><time>2013-8-1T13:37:31Z</time></trkpt>
<trkpt lat="46.12994525581598" lon="7.2312220092862844"><ele></ele><time>2013-8-1T13:37:34Z</time></trkpt>
<trkpt lat="46.12996134907007" lon="7.231208179146051"><ele></ele><time>2013-8-1T13:37:37Z</time></trkpt>
<trkpt lat="46.12998079508543" lon="7.231198959052563"><ele></ele><time>2013-8-1T13:37:40Z</time></trkpt>
<trkpt lat="46.12999454140663" lon="7.231179177761078"><ele></ele><time>2013-8-1T13:37:43Z</time></trkpt>
<trkpt lat="46.13001147285104" lon="7.231159312650561"><ele></ele><time>2013-8-1T13:37:46Z</time></trkpt>
<trkpt lat="46.13003854639828" lon="7.231103405356407"><ele></ele><time>2013-8-1T13:37:49Z</time></trkpt>
<trkpt lat="46.130049945786595" lon="7.231077924370766"><ele></ele><time>2013-8-1T13:37:52Z</time></trkpt>
<trkpt lat="46.13006302155554" lon="7.230882290750742"><ele></ele><time>2013-8-1T13:37:55Z</time></trkpt>
<trkpt lat="46.13006327301264" lon="7.230845578014851"><ele></ele><time>2013-8-1T13:37:58Z</time></trkpt>
<trkpt lat="46.13005765713751" lon="7.230811128392816"><ele></ele><time>2013-8-1T13:38:1Z</time></trkpt>
<trkpt lat="46.1300636921078" lon="7.2307799477130175"><ele></ele><time>2013-8-1T13:38:4Z</time></trkpt>
<trkpt lat="46.13006377592683" lon="7.230745833367109"><ele></ele><time>2013-8-1T13:38:7Z</time></trkpt>
<trkpt lat="46.13006109371781" lon="7.230689339339733"><ele></ele><time>2013-8-1T13:38:10Z</time></trkpt>
<trkpt lat="46.1300893407315" lon="7.230529161170125"><ele></ele><time>2013-8-1T13:38:13Z</time></trkpt>
<trkpt lat="46.13010099157691" lon="7.230502255260944"><ele></ele><time>2013-8-1T13:38:16Z</time></trkpt>
<trkpt lat="46.13011239096522" lon="7.230474343523383"><ele></ele><time>2013-8-1T13:38:19Z</time></trkpt>
<trkpt lat="46.13012446090579" lon="7.230447353795171"><ele></ele><time>2013-8-1T13:38:22Z</time></trkpt>
<trkpt lat="46.130193108692765" lon="7.2303110640496016"><ele></ele><time>2013-8-1T13:38:25Z</time></trkpt>
<trkpt lat="46.13020316697657" lon="7.2302845772355795"><ele></ele><time>2013-8-1T13:38:28Z</time></trkpt>
<trkpt lat="46.13021590746939" lon="7.230258174240589"><ele></ele><time>2013-8-1T13:38:31Z</time></trkpt>
<trkpt lat="46.13022554665804" lon="7.230231603607535"><ele></ele><time>2013-8-1T13:38:34Z</time></trkpt>
<trkpt lat="46.13023577257991" lon="7.230207547545433"><ele></ele><time>2013-8-1T13:38:37Z</time></trkpt>
<trkpt lat="46.13024717196822" lon="7.230182904750109"><ele></ele><time>2013-8-1T13:38:40Z</time></trkpt>
<trkpt lat="46.13026703707874" lon="7.230133283883333"><ele></ele><time>2013-8-1T13:38:43Z</time></trkpt>
<trkpt lat="46.13027382642031" lon="7.230106545612216"><ele></ele><time>2013-8-1T13:38:46Z</time></trkpt>
<trkpt lat="46.130280615761876" lon="7.230078047141433"><ele></ele><time>2013-8-1T13:38:49Z</time></trkpt>
<trkpt lat="46.13031070679426" lon="7.229958940297365"><ele></ele><time>2013-8-1T13:38:52Z</time></trkpt>
<trkpt lat="46.130314730107784" lon="7.2299353033304214"><ele></ele><time>2013-8-1T13:38:55Z</time></trkpt>
<trkpt lat="46.130320681259036" lon="7.22990638576448"><ele></ele><time>2013-8-1T13:38:58Z</time></trkpt>
<trkpt lat="46.130328895524144" lon="7.229879563674331"><ele></ele><time>2013-8-1T13:39:1Z</time></trkpt>
<trkpt lat="46.13033409230411" lon="7.229853747412562"><ele></ele><time>2013-8-1T13:39:4Z</time></trkpt>
<trkpt lat="46.13033786416054" lon="7.2296699322760105"><ele></ele><time>2013-8-1T13:39:7Z</time></trkpt>
<trkpt lat="46.130336439237" lon="7.229632381349802"><ele></ele><time>2013-8-1T13:39:10Z</time></trkpt>
<trkpt lat="46.13033509813249" lon="7.22959809936583"><ele></ele><time>2013-8-1T13:39:13Z</time></trkpt>
<trkpt lat="46.13033744506538" lon="7.229565158486366"><ele></ele><time>2013-8-1T13:39:16Z</time></trkpt>
<trkpt lat="46.13033702597022" lon="7.229532804340124"><ele></ele><time>2013-8-1T13:39:19Z</time></trkpt>
<trkpt lat="46.13034348003566" lon="7.229375978931785"><ele></ele><time>2013-8-1T13:39:22Z</time></trkpt>
<trkpt lat="46.130351945757866" lon="7.229318395256996"><ele></ele><time>2013-8-1T13:39:25Z</time></trkpt>
<trkpt lat="46.13035957328975" lon="7.229292411357164"><ele></ele><time>2013-8-1T13:39:28Z</time></trkpt>
<trkpt lat="46.13036669790745" lon="7.229267517104745"><ele></ele><time>2013-8-1T13:39:31Z</time></trkpt>
<trkpt lat="46.130372481420636" lon="7.229241952300072"><ele></ele><time>2013-8-1T13:39:34Z</time></trkpt>
<trkpt lat="46.1303795222193" lon="7.229216638952494"><ele></ele><time>2013-8-1T13:39:37Z</time></trkpt>
<trkpt lat="46.13038379698992" lon="7.2291852068156"><ele></ele><time>2013-8-1T13:39:40Z</time></trkpt>
<trkpt lat="46.13039771094918" lon="7.229127120226622"><ele></ele><time>2013-8-1T13:39:43Z</time></trkpt>
<trkpt lat="46.130432076752186" lon="7.22900683991611"><ele></ele><time>2013-8-1T13:39:46Z</time></trkpt>
<trkpt lat="46.13044540397823" lon="7.228974821045995"><ele></ele><time>2013-8-1T13:39:49Z</time></trkpt>
<trkpt lat="46.13046241924167" lon="7.228952776640654"><ele></ele><time>2013-8-1T13:39:52Z</time></trkpt>
<trkpt lat="46.130477003753185" lon="7.22893257625401"><ele></ele><time>2013-8-1T13:39:55Z</time></trkpt>
<trkpt lat="46.13049142062664" lon="7.228913884609938"><ele></ele><time>2013-8-1T13:39:58Z</time></trkpt>
<trkpt lat="46.1305039934814" lon="7.228892594575882"><ele></ele><time>2013-8-1T13:40:1Z</time></trkpt>
<trkpt lat="46.130537521094084" lon="7.228738032281399"><ele></ele><time>2013-8-1T13:40:4Z</time></trkpt>
<trkpt lat="46.13051002845168" lon="7.2286612540483475"><ele></ele><time>2013-8-1T13:40:7Z</time></trkpt>
<trkpt lat="46.13049142062664" lon="7.228650776669383"><ele></ele><time>2013-8-1T13:40:10Z</time></trkpt>
<trkpt lat="46.130468705669045" lon="7.228653123602271"><ele></ele><time>2013-8-1T13:40:13Z</time></trkpt>
<trkpt lat="46.130443224683404" lon="7.228672485798597"><ele></ele><time>2013-8-1T13:40:16Z</time></trkpt>
<trkpt lat="46.1304226052016" lon="7.22868874669075"><ele></ele><time>2013-8-1T13:40:19Z</time></trkpt>
<trkpt lat="46.13040818832815" lon="7.228714311495423"><ele></ele><time>2013-8-1T13:40:22Z</time></trkpt>
<trkpt lat="46.130348006263375" lon="7.228808356449008"><ele></ele><time>2013-8-1T13:40:25Z</time></trkpt>
<trkpt lat="46.13031414337456" lon="7.228849679231644"><ele></ele><time>2013-8-1T13:40:28Z</time></trkpt>
<trkpt lat="46.1303018219769" lon="7.228870801627636"><ele></ele><time>2013-8-1T13:40:31Z</time></trkpt>
<trkpt lat="46.13028748892248" lon="7.22889443859458"><ele></ele><time>2013-8-1T13:40:34Z</time></trkpt>
<trkpt lat="46.1302724853158" lon="7.228913297876716"><ele></ele><time>2013-8-1T13:40:37Z</time></trkpt>
<trkpt lat="46.130258152261376" lon="7.228934336453676"><ele></ele><time>2013-8-1T13:40:40Z</time></trkpt>
<trkpt lat="46.13024272955954" lon="7.2289525251835585"><ele></ele><time>2013-8-1T13:40:43Z</time></trkpt>
<trkpt lat="46.130229318514466" lon="7.228981107473373"><ele></ele><time>2013-8-1T13:40:46Z</time></trkpt>
<trkpt lat="46.130201825872064" lon="7.2290208376944065"><ele></ele><time>2013-8-1T13:40:49Z</time></trkpt>
<trkpt lat="46.13014407455921" lon="7.229110524058342"><ele></ele><time>2013-8-1T13:40:52Z</time></trkpt>
<trkpt lat="46.13012546673417" lon="7.229134328663349"><ele></ele><time>2013-8-1T13:40:55Z</time></trkpt>
<trkpt lat="46.13010970875621" lon="7.229155618697405"><ele></ele><time>2013-8-1T13:40:58Z</time></trkpt>
<trkpt lat="46.1300996504724" lon="7.229180848225951"><ele></ele><time>2013-8-1T13:41:1Z</time></trkpt>
<trkpt lat="46.13008204847574" lon="7.229205155745149"><ele></ele><time>2013-8-1T13:41:4Z</time></trkpt>
<trkpt lat="46.130067547783256" lon="7.229231307283044"><ele></ele><time>2013-8-1T13:41:7Z</time></trkpt>
<trkpt lat="46.129987416788936" lon="7.229359047487378"><ele></ele><time>2013-8-1T13:41:10Z</time></trkpt>
<trkpt lat="46.12994072958827" lon="7.2294228337705135"><ele></ele><time>2013-8-1T13:41:13Z</time></trkpt>
<trkpt lat="46.129911644384265" lon="7.229475975036621"><ele></ele><time>2013-8-1T13:41:16Z</time></trkpt>
<trkpt lat="46.129901837557554" lon="7.229506568983197"><ele></ele><time>2013-8-1T13:41:19Z</time></trkpt>
<trkpt lat="46.12988448701799" lon="7.229536408558488"><ele></ele><time>2013-8-1T13:41:22Z</time></trkpt>
<trkpt lat="46.1298699863255" lon="7.229562811553478"><ele></ele><time>2013-8-1T13:41:25Z</time></trkpt>
<trkpt lat="46.12985749728978" lon="7.229590807110071"><ele></ele><time>2013-8-1T13:41:28Z</time></trkpt>
<trkpt lat="46.129787089303136" lon="7.229725923389196"><ele></ele><time>2013-8-1T13:41:31Z</time></trkpt>
<trkpt lat="46.12975641153753" lon="7.229772191494703"><ele></ele><time>2013-8-1T13:41:34Z</time></trkpt>
<trkpt lat="46.1297439225018" lon="7.229792810976505"><ele></ele><time>2013-8-1T13:41:37Z</time></trkpt>
<trkpt lat="46.129738138988614" lon="7.229819633066654"><ele></ele><time>2013-8-1T13:41:40Z</time></trkpt>
<trkpt lat="46.12972321920097" lon="7.229835810139775"><ele></ele><time>2013-8-1T13:41:43Z</time></trkpt>
<trkpt lat="46.12971148453653" lon="7.229853328317404"><ele></ele><time>2013-8-1T13:41:46Z</time></trkpt>
<trkpt lat="46.1296802200377" lon="7.229886604472995"><ele></ele><time>2013-8-1T13:41:49Z</time></trkpt>
<trkpt lat="46.12959271296859" lon="7.229944355785847"><ele></ele><time>2013-8-1T13:41:52Z</time></trkpt>
<trkpt lat="46.12957167439163" lon="7.229953659698367"><ele></ele><time>2013-8-1T13:41:55Z</time></trkpt>
<trkpt lat="46.12955038435757" lon="7.229964304715395"><ele></ele><time>2013-8-1T13:41:58Z</time></trkpt>
<trkpt lat="46.12953068688512" lon="7.229976039379835"><ele></ele><time>2013-8-1T13:42:1Z</time></trkpt>
<trkpt lat="46.12951157614589" lon="7.229992048814893"><ele></ele><time>2013-8-1T13:42:4Z</time></trkpt>
<trkpt lat="46.129492381587625" lon="7.230002610012889"><ele></ele><time>2013-8-1T13:42:7Z</time></trkpt>
<trkpt lat="46.12941786646843" lon="7.230055248364806"><ele></ele><time>2013-8-1T13:42:10Z</time></trkpt>
<trkpt lat="46.129385009408" lon="7.230098247528076"><ele></ele><time>2013-8-1T13:42:13Z</time></trkpt>
<trkpt lat="46.12936673685908" lon="7.2301194537431"><ele></ele><time>2013-8-1T13:42:16Z</time></trkpt>
<trkpt lat="46.12934905104339" lon="7.230142755433917"><ele></ele><time>2013-8-1T13:42:19Z</time></trkpt>
<trkpt lat="46.129332622513175" lon="7.230161111801863"><ele></ele><time>2013-8-1T13:42:22Z</time></trkpt>
<trkpt lat="46.12931627780199" lon="7.230186844244599"><ele></ele><time>2013-8-1T13:42:25Z</time></trkpt>
<trkpt lat="46.12929783761501" lon="7.230207966640592"><ele></ele><time>2013-8-1T13:42:28Z</time></trkpt>
<trkpt lat="46.12920236773789" lon="7.230323469266295"><ele></ele><time>2013-8-1T13:42:31Z</time></trkpt>
<trkpt lat="46.1291862744838" lon="7.2303464356809855"><ele></ele><time>2013-8-1T13:42:34Z</time></trkpt>
<trkpt lat="46.12917051650584" lon="7.2303682286292315"><ele></ele><time>2013-8-1T13:42:37Z</time></trkpt>
<trkpt lat="46.129151405766606" lon="7.230385160073638"><ele></ele><time>2013-8-1T13:42:40Z</time></trkpt>
<trkpt lat="46.12907588481903" lon="7.2304662968963385"><ele></ele><time>2013-8-1T13:42:43Z</time></trkpt>
<trkpt lat="46.12905828282237" lon="7.230489179491997"><ele></ele><time>2013-8-1T13:42:46Z</time></trkpt>
<trkpt lat="46.12900271080434" lon="7.2305460087955"><ele></ele><time>2013-8-1T13:42:49Z</time></trkpt>
<trkpt lat="46.128985192626715" lon="7.2305667120963335"><ele></ele><time>2013-8-1T13:42:52Z</time></trkpt>
<trkpt lat="46.128967590630054" lon="7.23058607429266"><ele></ele><time>2013-8-1T13:42:55Z</time></trkpt>
<trkpt lat="46.12894923426211" lon="7.230607196688652"><ele></ele><time>2013-8-1T13:42:58Z</time></trkpt>
<trkpt lat="46.128930542618036" lon="7.230624966323376"><ele></ele><time>2013-8-1T13:43:1Z</time></trkpt>
<trkpt lat="46.12889600917697" lon="7.230666875839233"><ele></ele><time>2013-8-1T13:43:4Z</time></trkpt>
<trkpt lat="46.128879161551595" lon="7.230688584968448"><ele></ele><time>2013-8-1T13:43:7Z</time></trkpt>
<trkpt lat="46.128862565383315" lon="7.230710629373789"><ele></ele><time>2013-8-1T13:43:10Z</time></trkpt>
<trkpt lat="46.12884722650051" lon="7.2307319194078445"><ele></ele><time>2013-8-1T13:43:13Z</time></trkpt>
<trkpt lat="46.12882032059133" lon="7.230776594951749"><ele></ele><time>2013-8-1T13:43:16Z</time></trkpt>
<trkpt lat="46.12880523316562" lon="7.2308050096035"><ele></ele><time>2013-8-1T13:43:19Z</time></trkpt>
<trkpt lat="46.12879048101604" lon="7.230828898027539"><ele></ele><time>2013-8-1T13:43:22Z</time></trkpt>
<trkpt lat="46.12877815961838" lon="7.230854881927371"><ele></ele><time>2013-8-1T13:43:25Z</time></trkpt>
<trkpt lat="46.12876650877297" lon="7.230881452560425"><ele></ele><time>2013-8-1T13:43:28Z</time></trkpt>
<trkpt lat="46.12868294119835" lon="7.2310335002839565"><ele></ele><time>2013-8-1T13:43:31Z</time></trkpt>
<trkpt lat="46.128669530153275" lon="7.231056299060583"><ele></ele><time>2013-8-1T13:43:34Z</time></trkpt>
<trkpt lat="46.12865662202239" lon="7.231079936027527"><ele></ele><time>2013-8-1T13:43:37Z</time></trkpt>
<trkpt lat="46.12864036113024" lon="7.2311055008322"><ele></ele><time>2013-8-1T13:43:40Z</time></trkpt>
<trkpt lat="46.12862301059067" lon="7.231122851371765"><ele></ele><time>2013-8-1T13:43:43Z</time></trkpt>
<trkpt lat="46.128536676988006" lon="7.2312140464782715"><ele></ele><time>2013-8-1T13:43:46Z</time></trkpt>
<trkpt lat="46.12850373610854" lon="7.231252016499639"><ele></ele><time>2013-8-1T13:43:49Z</time></trkpt>
<trkpt lat="46.12848764285445" lon="7.231271965429187"><ele></ele><time>2013-8-1T13:43:52Z</time></trkpt>
<trkpt lat="46.12846744246781" lon="7.231285627931356"><ele></ele><time>2013-8-1T13:43:55Z</time></trkpt>
<trkpt lat="46.128445817157626" lon="7.231304403394461"><ele></ele><time>2013-8-1T13:43:58Z</time></trkpt>
<trkpt lat="46.12842494621873" lon="7.231318568810821"><ele></ele><time>2013-8-1T13:44:1Z</time></trkpt>
<trkpt lat="46.128383707255125" lon="7.2313448041677475"><ele></ele><time>2013-8-1T13:44:4Z</time></trkpt>
<trkpt lat="46.12828932702541" lon="7.2313878033310175"><ele></ele><time>2013-8-1T13:44:7Z</time></trkpt>
<trkpt lat="46.12826912663877" lon="7.23139232955873"><ele></ele><time>2013-8-1T13:44:10Z</time></trkpt>
<trkpt lat="46.128243980929255" lon="7.23139283247292"><ele></ele><time>2013-8-1T13:44:13Z</time></trkpt>
<trkpt lat="46.12822042778134" lon="7.2313895635306835"><ele></ele><time>2013-8-1T13:44:16Z</time></trkpt>
<trkpt lat="46.12820039503276" lon="7.231386126950383"><ele></ele><time>2013-8-1T13:44:19Z</time></trkpt>
<trkpt lat="46.12810945138335" lon="7.231392497196794"><ele></ele><time>2013-8-1T13:44:22Z</time></trkpt>
<trkpt lat="46.12805471755564" lon="7.231426946818829"><ele></ele><time>2013-8-1T13:44:25Z</time></trkpt>
<trkpt lat="46.128039211034775" lon="7.231442034244537"><ele></ele><time>2013-8-1T13:44:28Z</time></trkpt>
<trkpt lat="46.12802496179938" lon="7.231458462774754"><ele></ele><time>2013-8-1T13:44:31Z</time></trkpt>
<trkpt lat="46.128009874373674" lon="7.2314767353236675"><ele></ele><time>2013-8-1T13:44:34Z</time></trkpt>
<trkpt lat="46.12799679860473" lon="7.2314932476729155"><ele></ele><time>2013-8-1T13:44:37Z</time></trkpt>
<trkpt lat="46.127912141382694" lon="7.231575893238187"><ele></ele><time>2013-8-1T13:44:40Z</time></trkpt>
<trkpt lat="46.1278928630054" lon="7.2315810061991215"><ele></ele><time>2013-8-1T13:44:43Z</time></trkpt>
<trkpt lat="46.12787333317101" lon="7.23159022629261"><ele></ele><time>2013-8-1T13:44:46Z</time></trkpt>
<trkpt lat="46.12785380333662" lon="7.231598440557718"><ele></ele><time>2013-8-1T13:44:49Z</time></trkpt>
<trkpt lat="46.12783226184547" lon="7.231602882966399"><ele></ele><time>2013-8-1T13:44:52Z</time></trkpt>
<trkpt lat="46.12772271037102" lon="7.231653593480587"><ele></ele><time>2013-8-1T13:44:55Z</time></trkpt>
<trkpt lat="46.12767149694264" lon="7.231693072244525"><ele></ele><time>2013-8-1T13:44:58Z</time></trkpt>
<trkpt lat="46.12765481695533" lon="7.231709081679583"><ele></ele><time>2013-8-1T13:45:1Z</time></trkpt>
<trkpt lat="46.12763931043446" lon="7.231724169105291"><ele></ele><time>2013-8-1T13:45:4Z</time></trkpt>
<trkpt lat="46.12762615084648" lon="7.231740849092603"><ele></ele><time>2013-8-1T13:45:7Z</time></trkpt>
<trkpt lat="46.12760846503079" lon="7.231759876012802"><ele></ele><time>2013-8-1T13:45:10Z</time></trkpt>
<trkpt lat="46.12750872038305" lon="7.231866242364049"><ele></ele><time>2013-8-1T13:45:13Z</time></trkpt>
<trkpt lat="46.127489525824785" lon="7.231879318132997"><ele></ele><time>2013-8-1T13:45:16Z</time></trkpt>
<trkpt lat="46.1274679005146" lon="7.231891639530659"><ele></ele><time>2013-8-1T13:45:19Z</time></trkpt>
<trkpt lat="46.12744837068021" lon="7.231905721127987"><ele></ele><time>2013-8-1T13:45:22Z</time></trkpt>
<trkpt lat="46.12733697518706" lon="7.231989875435829"><ele></ele><time>2013-8-1T13:45:25Z</time></trkpt>
<trkpt lat="46.1273193731904" lon="7.23200554959476"><ele></ele><time>2013-8-1T13:45:28Z</time></trkpt>
<trkpt lat="46.12730277702212" lon="7.2320242412388325"><ele></ele><time>2013-8-1T13:45:31Z</time></trkpt>
<trkpt lat="46.12728701904416" lon="7.2320454474538565"><ele></ele><time>2013-8-1T13:45:34Z</time></trkpt>
<trkpt lat="46.12727050669491" lon="7.232064558193088"><ele></ele><time>2013-8-1T13:45:37Z</time></trkpt>
<trkpt lat="46.12725458107889" lon="7.23208375275135"><ele></ele><time>2013-8-1T13:45:40Z</time></trkpt>
<trkpt lat="46.12720973789692" lon="7.232144270092249"><ele></ele><time>2013-8-1T13:45:43Z</time></trkpt>
<trkpt lat="46.127166571095586" lon="7.2322106547653675"><ele></ele><time>2013-8-1T13:45:46Z</time></trkpt>
<trkpt lat="46.12715056166053" lon="7.232231106609106"><ele></ele><time>2013-8-1T13:45:49Z</time></trkpt>
<trkpt lat="46.12713019363582" lon="7.232250636443496"><ele></ele><time>2013-8-1T13:45:52Z</time></trkpt>
<trkpt lat="46.12711108289659" lon="7.232269328087568"><ele></ele><time>2013-8-1T13:45:55Z</time></trkpt>
<trkpt lat="46.127093732357025" lon="7.232285421341658"><ele></ele><time>2013-8-1T13:45:58Z</time></trkpt>
<trkpt lat="46.12693129107356" lon="7.232396397739649"><ele></ele><time>2013-8-1T13:46:1Z</time></trkpt>
<trkpt lat="46.12691377289593" lon="7.23241257481277"><ele></ele><time>2013-8-1T13:46:4Z</time></trkpt>
<trkpt lat="46.126894410699606" lon="7.232428081333637"><ele></ele><time>2013-8-1T13:46:7Z</time></trkpt>
<trkpt lat="46.12687462940812" lon="7.232440738007426"><ele></ele><time>2013-8-1T13:46:10Z</time></trkpt>
<trkpt lat="46.12685308791697" lon="7.232452807947993"><ele></ele><time>2013-8-1T13:46:13Z</time></trkpt>
<trkpt lat="46.12683263607323" lon="7.232467057183385"><ele></ele><time>2013-8-1T13:46:16Z</time></trkpt>
<trkpt lat="46.126811848953366" lon="7.232481725513935"><ele></ele><time>2013-8-1T13:46:19Z</time></trkpt>
<trkpt lat="46.126790726557374" lon="7.2324951365590096"><ele></ele><time>2013-8-1T13:46:22Z</time></trkpt>
<trkpt lat="46.12667949870229" lon="7.232537465170026"><ele></ele><time>2013-8-1T13:46:25Z</time></trkpt>
<trkpt lat="46.12665669992566" lon="7.232546517625451"><ele></ele><time>2013-8-1T13:46:28Z</time></trkpt>
<trkpt lat="46.126635409891605" lon="7.232553223147988"><ele></ele><time>2013-8-1T13:46:31Z</time></trkpt>
<trkpt lat="46.1266147904098" lon="7.232559509575367"><ele></ele><time>2013-8-1T13:46:34Z</time></trkpt>
<trkpt lat="46.12659509293735" lon="7.232563868165016"><ele></ele><time>2013-8-1T13:46:37Z</time></trkpt>
<trkpt lat="46.12646508961916" lon="7.232553390786052"><ele></ele><time>2013-8-1T13:46:40Z</time></trkpt>
<trkpt lat="46.126397363841534" lon="7.232537465170026"><ele></ele><time>2013-8-1T13:46:43Z</time></trkpt>
<trkpt lat="46.126374984160066" lon="7.232532519847155"><ele></ele><time>2013-8-1T13:46:46Z</time></trkpt>
<trkpt lat="46.1263523530215" lon="7.232526987791061"><ele></ele><time>2013-8-1T13:46:49Z</time></trkpt>
<trkpt lat="46.126329554244876" lon="7.232522713020444"><ele></ele><time>2013-8-1T13:46:52Z</time></trkpt>
<trkpt lat="46.12630717456341" lon="7.232520366087556"><ele></ele><time>2013-8-1T13:46:55Z</time></trkpt>
<trkpt lat="46.12628638744354" lon="7.232521539554"><ele></ele><time>2013-8-1T13:46:58Z</time></trkpt>
<trkpt lat="46.126247411593795" lon="7.232527155429125"><ele></ele><time>2013-8-1T13:47:1Z</time></trkpt>
<trkpt lat="46.12616661004722" lon="7.232552049681544"><ele></ele><time>2013-8-1T13:47:4Z</time></trkpt>
<trkpt lat="46.12614741548896" lon="7.232561772689223"><ele></ele><time>2013-8-1T13:47:7Z</time></trkpt>
<trkpt lat="46.12612545490265" lon="7.23257384262979"><ele></ele><time>2013-8-1T13:47:10Z</time></trkpt>
<trkpt lat="46.126104751601815" lon="7.232585912570357"><ele></ele><time>2013-8-1T13:47:13Z</time></trkpt>
<trkpt lat="46.12608505412936" lon="7.232597479596734"><ele></ele><time>2013-8-1T13:47:16Z</time></trkpt>
<trkpt lat="46.12598732113838" lon="7.232653554528952"><ele></ele><time>2013-8-1T13:47:19Z</time></trkpt>
<trkpt lat="46.12596930004656" lon="7.232665792107582"><ele></ele><time>2013-8-1T13:47:22Z</time></trkpt>
<trkpt lat="46.12595044076443" lon="7.23267643712461"><ele></ele><time>2013-8-1T13:47:25Z</time></trkpt>
<trkpt lat="46.12593116238713" lon="7.232684986665845"><ele></ele><time>2013-8-1T13:47:28Z</time></trkpt>
<trkpt lat="46.12591112963855" lon="7.232694961130619"><ele></ele><time>2013-8-1T13:47:31Z</time></trkpt>
<trkpt lat="46.125766960904" lon="7.232807110995054"><ele></ele><time>2013-8-1T13:47:34Z</time></trkpt>
<trkpt lat="46.12574885599315" lon="7.232822114601731"><ele></ele><time>2013-8-1T13:47:37Z</time></trkpt>
<trkpt lat="46.12571373581886" lon="7.232860419899225"><ele></ele><time>2013-8-1T13:47:40Z</time></trkpt>
<trkpt lat="46.12569563090801" lon="7.232878440991044"><ele></ele><time>2013-8-1T13:47:43Z</time></trkpt>
<trkpt lat="46.12567727454007" lon="7.232894450426102"><ele></ele><time>2013-8-1T13:47:46Z</time></trkpt>
<trkpt lat="46.12565925344825" lon="7.232912303879857"><ele></ele><time>2013-8-1T13:47:49Z</time></trkpt>
<trkpt lat="46.12563779577613" lon="7.232932588085532"><ele></ele><time>2013-8-1T13:47:52Z</time></trkpt>
<trkpt lat="46.12561625428498" lon="7.232954716309905"><ele></ele><time>2013-8-1T13:47:55Z</time></trkpt>
<trkpt lat="46.12551751546562" lon="7.23302093334496"><ele></ele><time>2013-8-1T13:47:58Z</time></trkpt>
<trkpt lat="46.125498404726386" lon="7.2330282256007195"><ele></ele><time>2013-8-1T13:48:1Z</time></trkpt>
<trkpt lat="46.12547812052071" lon="7.2330352663993835"><ele></ele><time>2013-8-1T13:48:4Z</time></trkpt>
<trkpt lat="46.12545758485794" lon="7.2330402955412865"><ele></ele><time>2013-8-1T13:48:7Z</time></trkpt>
<trkpt lat="46.125435875728726" lon="7.23304339684546"><ele></ele><time>2013-8-1T13:48:10Z</time></trkpt>
<trkpt lat="46.125330766662955" lon="7.233046581968665"><ele></ele><time>2013-8-1T13:48:13Z</time></trkpt>
<trkpt lat="46.1252782959491" lon="7.233037864789367"><ele></ele><time>2013-8-1T13:48:16Z</time></trkpt>
<trkpt lat="46.12526220269501" lon="7.233036020770669"><ele></ele><time>2013-8-1T13:48:19Z</time></trkpt>
<trkpt lat="46.12524434924126" lon="7.233036775141954"><ele></ele><time>2013-8-1T13:48:22Z</time></trkpt>
<trkpt lat="46.12522691488266" lon="7.233038786798716"><ele></ele><time>2013-8-1T13:48:25Z</time></trkpt>
<trkpt lat="46.12520788796246" lon="7.23304339684546"><ele></ele><time>2013-8-1T13:48:28Z</time></trkpt>
<trkpt lat="46.125021390616894" lon="7.233107266947627"><ele></ele><time>2013-8-1T13:48:31Z</time></trkpt>
<trkpt lat="46.12500068731606" lon="7.233127718791366"><ele></ele><time>2013-8-1T13:48:34Z</time></trkpt>
<trkpt lat="46.12498199567199" lon="7.2331510204821825"><ele></ele><time>2013-8-1T13:48:37Z</time></trkpt>
<trkpt lat="46.12496305257082" lon="7.233177172020078"><ele></ele><time>2013-8-1T13:48:40Z</time></trkpt>
<trkpt lat="46.124946204945445" lon="7.23319829441607"><ele></ele><time>2013-8-1T13:48:43Z</time></trkpt>
<trkpt lat="46.12491217441857" lon="7.233237521722913"><ele></ele><time>2013-8-1T13:48:46Z</time></trkpt>
<trkpt lat="46.12482667900622" lon="7.233328800648451"><ele></ele><time>2013-8-1T13:48:49Z</time></trkpt>
<trkpt lat="46.12480589188635" lon="7.233343804255128"><ele></ele><time>2013-8-1T13:48:52Z</time></trkpt>
<trkpt lat="46.12478426657617" lon="7.233357215300202"><ele></ele><time>2013-8-1T13:48:55Z</time></trkpt>
<trkpt lat="46.12476306036115" lon="7.233370458707213"><ele></ele><time>2013-8-1T13:48:58Z</time></trkpt>
<trkpt lat="46.12474302761257" lon="7.233384205028415"><ele></ele><time>2013-8-1T13:49:1Z</time></trkpt>
<trkpt lat="46.12472232431173" lon="7.233395939692855"><ele></ele><time>2013-8-1T13:49:4Z</time></trkpt>
<trkpt lat="46.12469927407801" lon="7.233407171443105"><ele></ele><time>2013-8-1T13:49:7Z</time></trkpt>
<trkpt lat="46.124634901061654" lon="7.2334463987499475"><ele></ele><time>2013-8-1T13:49:10Z</time></trkpt>
<trkpt lat="46.124575808644295" lon="7.2334967739880085"><ele></ele><time>2013-8-1T13:49:13Z</time></trkpt>
<trkpt lat="46.12455619499087" lon="7.233513286337256"><ele></ele><time>2013-8-1T13:49:16Z</time></trkpt>
<trkpt lat="46.12453557550907" lon="7.233535079285502"><ele></ele><time>2013-8-1T13:49:19Z</time></trkpt>
<trkpt lat="46.12451537512243" lon="7.233555112034082"><ele></ele><time>2013-8-1T13:49:22Z</time></trkpt>
<trkpt lat="46.124497605487704" lon="7.2335748095065355"><ele></ele><time>2013-8-1T13:49:25Z</time></trkpt>
<trkpt lat="46.124479500576854" lon="7.233595177531242"><ele></ele><time>2013-8-1T13:49:28Z</time></trkpt>
<trkpt lat="46.12446206621826" lon="7.233615545555949"><ele></ele><time>2013-8-1T13:49:31Z</time></trkpt>
<trkpt lat="46.12436592578888" lon="7.233728533610702"><ele></ele><time>2013-8-1T13:49:34Z</time></trkpt>
<trkpt lat="46.124347569420934" lon="7.233746973797679"><ele></ele><time>2013-8-1T13:49:37Z</time></trkpt>
<trkpt lat="46.12432778812945" lon="7.2337597142905"><ele></ele><time>2013-8-1T13:49:40Z</time></trkpt>
<trkpt lat="46.12430633045733" lon="7.233772035688162"><ele></ele><time>2013-8-1T13:49:43Z</time></trkpt>
<trkpt lat="46.1242835316807" lon="7.233789386227727"><ele></ele><time>2013-8-1T13:49:46Z</time></trkpt>
<trkpt lat="46.124242544174194" lon="7.233818639069796"><ele></ele><time>2013-8-1T13:49:49Z</time></trkpt>
<trkpt lat="46.12418814562261" lon="7.233786201104522"><ele></ele><time>2013-8-1T13:49:52Z</time></trkpt>
<trkpt lat="46.1241817753762" lon="7.233762312680483"><ele></ele><time>2013-8-1T13:49:55Z</time></trkpt>
<trkpt lat="46.12418470904231" lon="7.233735239133239"><ele></ele><time>2013-8-1T13:49:58Z</time></trkpt>
<trkpt lat="46.124194180592895" lon="7.2337049804627895"><ele></ele><time>2013-8-1T13:50:1Z</time></trkpt>
<trkpt lat="46.1242095194757" lon="7.233680924400687"><ele></ele><time>2013-8-1T13:50:4Z</time></trkpt>
<trkpt lat="46.12422863021493" lon="7.23365762270987"><ele></ele><time>2013-8-1T13:50:7Z</time></trkpt>
<trkpt lat="46.12424958497286" lon="7.233636332675815"><ele></ele><time>2013-8-1T13:50:10Z</time></trkpt>
<trkpt lat="46.12428889609873" lon="7.233586711809039"><ele></ele><time>2013-8-1T13:50:13Z</time></trkpt>
<trkpt lat="46.12430725246668" lon="7.233563074842095"><ele></ele><time>2013-8-1T13:50:16Z</time></trkpt>
<trkpt lat="46.12432636320591" lon="7.233539940789342"><ele></ele><time>2013-8-1T13:50:19Z</time></trkpt>
<trkpt lat="46.124358884990215" lon="7.233487721532583"><ele></ele><time>2013-8-1T13:50:22Z</time></trkpt>
<trkpt lat="46.124370619654655" lon="7.23346215672791"><ele></ele><time>2013-8-1T13:50:25Z</time></trkpt>
<trkpt lat="46.12438168376684" lon="7.233435921370983"><ele></ele><time>2013-8-1T13:50:28Z</time></trkpt>
<trkpt lat="46.124395513907075" lon="7.2334101889282465"><ele></ele><time>2013-8-1T13:50:31Z</time></trkpt>
<trkpt lat="46.12441026605666" lon="7.233386971056461"><ele></ele><time>2013-8-1T13:50:34Z</time></trkpt>
<trkpt lat="46.124435160309076" lon="7.2333331592381"><ele></ele><time>2013-8-1T13:50:37Z</time></trkpt>
<trkpt lat="46.12445385195315" lon="7.233276162296534"><ele></ele><time>2013-8-1T13:50:40Z</time></trkpt>
<trkpt lat="46.12446416169405" lon="7.233245233073831"><ele></ele><time>2013-8-1T13:50:43Z</time></trkpt>
<trkpt lat="46.12449400126934" lon="7.2331583965569735"><ele></ele><time>2013-8-1T13:50:46Z</time></trkpt>
<trkpt lat="46.12450330518186" lon="7.233130903914571"><ele></ele><time>2013-8-1T13:50:49Z</time></trkpt>
<trkpt lat="46.12451059743762" lon="7.233103578910232"><ele></ele><time>2013-8-1T13:50:52Z</time></trkpt>
<trkpt lat="46.12451830878854" lon="7.2330759186297655"><ele></ele><time>2013-8-1T13:50:55Z</time></trkpt>
<trkpt lat="46.12452384084463" lon="7.233048677444458"><ele></ele><time>2013-8-1T13:50:58Z</time></trkpt>
<trkpt lat="46.12452828325331" lon="7.232994446530938"><ele></ele><time>2013-8-1T13:51:1Z</time></trkpt>
<trkpt lat="46.12452392466366" lon="7.232932923361659"><ele></ele><time>2013-8-1T13:51:4Z</time></trkpt>
<trkpt lat="46.124514201655984" lon="7.232834855094552"><ele></ele><time>2013-8-1T13:51:7Z</time></trkpt>
<trkpt lat="46.124510848894715" lon="7.232803925871849"><ele></ele><time>2013-8-1T13:51:10Z</time></trkpt>
<trkpt lat="46.124508921056986" lon="7.232774505391717"><ele></ele><time>2013-8-1T13:51:13Z</time></trkpt>
<trkpt lat="46.12451151944697" lon="7.232746845111251"><ele></ele><time>2013-8-1T13:51:16Z</time></trkpt>
<trkpt lat="46.12451562657952" lon="7.2327192686498165"><ele></ele><time>2013-8-1T13:51:19Z</time></trkpt>
<trkpt lat="46.12454571761191" lon="7.23261047154665"><ele></ele><time>2013-8-1T13:51:22Z</time></trkpt>
<trkpt lat="46.12455518916249" lon="7.23258264362812"><ele></ele><time>2013-8-1T13:51:25Z</time></trkpt>
<trkpt lat="46.12457849085331" lon="7.232534531503916"><ele></ele><time>2013-8-1T13:51:28Z</time></trkpt>
<trkpt lat="46.12459081225097" lon="7.232509972527623"><ele></ele><time>2013-8-1T13:51:31Z</time></trkpt>
<trkpt lat="46.124603636562824" lon="7.232487760484219"><ele></ele><time>2013-8-1T13:51:34Z</time></trkpt>
<trkpt lat="46.12461721524596" lon="7.232465632259846"><ele></ele><time>2013-8-1T13:51:37Z</time></trkpt>
<trkpt lat="46.12463280558586" lon="7.232445180416107"><ele></ele><time>2013-8-1T13:51:40Z</time></trkpt>
<trkpt lat="46.12471293658018" lon="7.23233487457037"><ele></ele><time>2013-8-1T13:51:43Z</time></trkpt>
<trkpt lat="46.124745793640614" lon="7.232298664748669"><ele></ele><time>2013-8-1T13:51:46Z</time></trkpt>
<trkpt lat="46.12476163543761" lon="7.232284415513277"><ele></ele><time>2013-8-1T13:51:49Z</time></trkpt>
<trkpt lat="46.124777561053634" lon="7.232272764667869"><ele></ele><time>2013-8-1T13:51:52Z</time></trkpt>
<trkpt lat="46.12479407340288" lon="7.232262119650841"><ele></ele><time>2013-8-1T13:51:55Z</time></trkpt>
<trkpt lat="46.12480857409537" lon="7.232247283682227"><ele></ele><time>2013-8-1T13:51:58Z</time></trkpt>
<trkpt lat="46.124838246032596" lon="7.232209062203765"><ele></ele><time>2013-8-1T13:52:1Z</time></trkpt>
<trkpt lat="46.12489524297416" lon="7.2321217227727175"><ele></ele><time>2013-8-1T13:52:4Z</time></trkpt>
<trkpt lat="46.12490848638117" lon="7.232098923996091"><ele></ele><time>2013-8-1T13:52:7Z</time></trkpt>
<trkpt lat="46.12492038868368" lon="7.2320775501430035"><ele></ele><time>2013-8-1T13:52:10Z</time></trkpt>
<trkpt lat="46.12493212334812" lon="7.232052404433489"><ele></ele><time>2013-8-1T13:52:13Z</time></trkpt>
<trkpt lat="46.12494561821222" lon="7.232028851285577"><ele></ele><time>2013-8-1T13:52:16Z</time></trkpt>
<trkpt lat="46.124970093369484" lon="7.2319806553423405"><ele></ele><time>2013-8-1T13:52:19Z</time></trkpt>
<trkpt lat="46.12503387965262" lon="7.231847969815135"><ele></ele><time>2013-8-1T13:52:22Z</time></trkpt>
<trkpt lat="46.125043435022235" lon="7.231818800792098"><ele></ele><time>2013-8-1T13:52:25Z</time></trkpt>
<trkpt lat="46.12505198456347" lon="7.231788877397776"><ele></ele><time>2013-8-1T13:52:28Z</time></trkpt>
<trkpt lat="46.12506212666631" lon="7.231758954003453"><ele></ele><time>2013-8-1T13:52:31Z</time></trkpt>
<trkpt lat="46.125081991776824" lon="7.231670692563057"><ele></ele><time>2013-8-1T13:52:34Z</time></trkpt>
<trkpt lat="46.12505927681923" lon="7.231615874916315"><ele></ele><time>2013-8-1T13:52:37Z</time></trkpt>
<trkpt lat="46.12500110641122" lon="7.2316142823547125"><ele></ele><time>2013-8-1T13:52:40Z</time></trkpt>
<trkpt lat="46.12498316913843" lon="7.231629369780421"><ele></ele><time>2013-8-1T13:52:43Z</time></trkpt>
<trkpt lat="46.12496548332274" lon="7.231647642329335"><ele></ele><time>2013-8-1T13:52:46Z</time></trkpt>
<trkpt lat="46.124947629868984" lon="7.2316699381917715"><ele></ele><time>2013-8-1T13:52:49Z</time></trkpt>
<trkpt lat="46.12492734566331" lon="7.231694245710969"><ele></ele><time>2013-8-1T13:52:52Z</time></trkpt>
<trkpt lat="46.12482324242592" lon="7.231774292886257"><ele></ele><time>2013-8-1T13:52:55Z</time></trkpt>
<trkpt lat="46.12464697100222" lon="7.231839084997773"><ele></ele><time>2013-8-1T13:52:58Z</time></trkpt>
<trkpt lat="46.12462886609137" lon="7.2318510711193085"><ele></ele><time>2013-8-1T13:53:1Z</time></trkpt>
<trkpt lat="46.124612521380186" lon="7.231855345889926"><ele></ele><time>2013-8-1T13:53:4Z</time></trkpt>
<trkpt lat="46.12459030933678" lon="7.2318602073937654"><ele></ele><time>2013-8-1T13:53:7Z</time></trkpt>
<trkpt lat="46.12455049529672" lon="7.231891974806786"><ele></ele><time>2013-8-1T13:53:10Z</time></trkpt>
<trkpt lat="46.12439760938287" lon="7.232052404433489"><ele></ele><time>2013-8-1T13:53:13Z</time></trkpt>
<trkpt lat="46.12437774427235" lon="7.232070928439498"><ele></ele><time>2013-8-1T13:53:16Z</time></trkpt>
<trkpt lat="46.12435813061893" lon="7.232090625911951"><ele></ele><time>2013-8-1T13:53:19Z</time></trkpt>
<trkpt lat="46.12433818168938" lon="7.2321102395653725"><ele></ele><time>2013-8-1T13:53:22Z</time></trkpt>
<trkpt lat="46.124318316578865" lon="7.23212675191462"><ele></ele><time>2013-8-1T13:53:25Z</time></trkpt>
<trkpt lat="46.12420507706702" lon="7.232180731371045"><ele></ele><time>2013-8-1T13:53:28Z</time></trkpt>
<trkpt lat="46.124182445928454" lon="7.232185257598758"><ele></ele><time>2013-8-1T13:53:31Z</time></trkpt>
<trkpt lat="46.12416031770408" lon="7.232189197093248"><ele></ele><time>2013-8-1T13:53:34Z</time></trkpt>
<trkpt lat="46.12413793802261" lon="7.232191544026136"><ele></ele><time>2013-8-1T13:53:37Z</time></trkpt>
<trkpt lat="46.124113630503416" lon="7.232194477692246"><ele></ele><time>2013-8-1T13:53:40Z</time></trkpt>
<trkpt lat="46.1240401212126" lon="7.232181234285235"><ele></ele><time>2013-8-1T13:53:43Z</time></trkpt>
<trkpt lat="46.12389435991645" lon="7.232157681137323"><ele></ele><time>2013-8-1T13:53:46Z</time></trkpt>
<trkpt lat="46.1238691303879" lon="7.232155837118626"><ele></ele><time>2013-8-1T13:53:49Z</time></trkpt>
<trkpt lat="46.12384448759258" lon="7.232152903452516"><ele></ele><time>2013-8-1T13:53:52Z</time></trkpt>
<trkpt lat="46.12382110208273" lon="7.23215164616704"><ele></ele><time>2013-8-1T13:53:55Z</time></trkpt>
<trkpt lat="46.123797884210944" lon="7.232151981443167"><ele></ele><time>2013-8-1T13:53:58Z</time></trkpt>
<trkpt lat="46.12367156893015" lon="7.232168577611446"><ele></ele><time>2013-8-1T13:54:1Z</time></trkpt>
<trkpt lat="46.12357190810144" lon="7.232204619795084"><ele></ele><time>2013-8-1T13:54:4Z</time></trkpt>
<trkpt lat="46.12354743294418" lon="7.232213923707604"><ele></ele><time>2013-8-1T13:54:7Z</time></trkpt>
<trkpt lat="46.123523376882076" lon="7.2322233114391565"><ele></ele><time>2013-8-1T13:54:10Z</time></trkpt>
<trkpt lat="46.12349915318191" lon="7.232233202084899"><ele></ele><time>2013-8-1T13:54:13Z</time></trkpt>
<trkpt lat="46.12347576767206" lon="7.2322462778538465"><ele></ele><time>2013-8-1T13:54:16Z</time></trkpt>
<trkpt lat="46.12329890951514" lon="7.2323149256408215"><ele></ele><time>2013-8-1T13:54:19Z</time></trkpt>
<trkpt lat="46.12327292561531" lon="7.232318110764027"><ele></ele><time>2013-8-1T13:54:22Z</time></trkpt>
<trkpt lat="46.12324601970613" lon="7.232321798801422"><ele></ele><time>2013-8-1T13:54:25Z</time></trkpt>
<trkpt lat="46.12321877852082" lon="7.2323246486485"><ele></ele><time>2013-8-1T13:54:28Z</time></trkpt>
<trkpt lat="46.12319019623101" lon="7.232324816286564"><ele></ele><time>2013-8-1T13:54:31Z</time></trkpt>
<trkpt lat="46.123056253418326" lon="7.232335209846497"><ele></ele><time>2013-8-1T13:54:34Z</time></trkpt>
<trkpt lat="46.12300260923803" lon="7.232346273958683"><ele></ele><time>2013-8-1T13:54:37Z</time></trkpt>
<trkpt lat="46.12297419458628" lon="7.23235247656703"><ele></ele><time>2013-8-1T13:54:40Z</time></trkpt>
<trkpt lat="46.1229488812387" lon="7.232358679175377"><ele></ele><time>2013-8-1T13:54:43Z</time></trkpt>
<trkpt lat="46.1229229811579" lon="7.232364462688565"><ele></ele><time>2013-8-1T13:54:46Z</time></trkpt>
<trkpt lat="46.12289800308645" lon="7.2323735151439905"><ele></ele><time>2013-8-1T13:54:49Z</time></trkpt>
<trkpt lat="46.12287034280598" lon="7.232379550114274"><ele></ele><time>2013-8-1T13:54:52Z</time></trkpt>
<trkpt lat="46.122843185439706" lon="7.232384914532304"><ele></ele><time>2013-8-1T13:54:55Z</time></trkpt>
<trkpt lat="46.12271695397794" lon="7.23238374106586"><ele></ele><time>2013-8-1T13:54:58Z</time></trkpt>
<trkpt lat="46.122692143544555" lon="7.232379969209433"><ele></ele><time>2013-8-1T13:55:1Z</time></trkpt>
<trkpt lat="46.12266842275858" lon="7.23237837664783"><ele></ele><time>2013-8-1T13:55:4Z</time></trkpt>
<trkpt lat="46.12264512106776" lon="7.2323741018772125"><ele></ele><time>2013-8-1T13:55:7Z</time></trkpt>
<trkpt lat="46.122620813548565" lon="7.23236907273531"><ele></ele><time>2013-8-1T13:55:10Z</time></trkpt>
<trkpt lat="46.12259265035391" lon="7.2323643788695335"><ele></ele><time>2013-8-1T13:55:13Z</time></trkpt>
<trkpt lat="46.122495755553246" lon="7.232350716367364"><ele></ele><time>2013-8-1T13:55:16Z</time></trkpt>
<trkpt lat="46.12239534035325" lon="7.232355745509267"><ele></ele><time>2013-8-1T13:55:19Z</time></trkpt>
<trkpt lat="46.12237120047212" lon="7.232355745509267"><ele></ele><time>2013-8-1T13:55:22Z</time></trkpt>
<trkpt lat="46.122345216572285" lon="7.2323585115373135"><ele></ele><time>2013-8-1T13:55:25Z</time></trkpt>
<trkpt lat="46.122321244329214" lon="7.232353733852506"><ele></ele><time>2013-8-1T13:55:28Z</time></trkpt>
<trkpt lat="46.12229869700968" lon="7.232340993359685"><ele></ele><time>2013-8-1T13:55:31Z</time></trkpt>
<trkpt lat="46.122224098071456" lon="7.232315680012107"><ele></ele><time>2013-8-1T13:55:34Z</time></trkpt>
<trkpt lat="46.1221975274384" lon="7.232306879013777"><ele></ele><time>2013-8-1T13:55:37Z</time></trkpt>
<trkpt lat="46.12217213027179" lon="7.23229824565351"><ele></ele><time>2013-8-1T13:55:40Z</time></trkpt>
<trkpt lat="46.12214505672455" lon="7.232283242046833"><ele></ele><time>2013-8-1T13:55:43Z</time></trkpt>
<trkpt lat="46.12212066538632" lon="7.232268992811441"><ele></ele><time>2013-8-1T13:55:46Z</time></trkpt>
<trkpt lat="46.12209660932422" lon="7.232252648100257"><ele></ele><time>2013-8-1T13:55:49Z</time></trkpt>
<trkpt lat="46.122074984014034" lon="7.232235968112946"><ele></ele><time>2013-8-1T13:55:52Z</time></trkpt>
<trkpt lat="46.122049670666456" lon="7.232227670028806"><ele></ele><time>2013-8-1T13:55:55Z</time></trkpt>
<trkpt lat="46.12192176282406" lon="7.232263879850507"><ele></ele><time>2013-8-1T13:55:58Z</time></trkpt>
<trkpt lat="46.12189628183842" lon="7.23227578215301"><ele></ele><time>2013-8-1T13:56:1Z</time></trkpt>
<trkpt lat="46.12187205813825" lon="7.232291959226131"><ele></ele><time>2013-8-1T13:56:4Z</time></trkpt>
<trkpt lat="46.12184967845678" lon="7.23230654373765"><ele></ele><time>2013-8-1T13:56:7Z</time></trkpt>
<trkpt lat="46.12182704731822" lon="7.232321547344327"><ele></ele><time>2013-8-1T13:56:10Z</time></trkpt>
<trkpt lat="46.12180617637932" lon="7.232338981702924"><ele></ele><time>2013-8-1T13:56:13Z</time></trkpt>
<trkpt lat="46.12175948917866" lon="7.232366558164358"><ele></ele><time>2013-8-1T13:56:16Z</time></trkpt>
<trkpt lat="46.121665528044105" lon="7.23236421123147"><ele></ele><time>2013-8-1T13:56:19Z</time></trkpt>
<trkpt lat="46.12162118777633" lon="7.23232707940042"><ele></ele><time>2013-8-1T13:56:22Z</time></trkpt>
<trkpt lat="46.12141809426248" lon="7.232107222080231"><ele></ele><time>2013-8-1T13:56:25Z</time></trkpt>
<trkpt lat="46.121329916641116" lon="7.23200211301446"><ele></ele><time>2013-8-1T13:56:28Z</time></trkpt>
<trkpt lat="46.121295634657145" lon="7.231949977576733"><ele></ele><time>2013-8-1T13:56:31Z</time></trkpt>
<trkpt lat="46.12126705236733" lon="7.231904715299606"><ele></ele><time>2013-8-1T13:56:34Z</time></trkpt>
<trkpt lat="46.1212408170104" lon="7.231866745278239"><ele></ele><time>2013-8-1T13:56:37Z</time></trkpt>
<trkpt lat="46.1212220415473" lon="7.231824165210128"><ele></ele><time>2013-8-1T13:56:40Z</time></trkpt>
<trkpt lat="46.12121290527284" lon="7.231787703931332"><ele></ele><time>2013-8-1T13:56:43Z</time></trkpt>
<trkpt lat="46.12120443955064" lon="7.231745710596442"><ele></ele><time>2013-8-1T13:56:46Z</time></trkpt>
<trkpt lat="46.121189100667834" lon="7.2316991072148085"><ele></ele><time>2013-8-1T13:56:49Z</time></trkpt>
<trkpt lat="46.12114819698036" lon="7.231543036177754"><ele></ele><time>2013-8-1T13:56:52Z</time></trkpt>
<trkpt lat="46.12107703462243" lon="7.231162916868925"><ele></ele><time>2013-8-1T13:56:55Z</time></trkpt>
<trkpt lat="46.12106680870056" lon="7.230952112004161"><ele></ele><time>2013-8-1T13:56:58Z</time></trkpt>
<trkpt lat="46.12106957472861" lon="7.230739379301667"><ele></ele><time>2013-8-1T13:57:1Z</time></trkpt>
<trkpt lat="46.1210856679827" lon="7.23030511289835"><ele></ele><time>2013-8-1T13:57:4Z</time></trkpt>
<trkpt lat="46.12108977511525" lon="7.230233363807201"><ele></ele><time>2013-8-1T13:57:7Z</time></trkpt>
<trkpt lat="46.12109849229455" lon="7.230011494830251"><ele></ele><time>2013-8-1T13:57:10Z</time></trkpt>
<trkpt lat="46.12109421752393" lon="7.229795325547457"><ele></ele><time>2013-8-1T13:57:13Z</time></trkpt>
<trkpt lat="46.12105708569288" lon="7.229189230129123"><ele></ele><time>2013-8-1T13:57:16Z</time></trkpt>
<trkpt lat="46.120973601937294" lon="7.228646669536829"><ele></ele><time>2013-8-1T13:57:19Z</time></trkpt>
<trkpt lat="46.12081736326218" lon="7.228044513612986"><ele></ele><time>2013-8-1T13:57:22Z</time></trkpt>
<trkpt lat="46.12063447013497" lon="7.227549059316516"><ele></ele><time>2013-8-1T13:57:25Z</time></trkpt>
<trkpt lat="46.12060932442546" lon="7.227481668815017"><ele></ele><time>2013-8-1T13:57:28Z</time></trkpt>
<trkpt lat="46.120420061051846" lon="7.226918572559953"><ele></ele><time>2013-8-1T13:57:31Z</time></trkpt>
<trkpt lat="46.12032995559275" lon="7.226451952010393"><ele></ele><time>2013-8-1T13:57:34Z</time></trkpt>
<trkpt lat="46.1203049775213" lon="7.226294707506895"><ele></ele><time>2013-8-1T13:57:37Z</time></trkpt>
<trkpt lat="46.12029558978975" lon="7.226212983950973"><ele></ele><time>2013-8-1T13:57:40Z</time></trkpt>
<trkpt lat="46.12027899362147" lon="7.226132433861494"><ele></ele><time>2013-8-1T13:57:43Z</time></trkpt>
<trkpt lat="46.120256781578064" lon="7.226056745275855"><ele></ele><time>2013-8-1T13:57:46Z</time></trkpt>
<trkpt lat="46.12023423425853" lon="7.22597879357636"><ele></ele><time>2013-8-1T13:57:49Z</time></trkpt>
<trkpt lat="46.12021118402481" lon="7.22590402700007"><ele></ele><time>2013-8-1T13:57:52Z</time></trkpt>
<trkpt lat="46.12012225203216" lon="7.225601943209767"><ele></ele><time>2013-8-1T13:57:55Z</time></trkpt>
<trkpt lat="46.120101884007454" lon="7.225524326786399"><ele></ele><time>2013-8-1T13:57:58Z</time></trkpt>
<trkpt lat="46.12001387402415" lon="7.22521997988224"><ele></ele><time>2013-8-1T13:58:1Z</time></trkpt>
<trkpt lat="46.11995033919811" lon="7.225087294355035"><ele></ele><time>2013-8-1T13:58:4Z</time></trkpt>
<trkpt lat="46.11973869614303" lon="7.224828042089939"><ele></ele><time>2013-8-1T13:58:7Z</time></trkpt>
<trkpt lat="46.11942345276475" lon="7.224513469263911"><ele></ele><time>2013-8-1T13:58:10Z</time></trkpt>
<trkpt lat="46.11937358044088" lon="7.224470470100641"><ele></ele><time>2013-8-1T13:58:13Z</time></trkpt>
<trkpt lat="46.11932278610766" lon="7.2244353499263525"><ele></ele><time>2013-8-1T13:58:16Z</time></trkpt>
<trkpt lat="46.119220023974776" lon="7.22437902353704"><ele></ele><time>2013-8-1T13:58:19Z</time></trkpt>
<trkpt lat="46.11911315470934" lon="7.224345747381449"><ele></ele><time>2013-8-1T13:58:22Z</time></trkpt>
<trkpt lat="46.1189994122833" lon="7.224336443468928"><ele></ele><time>2013-8-1T13:58:25Z</time></trkpt>
<trkpt lat="46.11888885498047" lon="7.22432772628963"><ele></ele><time>2013-8-1T13:58:28Z</time></trkpt>
<trkpt lat="46.11878156661987" lon="7.224310208112001"><ele></ele><time>2013-8-1T13:58:31Z</time></trkpt>
<trkpt lat="46.11872926354408" lon="7.224292019382119"><ele></ele><time>2013-8-1T13:58:34Z</time></trkpt>
<trkpt lat="46.11858434043825" lon="7.224201913923025"><ele></ele><time>2013-8-1T13:58:37Z</time></trkpt>
<trkpt lat="46.11849314533174" lon="7.224140223115683"><ele></ele><time>2013-8-1T13:58:40Z</time></trkpt>
<trkpt lat="46.11838820390403" lon="7.224074173718691"><ele></ele><time>2013-8-1T13:58:43Z</time></trkpt>
<trkpt lat="46.11833916977048" lon="7.224049028009176"><ele></ele><time>2013-8-1T13:58:46Z</time></trkpt>
<trkpt lat="46.11819542013109" lon="7.22395246848464"><ele></ele><time>2013-8-1T13:58:49Z</time></trkpt>
<trkpt lat="46.11814772710204" lon="7.22392019815743"><ele></ele><time>2013-8-1T13:58:52Z</time></trkpt>
<trkpt lat="46.118099028244615" lon="7.223887424916029"><ele></ele><time>2013-8-1T13:58:55Z</time></trkpt>
<trkpt lat="46.11795955337584" lon="7.223808718845248"><ele></ele><time>2013-8-1T13:58:58Z</time></trkpt>
<trkpt lat="46.117907082661986" lon="7.223782567307353"><ele></ele><time>2013-8-1T13:59:1Z</time></trkpt>
<trkpt lat="46.117626037448645" lon="7.223593387752771"><ele></ele><time>2013-8-1T13:59:4Z</time></trkpt>
<trkpt lat="46.11756996251643" lon="7.223464725539088"><ele></ele><time>2013-8-1T13:59:7Z</time></trkpt>
<trkpt lat="46.11754951067269" lon="7.223397670313716"><ele></ele><time>2013-8-1T13:59:10Z</time></trkpt>
<trkpt lat="46.11751204356551" lon="7.2232570219784975"><ele></ele><time>2013-8-1T13:59:13Z</time></trkpt>
<trkpt lat="46.11749184317887" lon="7.223118552938104"><ele></ele><time>2013-8-1T13:59:16Z</time></trkpt>
<trkpt lat="46.117481365799904" lon="7.2230505757033825"><ele></ele><time>2013-8-1T13:59:19Z</time></trkpt>
<trkpt lat="46.11747809685767" lon="7.2229778207838535"><ele></ele><time>2013-8-1T13:59:22Z</time></trkpt>
<trkpt lat="46.11744490452111" lon="7.222786629572511"><ele></ele><time>2013-8-1T13:59:25Z</time></trkpt>
<trkpt lat="46.11742503941059" lon="7.222726196050644"><ele></ele><time>2013-8-1T13:59:28Z</time></trkpt>
<trkpt lat="46.11739234998822" lon="7.222605161368847"><ele></ele><time>2013-8-1T13:59:31Z</time></trkpt>
<trkpt lat="46.11738447099924" lon="7.2223888244479895"><ele></ele><time>2013-8-1T13:59:34Z</time></trkpt>
<trkpt lat="46.11747181043029" lon="7.222189921885729"><ele></ele><time>2013-8-1T13:59:37Z</time></trkpt>
<trkpt lat="46.117507768794894" lon="7.222127979621291"><ele></ele><time>2013-8-1T13:59:40Z</time></trkpt>
<trkpt lat="46.117539620026946" lon="7.222066707909107"><ele></ele><time>2013-8-1T13:59:43Z</time></trkpt>
<trkpt lat="46.11756719648838" lon="7.221995545551181"><ele></ele><time>2013-8-1T13:59:46Z</time></trkpt>
<trkpt lat="46.11762519925833" lon="7.221868224442005"><ele></ele><time>2013-8-1T13:59:49Z</time></trkpt>
<trkpt lat="46.11771857365966" lon="7.221667980775237"><ele></ele><time>2013-8-1T13:59:52Z</time></trkpt>
<trkpt lat="46.11774598248303" lon="7.221510484814644"><ele></ele><time>2013-8-1T13:59:55Z</time></trkpt>
<trkpt lat="46.11772997304797" lon="7.221344439312816"><ele></ele><time>2013-8-1T13:59:58Z</time></trkpt>
<trkpt lat="46.11772217787802" lon="7.221264140680432"><ele></ele><time>2013-8-1T14:0:1Z</time></trkpt>
<trkpt lat="46.117725782096386" lon="7.22111159004271"><ele></ele><time>2013-8-1T14:0:4Z</time></trkpt>
<trkpt lat="46.117760399356484" lon="7.2209669183939695"><ele></ele><time>2013-8-1T14:0:7Z</time></trkpt>
<trkpt lat="46.11782452091575" lon="7.220838675275445"><ele></ele><time>2013-8-1T14:0:10Z</time></trkpt>
<trkpt lat="46.11785511486232" lon="7.220771871507168"><ele></ele><time>2013-8-1T14:0:13Z</time></trkpt>
<trkpt lat="46.117875734344125" lon="7.22070163115859"><ele></ele><time>2013-8-1T14:0:16Z</time></trkpt>
<trkpt lat="46.117849834263325" lon="7.22046953625977"><ele></ele><time>2013-8-1T14:0:19Z</time></trkpt>
<trkpt lat="46.11782284453511" lon="7.220402397215366"><ele></ele><time>2013-8-1T14:0:22Z</time></trkpt>
<trkpt lat="46.11780155450106" lon="7.220329055562615"><ele></ele><time>2013-8-1T14:0:25Z</time></trkpt>
<trkpt lat="46.11780499108136" lon="7.220181198790669"><ele></ele><time>2013-8-1T14:0:28Z</time></trkpt>
<trkpt lat="46.117829298600554" lon="7.2199473436921835"><ele></ele><time>2013-8-1T14:0:31Z</time></trkpt>
<trkpt lat="46.117832735180855" lon="7.2197771072387695"><ele></ele><time>2013-8-1T14:0:34Z</time></trkpt>
<trkpt lat="46.117827370762825" lon="7.21969697624445"><ele></ele><time>2013-8-1T14:0:37Z</time></trkpt>
<trkpt lat="46.11780499108136" lon="7.219291208311915"><ele></ele><time>2013-8-1T14:0:40Z</time></trkpt>
<trkpt lat="46.117799542844296" lon="7.219204539433122"><ele></ele><time>2013-8-1T14:0:43Z</time></trkpt>
<trkpt lat="46.117794094607234" lon="7.219121726229787"><ele></ele><time>2013-8-1T14:0:46Z</time></trkpt>
<trkpt lat="46.11775855533779" lon="7.218706319108605"><ele></ele><time>2013-8-1T14:0:49Z</time></trkpt>
<trkpt lat="46.1177197471261" lon="7.218547817319632"><ele></ele><time>2013-8-1T14:0:52Z</time></trkpt>
<trkpt lat="46.117679346352816" lon="7.218495765700936"><ele></ele><time>2013-8-1T14:0:55Z</time></trkpt>
<trkpt lat="46.11747298389673" lon="7.218372384086251"><ele></ele><time>2013-8-1T14:0:58Z</time></trkpt>
<trkpt lat="46.117088505998254" lon="7.218202566727996"><ele></ele><time>2013-8-1T14:1:1Z</time></trkpt>
<trkpt lat="46.11703318543732" lon="7.218168200924993"><ele></ele><time>2013-8-1T14:1:4Z</time></trkpt>
<trkpt lat="46.11682397313416" lon="7.217995366081595"><ele></ele><time>2013-8-1T14:1:7Z</time></trkpt>
<trkpt lat="46.11677158623934" lon="7.217960162088275"><ele></ele><time>2013-8-1T14:1:10Z</time></trkpt>
<trkpt lat="46.11654636450112" lon="7.217836109921336"><ele></ele><time>2013-8-1T14:1:13Z</time></trkpt>
<trkpt lat="46.11649464815855" lon="7.217800486832857"><ele></ele><time>2013-8-1T14:1:16Z</time></trkpt>
<trkpt lat="46.116443015635014" lon="7.217760505154729"><ele></ele><time>2013-8-1T14:1:19Z</time></trkpt>
<trkpt lat="46.116279400885105" lon="7.217668471857905"><ele></ele><time>2013-8-1T14:1:22Z</time></trkpt>
<trkpt lat="46.11603867262602" lon="7.217635782435536"><ele></ele><time>2013-8-1T14:1:25Z</time></trkpt>
<trkpt lat="46.11595870926976" lon="7.217531930655241"><ele></ele><time>2013-8-1T14:1:28Z</time></trkpt>
<trkpt lat="46.115931468084455" lon="7.21746445633471"><ele></ele><time>2013-8-1T14:1:31Z</time></trkpt>
<trkpt lat="46.11590431071818" lon="7.217395892366767"><ele></ele><time>2013-8-1T14:1:34Z</time></trkpt>
<trkpt lat="46.11587706953287" lon="7.217327244579792"><ele></ele><time>2013-8-1T14:1:37Z</time></trkpt>
<trkpt lat="46.11565897241235" lon="7.2157529555261135"><ele></ele><time>2013-8-1T14:1:40Z</time></trkpt>
<trkpt lat="46.11567221581936" lon="7.215699981898069"><ele></ele><time>2013-8-1T14:1:43Z</time></trkpt>
<trkpt lat="46.11566098406911" lon="7.21539949066937"><ele></ele><time>2013-8-1T14:1:46Z</time></trkpt>
<trkpt lat="46.11567799933255" lon="7.215333944186568"><ele></ele><time>2013-8-1T14:1:49Z</time></trkpt>
<trkpt lat="46.11570842564106" lon="7.215268146246672"><ele></ele><time>2013-8-1T14:1:52Z</time></trkpt>
<trkpt lat="46.11574371345341" lon="7.2152110654860735"><ele></ele><time>2013-8-1T14:1:55Z</time></trkpt>
<trkpt lat="46.1157806776464" lon="7.215155158191919"><ele></ele><time>2013-8-1T14:1:58Z</time></trkpt>
<trkpt lat="46.1158636584878" lon="7.215031525120139"><ele></ele><time>2013-8-1T14:2:1Z</time></trkpt>
<trkpt lat="46.115904143080115" lon="7.214975282549858"><ele></ele><time>2013-8-1T14:2:4Z</time></trkpt>
<trkpt lat="46.115930546075106" lon="7.214904287829995"><ele></ele><time>2013-8-1T14:2:7Z</time></trkpt>
<trkpt lat="46.11592199653387" lon="7.214740756899118"><ele></ele><time>2013-8-1T14:2:10Z</time></trkpt>
<trkpt lat="46.11586072482169" lon="7.21441050991416"><ele></ele><time>2013-8-1T14:2:13Z</time></trkpt>
<trkpt lat="46.11590397544205" lon="7.214159807190299"><ele></ele><time>2013-8-1T14:2:16Z</time></trkpt>
<trkpt lat="46.11590665765107" lon="7.214073305949569"><ele></ele><time>2013-8-1T14:2:19Z</time></trkpt>
<trkpt lat="46.1159083340317" lon="7.213897705078125"><ele></ele><time>2013-8-1T14:2:22Z</time></trkpt>
<trkpt lat="46.11596239730716" lon="7.2137414664030075"><ele></ele><time>2013-8-1T14:2:25Z</time></trkpt>
<trkpt lat="46.115964660421014" lon="7.213491015136242"><ele></ele><time>2013-8-1T14:2:28Z</time></trkpt>
<trkpt lat="46.1158824339509" lon="7.213268727064133"><ele></ele><time>2013-8-1T14:2:31Z</time></trkpt>
<trkpt lat="46.11585946753621" lon="7.2131922002881765"><ele></ele><time>2013-8-1T14:2:34Z</time></trkpt>
<trkpt lat="46.11585938371718" lon="7.213031351566315"><ele></ele><time>2013-8-1T14:2:37Z</time></trkpt>
<trkpt lat="46.11594362184405" lon="7.212826581671834"><ele></ele><time>2013-8-1T14:2:40Z</time></trkpt>
<trkpt lat="46.11598678864539" lon="7.212775871157646"><ele></ele><time>2013-8-1T14:2:43Z</time></trkpt>
<trkpt lat="46.11603272147477" lon="7.212721221148968"><ele></ele><time>2013-8-1T14:2:46Z</time></trkpt>
<trkpt lat="46.116077564656734" lon="7.212669840082526"><ele></ele><time>2013-8-1T14:2:49Z</time></trkpt>
<trkpt lat="46.116122994571924" lon="7.212613010779023"><ele></ele><time>2013-8-1T14:2:52Z</time></trkpt>
<trkpt lat="46.116164065897465" lon="7.212549559772015"><ele></ele><time>2013-8-1T14:2:55Z</time></trkpt>
<trkpt lat="46.11619231291115" lon="7.21247504465282"><ele></ele><time>2013-8-1T14:2:58Z</time></trkpt>
<trkpt lat="46.11619809642434" lon="7.2123027965426445"><ele></ele><time>2013-8-1T14:3:1Z</time></trkpt>
<trkpt lat="46.116188038140535" lon="7.212209003046155"><ele></ele><time>2013-8-1T14:3:4Z</time></trkpt>
<trkpt lat="46.11618225462735" lon="7.212030300870538"><ele></ele><time>2013-8-1T14:3:7Z</time></trkpt>
<trkpt lat="46.116204634308815" lon="7.2118733916431665"><ele></ele><time>2013-8-1T14:3:10Z</time></trkpt>
<trkpt lat="46.11622592434287" lon="7.211712123826146"><ele></ele><time>2013-8-1T14:3:13Z</time></trkpt>
<trkpt lat="46.116199772804976" lon="7.2115385346114635"><ele></ele><time>2013-8-1T14:3:16Z</time></trkpt>
<trkpt lat="46.11613464541733" lon="7.211205773055553"><ele></ele><time>2013-8-1T14:3:19Z</time></trkpt>
<trkpt lat="46.116131125018" lon="7.211022460833192"><ele></ele><time>2013-8-1T14:3:22Z</time></trkpt>
<trkpt lat="46.1161398421973" lon="7.210930846631527"><ele></ele><time>2013-8-1T14:3:25Z</time></trkpt>
<trkpt lat="46.11614629626274" lon="7.210680227726698"><ele></ele><time>2013-8-1T14:3:28Z</time></trkpt>
<trkpt lat="46.11605007201433" lon="7.210405133664608"><ele></ele><time>2013-8-1T14:3:31Z</time></trkpt>
<trkpt lat="46.116030709818006" lon="7.210330367088318"><ele></ele><time>2013-8-1T14:3:34Z</time></trkpt>
<trkpt lat="46.115999361500144" lon="7.210171781480312"><ele></ele><time>2013-8-1T14:3:37Z</time></trkpt>
<trkpt lat="46.11598737537861" lon="7.210008669644594"><ele></ele><time>2013-8-1T14:3:40Z</time></trkpt>
<trkpt lat="46.11598678864539" lon="7.209925102069974"><ele></ele><time>2013-8-1T14:3:43Z</time></trkpt>
<trkpt lat="46.11598653718829" lon="7.2097488306462765"><ele></ele><time>2013-8-1T14:3:46Z</time></trkpt>
<trkpt lat="46.11599139869213" lon="7.209664760157466"><ele></ele><time>2013-8-1T14:3:49Z</time></trkpt>
<trkpt lat="46.11599542200565" lon="7.209580522030592"><ele></ele><time>2013-8-1T14:3:52Z</time></trkpt>
<trkpt lat="46.115987710654736" lon="7.209409112110734"><ele></ele><time>2013-8-1T14:3:55Z</time></trkpt>
<trkpt lat="46.1159516684711" lon="7.209163270890713"><ele></ele><time>2013-8-1T14:3:58Z</time></trkpt>
<trkpt lat="46.115948567166924" lon="7.209082134068012"><ele></ele><time>2013-8-1T14:4:1Z</time></trkpt>
<trkpt lat="46.11593322828412" lon="7.208757000043988"><ele></ele><time>2013-8-1T14:4:4Z</time></trkpt>
<trkpt lat="46.115949572995305" lon="7.208343353122473"><ele></ele><time>2013-8-1T14:4:7Z</time></trkpt>
<trkpt lat="46.11592987552285" lon="7.208261042833328"><ele></ele><time>2013-8-1T14:4:10Z</time></trkpt>
<trkpt lat="46.11581655219197" lon="7.207766259089112"><ele></ele><time>2013-8-1T14:4:13Z</time></trkpt>
<trkpt lat="46.11579987220466" lon="7.2076846193522215"><ele></ele><time>2013-8-1T14:4:16Z</time></trkpt>
<trkpt lat="46.115783946588635" lon="7.207602644339204"><ele></ele><time>2013-8-1T14:4:19Z</time></trkpt>
<trkpt lat="46.11576517112553" lon="7.207522178068757"><ele></ele><time>2013-8-1T14:4:22Z</time></trkpt>
<trkpt lat="46.11574321053922" lon="7.20743827521801"><ele></ele><time>2013-8-1T14:4:25Z</time></trkpt>
<trkpt lat="46.11567615531385" lon="7.207227302715182"><ele></ele><time>2013-8-1T14:4:28Z</time></trkpt>
<trkpt lat="46.11551849171519" lon="7.206721790134907"><ele></ele><time>2013-8-1T14:4:31Z</time></trkpt>
<trkpt lat="46.1154886521399" lon="7.206657836213708"><ele></ele><time>2013-8-1T14:4:34Z</time></trkpt>
<trkpt lat="46.11531992442906" lon="7.20633496530354"><ele></ele><time>2013-8-1T14:4:37Z</time></trkpt>
<trkpt lat="46.115216156467795" lon="7.2062023635953665"><ele></ele><time>2013-8-1T14:4:40Z</time></trkpt>
<trkpt lat="46.115171648561954" lon="7.206177217885852"><ele></ele><time>2013-8-1T14:4:43Z</time></trkpt>
<trkpt lat="46.11512688919902" lon="7.206143271178007"><ele></ele><time>2013-8-1T14:4:46Z</time></trkpt>
<trkpt lat="46.11502815037966" lon="7.206086358055472"><ele></ele><time>2013-8-1T14:4:49Z</time></trkpt>
<trkpt lat="46.11497928388417" lon="7.206055428832769"><ele></ele><time>2013-8-1T14:4:52Z</time></trkpt>
<trkpt lat="46.11493720673025" lon="7.206027517095208"><ele></ele><time>2013-8-1T14:4:55Z</time></trkpt>
<trkpt lat="46.11489772796631" lon="7.2059897147119045"><ele></ele><time>2013-8-1T14:4:58Z</time></trkpt>
<trkpt lat="46.11485783010721" lon="7.2059552650898695"><ele></ele><time>2013-8-1T14:5:1Z</time></trkpt>
<trkpt lat="46.11482438631356" lon="7.205918468534946"><ele></ele><time>2013-8-1T14:5:4Z</time></trkpt>
<trkpt lat="46.114797396585345" lon="7.205871362239122"><ele></ele><time>2013-8-1T14:5:7Z</time></trkpt>
<trkpt lat="46.11476244404912" lon="7.205825764685869"><ele></ele><time>2013-8-1T14:5:10Z</time></trkpt>
<trkpt lat="46.114727575331926" lon="7.205788381397724"><ele></ele><time>2013-8-1T14:5:13Z</time></trkpt>
<trkpt lat="46.114692790433764" lon="7.205753093585372"><ele></ele><time>2013-8-1T14:5:16Z</time></trkpt>
<trkpt lat="46.11465314403176" lon="7.205725349485874"><ele></ele><time>2013-8-1T14:5:19Z</time></trkpt>
<trkpt lat="46.11460997723043" lon="7.20571487210691"><ele></ele><time>2013-8-1T14:5:22Z</time></trkpt>
<trkpt lat="46.11456303857267" lon="7.205699197947979"><ele></ele><time>2013-8-1T14:5:25Z</time></trkpt>
<trkpt lat="46.114519368857145" lon="7.205679332837462"><ele></ele><time>2013-8-1T14:5:28Z</time></trkpt>
<trkpt lat="46.114476285874844" lon="7.205673549324274"><ele></ele><time>2013-8-1T14:5:31Z</time></trkpt>
<trkpt lat="46.11443948931992" lon="7.205674555152655"><ele></ele><time>2013-8-1T14:5:34Z</time></trkpt>
<trkpt lat="46.114403614774346" lon="7.205687211826444"><ele></ele><time>2013-8-1T14:5:37Z</time></trkpt>
<trkpt lat="46.11437042243779" lon="7.20571587793529"><ele></ele><time>2013-8-1T14:5:40Z</time></trkpt>
<trkpt lat="46.11434108577669" lon="7.205749824643135"><ele></ele><time>2013-8-1T14:5:43Z</time></trkpt>
<trkpt lat="46.11430864781141" lon="7.20578377135098"><ele></ele><time>2013-8-1T14:5:46Z</time></trkpt>
<trkpt lat="46.11428098753095" lon="7.205826351419091"><ele></ele><time>2013-8-1T14:5:49Z</time></trkpt>
<trkpt lat="46.114213513210416" lon="7.20591813325882"><ele></ele><time>2013-8-1T14:5:52Z</time></trkpt>
<trkpt lat="46.11418090760708" lon="7.205950319766998"><ele></ele><time>2013-8-1T14:5:55Z</time></trkpt>
<trkpt lat="46.11414385959506" lon="7.205971609801054"><ele></ele><time>2013-8-1T14:5:58Z</time></trkpt>
<trkpt lat="46.11410756595433" lon="7.205995498225093"><ele></ele><time>2013-8-1T14:6:1Z</time></trkpt>
<trkpt lat="46.114068338647485" lon="7.206014189869165"><ele></ele><time>2013-8-1T14:6:4Z</time></trkpt>
<trkpt lat="46.11402818933129" lon="7.206028690561652"><ele></ele><time>2013-8-1T14:6:7Z</time></trkpt>
<trkpt lat="46.11398451961577" lon="7.2060424368828535"><ele></ele><time>2013-8-1T14:6:10Z</time></trkpt>
<trkpt lat="46.1139399278909" lon="7.206042017787695"><ele></ele><time>2013-8-1T14:6:13Z</time></trkpt>
<trkpt lat="46.1138947494328" lon="7.206013686954975"><ele></ele><time>2013-8-1T14:6:16Z</time></trkpt>
<trkpt lat="46.11385409720242" lon="7.2059649880975485"><ele></ele><time>2013-8-1T14:6:19Z</time></trkpt>
<trkpt lat="46.11381595954299" lon="7.205916959792376"><ele></ele><time>2013-8-1T14:6:22Z</time></trkpt>
<trkpt lat="46.11377790570259" lon="7.205872116610408"><ele></ele><time>2013-8-1T14:6:25Z</time></trkpt>
<trkpt lat="46.1137359123677" lon="7.205822831019759"><ele></ele><time>2013-8-1T14:6:28Z</time></trkpt>
<trkpt lat="46.113698026165366" lon="7.205777401104569"><ele></ele><time>2013-8-1T14:6:31Z</time></trkpt>
<trkpt lat="46.11366173252463" lon="7.205724008381367"><ele></ele><time>2013-8-1T14:6:34Z</time></trkpt>
<trkpt lat="46.11362736672163" lon="7.205675896257162"><ele></ele><time>2013-8-1T14:6:37Z</time></trkpt>
<trkpt lat="46.113596772775054" lon="7.205628287047148"><ele></ele><time>2013-8-1T14:6:40Z</time></trkpt>
<trkpt lat="46.113568944856524" lon="7.205589981749654"><ele></ele><time>2013-8-1T14:6:43Z</time></trkpt>
<trkpt lat="46.11353944055736" lon="7.205554274842143"><ele></ele><time>2013-8-1T14:6:46Z</time></trkpt>
<trkpt lat="46.113513708114624" lon="7.205519322305918"><ele></ele><time>2013-8-1T14:6:49Z</time></trkpt>
<trkpt lat="46.11348805949092" lon="7.20548378303647"><ele></ele><time>2013-8-1T14:6:52Z</time></trkpt>
<trkpt lat="46.11346576362848" lon="7.205445310100913"><ele></ele><time>2013-8-1T14:6:55Z</time></trkpt>
<trkpt lat="46.113450173288584" lon="7.20540314912796"><ele></ele><time>2013-8-1T14:6:58Z</time></trkpt>
<trkpt lat="46.11343424767256" lon="7.205365095287561"><ele></ele><time>2013-8-1T14:7:1Z</time></trkpt>
<trkpt lat="46.11342108808458" lon="7.205331148579717"><ele></ele><time>2013-8-1T14:7:4Z</time></trkpt>
<trkpt lat="46.11341371200979" lon="7.205289825797081"><ele></ele><time>2013-8-1T14:7:7Z</time></trkpt>
<trkpt lat="46.113393092527986" lon="7.205260489135981"><ele></ele><time>2013-8-1T14:7:10Z</time></trkpt>
<trkpt lat="46.113379430025816" lon="7.205223524942994"><ele></ele><time>2013-8-1T14:7:13Z</time></trkpt>
<trkpt lat="46.113362247124314" lon="7.20519402064383"><ele></ele><time>2013-8-1T14:7:16Z</time></trkpt>
<trkpt lat="46.11334187909961" lon="7.205162839964032"><ele></ele><time>2013-8-1T14:7:19Z</time></trkpt>
<trkpt lat="46.11331723630428" lon="7.205148590728641"><ele></ele><time>2013-8-1T14:7:22Z</time></trkpt>
<trkpt lat="46.11327884718776" lon="7.205145992338657"><ele></ele><time>2013-8-1T14:7:25Z</time></trkpt>
<trkpt lat="46.11324557103217" lon="7.205160325393081"><ele></ele><time>2013-8-1T14:7:28Z</time></trkpt>
<trkpt lat="46.11321707256138" lon="7.2051789332181215"><ele></ele><time>2013-8-1T14:7:31Z</time></trkpt>
<trkpt lat="46.113189747557044" lon="7.205187231302261"><ele></ele><time>2013-8-1T14:7:34Z</time></trkpt>
<trkpt lat="46.11316476948559" lon="7.205191422253847"><ele></ele><time>2013-8-1T14:7:37Z</time></trkpt>
<trkpt lat="46.113142389804125" lon="7.205192930996418"><ele></ele><time>2013-8-1T14:7:40Z</time></trkpt>
<trkpt lat="46.11312177032232" lon="7.205192511901259"><ele></ele><time>2013-8-1T14:7:43Z</time></trkpt>
<trkpt lat="46.113101402297616" lon="7.205188823863864"><ele></ele><time>2013-8-1T14:7:46Z</time></trkpt>
<trkpt lat="46.11309335567057" lon="7.205173401162028"><ele></ele><time>2013-8-1T14:7:49Z</time></trkpt>
<trkpt lat="46.11309276893735" lon="7.205168791115284"><ele></ele><time>2013-8-1T14:7:52Z</time></trkpt>
<trkpt lat="46.11309360712767" lon="7.205165354534984"><ele></ele><time>2013-8-1T14:7:55Z</time></trkpt>
<trkpt lat="46.1130868177861" lon="7.205178178846836"><ele></ele><time>2013-8-1T14:7:58Z</time></trkpt>
<trkpt lat="46.11307064071298" lon="7.205166025087237"><ele></ele><time>2013-8-1T14:8:1Z</time></trkpt>
<trkpt lat="46.11307047307491" lon="7.205163007602096"><ele></ele><time>2013-8-1T14:8:4Z</time></trkpt>
<trkpt lat="46.11307022161782" lon="7.205158732831478"><ele></ele><time>2013-8-1T14:8:7Z</time></trkpt>
<trkpt lat="46.11307181417942" lon="7.205155799165368"><ele></ele><time>2013-8-1T14:8:10Z</time></trkpt>
<trkpt lat="46.11307181417942" lon="7.205155799165368"><ele></ele><time>2013-8-1T14:8:13Z</time></trkpt>
<trkpt lat="46.11306678503752" lon="7.205158565193415"><ele></ele><time>2013-8-1T14:8:16Z</time></trkpt>
<trkpt lat="46.11304775811732" lon="7.205145908519626"><ele></ele><time>2013-8-1T14:8:19Z</time></trkpt>
<trkpt lat="46.11298514530063" lon="7.205031579360366"><ele></ele><time>2013-8-1T14:8:22Z</time></trkpt>
<trkpt lat="46.11298154108226" lon="7.204915406182408"><ele></ele><time>2013-8-1T14:8:25Z</time></trkpt>
<trkpt lat="46.11298422329128" lon="7.204853547737002"><ele></ele><time>2013-8-1T14:8:28Z</time></trkpt>
<trkpt lat="46.11298338510096" lon="7.204781631007791"><ele></ele><time>2013-8-1T14:8:31Z</time></trkpt>
<trkpt lat="46.112964106723666" lon="7.204695297405124"><ele></ele><time>2013-8-1T14:8:34Z</time></trkpt>
<trkpt lat="46.11293158493936" lon="7.204615082591772"><ele></ele><time>2013-8-1T14:8:37Z</time></trkpt>
<trkpt lat="46.11289302818477" lon="7.204555990174413"><ele></ele><time>2013-8-1T14:8:40Z</time></trkpt>
<trkpt lat="46.11284608952701" lon="7.20451676286757"><ele></ele><time>2013-8-1T14:8:43Z</time></trkpt>
<trkpt lat="46.11279915086925" lon="7.20448013395071"><ele></ele><time>2013-8-1T14:8:46Z</time></trkpt>
<trkpt lat="46.11275137402117" lon="7.204454988241196"><ele></ele><time>2013-8-1T14:8:49Z</time></trkpt>
<trkpt lat="46.11266537569463" lon="7.20438240095973"><ele></ele><time>2013-8-1T14:8:52Z</time></trkpt>
<trkpt lat="46.11264048144221" lon="7.204350214451551"><ele></ele><time>2013-8-1T14:8:55Z</time></trkpt>
<trkpt lat="46.11261449754238" lon="7.204303862527013"><ele></ele><time>2013-8-1T14:8:58Z</time></trkpt>
<trkpt lat="46.11258750781417" lon="7.204260108992457"><ele></ele><time>2013-8-1T14:9:1Z</time></trkpt>
<trkpt lat="46.11256110481918" lon="7.204218618571758"><ele></ele><time>2013-8-1T14:9:4Z</time></trkpt>
<trkpt lat="46.112522296607494" lon="7.204176625236869"><ele></ele><time>2013-8-1T14:9:7Z</time></trkpt>
<trkpt lat="46.11247560940683" lon="7.204157765954733"><ele></ele><time>2013-8-1T14:9:10Z</time></trkpt>
<trkpt lat="46.11242640763521" lon="7.204144019633532"><ele></ele><time>2013-8-1T14:9:13Z</time></trkpt>
<trkpt lat="46.112341079860926" lon="7.2041352186352015"><ele></ele><time>2013-8-1T14:9:16Z</time></trkpt>
<trkpt lat="46.11231241375208" lon="7.204132117331028"><ele></ele><time>2013-8-1T14:9:19Z</time></trkpt>
<trkpt lat="46.11228299327195" lon="7.204128010198474"><ele></ele><time>2013-8-1T14:9:22Z</time></trkpt>
<trkpt lat="46.11224804073572" lon="7.204125579446554"><ele></ele><time>2013-8-1T14:9:25Z</time></trkpt>
<trkpt lat="46.11220646649599" lon="7.20412390306592"><ele></ele><time>2013-8-1T14:9:28Z</time></trkpt>
<trkpt lat="46.1121610365808" lon="7.204122059047222"><ele></ele><time>2013-8-1T14:9:31Z</time></trkpt>
<trkpt lat="46.11211116425693" lon="7.204108061268926"><ele></ele><time>2013-8-1T14:9:34Z</time></trkpt>
<trkpt lat="46.11208082176745" lon="7.20408434048295"><ele></ele><time>2013-8-1T14:9:37Z</time></trkpt>
<trkpt lat="46.11202256754041" lon="7.204028768464923"><ele></ele><time>2013-8-1T14:9:40Z</time></trkpt>
<trkpt lat="46.11199306324124" lon="7.203997755423188"><ele></ele><time>2013-8-1T14:9:43Z</time></trkpt>
<trkpt lat="46.11196213401854" lon="7.2039696760475636"><ele></ele><time>2013-8-1T14:9:46Z</time></trkpt>
<trkpt lat="46.111925756558776" lon="7.2039328794926405"><ele></ele><time>2013-8-1T14:9:49Z</time></trkpt>
<trkpt lat="46.111895414069295" lon="7.203887617215514"><ele></ele><time>2013-8-1T14:9:52Z</time></trkpt>
<trkpt lat="46.111862221732736" lon="7.203832548111677"><ele></ele><time>2013-8-1T14:9:55Z</time></trkpt>
<trkpt lat="46.11180966719985" lon="7.203743197023869"><ele></ele><time>2013-8-1T14:9:58Z</time></trkpt>
<trkpt lat="46.11178460530937" lon="7.2036943305283785"><ele></ele><time>2013-8-1T14:10:1Z</time></trkpt>
<trkpt lat="46.11175384372473" lon="7.203644122928381"><ele></ele><time>2013-8-1T14:10:4Z</time></trkpt>
<trkpt lat="46.1117088329047" lon="7.203598860651255"><ele></ele><time>2013-8-1T14:10:7Z</time></trkpt>
<trkpt lat="46.11166097223759" lon="7.2035538498312235"><ele></ele><time>2013-8-1T14:10:10Z</time></trkpt>
<trkpt lat="46.11161755397916" lon="7.2035085037350655"><ele></ele><time>2013-8-1T14:10:13Z</time></trkpt>
<trkpt lat="46.11156818456948" lon="7.203464582562447"><ele></ele><time>2013-8-1T14:10:16Z</time></trkpt>
<trkpt lat="46.11151554621756" lon="7.203425941988826"><ele></ele><time>2013-8-1T14:10:19Z</time></trkpt>
<trkpt lat="46.11146508716047" lon="7.203384451568127"><ele></ele><time>2013-8-1T14:10:22Z</time></trkpt>
<trkpt lat="46.11141772940755" lon="7.203334076330066"><ele></ele><time>2013-8-1T14:10:25Z</time></trkpt>
<trkpt lat="46.11132988706231" lon="7.203247239813209"><ele></ele><time>2013-8-1T14:10:28Z</time></trkpt>
<trkpt lat="46.111292419955134" lon="7.20321211963892"><ele></ele><time>2013-8-1T14:10:31Z</time></trkpt>
<trkpt lat="46.111250845715404" lon="7.203172221779823"><ele></ele><time>2013-8-1T14:10:34Z</time></trkpt>
<trkpt lat="46.11120231449604" lon="7.203128971159458"><ele></ele><time>2013-8-1T14:10:37Z</time></trkpt>
<trkpt lat="46.11114850267768" lon="7.203090749680996"><ele></ele><time>2013-8-1T14:10:40Z</time></trkpt>
<trkpt lat="46.11109586432576" lon="7.203054707497358"><ele></ele><time>2013-8-1T14:10:43Z</time></trkpt>
<trkpt lat="46.11104557290673" lon="7.203024951741099"><ele></ele><time>2013-8-1T14:10:46Z</time></trkpt>
<trkpt lat="46.11100047826767" lon="7.2030010633170605"><ele></ele><time>2013-8-1T14:10:49Z</time></trkpt>
<trkpt lat="46.11095714382827" lon="7.202971978113055"><ele></ele><time>2013-8-1T14:10:52Z</time></trkpt>
<trkpt lat="46.110911294817924" lon="7.2029415518045425"><ele></ele><time>2013-8-1T14:10:55Z</time></trkpt>
<trkpt lat="46.11087005585432" lon="7.202909868210554"><ele></ele><time>2013-8-1T14:10:58Z</time></trkpt>
<trkpt lat="46.11083108000457" lon="7.202881956472993"><ele></ele><time>2013-8-1T14:11:1Z</time></trkpt>
<trkpt lat="46.110797049477696" lon="7.202868210151792"><ele></ele><time>2013-8-1T14:11:4Z</time></trkpt>
<trkpt lat="46.11076109111309" lon="7.2028539609164"><ele></ele><time>2013-8-1T14:11:7Z</time></trkpt>
<trkpt lat="46.110731922090054" lon="7.202844321727753"><ele></ele><time>2013-8-1T14:11:10Z</time></trkpt>
<trkpt lat="46.110702250152826" lon="7.202820181846619"><ele></ele><time>2013-8-1T14:11:13Z</time></trkpt>
<trkpt lat="46.11068079248071" lon="7.202802915126085"><ele></ele><time>2013-8-1T14:11:16Z</time></trkpt>
<trkpt lat="46.11065120436251" lon="7.202775925397873"><ele></ele><time>2013-8-1T14:11:19Z</time></trkpt>
<trkpt lat="46.11061650328338" lon="7.202766705304384"><ele></ele><time>2013-8-1T14:11:22Z</time></trkpt>
<trkpt lat="46.11057643778622" lon="7.202750695869327"><ele></ele><time>2013-8-1T14:11:25Z</time></trkpt>
<trkpt lat="46.11053821630776" lon="7.202722113579512"><ele></ele><time>2013-8-1T14:11:28Z</time></trkpt>
<trkpt lat="46.11050024628639" lon="7.202695207670331"><ele></ele><time>2013-8-1T14:11:31Z</time></trkpt>
<trkpt lat="46.11046403646469" lon="7.202672492712736"><ele></ele><time>2013-8-1T14:11:34Z</time></trkpt>
<trkpt lat="46.11043511889875" lon="7.202657740563154"><ele></ele><time>2013-8-1T14:11:37Z</time></trkpt>
<trkpt lat="46.11041064374149" lon="7.202640306204557"><ele></ele><time>2013-8-1T14:11:40Z</time></trkpt>
<trkpt lat="46.110380720347166" lon="7.202615076676011"><ele></ele><time>2013-8-1T14:11:43Z</time></trkpt>
<trkpt lat="46.11034367233515" lon="7.2026123106479645"><ele></ele><time>2013-8-1T14:11:46Z</time></trkpt>
<trkpt lat="46.110312743112445" lon="7.202634355053306"><ele></ele><time>2013-8-1T14:11:49Z</time></trkpt>
<trkpt lat="46.1102875135839" lon="7.202657908201218"><ele></ele><time>2013-8-1T14:11:52Z</time></trkpt>
<trkpt lat="46.11026454716921" lon="7.202699817717075"><ele></ele><time>2013-8-1T14:11:55Z</time></trkpt>
<trkpt lat="46.110249208286405" lon="7.202746085822582"><ele></ele><time>2013-8-1T14:11:58Z</time></trkpt>
<trkpt lat="46.11024568788707" lon="7.2027946170419455"><ele></ele><time>2013-8-1T14:12:1Z</time></trkpt>
<trkpt lat="46.1102409940213" lon="7.202839711681008"><ele></ele><time>2013-8-1T14:12:4Z</time></trkpt>
<trkpt lat="46.11023621633649" lon="7.202879609540105"><ele></ele><time>2013-8-1T14:12:7Z</time></trkpt>
<trkpt lat="46.11023269593716" lon="7.202925626188517"><ele></ele><time>2013-8-1T14:12:10Z</time></trkpt>
<trkpt lat="46.11023336648941" lon="7.202968206256628"><ele></ele><time>2013-8-1T14:12:13Z</time></trkpt>
<trkpt lat="46.11022213473916" lon="7.203015983104706"><ele></ele><time>2013-8-1T14:12:16Z</time></trkpt>
<trkpt lat="46.11020369455218" lon="7.203073399141431"><ele></ele><time>2013-8-1T14:12:19Z</time></trkpt>
<trkpt lat="46.11019464209676" lon="7.203125283122063"><ele></ele><time>2013-8-1T14:12:22Z</time></trkpt>
<trkpt lat="46.110186260193586" lon="7.203172389417887"><ele></ele><time>2013-8-1T14:12:25Z</time></trkpt>
<trkpt lat="46.110173938795924" lon="7.203221675008535"><ele></ele><time>2013-8-1T14:12:28Z</time></trkpt>
<trkpt lat="46.110149966552854" lon="7.203239277005196"><ele></ele><time>2013-8-1T14:12:31Z</time></trkpt>
<trkpt lat="46.11012130044401" lon="7.203258974477649"><ele></ele><time>2013-8-1T14:12:34Z</time></trkpt>
<trkpt lat="46.11008140258491" lon="7.203250927850604"><ele></ele><time>2013-8-1T14:12:37Z</time></trkpt>
<trkpt lat="46.110039157792926" lon="7.203245731070638"><ele></ele><time>2013-8-1T14:12:40Z</time></trkpt>
<trkpt lat="46.109998086467385" lon="7.203250341117382"><ele></ele><time>2013-8-1T14:12:43Z</time></trkpt>
<trkpt lat="46.10995139926672" lon="7.203244473785162"><ele></ele><time>2013-8-1T14:12:46Z</time></trkpt>
<trkpt lat="46.10990202985704" lon="7.203219663351774"><ele></ele><time>2013-8-1T14:12:49Z</time></trkpt>
<trkpt lat="46.10986305400729" lon="7.203204156830907"><ele></ele><time>2013-8-1T14:12:52Z</time></trkpt>
<trkpt lat="46.10982717946172" lon="7.203189907595515"><ele></ele><time>2013-8-1T14:12:55Z</time></trkpt>
<trkpt lat="46.10980102792382" lon="7.2031771671026945"><ele></ele><time>2013-8-1T14:12:58Z</time></trkpt>
<trkpt lat="46.109774792566895" lon="7.2031645104289055"><ele></ele><time>2013-8-1T14:13:1Z</time></trkpt>
<trkpt lat="46.109752329066396" lon="7.203181106597185"><ele></ele><time>2013-8-1T14:13:4Z</time></trkpt>
<trkpt lat="46.10974621027708" lon="7.203225279226899"><ele></ele><time>2013-8-1T14:13:7Z</time></trkpt>
<trkpt lat="46.10974218696356" lon="7.203266937285662"><ele></ele><time>2013-8-1T14:13:10Z</time></trkpt>
<trkpt lat="46.10974780283868" lon="7.203313624486327"><ele></ele><time>2013-8-1T14:13:13Z</time></trkpt>
<trkpt lat="46.109760040417314" lon="7.203374896198511"><ele></ele><time>2013-8-1T14:13:16Z</time></trkpt>
<trkpt lat="46.109766913577914" lon="7.203437760472298"><ele></ele><time>2013-8-1T14:13:19Z</time></trkpt>
<trkpt lat="46.109762974083424" lon="7.203494422137737"><ele></ele><time>2013-8-1T14:13:22Z</time></trkpt>
<trkpt lat="46.109764985740185" lon="7.203550580888987"><ele></ele><time>2013-8-1T14:13:25Z</time></trkpt>
<trkpt lat="46.10977252945304" lon="7.203595926985145"><ele></ele><time>2013-8-1T14:13:28Z</time></trkpt>
<trkpt lat="46.10978820361197" lon="7.20364605076611"><ele></ele><time>2013-8-1T14:13:31Z</time></trkpt>
<trkpt lat="46.109799267724156" lon="7.203700533136725"><ele></ele><time>2013-8-1T14:13:34Z</time></trkpt>
<trkpt lat="46.10981150530279" lon="7.203755602240562"><ele></ele><time>2013-8-1T14:13:37Z</time></trkpt>
<trkpt lat="46.109830532222986" lon="7.203802289441228"><ele></ele><time>2013-8-1T14:13:40Z</time></trkpt>
<trkpt lat="46.109845200553536" lon="7.203854341059923"><ele></ele><time>2013-8-1T14:13:43Z</time></trkpt>
<trkpt lat="46.109858360141516" lon="7.203899770975113"><ele></ele><time>2013-8-1T14:13:46Z</time></trkpt>
<trkpt lat="46.10986674204469" lon="7.20395140349865"><ele></ele><time>2013-8-1T14:13:49Z</time></trkpt>
<trkpt lat="46.109877806156874" lon="7.203992391005158"><ele></ele><time>2013-8-1T14:13:52Z</time></trkpt>
<trkpt lat="46.10988677479327" lon="7.204026337713003"><ele></ele><time>2013-8-1T14:13:55Z</time></trkpt>
<trkpt lat="46.109891552478075" lon="7.204052992165089"><ele></ele><time>2013-8-1T14:13:58Z</time></trkpt>
<trkpt lat="46.1098955757916" lon="7.204086435958743"><ele></ele><time>2013-8-1T14:14:1Z</time></trkpt>
<trkpt lat="46.109905717894435" lon="7.20412733964622"><ele></ele><time>2013-8-1T14:14:4Z</time></trkpt>
<trkpt lat="46.10991183668375" lon="7.2041788045316935"><ele></ele><time>2013-8-1T14:14:7Z</time></trkpt>
<trkpt lat="46.109921392053366" lon="7.204224485903978"><ele></ele><time>2013-8-1T14:14:10Z</time></trkpt>
<trkpt lat="46.109917787835" lon="7.204269412904978"><ele></ele><time>2013-8-1T14:14:13Z</time></trkpt>
<trkpt lat="46.10990990884602" lon="7.204313920810819"><ele></ele><time>2013-8-1T14:14:16Z</time></trkpt>
<trkpt lat="46.10990555025637" lon="7.20436236821115"><ele></ele><time>2013-8-1T14:14:19Z</time></trkpt>
<trkpt lat="46.10991049557924" lon="7.204415258020163"><ele></ele><time>2013-8-1T14:14:22Z</time></trkpt>
<trkpt lat="46.10992642119527" lon="7.204457921907306"><ele></ele><time>2013-8-1T14:14:25Z</time></trkpt>
<trkpt lat="46.10994100570679" lon="7.204492958262563"><ele></ele><time>2013-8-1T14:14:28Z</time></trkpt>
<trkpt lat="46.10995877534151" lon="7.204544255509973"><ele></ele><time>2013-8-1T14:14:31Z</time></trkpt>
<trkpt lat="46.109968246892095" lon="7.204603431746364"><ele></ele><time>2013-8-1T14:14:34Z</time></trkpt>
<trkpt lat="46.10997478477657" lon="7.2047362849116325"><ele></ele><time>2013-8-1T14:14:37Z</time></trkpt>
<trkpt lat="46.109974617138505" lon="7.204794203862548"><ele></ele><time>2013-8-1T14:14:40Z</time></trkpt>
<trkpt lat="46.10997285693884" lon="7.204852206632495"><ele></ele><time>2013-8-1T14:14:43Z</time></trkpt>
<trkpt lat="46.10996849834919" lon="7.204905683174729"><ele></ele><time>2013-8-1T14:14:46Z</time></trkpt>
<trkpt lat="46.10997436568141" lon="7.204949855804443"><ele></ele><time>2013-8-1T14:14:49Z</time></trkpt>
<trkpt lat="46.10997864045203" lon="7.204996291548014"><ele></ele><time>2013-8-1T14:14:52Z</time></trkpt>
<trkpt lat="46.10997914336622" lon="7.20504105091095"><ele></ele><time>2013-8-1T14:14:55Z</time></trkpt>
<trkpt lat="46.109981490299106" lon="7.205079942941666"><ele></ele><time>2013-8-1T14:14:58Z</time></trkpt>
<trkpt lat="46.109985345974565" lon="7.2051215171813965"><ele></ele><time>2013-8-1T14:15:1Z</time></trkpt>
<trkpt lat="46.109993644058704" lon="7.205160912126303"><ele></ele><time>2013-8-1T14:15:4Z</time></trkpt>
<trkpt lat="46.10999506898224" lon="7.205209443345666"><ele></ele><time>2013-8-1T14:15:7Z</time></trkpt>
<trkpt lat="46.10999925993383" lon="7.205257806926966"><ele></ele><time>2013-8-1T14:15:10Z</time></trkpt>
<trkpt lat="46.10999967902899" lon="7.20530491322279"><ele></ele><time>2013-8-1T14:15:13Z</time></trkpt>
<trkpt lat="46.110002025961876" lon="7.205353947356343"><ele></ele><time>2013-8-1T14:15:16Z</time></trkpt>
<trkpt lat="46.10999749973416" lon="7.205405496060848"><ele></ele><time>2013-8-1T14:15:19Z</time></trkpt>
<trkpt lat="46.10998576506972" lon="7.205459140241146"><ele></ele><time>2013-8-1T14:15:22Z</time></trkpt>
<trkpt lat="46.10997134819627" lon="7.205505911260843"><ele></ele><time>2013-8-1T14:15:25Z</time></trkpt>
<trkpt lat="46.10995693132281" lon="7.205550754442811"><ele></ele><time>2013-8-1T14:15:28Z</time></trkpt>
<trkpt lat="46.1099489685148" lon="7.205593334510922"><ele></ele><time>2013-8-1T14:15:31Z</time></trkpt>
<trkpt lat="46.109941340982914" lon="7.205629628151655"><ele></ele><time>2013-8-1T14:15:34Z</time></trkpt>
<trkpt lat="46.10995475202799" lon="7.205663155764341"><ele></ele><time>2013-8-1T14:15:37Z</time></trkpt>
<trkpt lat="46.10995860770345" lon="7.205708418041468"><ele></ele><time>2013-8-1T14:15:40Z</time></trkpt>
<trkpt lat="46.10996715724468" lon="7.205751584842801"><ele></ele><time>2013-8-1T14:15:43Z</time></trkpt>
<trkpt lat="46.10997034236789" lon="7.2057970985770226"><ele></ele><time>2013-8-1T14:15:46Z</time></trkpt>
<trkpt lat="46.10997822135687" lon="7.2058400977402925"><ele></ele><time>2013-8-1T14:15:49Z</time></trkpt>
<trkpt lat="46.10999180004001" lon="7.205886198207736"><ele></ele><time>2013-8-1T14:15:52Z</time></trkpt>
<trkpt lat="46.110009318217635" lon="7.205927018076181"><ele></ele><time>2013-8-1T14:15:55Z</time></trkpt>
<trkpt lat="46.11002909950912" lon="7.205987703055143"><ele></ele><time>2013-8-1T14:15:58Z</time></trkpt>
<trkpt lat="46.11005307175219" lon="7.2060417663306"><ele></ele><time>2013-8-1T14:16:1Z</time></trkpt>
<trkpt lat="46.11007545143366" lon="7.206107648089528"><ele></ele><time>2013-8-1T14:16:4Z</time></trkpt>
<trkpt lat="46.1100993398577" lon="7.206198507919908"><ele></ele><time>2013-8-1T14:16:7Z</time></trkpt>
<trkpt lat="46.11012280918658" lon="7.206290205940604"><ele></ele><time>2013-8-1T14:16:10Z</time></trkpt>
<trkpt lat="46.11014284193516" lon="7.206390453502536"><ele></ele><time>2013-8-1T14:16:13Z</time></trkpt>
<trkpt lat="46.110161282122135" lon="7.206474523991346"><ele></ele><time>2013-8-1T14:16:16Z</time></trkpt>
<trkpt lat="46.11018433235586" lon="7.2065321914851665"><ele></ele><time>2013-8-1T14:16:19Z</time></trkpt>
<trkpt lat="46.1102061253041" lon="7.206593630835414"><ele></ele><time>2013-8-1T14:16:22Z</time></trkpt>
<trkpt lat="46.11024208366871" lon="7.2066473588347435"><ele></ele><time>2013-8-1T14:16:25Z</time></trkpt>
<trkpt lat="46.110273683443666" lon="7.206712402403355"><ele></ele><time>2013-8-1T14:16:28Z</time></trkpt>
<trkpt lat="46.11030905507505" lon="7.206764621660113"><ele></ele><time>2013-8-1T14:16:31Z</time></trkpt>
<trkpt lat="46.11033193767071" lon="7.206809381023049"><ele></ele><time>2013-8-1T14:16:34Z</time></trkpt>
<trkpt lat="46.11035783775151" lon="7.206836957484484"><ele></ele><time>2013-8-1T14:16:37Z</time></trkpt>
<trkpt lat="46.110367057845" lon="7.206878280267119"><ele></ele><time>2013-8-1T14:16:40Z</time></trkpt>
<trkpt lat="46.11033897846937" lon="7.206884566694498"><ele></ele><time>2013-8-1T14:16:43Z</time></trkpt>
<trkpt lat="46.11031802371144" lon="7.20686805434525"><ele></ele><time>2013-8-1T14:16:46Z</time></trkpt>
<trkpt lat="46.110282903537154" lon="7.2068652883172035"><ele></ele><time>2013-8-1T14:16:49Z</time></trkpt>
<trkpt lat="46.110239401459694" lon="7.206863695755601"><ele></ele><time>2013-8-1T14:16:52Z</time></trkpt>
<trkpt lat="46.11019288189709" lon="7.206869646906853"><ele></ele><time>2013-8-1T14:16:55Z</time></trkpt>
<trkpt lat="46.11014921218157" lon="7.2068944573402405"><ele></ele><time>2013-8-1T14:16:58Z</time></trkpt>
<trkpt lat="46.11011543311179" lon="7.206932008266449"><ele></ele><time>2013-8-1T14:17:1Z</time></trkpt>
<trkpt lat="46.1100990884006" lon="7.206997303292155"><ele></ele><time>2013-8-1T14:17:4Z</time></trkpt>
<trkpt lat="46.11010688357055" lon="7.207064274698496"><ele></ele><time>2013-8-1T14:17:7Z</time></trkpt>
<trkpt lat="46.11011987552047" lon="7.207128228619695"><ele></ele><time>2013-8-1T14:17:10Z</time></trkpt>
<trkpt lat="46.11012448556721" lon="7.207179944962263"><ele></ele><time>2013-8-1T14:17:13Z</time></trkpt>
<trkpt lat="46.11014476977289" lon="7.207214226946235"><ele></ele><time>2013-8-1T14:17:16Z</time></trkpt>
<trkpt lat="46.11018416471779" lon="7.207224369049072"><ele></ele><time>2013-8-1T14:17:19Z</time></trkpt>
<trkpt lat="46.110222386196256" lon="7.2072315774858"><ele></ele><time>2013-8-1T14:17:22Z</time></trkpt>
<trkpt lat="46.11027292907238" lon="7.207222860306501"><ele></ele><time>2013-8-1T14:17:25Z</time></trkpt>
<trkpt lat="46.110325483605266" lon="7.207214646041393"><ele></ele><time>2013-8-1T14:17:28Z</time></trkpt>
<trkpt lat="46.11037761904299" lon="7.207213807851076"><ele></ele><time>2013-8-1T14:17:31Z</time></trkpt>
<trkpt lat="46.11041257157922" lon="7.207237025722861"><ele></ele><time>2013-8-1T14:17:34Z</time></trkpt>
<trkpt lat="46.110443249344826" lon="7.207275331020355"><ele></ele><time>2013-8-1T14:17:37Z</time></trkpt>
<trkpt lat="46.11047359183431" lon="7.207322102040052"><ele></ele><time>2013-8-1T14:17:40Z</time></trkpt>
<trkpt lat="46.11051868647337" lon="7.20734154805541"><ele></ele><time>2013-8-1T14:17:43Z</time></trkpt>
<trkpt lat="46.11054894514382" lon="7.207362083718181"><ele></ele><time>2013-8-1T14:17:46Z</time></trkpt>
<trkpt lat="46.11058507114649" lon="7.207380020990968"><ele></ele><time>2013-8-1T14:17:49Z</time></trkpt>
<trkpt lat="46.11061843112111" lon="7.207407429814339"><ele></ele><time>2013-8-1T14:17:52Z</time></trkpt>
<trkpt lat="46.11064315773547" lon="7.20744120888412"><ele></ele><time>2013-8-1T14:17:55Z</time></trkpt>
<trkpt lat="46.110681211575866" lon="7.207492338493466"><ele></ele><time>2013-8-1T14:17:58Z</time></trkpt>
<trkpt lat="46.11071742139757" lon="7.20756190828979"><ele></ele><time>2013-8-1T14:18:1Z</time></trkpt>
<trkpt lat="46.1107431538403" lon="7.207612199708819"><ele></ele><time>2013-8-1T14:18:4Z</time></trkpt>
<trkpt lat="46.11075170338154" lon="7.207650924101472"><ele></ele><time>2013-8-1T14:18:7Z</time></trkpt>
<trkpt lat="46.11076595261693" lon="7.20768503844738"><ele></ele><time>2013-8-1T14:18:10Z</time></trkpt>
<trkpt lat="46.11078598536551" lon="7.207723176106811"><ele></ele><time>2013-8-1T14:18:13Z</time></trkpt>
<trkpt lat="46.11080450937152" lon="7.207761984318495"><ele></ele><time>2013-8-1T14:18:16Z</time></trkpt>
<trkpt lat="46.11081515438855" lon="7.2077947575598955"><ele></ele><time>2013-8-1T14:18:19Z</time></trkpt>
<trkpt lat="46.11082621850073" lon="7.207830799743533"><ele></ele><time>2013-8-1T14:18:22Z</time></trkpt>
<trkpt lat="46.11084566451609" lon="7.207885198295116"><ele></ele><time>2013-8-1T14:18:25Z</time></trkpt>
<trkpt lat="46.11085874028504" lon="7.207905985414982"><ele></ele><time>2013-8-1T14:18:28Z</time></trkpt>
<trkpt lat="46.110865864902735" lon="7.2079305443912745"><ele></ele><time>2013-8-1T14:18:31Z</time></trkpt>
<trkpt lat="46.11087433062494" lon="7.207952169701457"><ele></ele><time>2013-8-1T14:18:34Z</time></trkpt>
<trkpt lat="46.110881539061666" lon="7.207980500534177"><ele></ele><time>2013-8-1T14:18:37Z</time></trkpt>
<trkpt lat="46.1108919326216" lon="7.208009921014309"><ele></ele><time>2013-8-1T14:18:40Z</time></trkpt>
<trkpt lat="46.11090467311442" lon="7.208042861893773"><ele></ele><time>2013-8-1T14:18:43Z</time></trkpt>
<trkpt lat="46.110914312303066" lon="7.208074880763888"><ele></ele><time>2013-8-1T14:18:46Z</time></trkpt>
<trkpt lat="46.11092680133879" lon="7.208105977624655"><ele></ele><time>2013-8-1T14:18:49Z</time></trkpt>
<trkpt lat="46.11093954183161" lon="7.208141013979912"><ele></ele><time>2013-8-1T14:18:52Z</time></trkpt>
<trkpt lat="46.11095655709505" lon="7.208173451945186"><ele></ele><time>2013-8-1T14:18:55Z</time></trkpt>
<trkpt lat="46.11096762120724" lon="7.2082120925188065"><ele></ele><time>2013-8-1T14:18:58Z</time></trkpt>
<trkpt lat="46.11097818240523" lon="7.208259869366884"><ele></ele><time>2013-8-1T14:19:1Z</time></trkpt>
<trkpt lat="46.11099033616483" lon="7.208299012854695"><ele></ele><time>2013-8-1T14:19:4Z</time></trkpt>
<trkpt lat="46.11100114881992" lon="7.208343353122473"><ele></ele><time>2013-8-1T14:19:7Z</time></trkpt>
<trkpt lat="46.111011458560824" lon="7.208394901826978"><ele></ele><time>2013-8-1T14:19:10Z</time></trkpt>
<trkpt lat="46.111012464389205" lon="7.208418035879731"><ele></ele><time>2013-8-1T14:19:13Z</time></trkpt>
<trkpt lat="46.11101531423628" lon="7.208434548228979"><ele></ele><time>2013-8-1T14:19:16Z</time></trkpt>
<trkpt lat="46.11100986599922" lon="7.20845902338624"><ele></ele><time>2013-8-1T14:19:19Z</time></trkpt>
<trkpt lat="46.11098438501358" lon="7.208469584584236"><ele></ele><time>2013-8-1T14:19:22Z</time></trkpt>
<trkpt lat="46.11094968393445" lon="7.208460448309779"><ele></ele><time>2013-8-1T14:19:25Z</time></trkpt>
<trkpt lat="46.110855136066675" lon="7.208425663411617"><ele></ele><time>2013-8-1T14:19:28Z</time></trkpt>
<trkpt lat="46.11080517992377" lon="7.208409570157528"><ele></ele><time>2013-8-1T14:19:31Z</time></trkpt>
<trkpt lat="46.11075723543763" lon="7.208390794694424"><ele></ele><time>2013-8-1T14:19:34Z</time></trkpt>
<trkpt lat="46.11070870421827" lon="7.2083687502890825"><ele></ele><time>2013-8-1T14:19:37Z</time></trkpt>
<trkpt lat="46.11066536977887" lon="7.20834762789309"><ele></ele><time>2013-8-1T14:19:40Z</time></trkpt>
<trkpt lat="46.110615245997906" lon="7.208316950127482"><ele></ele><time>2013-8-1T14:19:43Z</time></trkpt>
<trkpt lat="46.11056847497821" lon="7.208299348130822"><ele></ele><time>2013-8-1T14:19:46Z</time></trkpt>
<trkpt lat="46.1105240508914" lon="7.208289122208953"><ele></ele><time>2013-8-1T14:19:49Z</time></trkpt>
<trkpt lat="46.1104825604707" lon="7.208262886852026"><ele></ele><time>2013-8-1T14:19:52Z</time></trkpt>
<trkpt lat="46.110439812764525" lon="7.208239585161209"><ele></ele><time>2013-8-1T14:19:55Z</time></trkpt>
<trkpt lat="46.110386587679386" lon="7.2082397527992725"><ele></ele><time>2013-8-1T14:19:58Z</time></trkpt>
<trkpt lat="46.110334787517786" lon="7.208258109167218"><ele></ele><time>2013-8-1T14:20:1Z</time></trkpt>
<trkpt lat="46.11027779057622" lon="7.2082786448299885"><ele></ele><time>2013-8-1T14:20:4Z</time></trkpt>
<trkpt lat="46.11021492630243" lon="7.208302281796932"><ele></ele><time>2013-8-1T14:20:7Z</time></trkpt>
<trkpt lat="46.110150469467044" lon="7.208313848823309"><ele></ele><time>2013-8-1T14:20:10Z</time></trkpt>
<trkpt lat="46.110088443383574" lon="7.208342682570219"><ele></ele><time>2013-8-1T14:20:13Z</time></trkpt>
<trkpt lat="46.11002775840461" lon="7.208370929583907"><ele></ele><time>2013-8-1T14:20:16Z</time></trkpt>
<trkpt lat="46.10997193492949" lon="7.208376042544842"><ele></ele><time>2013-8-1T14:20:19Z</time></trkpt>
<trkpt lat="46.109924325719476" lon="7.208377970382571"><ele></ele><time>2013-8-1T14:20:22Z</time></trkpt>
<trkpt lat="46.10988652333617" lon="7.208367744460702"><ele></ele><time>2013-8-1T14:20:25Z</time></trkpt>
<trkpt lat="46.109843188896775" lon="7.208364978432655"><ele></ele><time>2013-8-1T14:20:28Z</time></trkpt>
<trkpt lat="46.10980714671314" lon="7.208354584872723"><ele></ele><time>2013-8-1T14:20:31Z</time></trkpt>
<trkpt lat="46.10976758413017" lon="7.208343017846346"><ele></ele><time>2013-8-1T14:20:34Z</time></trkpt>
<trkpt lat="46.10973355360329" lon="7.208338240161538"><ele></ele><time>2013-8-1T14:20:37Z</time></trkpt>
<trkpt lat="46.10969784669578" lon="7.208339581266046"><ele></ele><time>2013-8-1T14:20:40Z</time></trkpt>
<trkpt lat="46.109663816168904" lon="7.208339413627982"><ele></ele><time>2013-8-1T14:20:43Z</time></trkpt>
<trkpt lat="46.10963087528944" lon="7.208335306495428"><ele></ele><time>2013-8-1T14:20:46Z</time></trkpt>
<trkpt lat="46.10959701240063" lon="7.208327259868383"><ele></ele><time>2013-8-1T14:20:49Z</time></trkpt>
<trkpt lat="46.10956490971148" lon="7.2083234041929245"><ele></ele><time>2013-8-1T14:20:52Z</time></trkpt>
<trkpt lat="46.109525598585606" lon="7.208310998976231"><ele></ele><time>2013-8-1T14:20:55Z</time></trkpt>
<trkpt lat="46.10949223861098" lon="7.208313345909119"><ele></ele><time>2013-8-1T14:20:58Z</time></trkpt>
<trkpt lat="46.10946809872985" lon="7.208315692842007"><ele></ele><time>2013-8-1T14:21:1Z</time></trkpt>
<trkpt lat="46.10944521613419" lon="7.208308065310121"><ele></ele><time>2013-8-1T14:21:4Z</time></trkpt>
<trkpt lat="46.10941554419696" lon="7.208300186321139"><ele></ele><time>2013-8-1T14:21:7Z</time></trkpt>
<trkpt lat="46.10938562080264" lon="7.208291552960873"><ele></ele><time>2013-8-1T14:21:10Z</time></trkpt>
<trkpt lat="46.10935418866575" lon="7.208290379494429"><ele></ele><time>2013-8-1T14:21:13Z</time></trkpt>
<trkpt lat="46.10932250507176" lon="7.208284931257367"><ele></ele><time>2013-8-1T14:21:16Z</time></trkpt>
<trkpt lat="46.10928679816425" lon="7.208293983712792"><ele></ele><time>2013-8-1T14:21:19Z</time></trkpt>
<trkpt lat="46.109256288036704" lon="7.208303287625313"><ele></ele><time>2013-8-1T14:21:22Z</time></trkpt>
<trkpt lat="46.10921706072986" lon="7.208297001197934"><ele></ele><time>2013-8-1T14:21:25Z</time></trkpt>
<trkpt lat="46.109176240861416" lon="7.208285434171557"><ele></ele><time>2013-8-1T14:21:28Z</time></trkpt>
<trkpt lat="46.109132152050734" lon="7.208268251270056"><ele></ele><time>2013-8-1T14:21:31Z</time></trkpt>
<trkpt lat="46.109094601124525" lon="7.208255929872394"><ele></ele><time>2013-8-1T14:21:34Z</time></trkpt>
<trkpt lat="46.10906694084406" lon="7.208285685628653"><ele></ele><time>2013-8-1T14:21:37Z</time></trkpt>
<trkpt lat="46.109057469293475" lon="7.208339665085077"><ele></ele><time>2013-8-1T14:21:40Z</time></trkpt>
<trkpt lat="46.10907532274723" lon="7.208372689783573"><ele></ele><time>2013-8-1T14:21:43Z</time></trkpt>
<trkpt lat="46.10910792835057" lon="7.208394315093756"><ele></ele><time>2013-8-1T14:21:46Z</time></trkpt>
<trkpt lat="46.10914623364806" lon="7.208421556279063"><ele></ele><time>2013-8-1T14:21:49Z</time></trkpt>
<trkpt lat="46.10918294638395" lon="7.208470506593585"><ele></ele><time>2013-8-1T14:21:52Z</time></trkpt>
<trkpt lat="46.109219659119844" lon="7.208522893488407"><ele></ele><time>2013-8-1T14:21:55Z</time></trkpt>
<trkpt lat="46.109302220866084" lon="7.208631942048669"><ele></ele><time>2013-8-1T14:21:58Z</time></trkpt>
<trkpt lat="46.10934781841934" lon="7.208696901798248"><ele></ele><time>2013-8-1T14:22:1Z</time></trkpt>
<trkpt lat="46.1093913204968" lon="7.208760101348162"><ele></ele><time>2013-8-1T14:22:4Z</time></trkpt>
<trkpt lat="46.10943113453686" lon="7.208835873752832"><ele></ele><time>2013-8-1T14:22:7Z</time></trkpt>
<trkpt lat="46.1094655841589" lon="7.2089106403291225"><ele></ele><time>2013-8-1T14:22:10Z</time></trkpt>
<trkpt lat="46.109506571665406" lon="7.208981299772859"><ele></ele><time>2013-8-1T14:22:13Z</time></trkpt>
<trkpt lat="46.109552504494786" lon="7.209049025550485"><ele></ele><time>2013-8-1T14:22:16Z</time></trkpt>
<trkpt lat="46.10960640013218" lon="7.2091147396713495"><ele></ele><time>2013-8-1T14:22:19Z</time></trkpt>
<trkpt lat="46.1096519138664" lon="7.209170814603567"><ele></ele><time>2013-8-1T14:22:22Z</time></trkpt>
<trkpt lat="46.10969038680196" lon="7.209221106022596"><ele></ele><time>2013-8-1T14:22:25Z</time></trkpt>
<trkpt lat="46.10972575843334" lon="7.209267541766167"><ele></ele><time>2013-8-1T14:22:28Z</time></trkpt>
<trkpt lat="46.1097536701709" lon="7.209318168461323"><ele></ele><time>2013-8-1T14:22:31Z</time></trkpt>
<trkpt lat="46.109780659899116" lon="7.20937030389905"><ele></ele><time>2013-8-1T14:22:34Z</time></trkpt>
<trkpt lat="46.10980832017958" lon="7.209419840946794"><ele></ele><time>2013-8-1T14:22:37Z</time></trkpt>
<trkpt lat="46.109830029308796" lon="7.209475580602884"><ele></ele><time>2013-8-1T14:22:40Z</time></trkpt>
<trkpt lat="46.109854839742184" lon="7.209530817344785"><ele></ele><time>2013-8-1T14:22:43Z</time></trkpt>
<trkpt lat="46.109868166968226" lon="7.209591502323747"><ele></ele><time>2013-8-1T14:22:46Z</time></trkpt>
<trkpt lat="46.109882332384586" lon="7.209644811227918"><ele></ele><time>2013-8-1T14:22:49Z</time></trkpt>
<trkpt lat="46.109901275485754" lon="7.2097070049494505"><ele></ele><time>2013-8-1T14:22:52Z</time></trkpt>
<trkpt lat="46.10991904512048" lon="7.209767354652286"><ele></ele><time>2013-8-1T14:22:55Z</time></trkpt>
<trkpt lat="46.10993731766939" lon="7.209823681041598"><ele></ele><time>2013-8-1T14:22:58Z</time></trkpt>
<trkpt lat="46.10995206981897" lon="7.209874726831913"><ele></ele><time>2013-8-1T14:23:1Z</time></trkpt>
<trkpt lat="46.10996506176889" lon="7.209929125383496"><ele></ele><time>2013-8-1T14:23:4Z</time></trkpt>
<trkpt lat="46.10997386276722" lon="7.209986709058285"><ele></ele><time>2013-8-1T14:23:7Z</time></trkpt>
<trkpt lat="46.10998475924134" lon="7.210055440664291"><ele></ele><time>2013-8-1T14:23:10Z</time></trkpt>
<trkpt lat="46.11000169068575" lon="7.210113862529397"><ele></ele><time>2013-8-1T14:23:13Z</time></trkpt>
<trkpt lat="46.11001778393984" lon="7.2101737931370735"><ele></ele><time>2013-8-1T14:23:16Z</time></trkpt>
<trkpt lat="46.11003396101296" lon="7.210248475894332"><ele></ele><time>2013-8-1T14:23:19Z</time></trkpt>
<trkpt lat="46.11006170511246" lon="7.210315195843577"><ele></ele><time>2013-8-1T14:23:22Z</time></trkpt>
<trkpt lat="46.1100784689188" lon="7.2103796526789665"><ele></ele><time>2013-8-1T14:23:25Z</time></trkpt>
<trkpt lat="46.11008936539292" lon="7.210448384284973"><ele></ele><time>2013-8-1T14:23:28Z</time></trkpt>
<trkpt lat="46.11009129323065" lon="7.210511416196823"><ele></ele><time>2013-8-1T14:23:31Z</time></trkpt>
<trkpt lat="46.110096825286746" lon="7.210582075640559"><ele></ele><time>2013-8-1T14:23:34Z</time></trkpt>
<trkpt lat="46.11010193824768" lon="7.210649298503995"><ele></ele><time>2013-8-1T14:23:37Z</time></trkpt>
<trkpt lat="46.11010923050344" lon="7.210709732025862"><ele></ele><time>2013-8-1T14:23:40Z</time></trkpt>
<trkpt lat="46.110124569386244" lon="7.210760861635208"><ele></ele><time>2013-8-1T14:23:43Z</time></trkpt>
<trkpt lat="46.110142674297094" lon="7.210814841091633"><ele></ele><time>2013-8-1T14:23:46Z</time></trkpt>
<trkpt lat="46.11016480252147" lon="7.210863120853901"><ele></ele><time>2013-8-1T14:23:49Z</time></trkpt>
<trkpt lat="46.11019472591579" lon="7.2109053656458855"><ele></ele><time>2013-8-1T14:23:52Z</time></trkpt>
<trkpt lat="46.1102182790637" lon="7.210946269333363"><ele></ele><time>2013-8-1T14:23:55Z</time></trkpt>
<trkpt lat="46.110242418944836" lon="7.210991783067584"><ele></ele><time>2013-8-1T14:23:58Z</time></trkpt>
<trkpt lat="46.11027016304433" lon="7.2110390570014715"><ele></ele><time>2013-8-1T14:24:1Z</time></trkpt>
<trkpt lat="46.110297068953514" lon="7.211081804707646"><ele></ele><time>2013-8-1T14:24:4Z</time></trkpt>
<trkpt lat="46.110326405614614" lon="7.21111424267292"><ele></ele><time>2013-8-1T14:24:7Z</time></trkpt>
<trkpt lat="46.11035012640059" lon="7.211137292906642"><ele></ele><time>2013-8-1T14:24:10Z</time></trkpt>
<trkpt lat="46.11036856658757" lon="7.211163025349379"><ele></ele><time>2013-8-1T14:24:13Z</time></trkpt>
<trkpt lat="46.1103805527091" lon="7.2111972235143185"><ele></ele><time>2013-8-1T14:24:16Z</time></trkpt>
<trkpt lat="46.11037124879658" lon="7.211207617074251"><ele></ele><time>2013-8-1T14:24:19Z</time></trkpt>
<trkpt lat="46.110372841358185" lon="7.211219351738691"><ele></ele><time>2013-8-1T14:24:22Z</time></trkpt>
<trkpt lat="46.110370829701424" lon="7.211230834946036"><ele></ele><time>2013-8-1T14:24:25Z</time></trkpt>
<trkpt lat="46.11034048721194" lon="7.2112861555069685"><ele></ele><time>2013-8-1T14:24:28Z</time></trkpt>
<trkpt lat="46.11032665707171" lon="7.211326723918319"><ele></ele><time>2013-8-1T14:24:31Z</time></trkpt>
<trkpt lat="46.11031039617956" lon="7.2113871574401855"><ele></ele><time>2013-8-1T14:24:34Z</time></trkpt>
<trkpt lat="46.110301008448005" lon="7.211462175473571"><ele></ele><time>2013-8-1T14:24:37Z</time></trkpt>
<trkpt lat="46.11028986051679" lon="7.211543060839176"><ele></ele><time>2013-8-1T14:24:40Z</time></trkpt>
<trkpt lat="46.110271755605936" lon="7.211619084700942"><ele></ele><time>2013-8-1T14:24:43Z</time></trkpt>
<trkpt lat="46.110258512198925" lon="7.211713045835495"><ele></ele><time>2013-8-1T14:24:46Z</time></trkpt>
<trkpt lat="46.1102478671819" lon="7.211807761341333"><ele></ele><time>2013-8-1T14:24:49Z</time></trkpt>
<trkpt lat="46.11023881472647" lon="7.2118945978581905"><ele></ele><time>2013-8-1T14:24:52Z</time></trkpt>
<trkpt lat="46.11020386219025" lon="7.212077239528298"><ele></ele><time>2013-8-1T14:24:55Z</time></trkpt>
<trkpt lat="46.11018357798457" lon="7.212173379957676"><ele></ele><time>2013-8-1T14:24:58Z</time></trkpt>
<trkpt lat="46.11017167568207" lon="7.212261473760009"><ele></ele><time>2013-8-1T14:25:1Z</time></trkpt>
<trkpt lat="46.11015725880861" lon="7.212355267256498"><ele></ele><time>2013-8-1T14:25:4Z</time></trkpt>
<trkpt lat="46.11014778725803" lon="7.2124438639730215"><ele></ele><time>2013-8-1T14:25:7Z</time></trkpt>
<trkpt lat="46.11013672314584" lon="7.212524665519595"><ele></ele><time>2013-8-1T14:25:10Z</time></trkpt>
<trkpt lat="46.110126078128815" lon="7.212604712694883"><ele></ele><time>2013-8-1T14:25:13Z</time></trkpt>
<trkpt lat="46.110119288787246" lon="7.2126738633960485"><ele></ele><time>2013-8-1T14:25:16Z</time></trkpt>
<trkpt lat="46.110118282958865" lon="7.212730944156647"><ele></ele><time>2013-8-1T14:25:19Z</time></trkpt>
<trkpt lat="46.110117360949516" lon="7.21278291195631"><ele></ele><time>2013-8-1T14:25:22Z</time></trkpt>
<trkpt lat="46.110110403969884" lon="7.212822642177343"><ele></ele><time>2013-8-1T14:25:25Z</time></trkpt>
<trkpt lat="46.11011249944568" lon="7.212859019637108"><ele></ele><time>2013-8-1T14:25:28Z</time></trkpt>
<trkpt lat="46.110121635720134" lon="7.212899252772331"><ele></ele><time>2013-8-1T14:25:31Z</time></trkpt>
<trkpt lat="46.11012775450945" lon="7.212927918881178"><ele></ele><time>2013-8-1T14:25:34Z</time></trkpt>
<trkpt lat="46.11011895351112" lon="7.212951136752963"><ele></ele><time>2013-8-1T14:25:37Z</time></trkpt>
<trkpt lat="46.11011115834117" lon="7.212979299947619"><ele></ele><time>2013-8-1T14:25:40Z</time></trkpt>
<trkpt lat="46.11010286025703" lon="7.213013330474496"><ele></ele><time>2013-8-1T14:25:43Z</time></trkpt>
<trkpt lat="46.11008936539292" lon="7.21305993385613"><ele></ele><time>2013-8-1T14:25:46Z</time></trkpt>
<trkpt lat="46.110079726204276" lon="7.213078290224075"><ele></ele><time>2013-8-1T14:25:49Z</time></trkpt>
<trkpt lat="46.11006874591112" lon="7.213087845593691"><ele></ele><time>2013-8-1T14:25:52Z</time></trkpt>
<trkpt lat="46.110062040388584" lon="7.213093796744943"><ele></ele><time>2013-8-1T14:25:55Z</time></trkpt>
<trkpt lat="46.11004854552448" lon="7.213111063465476"><ele></ele><time>2013-8-1T14:25:58Z</time></trkpt>
<trkpt lat="46.110026417300105" lon="7.2131559904664755"><ele></ele><time>2013-8-1T14:26:1Z</time></trkpt>
<trkpt lat="46.11002524383366" lon="7.2131801303476095"><ele></ele><time>2013-8-1T14:26:4Z</time></trkpt>
<trkpt lat="46.11002339981496" lon="7.2132007498294115"><ele></ele><time>2013-8-1T14:26:7Z</time></trkpt>
<trkpt lat="46.11001434735954" lon="7.213221872225404"><ele></ele><time>2013-8-1T14:26:10Z</time></trkpt>
<trkpt lat="46.110005881637335" lon="7.213239977136254"><ele></ele><time>2013-8-1T14:26:13Z</time></trkpt>
<trkpt lat="46.109934048727155" lon="7.213392443954945"><ele></ele><time>2013-8-1T14:26:16Z</time></trkpt>
<trkpt lat="46.109881745651364" lon="7.213462349027395"><ele></ele><time>2013-8-1T14:26:19Z</time></trkpt>
<trkpt lat="46.10986992716789" lon="7.213492188602686"><ele></ele><time>2013-8-1T14:26:22Z</time></trkpt>
<trkpt lat="46.10985819250345" lon="7.213519345968962"><ele></ele><time>2013-8-1T14:26:25Z</time></trkpt>
<trkpt lat="46.10984729602933" lon="7.213546587154269"><ele></ele><time>2013-8-1T14:26:28Z</time></trkpt>
<trkpt lat="46.10984000377357" lon="7.213574917986989"><ele></ele><time>2013-8-1T14:26:31Z</time></trkpt>
<trkpt lat="46.1098297778517" lon="7.213609283789992"><ele></ele><time>2013-8-1T14:26:34Z</time></trkpt>
<trkpt lat="46.109816785901785" lon="7.213644152507186"><ele></ele><time>2013-8-1T14:26:37Z</time></trkpt>
<trkpt lat="46.109802117571235" lon="7.2136869840323925"><ele></ele><time>2013-8-1T14:26:40Z</time></trkpt>
<trkpt lat="46.10978342592716" lon="7.213739287108183"><ele></ele><time>2013-8-1T14:26:43Z</time></trkpt>
<trkpt lat="46.10975936986506" lon="7.213792009279132"><ele></ele><time>2013-8-1T14:26:46Z</time></trkpt>
<trkpt lat="46.109733721241355" lon="7.213848335668445"><ele></ele><time>2013-8-1T14:26:49Z</time></trkpt>
<trkpt lat="46.10971117392182" lon="7.2139031533151865"><ele></ele><time>2013-8-1T14:26:52Z</time></trkpt>
<trkpt lat="46.10969080589712" lon="7.213952103629708"><ele></ele><time>2013-8-1T14:26:55Z</time></trkpt>
<trkpt lat="46.1096762213856" lon="7.214003317058086"><ele></ele><time>2013-8-1T14:26:58Z</time></trkpt>
<trkpt lat="46.10966364853084" lon="7.214044136926532"><ele></ele><time>2013-8-1T14:27:1Z</time></trkpt>
<trkpt lat="46.1096172966063" lon="7.214126195758581"><ele></ele><time>2013-8-1T14:27:4Z</time></trkpt>
<trkpt lat="46.10959416255355" lon="7.21413248218596"><ele></ele><time>2013-8-1T14:27:7Z</time></trkpt>
<trkpt lat="46.109578823670745" lon="7.214111024513841"><ele></ele><time>2013-8-1T14:27:10Z</time></trkpt>
<trkpt lat="46.10957597382367" lon="7.214077077805996"><ele></ele><time>2013-8-1T14:27:13Z</time></trkpt>
<trkpt lat="46.10957848839462" lon="7.214040532708168"><ele></ele><time>2013-8-1T14:27:16Z</time></trkpt>
<trkpt lat="46.10957379452884" lon="7.214000131934881"><ele></ele><time>2013-8-1T14:27:19Z</time></trkpt>
<trkpt lat="46.10956717282534" lon="7.213959144428372"><ele></ele><time>2013-8-1T14:27:22Z</time></trkpt>
<trkpt lat="46.10956541262567" lon="7.213918995112181"><ele></ele><time>2013-8-1T14:27:25Z</time></trkpt>
<trkpt lat="46.10956449061632" lon="7.213824363425374"><ele></ele><time>2013-8-1T14:27:28Z</time></trkpt>
<trkpt lat="46.10955133102834" lon="7.213765438646078"><ele></ele><time>2013-8-1T14:27:31Z</time></trkpt>
<trkpt lat="46.10953599214554" lon="7.213716069236398"><ele></ele><time>2013-8-1T14:27:34Z</time></trkpt>
<trkpt lat="46.109528951346874" lon="7.213670555502176"><ele></ele><time>2013-8-1T14:27:37Z</time></trkpt>
<trkpt lat="46.10952878370881" lon="7.213644320145249"><ele></ele><time>2013-8-1T14:27:40Z</time></trkpt>
<trkpt lat="46.10953071154654" lon="7.213638452813029"><ele></ele><time>2013-8-1T14:27:43Z</time></trkpt>
<trkpt lat="46.10953230410814" lon="7.213640213012695"><ele></ele><time>2013-8-1T14:27:46Z</time></trkpt>
<trkpt lat="46.10953230410814" lon="7.213640213012695"><ele></ele><time>2013-8-1T14:27:49Z</time></trkpt>
<trkpt lat="46.10952978953719" lon="7.213632082566619"><ele></ele><time>2013-8-1T14:27:52Z</time></trkpt>
<trkpt lat="46.10952635295689" lon="7.213576594367623"><ele></ele><time>2013-8-1T14:27:55Z</time></trkpt>
<trkpt lat="46.109528951346874" lon="7.213537115603685"><ele></ele><time>2013-8-1T14:27:58Z</time></trkpt>
<trkpt lat="46.109534399583936" lon="7.213535774499178"><ele></ele><time>2013-8-1T14:28:1Z</time></trkpt>
<trkpt lat="46.1095329746604" lon="7.213531248271465"><ele></ele><time>2013-8-1T14:28:4Z</time></trkpt>
<trkpt lat="46.109537333250046" lon="7.21350509673357"><ele></ele><time>2013-8-1T14:28:7Z</time></trkpt>
<trkpt lat="46.10953699797392" lon="7.213468216359615"><ele></ele><time>2013-8-1T14:28:10Z</time></trkpt>
<trkpt lat="46.10952635295689" lon="7.2132896818220615"><ele></ele><time>2013-8-1T14:28:13Z</time></trkpt>
<trkpt lat="46.10952174291015" lon="7.213209634646773"><ele></ele><time>2013-8-1T14:28:16Z</time></trkpt>
<trkpt lat="46.10951813869178" lon="7.213108465075493"><ele></ele><time>2013-8-1T14:28:19Z</time></trkpt>
<trkpt lat="46.10951059497893" lon="7.213011402636766"><ele></ele><time>2013-8-1T14:28:22Z</time></trkpt>
<trkpt lat="46.10951201990247" lon="7.212901767343283"><ele></ele><time>2013-8-1T14:28:25Z</time></trkpt>
<trkpt lat="46.10952911898494" lon="7.2127872705459595"><ele></ele><time>2013-8-1T14:28:28Z</time></trkpt>
<trkpt lat="46.109550995752215" lon="7.212524246424437"><ele></ele><time>2013-8-1T14:28:31Z</time></trkpt>
<trkpt lat="46.10954579897225" lon="7.2123985178768635"><ele></ele><time>2013-8-1T14:28:34Z</time></trkpt>
<trkpt lat="46.10952291637659" lon="7.212272956967354"><ele></ele><time>2013-8-1T14:28:37Z</time></trkpt>
<trkpt lat="46.10947597771883" lon="7.212149575352669"><ele></ele><time>2013-8-1T14:28:40Z</time></trkpt>
<trkpt lat="46.10943683423102" lon="7.212047735229135"><ele></ele><time>2013-8-1T14:28:43Z</time></trkpt>
<trkpt lat="46.109405821189284" lon="7.211962239816785"><ele></ele><time>2013-8-1T14:28:46Z</time></trkpt>
<trkpt lat="46.109370701014996" lon="7.211895268410444"><ele></ele><time>2013-8-1T14:28:49Z</time></trkpt>
<trkpt lat="46.109311105683446" lon="7.211843468248844"><ele></ele><time>2013-8-1T14:28:52Z</time></trkpt>
<trkpt lat="46.10924715176225" lon="7.211827794089913"><ele></ele><time>2013-8-1T14:28:55Z</time></trkpt>
<trkpt lat="46.109189400449395" lon="7.211771970614791"><ele></ele><time>2013-8-1T14:28:58Z</time></trkpt>
<trkpt lat="46.10913651064038" lon="7.211696282029152"><ele></ele><time>2013-8-1T14:29:1Z</time></trkpt>
<trkpt lat="46.109067192301154" lon="7.211637943983078"><ele></ele><time>2013-8-1T14:29:4Z</time></trkpt>
<trkpt lat="46.10899519175291" lon="7.211582791060209"><ele></ele><time>2013-8-1T14:29:7Z</time></trkpt>
<trkpt lat="46.108921095728874" lon="7.211522860452533"><ele></ele><time>2013-8-1T14:29:10Z</time></trkpt>
<trkpt lat="46.10884951427579" lon="7.211459828540683"><ele></ele><time>2013-8-1T14:29:13Z</time></trkpt>
<trkpt lat="46.108776926994324" lon="7.2113848105072975"><ele></ele><time>2013-8-1T14:29:16Z</time></trkpt>
<trkpt lat="46.10870241187513" lon="7.211289592087269"><ele></ele><time>2013-8-1T14:29:19Z</time></trkpt>
<trkpt lat="46.10863208770752" lon="7.211199318990111"><ele></ele><time>2013-8-1T14:29:22Z</time></trkpt>
<trkpt lat="46.108547849580646" lon="7.211104854941368"><ele></ele><time>2013-8-1T14:29:25Z</time></trkpt>
<trkpt lat="46.1084636952728" lon="7.21101407893002"><ele></ele><time>2013-8-1T14:29:28Z</time></trkpt>
<trkpt lat="46.10838230699301" lon="7.210911987349391"><ele></ele><time>2013-8-1T14:29:31Z</time></trkpt>
<trkpt lat="46.108297649770975" lon="7.210820959880948"><ele></ele><time>2013-8-1T14:29:34Z</time></trkpt>
<trkpt lat="46.108214082196355" lon="7.210733452811837"><ele></ele><time>2013-8-1T14:29:37Z</time></trkpt>
<trkpt lat="46.108140740543604" lon="7.2106594406068325"><ele></ele><time>2013-8-1T14:29:40Z</time></trkpt>
<trkpt lat="46.10806278884411" lon="7.2105923015624285"><ele></ele><time>2013-8-1T14:29:43Z</time></trkpt>
<trkpt lat="46.10797880217433" lon="7.210539495572448"><ele></ele><time>2013-8-1T14:29:46Z</time></trkpt>
<trkpt lat="46.10790051519871" lon="7.210493311285973"><ele></ele><time>2013-8-1T14:29:49Z</time></trkpt>
<trkpt lat="46.10781703144312" lon="7.210441343486309"><ele></ele><time>2013-8-1T14:29:52Z</time></trkpt>
<trkpt lat="46.10774343833327" lon="7.210369762033224"><ele></ele><time>2013-8-1T14:29:55Z</time></trkpt>
<trkpt lat="46.10766984522343" lon="7.2102809976786375"><ele></ele><time>2013-8-1T14:29:58Z</time></trkpt>
<trkpt lat="46.10758787021041" lon="7.210190976038575"><ele></ele><time>2013-8-1T14:30:1Z</time></trkpt>
<trkpt lat="46.10750145278871" lon="7.210120819509029"><ele></ele><time>2013-8-1T14:30:4Z</time></trkpt>
<trkpt lat="46.10742023214698" lon="7.210040437057614"><ele></ele><time>2013-8-1T14:30:7Z</time></trkpt>
<trkpt lat="46.10732744447887" lon="7.2099800035357475"><ele></ele><time>2013-8-1T14:30:10Z</time></trkpt>
<trkpt lat="46.107244631275535" lon="7.209943290799856"><ele></ele><time>2013-8-1T14:30:13Z</time></trkpt>
<trkpt lat="46.107162991538644" lon="7.20992392860353"><ele></ele><time>2013-8-1T14:30:16Z</time></trkpt>
<trkpt lat="46.107086883857846" lon="7.209925185889006"><ele></ele><time>2013-8-1T14:30:19Z</time></trkpt>
<trkpt lat="46.107018906623125" lon="7.2099169716238976"><ele></ele><time>2013-8-1T14:30:22Z</time></trkpt>
<trkpt lat="46.10694472678006" lon="7.209891323000193"><ele></ele><time>2013-8-1T14:30:25Z</time></trkpt>
<trkpt lat="46.10687314532697" lon="7.209840193390846"><ele></ele><time>2013-8-1T14:30:28Z</time></trkpt>
<trkpt lat="46.106802988797426" lon="7.209764588624239"><ele></ele><time>2013-8-1T14:30:31Z</time></trkpt>
<trkpt lat="46.10675822943449" lon="7.20970013178885"><ele></ele><time>2013-8-1T14:30:34Z</time></trkpt>
<trkpt lat="46.10671707428992" lon="7.209618408232927"><ele></ele><time>2013-8-1T14:30:37Z</time></trkpt>
<trkpt lat="46.106685139238834" lon="7.20952570438385"><ele></ele><time>2013-8-1T14:30:40Z</time></trkpt>
<trkpt lat="46.10665806569159" lon="7.2094157338142395"><ele></ele><time>2013-8-1T14:30:43Z</time></trkpt>
<trkpt lat="46.10661489889026" lon="7.209309954196215"><ele></ele><time>2013-8-1T14:30:46Z</time></trkpt>
<trkpt lat="46.10655781812966" lon="7.209233343601227"><ele></ele><time>2013-8-1T14:30:49Z</time></trkpt>
<trkpt lat="46.10650316812098" lon="7.209182465448976"><ele></ele><time>2013-8-1T14:30:52Z</time></trkpt>
<trkpt lat="46.106428569182754" lon="7.209156397730112"><ele></ele><time>2013-8-1T14:30:55Z</time></trkpt>
<trkpt lat="46.10635304823518" lon="7.209121277555823"><ele></ele><time>2013-8-1T14:30:58Z</time></trkpt>
<trkpt lat="46.10628683120012" lon="7.209079032763839"><ele></ele><time>2013-8-1T14:31:1Z</time></trkpt>
<trkpt lat="46.10622421838343" lon="7.209041146561503"><ele></ele><time>2013-8-1T14:31:4Z</time></trkpt>
<trkpt lat="46.10616076737642" lon="7.209031339734793"><ele></ele><time>2013-8-1T14:31:7Z</time></trkpt>
<trkpt lat="46.10610343515873" lon="7.209004517644644"><ele></ele><time>2013-8-1T14:31:10Z</time></trkpt>
<trkpt lat="46.106053814291954" lon="7.208969313651323"><ele></ele><time>2013-8-1T14:31:13Z</time></trkpt>
<trkpt lat="46.105996649712324" lon="7.208929667249322"><ele></ele><time>2013-8-1T14:31:16Z</time></trkpt>
<trkpt lat="46.10595348291099" lon="7.208894547075033"><ele></ele><time>2013-8-1T14:31:19Z</time></trkpt>
<trkpt lat="46.10592423006892" lon="7.208874598145485"><ele></ele><time>2013-8-1T14:31:22Z</time></trkpt>
<trkpt lat="46.10588500276208" lon="7.208831766620278"><ele></ele><time>2013-8-1T14:31:25Z</time></trkpt>
<trkpt lat="46.105859354138374" lon="7.208780217915773"><ele></ele><time>2013-8-1T14:31:28Z</time></trkpt>
<trkpt lat="46.10583714209497" lon="7.208714839071035"><ele></ele><time>2013-8-1T14:31:31Z</time></trkpt>
<trkpt lat="46.10579548403621" lon="7.2086520586162806"><ele></ele><time>2013-8-1T14:31:34Z</time></trkpt>
<trkpt lat="46.10574770718813" lon="7.208600761368871"><ele></ele><time>2013-8-1T14:31:37Z</time></trkpt>
<trkpt lat="46.10571024008095" lon="7.208564048632979"><ele></ele><time>2013-8-1T14:31:40Z</time></trkpt>
<trkpt lat="46.1056612059474" lon="7.20852205529809"><ele></ele><time>2013-8-1T14:31:43Z</time></trkpt>
<trkpt lat="46.10561225563288" lon="7.2084827441722155"><ele></ele><time>2013-8-1T14:31:46Z</time></trkpt>
<trkpt lat="46.105565736070275" lon="7.208452150225639"><ele></ele><time>2013-8-1T14:31:49Z</time></trkpt>
<trkpt lat="46.10551577992737" lon="7.208442343398929"><ele></ele><time>2013-8-1T14:31:52Z</time></trkpt>
<trkpt lat="46.105469930917025" lon="7.2084249928593636"><ele></ele><time>2013-8-1T14:31:55Z</time></trkpt>
<trkpt lat="46.105421148240566" lon="7.208403870463371"><ele></ele><time>2013-8-1T14:31:58Z</time></trkpt>
<trkpt lat="46.105376556515694" lon="7.208387777209282"><ele></ele><time>2013-8-1T14:32:1Z</time></trkpt>
<trkpt lat="46.10533028841019" lon="7.208392806351185"><ele></ele><time>2013-8-1T14:32:4Z</time></trkpt>
<trkpt lat="46.10529089346528" lon="7.20839255489409"><ele></ele><time>2013-8-1T14:32:7Z</time></trkpt>
<trkpt lat="46.105257952585816" lon="7.208390207961202"><ele></ele><time>2013-8-1T14:32:10Z</time></trkpt>
<trkpt lat="46.105237333104014" lon="7.20838182605803"><ele></ele><time>2013-8-1T14:32:13Z</time></trkpt>
<trkpt lat="46.10522015020251" lon="7.208377216011286"><ele></ele><time>2013-8-1T14:32:16Z</time></trkpt>
<trkpt lat="46.105196764692664" lon="7.208364978432655"><ele></ele><time>2013-8-1T14:32:19Z</time></trkpt>
<trkpt lat="46.10516935586929" lon="7.20835542306304"><ele></ele><time>2013-8-1T14:32:22Z</time></trkpt>
<trkpt lat="46.10513599589467" lon="7.208342431113124"><ele></ele><time>2013-8-1T14:32:25Z</time></trkpt>
<trkpt lat="46.10509945079684" lon="7.208327176049352"><ele></ele><time>2013-8-1T14:32:28Z</time></trkpt>
<trkpt lat="46.10505787655711" lon="7.208308149129152"><ele></ele><time>2013-8-1T14:32:31Z</time></trkpt>
<trkpt lat="46.10495561733842" lon="7.208260539919138"><ele></ele><time>2013-8-1T14:32:34Z</time></trkpt>
<trkpt lat="46.104919742792845" lon="7.208239333704114"><ele></ele><time>2013-8-1T14:32:37Z</time></trkpt>
<trkpt lat="46.104877665638924" lon="7.2082768846303225"><ele></ele><time>2013-8-1T14:32:40Z</time></trkpt>
<trkpt lat="46.10487422905862" lon="7.208326002582908"><ele></ele><time>2013-8-1T14:32:43Z</time></trkpt>
<trkpt lat="46.10487649217248" lon="7.2083755396306515"><ele></ele><time>2013-8-1T14:32:46Z</time></trkpt>
<trkpt lat="46.10489501617849" lon="7.208421053364873"><ele></ele><time>2013-8-1T14:32:49Z</time></trkpt>
<trkpt lat="46.1049288790673" lon="7.208471931517124"><ele></ele><time>2013-8-1T14:32:52Z</time></trkpt>
<trkpt lat="46.10495628789067" lon="7.208528593182564"><ele></ele><time>2013-8-1T14:32:55Z</time></trkpt>
<trkpt lat="46.10498830676079" lon="7.2085866797715425"><ele></ele><time>2013-8-1T14:32:58Z</time></trkpt>
<trkpt lat="46.105005322024226" lon="7.208624146878719"><ele></ele><time>2013-8-1T14:33:1Z</time></trkpt>
<trkpt lat="46.105030635371804" lon="7.208652812987566"><ele></ele><time>2013-8-1T14:33:4Z</time></trkpt>
<trkpt lat="46.10504957847297" lon="7.208681646734476"><ele></ele><time>2013-8-1T14:33:7Z</time></trkpt>
<trkpt lat="46.10505108721554" lon="7.208696063607931"><ele></ele><time>2013-8-1T14:33:10Z</time></trkpt>
<trkpt lat="46.105056032538414" lon="7.208708385005593"><ele></ele><time>2013-8-1T14:33:13Z</time></trkpt>
<trkpt lat="46.10505393706262" lon="7.2087362967431545"><ele></ele><time>2013-8-1T14:33:16Z</time></trkpt>
<trkpt lat="46.10505251213908" lon="7.208760604262352"><ele></ele><time>2013-8-1T14:33:19Z</time></trkpt>
<trkpt lat="46.105071706697345" lon="7.208936037495732"><ele></ele><time>2013-8-1T14:33:22Z</time></trkpt>
<trkpt lat="46.105080507695675" lon="7.208988256752491"><ele></ele><time>2013-8-1T14:33:25Z</time></trkpt>
<trkpt lat="46.10509593039751" lon="7.209039470180869"><ele></ele><time>2013-8-1T14:33:28Z</time></trkpt>
<trkpt lat="46.10512082464993" lon="7.2090900130569935"><ele></ele><time>2013-8-1T14:33:31Z</time></trkpt>
<trkpt lat="46.105143539607525" lon="7.209134437143803"><ele></ele><time>2013-8-1T14:33:34Z</time></trkpt>
<trkpt lat="46.10516583546996" lon="7.2091709822416306"><ele></ele><time>2013-8-1T14:33:37Z</time></trkpt>
<trkpt lat="46.105190394446254" lon="7.209198558703065"><ele></ele><time>2013-8-1T14:33:40Z</time></trkpt>
<trkpt lat="46.10521227121353" lon="7.209218172356486"><ele></ele><time>2013-8-1T14:33:43Z</time></trkpt>
<trkpt lat="46.10523515380919" lon="7.209237953647971"><ele></ele><time>2013-8-1T14:33:46Z</time></trkpt>
<trkpt lat="46.105259880423546" lon="7.2092534601688385"><ele></ele><time>2013-8-1T14:33:49Z</time></trkpt>
<trkpt lat="46.10533079132438" lon="7.209326634183526"><ele></ele><time>2013-8-1T14:33:52Z</time></trkpt>
<trkpt lat="46.105355098843575" lon="7.209359239786863"><ele></ele><time>2013-8-1T14:33:55Z</time></trkpt>
<trkpt lat="46.105383513495326" lon="7.209387570619583"><ele></ele><time>2013-8-1T14:33:58Z</time></trkpt>
<trkpt lat="46.10541268251836" lon="7.209412045776844"><ele></ele><time>2013-8-1T14:34:1Z</time></trkpt>
<trkpt lat="46.105437241494656" lon="7.209455547854304"><ele></ele><time>2013-8-1T14:34:4Z</time></trkpt>
<trkpt lat="46.105458699166775" lon="7.209481867030263"><ele></ele><time>2013-8-1T14:34:7Z</time></trkpt>
<trkpt lat="46.10548225231469" lon="7.209515478461981"><ele></ele><time>2013-8-1T14:34:10Z</time></trkpt>
<trkpt lat="46.10550186596811" lon="7.209546407684684"><ele></ele><time>2013-8-1T14:34:13Z</time></trkpt>
<trkpt lat="46.1055317055434" lon="7.209570296108723"><ele></ele><time>2013-8-1T14:34:16Z</time></trkpt>
<trkpt lat="46.10553480684757" lon="7.209589574486017"><ele></ele><time>2013-8-1T14:34:19Z</time></trkpt>
<trkpt lat="46.105540255084634" lon="7.209610864520073"><ele></ele><time>2013-8-1T14:34:22Z</time></trkpt>
<trkpt lat="46.105557354167104" lon="7.209637435153127"><ele></ele><time>2013-8-1T14:34:25Z</time></trkpt>
<trkpt lat="46.10557026229799" lon="7.209659982472658"><ele></ele><time>2013-8-1T14:34:28Z</time></trkpt>
<trkpt lat="46.10558761283755" lon="7.209695186465979"><ele></ele><time>2013-8-1T14:34:31Z</time></trkpt>
<trkpt lat="46.10560496337712" lon="7.209725193679333"><ele></ele><time>2013-8-1T14:34:34Z</time></trkpt>
<trkpt lat="46.1056265886873" lon="7.2097546979784966"><ele></ele><time>2013-8-1T14:34:37Z</time></trkpt>
<trkpt lat="46.1056490521878" lon="7.209775568917394"><ele></ele><time>2013-8-1T14:34:40Z</time></trkpt>
<trkpt lat="46.105678137391806" lon="7.209795266389847"><ele></ele><time>2013-8-1T14:34:43Z</time></trkpt>
<trkpt lat="46.105721555650234" lon="7.209863495081663"><ele></ele><time>2013-8-1T14:34:46Z</time></trkpt>
<trkpt lat="46.105741588398814" lon="7.209904650226235"><ele></ele><time>2013-8-1T14:34:49Z</time></trkpt>
<trkpt lat="46.105740582570434" lon="7.2099582105875015"><ele></ele><time>2013-8-1T14:34:52Z</time></trkpt>
<trkpt lat="46.105729853734374" lon="7.209989978000522"><ele></ele><time>2013-8-1T14:34:55Z</time></trkpt>
<trkpt lat="46.10570554621518" lon="7.209991822019219"><ele></ele><time>2013-8-1T14:34:58Z</time></trkpt>
<trkpt lat="46.1056630499661" lon="7.209973549470305"><ele></ele><time>2013-8-1T14:35:1Z</time></trkpt>
<trkpt lat="46.105624409392476" lon="7.20995812676847"><ele></ele><time>2013-8-1T14:35:4Z</time></trkpt>
<trkpt lat="46.10559934750199" lon="7.209940692409873"><ele></ele><time>2013-8-1T14:35:7Z</time></trkpt>
<trkpt lat="46.10557487234473" lon="7.209929712116718"><ele></ele><time>2013-8-1T14:35:10Z</time></trkpt>
<trkpt lat="46.10554411076009" lon="7.209914792329073"><ele></ele><time>2013-8-1T14:35:13Z</time></trkpt>
<trkpt lat="46.105521228164434" lon="7.209909092634916"><ele></ele><time>2013-8-1T14:35:16Z</time></trkpt>
<trkpt lat="46.105499686673284" lon="7.209917390719056"><ele></ele><time>2013-8-1T14:35:19Z</time></trkpt>
<trkpt lat="46.10549063421786" lon="7.209919989109039"><ele></ele><time>2013-8-1T14:35:22Z</time></trkpt>
<trkpt lat="46.105506056919694" lon="7.2099455539137125"><ele></ele><time>2013-8-1T14:35:25Z</time></trkpt>
<trkpt lat="46.10551963560283" lon="7.209967095404863"><ele></ele><time>2013-8-1T14:35:28Z</time></trkpt>
<trkpt lat="46.10553212463856" lon="7.209993582218885"><ele></ele><time>2013-8-1T14:35:31Z</time></trkpt>
<trkpt lat="46.10554260201752" lon="7.210032055154443"><ele></ele><time>2013-8-1T14:35:34Z</time></trkpt>
<trkpt lat="46.105560287833214" lon="7.210068432614207"><ele></ele><time>2013-8-1T14:35:37Z</time></trkpt>
<trkpt lat="46.10558937303722" lon="7.210098523646593"><ele></ele><time>2013-8-1T14:35:40Z</time></trkpt>
<trkpt lat="46.10561393201351" lon="7.210143618285656"><ele></ele><time>2013-8-1T14:35:43Z</time></trkpt>
<trkpt lat="46.10564704053104" lon="7.2101846896111965"><ele></ele><time>2013-8-1T14:35:46Z</time></trkpt>
<trkpt lat="46.10568014904857" lon="7.210215115919709"><ele></ele><time>2013-8-1T14:35:49Z</time></trkpt>
<trkpt lat="46.10571501776576" lon="7.210247553884983"><ele></ele><time>2013-8-1T14:35:52Z</time></trkpt>
<trkpt lat="46.10575164668262" lon="7.21028015948832"><ele></ele><time>2013-8-1T14:35:55Z</time></trkpt>
<trkpt lat="46.10578844323754" lon="7.2103131003677845"><ele></ele><time>2013-8-1T14:35:58Z</time></trkpt>
<trkpt lat="46.105809565633535" lon="7.210347130894661"><ele></ele><time>2013-8-1T14:36:1Z</time></trkpt>
<trkpt lat="46.10583018511534" lon="7.210378814488649"><ele></ele><time>2013-8-1T14:36:4Z</time></trkpt>
<trkpt lat="46.10584829002619" lon="7.210415946319699"><ele></ele><time>2013-8-1T14:36:7Z</time></trkpt>
<trkpt lat="46.10586790367961" lon="7.210452323779464"><ele></ele><time>2013-8-1T14:36:10Z</time></trkpt>
<trkpt lat="46.10588634386659" lon="7.210482079535723"><ele></ele><time>2013-8-1T14:36:13Z</time></trkpt>
<trkpt lat="46.105914087966084" lon="7.210505297407508"><ele></ele><time>2013-8-1T14:36:16Z</time></trkpt>
<trkpt lat="46.105939988046885" lon="7.210522564128041"><ele></ele><time>2013-8-1T14:36:19Z</time></trkpt>
<trkpt lat="46.10595214180648" lon="7.210533795878291"><ele></ele><time>2013-8-1T14:36:22Z</time></trkpt>
<trkpt lat="46.10596873797476" lon="7.21056648530066"><ele></ele><time>2013-8-1T14:36:25Z</time></trkpt>
<trkpt lat="46.105989860370755" lon="7.210606215521693"><ele></ele><time>2013-8-1T14:36:28Z</time></trkpt>
<trkpt lat="46.10601098276675" lon="7.210635049268603"><ele></ele><time>2013-8-1T14:36:31Z</time></trkpt>
<trkpt lat="46.106030428782105" lon="7.210667738690972"><ele></ele><time>2013-8-1T14:36:34Z</time></trkpt>
<trkpt lat="46.10604719258845" lon="7.2107042837888"><ele></ele><time>2013-8-1T14:36:37Z</time></trkpt>
<trkpt lat="46.10606253147125" lon="7.21074627712369"><ele></ele><time>2013-8-1T14:36:40Z</time></trkpt>
<trkpt lat="46.10607753507793" lon="7.210777373984456"><ele></ele><time>2013-8-1T14:36:43Z</time></trkpt>
<trkpt lat="46.1060911975801" lon="7.210815595462918"><ele></ele><time>2013-8-1T14:36:46Z</time></trkpt>
<trkpt lat="46.106114499270916" lon="7.210865383967757"><ele></ele><time>2013-8-1T14:36:49Z</time></trkpt>
<trkpt lat="46.1061324365437" lon="7.210908383131027"><ele></ele><time>2013-8-1T14:36:52Z</time></trkpt>
<trkpt lat="46.10614710487425" lon="7.210960183292627"><ele></ele><time>2013-8-1T14:36:55Z</time></trkpt>
<trkpt lat="46.10616940073669" lon="7.21104190684855"><ele></ele><time>2013-8-1T14:36:58Z</time></trkpt>
<trkpt lat="46.10618063248694" lon="7.211099909618497"><ele></ele><time>2013-8-1T14:37:1Z</time></trkpt>
<trkpt lat="46.10619328916073" lon="7.211151709780097"><ele></ele><time>2013-8-1T14:37:4Z</time></trkpt>
<trkpt lat="46.10619773156941" lon="7.211196133866906"><ele></ele><time>2013-8-1T14:37:7Z</time></trkpt>
<trkpt lat="46.10619764775038" lon="7.211232930421829"><ele></ele><time>2013-8-1T14:37:10Z</time></trkpt>
<trkpt lat="46.10618943348527" lon="7.211267799139023"><ele></ele><time>2013-8-1T14:37:13Z</time></trkpt>
<trkpt lat="46.10617476515472" lon="7.211328316479921"><ele></ele><time>2013-8-1T14:37:16Z</time></trkpt>
<trkpt lat="46.10616110265255" lon="7.211387408897281"><ele></ele><time>2013-8-1T14:37:19Z</time></trkpt>
<trkpt lat="46.10614065080881" lon="7.211436526849866"><ele></ele><time>2013-8-1T14:37:22Z</time></trkpt>
<trkpt lat="46.10612480901182" lon="7.211502157151699"><ele></ele><time>2013-8-1T14:37:25Z</time></trkpt>
<trkpt lat="46.10610553063452" lon="7.211558232083917"><ele></ele><time>2013-8-1T14:37:28Z</time></trkpt>
<trkpt lat="46.106094885617495" lon="7.211607936769724"><ele></ele><time>2013-8-1T14:37:31Z</time></trkpt>
<trkpt lat="46.10608206130564" lon="7.211655043065548"><ele></ele><time>2013-8-1T14:37:34Z</time></trkpt>
<trkpt lat="46.10606538131833" lon="7.211702400818467"><ele></ele><time>2013-8-1T14:37:37Z</time></trkpt>
<trkpt lat="46.106046522036195" lon="7.211743723601103"><ele></ele><time>2013-8-1T14:37:40Z</time></trkpt>
<trkpt lat="46.10602187924087" lon="7.2117013949900866"><ele></ele><time>2013-8-1T14:37:43Z</time></trkpt>
<trkpt lat="46.10602028667927" lon="7.211642554029822"><ele></ele><time>2013-8-1T14:37:46Z</time></trkpt>
<trkpt lat="46.10601944848895" lon="7.211601817980409"><ele></ele><time>2013-8-1T14:37:49Z</time></trkpt>
<trkpt lat="46.10602137632668" lon="7.211562758311629"><ele></ele><time>2013-8-1T14:37:52Z</time></trkpt>
<trkpt lat="46.10601835884154" lon="7.211514143273234"><ele></ele><time>2013-8-1T14:37:55Z</time></trkpt>
<trkpt lat="46.10601441934705" lon="7.2114610858261585"><ele></ele><time>2013-8-1T14:37:58Z</time></trkpt>
<trkpt lat="46.106006037443876" lon="7.211402747780085"><ele></ele><time>2013-8-1T14:38:1Z</time></trkpt>
<trkpt lat="46.1059910338372" lon="7.211340302601457"><ele></ele><time>2013-8-1T14:38:4Z</time></trkpt>
<trkpt lat="46.10595926642418" lon="7.211295794695616"><ele></ele><time>2013-8-1T14:38:7Z</time></trkpt>
<trkpt lat="46.105924313887954" lon="7.211252460256219"><ele></ele><time>2013-8-1T14:38:10Z</time></trkpt>
<trkpt lat="46.105897072702646" lon="7.21121490933001"><ele></ele><time>2013-8-1T14:38:13Z</time></trkpt>
<trkpt lat="46.10587494447827" lon="7.211187416687608"><ele></ele><time>2013-8-1T14:38:16Z</time></trkpt>
<trkpt lat="46.10584652982652" lon="7.2111807111650705"><ele></ele><time>2013-8-1T14:38:19Z</time></trkpt>
<trkpt lat="46.1058097332716" lon="7.211175849661231"><ele></ele><time>2013-8-1T14:38:22Z</time></trkpt>
<trkpt lat="46.105770925059915" lon="7.211182219907641"><ele></ele><time>2013-8-1T14:38:25Z</time></trkpt>
<trkpt lat="46.10572557896376" lon="7.211183561012149"><ele></ele><time>2013-8-1T14:38:28Z</time></trkpt>
<trkpt lat="46.10568014904857" lon="7.2111715748906136"><ele></ele><time>2013-8-1T14:38:31Z</time></trkpt>
<trkpt lat="46.10564670525491" lon="7.211175682023168"><ele></ele><time>2013-8-1T14:38:34Z</time></trkpt>
<trkpt lat="46.10560789704323" lon="7.211167383939028"><ele></ele><time>2013-8-1T14:38:37Z</time></trkpt>
<trkpt lat="46.10558249987662" lon="7.211160007864237"><ele></ele><time>2013-8-1T14:38:40Z</time></trkpt>
<trkpt lat="46.10555995255709" lon="7.21115430817008"><ele></ele><time>2013-8-1T14:38:43Z</time></trkpt>
<trkpt lat="46.10551460646093" lon="7.211149111390114"><ele></ele><time>2013-8-1T14:38:46Z</time></trkpt>
<trkpt lat="46.10547663643956" lon="7.211143244057894"><ele></ele><time>2013-8-1T14:38:49Z</time></trkpt>
<trkpt lat="46.105438163504004" lon="7.211127234622836"><ele></ele><time>2013-8-1T14:38:52Z</time></trkpt>
<trkpt lat="46.105392733588815" lon="7.211128575727344"><ele></ele><time>2013-8-1T14:38:55Z</time></trkpt>
<trkpt lat="46.10534990206361" lon="7.211125809699297"><ele></ele><time>2013-8-1T14:38:58Z</time></trkpt>
<trkpt lat="46.105307657271624" lon="7.211118014529347"><ele></ele><time>2013-8-1T14:39:1Z</time></trkpt>
<trkpt lat="46.105271028354764" lon="7.211108123883605"><ele></ele><time>2013-8-1T14:39:4Z</time></trkpt>
<trkpt lat="46.105236914008856" lon="7.211095802485943"><ele></ele><time>2013-8-1T14:39:7Z</time></trkpt>
<trkpt lat="46.10519835725427" lon="7.2110664658248425"><ele></ele><time>2013-8-1T14:39:10Z</time></trkpt>
<trkpt lat="46.10516985878348" lon="7.211045511066914"><ele></ele><time>2013-8-1T14:39:13Z</time></trkpt>
<trkpt lat="46.10513985157013" lon="7.211037967354059"><ele></ele><time>2013-8-1T14:39:16Z</time></trkpt>
<trkpt lat="46.10511101782322" lon="7.211039727553725"><ele></ele><time>2013-8-1T14:39:19Z</time></trkpt>
<trkpt lat="46.1051223333925" lon="7.211088174954057"><ele></ele><time>2013-8-1T14:39:22Z</time></trkpt>
<trkpt lat="46.105134319514036" lon="7.211118517443538"><ele></ele><time>2013-8-1T14:39:25Z</time></trkpt>
<trkpt lat="46.10513733699918" lon="7.211150033399463"><ele></ele><time>2013-8-1T14:39:28Z</time></trkpt>
<trkpt lat="46.10512769781053" lon="7.211180962622166"><ele></ele><time>2013-8-1T14:39:31Z</time></trkpt>
<trkpt lat="46.10508905723691" lon="7.211163528263569"><ele></ele><time>2013-8-1T14:39:34Z</time></trkpt>
<trkpt lat="46.1050879675895" lon="7.211155733093619"><ele></ele><time>2013-8-1T14:39:37Z</time></trkpt>
<trkpt lat="46.1050879675895" lon="7.211155733093619"><ele></ele><time>2013-8-1T14:39:40Z</time></trkpt>
<trkpt lat="46.1050879675895" lon="7.211155733093619"><ele></ele><time>2013-8-1T14:39:43Z</time></trkpt>
<trkpt lat="46.105081932619214" lon="7.211146177724004"><ele></ele><time>2013-8-1T14:39:46Z</time></trkpt>
<trkpt lat="46.10507036559284" lon="7.2111135721206665"><ele></ele><time>2013-8-1T14:39:49Z</time></trkpt>
<trkpt lat="46.10505108721554" lon="7.211089348420501"><ele></ele><time>2013-8-1T14:39:52Z</time></trkpt>
<trkpt lat="46.10496986657381" lon="7.211006283760071"><ele></ele><time>2013-8-1T14:39:55Z</time></trkpt>
<trkpt lat="46.10491429455578" lon="7.210924308747053"><ele></ele><time>2013-8-1T14:39:58Z</time></trkpt>
<trkpt lat="46.104867020621896" lon="7.2108361311256886"><ele></ele><time>2013-8-1T14:40:1Z</time></trkpt>
<trkpt lat="46.10481899231672" lon="7.210758179426193"><ele></ele><time>2013-8-1T14:40:4Z</time></trkpt>
<trkpt lat="46.10476987436414" lon="7.210685424506664"><ele></ele><time>2013-8-1T14:40:7Z</time></trkpt>
<trkpt lat="46.1047163978219" lon="7.210624571889639"><ele></ele><time>2013-8-1T14:40:10Z</time></trkpt>
<trkpt lat="46.104660239070654" lon="7.21058894880116"><ele></ele><time>2013-8-1T14:40:13Z</time></trkpt>
<trkpt lat="46.10460139811039" lon="7.210573190823197"><ele></ele><time>2013-8-1T14:40:16Z</time></trkpt>
<trkpt lat="46.10454465262592" lon="7.210571514442563"><ele></ele><time>2013-8-1T14:40:19Z</time></trkpt>
<trkpt lat="46.10448304563761" lon="7.210585763677955"><ele></ele><time>2013-8-1T14:40:22Z</time></trkpt>
<trkpt lat="46.10442018136382" lon="7.210604036226869"><ele></ele><time>2013-8-1T14:40:25Z</time></trkpt>
<trkpt lat="46.10434994101524" lon="7.210611579939723"><ele></ele><time>2013-8-1T14:40:28Z</time></trkpt>
<trkpt lat="46.10427777282894" lon="7.210595989599824"><ele></ele><time>2013-8-1T14:40:31Z</time></trkpt>
<trkpt lat="46.1042020842433" lon="7.210571933537722"><ele></ele><time>2013-8-1T14:40:34Z</time></trkpt>
<trkpt lat="46.104142824187875" lon="7.2105280961841345"><ele></ele><time>2013-8-1T14:40:37Z</time></trkpt>
<trkpt lat="46.10408280976117" lon="7.210492137819529"><ele></ele><time>2013-8-1T14:40:40Z</time></trkpt>
<trkpt lat="46.104021705687046" lon="7.21045165322721"><ele></ele><time>2013-8-1T14:40:43Z</time></trkpt>
<trkpt lat="46.10397208482027" lon="7.210402702912688"><ele></ele><time>2013-8-1T14:40:46Z</time></trkpt>
<trkpt lat="46.10393746756017" lon="7.210386693477631"><ele></ele><time>2013-8-1T14:40:49Z</time></trkpt>
<trkpt lat="46.103893127292395" lon="7.210387112572789"><ele></ele><time>2013-8-1T14:40:52Z</time></trkpt>
<trkpt lat="46.10386395826936" lon="7.210422568023205"><ele></ele><time>2013-8-1T14:40:55Z</time></trkpt>
<trkpt lat="46.103864293545485" lon="7.210468668490648"><ele></ele><time>2013-8-1T14:40:58Z</time></trkpt>
<trkpt lat="46.103894552215934" lon="7.210556343197823"><ele></ele><time>2013-8-1T14:41:1Z</time></trkpt>
<trkpt lat="46.10392414033413" lon="7.210637480020523"><ele></ele><time>2013-8-1T14:41:4Z</time></trkpt>
<trkpt lat="46.10395481809974" lon="7.210739152505994"><ele></ele><time>2013-8-1T14:41:7Z</time></trkpt>
<trkpt lat="46.103989351540804" lon="7.210825486108661"><ele></ele><time>2013-8-1T14:41:10Z</time></trkpt>
<trkpt lat="46.104031428694725" lon="7.210907964035869"><ele></ele><time>2013-8-1T14:41:13Z</time></trkpt>
<trkpt lat="46.104041654616594" lon="7.210992788895965"><ele></ele><time>2013-8-1T14:41:16Z</time></trkpt>
<trkpt lat="46.10405548475683" lon="7.211070489138365"><ele></ele><time>2013-8-1T14:41:19Z</time></trkpt>
<trkpt lat="46.10406487248838" lon="7.211147518828511"><ele></ele><time>2013-8-1T14:41:22Z</time></trkpt>
<trkpt lat="46.10407451167703" lon="7.211217004805803"><ele></ele><time>2013-8-1T14:41:25Z</time></trkpt>
<trkpt lat="46.104084234684706" lon="7.211289759725332"><ele></ele><time>2013-8-1T14:41:28Z</time></trkpt>
<trkpt lat="46.10409236513078" lon="7.2113639395684"><ele></ele><time>2013-8-1T14:41:31Z</time></trkpt>
<trkpt lat="46.10410091467202" lon="7.2114351857453585"><ele></ele><time>2013-8-1T14:41:34Z</time></trkpt>
<trkpt lat="46.104104770347476" lon="7.211504587903619"><ele></ele><time>2013-8-1T14:41:37Z</time></trkpt>
<trkpt lat="46.10408825799823" lon="7.211574073880911"><ele></ele><time>2013-8-1T14:41:40Z</time></trkpt>
<trkpt lat="46.1040792055428" lon="7.211638446897268"><ele></ele><time>2013-8-1T14:41:43Z</time></trkpt>
<trkpt lat="46.10406638123095" lon="7.211701981723309"><ele></ele><time>2013-8-1T14:41:46Z</time></trkpt>
<trkpt lat="46.104069063439965" lon="7.211780017241836"><ele></ele><time>2013-8-1T14:41:49Z</time></trkpt>
<trkpt lat="46.104054898023605" lon="7.211872721090913"><ele></ele><time>2013-8-1T14:41:52Z</time></trkpt>
<trkpt lat="46.1040448397398" lon="7.211955785751343"><ele></ele><time>2013-8-1T14:41:55Z</time></trkpt>
<trkpt lat="46.10403696075082" lon="7.212048741057515"><ele></ele><time>2013-8-1T14:41:58Z</time></trkpt>
<trkpt lat="46.1040361225605" lon="7.212168937548995"><ele></ele><time>2013-8-1T14:42:1Z</time></trkpt>
<trkpt lat="46.10403813421726" lon="7.212283685803413"><ele></ele><time>2013-8-1T14:42:4Z</time></trkpt>
<trkpt lat="46.104047102853656" lon="7.212398685514927"><ele></ele><time>2013-8-1T14:42:7Z</time></trkpt>
<trkpt lat="46.10405950807035" lon="7.2125148586928844"><ele></ele><time>2013-8-1T14:42:10Z</time></trkpt>
<trkpt lat="46.104077361524105" lon="7.212627176195383"><ele></ele><time>2013-8-1T14:42:13Z</time></trkpt>
<trkpt lat="46.1040950473398" lon="7.212758352980018"><ele></ele><time>2013-8-1T14:42:16Z</time></trkpt>
<trkpt lat="46.10411927103996" lon="7.212879974395037"><ele></ele><time>2013-8-1T14:42:19Z</time></trkpt>
<trkpt lat="46.10413184389472" lon="7.213000757619739"><ele></ele><time>2013-8-1T14:42:22Z</time></trkpt>
<trkpt lat="46.10413821414113" lon="7.213122379034758"><ele></ele><time>2013-8-1T14:42:25Z</time></trkpt>
<trkpt lat="46.10414165072143" lon="7.213241318240762"><ele></ele><time>2013-8-1T14:42:28Z</time></trkpt>
<trkpt lat="46.10415221191943" lon="7.213351456448436"><ele></ele><time>2013-8-1T14:42:31Z</time></trkpt>
<trkpt lat="46.10415573231876" lon="7.213465617969632"><ele></ele><time>2013-8-1T14:42:34Z</time></trkpt>
<trkpt lat="46.10415623523295" lon="7.213562680408359"><ele></ele><time>2013-8-1T14:42:37Z</time></trkpt>
<trkpt lat="46.10416268929839" lon="7.21367122605443"><ele></ele><time>2013-8-1T14:42:40Z</time></trkpt>
<trkpt lat="46.104201413691044" lon="7.213755380362272"><ele></ele><time>2013-8-1T14:42:43Z</time></trkpt>
<trkpt lat="46.10424047335982" lon="7.213827883824706"><ele></ele><time>2013-8-1T14:42:46Z</time></trkpt>
<trkpt lat="46.104269893839955" lon="7.21387742087245"><ele></ele><time>2013-8-1T14:42:49Z</time></trkpt>
<trkpt lat="46.10429110005498" lon="7.213971046730876"><ele></ele><time>2013-8-1T14:42:52Z</time></trkpt>
<trkpt lat="46.10430685803294" lon="7.214073305949569"><ele></ele><time>2013-8-1T14:42:55Z</time></trkpt>
<trkpt lat="46.1043004039675" lon="7.214174056425691"><ele></ele><time>2013-8-1T14:42:58Z</time></trkpt>
<trkpt lat="46.10429227352142" lon="7.214276902377605"><ele></ele><time>2013-8-1T14:43:1Z</time></trkpt>
<trkpt lat="46.10428120940924" lon="7.214376479387283"><ele></ele><time>2013-8-1T14:43:4Z</time></trkpt>
<trkpt lat="46.10427391715348" lon="7.214463651180267"><ele></ele><time>2013-8-1T14:43:7Z</time></trkpt>
<trkpt lat="46.1043022479862" lon="7.214541183784604"><ele></ele><time>2013-8-1T14:43:10Z</time></trkpt>
<trkpt lat="46.10435790382326" lon="7.214607987552881"><ele></ele><time>2013-8-1T14:43:13Z</time></trkpt>
<trkpt lat="46.10438724048436" lon="7.214669091627002"><ele></ele><time>2013-8-1T14:43:16Z</time></trkpt>
<trkpt lat="46.10438455827534" lon="7.214718963950872"><ele></ele><time>2013-8-1T14:43:19Z</time></trkpt>
<trkpt lat="46.104362765327096" lon="7.214756598696113"><ele></ele><time>2013-8-1T14:43:22Z</time></trkpt>
<trkpt lat="46.10434893518686" lon="7.214805465191603"><ele></ele><time>2013-8-1T14:43:25Z</time></trkpt>
<trkpt lat="46.10434097237885" lon="7.214852487668395"><ele></ele><time>2013-8-1T14:43:28Z</time></trkpt>
<trkpt lat="46.1043453309685" lon="7.214908143505454"><ele></ele><time>2013-8-1T14:43:31Z</time></trkpt>
<trkpt lat="46.10432739369571" lon="7.214954160153866"><ele></ele><time>2013-8-1T14:43:34Z</time></trkpt>
<trkpt lat="46.104291854426265" lon="7.214995063841343"><ele></ele><time>2013-8-1T14:43:37Z</time></trkpt>
<trkpt lat="46.10424038954079" lon="7.215028004720807"><ele></ele><time>2013-8-1T14:43:40Z</time></trkpt>
<trkpt lat="46.10419303178787" lon="7.215070500969887"><ele></ele><time>2013-8-1T14:43:43Z</time></trkpt>
<trkpt lat="46.104144752025604" lon="7.215115847066045"><ele></ele><time>2013-8-1T14:43:46Z</time></trkpt>
<trkpt lat="46.10410384833813" lon="7.215175274759531"><ele></ele><time>2013-8-1T14:43:49Z</time></trkpt>
<trkpt lat="46.10408138483763" lon="7.215265464037657"><ele></ele><time>2013-8-1T14:43:52Z</time></trkpt>
<trkpt lat="46.10406151972711" lon="7.215348361060023"><ele></ele><time>2013-8-1T14:43:55Z</time></trkpt>
<trkpt lat="46.10405179671943" lon="7.215436287224293"><ele></ele><time>2013-8-1T14:43:58Z</time></trkpt>
<trkpt lat="46.10405808314681" lon="7.215529829263687"><ele></ele><time>2013-8-1T14:44:1Z</time></trkpt>
<trkpt lat="46.10408197157085" lon="7.215621527284384"><ele></ele><time>2013-8-1T14:44:4Z</time></trkpt>
<trkpt lat="46.10412161797285" lon="7.215725630521774"><ele></ele><time>2013-8-1T14:44:7Z</time></trkpt>
<trkpt lat="46.10415564849973" lon="7.215831158682704"><ele></ele><time>2013-8-1T14:44:10Z</time></trkpt>
<trkpt lat="46.10418473370373" lon="7.215947583317757"><ele></ele><time>2013-8-1T14:44:13Z</time></trkpt>
<trkpt lat="46.10420954413712" lon="7.2160654328763485"><ele></ele><time>2013-8-1T14:44:16Z</time></trkpt>
<trkpt lat="46.10422362573445" lon="7.216178504750133"><ele></ele><time>2013-8-1T14:44:19Z</time></trkpt>
<trkpt lat="46.10423779115081" lon="7.216295013204217"><ele></ele><time>2013-8-1T14:44:22Z</time></trkpt>
<trkpt lat="46.10423385165632" lon="7.21640557050705"><ele></ele><time>2013-8-1T14:44:25Z</time></trkpt>
<trkpt lat="46.10421876423061" lon="7.216504560783505"><ele></ele><time>2013-8-1T14:44:28Z</time></trkpt>
<trkpt lat="46.10419965349138" lon="7.21661813557148"><ele></ele><time>2013-8-1T14:44:31Z</time></trkpt>
<trkpt lat="46.104161432012916" lon="7.216726848855615"><ele></ele><time>2013-8-1T14:44:34Z</time></trkpt>
<trkpt lat="46.10412145033479" lon="7.216817373409867"><ele></ele><time>2013-8-1T14:44:37Z</time></trkpt>
<trkpt lat="46.104087168350816" lon="7.216892894357443"><ele></ele><time>2013-8-1T14:44:40Z</time></trkpt>
<trkpt lat="46.10405615530908" lon="7.216941257938743"><ele></ele><time>2013-8-1T14:44:43Z</time></trkpt>
<trkpt lat="46.10402723774314" lon="7.216979982331395"><ele></ele><time>2013-8-1T14:44:46Z</time></trkpt>
<trkpt lat="46.103992788121104" lon="7.217012923210859"><ele></ele><time>2013-8-1T14:44:49Z</time></trkpt>
<trkpt lat="46.103952806442976" lon="7.217033794149756"><ele></ele><time>2013-8-1T14:44:52Z</time></trkpt>
<trkpt lat="46.10391064547002" lon="7.2170355543494225"><ele></ele><time>2013-8-1T14:44:55Z</time></trkpt>
<trkpt lat="46.10386605374515" lon="7.216999344527721"><ele></ele><time>2013-8-1T14:44:58Z</time></trkpt>
<trkpt lat="46.10381383448839" lon="7.216930026188493"><ele></ele><time>2013-8-1T14:45:1Z</time></trkpt>
<trkpt lat="46.10377469100058" lon="7.216848721727729"><ele></ele><time>2013-8-1T14:45:4Z</time></trkpt>
<trkpt lat="46.10372934490442" lon="7.216797089204192"><ele></ele><time>2013-8-1T14:45:7Z</time></trkpt>
<trkpt lat="46.10368458554149" lon="7.2167483903467655"><ele></ele><time>2013-8-1T14:45:10Z</time></trkpt>
<trkpt lat="46.10364401713014" lon="7.216708576306701"><ele></ele><time>2013-8-1T14:45:13Z</time></trkpt>
<trkpt lat="46.103600431233644" lon="7.216688208281994"><ele></ele><time>2013-8-1T14:45:16Z</time></trkpt>
<trkpt lat="46.10355558805168" lon="7.216689549386501"><ele></ele><time>2013-8-1T14:45:19Z</time></trkpt>
<trkpt lat="46.1035078112036" lon="7.2167398408055305"><ele></ele><time>2013-8-1T14:45:22Z</time></trkpt>
<trkpt lat="46.103460285812616" lon="7.216820223256946"><ele></ele><time>2013-8-1T14:45:25Z</time></trkpt>
<trkpt lat="46.103435307741165" lon="7.216920722275972"><ele></ele><time>2013-8-1T14:45:28Z</time></trkpt>
<trkpt lat="46.10338828526437" lon="7.217003954574466"><ele></ele><time>2013-8-1T14:45:31Z</time></trkpt>
<trkpt lat="46.10332692973316" lon="7.2170900367200375"><ele></ele><time>2013-8-1T14:45:34Z</time></trkpt>
<trkpt lat="46.10325031913817" lon="7.217173939570785"><ele></ele><time>2013-8-1T14:45:37Z</time></trkpt>
<trkpt lat="46.10316381789744" lon="7.217253986746073"><ele></ele><time>2013-8-1T14:45:40Z</time></trkpt>
<trkpt lat="46.10307538881898" lon="7.217326909303665"><ele></ele><time>2013-8-1T14:45:43Z</time></trkpt>
<trkpt lat="46.10298939049244" lon="7.217381643131375"><ele></ele><time>2013-8-1T14:45:46Z</time></trkpt>
<trkpt lat="46.10290104523301" lon="7.217421708628535"><ele></ele><time>2013-8-1T14:45:49Z</time></trkpt>
<trkpt lat="46.10281839966774" lon="7.217477951198816"><ele></ele><time>2013-8-1T14:45:52Z</time></trkpt>
<trkpt lat="46.102733071893454" lon="7.217546598985791"><ele></ele><time>2013-8-1T14:45:55Z</time></trkpt>
<trkpt lat="46.102657383307815" lon="7.21761055290699"><ele></ele><time>2013-8-1T14:45:58Z</time></trkpt>
<trkpt lat="46.102600218728185" lon="7.217662688344717"><ele></ele><time>2013-8-1T14:46:1Z</time></trkpt>
<trkpt lat="46.10254372470081" lon="7.217710968106985"><ele></ele><time>2013-8-1T14:46:4Z</time></trkpt>
<trkpt lat="46.102488404139876" lon="7.217753129079938"><ele></ele><time>2013-8-1T14:46:7Z</time></trkpt>
<trkpt lat="46.102429646998644" lon="7.217780789360404"><ele></ele><time>2013-8-1T14:46:10Z</time></trkpt>
<trkpt lat="46.10236560925841" lon="7.217761930078268"><ele></ele><time>2013-8-1T14:46:13Z</time></trkpt>
<trkpt lat="46.10230827704072" lon="7.217685570940375"><ele></ele><time>2013-8-1T14:46:16Z</time></trkpt>
<trkpt lat="46.10228925012052" lon="7.217573840171099"><ele></ele><time>2013-8-1T14:46:19Z</time></trkpt>
<trkpt lat="46.10229101032019" lon="7.217490021139383"><ele></ele><time>2013-8-1T14:46:22Z</time></trkpt>
<trkpt lat="46.102260584011674" lon="7.217426905408502"><ele></ele><time>2013-8-1T14:46:25Z</time></trkpt>
<trkpt lat="46.102222027257085" lon="7.217420116066933"><ele></ele><time>2013-8-1T14:46:28Z</time></trkpt>
<trkpt lat="46.10219059512019" lon="7.217463701963425"><ele></ele><time>2013-8-1T14:46:31Z</time></trkpt>
<trkpt lat="46.10216645523906" lon="7.217516675591469"><ele></ele><time>2013-8-1T14:46:34Z</time></trkpt>
<trkpt lat="46.102155055850744" lon="7.217582557350397"><ele></ele><time>2013-8-1T14:46:37Z</time></trkpt>
<trkpt lat="46.10214415937662" lon="7.217669980600476"><ele></ele><time>2013-8-1T14:46:40Z</time></trkpt>
<trkpt lat="46.10213535837829" lon="7.217775005847216"><ele></ele><time>2013-8-1T14:46:43Z</time></trkpt>
<trkpt lat="46.10212462954223" lon="7.217882294207811"><ele></ele><time>2013-8-1T14:46:46Z</time></trkpt>
<trkpt lat="46.102106776088476" lon="7.217989666387439"><ele></ele><time>2013-8-1T14:46:49Z</time></trkpt>
<trkpt lat="46.10206117853522" lon="7.218073736876249"><ele></ele><time>2013-8-1T14:46:52Z</time></trkpt>
<trkpt lat="46.101985992863774" lon="7.218126459047198"><ele></ele><time>2013-8-1T14:46:55Z</time></trkpt>
<trkpt lat="46.10188381746411" lon="7.218135260045528"><ele></ele><time>2013-8-1T14:46:58Z</time></trkpt>
<trkpt lat="46.10178306698799" lon="7.218125117942691"><ele></ele><time>2013-8-1T14:47:1Z</time></trkpt>
<trkpt lat="46.10168172977865" lon="7.218124782666564"><ele></ele><time>2013-8-1T14:47:4Z</time></trkpt>
<trkpt lat="46.10158651135862" lon="7.218162165954709"><ele></ele><time>2013-8-1T14:47:7Z</time></trkpt>
<trkpt lat="46.10148592852056" lon="7.218206003308296"><ele></ele><time>2013-8-1T14:47:10Z</time></trkpt>
<trkpt lat="46.101389368996024" lon="7.218242045491934"><ele></ele><time>2013-8-1T14:47:13Z</time></trkpt>
<trkpt lat="46.10129255801439" lon="7.218263754621148"><ele></ele><time>2013-8-1T14:47:16Z</time></trkpt>
<trkpt lat="46.10120287165046" lon="7.218290660530329"><ele></ele><time>2013-8-1T14:47:19Z</time></trkpt>
<trkpt lat="46.10111025162041" lon="7.218312118202448"><ele></ele><time>2013-8-1T14:47:22Z</time></trkpt>
<trkpt lat="46.10101846978068" lon="7.21833030693233"><ele></ele><time>2013-8-1T14:47:25Z</time></trkpt>
<trkpt lat="46.10093020834029" lon="7.21835813485086"><ele></ele><time>2013-8-1T14:47:28Z</time></trkpt>
<trkpt lat="46.100845048204064" lon="7.218399289995432"><ele></ele><time>2013-8-1T14:47:31Z</time></trkpt>
<trkpt lat="46.100760558620095" lon="7.218465926125646"><ele></ele><time>2013-8-1T14:47:34Z</time></trkpt>
<trkpt lat="46.1006860435009" lon="7.218525689095259"><ele></ele><time>2013-8-1T14:47:37Z</time></trkpt>
<trkpt lat="46.10062150284648" lon="7.218577740713954"><ele></ele><time>2013-8-1T14:47:40Z</time></trkpt>
<trkpt lat="46.10055671073496" lon="7.218629540875554"><ele></ele><time>2013-8-1T14:47:43Z</time></trkpt>
<trkpt lat="46.100515807047486" lon="7.218688717111945"><ele></ele><time>2013-8-1T14:47:46Z</time></trkpt>
<trkpt lat="46.10047733411193" lon="7.218739176169038"><ele></ele><time>2013-8-1T14:47:49Z</time></trkpt>
<trkpt lat="46.100442465394735" lon="7.218778906390071"><ele></ele><time>2013-8-1T14:47:52Z</time></trkpt>
<trkpt lat="46.10040307044983" lon="7.218813523650169"><ele></ele><time>2013-8-1T14:47:55Z</time></trkpt>
<trkpt lat="46.10036141239107" lon="7.218846213072538"><ele></ele><time>2013-8-1T14:47:58Z</time></trkpt>
<trkpt lat="46.10031112097204" lon="7.218879070132971"><ele></ele><time>2013-8-1T14:48:1Z</time></trkpt>
<trkpt lat="46.1002542078495" lon="7.2189021203666925"><ele></ele><time>2013-8-1T14:48:4Z</time></trkpt>
<trkpt lat="46.100197210907936" lon="7.218928439542651"><ele></ele><time>2013-8-1T14:48:7Z</time></trkpt>
<trkpt lat="46.10012420453131" lon="7.2189215663820505"><ele></ele><time>2013-8-1T14:48:10Z</time></trkpt>
<trkpt lat="46.10004658810794" lon="7.218908574432135"><ele></ele><time>2013-8-1T14:48:13Z</time></trkpt>
<trkpt lat="46.099957739934325" lon="7.218921147286892"><ele></ele><time>2013-8-1T14:48:16Z</time></trkpt>
<trkpt lat="46.09986713156104" lon="7.218938330188394"><ele></ele><time>2013-8-1T14:48:19Z</time></trkpt>
<trkpt lat="46.09979345463216" lon="7.218952663242817"><ele></ele><time>2013-8-1T14:48:22Z</time></trkpt>
<trkpt lat="46.09972489066422" lon="7.2189616318792105"><ele></ele><time>2013-8-1T14:48:25Z</time></trkpt>
<trkpt lat="46.09965171664953" lon="7.21896406263113"><ele></ele><time>2013-8-1T14:48:28Z</time></trkpt>
<trkpt lat="46.09957158565521" lon="7.2189822513610125"><ele></ele><time>2013-8-1T14:48:31Z</time></trkpt>
<trkpt lat="46.09948173165321" lon="7.219003792852163"><ele></ele><time>2013-8-1T14:48:34Z</time></trkpt>
<trkpt lat="46.099393889307976" lon="7.219018964096904"><ele></ele><time>2013-8-1T14:48:37Z</time></trkpt>
<trkpt lat="46.09929724596441" lon="7.219032710418105"><ele></ele><time>2013-8-1T14:48:40Z</time></trkpt>
<trkpt lat="46.09921426512301" lon="7.219050815328956"><ele></ele><time>2013-8-1T14:48:43Z</time></trkpt>
<trkpt lat="46.0991370677948" lon="7.219066489487886"><ele></ele><time>2013-8-1T14:48:46Z</time></trkpt>
<trkpt lat="46.0990559309721" lon="7.219091635197401"><ele></ele><time>2013-8-1T14:48:49Z</time></trkpt>
<trkpt lat="46.09897286631167" lon="7.2191072255373"><ele></ele><time>2013-8-1T14:48:52Z</time></trkpt>
<trkpt lat="46.098884688690305" lon="7.219123151153326"><ele></ele><time>2013-8-1T14:48:55Z</time></trkpt>
<trkpt lat="46.09879500232637" lon="7.219142429530621"><ele></ele><time>2013-8-1T14:48:58Z</time></trkpt>
<trkpt lat="46.09869626350701" lon="7.219157433137298"><ele></ele><time>2013-8-1T14:49:1Z</time></trkpt>
<trkpt lat="46.09859568066895" lon="7.219164473935962"><ele></ele><time>2013-8-1T14:49:4Z</time></trkpt>
<trkpt lat="46.09849601984024" lon="7.219177884981036"><ele></ele><time>2013-8-1T14:49:7Z</time></trkpt>
<trkpt lat="46.098398454487324" lon="7.219182830303907"><ele></ele><time>2013-8-1T14:49:10Z</time></trkpt>
<trkpt lat="46.098298290744424" lon="7.219178723171353"><ele></ele><time>2013-8-1T14:49:13Z</time></trkpt>
<trkpt lat="46.098190415650606" lon="7.21916439011693"><ele></ele><time>2013-8-1T14:49:16Z</time></trkpt>
<trkpt lat="46.09809544868767" lon="7.219125414267182"><ele></ele><time>2013-8-1T14:49:19Z</time></trkpt>
<trkpt lat="46.09800819307566" lon="7.219096831977367"><ele></ele><time>2013-8-1T14:49:22Z</time></trkpt>
<trkpt lat="46.097912304103374" lon="7.219091635197401"><ele></ele><time>2013-8-1T14:49:25Z</time></trkpt>
<trkpt lat="46.09782379120588" lon="7.219077972695231"><ele></ele><time>2013-8-1T14:49:28Z</time></trkpt>
<trkpt lat="46.09775128774345" lon="7.219070848077536"><ele></ele><time>2013-8-1T14:49:31Z</time></trkpt>
<trkpt lat="46.097689010202885" lon="7.219068920239806"><ele></ele><time>2013-8-1T14:49:34Z</time></trkpt>
<trkpt lat="46.09763997606933" lon="7.219068417325616"><ele></ele><time>2013-8-1T14:49:37Z</time></trkpt>
<trkpt lat="46.09760376624763" lon="7.219065735116601"><ele></ele><time>2013-8-1T14:49:40Z</time></trkpt>
<trkpt lat="46.09758557751775" lon="7.219064645469189"><ele></ele><time>2013-8-1T14:49:43Z</time></trkpt>
<trkpt lat="46.097547356039286" lon="7.219062214717269"><ele></ele><time>2013-8-1T14:49:46Z</time></trkpt>
<trkpt lat="46.09750905074179" lon="7.219054838642478"><ele></ele><time>2013-8-1T14:49:49Z</time></trkpt>
<trkpt lat="46.09746630303562" lon="7.2190488036721945"><ele></ele><time>2013-8-1T14:49:52Z</time></trkpt>
<trkpt lat="46.09742456115782" lon="7.219046289101243"><ele></ele><time>2013-8-1T14:49:55Z</time></trkpt>
<trkpt lat="46.09738005325198" lon="7.2190408408641815"><ele></ele><time>2013-8-1T14:49:58Z</time></trkpt>
<trkpt lat="46.097334707155824" lon="7.219025921076536"><ele></ele><time>2013-8-1T14:50:1Z</time></trkpt>
<trkpt lat="46.097289863973856" lon="7.219012677669525"><ele></ele><time>2013-8-1T14:50:4Z</time></trkpt>
<trkpt lat="46.09723404049873" lon="7.218993566930294"><ele></ele><time>2013-8-1T14:50:7Z</time></trkpt>
<trkpt lat="46.09718257561326" lon="7.218997338786721"><ele></ele><time>2013-8-1T14:50:10Z</time></trkpt>
<trkpt lat="46.097011333331466" lon="7.219015108421445"><ele></ele><time>2013-8-1T14:50:13Z</time></trkpt>
<trkpt lat="46.09695106744766" lon="7.219023238867521"><ele></ele><time>2013-8-1T14:50:16Z</time></trkpt>
<trkpt lat="46.09687906689942" lon="7.219047881662846"><ele></ele><time>2013-8-1T14:50:19Z</time></trkpt>
<trkpt lat="46.096803629770875" lon="7.2190705966204405"><ele></ele><time>2013-8-1T14:50:22Z</time></trkpt>
<trkpt lat="46.09672509133816" lon="7.219102447852492"><ele></ele><time>2013-8-1T14:50:25Z</time></trkpt>
<trkpt lat="46.09663783572614" lon="7.219131700694561"><ele></ele><time>2013-8-1T14:50:28Z</time></trkpt>
<trkpt lat="46.096558878198266" lon="7.219164222478867"><ele></ele><time>2013-8-1T14:50:31Z</time></trkpt>
<trkpt lat="46.096487967297435" lon="7.219188194721937"><ele></ele><time>2013-8-1T14:50:34Z</time></trkpt>
<trkpt lat="46.09642091207206" lon="7.219180064275861"><ele></ele><time>2013-8-1T14:50:37Z</time></trkpt>
<trkpt lat="46.096366764977574" lon="7.219144273549318"><ele></ele><time>2013-8-1T14:50:40Z</time></trkpt>
<trkpt lat="46.096328208222985" lon="7.219078643247485"><ele></ele><time>2013-8-1T14:50:43Z</time></trkpt>
<trkpt lat="46.09630490653217" lon="7.2189851850271225"><ele></ele><time>2013-8-1T14:50:46Z</time></trkpt>
<trkpt lat="46.096316473558545" lon="7.218873370438814"><ele></ele><time>2013-8-1T14:50:49Z</time></trkpt>
<trkpt lat="46.09632485546172" lon="7.218756191432476"><ele></ele><time>2013-8-1T14:50:52Z</time></trkpt>
<trkpt lat="46.09633684158325" lon="7.218642281368375"><ele></ele><time>2013-8-1T14:50:55Z</time></trkpt>
<trkpt lat="46.096347318962216" lon="7.2185351606458426"><ele></ele><time>2013-8-1T14:50:58Z</time></trkpt>
<trkpt lat="46.09634933061898" lon="7.218460645526648"><ele></ele><time>2013-8-1T14:51:1Z</time></trkpt>
<trkpt lat="46.09634446911514" lon="7.218413287773728"><ele></ele><time>2013-8-1T14:51:4Z</time></trkpt>
<trkpt lat="46.09631513245404" lon="7.218390153720975"><ele></ele><time>2013-8-1T14:51:7Z</time></trkpt>
<trkpt lat="46.09626978635788" lon="7.2184055764228106"><ele></ele><time>2013-8-1T14:51:10Z</time></trkpt>
<trkpt lat="46.09623868949711" lon="7.2184577118605375"><ele></ele><time>2013-8-1T14:51:13Z</time></trkpt>
<trkpt lat="46.096230475232005" lon="7.218533148989081"><ele></ele><time>2013-8-1T14:51:16Z</time></trkpt>
<trkpt lat="46.09622351825237" lon="7.218607747927308"><ele></ele><time>2013-8-1T14:51:19Z</time></trkpt>
<trkpt lat="46.096209436655045" lon="7.2186898067593575"><ele></ele><time>2013-8-1T14:51:22Z</time></trkpt>
<trkpt lat="46.096197282895446" lon="7.218768009915948"><ele></ele><time>2013-8-1T14:51:25Z</time></trkpt>
<trkpt lat="46.09618529677391" lon="7.218833304941654"><ele></ele><time>2013-8-1T14:51:28Z</time></trkpt>
<trkpt lat="46.096169874072075" lon="7.218883596360683"><ele></ele><time>2013-8-1T14:51:31Z</time></trkpt>
<trkpt lat="46.09613450244069" lon="7.21892693080008"><ele></ele><time>2013-8-1T14:51:34Z</time></trkpt>
<trkpt lat="46.096077170223" lon="7.218935145065188"><ele></ele><time>2013-8-1T14:51:37Z</time></trkpt>
<trkpt lat="46.09601715579629" lon="7.218901198357344"><ele></ele><time>2013-8-1T14:51:40Z</time></trkpt>
<trkpt lat="46.09596007503569" lon="7.2188435308635235"><ele></ele><time>2013-8-1T14:51:43Z</time></trkpt>
<trkpt lat="46.09590634703636" lon="7.218774799257517"><ele></ele><time>2013-8-1T14:51:46Z</time></trkpt>
<trkpt lat="46.09585043974221" lon="7.218702379614115"><ele></ele><time>2013-8-1T14:51:49Z</time></trkpt>
<trkpt lat="46.09579646028578" lon="7.218612609431148"><ele></ele><time>2013-8-1T14:51:52Z</time></trkpt>
<trkpt lat="46.09574499540031" lon="7.2184989508241415"><ele></ele><time>2013-8-1T14:51:55Z</time></trkpt>
<trkpt lat="46.09568749554455" lon="7.218243554234505"><ele></ele><time>2013-8-1T14:51:58Z</time></trkpt>
<trkpt lat="46.09567014500499" lon="7.218104498460889"><ele></ele><time>2013-8-1T14:52:1Z</time></trkpt>
<trkpt lat="46.09565983526409" lon="7.21796820871532"><ele></ele><time>2013-8-1T14:52:4Z</time></trkpt>
<trkpt lat="46.09566637314856" lon="7.217835858464241"><ele></ele><time>2013-8-1T14:52:7Z</time></trkpt>
<trkpt lat="46.09569612890482" lon="7.217713566496968"><ele></ele><time>2013-8-1T14:52:10Z</time></trkpt>
<trkpt lat="46.0957402177155" lon="7.21760761924088"><ele></ele><time>2013-8-1T14:52:13Z</time></trkpt>
<trkpt lat="46.09579931013286" lon="7.217530757188797"><ele></ele><time>2013-8-1T14:52:16Z</time></trkpt>
<trkpt lat="46.0958715621382" lon="7.217464707791805"><ele></ele><time>2013-8-1T14:52:19Z</time></trkpt>
<trkpt lat="46.09593912027776" lon="7.217418272048235"><ele></ele><time>2013-8-1T14:52:22Z</time></trkpt>
<trkpt lat="46.096015898510814" lon="7.217383990064263"><ele></ele><time>2013-8-1T14:52:25Z</time></trkpt>
<trkpt lat="46.09608672559261" lon="7.217359263449907"><ele></ele><time>2013-8-1T14:52:28Z</time></trkpt>
<trkpt lat="46.09615797176957" lon="7.217359850183129"><ele></ele><time>2013-8-1T14:52:31Z</time></trkpt>
<trkpt lat="46.096224104985595" lon="7.217337973415852"><ele></ele><time>2013-8-1T14:52:34Z</time></trkpt>
<trkpt lat="46.09627213329077" lon="7.217279803007841"><ele></ele><time>2013-8-1T14:52:37Z</time></trkpt>
<trkpt lat="46.09629459679127" lon="7.217188607901335"><ele></ele><time>2013-8-1T14:52:40Z</time></trkpt>
<trkpt lat="46.09627925790846" lon="7.217094395309687"><ele></ele><time>2013-8-1T14:52:43Z</time></trkpt>
<trkpt lat="46.09615696594119" lon="7.216970343142748"><ele></ele><time>2013-8-1T14:52:46Z</time></trkpt>
<trkpt lat="46.09600357711315" lon="7.216986184939742"><ele></ele><time>2013-8-1T14:52:49Z</time></trkpt>
<trkpt lat="46.09592034481466" lon="7.2169978357851505"><ele></ele><time>2013-8-1T14:52:52Z</time></trkpt>
<trkpt lat="46.095833173021674" lon="7.217008313164115"><ele></ele><time>2013-8-1T14:52:55Z</time></trkpt>
<trkpt lat="46.09574901871383" lon="7.217021472752094"><ele></ele><time>2013-8-1T14:52:58Z</time></trkpt>
<trkpt lat="46.09566142782569" lon="7.217050055041909"><ele></ele><time>2013-8-1T14:53:1Z</time></trkpt>
<trkpt lat="46.09557802788913" lon="7.21709506586194"><ele></ele><time>2013-8-1T14:53:4Z</time></trkpt>
<trkpt lat="46.09549596905708" lon="7.217158181592822"><ele></ele><time>2013-8-1T14:53:7Z</time></trkpt>
<trkpt lat="46.095423800870776" lon="7.217226158827543"><ele></ele><time>2013-8-1T14:53:10Z</time></trkpt>
<trkpt lat="46.09535993076861" lon="7.217297991737723"><ele></ele><time>2013-8-1T14:53:13Z</time></trkpt>
<trkpt lat="46.09529404900968" lon="7.217382816597819"><ele></ele><time>2013-8-1T14:53:16Z</time></trkpt>
<trkpt lat="46.09523193910718" lon="7.217479711398482"><ele></ele><time>2013-8-1T14:53:19Z</time></trkpt>
<trkpt lat="46.09516647644341" lon="7.217579623684287"><ele></ele><time>2013-8-1T14:53:22Z</time></trkpt>
<trkpt lat="46.09509531408548" lon="7.217681044712663"><ele></ele><time>2013-8-1T14:53:25Z</time></trkpt>
<trkpt lat="46.09503169544041" lon="7.217771569266915"><ele></ele><time>2013-8-1T14:53:28Z</time></trkpt>
<trkpt lat="46.09496279619634" lon="7.217870643362403"><ele></ele><time>2013-8-1T14:53:31Z</time></trkpt>
<trkpt lat="46.0948907956481" lon="7.217973070219159"><ele></ele><time>2013-8-1T14:53:34Z</time></trkpt>
<trkpt lat="46.09481963329017" lon="7.21807423979044"><ele></ele><time>2013-8-1T14:53:37Z</time></trkpt>
<trkpt lat="46.0947457049042" lon="7.218175325542688"><ele></ele><time>2013-8-1T14:53:40Z</time></trkpt>
<trkpt lat="46.09467747621238" lon="7.218272807076573"><ele></ele><time>2013-8-1T14:53:43Z</time></trkpt>
<trkpt lat="46.094605810940266" lon="7.218360481783748"><ele></ele><time>2013-8-1T14:53:46Z</time></trkpt>
<trkpt lat="46.09452484175563" lon="7.218432230874896"><ele></ele><time>2013-8-1T14:53:49Z</time></trkpt>
<trkpt lat="46.09443783760071" lon="7.218478582799435"><ele></ele><time>2013-8-1T14:53:52Z</time></trkpt>
<trkpt lat="46.09433541074395" lon="7.218491658568382"><ele></ele><time>2013-8-1T14:53:55Z</time></trkpt>
<trkpt lat="46.09424840658903" lon="7.218518732115626"><ele></ele><time>2013-8-1T14:53:58Z</time></trkpt>
<trkpt lat="46.094169868156314" lon="7.218563072383404"><ele></ele><time>2013-8-1T14:54:1Z</time></trkpt>
<trkpt lat="46.094106417149305" lon="7.218626607209444"><ele></ele><time>2013-8-1T14:54:4Z</time></trkpt>
<trkpt lat="46.09406601637602" lon="7.21872509457171"><ele></ele><time>2013-8-1T14:54:7Z</time></trkpt>
<trkpt lat="46.09404992312193" lon="7.218833472579718"><ele></ele><time>2013-8-1T14:54:10Z</time></trkpt>
<trkpt lat="46.094040870666504" lon="7.218913771212101"><ele></ele><time>2013-8-1T14:54:13Z</time></trkpt>
<trkpt lat="46.094043888151646" lon="7.218995662406087"><ele></ele><time>2013-8-1T14:54:16Z</time></trkpt>
<trkpt lat="46.094038020819426" lon="7.219063304364681"><ele></ele><time>2013-8-1T14:54:19Z</time></trkpt>
<trkpt lat="46.09402310103178" lon="7.219112003222108"><ele></ele><time>2013-8-1T14:54:22Z</time></trkpt>
<trkpt lat="46.09399535693228" lon="7.219144692644477"><ele></ele><time>2013-8-1T14:54:25Z</time></trkpt>
<trkpt lat="46.09395772218704" lon="7.219156427308917"><ele></ele><time>2013-8-1T14:54:28Z</time></trkpt>
<trkpt lat="46.093925116583705" lon="7.219142178073525"><ele></ele><time>2013-8-1T14:54:31Z</time></trkpt>
<trkpt lat="46.09389745630324" lon="7.219104627147317"><ele></ele><time>2013-8-1T14:54:34Z</time></trkpt>
<trkpt lat="46.093883542343974" lon="7.219048049300909"><ele></ele><time>2013-8-1T14:54:37Z</time></trkpt>
<trkpt lat="46.09394188039005" lon="7.218835819512606"><ele></ele><time>2013-8-1T14:54:40Z</time></trkpt>
<trkpt lat="46.094030644744635" lon="7.218612860888243"><ele></ele><time>2013-8-1T14:54:43Z</time></trkpt>
<trkpt lat="46.09405595809221" lon="7.218519067391753"><ele></ele><time>2013-8-1T14:54:46Z</time></trkpt>
<trkpt lat="46.09407138079405" lon="7.218423597514629"><ele></ele><time>2013-8-1T14:54:49Z</time></trkpt>
<trkpt lat="46.09408646821976" lon="7.218313878402114"><ele></ele><time>2013-8-1T14:54:52Z</time></trkpt>
<trkpt lat="46.09406618401408" lon="7.218026295304298"><ele></ele><time>2013-8-1T14:54:55Z</time></trkpt>
<trkpt lat="46.094031147658825" lon="7.217962760478258"><ele></ele><time>2013-8-1T14:54:58Z</time></trkpt>
<trkpt lat="46.093976916745305" lon="7.217942560091615"><ele></ele><time>2013-8-1T14:55:1Z</time></trkpt>
<trkpt lat="46.093919249251485" lon="7.217980278655887"><ele></ele><time>2013-8-1T14:55:4Z</time></trkpt>
<trkpt lat="46.0938785970211" lon="7.2180483397096395"><ele></ele><time>2013-8-1T14:55:7Z</time></trkpt>
<trkpt lat="46.09384632669389" lon="7.218127800151706"><ele></ele><time>2013-8-1T14:55:10Z</time></trkpt>
<trkpt lat="46.09381623566151" lon="7.218216732144356"><ele></ele><time>2013-8-1T14:55:13Z</time></trkpt>
<trkpt lat="46.09377432614565" lon="7.21830784343183"><ele></ele><time>2013-8-1T14:55:16Z</time></trkpt>
<trkpt lat="46.09370651654899" lon="7.218385459855199"><ele></ele><time>2013-8-1T14:55:19Z</time></trkpt>
<trkpt lat="46.09362822957337" lon="7.2184536047279835"><ele></ele><time>2013-8-1T14:55:22Z</time></trkpt>
<trkpt lat="46.09353829175234" lon="7.218509931117296"><ele></ele><time>2013-8-1T14:55:25Z</time></trkpt>
<trkpt lat="46.09344785101712" lon="7.218572627753019"><ele></ele><time>2013-8-1T14:55:28Z</time></trkpt>
<trkpt lat="46.09335942193866" lon="7.218639766797423"><ele></ele><time>2013-8-1T14:55:31Z</time></trkpt>
<trkpt lat="46.09328021295369" lon="7.218729369342327"><ele></ele><time>2013-8-1T14:55:34Z</time></trkpt>
<trkpt lat="46.093217097222805" lon="7.218835232779384"><ele></ele><time>2013-8-1T14:55:37Z</time></trkpt>
<trkpt lat="46.09316546469927" lon="7.218956770375371"><ele></ele><time>2013-8-1T14:55:40Z</time></trkpt>
<trkpt lat="46.09313269145787" lon="7.219091299921274"><ele></ele><time>2013-8-1T14:55:43Z</time></trkpt>
<trkpt lat="46.0931087192148" lon="7.219230020418763"><ele></ele><time>2013-8-1T14:55:46Z</time></trkpt>
<trkpt lat="46.09308499842882" lon="7.219381565228105"><ele></ele><time>2013-8-1T14:55:49Z</time></trkpt>
<trkpt lat="46.093060271814466" lon="7.219518441706896"><ele></ele><time>2013-8-1T14:55:52Z</time></trkpt>
<trkpt lat="46.09303227625787" lon="7.219635620713234"><ele></ele><time>2013-8-1T14:55:55Z</time></trkpt>
<trkpt lat="46.09300788491964" lon="7.219740562140942"><ele></ele><time>2013-8-1T14:55:58Z</time></trkpt>
<trkpt lat="46.09298483468592" lon="7.219846257939935"><ele></ele><time>2013-8-1T14:56:1Z</time></trkpt>
<trkpt lat="46.09295742586255" lon="7.21992957405746"><ele></ele><time>2013-8-1T14:56:4Z</time></trkpt>
<trkpt lat="46.09292775392532" lon="7.220020014792681"><ele></ele><time>2013-8-1T14:56:7Z</time></trkpt>
<trkpt lat="46.09288995154202" lon="7.220109533518553"><ele></ele><time>2013-8-1T14:56:10Z</time></trkpt>
<trkpt lat="46.09285365790129" lon="7.220206260681152"><ele></ele><time>2013-8-1T14:56:13Z</time></trkpt>
<trkpt lat="46.092824237421155" lon="7.2203028202056885"><ele></ele><time>2013-8-1T14:56:16Z</time></trkpt>
<trkpt lat="46.0928148496896" lon="7.220412120223045"><ele></ele><time>2013-8-1T14:56:19Z</time></trkpt>
<trkpt lat="46.09282742254436" lon="7.2205304726958275"><ele></ele><time>2013-8-1T14:56:22Z</time></trkpt>
<trkpt lat="46.09286807477474" lon="7.220650082454085"><ele></ele><time>2013-8-1T14:56:25Z</time></trkpt>
<trkpt lat="46.09290755353868" lon="7.220778074115515"><ele></ele><time>2013-8-1T14:56:28Z</time></trkpt>
<trkpt lat="46.092961030080914" lon="7.22090682014823"><ele></ele><time>2013-8-1T14:56:31Z</time></trkpt>
<trkpt lat="46.093016769737005" lon="7.221032548695803"><ele></ele><time>2013-8-1T14:56:34Z</time></trkpt>
<trkpt lat="46.0930862557143" lon="7.221164479851723"><ele></ele><time>2013-8-1T14:56:37Z</time></trkpt>
<trkpt lat="46.09320955350995" lon="7.2214384842664"><ele></ele><time>2013-8-1T14:56:40Z</time></trkpt>
<trkpt lat="46.093261605128646" lon="7.221574354916811"><ele></ele><time>2013-8-1T14:56:43Z</time></trkpt>
<trkpt lat="46.09331030398607" lon="7.2217088006436825"><ele></ele><time>2013-8-1T14:56:46Z</time></trkpt>
<trkpt lat="46.09335648827255" lon="7.221845174208283"><ele></ele><time>2013-8-1T14:56:49Z</time></trkpt>
<trkpt lat="46.093404181301594" lon="7.221978697925806"><ele></ele><time>2013-8-1T14:56:52Z</time></trkpt>
<trkpt lat="46.09345137141645" lon="7.222102917730808"><ele></ele><time>2013-8-1T14:56:55Z</time></trkpt>
<trkpt lat="46.09350023791194" lon="7.2222271375358105"><ele></ele><time>2013-8-1T14:56:58Z</time></trkpt>
<trkpt lat="46.09354700893164" lon="7.222342807799578"><ele></ele><time>2013-8-1T14:57:1Z</time></trkpt>
<trkpt lat="46.093594785779715" lon="7.22245629876852"><ele></ele><time>2013-8-1T14:57:4Z</time></trkpt>
<trkpt lat="46.093745240941644" lon="7.222780091688037"><ele></ele><time>2013-8-1T14:57:7Z</time></trkpt>
<trkpt lat="46.0937908384949" lon="7.222905736416578"><ele></ele><time>2013-8-1T14:57:10Z</time></trkpt>
<trkpt lat="46.09378455206752" lon="7.223038673400879"><ele></ele><time>2013-8-1T14:57:13Z</time></trkpt>
<trkpt lat="46.09374658204615" lon="7.223154846578836"><ele></ele><time>2013-8-1T14:57:16Z</time></trkpt>
<trkpt lat="46.093690674752" lon="7.223254423588514"><ele></ele><time>2013-8-1T14:57:19Z</time></trkpt>
<trkpt lat="46.09358875080943" lon="7.223446704447269"><ele></ele><time>2013-8-1T14:57:22Z</time></trkpt>
<trkpt lat="46.09337652102113" lon="7.223826069384813"><ele></ele><time>2013-8-1T14:57:25Z</time></trkpt>
<trkpt lat="46.09332086518407" lon="7.223922293633223"><ele></ele><time>2013-8-1T14:57:28Z</time></trkpt>
<trkpt lat="46.093259677290916" lon="7.224019607529044"><ele></ele><time>2013-8-1T14:57:31Z</time></trkpt>
<trkpt lat="46.09320117160678" lon="7.224123626947403"><ele></ele><time>2013-8-1T14:57:34Z</time></trkpt>
<trkpt lat="46.093143336474895" lon="7.224227981641889"><ele></ele><time>2013-8-1T14:57:37Z</time></trkpt>
<trkpt lat="46.093090530484915" lon="7.224335353821516"><ele></ele><time>2013-8-1T14:57:40Z</time></trkpt>
<trkpt lat="46.09298760071397" lon="7.224560575559735"><ele></ele><time>2013-8-1T14:57:43Z</time></trkpt>
<trkpt lat="46.09294175170362" lon="7.224673395976424"><ele></ele><time>2013-8-1T14:57:46Z</time></trkpt>
<trkpt lat="46.09289590269327" lon="7.224782695993781"><ele></ele><time>2013-8-1T14:57:49Z</time></trkpt>
<trkpt lat="46.092853574082255" lon="7.2248912416398525"><ele></ele><time>2013-8-1T14:57:52Z</time></trkpt>
<trkpt lat="46.09281862154603" lon="7.224997607991099"><ele></ele><time>2013-8-1T14:57:55Z</time></trkpt>
<trkpt lat="46.09273941256106" lon="7.225309079512954"><ele></ele><time>2013-8-1T14:57:58Z</time></trkpt>
<trkpt lat="46.092620054259896" lon="7.225816436111927"><ele></ele><time>2013-8-1T14:58:1Z</time></trkpt>
<trkpt lat="46.09260178171098" lon="7.225891454145312"><ele></ele><time>2013-8-1T14:58:4Z</time></trkpt>
<trkpt lat="46.092587783932686" lon="7.225959179922938"><ele></ele><time>2013-8-1T14:58:7Z</time></trkpt>
<trkpt lat="46.09256934374571" lon="7.226029587909579"><ele></ele><time>2013-8-1T14:58:10Z</time></trkpt>
<trkpt lat="46.09255132265389" lon="7.226091027259827"><ele></ele><time>2013-8-1T14:58:13Z</time></trkpt>
<trkpt lat="46.092523243278265" lon="7.226183647289872"><ele></ele><time>2013-8-1T14:58:16Z</time></trkpt>
<trkpt lat="46.09249021857977" lon="7.226277524605393"><ele></ele><time>2013-8-1T14:58:19Z</time></trkpt>
<trkpt lat="46.092475801706314" lon="7.226322619244456"><ele></ele><time>2013-8-1T14:58:22Z</time></trkpt>
<trkpt lat="46.09245736151934" lon="7.226365953683853"><ele></ele><time>2013-8-1T14:58:25Z</time></trkpt>
<trkpt lat="46.09243975952268" lon="7.226407192647457"><ele></ele><time>2013-8-1T14:58:28Z</time></trkpt>
<trkpt lat="46.09242240898311" lon="7.226444911211729"><ele></ele><time>2013-8-1T14:58:31Z</time></trkpt>
<trkpt lat="46.09240271151066" lon="7.226483803242445"><ele></ele><time>2013-8-1T14:58:34Z</time></trkpt>
<trkpt lat="46.09238527715206" lon="7.226526467129588"><ele></ele><time>2013-8-1T14:58:37Z</time></trkpt>
<trkpt lat="46.09234747476876" lon="7.22660131752491"><ele></ele><time>2013-8-1T14:58:40Z</time></trkpt>
<trkpt lat="46.09232417307794" lon="7.2266423888504505"><ele></ele><time>2013-8-1T14:58:43Z</time></trkpt>
<trkpt lat="46.09230405651033" lon="7.2266812808811665"><ele></ele><time>2013-8-1T14:58:46Z</time></trkpt>
<trkpt lat="46.09228251501918" lon="7.226723525673151"><ele></ele><time>2013-8-1T14:58:49Z</time></trkpt>
<trkpt lat="46.092237336561084" lon="7.226789239794016"><ele></ele><time>2013-8-1T14:58:52Z</time></trkpt>
<trkpt lat="46.092220740392804" lon="7.226818911731243"><ele></ele><time>2013-8-1T14:58:55Z</time></trkpt>
<trkpt lat="46.092181177809834" lon="7.2268815245479345"><ele></ele><time>2013-8-1T14:58:58Z</time></trkpt>
<trkpt lat="46.09215938486159" lon="7.226910945028067"><ele></ele><time>2013-8-1T14:59:1Z</time></trkpt>
<trkpt lat="46.092132814228535" lon="7.226938186213374"><ele></ele><time>2013-8-1T14:59:4Z</time></trkpt>
<trkpt lat="46.09210766851902" lon="7.226970372721553"><ele></ele><time>2013-8-1T14:59:7Z</time></trkpt>
<trkpt lat="46.092083444818854" lon="7.227003984153271"><ele></ele><time>2013-8-1T14:59:10Z</time></trkpt>
<trkpt lat="46.09205746091902" lon="7.227027369663119"><ele></ele><time>2013-8-1T14:59:13Z</time></trkpt>
<trkpt lat="46.09196450561285" lon="7.227143375203013"><ele></ele><time>2013-8-1T14:59:16Z</time></trkpt>
<trkpt lat="46.091936342418194" lon="7.227163575589657"><ele></ele><time>2013-8-1T14:59:19Z</time></trkpt>
<trkpt lat="46.091906167566776" lon="7.2271778248250484"><ele></ele><time>2013-8-1T14:59:22Z</time></trkpt>
<trkpt lat="46.0918790102005" lon="7.2271957620978355"><ele></ele><time>2013-8-1T14:59:25Z</time></trkpt>
<trkpt lat="46.09185294248164" lon="7.227215124294162"><ele></ele><time>2013-8-1T14:59:28Z</time></trkpt>
<trkpt lat="46.09172503463924" lon="7.2273265197873116"><ele></ele><time>2013-8-1T14:59:31Z</time></trkpt>
<trkpt lat="46.091698966920376" lon="7.227354096248746"><ele></ele><time>2013-8-1T14:59:34Z</time></trkpt>
<trkpt lat="46.09167147427797" lon="7.227373626083136"><ele></ele><time>2013-8-1T14:59:37Z</time></trkpt>
<trkpt lat="46.0916440654546" lon="7.227388126775622"><ele></ele><time>2013-8-1T14:59:40Z</time></trkpt>
<trkpt lat="46.09161690808833" lon="7.227397011592984"><ele></ele><time>2013-8-1T14:59:43Z</time></trkpt>
<trkpt lat="46.0915890801698" lon="7.227411093190312"><ele></ele><time>2013-8-1T14:59:46Z</time></trkpt>
<trkpt lat="46.091564521193504" lon="7.227432383224368"><ele></ele><time>2013-8-1T14:59:49Z</time></trkpt>
<trkpt lat="46.09153686091304" lon="7.22744713537395"><ele></ele><time>2013-8-1T14:59:52Z</time></trkpt>
<trkpt lat="46.09151104465127" lon="7.227450404316187"><ele></ele><time>2013-8-1T14:59:55Z</time></trkpt>
<trkpt lat="46.09142739325762" lon="7.227492397651076"><ele></ele><time>2013-8-1T14:59:58Z</time></trkpt>
<trkpt lat="46.09140191227198" lon="7.2275094129145145"><ele></ele><time>2013-8-1T15:0:1Z</time></trkpt>
<trkpt lat="46.09137332998216" lon="7.227522237226367"><ele></ele><time>2013-8-1T15:0:4Z</time></trkpt>
<trkpt lat="46.09134499914944" lon="7.227530283853412"><ele></ele><time>2013-8-1T15:0:7Z</time></trkpt>
<trkpt lat="46.09131842851639" lon="7.227538917213678"><ele></ele><time>2013-8-1T15:0:10Z</time></trkpt>
<trkpt lat="46.09119722619653" lon="7.227584682404995"><ele></ele><time>2013-8-1T15:0:13Z</time></trkpt>
<trkpt lat="46.09114173799753" lon="7.227594908326864"><ele></ele><time>2013-8-1T15:0:16Z</time></trkpt>
<trkpt lat="46.091110641136765" lon="7.227603290230036"><ele></ele><time>2013-8-1T15:0:19Z</time></trkpt>
<trkpt lat="46.09108189120889" lon="7.227606140077114"><ele></ele><time>2013-8-1T15:0:22Z</time></trkpt>
<trkpt lat="46.091053392738104" lon="7.227615779265761"><ele></ele><time>2013-8-1T15:0:25Z</time></trkpt>
<trkpt lat="46.09102296642959" lon="7.227619802579284"><ele></ele><time>2013-8-1T15:0:28Z</time></trkpt>
<trkpt lat="46.09099077992141" lon="7.227626508101821"><ele></ele><time>2013-8-1T15:0:31Z</time></trkpt>
<trkpt lat="46.09080512076616" lon="7.2276681661605835"><ele></ele><time>2013-8-1T15:0:34Z</time></trkpt>
<trkpt lat="46.09077025204897" lon="7.227671602740884"><ele></ele><time>2013-8-1T15:0:37Z</time></trkpt>
<trkpt lat="46.090738316997886" lon="7.227677050977945"><ele></ele><time>2013-8-1T15:0:40Z</time></trkpt>
<trkpt lat="46.09070571139455" lon="7.227679817005992"><ele></ele><time>2013-8-1T15:0:43Z</time></trkpt>
<trkpt lat="46.09067302197218" lon="7.227687193080783"><ele></ele><time>2013-8-1T15:0:46Z</time></trkpt>
<trkpt lat="46.09058015048504" lon="7.227707225829363"><ele></ele><time>2013-8-1T15:0:49Z</time></trkpt>
<trkpt lat="46.09054536558688" lon="7.227717116475105"><ele></ele><time>2013-8-1T15:0:52Z</time></trkpt>
<trkpt lat="46.090513514354825" lon="7.227723151445389"><ele></ele><time>2013-8-1T15:0:55Z</time></trkpt>
<trkpt lat="46.09035442583263" lon="7.227757936343551"><ele></ele><time>2013-8-1T15:0:58Z</time></trkpt>
<trkpt lat="46.09032383188605" lon="7.227768413722515"><ele></ele><time>2013-8-1T15:1:1Z</time></trkpt>
<trkpt lat="46.09029323793948" lon="7.227777969092131"><ele></ele><time>2013-8-1T15:1:4Z</time></trkpt>
<trkpt lat="46.09026021324098" lon="7.227787356823683"><ele></ele><time>2013-8-1T15:1:7Z</time></trkpt>
<trkpt lat="46.090230122208595" lon="7.2277942299842834"><ele></ele><time>2013-8-1T15:1:10Z</time></trkpt>
<trkpt lat="46.090071368962526" lon="7.22781945951283"><ele></ele><time>2013-8-1T15:1:13Z</time></trkpt>
<trkpt lat="46.09004261903465" lon="7.227817112579942"><ele></ele><time>2013-8-1T15:1:16Z</time></trkpt>
<trkpt lat="46.090012695640326" lon="7.227814849466085"><ele></ele><time>2013-8-1T15:1:19Z</time></trkpt>
<trkpt lat="46.089981850236654" lon="7.227804707363248"><ele></ele><time>2013-8-1T15:1:22Z</time></trkpt>
<trkpt lat="46.08995326794684" lon="7.227790541946888"><ele></ele><time>2013-8-1T15:1:25Z</time></trkpt>
<trkpt lat="46.08984681777656" lon="7.2277363948524"><ele></ele><time>2013-8-1T15:1:28Z</time></trkpt>
<trkpt lat="46.089760567992926" lon="7.2276652324944735"><ele></ele><time>2013-8-1T15:1:31Z</time></trkpt>
<trkpt lat="46.08974112197757" lon="7.2276481334120035"><ele></ele><time>2013-8-1T15:1:34Z</time></trkpt>
<trkpt lat="46.08972360379994" lon="7.2276360634714365"><ele></ele><time>2013-8-1T15:1:37Z</time></trkpt>
<trkpt lat="46.089707259088755" lon="7.227619970217347"><ele></ele><time>2013-8-1T15:1:40Z</time></trkpt>
<trkpt lat="46.08968957327306" lon="7.227601362392306"><ele></ele><time>2013-8-1T15:1:43Z</time></trkpt>
<trkpt lat="46.08959469012916" lon="7.227505221962929"><ele></ele><time>2013-8-1T15:1:46Z</time></trkpt>
<trkpt lat="46.089574322104454" lon="7.227484602481127"><ele></ele><time>2013-8-1T15:1:49Z</time></trkpt>
<trkpt lat="46.08955034986138" lon="7.227449817582965"><ele></ele><time>2013-8-1T15:1:52Z</time></trkpt>
<trkpt lat="46.089529478922486" lon="7.227429449558258"><ele></ele><time>2013-8-1T15:1:55Z</time></trkpt>
<trkpt lat="46.08950659632683" lon="7.227409249171615"><ele></ele><time>2013-8-1T15:1:58Z</time></trkpt>
<trkpt lat="46.08948865905404" lon="7.227385360747576"><ele></ele><time>2013-8-1T15:2:1Z</time></trkpt>
<trkpt lat="46.08946862630546" lon="7.227360047399998"><ele></ele><time>2013-8-1T15:2:4Z</time></trkpt>
<trkpt lat="46.08937265351415" lon="7.2272535134106874"><ele></ele><time>2013-8-1T15:2:7Z</time></trkpt>
<trkpt lat="46.089348681271076" lon="7.227231049910188"><ele></ele><time>2013-8-1T15:2:10Z</time></trkpt>
<trkpt lat="46.08932303264737" lon="7.227208502590656"><ele></ele><time>2013-8-1T15:2:13Z</time></trkpt>
<trkpt lat="46.089296797290444" lon="7.227191990241408"><ele></ele><time>2013-8-1T15:2:16Z</time></trkpt>
<trkpt lat="46.08927056193352" lon="7.227178579196334"><ele></ele><time>2013-8-1T15:2:19Z</time></trkpt>
<trkpt lat="46.08925304375589" lon="7.227166341617703"><ele></ele><time>2013-8-1T15:2:22Z</time></trkpt>
<trkpt lat="46.08923259191215" lon="7.2271463088691235"><ele></ele><time>2013-8-1T15:2:25Z</time></trkpt>
<trkpt lat="46.08920669183135" lon="7.227138848975301"><ele></ele><time>2013-8-1T15:2:28Z</time></trkpt>
<trkpt lat="46.089107785373926" lon="7.227114038541913"><ele></ele><time>2013-8-1T15:2:31Z</time></trkpt>
<trkpt lat="46.0890831425786" lon="7.227105237543583"><ele></ele><time>2013-8-1T15:2:34Z</time></trkpt>
<trkpt lat="46.089046597480774" lon="7.227101800963283"><ele></ele><time>2013-8-1T15:2:37Z</time></trkpt>
<trkpt lat="46.08901726081967" lon="7.227101130411029"><ele></ele><time>2013-8-1T15:2:40Z</time></trkpt>
<trkpt lat="46.08887669630349" lon="7.227148739621043"><ele></ele><time>2013-8-1T15:2:43Z</time></trkpt>
<trkpt lat="46.08885289169848" lon="7.2271607257425785"><ele></ele><time>2013-8-1T15:2:46Z</time></trkpt>
<trkpt lat="46.08883009292185" lon="7.227177657186985"><ele></ele><time>2013-8-1T15:2:49Z</time></trkpt>
<trkpt lat="46.088812071830034" lon="7.22719257697463"><ele></ele><time>2013-8-1T15:2:52Z</time></trkpt>
<trkpt lat="46.088793966919184" lon="7.227207748219371"><ele></ele><time>2013-8-1T15:2:55Z</time></trkpt>
<trkpt lat="46.08877670019865" lon="7.227223254740238"><ele></ele><time>2013-8-1T15:2:58Z</time></trkpt>
<trkpt lat="46.08874392695725" lon="7.2272582072764635"><ele></ele><time>2013-8-1T15:3:1Z</time></trkpt>
<trkpt lat="46.088723642751575" lon="7.227274551987648"><ele></ele><time>2013-8-1T15:3:4Z</time></trkpt>
<trkpt lat="46.08867804519832" lon="7.227301709353924"><ele></ele><time>2013-8-1T15:3:7Z</time></trkpt>
<trkpt lat="46.088654240593314" lon="7.2273121029138565"><ele></ele><time>2013-8-1T15:3:10Z</time></trkpt>
<trkpt lat="46.08862951397896" lon="7.227322664111853"><ele></ele><time>2013-8-1T15:3:13Z</time></trkpt>
<trkpt lat="46.08860403299332" lon="7.227328279986978"><ele></ele><time>2013-8-1T15:3:16Z</time></trkpt>
<trkpt lat="46.08857880346477" lon="7.227331129834056"><ele></ele><time>2013-8-1T15:3:19Z</time></trkpt>
<trkpt lat="46.08852700330317" lon="7.227339092642069"><ele></ele><time>2013-8-1T15:3:22Z</time></trkpt>
<trkpt lat="46.08838442713022" lon="7.227365579456091"><ele></ele><time>2013-8-1T15:3:25Z</time></trkpt>
<trkpt lat="46.088359616696835" lon="7.227370189502835"><ele></ele><time>2013-8-1T15:3:28Z</time></trkpt>
<trkpt lat="46.088336147367954" lon="7.227375553920865"><ele></ele><time>2013-8-1T15:3:31Z</time></trkpt>
<trkpt lat="46.08831502497196" lon="7.227386198937893"><ele></ele><time>2013-8-1T15:3:34Z</time></trkpt>
<trkpt lat="46.08829700388014" lon="7.227402795106173"><ele></ele><time>2013-8-1T15:3:37Z</time></trkpt>
<trkpt lat="46.08824738301337" lon="7.227463899180293"><ele></ele><time>2013-8-1T15:3:40Z</time></trkpt>
<trkpt lat="46.08818938024342" lon="7.227609911933541"><ele></ele><time>2013-8-1T15:3:43Z</time></trkpt>
<trkpt lat="46.08818091452122" lon="7.227641092613339"><ele></ele><time>2013-8-1T15:3:46Z</time></trkpt>
<trkpt lat="46.08817521482706" lon="7.227672608569264"><ele></ele><time>2013-8-1T15:3:49Z</time></trkpt>
<trkpt lat="46.088170101866126" lon="7.227706052362919"><ele></ele><time>2013-8-1T15:3:52Z</time></trkpt>
<trkpt lat="46.08816599473357" lon="7.227738490328193"><ele></ele><time>2013-8-1T15:3:55Z</time></trkpt>
<trkpt lat="46.08813364058733" lon="7.227866314351559"><ele></ele><time>2013-8-1T15:3:58Z</time></trkpt>
<trkpt lat="46.08811327256262" lon="7.227923730388284"><ele></ele><time>2013-8-1T15:4:1Z</time></trkpt>
<trkpt lat="46.08810271136463" lon="7.2279485408216715"><ele></ele><time>2013-8-1T15:4:4Z</time></trkpt>
<trkpt lat="46.088091898709536" lon="7.22797242924571"><ele></ele><time>2013-8-1T15:4:7Z</time></trkpt>
<trkpt lat="46.08808376826346" lon="7.22800025716424"><ele></ele><time>2013-8-1T15:4:10Z</time></trkpt>
<trkpt lat="46.088075805455446" lon="7.22802909091115"><ele></ele><time>2013-8-1T15:4:13Z</time></trkpt>
<trkpt lat="46.088067004457116" lon="7.22806085832417"><ele></ele><time>2013-8-1T15:4:16Z</time></trkpt>
<trkpt lat="46.08805803582072" lon="7.228092206642032"><ele></ele><time>2013-8-1T15:4:19Z</time></trkpt>
<trkpt lat="46.08802014961839" lon="7.228169068694115"><ele></ele><time>2013-8-1T15:4:22Z</time></trkpt>
<trkpt lat="46.088008247315884" lon="7.2281968127936125"><ele></ele><time>2013-8-1T15:4:25Z</time></trkpt>
<trkpt lat="46.087996596470475" lon="7.22822455689311"><ele></ele><time>2013-8-1T15:4:28Z</time></trkpt>
<trkpt lat="46.08798544853926" lon="7.228252049535513"><ele></ele><time>2013-8-1T15:4:31Z</time></trkpt>
<trkpt lat="46.08797673135996" lon="7.2282845713198185"><ele></ele><time>2013-8-1T15:4:34Z</time></trkpt>
<trkpt lat="46.087919315323234" lon="7.2284433245658875"><ele></ele><time>2013-8-1T15:4:37Z</time></trkpt>
<trkpt lat="46.08790699392557" lon="7.228469392284751"><ele></ele><time>2013-8-1T15:4:40Z</time></trkpt>
<trkpt lat="46.08789467252791" lon="7.228500070050359"><ele></ele><time>2013-8-1T15:4:43Z</time></trkpt>
<trkpt lat="46.0878814291209" lon="7.228527814149857"><ele></ele><time>2013-8-1T15:4:46Z</time></trkpt>
<trkpt lat="46.08786969445646" lon="7.2285569831728935"><ele></ele><time>2013-8-1T15:4:49Z</time></trkpt>
<trkpt lat="46.087856870144606" lon="7.22858514636755"><ele></ele><time>2013-8-1T15:4:52Z</time></trkpt>
<trkpt lat="46.087841698899865" lon="7.228608364239335"><ele></ele><time>2013-8-1T15:4:55Z</time></trkpt>
<trkpt lat="46.08782040886581" lon="7.228663433343172"><ele></ele><time>2013-8-1T15:4:58Z</time></trkpt>
<trkpt lat="46.08776232227683" lon="7.228787485510111"><ele></ele><time>2013-8-1T15:5:1Z</time></trkpt>
<trkpt lat="46.0877448040992" lon="7.228813888505101"><ele></ele><time>2013-8-1T15:5:4Z</time></trkpt>
<trkpt lat="46.087729297578335" lon="7.228839788585901"><ele></ele><time>2013-8-1T15:5:7Z</time></trkpt>
<trkpt lat="46.08771697618067" lon="7.228868370875716"><ele></ele><time>2013-8-1T15:5:10Z</time></trkpt>
<trkpt lat="46.087701888754964" lon="7.228892929852009"><ele></ele><time>2013-8-1T15:5:13Z</time></trkpt>
<trkpt lat="46.08764564618468" lon="7.228994015604258"><ele></ele><time>2013-8-1T15:5:16Z</time></trkpt>
<trkpt lat="46.08760834671557" lon="7.229039948433638"><ele></ele><time>2013-8-1T15:5:19Z</time></trkpt>
<trkpt lat="46.08758873306215" lon="7.2290609031915665"><ele></ele><time>2013-8-1T15:5:22Z</time></trkpt>
<trkpt lat="46.08757171779871" lon="7.229085210710764"><ele></ele><time>2013-8-1T15:5:25Z</time></trkpt>
<trkpt lat="46.08755151741207" lon="7.229105830192566"><ele></ele><time>2013-8-1T15:5:28Z</time></trkpt>
<trkpt lat="46.08753131702542" lon="7.229125024750829"><ele></ele><time>2013-8-1T15:5:31Z</time></trkpt>
<trkpt lat="46.08751153573394" lon="7.229143129661679"><ele></ele><time>2013-8-1T15:5:34Z</time></trkpt>
<trkpt lat="46.08739485964179" lon="7.22922183573246"><ele></ele><time>2013-8-1T15:5:37Z</time></trkpt>
<trkpt lat="46.08737767674029" lon="7.229237174615264"><ele></ele><time>2013-8-1T15:5:40Z</time></trkpt>
<trkpt lat="46.08735915273428" lon="7.22925360314548"><ele></ele><time>2013-8-1T15:5:43Z</time></trkpt>
<trkpt lat="46.08734196983278" lon="7.2292696963995695"><ele></ele><time>2013-8-1T15:5:46Z</time></trkpt>
<trkpt lat="46.08732403255999" lon="7.22928436473012"><ele></ele><time>2013-8-1T15:5:49Z</time></trkpt>
<trkpt lat="46.08730408363044" lon="7.229296183213592"><ele></ele><time>2013-8-1T15:5:52Z</time></trkpt>
<trkpt lat="46.08728455379605" lon="7.229306995868683"><ele></ele><time>2013-8-1T15:5:55Z</time></trkpt>
<trkpt lat="46.08726745471358" lon="7.2293194849044085"><ele></ele><time>2013-8-1T15:5:58Z</time></trkpt>
<trkpt lat="46.087249014526606" lon="7.229337757453322"><ele></ele><time>2013-8-1T15:6:1Z</time></trkpt>
<trkpt lat="46.087189419195056" lon="7.229392156004906"><ele></ele><time>2013-8-1T15:6:4Z</time></trkpt>
<trkpt lat="46.087168129161" lon="7.2294101770967245"><ele></ele><time>2013-8-1T15:6:7Z</time></trkpt>
<trkpt lat="46.08714859932661" lon="7.2294325567781925"><ele></ele><time>2013-8-1T15:6:10Z</time></trkpt>
<trkpt lat="46.087132757529616" lon="7.229460384696722"><ele></ele><time>2013-8-1T15:6:13Z</time></trkpt>
<trkpt lat="46.08711398206651" lon="7.229512771591544"><ele></ele><time>2013-8-1T15:6:16Z</time></trkpt>
<trkpt lat="46.08709772117436" lon="7.229589214548469"><ele></ele><time>2013-8-1T15:6:19Z</time></trkpt>
<trkpt lat="46.08709537424147" lon="7.229620898142457"><ele></ele><time>2013-8-1T15:6:22Z</time></trkpt>
<trkpt lat="46.08709881082177" lon="7.2296928986907005"><ele></ele><time>2013-8-1T15:6:25Z</time></trkpt>
<trkpt lat="46.08709814026952" lon="7.229725420475006"><ele></ele><time>2013-8-1T15:6:28Z</time></trkpt>
<trkpt lat="46.087095541879535" lon="7.229757942259312"><ele></ele><time>2013-8-1T15:6:31Z</time></trkpt>
<trkpt lat="46.08709034509957" lon="7.229792391881347"><ele></ele><time>2013-8-1T15:6:34Z</time></trkpt>
<trkpt lat="46.087083304300904" lon="7.229824159294367"><ele></ele><time>2013-8-1T15:6:37Z</time></trkpt>
<trkpt lat="46.08705824241042" lon="7.229912420734763"><ele></ele><time>2013-8-1T15:6:40Z</time></trkpt>
<trkpt lat="46.08703879639506" lon="7.229966567829251"><ele></ele><time>2013-8-1T15:6:43Z</time></trkpt>
<trkpt lat="46.08701172284782" lon="7.230022391304374"><ele></ele><time>2013-8-1T15:6:46Z</time></trkpt>
<trkpt lat="46.08699504286051" lon="7.230049464851618"><ele></ele><time>2013-8-1T15:6:49Z</time></trkpt>
<trkpt lat="46.08697668649256" lon="7.230073856189847"><ele></ele><time>2013-8-1T15:6:52Z</time></trkpt>
<trkpt lat="46.086955815553665" lon="7.230102689936757"><ele></ele><time>2013-8-1T15:6:55Z</time></trkpt>
<trkpt lat="46.08693444170058" lon="7.230127165094018"><ele></ele><time>2013-8-1T15:6:58Z</time></trkpt>
<trkpt lat="46.086863949894905" lon="7.230184581130743"><ele></ele><time>2013-8-1T15:7:1Z</time></trkpt>
<trkpt lat="46.086820447817445" lon="7.230221042409539"><ele></ele><time>2013-8-1T15:7:4Z</time></trkpt>
<trkpt lat="46.08677124604583" lon="7.230247193947434"><ele></ele><time>2013-8-1T15:7:7Z</time></trkpt>
<trkpt lat="46.08674090355635" lon="7.230260940268636"><ele></ele><time>2013-8-1T15:7:10Z</time></trkpt>
<trkpt lat="46.0867106448859" lon="7.230273596942425"><ele></ele><time>2013-8-1T15:7:13Z</time></trkpt>
<trkpt lat="46.08667711727321" lon="7.230291869491339"><ele></ele><time>2013-8-1T15:7:16Z</time></trkpt>
<trkpt lat="46.086644092574716" lon="7.230309974402189"><ele></ele><time>2013-8-1T15:7:19Z</time></trkpt>
<trkpt lat="46.086524315178394" lon="7.230368396267295"><ele></ele><time>2013-8-1T15:7:22Z</time></trkpt>
<trkpt lat="46.086477963253856" lon="7.230383902788162"><ele></ele><time>2013-8-1T15:7:25Z</time></trkpt>
<trkpt lat="46.08623472042382" lon="7.230456909164786"><ele></ele><time>2013-8-1T15:7:28Z</time></trkpt>
<trkpt lat="46.08618828468025" lon="7.230457244440913"><ele></ele><time>2013-8-1T15:7:31Z</time></trkpt>
<trkpt lat="46.085992651060224" lon="7.230516504496336"><ele></ele><time>2013-8-1T15:7:34Z</time></trkpt>
<trkpt lat="46.08593925833702" lon="7.230528155341744"><ele></ele><time>2013-8-1T15:7:37Z</time></trkpt>
<trkpt lat="46.08582543209195" lon="7.230550786480308"><ele></ele><time>2013-8-1T15:7:40Z</time></trkpt>
<trkpt lat="46.08576340600848" lon="7.230555564165115"><ele></ele><time>2013-8-1T15:7:43Z</time></trkpt>
<trkpt lat="46.085692662745714" lon="7.230560760945082"><ele></ele><time>2013-8-1T15:7:46Z</time></trkpt>
<trkpt lat="46.085619907826185" lon="7.230569729581475"><ele></ele><time>2013-8-1T15:7:49Z</time></trkpt>
<trkpt lat="46.08554195612669" lon="7.230597725138068"><ele></ele><time>2013-8-1T15:7:52Z</time></trkpt>
<trkpt lat="46.08547632582486" lon="7.230647094547749"><ele></ele><time>2013-8-1T15:7:55Z</time></trkpt>
<trkpt lat="46.085413713008165" lon="7.230713646858931"><ele></ele><time>2013-8-1T15:7:58Z</time></trkpt>
<trkpt lat="46.08528739772737" lon="7.2308688797056675"><ele></ele><time>2013-8-1T15:8:1Z</time></trkpt>
<trkpt lat="46.08521011658013" lon="7.230944400653243"><ele></ele><time>2013-8-1T15:8:4Z</time></trkpt>
<trkpt lat="46.08513090759516" lon="7.2310093604028225"><ele></ele><time>2013-8-1T15:8:7Z</time></trkpt>
<trkpt lat="46.08504289761186" lon="7.231056215241551"><ele></ele><time>2013-8-1T15:8:10Z</time></trkpt>
<trkpt lat="46.084947092458606" lon="7.231084210798144"><ele></ele><time>2013-8-1T15:8:13Z</time></trkpt>
<trkpt lat="46.08485162258148" lon="7.23108840174973"><ele></ele><time>2013-8-1T15:8:16Z</time></trkpt>
<trkpt lat="46.08475279994309" lon="7.231068285182118"><ele></ele><time>2013-8-1T15:8:19Z</time></trkpt>
<trkpt lat="46.08465112745762" lon="7.231027381494641"><ele></ele><time>2013-8-1T15:8:22Z</time></trkpt>
<trkpt lat="46.084543420001864" lon="7.230975832790136"><ele></ele><time>2013-8-1T15:8:25Z</time></trkpt>
<trkpt lat="46.08442984521389" lon="7.2309324983507395"><ele></ele><time>2013-8-1T15:8:28Z</time></trkpt>
<trkpt lat="46.08431048691273" lon="7.230914896354079"><ele></ele><time>2013-8-1T15:8:31Z</time></trkpt>
<trkpt lat="46.084195990115404" lon="7.2309153992682695"><ele></ele><time>2013-8-1T15:8:34Z</time></trkpt>
<trkpt lat="46.08408492989838" lon="7.230910202488303"><ele></ele><time>2013-8-1T15:8:37Z</time></trkpt>
<trkpt lat="46.083971690386534" lon="7.2309039160609245"><ele></ele><time>2013-8-1T15:8:40Z</time></trkpt>
<trkpt lat="46.08386247418821" lon="7.230875249952078"><ele></ele><time>2013-8-1T15:8:43Z</time></trkpt>
<trkpt lat="46.083753341808915" lon="7.230841303244233"><ele></ele><time>2013-8-1T15:8:46Z</time></trkpt>
<trkpt lat="46.08364370651543" lon="7.230816995725036"><ele></ele><time>2013-8-1T15:8:49Z</time></trkpt>
<trkpt lat="46.08353616669774" lon="7.230793023481965"><ele></ele><time>2013-8-1T15:8:52Z</time></trkpt>
<trkpt lat="46.08341781422496" lon="7.2307605016976595"><ele></ele><time>2013-8-1T15:8:55Z</time></trkpt>
<trkpt lat="46.083304742351174" lon="7.230725297704339"><ele></ele><time>2013-8-1T15:8:58Z</time></trkpt>
<trkpt lat="46.08319125138223" lon="7.2306824661791325"><ele></ele><time>2013-8-1T15:9:1Z</time></trkpt>
<trkpt lat="46.083079520612955" lon="7.230624798685312"><ele></ele><time>2013-8-1T15:9:4Z</time></trkpt>
<trkpt lat="46.08296887949109" lon="7.2305564023554325"><ele></ele><time>2013-8-1T15:9:7Z</time></trkpt>
<trkpt lat="46.08286226168275" lon="7.230483144521713"><ele></ele><time>2013-8-1T15:9:10Z</time></trkpt>
<trkpt lat="46.08276025392115" lon="7.230405192822218"><ele></ele><time>2013-8-1T15:9:13Z</time></trkpt>
<trkpt lat="46.082660760730505" lon="7.2303190268576145"><ele></ele><time>2013-8-1T15:9:16Z</time></trkpt>
<trkpt lat="46.08256948180497" lon="7.230237554758787"><ele></ele><time>2013-8-1T15:9:19Z</time></trkpt>
<trkpt lat="46.08248515985906" lon="7.230190532281995"><ele></ele><time>2013-8-1T15:9:22Z</time></trkpt>
<trkpt lat="46.082395138219" lon="7.2301678173244"><ele></ele><time>2013-8-1T15:9:25Z</time></trkpt>
<trkpt lat="46.0823018476367" lon="7.230164213106036"><ele></ele><time>2013-8-1T15:9:28Z</time></trkpt>
<trkpt lat="46.082206377759576" lon="7.230167565867305"><ele></ele><time>2013-8-1T15:9:31Z</time></trkpt>
<trkpt lat="46.082108644768596" lon="7.230166811496019"><ele></ele><time>2013-8-1T15:9:34Z</time></trkpt>
<trkpt lat="46.082016779109836" lon="7.230155244469643"><ele></ele><time>2013-8-1T15:9:37Z</time></trkpt>
<trkpt lat="46.08192038722336" lon="7.230136301368475"><ele></ele><time>2013-8-1T15:9:40Z</time></trkpt>
<trkpt lat="46.08182676136494" lon="7.230106629431248"><ele></ele><time>2013-8-1T15:9:43Z</time></trkpt>
<trkpt lat="46.08173565007746" lon="7.23007058724761"><ele></ele><time>2013-8-1T15:9:46Z</time></trkpt>
<trkpt lat="46.081653255969286" lon="7.230031359940767"><ele></ele><time>2013-8-1T15:9:49Z</time></trkpt>
<trkpt lat="46.08157932758331" lon="7.230005711317062"><ele></ele><time>2013-8-1T15:9:52Z</time></trkpt>
<trkpt lat="46.08150824904442" lon="7.2300158534199"><ele></ele><time>2013-8-1T15:9:55Z</time></trkpt>
<trkpt lat="46.08144588768482" lon="7.230059439316392"><ele></ele><time>2013-8-1T15:9:58Z</time></trkpt>
<trkpt lat="46.08139886520803" lon="7.230130098760128"><ele></ele><time>2013-8-1T15:10:1Z</time></trkpt>
<trkpt lat="46.081382520496845" lon="7.230220623314381"><ele></ele><time>2013-8-1T15:10:4Z</time></trkpt>
<trkpt lat="46.08133960515261" lon="7.230514073744416"><ele></ele><time>2013-8-1T15:10:7Z</time></trkpt>
<trkpt lat="46.08126793988049" lon="7.2306968830525875"><ele></ele><time>2013-8-1T15:10:10Z</time></trkpt>
<trkpt lat="46.08120298013091" lon="7.230892349034548"><ele></ele><time>2013-8-1T15:10:13Z</time></trkpt>
<trkpt lat="46.08116324990988" lon="7.2309875674545765"><ele></ele><time>2013-8-1T15:10:16Z</time></trkpt>
<trkpt lat="46.081113293766975" lon="7.231072140857577"><ele></ele><time>2013-8-1T15:10:19Z</time></trkpt>
<trkpt lat="46.08105889521539" lon="7.231155708432198"><ele></ele><time>2013-8-1T15:10:22Z</time></trkpt>
<trkpt lat="46.08101036399603" lon="7.2312461491674185"><ele></ele><time>2013-8-1T15:10:25Z</time></trkpt>
<trkpt lat="46.080969627946615" lon="7.2313412837684155"><ele></ele><time>2013-8-1T15:10:28Z</time></trkpt>
<trkpt lat="46.080782962962985" lon="7.231665914878249"><ele></ele><time>2013-8-1T15:10:31Z</time></trkpt>
<trkpt lat="46.08072177506983" lon="7.23171092569828"><ele></ele><time>2013-8-1T15:10:34Z</time></trkpt>
<trkpt lat="46.08066779561341" lon="7.231773035600781"><ele></ele><time>2013-8-1T15:10:37Z</time></trkpt>
<trkpt lat="46.08060878701508" lon="7.231950229033828"><ele></ele><time>2013-8-1T15:10:40Z</time></trkpt>
<trkpt lat="46.0805937834084" lon="7.23205684684217"><ele></ele><time>2013-8-1T15:10:43Z</time></trkpt>
<trkpt lat="46.08058221638203" lon="7.232172768563032"><ele></ele><time>2013-8-1T15:10:46Z</time></trkpt>
<trkpt lat="46.080568972975016" lon="7.2322851698845625"><ele></ele><time>2013-8-1T15:10:49Z</time></trkpt>
<trkpt lat="46.08056738041341" lon="7.232510726898909"><ele></ele><time>2013-8-1T15:10:52Z</time></trkpt>
<trkpt lat="46.08057442121208" lon="7.23273653537035"><ele></ele><time>2013-8-1T15:10:55Z</time></trkpt>
<trkpt lat="46.08055958524346" lon="7.232961924746633"><ele></ele><time>2013-8-1T15:10:58Z</time></trkpt>
<trkpt lat="46.08054424636066" lon="7.233076086267829"><ele></ele><time>2013-8-1T15:11:1Z</time></trkpt>
<trkpt lat="46.0804954636842" lon="7.233385127037764"><ele></ele><time>2013-8-1T15:11:4Z</time></trkpt>
<trkpt lat="46.080447770655155" lon="7.233671620488167"><ele></ele><time>2013-8-1T15:11:7Z</time></trkpt>
<trkpt lat="46.08035372570157" lon="7.234007902443409"><ele></ele><time>2013-8-1T15:11:10Z</time></trkpt>
<trkpt lat="46.08031961135566" lon="7.234074706211686"><ele></ele><time>2013-8-1T15:11:13Z</time></trkpt>
<trkpt lat="46.0801986604929" lon="7.234247541055083"><ele></ele><time>2013-8-1T15:11:16Z</time></trkpt>
<trkpt lat="46.08010553754866" lon="7.234345776960254"><ele></ele><time>2013-8-1T15:11:19Z</time></trkpt>
<trkpt lat="46.07990805990994" lon="7.234524227678776"><ele></ele><time>2013-8-1T15:11:22Z</time></trkpt>
<trkpt lat="46.07980638742447" lon="7.234618104994297"><ele></ele><time>2013-8-1T15:11:25Z</time></trkpt>
<trkpt lat="46.079767076298594" lon="7.234679879620671"><ele></ele><time>2013-8-1T15:11:28Z</time></trkpt>
<trkpt lat="46.07973949983716" lon="7.234750706702471"><ele></ele><time>2013-8-1T15:11:31Z</time></trkpt>
<trkpt lat="46.07972466386855" lon="7.234833603724837"><ele></ele><time>2013-8-1T15:11:34Z</time></trkpt>
<trkpt lat="46.07971100136638" lon="7.235003840178251"><ele></ele><time>2013-8-1T15:11:37Z</time></trkpt>
<trkpt lat="46.079697757959366" lon="7.235264349728823"><ele></ele><time>2013-8-1T15:11:40Z</time></trkpt>
<trkpt lat="46.0796838440001" lon="7.2353477496653795"><ele></ele><time>2013-8-1T15:11:43Z</time></trkpt>
<trkpt lat="46.0795855242759" lon="7.235563835129142"><ele></ele><time>2013-8-1T15:11:46Z</time></trkpt>
<trkpt lat="46.079526683315635" lon="7.235705908387899"><ele></ele><time>2013-8-1T15:11:49Z</time></trkpt>
<trkpt lat="46.07952249236405" lon="7.235787715762854"><ele></ele><time>2013-8-1T15:11:52Z</time></trkpt>
<trkpt lat="46.07957890257239" lon="7.235938170924783"><ele></ele><time>2013-8-1T15:11:55Z</time></trkpt>
<trkpt lat="46.07962366193533" lon="7.235990725457668"><ele></ele><time>2013-8-1T15:11:58Z</time></trkpt>
<trkpt lat="46.07966758310795" lon="7.236038502305746"><ele></ele><time>2013-8-1T15:12:1Z</time></trkpt>
<trkpt lat="46.07974402606487" lon="7.23613397218287"><ele></ele><time>2013-8-1T15:12:4Z</time></trkpt>
<trkpt lat="46.07976590283215" lon="7.236331282183528"><ele></ele><time>2013-8-1T15:12:7Z</time></trkpt>
<trkpt lat="46.0797599516809" lon="7.236401941627264"><ele></ele><time>2013-8-1T15:12:10Z</time></trkpt>
<trkpt lat="46.07976296916604" lon="7.236479055136442"><ele></ele><time>2013-8-1T15:12:13Z</time></trkpt>
<trkpt lat="46.07978484593332" lon="7.236635712906718"><ele></ele><time>2013-8-1T15:12:16Z</time></trkpt>
<trkpt lat="46.07980940490961" lon="7.236707042902708"><ele></ele><time>2013-8-1T15:12:19Z</time></trkpt>
<trkpt lat="46.079838490113616" lon="7.236774265766144"><ele></ele><time>2013-8-1T15:12:22Z</time></trkpt>
<trkpt lat="46.079867826774716" lon="7.23684006370604"><ele></ele><time>2013-8-1T15:12:25Z</time></trkpt>
<trkpt lat="46.07989381067455" lon="7.2369056940078735"><ele></ele><time>2013-8-1T15:12:28Z</time></trkpt>
<trkpt lat="46.079923482611775" lon="7.236967887729406"><ele></ele><time>2013-8-1T15:12:31Z</time></trkpt>
<trkpt lat="46.08000126667321" lon="7.237231163308024"><ele></ele><time>2013-8-1T15:12:34Z</time></trkpt>
<trkpt lat="46.080046528950334" lon="7.237550932914019"><ele></ele><time>2013-8-1T15:12:37Z</time></trkpt>
<trkpt lat="46.080062789842486" lon="7.23766291514039"><ele></ele><time>2013-8-1T15:12:40Z</time></trkpt>
<trkpt lat="46.08007175847888" lon="7.2377164755016565"><ele></ele><time>2013-8-1T15:12:43Z</time></trkpt>
<trkpt lat="46.080082235857844" lon="7.237767269834876"><ele></ele><time>2013-8-1T15:12:46Z</time></trkpt>
<trkpt lat="46.08008902519941" lon="7.237818567082286"><ele></ele><time>2013-8-1T15:12:49Z</time></trkpt>
<trkpt lat="46.08009120449424" lon="7.237872797995806"><ele></ele><time>2013-8-1T15:12:52Z</time></trkpt>
<trkpt lat="46.08009715564549" lon="7.237915964797139"><ele></ele><time>2013-8-1T15:12:55Z</time></trkpt>
<trkpt lat="46.080075949430466" lon="7.2381447069346905"><ele></ele><time>2013-8-1T15:12:58Z</time></trkpt>
<trkpt lat="46.08006580732763" lon="7.238187287002802"><ele></ele><time>2013-8-1T15:13:1Z</time></trkpt>
<trkpt lat="46.08005465939641" lon="7.238230286166072"><ele></ele><time>2013-8-1T15:13:4Z</time></trkpt>
<trkpt lat="46.08004451729357" lon="7.238273536786437"><ele></ele><time>2013-8-1T15:13:7Z</time></trkpt>
<trkpt lat="46.08003353700042" lon="7.238313518464565"><ele></ele><time>2013-8-1T15:13:10Z</time></trkpt>
<trkpt lat="46.07998416759074" lon="7.2384194657206535"><ele></ele><time>2013-8-1T15:13:13Z</time></trkpt>
<trkpt lat="46.07996413484216" lon="7.238445533439517"><ele></ele><time>2013-8-1T15:13:16Z</time></trkpt>
<trkpt lat="46.079944018274546" lon="7.238470679149032"><ele></ele><time>2013-8-1T15:13:19Z</time></trkpt>
<trkpt lat="46.07992113567889" lon="7.238493813201785"><ele></ele><time>2013-8-1T15:13:22Z</time></trkpt>
<trkpt lat="46.07990185730159" lon="7.238509822636843"><ele></ele><time>2013-8-1T15:13:25Z</time></trkpt>
<trkpt lat="46.07985592447221" lon="7.2385346330702305"><ele></ele><time>2013-8-1T15:13:28Z</time></trkpt>
<trkpt lat="46.079813512042165" lon="7.238556677475572"><ele></ele><time>2013-8-1T15:13:31Z</time></trkpt>
<trkpt lat="46.07979515567422" lon="7.238576542586088"><ele></ele><time>2013-8-1T15:13:34Z</time></trkpt>
<trkpt lat="46.079776380211115" lon="7.238595401868224"><ele></ele><time>2013-8-1T15:13:37Z</time></trkpt>
<trkpt lat="46.079755425453186" lon="7.238608980551362"><ele></ele><time>2013-8-1T15:13:40Z</time></trkpt>
<trkpt lat="46.07973698526621" lon="7.2386229783296585"><ele></ele><time>2013-8-1T15:13:43Z</time></trkpt>
<trkpt lat="46.079646879807115" lon="7.238679975271225"><ele></ele><time>2013-8-1T15:13:46Z</time></trkpt>
<trkpt lat="46.0796301998198" lon="7.238693218678236"><ele></ele><time>2013-8-1T15:13:49Z</time></trkpt>
<trkpt lat="46.07961134053767" lon="7.238715095445514"><ele></ele><time>2013-8-1T15:13:52Z</time></trkpt>
<trkpt lat="46.07959231361747" lon="7.238737223669887"><ele></ele><time>2013-8-1T15:13:55Z</time></trkpt>
<trkpt lat="46.079574041068554" lon="7.238764464855194"><ele></ele><time>2013-8-1T15:13:58Z</time></trkpt>
<trkpt lat="46.079531628638506" lon="7.238837303593755"><ele></ele><time>2013-8-1T15:14:1Z</time></trkpt>
<trkpt lat="46.07952148653567" lon="7.2388591803610325"><ele></ele><time>2013-8-1T15:14:4Z</time></trkpt>
<trkpt lat="46.07950145378709" lon="7.238944340497255"><ele></ele><time>2013-8-1T15:14:7Z</time></trkpt>
<trkpt lat="46.07949759811163" lon="7.238974515348673"><ele></ele><time>2013-8-1T15:14:10Z</time></trkpt>
<trkpt lat="46.07949214987457" lon="7.239008629694581"><ele></ele><time>2013-8-1T15:14:13Z</time></trkpt>
<trkpt lat="46.07948678545654" lon="7.2390409000217915"><ele></ele><time>2013-8-1T15:14:16Z</time></trkpt>
<trkpt lat="46.079482259228826" lon="7.239072499796748"><ele></ele><time>2013-8-1T15:14:19Z</time></trkpt>
<trkpt lat="46.07947865501046" lon="7.239102926105261"><ele></ele><time>2013-8-1T15:14:22Z</time></trkpt>
<trkpt lat="46.07945325784385" lon="7.239238293841481"><ele></ele><time>2013-8-1T15:14:25Z</time></trkpt>
<trkpt lat="46.079448563978076" lon="7.239265032112598"><ele></ele><time>2013-8-1T15:14:28Z</time></trkpt>
<trkpt lat="46.07944051735103" lon="7.239285232499242"><ele></ele><time>2013-8-1T15:14:31Z</time></trkpt>
<trkpt lat="46.079438673332334" lon="7.239315155893564"><ele></ele><time>2013-8-1T15:14:34Z</time></trkpt>
<trkpt lat="46.079438254237175" lon="7.2393460012972355"><ele></ele><time>2013-8-1T15:14:37Z</time></trkpt>
<trkpt lat="46.07943263836205" lon="7.239380702376366"><ele></ele><time>2013-8-1T15:14:40Z</time></trkpt>
<trkpt lat="46.07942593283951" lon="7.239411547780037"><ele></ele><time>2013-8-1T15:14:43Z</time></trkpt>
<trkpt lat="46.07942249625921" lon="7.239445662125945"><ele></ele><time>2013-8-1T15:14:46Z</time></trkpt>
<trkpt lat="46.07941688038409" lon="7.239482207223773"><ele></ele><time>2013-8-1T15:14:49Z</time></trkpt>
<trkpt lat="46.07941495254636" lon="7.239509783685207"><ele></ele><time>2013-8-1T15:14:52Z</time></trkpt>
<trkpt lat="46.07940732501447" lon="7.239610534161329"><ele></ele><time>2013-8-1T15:14:55Z</time></trkpt>
<trkpt lat="46.07940103858709" lon="7.23964381031692"><ele></ele><time>2013-8-1T15:14:58Z</time></trkpt>
<trkpt lat="46.07939584180713" lon="7.2396740689873695"><ele></ele><time>2013-8-1T15:15:1Z</time></trkpt>
<trkpt lat="46.07938637025654" lon="7.239701729267836"><ele></ele><time>2013-8-1T15:15:4Z</time></trkpt>
<trkpt lat="46.07937706634402" lon="7.239734921604395"><ele></ele><time>2013-8-1T15:15:7Z</time></trkpt>
<trkpt lat="46.07936625368893" lon="7.239770460873842"><ele></ele><time>2013-8-1T15:15:10Z</time></trkpt>
<trkpt lat="46.07935460284352" lon="7.239802312105894"><ele></ele><time>2013-8-1T15:15:13Z</time></trkpt>
<trkpt lat="46.07934270054102" lon="7.239829804748297"><ele></ele><time>2013-8-1T15:15:16Z</time></trkpt>
<trkpt lat="46.07927681878209" lon="7.239899626001716"><ele></ele><time>2013-8-1T15:15:19Z</time></trkpt>
<trkpt lat="46.07925586402416" lon="7.239906918257475"><ele></ele><time>2013-8-1T15:15:22Z</time></trkpt>
<trkpt lat="46.0792348254472" lon="7.239915635436773"><ele></ele><time>2013-8-1T15:15:25Z</time></trkpt>
<trkpt lat="46.079212445765734" lon="7.239920161664486"><ele></ele><time>2013-8-1T15:15:28Z</time></trkpt>
<trkpt lat="46.07919073663652" lon="7.239921251311898"><ele></ele><time>2013-8-1T15:15:31Z</time></trkpt>
<trkpt lat="46.07912535779178" lon="7.239912282675505"><ele></ele><time>2013-8-1T15:15:34Z</time></trkpt>
<trkpt lat="46.079057632014155" lon="7.2398248594254255"><ele></ele><time>2013-8-1T15:15:37Z</time></trkpt>
<trkpt lat="46.07903826981783" lon="7.239796612411737"><ele></ele><time>2013-8-1T15:15:40Z</time></trkpt>
<trkpt lat="46.07902133837342" lon="7.239771466702223"><ele></ele><time>2013-8-1T15:15:43Z</time></trkpt>
<trkpt lat="46.07900155708194" lon="7.239745315164328"><ele></ele><time>2013-8-1T15:15:46Z</time></trkpt>
<trkpt lat="46.078982362523675" lon="7.239719331264496"><ele></ele><time>2013-8-1T15:15:49Z</time></trkpt>
<trkpt lat="46.078966185450554" lon="7.239695191383362"><ele></ele><time>2013-8-1T15:15:52Z</time></trkpt>
<trkpt lat="46.07895093038678" lon="7.239669878035784"><ele></ele><time>2013-8-1T15:15:55Z</time></trkpt>
<trkpt lat="46.07885085046291" lon="7.239471478387713"><ele></ele><time>2013-8-1T15:15:58Z</time></trkpt>
<trkpt lat="46.07883123680949" lon="7.2394475899636745"><ele></ele><time>2013-8-1T15:16:1Z</time></trkpt>
<trkpt lat="46.07881321571767" lon="7.239422360435128"><ele></ele><time>2013-8-1T15:16:4Z</time></trkpt>
<trkpt lat="46.07879737392068" lon="7.239395873621106"><ele></ele><time>2013-8-1T15:16:7Z</time></trkpt>
<trkpt lat="46.07877834700048" lon="7.239377349615097"><ele></ele><time>2013-8-1T15:16:10Z</time></trkpt>
<trkpt lat="46.07871296815574" lon="7.239322951063514"><ele></ele><time>2013-8-1T15:16:13Z</time></trkpt>
<trkpt lat="46.07864297926426" lon="7.239285064861178"><ele></ele><time>2013-8-1T15:16:16Z</time></trkpt>
<trkpt lat="46.078615905717015" lon="7.239275928586721"><ele></ele><time>2013-8-1T15:16:19Z</time></trkpt>
<trkpt lat="46.07858581468463" lon="7.239269390702248"><ele></ele><time>2013-8-1T15:16:22Z</time></trkpt>
<trkpt lat="46.07855664566159" lon="7.239265032112598"><ele></ele><time>2013-8-1T15:16:25Z</time></trkpt>
<trkpt lat="46.078526051715016" lon="7.2392597515136"><ele></ele><time>2013-8-1T15:16:28Z</time></trkpt>
<trkpt lat="46.07834969647229" lon="7.239229325205088"><ele></ele><time>2013-8-1T15:16:31Z</time></trkpt>
<trkpt lat="46.07824467122555" lon="7.23917568102479"><ele></ele><time>2013-8-1T15:16:34Z</time></trkpt>
<trkpt lat="46.07820955105126" lon="7.239141399040818"><ele></ele><time>2013-8-1T15:16:37Z</time></trkpt>
<trkpt lat="46.078174598515034" lon="7.239102423191071"><ele></ele><time>2013-8-1T15:16:40Z</time></trkpt>
<trkpt lat="46.07801618054509" lon="7.238937383517623"><ele></ele><time>2013-8-1T15:16:43Z</time></trkpt>
<trkpt lat="46.07792020775378" lon="7.2388241440057755"><ele></ele><time>2013-8-1T15:16:46Z</time></trkpt>
<trkpt lat="46.077800849452615" lon="7.238709395751357"><ele></ele><time>2013-8-1T15:16:49Z</time></trkpt>
<trkpt lat="46.07765927910805" lon="7.238586265593767"><ele></ele><time>2013-8-1T15:16:52Z</time></trkpt>
<trkpt lat="46.07751871459186" lon="7.238505128771067"><ele></ele><time>2013-8-1T15:16:55Z</time></trkpt>
<trkpt lat="46.07744478620589" lon="7.238507140427828"><ele></ele><time>2013-8-1T15:16:58Z</time></trkpt>
<trkpt lat="46.07737882062793" lon="7.23854192532599"><ele></ele><time>2013-8-1T15:17:1Z</time></trkpt>
<trkpt lat="46.07732919976115" lon="7.238609483465552"><ele></ele><time>2013-8-1T15:17:4Z</time></trkpt>
<trkpt lat="46.077292738482356" lon="7.2386901173740625"><ele></ele><time>2013-8-1T15:17:7Z</time></trkpt>
<trkpt lat="46.077239932492375" lon="7.238769074901938"><ele></ele><time>2013-8-1T15:17:10Z</time></trkpt>
<trkpt lat="46.07717648148537" lon="7.238834956660867"><ele></ele><time>2013-8-1T15:17:13Z</time></trkpt>
<trkpt lat="46.07702217064798" lon="7.23887762054801"><ele></ele><time>2013-8-1T15:17:16Z</time></trkpt>
<trkpt lat="46.076951595023274" lon="7.238903604447842"><ele></ele><time>2013-8-1T15:17:19Z</time></trkpt>
<trkpt lat="46.07689258642495" lon="7.238949118182063"><ele></ele><time>2013-8-1T15:17:22Z</time></trkpt>
<trkpt lat="46.076843636110425" lon="7.239019442349672"><ele></ele><time>2013-8-1T15:17:25Z</time></trkpt>
<trkpt lat="46.076772306114435" lon="7.239187667146325"><ele></ele><time>2013-8-1T15:17:28Z</time></trkpt>
<trkpt lat="46.07674229890108" lon="7.239271737635136"><ele></ele><time>2013-8-1T15:17:31Z</time></trkpt>
<trkpt lat="46.07670759782195" lon="7.239352958276868"><ele></ele><time>2013-8-1T15:17:34Z</time></trkpt>
<trkpt lat="46.07666602358222" lon="7.2394361067563295"><ele></ele><time>2013-8-1T15:17:37Z</time></trkpt>
<trkpt lat="46.07662352733314" lon="7.239515315741301"><ele></ele><time>2013-8-1T15:17:40Z</time></trkpt>
<trkpt lat="46.07650190591812" lon="7.239766018465161"><ele></ele><time>2013-8-1T15:17:43Z</time></trkpt>
<trkpt lat="46.076337955892086" lon="7.240158207714558"><ele></ele><time>2013-8-1T15:17:46Z</time></trkpt>
<trkpt lat="46.076297806575894" lon="7.240271447226405"><ele></ele><time>2013-8-1T15:17:49Z</time></trkpt>
<trkpt lat="46.07624282129109" lon="7.240378651767969"><ele></ele><time>2013-8-1T15:17:52Z</time></trkpt>
<trkpt lat="46.07616922818124" lon="7.240483425557613"><ele></ele><time>2013-8-1T15:17:55Z</time></trkpt>
<trkpt lat="46.07610125094652" lon="7.240577889606357"><ele></ele><time>2013-8-1T15:17:58Z</time></trkpt>
<trkpt lat="46.076030507683754" lon="7.240658774971962"><ele></ele><time>2013-8-1T15:18:1Z</time></trkpt>
<trkpt lat="46.075950376689434" lon="7.240719376131892"><ele></ele><time>2013-8-1T15:18:4Z</time></trkpt>
<trkpt lat="46.07586286962032" lon="7.240762459114194"><ele></ele><time>2013-8-1T15:18:7Z</time></trkpt>
<trkpt lat="46.075768154114485" lon="7.24077302031219"><ele></ele><time>2013-8-1T15:18:10Z</time></trkpt>
<trkpt lat="46.07567033730447" lon="7.240754496306181"><ele></ele><time>2013-8-1T15:18:13Z</time></trkpt>
<trkpt lat="46.07556422241032" lon="7.240739744156599"><ele></ele><time>2013-8-1T15:18:16Z</time></trkpt>
<trkpt lat="46.0754529107362" lon="7.240737732499838"><ele></ele><time>2013-8-1T15:18:19Z</time></trkpt>
<trkpt lat="46.07534570619464" lon="7.24073781631887"><ele></ele><time>2013-8-1T15:18:22Z</time></trkpt>
<trkpt lat="46.07523766346276" lon="7.240741420537233"><ele></ele><time>2013-8-1T15:18:25Z</time></trkpt>
<trkpt lat="46.07513557188213" lon="7.240745108574629"><ele></ele><time>2013-8-1T15:18:28Z</time></trkpt>
<trkpt lat="46.075032725930214" lon="7.240750305354595"><ele></ele><time>2013-8-1T15:18:31Z</time></trkpt>
<trkpt lat="46.07493541203439" lon="7.240758184343576"><ele></ele><time>2013-8-1T15:18:34Z</time></trkpt>
<trkpt lat="46.07484446838498" lon="7.240765895694494"><ele></ele><time>2013-8-1T15:18:37Z</time></trkpt>
<trkpt lat="46.07476098462939" lon="7.240760028362274"><ele></ele><time>2013-8-1T15:18:40Z</time></trkpt>
<trkpt lat="46.07467842288315" lon="7.2407272551208735"><ele></ele><time>2013-8-1T15:18:43Z</time></trkpt>
<trkpt lat="46.07460105791688" lon="7.240662714466453"><ele></ele><time>2013-8-1T15:18:46Z</time></trkpt>
<trkpt lat="46.07452696189284" lon="7.240589624270797"><ele></ele><time>2013-8-1T15:18:49Z</time></trkpt>
<trkpt lat="46.074457224458456" lon="7.240516701713204"><ele></ele><time>2013-8-1T15:18:52Z</time></trkpt>
<trkpt lat="46.07440332882106" lon="7.240468338131905"><ele></ele><time>2013-8-1T15:18:55Z</time></trkpt>
<trkpt lat="46.074353037402034" lon="7.240445455536246"><ele></ele><time>2013-8-1T15:18:58Z</time></trkpt>
<trkpt lat="46.07429335825145" lon="7.240443443879485"><ele></ele><time>2013-8-1T15:19:1Z</time></trkpt>
<trkpt lat="46.074219262227416" lon="7.240458866581321"><ele></ele><time>2013-8-1T15:19:4Z</time></trkpt>
<trkpt lat="46.07413477264345" lon="7.240482922643423"><ele></ele><time>2013-8-1T15:19:7Z</time></trkpt>
<trkpt lat="46.07404952868819" lon="7.240508906543255"><ele></ele><time>2013-8-1T15:19:10Z</time></trkpt>
<trkpt lat="46.07397031970322" lon="7.240543439984322"><ele></ele><time>2013-8-1T15:19:13Z</time></trkpt>
<trkpt lat="46.0739023424685" lon="7.240573698654771"><ele></ele><time>2013-8-1T15:19:16Z</time></trkpt>
<trkpt lat="46.07384040020406" lon="7.240625666454434"><ele></ele><time>2013-8-1T15:19:19Z</time></trkpt>
<trkpt lat="46.07379153370857" lon="7.240694733336568"><ele></ele><time>2013-8-1T15:19:22Z</time></trkpt>
<trkpt lat="46.07375515624881" lon="7.240765392780304"><ele></ele><time>2013-8-1T15:19:25Z</time></trkpt>
<trkpt lat="46.0737194493413" lon="7.240811493247747"><ele></ele><time>2013-8-1T15:19:28Z</time></trkpt>
<trkpt lat="46.073682149872184" lon="7.240805458277464"><ele></ele><time>2013-8-1T15:19:31Z</time></trkpt>
<trkpt lat="46.07366295531392" lon="7.240755250677466"><ele></ele><time>2013-8-1T15:19:34Z</time></trkpt>
<trkpt lat="46.07367326505482" lon="7.240700097754598"><ele></ele><time>2013-8-1T15:19:37Z</time></trkpt>
<trkpt lat="46.073716348037124" lon="7.240651231259108"><ele></ele><time>2013-8-1T15:19:40Z</time></trkpt>
<trkpt lat="46.07376404106617" lon="7.2405946534127"><ele></ele><time>2013-8-1T15:19:43Z</time></trkpt>
<trkpt lat="46.073820535093546" lon="7.240535309538245"><ele></ele><time>2013-8-1T15:19:46Z</time></trkpt>
<trkpt lat="46.07387937605381" lon="7.2404928132891655"><ele></ele><time>2013-8-1T15:19:49Z</time></trkpt>
<trkpt lat="46.07393075712025" lon="7.240445371717215"><ele></ele><time>2013-8-1T15:19:52Z</time></trkpt>
<trkpt lat="46.073945593088865" lon="7.240382255986333"><ele></ele><time>2013-8-1T15:19:55Z</time></trkpt>
<trkpt lat="46.07391851954162" lon="7.2403322998434305"><ele></ele><time>2013-8-1T15:19:58Z</time></trkpt>
<trkpt lat="46.07386194169521" lon="7.240320146083832"><ele></ele><time>2013-8-1T15:20:1Z</time></trkpt>
<trkpt lat="46.07380025088787" lon="7.240335987880826"><ele></ele><time>2013-8-1T15:20:4Z</time></trkpt>
<trkpt lat="46.07373193837702" lon="7.240368006750941"><ele></ele><time>2013-8-1T15:20:7Z</time></trkpt>
<trkpt lat="46.07366010546684" lon="7.240412179380655"><ele></ele><time>2013-8-1T15:20:10Z</time></trkpt>
<trkpt lat="46.07358240522444" lon="7.240476300939918"><ele></ele><time>2013-8-1T15:20:13Z</time></trkpt>
<trkpt lat="46.07349523343146" lon="7.240545703098178"><ele></ele><time>2013-8-1T15:20:16Z</time></trkpt>
<trkpt lat="46.07340060174465" lon="7.240613177418709"><ele></ele><time>2013-8-1T15:20:19Z</time></trkpt>
<trkpt lat="46.073295241221786" lon="7.240658104419708"><ele></ele><time>2013-8-1T15:20:22Z</time></trkpt>
<trkpt lat="46.073188204318285" lon="7.240677885711193"><ele></ele><time>2013-8-1T15:20:25Z</time></trkpt>
<trkpt lat="46.073081670328975" lon="7.240682328119874"><ele></ele><time>2013-8-1T15:20:28Z</time></trkpt>
<trkpt lat="46.07297983020544" lon="7.24067822098732"><ele></ele><time>2013-8-1T15:20:31Z</time></trkpt>
<trkpt lat="46.072878912091255" lon="7.240673024207354"><ele></ele><time>2013-8-1T15:20:34Z</time></trkpt>
<trkpt lat="46.07277765870094" lon="7.240676544606686"><ele></ele><time>2013-8-1T15:20:37Z</time></trkpt>
<trkpt lat="46.072688810527325" lon="7.240704372525215"><ele></ele><time>2013-8-1T15:20:40Z</time></trkpt>
<trkpt lat="46.072607170790434" lon="7.240749383345246"><ele></ele><time>2013-8-1T15:20:43Z</time></trkpt>
<trkpt lat="46.0725312307477" lon="7.240808894857764"><ele></ele><time>2013-8-1T15:20:46Z</time></trkpt>
<trkpt lat="46.072463504970074" lon="7.240884248167276"><ele></ele><time>2013-8-1T15:20:49Z</time></trkpt>
<trkpt lat="46.07241430319846" lon="7.240972090512514"><ele></ele><time>2013-8-1T15:20:52Z</time></trkpt>
<trkpt lat="46.072375075891614" lon="7.2410376369953156"><ele></ele><time>2013-8-1T15:20:55Z</time></trkpt>
<trkpt lat="46.0723343398422" lon="7.241074098274112"><ele></ele><time>2013-8-1T15:20:58Z</time></trkpt>
<trkpt lat="46.072255885228515" lon="7.241108128800988"><ele></ele><time>2013-8-1T15:21:1Z</time></trkpt>
<trkpt lat="46.07213493436575" lon="7.241203933954239"><ele></ele><time>2013-8-1T15:21:4Z</time></trkpt>
<trkpt lat="46.07205932959914" lon="7.241325303912163"><ele></ele><time>2013-8-1T15:21:7Z</time></trkpt>
<trkpt lat="46.072045834735036" lon="7.241348521783948"><ele></ele><time>2013-8-1T15:21:10Z</time></trkpt>
<trkpt lat="46.07203787192702" lon="7.241371404379606"><ele></ele><time>2013-8-1T15:21:13Z</time></trkpt>
<trkpt lat="46.07202119193971" lon="7.241397388279438"><ele></ele><time>2013-8-1T15:21:16Z</time></trkpt>
<trkpt lat="46.072000321000814" lon="7.241429993882775"><ele></ele><time>2013-8-1T15:21:19Z</time></trkpt>
<trkpt lat="46.07198213227093" lon="7.241461174562573"><ele></ele><time>2013-8-1T15:21:22Z</time></trkpt>
<trkpt lat="46.07190133072436" lon="7.241562260314822"><ele></ele><time>2013-8-1T15:21:25Z</time></trkpt>
<trkpt lat="46.07187978923321" lon="7.241593273356557"><ele></ele><time>2013-8-1T15:21:28Z</time></trkpt>
<trkpt lat="46.07186076231301" lon="7.241621185094118"><ele></ele><time>2013-8-1T15:21:31Z</time></trkpt>
<trkpt lat="46.07184123247862" lon="7.241649851202965"><ele></ele><time>2013-8-1T15:21:34Z</time></trkpt>
<trkpt lat="46.07182187028229" lon="7.241676924750209"><ele></ele><time>2013-8-1T15:21:37Z</time></trkpt>
<trkpt lat="46.071784319356084" lon="7.24172830581665"><ele></ele><time>2013-8-1T15:21:40Z</time></trkpt>
<trkpt lat="46.07175573706627" lon="7.241763258352876"><ele></ele><time>2013-8-1T15:21:43Z</time></trkpt>
<trkpt lat="46.0717349499464" lon="7.241786224767566"><ele></ele><time>2013-8-1T15:21:46Z</time></trkpt>
<trkpt lat="46.07171508483589" lon="7.241806341335177"><ele></ele><time>2013-8-1T15:21:49Z</time></trkpt>
<trkpt lat="46.07169228605926" lon="7.241823272779584"><ele></ele><time>2013-8-1T15:21:52Z</time></trkpt>
<trkpt lat="46.07167141512036" lon="7.241840623319149"><ele></ele><time>2013-8-1T15:21:55Z</time></trkpt>
<trkpt lat="46.071651969105005" lon="7.241862751543522"><ele></ele><time>2013-8-1T15:21:58Z</time></trkpt>
<trkpt lat="46.07163369655609" lon="7.241887142881751"><ele></ele><time>2013-8-1T15:22:1Z</time></trkpt>
<trkpt lat="46.07153839431703" lon="7.242009602487087"><ele></ele><time>2013-8-1T15:22:4Z</time></trkpt>
<trkpt lat="46.071519032120705" lon="7.242031646892428"><ele></ele><time>2013-8-1T15:22:7Z</time></trkpt>
<trkpt lat="46.07149740681052" lon="7.242054361850023"><ele></ele><time>2013-8-1T15:22:10Z</time></trkpt>
<trkpt lat="46.07147376984358" lon="7.242074143141508"><ele></ele><time>2013-8-1T15:22:13Z</time></trkpt>
<trkpt lat="46.071453737095" lon="7.242093086242676"><ele></ele><time>2013-8-1T15:22:16Z</time></trkpt>
<trkpt lat="46.071435548365116" lon="7.2421149630099535"><ele></ele><time>2013-8-1T15:22:19Z</time></trkpt>
<trkpt lat="46.071378299966455" lon="7.2421832755208015"><ele></ele><time>2013-8-1T15:22:22Z</time></trkpt>
<trkpt lat="46.07132633216679" lon="7.2422628197818995"><ele></ele><time>2013-8-1T15:22:25Z</time></trkpt>
<trkpt lat="46.071312837302685" lon="7.242294335737824"><ele></ele><time>2013-8-1T15:22:28Z</time></trkpt>
<trkpt lat="46.07130135409534" lon="7.242323337122798"><ele></ele><time>2013-8-1T15:22:31Z</time></trkpt>
<trkpt lat="46.071291882544756" lon="7.242354601621628"><ele></ele><time>2013-8-1T15:22:34Z</time></trkpt>
<trkpt lat="46.071286015212536" lon="7.242385363206267"><ele></ele><time>2013-8-1T15:22:37Z</time></trkpt>
<trkpt lat="46.07128039933741" lon="7.242509415373206"><ele></ele><time>2013-8-1T15:22:40Z</time></trkpt>
<trkpt lat="46.07128467410803" lon="7.242580829188228"><ele></ele><time>2013-8-1T15:22:43Z</time></trkpt>
<trkpt lat="46.07128995470703" lon="7.242610668763518"><ele></ele><time>2013-8-1T15:22:46Z</time></trkpt>
<trkpt lat="46.07129339128733" lon="7.242639251053333"><ele></ele><time>2013-8-1T15:22:49Z</time></trkpt>
<trkpt lat="46.071300180628896" lon="7.2426703479141"><ele></ele><time>2013-8-1T15:22:52Z</time></trkpt>
<trkpt lat="46.07130772434175" lon="7.242699600756168"><ele></ele><time>2013-8-1T15:22:55Z</time></trkpt>
<trkpt lat="46.071315770968795" lon="7.24272751249373"><ele></ele><time>2013-8-1T15:22:58Z</time></trkpt>
<trkpt lat="46.07134493999183" lon="7.242840752005577"><ele></ele><time>2013-8-1T15:23:1Z</time></trkpt>
<trkpt lat="46.071352483704686" lon="7.242868496105075"><ele></ele><time>2013-8-1T15:23:4Z</time></trkpt>
<trkpt lat="46.071358770132065" lon="7.2428948152810335"><ele></ele><time>2013-8-1T15:23:7Z</time></trkpt>
<trkpt lat="46.07136522419751" lon="7.242921218276024"><ele></ele><time>2013-8-1T15:23:10Z</time></trkpt>
<trkpt lat="46.07137318700552" lon="7.242946112528443"><ele></ele><time>2013-8-1T15:23:13Z</time></trkpt>
<trkpt lat="46.07140386477113" lon="7.2430243995040655"><ele></ele><time>2013-8-1T15:23:16Z</time></trkpt>
<trkpt lat="46.071409648284316" lon="7.24305247887969"><ele></ele><time>2013-8-1T15:23:19Z</time></trkpt>
<trkpt lat="46.071417862549424" lon="7.243079384788871"><ele></ele><time>2013-8-1T15:23:22Z</time></trkpt>
<trkpt lat="46.07142456807196" lon="7.243104698136449"><ele></ele><time>2013-8-1T15:23:25Z</time></trkpt>
<trkpt lat="46.071433117613196" lon="7.243134453892708"><ele></ele><time>2013-8-1T15:23:28Z</time></trkpt>
<trkpt lat="46.07146857306361" lon="7.243242664262652"><ele></ele><time>2013-8-1T15:23:31Z</time></trkpt>
<trkpt lat="46.07147301547229" lon="7.243293961510062"><ele></ele><time>2013-8-1T15:23:34Z</time></trkpt>
<trkpt lat="46.07147444039583" lon="7.2433180175721645"><ele></ele><time>2013-8-1T15:23:37Z</time></trkpt>
<trkpt lat="46.07147469185293" lon="7.243349701166153"><ele></ele><time>2013-8-1T15:23:40Z</time></trkpt>
<trkpt lat="46.07147628441453" lon="7.243374595418572"><ele></ele><time>2013-8-1T15:23:43Z</time></trkpt>
<trkpt lat="46.0714777931571" lon="7.243402004241943"><ele></ele><time>2013-8-1T15:23:46Z</time></trkpt>
<trkpt lat="46.07147234492004" lon="7.243523206561804"><ele></ele><time>2013-8-1T15:23:49Z</time></trkpt>
<trkpt lat="46.07147008180618" lon="7.243554051965475"><ele></ele><time>2013-8-1T15:23:52Z</time></trkpt>
<trkpt lat="46.07146354392171" lon="7.2435851488262415"><ele></ele><time>2013-8-1T15:23:55Z</time></trkpt>
<trkpt lat="46.07145952060819" lon="7.243612641468644"><ele></ele><time>2013-8-1T15:23:58Z</time></trkpt>
<trkpt lat="46.07144854031503" lon="7.243636613711715"><ele></ele><time>2013-8-1T15:24:1Z</time></trkpt>
<trkpt lat="46.071440326049924" lon="7.2436632681638"><ele></ele><time>2013-8-1T15:24:4Z</time></trkpt>
<trkpt lat="46.07143529690802" lon="7.243695119395852"><ele></ele><time>2013-8-1T15:24:7Z</time></trkpt>
<trkpt lat="46.07142691500485" lon="7.243723114952445"><ele></ele><time>2013-8-1T15:24:10Z</time></trkpt>
<trkpt lat="46.07140730135143" lon="7.243777513504028"><ele></ele><time>2013-8-1T15:24:13Z</time></trkpt>
<trkpt lat="46.07137997634709" lon="7.243828978389502"><ele></ele><time>2013-8-1T15:24:16Z</time></trkpt>
<trkpt lat="46.07136773876846" lon="7.243849681690335"><ele></ele><time>2013-8-1T15:24:19Z</time></trkpt>
<trkpt lat="46.07135281898081" lon="7.243867618963122"><ele></ele><time>2013-8-1T15:24:22Z</time></trkpt>
<trkpt lat="46.07133546844125" lon="7.2438894957304"><ele></ele><time>2013-8-1T15:24:25Z</time></trkpt>
<trkpt lat="46.0713171120733" lon="7.2439029067754745"><ele></ele><time>2013-8-1T15:24:28Z</time></trkpt>
<trkpt lat="46.071207812055945" lon="7.243950599804521"><ele></ele><time>2013-8-1T15:24:31Z</time></trkpt>
<trkpt lat="46.07118685729802" lon="7.243967615067959"><ele></ele><time>2013-8-1T15:24:34Z</time></trkpt>
<trkpt lat="46.071170177310705" lon="7.243980187922716"><ele></ele><time>2013-8-1T15:24:37Z</time></trkpt>
<trkpt lat="46.071150563657284" lon="7.2439927607774734"><ele></ele><time>2013-8-1T15:24:40Z</time></trkpt>
<trkpt lat="46.07109038159251" lon="7.244036849588156"><ele></ele><time>2013-8-1T15:24:43Z</time></trkpt>
<trkpt lat="46.07100714929402" lon="7.244121842086315"><ele></ele><time>2013-8-1T15:24:46Z</time></trkpt>
<trkpt lat="46.070986445993185" lon="7.244132570922375"><ele></ele><time>2013-8-1T15:24:49Z</time></trkpt>
<trkpt lat="46.070965910330415" lon="7.244141539558768"><ele></ele><time>2013-8-1T15:24:52Z</time></trkpt>
<trkpt lat="46.070945458486676" lon="7.2441556211560965"><ele></ele><time>2013-8-1T15:24:55Z</time></trkpt>
<trkpt lat="46.07092852704227" lon="7.244165008887649"><ele></ele><time>2013-8-1T15:24:58Z</time></trkpt>
<trkpt lat="46.070844708010554" lon="7.244220161810517"><ele></ele><time>2013-8-1T15:25:1Z</time></trkpt>
<trkpt lat="46.070778742432594" lon="7.244257377460599"><ele></ele><time>2013-8-1T15:25:4Z</time></trkpt>
<trkpt lat="46.07075979933143" lon="7.244267100468278"><ele></ele><time>2013-8-1T15:25:7Z</time></trkpt>
<trkpt lat="46.07073901221156" lon="7.244282104074955"><ele></ele><time>2013-8-1T15:25:10Z</time></trkpt>
<trkpt lat="46.07071805745363" lon="7.244298784062266"><ele></ele><time>2013-8-1T15:25:13Z</time></trkpt>
<trkpt lat="46.07069743797183" lon="7.244312781840563"><ele></ele><time>2013-8-1T15:25:16Z</time></trkpt>
<trkpt lat="46.07060850597918" lon="7.244384530931711"><ele></ele><time>2013-8-1T15:25:19Z</time></trkpt>
<trkpt lat="46.07059132307768" lon="7.244401043280959"><ele></ele><time>2013-8-1T15:25:22Z</time></trkpt>
<trkpt lat="46.0705747269094" lon="7.244421998038888"><ele></ele><time>2013-8-1T15:25:25Z</time></trkpt>
<trkpt lat="46.070560896769166" lon="7.24444798193872"><ele></ele><time>2013-8-1T15:25:28Z</time></trkpt>
<trkpt lat="46.070547150447965" lon="7.244471199810505"><ele></ele><time>2013-8-1T15:25:31Z</time></trkpt>
<trkpt lat="46.070476742461324" lon="7.244617212563753"><ele></ele><time>2013-8-1T15:25:34Z</time></trkpt>
<trkpt lat="46.070451345294714" lon="7.244668006896973"><ele></ele><time>2013-8-1T15:25:37Z</time></trkpt>
<trkpt lat="46.07044028118253" lon="7.244693739339709"><ele></ele><time>2013-8-1T15:25:40Z</time></trkpt>
<trkpt lat="46.070425445213914" lon="7.2447193041443825"><ele></ele><time>2013-8-1T15:25:43Z</time></trkpt>
<trkpt lat="46.07041203416884" lon="7.244745623320341"><ele></ele><time>2013-8-1T15:25:46Z</time></trkpt>
<trkpt lat="46.07039535418153" lon="7.244767667725682"><ele></ele><time>2013-8-1T15:25:49Z</time></trkpt>
<trkpt lat="46.07038043439388" lon="7.244791556149721"><ele></ele><time>2013-8-1T15:25:52Z</time></trkpt>
<trkpt lat="46.07036140747368" lon="7.244814606383443"><ele></ele><time>2013-8-1T15:25:55Z</time></trkpt>
<trkpt lat="46.07030717656016" lon="7.244873531162739"><ele></ele><time>2013-8-1T15:25:58Z</time></trkpt>
<trkpt lat="46.07028856873512" lon="7.244891552254558"><ele></ele><time>2013-8-1T15:26:1Z</time></trkpt>
<trkpt lat="46.070268703624606" lon="7.2449130937457085"><ele></ele><time>2013-8-1T15:26:4Z</time></trkpt>
<trkpt lat="46.07024699449539" lon="7.244925498962402"><ele></ele><time>2013-8-1T15:26:7Z</time></trkpt>
<trkpt lat="46.070226123556495" lon="7.244942765682936"><ele></ele><time>2013-8-1T15:26:10Z</time></trkpt>
<trkpt lat="46.07020650990307" lon="7.244958775117993"><ele></ele><time>2013-8-1T15:26:13Z</time></trkpt>
<trkpt lat="46.07018589042127" lon="7.244973611086607"><ele></ele><time>2013-8-1T15:26:16Z</time></trkpt>
<trkpt lat="46.07007826678455" lon="7.245041839778423"><ele></ele><time>2013-8-1T15:26:19Z</time></trkpt>
<trkpt lat="46.070053623989224" lon="7.245059525594115"><ele></ele><time>2013-8-1T15:26:22Z</time></trkpt>
<trkpt lat="46.070034094154835" lon="7.245078217238188"><ele></ele><time>2013-8-1T15:26:25Z</time></trkpt>
<trkpt lat="46.07001515105367" lon="7.245094226673245"><ele></ele><time>2013-8-1T15:26:28Z</time></trkpt>
<trkpt lat="46.069995453581214" lon="7.245111661031842"><ele></ele><time>2013-8-1T15:26:31Z</time></trkpt>
<trkpt lat="46.06992638669908" lon="7.245207717642188"><ele></ele><time>2013-8-1T15:26:34Z</time></trkpt>
<trkpt lat="46.069887494668365" lon="7.245292877778411"><ele></ele><time>2013-8-1T15:26:37Z</time></trkpt>
<trkpt lat="46.06987961567938" lon="7.245320286601782"><ele></ele><time>2013-8-1T15:26:40Z</time></trkpt>
<trkpt lat="46.06986813247204" lon="7.2453454323112965"><ele></ele><time>2013-8-1T15:26:43Z</time></trkpt>
<trkpt lat="46.06985698454082" lon="7.24537200294435"><ele></ele><time>2013-8-1T15:26:46Z</time></trkpt>
<trkpt lat="46.069834688678384" lon="7.2454240545630455"><ele></ele><time>2013-8-1T15:26:49Z</time></trkpt>
<trkpt lat="46.06975774280727" lon="7.245605271309614"><ele></ele><time>2013-8-1T15:26:52Z</time></trkpt>
<trkpt lat="46.06974718160927" lon="7.245630836114287"><ele></ele><time>2013-8-1T15:26:55Z</time></trkpt>
<trkpt lat="46.069734105840325" lon="7.2456546407192945"><ele></ele><time>2013-8-1T15:26:58Z</time></trkpt>
<trkpt lat="46.069720359519124" lon="7.245679115876555"><ele></ele><time>2013-8-1T15:27:1Z</time></trkpt>
<trkpt lat="46.06970996595919" lon="7.245699819177389"><ele></ele><time>2013-8-1T15:27:4Z</time></trkpt>
<trkpt lat="46.06965456157923" lon="7.24580735899508"><ele></ele><time>2013-8-1T15:27:7Z</time></trkpt>
<trkpt lat="46.06964291073382" lon="7.245829235762358"><ele></ele><time>2013-8-1T15:27:10Z</time></trkpt>
<trkpt lat="46.06963402591646" lon="7.245855638757348"><ele></ele><time>2013-8-1T15:27:13Z</time></trkpt>
<trkpt lat="46.069624638184905" lon="7.245878856629133"><ele></ele><time>2013-8-1T15:27:16Z</time></trkpt>
<trkpt lat="46.06961349025369" lon="7.245899643748999"><ele></ele><time>2013-8-1T15:27:19Z</time></trkpt>
<trkpt lat="46.06960276141763" lon="7.24591925740242"><ele></ele><time>2013-8-1T15:27:22Z</time></trkpt>
<trkpt lat="46.06957593932748" lon="7.2459910903126"><ele></ele><time>2013-8-1T15:27:25Z</time></trkpt>
<trkpt lat="46.06956562958658" lon="7.246019756421447"><ele></ele><time>2013-8-1T15:27:28Z</time></trkpt>
<trkpt lat="46.06955339200795" lon="7.246192088350654"><ele></ele><time>2013-8-1T15:27:31Z</time></trkpt>
<trkpt lat="46.06955154798925" lon="7.246221341192722"><ele></ele><time>2013-8-1T15:27:34Z</time></trkpt>
<trkpt lat="46.06954811140895" lon="7.246246570721269"><ele></ele><time>2013-8-1T15:27:37Z</time></trkpt>
<trkpt lat="46.069546518847346" lon="7.246272386983037"><ele></ele><time>2013-8-1T15:27:40Z</time></trkpt>
<trkpt lat="46.06954425573349" lon="7.246302897110581"><ele></ele><time>2013-8-1T15:27:43Z</time></trkpt>
<trkpt lat="46.069537634029984" lon="7.246367186307907"><ele></ele><time>2013-8-1T15:27:46Z</time></trkpt>
<trkpt lat="46.069533275440335" lon="7.246443796902895"><ele></ele><time>2013-8-1T15:27:49Z</time></trkpt>
<trkpt lat="46.069532772526145" lon="7.246469361707568"><ele></ele><time>2013-8-1T15:27:52Z</time></trkpt>
<trkpt lat="46.069529335945845" lon="7.246493753045797"><ele></ele><time>2013-8-1T15:27:55Z</time></trkpt>
<trkpt lat="46.06952749192715" lon="7.2465249337255955"><ele></ele><time>2013-8-1T15:27:58Z</time></trkpt>
<trkpt lat="46.069525899365544" lon="7.246557958424091"><ele></ele><time>2013-8-1T15:28:1Z</time></trkpt>
<trkpt lat="46.069514667615294" lon="7.246723501011729"><ele></ele><time>2013-8-1T15:28:4Z</time></trkpt>
<trkpt lat="46.069507878273726" lon="7.2467452101409435"><ele></ele><time>2013-8-1T15:28:7Z</time></trkpt>
<trkpt lat="46.06949823908508" lon="7.246776474639773"><ele></ele><time>2013-8-1T15:28:10Z</time></trkpt>
<trkpt lat="46.06948407366872" lon="7.24680807441473"><ele></ele><time>2013-8-1T15:28:13Z</time></trkpt>
<trkpt lat="46.06947644613683" lon="7.246837075799704"><ele></ele><time>2013-8-1T15:28:16Z</time></trkpt>
<trkpt lat="46.06946622021496" lon="7.24686473608017"><ele></ele><time>2013-8-1T15:28:19Z</time></trkpt>
<trkpt lat="46.069455994293094" lon="7.24689457565546"><ele></ele><time>2013-8-1T15:28:22Z</time></trkpt>
<trkpt lat="46.06941726990044" lon="7.246978646144271"><ele></ele><time>2013-8-1T15:28:25Z</time></trkpt>
<trkpt lat="46.06940360739827" lon="7.247010413557291"><ele></ele><time>2013-8-1T15:28:28Z</time></trkpt>
<trkpt lat="46.06938634067774" lon="7.24704260006547"><ele></ele><time>2013-8-1T15:28:31Z</time></trkpt>
<trkpt lat="46.06937234289944" lon="7.247069841250777"><ele></ele><time>2013-8-1T15:28:34Z</time></trkpt>
<trkpt lat="46.069356333464384" lon="7.247101357206702"><ele></ele><time>2013-8-1T15:28:37Z</time></trkpt>
<trkpt lat="46.06931895017624" lon="7.247140668332577"><ele></ele><time>2013-8-1T15:28:40Z</time></trkpt>
<trkpt lat="46.06928148306906" lon="7.247178805992007"><ele></ele><time>2013-8-1T15:28:43Z</time></trkpt>
<trkpt lat="46.0692638810724" lon="7.247193139046431"><ele></ele><time>2013-8-1T15:28:46Z</time></trkpt>
<trkpt lat="46.069248877465725" lon="7.247202610597014"><ele></ele><time>2013-8-1T15:28:49Z</time></trkpt>
<trkpt lat="46.06923001818359" lon="7.247222643345594"><ele></ele><time>2013-8-1T15:28:52Z</time></trkpt>
<trkpt lat="46.06921350583434" lon="7.247244184836745"><ele></ele><time>2013-8-1T15:28:55Z</time></trkpt>
<trkpt lat="46.06919774785638" lon="7.2472653072327375"><ele></ele><time>2013-8-1T15:28:58Z</time></trkpt>
<trkpt lat="46.069169165566564" lon="7.247302355244756"><ele></ele><time>2013-8-1T15:29:1Z</time></trkpt>
<trkpt lat="46.0691362246871" lon="7.247339487075806"><ele></ele><time>2013-8-1T15:29:4Z</time></trkpt>
<trkpt lat="46.06912105344236" lon="7.247357172891498"><ele></ele><time>2013-8-1T15:29:7Z</time></trkpt>
<trkpt lat="46.06909951195121" lon="7.247374691069126"><ele></ele><time>2013-8-1T15:29:10Z</time></trkpt>
<trkpt lat="46.06908157467842" lon="7.247390113770962"><ele></ele><time>2013-8-1T15:29:13Z</time></trkpt>
<trkpt lat="46.06906397268176" lon="7.247403524816036"><ele></ele><time>2013-8-1T15:29:16Z</time></trkpt>
<trkpt lat="46.06904695741832" lon="7.247416852042079"><ele></ele><time>2013-8-1T15:29:19Z</time></trkpt>
<trkpt lat="46.0689462069422" lon="7.247506370767951"><ele></ele><time>2013-8-1T15:29:22Z</time></trkpt>
<trkpt lat="46.06892617419362" lon="7.247517434880137"><ele></ele><time>2013-8-1T15:29:25Z</time></trkpt>
<trkpt lat="46.06890798546374" lon="7.247529588639736"><ele></ele><time>2013-8-1T15:29:28Z</time></trkpt>
<trkpt lat="46.06889004819095" lon="7.247540736570954"><ele></ele><time>2013-8-1T15:29:31Z</time></trkpt>
<trkpt lat="46.06887294910848" lon="7.247555740177631"><ele></ele><time>2013-8-1T15:29:34Z</time></trkpt>
<trkpt lat="46.06879893690348" lon="7.2476108931005"><ele></ele><time>2013-8-1T15:29:37Z</time></trkpt>
<trkpt lat="46.068768091499805" lon="7.2476425766944885"><ele></ele><time>2013-8-1T15:29:40Z</time></trkpt>
<trkpt lat="46.068752501159906" lon="7.247657999396324"><ele></ele><time>2013-8-1T15:29:43Z</time></trkpt>
<trkpt lat="46.06873816810548" lon="7.24767342209816"><ele></ele><time>2013-8-1T15:29:46Z</time></trkpt>
<trkpt lat="46.068724086508155" lon="7.247685911133885"><ele></ele><time>2013-8-1T15:29:49Z</time></trkpt>
<trkpt lat="46.068709921091795" lon="7.247698986902833"><ele></ele><time>2013-8-1T15:29:52Z</time></trkpt>
<trkpt lat="46.068685948848724" lon="7.247734693810344"><ele></ele><time>2013-8-1T15:29:55Z</time></trkpt>
<trkpt lat="46.068616043776274" lon="7.247858913615346"><ele></ele><time>2013-8-1T15:29:58Z</time></trkpt>
<trkpt lat="46.0686079133302" lon="7.247878275811672"><ele></ele><time>2013-8-1T15:30:1Z</time></trkpt>
<trkpt lat="46.068600453436375" lon="7.247903924435377"><ele></ele><time>2013-8-1T15:30:4Z</time></trkpt>
<trkpt lat="46.06859290972352" lon="7.247926974669099"><ele></ele><time>2013-8-1T15:30:7Z</time></trkpt>
<trkpt lat="46.06858612038195" lon="7.247950611636043"><ele></ele><time>2013-8-1T15:30:10Z</time></trkpt>
<trkpt lat="46.068573128432035" lon="7.248052787035704"><ele></ele><time>2013-8-1T15:30:13Z</time></trkpt>
<trkpt lat="46.068578325212" lon="7.24813861772418"><ele></ele><time>2013-8-1T15:30:16Z</time></trkpt>
<trkpt lat="46.068581426516175" lon="7.248168122023344"><ele></ele><time>2013-8-1T15:30:19Z</time></trkpt>
<trkpt lat="46.06858746148646" lon="7.2481953632086515"><ele></ele><time>2013-8-1T15:30:22Z</time></trkpt>
<trkpt lat="46.06859005987644" lon="7.248225789517164"><ele></ele><time>2013-8-1T15:30:25Z</time></trkpt>
<trkpt lat="46.0685957595706" lon="7.248250851407647"><ele></ele><time>2013-8-1T15:30:28Z</time></trkpt>
<trkpt lat="46.06861671432853" lon="7.2483971156179905"><ele></ele><time>2013-8-1T15:30:31Z</time></trkpt>
<trkpt lat="46.06862258166075" lon="7.248422764241695"><ele></ele><time>2013-8-1T15:30:34Z</time></trkpt>
<trkpt lat="46.068630209192634" lon="7.248450173065066"><ele></ele><time>2013-8-1T15:30:37Z</time></trkpt>
<trkpt lat="46.06863683089614" lon="7.248478420078754"><ele></ele><time>2013-8-1T15:30:40Z</time></trkpt>
<trkpt lat="46.06864236295223" lon="7.2485060803592205"><ele></ele><time>2013-8-1T15:30:43Z</time></trkpt>
<trkpt lat="46.06866038404405" lon="7.248665587976575"><ele></ele><time>2013-8-1T15:30:46Z</time></trkpt>
<trkpt lat="46.06866465881467" lon="7.248692661523819"><ele></ele><time>2013-8-1T15:30:49Z</time></trkpt>
<trkpt lat="46.068669855594635" lon="7.2487216629087925"><ele></ele><time>2013-8-1T15:30:52Z</time></trkpt>
<trkpt lat="46.06867169961333" lon="7.248749323189259"><ele></ele><time>2013-8-1T15:30:55Z</time></trkpt>
<trkpt lat="46.068671783432364" lon="7.248776312917471"><ele></ele><time>2013-8-1T15:30:58Z</time></trkpt>
<trkpt lat="46.068679075688124" lon="7.248893491923809"><ele></ele><time>2013-8-1T15:31:1Z</time></trkpt>
<trkpt lat="46.06868175789714" lon="7.248917715623975"><ele></ele><time>2013-8-1T15:31:4Z</time></trkpt>
<trkpt lat="46.068680081516504" lon="7.248946549370885"><ele></ele><time>2013-8-1T15:31:7Z</time></trkpt>
<trkpt lat="46.06867999769747" lon="7.248974880203605"><ele></ele><time>2013-8-1T15:31:10Z</time></trkpt>
<trkpt lat="46.06868024915457" lon="7.249004133045673"><ele></ele><time>2013-8-1T15:31:13Z</time></trkpt>
<trkpt lat="46.0686819255352" lon="7.2490335535258055"><ele></ele><time>2013-8-1T15:31:16Z</time></trkpt>
<trkpt lat="46.06868226081133" lon="7.249063393101096"><ele></ele><time>2013-8-1T15:31:19Z</time></trkpt>
<trkpt lat="46.06867052614689" lon="7.2491884510964155"><ele></ele><time>2013-8-1T15:31:22Z</time></trkpt>
<trkpt lat="46.06866046786308" lon="7.249221978709102"><ele></ele><time>2013-8-1T15:31:25Z</time></trkpt>
<trkpt lat="46.068654265254736" lon="7.249251063913107"><ele></ele><time>2013-8-1T15:31:28Z</time></trkpt>
<trkpt lat="46.06865141540766" lon="7.24927956238389"><ele></ele><time>2013-8-1T15:31:31Z</time></trkpt>
<trkpt lat="46.06864965520799" lon="7.249305881559849"><ele></ele><time>2013-8-1T15:31:34Z</time></trkpt>
<trkpt lat="46.06863087974489" lon="7.2494040336459875"><ele></ele><time>2013-8-1T15:31:37Z</time></trkpt>
<trkpt lat="46.068620486184955" lon="7.249453654512763"><ele></ele><time>2013-8-1T15:31:40Z</time></trkpt>
<trkpt lat="46.0686145350337" lon="7.249477626755834"><ele></ele><time>2013-8-1T15:31:43Z</time></trkpt>
<trkpt lat="46.06860984116793" lon="7.249503443017602"><ele></ele><time>2013-8-1T15:31:46Z</time></trkpt>
<trkpt lat="46.06860179454088" lon="7.249525403603911"><ele></ele><time>2013-8-1T15:31:49Z</time></trkpt>
<trkpt lat="46.068593077361584" lon="7.2495451010763645"><ele></ele><time>2013-8-1T15:31:52Z</time></trkpt>
<trkpt lat="46.06857882812619" lon="7.249586088582873"><ele></ele><time>2013-8-1T15:31:55Z</time></trkpt>
<trkpt lat="46.06854354031384" lon="7.249678373336792"><ele></ele><time>2013-8-1T15:31:58Z</time></trkpt>
<trkpt lat="46.06853289529681" lon="7.249705949798226"><ele></ele><time>2013-8-1T15:32:1Z</time></trkpt>
<trkpt lat="46.06852317228913" lon="7.249739058315754"><ele></ele><time>2013-8-1T15:32:4Z</time></trkpt>
<trkpt lat="46.06851814314723" lon="7.249771328642964"><ele></ele><time>2013-8-1T15:32:7Z</time></trkpt>
<trkpt lat="46.06851076707244" lon="7.249798569828272"><ele></ele><time>2013-8-1T15:32:10Z</time></trkpt>
<trkpt lat="46.06849567964673" lon="7.2498431615531445"><ele></ele><time>2013-8-1T15:32:13Z</time></trkpt>
<trkpt lat="46.06848780065775" lon="7.249871743842959"><ele></ele><time>2013-8-1T15:32:16Z</time></trkpt>
<trkpt lat="46.06844480149448" lon="7.249969057738781"><ele></ele><time>2013-8-1T15:32:19Z</time></trkpt>
<trkpt lat="46.068431474268436" lon="7.249992107972503"><ele></ele><time>2013-8-1T15:32:22Z</time></trkpt>
<trkpt lat="46.06841856613755" lon="7.250013398006558"><ele></ele><time>2013-8-1T15:32:25Z</time></trkpt>
<trkpt lat="46.068403059616685" lon="7.250039549544454"><ele></ele><time>2013-8-1T15:32:28Z</time></trkpt>
<trkpt lat="46.068390905857086" lon="7.250065030530095"><ele></ele><time>2013-8-1T15:32:31Z</time></trkpt>
<trkpt lat="46.068344470113516" lon="7.250147592276335"><ele></ele><time>2013-8-1T15:32:34Z</time></trkpt>
<trkpt lat="46.068330304697156" lon="7.250173492357135"><ele></ele><time>2013-8-1T15:32:37Z</time></trkpt>
<trkpt lat="46.068312115967274" lon="7.250194447115064"><ele></ele><time>2013-8-1T15:32:40Z</time></trkpt>
<trkpt lat="46.068295603618026" lon="7.250214479863644"><ele></ele><time>2013-8-1T15:32:43Z</time></trkpt>
<trkpt lat="46.06827674433589" lon="7.250234512612224"><ele></ele><time>2013-8-1T15:32:46Z</time></trkpt>
<trkpt lat="46.068200385198" lon="7.250300562009215"><ele></ele><time>2013-8-1T15:32:49Z</time></trkpt>
<trkpt lat="46.068185633048415" lon="7.250313805416226"><ele></ele><time>2013-8-1T15:32:52Z</time></trkpt>
<trkpt lat="46.068166522309184" lon="7.250325037166476"><ele></ele><time>2013-8-1T15:32:55Z</time></trkpt>
<trkpt lat="46.06814783066511" lon="7.250333754345775"><ele></ele><time>2013-8-1T15:32:58Z</time></trkpt>
<trkpt lat="46.06812871992588" lon="7.2503455728292465"><ele></ele><time>2013-8-1T15:33:1Z</time></trkpt>
<trkpt lat="46.0681086871773" lon="7.250354290008545"><ele></ele><time>2013-8-1T15:33:4Z</time></trkpt>
<trkpt lat="46.06806619092822" lon="7.250375412404537"><ele></ele><time>2013-8-1T15:33:7Z</time></trkpt>
<trkpt lat="46.067963764071465" lon="7.250415645539761"><ele></ele><time>2013-8-1T15:33:10Z</time></trkpt>
<trkpt lat="46.067946162074804" lon="7.250428218394518"><ele></ele><time>2013-8-1T15:33:13Z</time></trkpt>
<trkpt lat="46.06793015263975" lon="7.2504424676299095"><ele></ele><time>2013-8-1T15:33:16Z</time></trkpt>
<trkpt lat="46.06791213154793" lon="7.250454453751445"><ele></ele><time>2013-8-1T15:33:19Z</time></trkpt>
<trkpt lat="46.06789377517998" lon="7.2504710499197245"><ele></ele><time>2013-8-1T15:33:22Z</time></trkpt>
<trkpt lat="46.067798137664795" lon="7.2505732253193855"><ele></ele><time>2013-8-1T15:33:25Z</time></trkpt>
<trkpt lat="46.06778531335294" lon="7.250595185905695"><ele></ele><time>2013-8-1T15:33:28Z</time></trkpt>
<trkpt lat="46.06777559034526" lon="7.250620666891336"><ele></ele><time>2013-8-1T15:33:31Z</time></trkpt>
<trkpt lat="46.067763017490506" lon="7.250641202554107"><ele></ele><time>2013-8-1T15:33:34Z</time></trkpt>
<trkpt lat="46.06774901971221" lon="7.250663666054606"><ele></ele><time>2013-8-1T15:33:37Z</time></trkpt>
<trkpt lat="46.06773686595261" lon="7.2506872192025185"><ele></ele><time>2013-8-1T15:33:40Z</time></trkpt>
<trkpt lat="46.067696968093514" lon="7.250755028799176"><ele></ele><time>2013-8-1T15:33:43Z</time></trkpt>
<trkpt lat="46.06763896532357" lon="7.250873129814863"><ele></ele><time>2013-8-1T15:33:46Z</time></trkpt>
<trkpt lat="46.067627649754286" lon="7.250891150906682"><ele></ele><time>2013-8-1T15:33:49Z</time></trkpt>
<trkpt lat="46.067616418004036" lon="7.250912776216865"><ele></ele><time>2013-8-1T15:33:52Z</time></trkpt>
<trkpt lat="46.06760476715863" lon="7.250933730974793"><ele></ele><time>2013-8-1T15:33:55Z</time></trkpt>
<trkpt lat="46.06759169138968" lon="7.250954015180469"><ele></ele><time>2013-8-1T15:33:58Z</time></trkpt>
<trkpt lat="46.06751742772758" lon="7.251086700707674"><ele></ele><time>2013-8-1T15:34:1Z</time></trkpt>
<trkpt lat="46.06750552542508" lon="7.25110555998981"><ele></ele><time>2013-8-1T15:34:4Z</time></trkpt>
<trkpt lat="46.067494209855795" lon="7.251126766204834"><ele></ele><time>2013-8-1T15:34:7Z</time></trkpt>
<trkpt lat="46.06748230755329" lon="7.2511472180485725"><ele></ele><time>2013-8-1T15:34:10Z</time></trkpt>
<trkpt lat="46.06747602112591" lon="7.251162137836218"><ele></ele><time>2013-8-1T15:34:13Z</time></trkpt>
<trkpt lat="46.067419443279505" lon="7.251272611320019"><ele></ele><time>2013-8-1T15:34:16Z</time></trkpt>
<trkpt lat="46.067402344197035" lon="7.251323908567429"><ele></ele><time>2013-8-1T15:34:19Z</time></trkpt>
<trkpt lat="46.06739463284612" lon="7.251346874982119"><ele></ele><time>2013-8-1T15:34:22Z</time></trkpt>
<trkpt lat="46.0673850774765" lon="7.251371098682284"><ele></ele><time>2013-8-1T15:34:25Z</time></trkpt>
<trkpt lat="46.067374935373664" lon="7.251397166401148"><ele></ele><time>2013-8-1T15:34:28Z</time></trkpt>
<trkpt lat="46.06736646965146" lon="7.251421809196472"><ele></ele><time>2013-8-1T15:34:31Z</time></trkpt>
<trkpt lat="46.06733721680939" lon="7.251531109213829"><ele></ele><time>2013-8-1T15:34:34Z</time></trkpt>
<trkpt lat="46.06733822263777" lon="7.251549549400806"><ele></ele><time>2013-8-1T15:34:37Z</time></trkpt>
<trkpt lat="46.067332522943616" lon="7.2515754494816065"><ele></ele><time>2013-8-1T15:34:40Z</time></trkpt>
<trkpt lat="46.06732573360205" lon="7.251599757000804"><ele></ele><time>2013-8-1T15:34:43Z</time></trkpt>
<trkpt lat="46.067322213202715" lon="7.251622220501304"><ele></ele><time>2013-8-1T15:34:46Z</time></trkpt>
<trkpt lat="46.06731559149921" lon="7.251646444201469"><ele></ele><time>2013-8-1T15:34:49Z</time></trkpt>
<trkpt lat="46.06728005222976" lon="7.251820955425501"><ele></ele><time>2013-8-1T15:34:52Z</time></trkpt>
<trkpt lat="46.06726856902242" lon="7.2518764436244965"><ele></ele><time>2013-8-1T15:34:55Z</time></trkpt>
<trkpt lat="46.067265048623085" lon="7.251905025914311"><ele></ele><time>2013-8-1T15:34:58Z</time></trkpt>
<trkpt lat="46.06726043857634" lon="7.25193084217608"><ele></ele><time>2013-8-1T15:35:1Z</time></trkpt>
<trkpt lat="46.06725339777768" lon="7.251952383667231"><ele></ele><time>2013-8-1T15:35:4Z</time></trkpt>
<trkpt lat="46.067246021702886" lon="7.251980882138014"><ele></ele><time>2013-8-1T15:35:7Z</time></trkpt>
<trkpt lat="46.06724040582776" lon="7.2520107217133045"><ele></ele><time>2013-8-1T15:35:10Z</time></trkpt>
<trkpt lat="46.067210314795375" lon="7.2521568182855844"><ele></ele><time>2013-8-1T15:35:13Z</time></trkpt>
<trkpt lat="46.0672056209296" lon="7.25218296982348"><ele></ele><time>2013-8-1T15:35:16Z</time></trkpt>
<trkpt lat="46.06719489209354" lon="7.252209708094597"><ele></ele><time>2013-8-1T15:35:19Z</time></trkpt>
<trkpt lat="46.06718759983778" lon="7.252234434708953"><ele></ele><time>2013-8-1T15:35:22Z</time></trkpt>
<trkpt lat="46.0671813134104" lon="7.252260837703943"><ele></ele><time>2013-8-1T15:35:25Z</time></trkpt>
<trkpt lat="46.06714024208486" lon="7.25236720405519"><ele></ele><time>2013-8-1T15:35:28Z</time></trkpt>
<trkpt lat="46.06713429093361" lon="7.252393439412117"><ele></ele><time>2013-8-1T15:35:31Z</time></trkpt>
<trkpt lat="46.0671279206872" lon="7.252421686425805"><ele></ele><time>2013-8-1T15:35:34Z</time></trkpt>
<trkpt lat="46.067118952050805" lon="7.252445155754685"><ele></ele><time>2013-8-1T15:35:37Z</time></trkpt>
<trkpt lat="46.067111156880856" lon="7.252471977844834"><ele></ele><time>2013-8-1T15:35:40Z</time></trkpt>
<trkpt lat="46.067072013393044" lon="7.252558646723628"><ele></ele><time>2013-8-1T15:35:43Z</time></trkpt>
<trkpt lat="46.06703957542777" lon="7.252652356401086"><ele></ele><time>2013-8-1T15:35:46Z</time></trkpt>
<trkpt lat="46.06702633202076" lon="7.252680854871869"><ele></ele><time>2013-8-1T15:35:49Z</time></trkpt>
<trkpt lat="46.06700990349054" lon="7.252693846821785"><ele></ele><time>2013-8-1T15:35:52Z</time></trkpt>
<trkpt lat="46.066994816064835" lon="7.252715555950999"><ele></ele><time>2013-8-1T15:35:55Z</time></trkpt>
<trkpt lat="46.06698081828654" lon="7.252733409404755"><ele></ele><time>2013-8-1T15:35:58Z</time></trkpt>
<trkpt lat="46.06693547219038" lon="7.252812534570694"><ele></ele><time>2013-8-1T15:36:1Z</time></trkpt>
<trkpt lat="46.06692164205015" lon="7.252830388024449"><ele></ele><time>2013-8-1T15:36:4Z</time></trkpt>
<trkpt lat="46.06691342778504" lon="7.252851175144315"><ele></ele><time>2013-8-1T15:36:7Z</time></trkpt>
<trkpt lat="46.066903956234455" lon="7.2528821881860495"><ele></ele><time>2013-8-1T15:36:10Z</time></trkpt>
<trkpt lat="46.06689649634063" lon="7.252910016104579"><ele></ele><time>2013-8-1T15:36:13Z</time></trkpt>
<trkpt lat="46.06688090600073" lon="7.252971790730953"><ele></ele><time>2013-8-1T15:36:16Z</time></trkpt>
<trkpt lat="46.06685576029122" lon="7.253097016364336"><ele></ele><time>2013-8-1T15:36:19Z</time></trkpt>
<trkpt lat="46.06685190461576" lon="7.253125514835119"><ele></ele><time>2013-8-1T15:36:22Z</time></trkpt>
<trkpt lat="46.066851653158665" lon="7.25315191783011"><ele></ele><time>2013-8-1T15:36:25Z</time></trkpt>
<trkpt lat="46.066847294569016" lon="7.253180583938956"><ele></ele><time>2013-8-1T15:36:28Z</time></trkpt>
<trkpt lat="46.066842433065176" lon="7.253212854266167"><ele></ele><time>2013-8-1T15:36:31Z</time></trkpt>
<trkpt lat="46.06684067286551" lon="7.253301618620753"><ele></ele><time>2013-8-1T15:36:34Z</time></trkpt>
<trkpt lat="46.06684209778905" lon="7.253330955281854"><ele></ele><time>2013-8-1T15:36:37Z</time></trkpt>
<trkpt lat="46.066843355074525" lon="7.253359789028764"><ele></ele><time>2013-8-1T15:36:40Z</time></trkpt>
<trkpt lat="46.06684352271259" lon="7.253410499542952"><ele></ele><time>2013-8-1T15:36:43Z</time></trkpt>
<trkpt lat="46.066843857988715" lon="7.253442350775003"><ele></ele><time>2013-8-1T15:36:46Z</time></trkpt>
<trkpt lat="46.06684444472194" lon="7.253471100702882"><ele></ele><time>2013-8-1T15:36:49Z</time></trkpt>
<trkpt lat="46.066845869645476" lon="7.253495156764984"><ele></ele><time>2013-8-1T15:36:52Z</time></trkpt>
<trkpt lat="46.0668430197984" lon="7.253515273332596"><ele></ele><time>2013-8-1T15:36:55Z</time></trkpt>
<trkpt lat="46.066837990656495" lon="7.253551566973329"><ele></ele><time>2013-8-1T15:36:58Z</time></trkpt>
<trkpt lat="46.06683522462845" lon="7.25361367687583"><ele></ele><time>2013-8-1T15:37:1Z</time></trkpt>
<trkpt lat="46.06683195568621" lon="7.253639912232757"><ele></ele><time>2013-8-1T15:37:4Z</time></trkpt>
<trkpt lat="46.066813012585044" lon="7.253686347976327"><ele></ele><time>2013-8-1T15:37:7Z</time></trkpt>
<trkpt lat="46.066802283748984" lon="7.253717361018062"><ele></ele><time>2013-8-1T15:37:10Z</time></trkpt>
<trkpt lat="46.06679608114064" lon="7.253747116774321"><ele></ele><time>2013-8-1T15:37:13Z</time></trkpt>
<trkpt lat="46.066785687580705" lon="7.25376958027482"><ele></ele><time>2013-8-1T15:37:16Z</time></trkpt>
<trkpt lat="46.066771103069186" lon="7.253796653822064"><ele></ele><time>2013-8-1T15:37:19Z</time></trkpt>
<trkpt lat="46.0667307022959" lon="7.253876784816384"><ele></ele><time>2013-8-1T15:37:22Z</time></trkpt>
<trkpt lat="46.066707484424114" lon="7.253891117870808"><ele></ele><time>2013-8-1T15:37:25Z</time></trkpt>
<trkpt lat="46.06665509752929" lon="7.25396110676229"><ele></ele><time>2013-8-1T15:37:28Z</time></trkpt>
<trkpt lat="46.06663892045617" lon="7.2539918683469296"><ele></ele><time>2013-8-1T15:37:31Z</time></trkpt>
<trkpt lat="46.06662014499307" lon="7.25402120500803"><ele></ele><time>2013-8-1T15:37:34Z</time></trkpt>
<trkpt lat="46.06660237535834" lon="7.254048110917211"><ele></ele><time>2013-8-1T15:37:37Z</time></trkpt>
<trkpt lat="46.06659240089357" lon="7.254072837531567"><ele></ele><time>2013-8-1T15:37:40Z</time></trkpt>
<trkpt lat="46.06653104536235" lon="7.254189094528556"><ele></ele><time>2013-8-1T15:37:43Z</time></trkpt>
<trkpt lat="46.066518472507596" lon="7.254211977124214"><ele></ele><time>2013-8-1T15:37:46Z</time></trkpt>
<trkpt lat="46.06649852357805" lon="7.2542227897793055"><ele></ele><time>2013-8-1T15:37:49Z</time></trkpt>
<trkpt lat="46.066478407010436" lon="7.254236368462443"><ele></ele><time>2013-8-1T15:37:52Z</time></trkpt>
<trkpt lat="46.066461224108934" lon="7.254255982115865"><ele></ele><time>2013-8-1T15:37:55Z</time></trkpt>
<trkpt lat="46.06644404120743" lon="7.254272326827049"><ele></ele><time>2013-8-1T15:37:58Z</time></trkpt>
<trkpt lat="46.06642694212496" lon="7.254294119775295"><ele></ele><time>2013-8-1T15:38:1Z</time></trkpt>
<trkpt lat="46.06634320691228" lon="7.25440233014524"><ele></ele><time>2013-8-1T15:38:4Z</time></trkpt>
<trkpt lat="46.06632770039141" lon="7.254422027617693"><ele></ele><time>2013-8-1T15:38:7Z</time></trkpt>
<trkpt lat="46.06630959548056" lon="7.254441389814019"><ele></ele><time>2013-8-1T15:38:10Z</time></trkpt>
<trkpt lat="46.06629207730293" lon="7.254470307379961"><ele></ele><time>2013-8-1T15:38:13Z</time></trkpt>
<trkpt lat="46.06627858243883" lon="7.254493776708841"><ele></ele><time>2013-8-1T15:38:16Z</time></trkpt>
<trkpt lat="46.06618939898908" lon="7.25461975671351"><ele></ele><time>2013-8-1T15:38:19Z</time></trkpt>
<trkpt lat="46.06617523357272" lon="7.254642220214009"><ele></ele><time>2013-8-1T15:38:22Z</time></trkpt>
<trkpt lat="46.066157883033156" lon="7.254663929343224"><ele></ele><time>2013-8-1T15:38:25Z</time></trkpt>
<trkpt lat="46.066140281036496" lon="7.254680022597313"><ele></ele><time>2013-8-1T15:38:28Z</time></trkpt>
<trkpt lat="46.06606408953667" lon="7.254774151369929"><ele></ele><time>2013-8-1T15:38:31Z</time></trkpt>
<trkpt lat="46.06603257358074" lon="7.254800051450729"><ele></ele><time>2013-8-1T15:38:34Z</time></trkpt>
<trkpt lat="46.06601790525019" lon="7.254820838570595"><ele></ele><time>2013-8-1T15:38:37Z</time></trkpt>
<trkpt lat="46.066005332395434" lon="7.254845313727856"><ele></ele><time>2013-8-1T15:38:40Z</time></trkpt>
<trkpt lat="46.06598638929427" lon="7.254868196323514"><ele></ele><time>2013-8-1T15:38:43Z</time></trkpt>
<trkpt lat="46.065970715135336" lon="7.254892336204648"><ele></ele><time>2013-8-1T15:38:46Z</time></trkpt>
<trkpt lat="46.06587088666856" lon="7.255062572658062"><ele></ele><time>2013-8-1T15:38:49Z</time></trkpt>
<trkpt lat="46.065829899162054" lon="7.255144631490111"><ele></ele><time>2013-8-1T15:38:52Z</time></trkpt>
<trkpt lat="46.065817242488265" lon="7.255172710865736"><ele></ele><time>2013-8-1T15:38:55Z</time></trkpt>
<trkpt lat="46.06580441817641" lon="7.255193246528506"><ele></ele><time>2013-8-1T15:38:58Z</time></trkpt>
<trkpt lat="46.06579343788326" lon="7.255208920687437"><ele></ele><time>2013-8-1T15:39:1Z</time></trkpt>
<trkpt lat="46.06573577038944" lon="7.255337834358215"><ele></ele><time>2013-8-1T15:39:4Z</time></trkpt>
<trkpt lat="46.06571238487959" lon="7.255389299243689"><ele></ele><time>2013-8-1T15:39:7Z</time></trkpt>
<trkpt lat="46.06570006348193" lon="7.2554167080670595"><ele></ele><time>2013-8-1T15:39:10Z</time></trkpt>
<trkpt lat="46.065684808418155" lon="7.2554396744817495"><ele></ele><time>2013-8-1T15:39:13Z</time></trkpt>
<trkpt lat="46.065670140087605" lon="7.255462389439344"><ele></ele><time>2013-8-1T15:39:16Z</time></trkpt>
<trkpt lat="46.06565689668059" lon="7.2554900497198105"><ele></ele><time>2013-8-1T15:39:19Z</time></trkpt>
<trkpt lat="46.0656080301851" lon="7.25559800863266"><ele></ele><time>2013-8-1T15:39:22Z</time></trkpt>
<trkpt lat="46.06557274237275" lon="7.25567570887506"><ele></ele><time>2013-8-1T15:39:25Z</time></trkpt>
<trkpt lat="46.06555446982384" lon="7.255703788250685"><ele></ele><time>2013-8-1T15:39:28Z</time></trkpt>
<trkpt lat="46.06553812511265" lon="7.255727592855692"><ele></ele><time>2013-8-1T15:39:31Z</time></trkpt>
<trkpt lat="46.065525468438864" lon="7.2557509783655405"><ele></ele><time>2013-8-1T15:39:34Z</time></trkpt>
<trkpt lat="46.06551364995539" lon="7.255773525685072"><ele></ele><time>2013-8-1T15:39:37Z</time></trkpt>
<trkpt lat="46.06542765162885" lon="7.255931356921792"><ele></ele><time>2013-8-1T15:39:40Z</time></trkpt>
<trkpt lat="46.065418012440205" lon="7.255958681926131"><ele></ele><time>2013-8-1T15:39:43Z</time></trkpt>
<trkpt lat="46.06540761888027" lon="7.255994221195579"><ele></ele><time>2013-8-1T15:39:46Z</time></trkpt>
<trkpt lat="46.06539856642485" lon="7.256012996658683"><ele></ele><time>2013-8-1T15:39:49Z</time></trkpt>
<trkpt lat="46.0653854906559" lon="7.256040573120117"><ele></ele><time>2013-8-1T15:39:52Z</time></trkpt>
<trkpt lat="46.06537316925824" lon="7.256061863154173"><ele></ele><time>2013-8-1T15:39:55Z</time></trkpt>
<trkpt lat="46.0653577465564" lon="7.256084410473704"><ele></ele><time>2013-8-1T15:39:58Z</time></trkpt>
<trkpt lat="46.06530737131834" lon="7.256242241710424"><ele></ele><time>2013-8-1T15:40:1Z</time></trkpt>
<trkpt lat="46.065284572541714" lon="7.256337124854326"><ele></ele><time>2013-8-1T15:40:4Z</time></trkpt>
<trkpt lat="46.06527225114405" lon="7.256365371868014"><ele></ele><time>2013-8-1T15:40:7Z</time></trkpt>
<trkpt lat="46.065267473459244" lon="7.25640082731843"><ele></ele><time>2013-8-1T15:40:10Z</time></trkpt>
<trkpt lat="46.06526043266058" lon="7.256435276940465"><ele></ele><time>2013-8-1T15:40:13Z</time></trkpt>
<trkpt lat="46.0652559902519" lon="7.256471402943134"><ele></ele><time>2013-8-1T15:40:16Z</time></trkpt>
<trkpt lat="46.06521827168763" lon="7.256634766235948"><ele></ele><time>2013-8-1T15:40:19Z</time></trkpt>
<trkpt lat="46.06519304215908" lon="7.256723111495376"><ele></ele><time>2013-8-1T15:40:22Z</time></trkpt>
<trkpt lat="46.065187342464924" lon="7.256763596087694"><ele></ele><time>2013-8-1T15:40:25Z</time></trkpt>
<trkpt lat="46.06517979875207" lon="7.256800560280681"><ele></ele><time>2013-8-1T15:40:28Z</time></trkpt>
<trkpt lat="46.06517292559147" lon="7.256835764274001"><ele></ele><time>2013-8-1T15:40:31Z</time></trkpt>
<trkpt lat="46.065167309716344" lon="7.256867280229926"><ele></ele><time>2013-8-1T15:40:34Z</time></trkpt>
<trkpt lat="46.06510939076543" lon="7.257077665999532"><ele></ele><time>2013-8-1T15:40:37Z</time></trkpt>
<trkpt lat="46.065089190378785" lon="7.257133489474654"><ele></ele><time>2013-8-1T15:40:40Z</time></trkpt>
<trkpt lat="46.06507862918079" lon="7.257166262716055"><ele></ele><time>2013-8-1T15:40:43Z</time></trkpt>
<trkpt lat="46.06506739743054" lon="7.257196856662631"><ele></ele><time>2013-8-1T15:40:46Z</time></trkpt>
<trkpt lat="46.06505515985191" lon="7.257227282971144"><ele></ele><time>2013-8-1T15:40:49Z</time></trkpt>
<trkpt lat="46.065041748806834" lon="7.257259469479322"><ele></ele><time>2013-8-1T15:40:52Z</time></trkpt>
<trkpt lat="46.06501911766827" lon="7.257327362895012"><ele></ele><time>2013-8-1T15:40:55Z</time></trkpt>
<trkpt lat="46.06498257257044" lon="7.2574137803167105"><ele></ele><time>2013-8-1T15:40:58Z</time></trkpt>
<trkpt lat="46.0649642162025" lon="7.257435405626893"><ele></ele><time>2013-8-1T15:41:1Z</time></trkpt>
<trkpt lat="46.06494585983455" lon="7.257457617670298"><ele></ele><time>2013-8-1T15:41:4Z</time></trkpt>
<trkpt lat="46.064929934218526" lon="7.257484188303351"><ele></ele><time>2013-8-1T15:41:7Z</time></trkpt>
<trkpt lat="46.06491710990667" lon="7.257510256022215"><ele></ele><time>2013-8-1T15:41:10Z</time></trkpt>
<trkpt lat="46.06484712101519" lon="7.257616706192493"><ele></ele><time>2013-8-1T15:41:13Z</time></trkpt>
<trkpt lat="46.06482373550534" lon="7.2576655726879835"><ele></ele><time>2013-8-1T15:41:16Z</time></trkpt>
<trkpt lat="46.06481292285025" lon="7.2576970886439085"><ele></ele><time>2013-8-1T15:41:19Z</time></trkpt>
<trkpt lat="46.06480470858514" lon="7.2577303647994995"><ele></ele><time>2013-8-1T15:41:22Z</time></trkpt>
<trkpt lat="46.06479867361486" lon="7.2577601205557585"><ele></ele><time>2013-8-1T15:41:25Z</time></trkpt>
<trkpt lat="46.06479096226394" lon="7.257793648168445"><ele></ele><time>2013-8-1T15:41:28Z</time></trkpt>
<trkpt lat="46.06474930420518" lon="7.258015600964427"><ele></ele><time>2013-8-1T15:41:31Z</time></trkpt>
<trkpt lat="46.064746202901006" lon="7.258045691996813"><ele></ele><time>2013-8-1T15:41:34Z</time></trkpt>
<trkpt lat="46.064741341397166" lon="7.258076453581452"><ele></ele><time>2013-8-1T15:41:37Z</time></trkpt>
<trkpt lat="46.06473991647363" lon="7.258107550442219"><ele></ele><time>2013-8-1T15:41:40Z</time></trkpt>
<trkpt lat="46.06474159285426" lon="7.2581368032842875"><ele></ele><time>2013-8-1T15:41:43Z</time></trkpt>
<trkpt lat="46.06474217958748" lon="7.2581637930125"><ele></ele><time>2013-8-1T15:41:46Z</time></trkpt>
<trkpt lat="46.0647430177778" lon="7.258282229304314"><ele></ele><time>2013-8-1T15:41:49Z</time></trkpt>
<trkpt lat="46.06474896892905" lon="7.258377028629184"><ele></ele><time>2013-8-1T15:41:52Z</time></trkpt>
<trkpt lat="46.06474997475743" lon="7.258417345583439"><ele></ele><time>2013-8-1T15:41:55Z</time></trkpt>
<trkpt lat="46.06474737636745" lon="7.258451376110315"><ele></ele><time>2013-8-1T15:41:58Z</time></trkpt>
<trkpt lat="46.06474997475743" lon="7.258487334474921"><ele></ele><time>2013-8-1T15:42:1Z</time></trkpt>
<trkpt lat="46.064754920080304" lon="7.2585211135447025"><ele></ele><time>2013-8-1T15:42:4Z</time></trkpt>
<trkpt lat="46.06475433334708" lon="7.2585514560341835"><ele></ele><time>2013-8-1T15:42:7Z</time></trkpt>
<trkpt lat="46.064754500985146" lon="7.258622953668237"><ele></ele><time>2013-8-1T15:42:10Z</time></trkpt>
<trkpt lat="46.064745616167784" lon="7.258697636425495"><ele></ele><time>2013-8-1T15:42:13Z</time></trkpt>
<trkpt lat="46.06469515711069" lon="7.258901568129659"><ele></ele><time>2013-8-1T15:42:16Z</time></trkpt>
<trkpt lat="46.06468643993139" lon="7.25893484428525"><ele></ele><time>2013-8-1T15:42:19Z</time></trkpt>
<trkpt lat="46.064673783257604" lon="7.258969126269221"><ele></ele><time>2013-8-1T15:42:22Z</time></trkpt>
<trkpt lat="46.06466288678348" lon="7.259000977501273"><ele></ele><time>2013-8-1T15:42:25Z</time></trkpt>
<trkpt lat="46.06465115211904" lon="7.259038612246513"><ele></ele><time>2013-8-1T15:42:28Z</time></trkpt>
<trkpt lat="46.06463614851236" lon="7.25915377959609"><ele></ele><time>2013-8-1T15:42:31Z</time></trkpt>
<trkpt lat="46.06465651653707" lon="7.259232988581061"><ele></ele><time>2013-8-1T15:42:34Z</time></trkpt>
<trkpt lat="46.06469867751002" lon="7.259274059906602"><ele></ele><time>2013-8-1T15:42:37Z</time></trkpt>
<trkpt lat="46.064761793240905" lon="7.259240113198757"><ele></ele><time>2013-8-1T15:42:40Z</time></trkpt>
<trkpt lat="46.06477872468531" lon="7.259208094328642"><ele></ele><time>2013-8-1T15:42:43Z</time></trkpt>
<trkpt lat="46.06478744186461" lon="7.259173057973385"><ele></ele><time>2013-8-1T15:42:46Z</time></trkpt>
<trkpt lat="46.06479465030134" lon="7.2591339983046055"><ele></ele><time>2013-8-1T15:42:49Z</time></trkpt>
<trkpt lat="46.0648000985384" lon="7.259098626673222"><ele></ele><time>2013-8-1T15:42:52Z</time></trkpt>
<trkpt lat="46.06480521149933" lon="7.259074738249183"><ele></ele><time>2013-8-1T15:42:55Z</time></trkpt>
<trkpt lat="46.06480487622321" lon="7.2590376902371645"><ele></ele><time>2013-8-1T15:42:58Z</time></trkpt>
<trkpt lat="46.06483622454107" lon="7.258837698027492"><ele></ele><time>2013-8-1T15:43:1Z</time></trkpt>
<trkpt lat="46.064839996397495" lon="7.258804924786091"><ele></ele><time>2013-8-1T15:43:4Z</time></trkpt>
<trkpt lat="46.06484410353005" lon="7.258770307525992"><ele></ele><time>2013-8-1T15:43:7Z</time></trkpt>
<trkpt lat="46.06484854593873" lon="7.258736779913306"><ele></ele><time>2013-8-1T15:43:10Z</time></trkpt>
<trkpt lat="46.064854580909014" lon="7.258701743558049"><ele></ele><time>2013-8-1T15:43:13Z</time></trkpt>
<trkpt lat="46.064874613657594" lon="7.258569980040193"><ele></ele><time>2013-8-1T15:43:16Z</time></trkpt>
<trkpt lat="46.064882492646575" lon="7.258503343909979"><ele></ele><time>2013-8-1T15:43:19Z</time></trkpt>
<trkpt lat="46.06489447876811" lon="7.258442910388112"><ele></ele><time>2013-8-1T15:43:22Z</time></trkpt>
<trkpt lat="46.064904956147075" lon="7.258412400260568"><ele></ele><time>2013-8-1T15:43:25Z</time></trkpt>
<trkpt lat="46.064911745488644" lon="7.258383734151721"><ele></ele><time>2013-8-1T15:43:28Z</time></trkpt>
<trkpt lat="46.06492021121085" lon="7.2583535593003035"><ele></ele><time>2013-8-1T15:43:31Z</time></trkpt>
<trkpt lat="46.064926916733384" lon="7.25832212716341"><ele></ele><time>2013-8-1T15:43:34Z</time></trkpt>
<trkpt lat="46.064935214817524" lon="7.258288515731692"><ele></ele><time>2013-8-1T15:43:37Z</time></trkpt>
<trkpt lat="46.064938735216856" lon="7.2582607716321945"><ele></ele><time>2013-8-1T15:43:40Z</time></trkpt>
<trkpt lat="46.0649573430419" lon="7.258174689486623"><ele></ele><time>2013-8-1T15:43:43Z</time></trkpt>
<trkpt lat="46.064958684146404" lon="7.258148202672601"><ele></ele><time>2013-8-1T15:43:46Z</time></trkpt>
<trkpt lat="46.064963126555085" lon="7.2581202909350395"><ele></ele><time>2013-8-1T15:43:49Z</time></trkpt>
<trkpt lat="46.06497360393405" lon="7.258092798292637"><ele></ele><time>2013-8-1T15:43:52Z</time></trkpt>
<trkpt lat="46.06498198583722" lon="7.258065892383456"><ele></ele><time>2013-8-1T15:43:55Z</time></trkpt>
<trkpt lat="46.06499036774039" lon="7.258038567379117"><ele></ele><time>2013-8-1T15:43:58Z</time></trkpt>
<trkpt lat="46.065011993050575" lon="7.257985342293978"><ele></ele><time>2013-8-1T15:44:1Z</time></trkpt>
<trkpt lat="46.065039820969105" lon="7.2579091507941484"><ele></ele><time>2013-8-1T15:44:4Z</time></trkpt>
<trkpt lat="46.06505096890032" lon="7.257884172722697"><ele></ele><time>2013-8-1T15:44:7Z</time></trkpt>
<trkpt lat="46.0650519747287" lon="7.257853830233216"><ele></ele><time>2013-8-1T15:44:10Z</time></trkpt>
<trkpt lat="46.06505457311869" lon="7.257828935980797"><ele></ele><time>2013-8-1T15:44:13Z</time></trkpt>
<trkpt lat="46.06506153009832" lon="7.257802784442902"><ele></ele><time>2013-8-1T15:44:16Z</time></trkpt>
<trkpt lat="46.06506882235408" lon="7.25779389962554"><ele></ele><time>2013-8-1T15:44:19Z</time></trkpt>
<trkpt lat="46.06506882235408" lon="7.25779389962554"><ele></ele><time>2013-8-1T15:44:22Z</time></trkpt>
<trkpt lat="46.06506882235408" lon="7.25779389962554"><ele></ele><time>2013-8-1T15:44:25Z</time></trkpt>
<trkpt lat="46.06506882235408" lon="7.25779389962554"><ele></ele><time>2013-8-1T15:44:28Z</time></trkpt>
<trkpt lat="46.065106289461255" lon="7.2578019462525845"><ele></ele><time>2013-8-1T15:44:31Z</time></trkpt>
<trkpt lat="46.0651212092489" lon="7.257786188274622"><ele></ele><time>2013-8-1T15:44:34Z</time></trkpt>
<trkpt lat="46.065225983038545" lon="7.257600026205182"><ele></ele><time>2013-8-1T15:44:37Z</time></trkpt>
<trkpt lat="46.06531751342118" lon="7.257405482232571"><ele></ele><time>2013-8-1T15:44:40Z</time></trkpt>
<trkpt lat="46.065331595018506" lon="7.257382180541754"><ele></ele><time>2013-8-1T15:44:43Z</time></trkpt>
<trkpt lat="46.065345173701644" lon="7.257354101166129"><ele></ele><time>2013-8-1T15:44:46Z</time></trkpt>
<trkpt lat="46.06536059640348" lon="7.257330799475312"><ele></ele><time>2013-8-1T15:44:49Z</time></trkpt>
<trkpt lat="46.06537576764822" lon="7.257305486127734"><ele></ele><time>2013-8-1T15:44:52Z</time></trkpt>
<trkpt lat="46.06544751673937" lon="7.2571861278265715"><ele></ele><time>2013-8-1T15:44:55Z</time></trkpt>
<trkpt lat="46.065463023260236" lon="7.2571672685444355"><ele></ele><time>2013-8-1T15:44:58Z</time></trkpt>
<trkpt lat="46.065476685762405" lon="7.257151259109378"><ele></ele><time>2013-8-1T15:45:1Z</time></trkpt>
<trkpt lat="46.06549051590264" lon="7.257135417312384"><ele></ele><time>2013-8-1T15:45:4Z</time></trkpt>
<trkpt lat="46.065506022423506" lon="7.257118485867977"><ele></ele><time>2013-8-1T15:45:7Z</time></trkpt>
<trkpt lat="46.065520690754056" lon="7.257098453119397"><ele></ele><time>2013-8-1T15:45:10Z</time></trkpt>
<trkpt lat="46.065594367682934" lon="7.256989320740104"><ele></ele><time>2013-8-1T15:45:13Z</time></trkpt>
<trkpt lat="46.065607108175755" lon="7.256967443972826"><ele></ele><time>2013-8-1T15:45:16Z</time></trkpt>
<trkpt lat="46.065620351582766" lon="7.256945818662643"><ele></ele><time>2013-8-1T15:45:19Z</time></trkpt>
<trkpt lat="46.06563317589462" lon="7.256923438981175"><ele></ele><time>2013-8-1T15:45:22Z</time></trkpt>
<trkpt lat="46.065645664930344" lon="7.256903825327754"><ele></ele><time>2013-8-1T15:45:25Z</time></trkpt>
<trkpt lat="46.06570299714804" lon="7.256824700161815"><ele></ele><time>2013-8-1T15:45:28Z</time></trkpt>
<trkpt lat="46.06572613120079" lon="7.256783042103052"><ele></ele><time>2013-8-1T15:45:31Z</time></trkpt>
<trkpt lat="46.06573996134102" lon="7.256763009354472"><ele></ele><time>2013-8-1T15:45:34Z</time></trkpt>
<trkpt lat="46.065753204748034" lon="7.256741216406226"><ele></ele><time>2013-8-1T15:45:37Z</time></trkpt>
<trkpt lat="46.06576703488827" lon="7.2567218542099"><ele></ele><time>2013-8-1T15:45:40Z</time></trkpt>
<trkpt lat="46.06578195467591" lon="7.256704419851303"><ele></ele><time>2013-8-1T15:45:43Z</time></trkpt>
<trkpt lat="46.06579503044486" lon="7.256685476750135"><ele></ele><time>2013-8-1T15:45:46Z</time></trkpt>
<trkpt lat="46.065842974931" lon="7.256624875590205"><ele></ele><time>2013-8-1T15:45:49Z</time></trkpt>
<trkpt lat="46.06585890054703" lon="7.256602076813579"><ele></ele><time>2013-8-1T15:45:52Z</time></trkpt>
<trkpt lat="46.06590047478676" lon="7.256538039073348"><ele></ele><time>2013-8-1T15:45:55Z</time></trkpt>
<trkpt lat="46.065915478393435" lon="7.256520939990878"><ele></ele><time>2013-8-1T15:45:58Z</time></trkpt>
<trkpt lat="46.065928637981415" lon="7.256504595279694"><ele></ele><time>2013-8-1T15:46:1Z</time></trkpt>
<trkpt lat="46.06594121083617" lon="7.25648975931108"><ele></ele><time>2013-8-1T15:46:4Z</time></trkpt>
<trkpt lat="46.06604279950261" lon="7.256357576698065"><ele></ele><time>2013-8-1T15:46:7Z</time></trkpt>
<trkpt lat="46.06605646200478" lon="7.256337208673358"><ele></ele><time>2013-8-1T15:46:10Z</time></trkpt>
<trkpt lat="46.0660710465163" lon="7.256320780143142"><ele></ele><time>2013-8-1T15:46:13Z</time></trkpt>
<trkpt lat="46.066084960475564" lon="7.256303681060672"><ele></ele><time>2013-8-1T15:46:16Z</time></trkpt>
<trkpt lat="46.06609929352999" lon="7.256284905597568"><ele></ele><time>2013-8-1T15:46:19Z</time></trkpt>
<trkpt lat="46.06618428602815" lon="7.256158255040646"><ele></ele><time>2013-8-1T15:46:22Z</time></trkpt>
<trkpt lat="46.066198870539665" lon="7.256134701892734"><ele></ele><time>2013-8-1T15:46:25Z</time></trkpt>
<trkpt lat="46.0662127006799" lon="7.256112573668361"><ele></ele><time>2013-8-1T15:46:28Z</time></trkpt>
<trkpt lat="46.066225776448846" lon="7.256094217300415"><ele></ele><time>2013-8-1T15:46:31Z</time></trkpt>
<trkpt lat="46.066239355131984" lon="7.256076782941818"><ele></ele><time>2013-8-1T15:46:34Z</time></trkpt>
<trkpt lat="46.06625134125352" lon="7.256054487079382"><ele></ele><time>2013-8-1T15:46:37Z</time></trkpt>
<trkpt lat="46.06629082001746" lon="7.255987012758851"><ele></ele><time>2013-8-1T15:46:40Z</time></trkpt>
<trkpt lat="46.06631680391729" lon="7.255946276709437"><ele></ele><time>2013-8-1T15:46:43Z</time></trkpt>
<trkpt lat="46.066328873857856" lon="7.255925657227635"><ele></ele><time>2013-8-1T15:46:46Z</time></trkpt>
<trkpt lat="46.06634144671261" lon="7.25590436719358"><ele></ele><time>2013-8-1T15:46:49Z</time></trkpt>
<trkpt lat="46.06635301373899" lon="7.255884585902095"><ele></ele><time>2013-8-1T15:46:52Z</time></trkpt>
<trkpt lat="46.066363994032145" lon="7.25586480461061"><ele></ele><time>2013-8-1T15:46:55Z</time></trkpt>
<trkpt lat="46.06642048805952" lon="7.255789451301098"><ele></ele><time>2013-8-1T15:46:58Z</time></trkpt>
<trkpt lat="46.066449992358685" lon="7.255751900374889"><ele></ele><time>2013-8-1T15:47:1Z</time></trkpt>
<trkpt lat="46.066464157775044" lon="7.255736896768212"><ele></ele><time>2013-8-1T15:47:4Z</time></trkpt>
<trkpt lat="46.0664767306298" lon="7.255716864019632"><ele></ele><time>2013-8-1T15:47:7Z</time></trkpt>
<trkpt lat="46.06648896820843" lon="7.255693729966879"><ele></ele><time>2013-8-1T15:47:10Z</time></trkpt>
<trkpt lat="46.066503217443824" lon="7.255674032494426"><ele></ele><time>2013-8-1T15:47:13Z</time></trkpt>
<trkpt lat="46.066534481942654" lon="7.255638996139169"><ele></ele><time>2013-8-1T15:47:16Z</time></trkpt>
<trkpt lat="46.06659919023514" lon="7.255570851266384"><ele></ele><time>2013-8-1T15:47:19Z</time></trkpt>
<trkpt lat="46.066619139164686" lon="7.255553333088756"><ele></ele><time>2013-8-1T15:47:22Z</time></trkpt>
<trkpt lat="46.0666374117136" lon="7.255539083853364"><ele></ele><time>2013-8-1T15:47:25Z</time></trkpt>
<trkpt lat="46.066653756424785" lon="7.2555244993418455"><ele></ele><time>2013-8-1T15:47:28Z</time></trkpt>
<trkpt lat="46.06669943779707" lon="7.255487451329827"><ele></ele><time>2013-8-1T15:47:31Z</time></trkpt>
<trkpt lat="46.06677018105984" lon="7.255432466045022"><ele></ele><time>2013-8-1T15:47:34Z</time></trkpt>
<trkpt lat="46.06678920798004" lon="7.255418132990599"><ele></ele><time>2013-8-1T15:47:37Z</time></trkpt>
<trkpt lat="46.066808234900236" lon="7.255407152697444"><ele></ele><time>2013-8-1T15:47:40Z</time></trkpt>
<trkpt lat="46.06682516634464" lon="7.2553966753184795"><ele></ele><time>2013-8-1T15:47:43Z</time></trkpt>
<trkpt lat="46.06684318743646" lon="7.255383096635342"><ele></ele><time>2013-8-1T15:47:46Z</time></trkpt>
<trkpt lat="46.06686154380441" lon="7.255367171019316"><ele></ele><time>2013-8-1T15:47:49Z</time></trkpt>
<trkpt lat="46.06689934618771" lon="7.255337331444025"><ele></ele><time>2013-8-1T15:47:52Z</time></trkpt>
<trkpt lat="46.066983165219426" lon="7.255282681435347"><ele></ele><time>2013-8-1T15:47:55Z</time></trkpt>
<trkpt lat="46.066998252645135" lon="7.255275808274746"><ele></ele><time>2013-8-1T15:47:58Z</time></trkpt>
<trkpt lat="46.067017363384366" lon="7.255265414714813"><ele></ele><time>2013-8-1T15:48:1Z</time></trkpt>
<trkpt lat="46.067034378647804" lon="7.25525694899261"><ele></ele><time>2013-8-1T15:48:4Z</time></trkpt>
<trkpt lat="46.067052064463496" lon="7.255255272611976"><ele></ele><time>2013-8-1T15:48:7Z</time></trkpt>
<trkpt lat="46.06709313578904" lon="7.255255356431007"><ele></ele><time>2013-8-1T15:48:10Z</time></trkpt>
<trkpt lat="46.0671107377857" lon="7.255247561261058"><ele></ele><time>2013-8-1T15:48:13Z</time></trkpt>
<trkpt lat="46.067131692543626" lon="7.255233563482761"><ele></ele><time>2013-8-1T15:48:16Z</time></trkpt>
<trkpt lat="46.06715180911124" lon="7.255223421379924"><ele></ele><time>2013-8-1T15:48:19Z</time></trkpt>
<trkpt lat="46.067174188792706" lon="7.255209004506469"><ele></ele><time>2013-8-1T15:48:22Z</time></trkpt>
<trkpt lat="46.06719304807484" lon="7.255202131345868"><ele></ele><time>2013-8-1T15:48:25Z</time></trkpt>
<trkpt lat="46.06721291318536" lon="7.255198275670409"><ele></ele><time>2013-8-1T15:48:28Z</time></trkpt>
<trkpt lat="46.067328080534935" lon="7.255126358941197"><ele></ele><time>2013-8-1T15:48:31Z</time></trkpt>
<trkpt lat="46.067347694188356" lon="7.2551116067916155"><ele></ele><time>2013-8-1T15:48:34Z</time></trkpt>
<trkpt lat="46.06736538000405" lon="7.2550995368510485"><ele></ele><time>2013-8-1T15:48:37Z</time></trkpt>
<trkpt lat="46.06738398782909" lon="7.255086963996291"><ele></ele><time>2013-8-1T15:48:40Z</time></trkpt>
<trkpt lat="46.067400919273496" lon="7.255076235160232"><ele></ele><time>2013-8-1T15:48:43Z</time></trkpt>
<trkpt lat="46.06750519014895" lon="7.254978753626347"><ele></ele><time>2013-8-1T15:48:46Z</time></trkpt>
<trkpt lat="46.06752321124077" lon="7.254957631230354"><ele></ele><time>2013-8-1T15:48:49Z</time></trkpt>
<trkpt lat="46.067538131028414" lon="7.254938771948218"><ele></ele><time>2013-8-1T15:48:52Z</time></trkpt>
<trkpt lat="46.06755254790187" lon="7.254920583218336"><ele></ele><time>2013-8-1T15:48:55Z</time></trkpt>
<trkpt lat="46.06762697920203" lon="7.25484455935657"><ele></ele><time>2013-8-1T15:48:58Z</time></trkpt>
<trkpt lat="46.06764307245612" lon="7.254826789721847"><ele></ele><time>2013-8-1T15:49:1Z</time></trkpt>
<trkpt lat="46.06766017153859" lon="7.2548088524490595"><ele></ele><time>2013-8-1T15:49:4Z</time></trkpt>
<trkpt lat="46.06767760589719" lon="7.254789741709828"><ele></ele><time>2013-8-1T15:49:7Z</time></trkpt>
<trkpt lat="46.06769344769418" lon="7.254772810265422"><ele></ele><time>2013-8-1T15:49:10Z</time></trkpt>
<trkpt lat="46.0677098762244" lon="7.254756046459079"><ele></ele><time>2013-8-1T15:49:13Z</time></trkpt>
<trkpt lat="46.067762514576316" lon="7.254708521068096"><ele></ele><time>2013-8-1T15:49:16Z</time></trkpt>
<trkpt lat="46.067814230918884" lon="7.254648171365261"><ele></ele><time>2013-8-1T15:49:19Z</time></trkpt>
<trkpt lat="46.06782915070653" lon="7.254625791683793"><ele></ele><time>2013-8-1T15:49:22Z</time></trkpt>
<trkpt lat="46.06784574687481" lon="7.254604836925864"><ele></ele><time>2013-8-1T15:49:25Z</time></trkpt>
<trkpt lat="46.06786058284342" lon="7.254583295434713"><ele></ele><time>2013-8-1T15:49:28Z</time></trkpt>
<trkpt lat="46.06787256896496" lon="7.2545617539435625"><ele></ele><time>2013-8-1T15:49:31Z</time></trkpt>
<trkpt lat="46.06788480654359" lon="7.254541553556919"><ele></ele><time>2013-8-1T15:49:34Z</time></trkpt>
<trkpt lat="46.067926716059446" lon="7.254425967112184"><ele></ele><time>2013-8-1T15:49:37Z</time></trkpt>
<trkpt lat="46.06793761253357" lon="7.254394870251417"><ele></ele><time>2013-8-1T15:49:40Z</time></trkpt>
<trkpt lat="46.067948173731565" lon="7.25436226464808"><ele></ele><time>2013-8-1T15:49:43Z</time></trkpt>
<trkpt lat="46.067957393825054" lon="7.254330832511187"><ele></ele><time>2013-8-1T15:49:46Z</time></trkpt>
<trkpt lat="46.06796560809016" lon="7.254300992935896"><ele></ele><time>2013-8-1T15:49:49Z</time></trkpt>
<trkpt lat="46.06799377128482" lon="7.2541626915335655"><ele></ele><time>2013-8-1T15:49:52Z</time></trkpt>
<trkpt lat="46.06800114735961" lon="7.254134779796004"><ele></ele><time>2013-8-1T15:49:55Z</time></trkpt>
<trkpt lat="46.068007266148925" lon="7.25410083308816"><ele></ele><time>2013-8-1T15:49:58Z</time></trkpt>
<trkpt lat="46.0680135525763" lon="7.254066718742251"><ele></ele><time>2013-8-1T15:50:1Z</time></trkpt>
<trkpt lat="46.068020425736904" lon="7.254035286605358"><ele></ele><time>2013-8-1T15:50:4Z</time></trkpt>
<trkpt lat="46.068028220906854" lon="7.254003183916211"><ele></ele><time>2013-8-1T15:50:7Z</time></trkpt>
<trkpt lat="46.068037105724216" lon="7.253974936902523"><ele></ele><time>2013-8-1T15:50:10Z</time></trkpt>
<trkpt lat="46.068043895065784" lon="7.2539488691836596"><ele></ele><time>2013-8-1T15:50:13Z</time></trkpt>
<trkpt lat="46.06805940158665" lon="7.25388047285378"><ele></ele><time>2013-8-1T15:50:16Z</time></trkpt>
<trkpt lat="46.06806811876595" lon="7.253855662420392"><ele></ele><time>2013-8-1T15:50:19Z</time></trkpt>
<trkpt lat="46.068080607801676" lon="7.253838395699859"><ele></ele><time>2013-8-1T15:50:22Z</time></trkpt>
<trkpt lat="46.068093767389655" lon="7.253821045160294"><ele></ele><time>2013-8-1T15:50:25Z</time></trkpt>
<trkpt lat="46.0681070946157" lon="7.253800006583333"><ele></ele><time>2013-8-1T15:50:28Z</time></trkpt>
<trkpt lat="46.06813358142972" lon="7.253751894459128"><ele></ele><time>2013-8-1T15:50:31Z</time></trkpt>
<trkpt lat="46.068180184811354" lon="7.253680564463139"><ele></ele><time>2013-8-1T15:50:34Z</time></trkpt>
<trkpt lat="46.06819661334157" lon="7.253661034628749"><ele></ele><time>2013-8-1T15:50:37Z</time></trkpt>
<trkpt lat="46.0682141315192" lon="7.2536420077085495"><ele></ele><time>2013-8-1T15:50:40Z</time></trkpt>
<trkpt lat="46.0682297218591" lon="7.253621639683843"><ele></ele><time>2013-8-1T15:50:43Z</time></trkpt>
<trkpt lat="46.06824254617095" lon="7.25360051728785"><ele></ele><time>2013-8-1T15:50:46Z</time></trkpt>
<trkpt lat="46.068278923630714" lon="7.253554500639439"><ele></ele><time>2013-8-1T15:50:49Z</time></trkpt>
<trkpt lat="46.068333741277456" lon="7.253473363816738"><ele></ele><time>2013-8-1T15:50:52Z</time></trkpt>
<trkpt lat="46.06834698468447" lon="7.253451738506556"><ele></ele><time>2013-8-1T15:50:55Z</time></trkpt>
<trkpt lat="46.06836165301502" lon="7.253430280834436"><ele></ele><time>2013-8-1T15:50:58Z</time></trkpt>
<trkpt lat="46.06837933883071" lon="7.25340505130589"><ele></ele><time>2013-8-1T15:51:1Z</time></trkpt>
<trkpt lat="46.068397192284465" lon="7.253382168710232"><ele></ele><time>2013-8-1T15:51:4Z</time></trkpt>
<trkpt lat="46.06845209375024" lon="7.253308827057481"><ele></ele><time>2013-8-1T15:51:7Z</time></trkpt>
<trkpt lat="46.06846818700433" lon="7.253289297223091"><ele></ele><time>2013-8-1T15:51:10Z</time></trkpt>
<trkpt lat="46.06848193332553" lon="7.253269515931606"><ele></ele><time>2013-8-1T15:51:13Z</time></trkpt>
<trkpt lat="46.06849651783705" lon="7.253250069916248"><ele></ele><time>2013-8-1T15:51:16Z</time></trkpt>
<trkpt lat="46.06851244345307" lon="7.253228696063161"><ele></ele><time>2013-8-1T15:51:19Z</time></trkpt>
<trkpt lat="46.06852979399264" lon="7.2532096691429615"><ele></ele><time>2013-8-1T15:51:22Z</time></trkpt>
<trkpt lat="46.068546725437045" lon="7.253191731870174"><ele></ele><time>2013-8-1T15:51:25Z</time></trkpt>
<trkpt lat="46.06862015090883" lon="7.253095088526607"><ele></ele><time>2013-8-1T15:51:28Z</time></trkpt>
<trkpt lat="46.068636579439044" lon="7.253079582005739"><ele></ele><time>2013-8-1T15:51:31Z</time></trkpt>
<trkpt lat="46.06865208595991" lon="7.2530656680464745"><ele></ele><time>2013-8-1T15:51:34Z</time></trkpt>
<trkpt lat="46.06866960413754" lon="7.25305275991559"><ele></ele><time>2013-8-1T15:51:37Z</time></trkpt>
<trkpt lat="46.068687457591295" lon="7.2530406061559916"><ele></ele><time>2013-8-1T15:51:40Z</time></trkpt>
<trkpt lat="46.06880262494087" lon="7.253005318343639"><ele></ele><time>2013-8-1T15:51:43Z</time></trkpt>
<trkpt lat="46.068820897489786" lon="7.253004647791386"><ele></ele><time>2013-8-1T15:51:46Z</time></trkpt>
<trkpt lat="46.06884000822902" lon="7.253003725782037"><ele></ele><time>2013-8-1T15:51:49Z</time></trkpt>
<trkpt lat="46.06886029243469" lon="7.253005234524608"><ele></ele><time>2013-8-1T15:51:52Z</time></trkpt>
<trkpt lat="46.06898032128811" lon="7.253028703853488"><ele></ele><time>2013-8-1T15:51:55Z</time></trkpt>
<trkpt lat="46.06899607926607" lon="7.253031134605408"><ele></ele><time>2013-8-1T15:51:58Z</time></trkpt>
<trkpt lat="46.06901393271983" lon="7.253028871491551"><ele></ele><time>2013-8-1T15:52:1Z</time></trkpt>
<trkpt lat="46.06903304345906" lon="7.253028284758329"><ele></ele><time>2013-8-1T15:52:4Z</time></trkpt>
<trkpt lat="46.06905424967408" lon="7.253021998330951"><ele></ele><time>2013-8-1T15:52:7Z</time></trkpt>
<trkpt lat="46.06907553970814" lon="7.2530129458755255"><ele></ele><time>2013-8-1T15:52:10Z</time></trkpt>
<trkpt lat="46.069093476980925" lon="7.25300339050591"><ele></ele><time>2013-8-1T15:52:13Z</time></trkpt>
<trkpt lat="46.06918567791581" lon="7.2529728803783655"><ele></ele><time>2013-8-1T15:52:16Z</time></trkpt>
<trkpt lat="46.069201435893774" lon="7.252965588122606"><ele></ele><time>2013-8-1T15:52:19Z</time></trkpt>
<trkpt lat="46.06922130100429" lon="7.252953266724944"><ele></ele><time>2013-8-1T15:52:22Z</time></trkpt>
<trkpt lat="46.069243010133505" lon="7.252935916185379"><ele></ele><time>2013-8-1T15:52:25Z</time></trkpt>
<trkpt lat="46.0692641325295" lon="7.252918481826782"><ele></ele><time>2013-8-1T15:52:28Z</time></trkpt>
<trkpt lat="46.06928181834519" lon="7.252903310582042"><ele></ele><time>2013-8-1T15:52:31Z</time></trkpt>
<trkpt lat="46.06932976283133" lon="7.252855869010091"><ele></ele><time>2013-8-1T15:52:34Z</time></trkpt>
<trkpt lat="46.06934577226639" lon="7.252840111032128"><ele></ele><time>2013-8-1T15:52:37Z</time></trkpt>
<trkpt lat="46.06936144642532" lon="7.252822341397405"><ele></ele><time>2013-8-1T15:52:40Z</time></trkpt>
<trkpt lat="46.069375947117805" lon="7.2528014704585075"><ele></ele><time>2013-8-1T15:52:43Z</time></trkpt>
<trkpt lat="46.069391034543514" lon="7.252779761329293"><ele></ele><time>2013-8-1T15:52:46Z</time></trkpt>
<trkpt lat="46.06940637342632" lon="7.252756292000413"><ele></ele><time>2013-8-1T15:52:49Z</time></trkpt>
<trkpt lat="46.069423304870725" lon="7.2527325712144375"><ele></ele><time>2013-8-1T15:52:52Z</time></trkpt>
<trkpt lat="46.06945322826505" lon="7.252684542909265"><ele></ele><time>2013-8-1T15:52:55Z</time></trkpt>
<trkpt lat="46.069483486935496" lon="7.252643974497914"><ele></ele><time>2013-8-1T15:52:58Z</time></trkpt>
<trkpt lat="46.0694988258183" lon="7.252624444663525"><ele></ele><time>2013-8-1T15:53:1Z</time></trkpt>
<trkpt lat="46.069514751434326" lon="7.252610446885228"><ele></ele><time>2013-8-1T15:53:4Z</time></trkpt>
<trkpt lat="46.06953050941229" lon="7.252598712220788"><ele></ele><time>2013-8-1T15:53:7Z</time></trkpt>
<trkpt lat="46.069545932114124" lon="7.252584965899587"><ele></ele><time>2013-8-1T15:53:10Z</time></trkpt>
<trkpt lat="46.06957753188908" lon="7.252545403316617"><ele></ele><time>2013-8-1T15:53:13Z</time></trkpt>
<trkpt lat="46.069653974846005" lon="7.252461081370711"><ele></ele><time>2013-8-1T15:53:16Z</time></trkpt>
<trkpt lat="46.06966579332948" lon="7.2524459939450026"><ele></ele><time>2013-8-1T15:53:19Z</time></trkpt>
<trkpt lat="46.069675935432315" lon="7.252435348927975"><ele></ele><time>2013-8-1T15:53:22Z</time></trkpt>
<trkpt lat="46.06968741863966" lon="7.252419255673885"><ele></ele><time>2013-8-1T15:53:25Z</time></trkpt>
<trkpt lat="46.06977006420493" lon="7.252304591238499"><ele></ele><time>2013-8-1T15:53:28Z</time></trkpt>
<trkpt lat="46.0697855707258" lon="7.252284726127982"><ele></ele><time>2013-8-1T15:53:31Z</time></trkpt>
<trkpt lat="46.06979680247605" lon="7.252261256799102"><ele></ele><time>2013-8-1T15:53:34Z</time></trkpt>
<trkpt lat="46.06981004588306" lon="7.252241894602776"><ele></ele><time>2013-8-1T15:53:37Z</time></trkpt>
<trkpt lat="46.06982387602329" lon="7.2522216103971004"><ele></ele><time>2013-8-1T15:53:40Z</time></trkpt>
<trkpt lat="46.06983728706837" lon="7.252205349504948"><ele></ele><time>2013-8-1T15:53:43Z</time></trkpt>
<trkpt lat="46.069850446656346" lon="7.252189004793763"><ele></ele><time>2013-8-1T15:53:46Z</time></trkpt>
<trkpt lat="46.06986243277788" lon="7.2521729953587055"><ele></ele><time>2013-8-1T15:53:49Z</time></trkpt>
<trkpt lat="46.0698751732707" lon="7.25214977748692"><ele></ele><time>2013-8-1T15:53:52Z</time></trkpt>
<trkpt lat="46.06993401423097" lon="7.252069311216474"><ele></ele><time>2013-8-1T15:53:55Z</time></trkpt>
<trkpt lat="46.069946670904756" lon="7.252060007303953"><ele></ele><time>2013-8-1T15:53:58Z</time></trkpt>
<trkpt lat="46.06995731592178" lon="7.252052631229162"><ele></ele><time>2013-8-1T15:54:1Z</time></trkpt>
<trkpt lat="46.069965194910765" lon="7.252044081687927"><ele></ele><time>2013-8-1T15:54:4Z</time></trkpt>
<trkpt lat="46.069972570985556" lon="7.2520325146615505"><ele></ele><time>2013-8-1T15:54:7Z</time></trkpt>
<trkpt lat="46.069997968152165" lon="7.252006949856877"><ele></ele><time>2013-8-1T15:54:10Z</time></trkpt>
<trkpt lat="46.07006711885333" lon="7.251950120553374"><ele></ele><time>2013-8-1T15:54:13Z</time></trkpt>
<trkpt lat="46.070084385573864" lon="7.25193721242249"><ele></ele><time>2013-8-1T15:54:16Z</time></trkpt>
<trkpt lat="46.07010081410408" lon="7.251920364797115"><ele></ele><time>2013-8-1T15:54:19Z</time></trkpt>
<trkpt lat="46.07011841610074" lon="7.251902846619487"><ele></ele><time>2013-8-1T15:54:22Z</time></trkpt>
<trkpt lat="46.07013341970742" lon="7.251884406432509"><ele></ele><time>2013-8-1T15:54:25Z</time></trkpt>
<trkpt lat="46.07021070085466" lon="7.251774603500962"><ele></ele><time>2013-8-1T15:54:28Z</time></trkpt>
<trkpt lat="46.070224614813924" lon="7.2517509665340185"><ele></ele><time>2013-8-1T15:54:31Z</time></trkpt>
<trkpt lat="46.070239366963506" lon="7.251725988462567"><ele></ele><time>2013-8-1T15:54:34Z</time></trkpt>
<trkpt lat="46.07024791650474" lon="7.251704698428512"><ele></ele><time>2013-8-1T15:54:37Z</time></trkpt>
<trkpt lat="46.070259818807244" lon="7.2516855876892805"><ele></ele><time>2013-8-1T15:54:40Z</time></trkpt>
<trkpt lat="46.07030214741826" lon="7.2515943087637424"><ele></ele><time>2013-8-1T15:54:43Z</time></trkpt>
<trkpt lat="46.07034028507769" lon="7.251512752845883"><ele></ele><time>2013-8-1T15:54:46Z</time></trkpt>
<trkpt lat="46.07035260647535" lon="7.2514803148806095"><ele></ele><time>2013-8-1T15:54:49Z</time></trkpt>
<trkpt lat="46.07036207802594" lon="7.25145298987627"><ele></ele><time>2013-8-1T15:54:52Z</time></trkpt>
<trkpt lat="46.07037674635649" lon="7.25142021663487"><ele></ele><time>2013-8-1T15:54:55Z</time></trkpt>
<trkpt lat="46.07038529589772" lon="7.251389287412167"><ele></ele><time>2013-8-1T15:54:58Z</time></trkpt>
<trkpt lat="46.07045101001859" lon="7.2512320429086685"><ele></ele><time>2013-8-1T15:55:1Z</time></trkpt>
<trkpt lat="46.07045846991241" lon="7.251213770359755"><ele></ele><time>2013-8-1T15:55:4Z</time></trkpt>
<trkpt lat="46.070474395528436" lon="7.251190049573779"><ele></ele><time>2013-8-1T15:55:7Z</time></trkpt>
<trkpt lat="46.07048436999321" lon="7.251169178634882"><ele></ele><time>2013-8-1T15:55:10Z</time></trkpt>
<trkpt lat="46.07049451209605" lon="7.251142440363765"><ele></ele><time>2013-8-1T15:55:13Z</time></trkpt>
<trkpt lat="46.07049962505698" lon="7.251114696264267"><ele></ele><time>2013-8-1T15:55:16Z</time></trkpt>
<trkpt lat="46.070510940626264" lon="7.251091478392482"><ele></ele><time>2013-8-1T15:55:19Z</time></trkpt>
<trkpt lat="46.07055142521858" lon="7.250997601076961"><ele></ele><time>2013-8-1T15:55:22Z</time></trkpt>
<trkpt lat="46.070562740787864" lon="7.250973880290985"><ele></ele><time>2013-8-1T15:55:25Z</time></trkpt>
<trkpt lat="46.070578414946795" lon="7.2509475611150265"><ele></ele><time>2013-8-1T15:55:28Z</time></trkpt>
<trkpt lat="46.07058755122125" lon="7.2509189788252115"><ele></ele><time>2013-8-1T15:55:31Z</time></trkpt>
<trkpt lat="46.070598447695374" lon="7.250892156735063"><ele></ele><time>2013-8-1T15:55:34Z</time></trkpt>
<trkpt lat="46.07061135582626" lon="7.2508656699210405"><ele></ele><time>2013-8-1T15:55:37Z</time></trkpt>
<trkpt lat="46.07064018957317" lon="7.250813450664282"><ele></ele><time>2013-8-1T15:55:40Z</time></trkpt>
<trkpt lat="46.07067849487066" lon="7.250698618590832"><ele></ele><time>2013-8-1T15:55:43Z</time></trkpt>
<trkpt lat="46.0706867929548" lon="7.250672383233905"><ele></ele><time>2013-8-1T15:55:46Z</time></trkpt>
<trkpt lat="46.07069701887667" lon="7.250648159533739"><ele></ele><time>2013-8-1T15:55:49Z</time></trkpt>
<trkpt lat="46.07070908881724" lon="7.250628378242254"><ele></ele><time>2013-8-1T15:55:52Z</time></trkpt>
<trkpt lat="46.07072040438652" lon="7.250607004389167"><ele></ele><time>2013-8-1T15:55:55Z</time></trkpt>
<trkpt lat="46.07078494504094" lon="7.25046006962657"><ele></ele><time>2013-8-1T15:55:58Z</time></trkpt>
<trkpt lat="46.07079709880054" lon="7.25044053979218"><ele></ele><time>2013-8-1T15:56:1Z</time></trkpt>
<trkpt lat="46.07080925256014" lon="7.25041807629168"><ele></ele><time>2013-8-1T15:56:4Z</time></trkpt>
<trkpt lat="46.070823753252625" lon="7.25039703771472"><ele></ele><time>2013-8-1T15:56:7Z</time></trkpt>
<trkpt lat="46.07084009796381" lon="7.250377424061298"><ele></ele><time>2013-8-1T15:56:10Z</time></trkpt>
<trkpt lat="46.07085577212274" lon="7.250357894226909"><ele></ele><time>2013-8-1T15:56:13Z</time></trkpt>
<trkpt lat="46.07087270356715" lon="7.250341298058629"><ele></ele><time>2013-8-1T15:56:16Z</time></trkpt>
<trkpt lat="46.07096373103559" lon="7.250277092680335"><ele></ele><time>2013-8-1T15:56:19Z</time></trkpt>
<trkpt lat="46.070982087403536" lon="7.250270722433925"><ele></ele><time>2013-8-1T15:56:22Z</time></trkpt>
<trkpt lat="46.07099658809602" lon="7.250264016911387"><ele></ele><time>2013-8-1T15:56:25Z</time></trkpt>
<trkpt lat="46.07100530527532" lon="7.250259406864643"><ele></ele><time>2013-8-1T15:56:28Z</time></trkpt>
<trkpt lat="46.07107076793909" lon="7.250252198427916"><ele></ele><time>2013-8-1T15:56:31Z</time></trkpt>
<trkpt lat="46.07111628167331" lon="7.250240379944444"><ele></ele><time>2013-8-1T15:56:34Z</time></trkpt>
<trkpt lat="46.0711358115077" lon="7.250234680250287"><ele></ele><time>2013-8-1T15:56:37Z</time></trkpt>
<trkpt lat="46.071152575314045" lon="7.250231746584177"><ele></ele><time>2013-8-1T15:56:40Z</time></trkpt>
<trkpt lat="46.07116975821555" lon="7.250226968899369"><ele></ele><time>2013-8-1T15:56:43Z</time></trkpt>
<trkpt lat="46.071189455688" lon="7.250216491520405"><ele></ele><time>2013-8-1T15:56:46Z</time></trkpt>
<trkpt lat="46.071213679388165" lon="7.250204756855965"><ele></ele><time>2013-8-1T15:56:49Z</time></trkpt>
<trkpt lat="46.07133714482188" lon="7.250144155696034"><ele></ele><time>2013-8-1T15:56:52Z</time></trkpt>
<trkpt lat="46.07135256752372" lon="7.250124039128423"><ele></ele><time>2013-8-1T15:56:55Z</time></trkpt>
<trkpt lat="46.07136623002589" lon="7.250108113512397"><ele></ele><time>2013-8-1T15:56:58Z</time></trkpt>
<trkpt lat="46.07138156890869" lon="7.2500990610569715"><ele></ele><time>2013-8-1T15:57:1Z</time></trkpt>
<trkpt lat="46.07145675458014" lon="7.250043572857976"><ele></ele><time>2013-8-1T15:57:4Z</time></trkpt>
<trkpt lat="46.07149790972471" lon="7.250021444633603"><ele></ele><time>2013-8-1T15:57:7Z</time></trkpt>
<trkpt lat="46.071517607197165" lon="7.250010296702385"><ele></ele><time>2013-8-1T15:57:10Z</time></trkpt>
<trkpt lat="46.07153403572738" lon="7.249993365257978"><ele></ele><time>2013-8-1T15:57:13Z</time></trkpt>
<trkpt lat="46.07155264355242" lon="7.249976936727762"><ele></ele><time>2013-8-1T15:57:16Z</time></trkpt>
<trkpt lat="46.0715692397207" lon="7.249965788796544"><ele></ele><time>2013-8-1T15:57:19Z</time></trkpt>
<trkpt lat="46.07158424332738" lon="7.249952796846628"><ele></ele><time>2013-8-1T15:57:22Z</time></trkpt>
<trkpt lat="46.07165624387562" lon="7.249886076897383"><ele></ele><time>2013-8-1T15:57:25Z</time></trkpt>
<trkpt lat="46.07167409732938" lon="7.249873420223594"><ele></ele><time>2013-8-1T15:57:28Z</time></trkpt>
<trkpt lat="46.071692453697324" lon="7.2498575784265995"><ele></ele><time>2013-8-1T15:57:31Z</time></trkpt>
<trkpt lat="46.07170938514173" lon="7.249846430495381"><ele></ele><time>2013-8-1T15:57:34Z</time></trkpt>
<trkpt lat="46.07172539457679" lon="7.249830337241292"><ele></ele><time>2013-8-1T15:57:37Z</time></trkpt>
<trkpt lat="46.07182706706226" lon="7.2497383877635"><ele></ele><time>2013-8-1T15:57:40Z</time></trkpt>
<trkpt lat="46.071843998506665" lon="7.249725982546806"><ele></ele><time>2013-8-1T15:57:43Z</time></trkpt>
<trkpt lat="46.07185925357044" lon="7.249708715826273"><ele></ele><time>2013-8-1T15:57:46Z</time></trkpt>
<trkpt lat="46.071874760091305" lon="7.249692790210247"><ele></ele><time>2013-8-1T15:57:49Z</time></trkpt>
<trkpt lat="46.07195128686726" lon="7.249589944258332"><ele></ele><time>2013-8-1T15:57:52Z</time></trkpt>
<trkpt lat="46.07199361547828" lon="7.249520542100072"><ele></ele><time>2013-8-1T15:57:55Z</time></trkpt>
<trkpt lat="46.07200459577143" lon="7.24950042553246"><ele></ele><time>2013-8-1T15:57:58Z</time></trkpt>
<trkpt lat="46.07201809063554" lon="7.249483661726117"><ele></ele><time>2013-8-1T15:58:1Z</time></trkpt>
<trkpt lat="46.072033094242215" lon="7.249464467167854"><ele></ele><time>2013-8-1T15:58:4Z</time></trkpt>
<trkpt lat="46.07205178588629" lon="7.249446110799909"><ele></ele><time>2013-8-1T15:58:7Z</time></trkpt>
<trkpt lat="46.072134682908654" lon="7.249330272898078"><ele></ele><time>2013-8-1T15:58:10Z</time></trkpt>
<trkpt lat="46.07214977033436" lon="7.249306468293071"><ele></ele><time>2013-8-1T15:58:13Z</time></trkpt>
<trkpt lat="46.07216326519847" lon="7.249283418059349"><ele></ele><time>2013-8-1T15:58:16Z</time></trkpt>
<trkpt lat="46.07217684388161" lon="7.2492612060159445"><ele></ele><time>2013-8-1T15:58:19Z</time></trkpt>
<trkpt lat="46.07218966819346" lon="7.249240335077047"><ele></ele><time>2013-8-1T15:58:22Z</time></trkpt>
<trkpt lat="46.07225337065756" lon="7.249137656763196"><ele></ele><time>2013-8-1T15:58:25Z</time></trkpt>
<trkpt lat="46.07226988300681" lon="7.249120892956853"><ele></ele><time>2013-8-1T15:58:28Z</time></trkpt>
<trkpt lat="46.07228362932801" lon="7.249100776389241"><ele></ele><time>2013-8-1T15:58:31Z</time></trkpt>
<trkpt lat="46.07229519635439" lon="7.249078983440995"><ele></ele><time>2013-8-1T15:58:34Z</time></trkpt>
<trkpt lat="46.07230994850397" lon="7.2490600403398275"><ele></ele><time>2013-8-1T15:58:37Z</time></trkpt>
<trkpt lat="46.07232553884387" lon="7.249042773619294"><ele></ele><time>2013-8-1T15:58:40Z</time></trkpt>
<trkpt lat="46.07235227711499" lon="7.249006228521466"><ele></ele><time>2013-8-1T15:58:43Z</time></trkpt>
<trkpt lat="46.072410782799125" lon="7.248926432803273"><ele></ele><time>2013-8-1T15:58:46Z</time></trkpt>
<trkpt lat="46.07242436148226" lon="7.248907154425979"><ele></ele><time>2013-8-1T15:58:49Z</time></trkpt>
<trkpt lat="46.0724413767457" lon="7.248883517459035"><ele></ele><time>2013-8-1T15:58:52Z</time></trkpt>
<trkpt lat="46.07245420105755" lon="7.248863652348518"><ele></ele><time>2013-8-1T15:58:55Z</time></trkpt>
<trkpt lat="46.072468450292945" lon="7.248844038695097"><ele></ele><time>2013-8-1T15:58:58Z</time></trkpt>
<trkpt lat="46.07256509363651" lon="7.2487307991832495"><ele></ele><time>2013-8-1T15:59:1Z</time></trkpt>
<trkpt lat="46.072581857442856" lon="7.248716047033668"><ele></ele><time>2013-8-1T15:59:4Z</time></trkpt>
<trkpt lat="46.072599375620484" lon="7.248699953779578"><ele></ele><time>2013-8-1T15:59:7Z</time></trkpt>
<trkpt lat="46.07261437922716" lon="7.248683525249362"><ele></ele><time>2013-8-1T15:59:10Z</time></trkpt>
<trkpt lat="46.07262879610062" lon="7.248662989586592"><ele></ele><time>2013-8-1T15:59:13Z</time></trkpt>
<trkpt lat="46.07270071282983" lon="7.248558718711138"><ele></ele><time>2013-8-1T15:59:16Z</time></trkpt>
<trkpt lat="46.07271487824619" lon="7.248541619628668"><ele></ele><time>2013-8-1T15:59:19Z</time></trkpt>
<trkpt lat="46.072729881852865" lon="7.248522089794278"><ele></ele><time>2013-8-1T15:59:22Z</time></trkpt>
<trkpt lat="46.07274706475437" lon="7.248507672920823"><ele></ele><time>2013-8-1T15:59:25Z</time></trkpt>
<trkpt lat="46.07276340946555" lon="7.248492166399956"><ele></ele><time>2013-8-1T15:59:28Z</time></trkpt>
<trkpt lat="46.072829039767385" lon="7.248444054275751"><ele></ele><time>2013-8-1T15:59:31Z</time></trkpt>
<trkpt lat="46.072843289002776" lon="7.248429721221328"><ele></ele><time>2013-8-1T15:59:34Z</time></trkpt>
<trkpt lat="46.072862232103944" lon="7.248414801433682"><ele></ele><time>2013-8-1T15:59:37Z</time></trkpt>
<trkpt lat="46.07287673279643" lon="7.248401055112481"><ele></ele><time>2013-8-1T15:59:40Z</time></trkpt>
<trkpt lat="46.07289517298341" lon="7.248387727886438"><ele></ele><time>2013-8-1T15:59:43Z</time></trkpt>
<trkpt lat="46.07291319407523" lon="7.248378423973918"><ele></ele><time>2013-8-1T15:59:46Z</time></trkpt>
<trkpt lat="46.07293255627155" lon="7.248368700966239"><ele></ele><time>2013-8-1T15:59:49Z</time></trkpt>
<trkpt lat="46.07294755987823" lon="7.24836534820497"><ele></ele><time>2013-8-1T15:59:52Z</time></trkpt>
<trkpt lat="46.073030373081565" lon="7.248332491144538"><ele></ele><time>2013-8-1T15:59:55Z</time></trkpt>
<trkpt lat="46.073046466335654" lon="7.248324528336525"><ele></ele><time>2013-8-1T15:59:58Z</time></trkpt>
<trkpt lat="46.07306331396103" lon="7.248315308243036"><ele></ele><time>2013-8-1T16:0:1Z</time></trkpt>
<trkpt lat="46.073075886815786" lon="7.248306004330516"><ele></ele><time>2013-8-1T16:0:4Z</time></trkpt>
<trkpt lat="46.0730891302228" lon="7.248301059007645"><ele></ele><time>2013-8-1T16:0:7Z</time></trkpt>
<trkpt lat="46.07314554043114" lon="7.248291838914156"><ele></ele><time>2013-8-1T16:0:10Z</time></trkpt>
<trkpt lat="46.07323715463281" lon="7.248276164755225"><ele></ele><time>2013-8-1T16:0:13Z</time></trkpt>
<trkpt lat="46.0732598695904" lon="7.248269626870751"><ele></ele><time>2013-8-1T16:0:16Z</time></trkpt>
<trkpt lat="46.073281578719616" lon="7.248256551101804"><ele></ele><time>2013-8-1T16:0:19Z</time></trkpt>
<trkpt lat="46.07330437749624" lon="7.248247247189283"><ele></ele><time>2013-8-1T16:0:22Z</time></trkpt>
<trkpt lat="46.07332658953965" lon="7.248238613829017"><ele></ele><time>2013-8-1T16:0:25Z</time></trkpt>
<trkpt lat="46.073449635878205" lon="7.248199302703142"><ele></ele><time>2013-8-1T16:0:28Z</time></trkpt>
<trkpt lat="46.07346908189356" lon="7.24818698130548"><ele></ele><time>2013-8-1T16:0:31Z</time></trkpt>
<trkpt lat="46.073488276451826" lon="7.2481723967939615"><ele></ele><time>2013-8-1T16:0:34Z</time></trkpt>
<trkpt lat="46.07350939884782" lon="7.248160075396299"><ele></ele><time>2013-8-1T16:0:37Z</time></trkpt>
<trkpt lat="46.07352959923446" lon="7.2481470834463835"><ele></ele><time>2013-8-1T16:0:40Z</time></trkpt>
<trkpt lat="46.07362389564514" lon="7.248095199465752"><ele></ele><time>2013-8-1T16:0:43Z</time></trkpt>
<trkpt lat="46.07364107854664" lon="7.248080782592297"><ele></ele><time>2013-8-1T16:0:46Z</time></trkpt>
<trkpt lat="46.07365817762911" lon="7.248061839491129"><ele></ele><time>2013-8-1T16:0:49Z</time></trkpt>
<trkpt lat="46.07367519289255" lon="7.248045410960913"><ele></ele><time>2013-8-1T16:0:52Z</time></trkpt>
<trkpt lat="46.07369028031826" lon="7.248030574992299"><ele></ele><time>2013-8-1T16:0:55Z</time></trkpt>
<trkpt lat="46.07370587065816" lon="7.248011631891131"><ele></ele><time>2013-8-1T16:0:58Z</time></trkpt>
<trkpt lat="46.07373143546283" lon="7.247967040166259"><ele></ele><time>2013-8-1T16:1:1Z</time></trkpt>
<trkpt lat="46.073791114613414" lon="7.24789135158062"><ele></ele><time>2013-8-1T16:1:4Z</time></trkpt>
<trkpt lat="46.07380812987685" lon="7.2478764317929745"><ele></ele><time>2013-8-1T16:1:7Z</time></trkpt>
<trkpt lat="46.07382430694997" lon="7.247857237234712"><ele></ele><time>2013-8-1T16:1:10Z</time></trkpt>
<trkpt lat="46.07384040020406" lon="7.247836533933878"><ele></ele><time>2013-8-1T16:1:13Z</time></trkpt>
<trkpt lat="46.073854230344296" lon="7.247817758470774"><ele></ele><time>2013-8-1T16:1:16Z</time></trkpt>
<trkpt lat="46.07387007214129" lon="7.247805185616016"><ele></ele><time>2013-8-1T16:1:19Z</time></trkpt>
<trkpt lat="46.073937714099884" lon="7.247754894196987"><ele></ele><time>2013-8-1T16:1:22Z</time></trkpt>
<trkpt lat="46.073951879516244" lon="7.2477480210363865"><ele></ele><time>2013-8-1T16:1:25Z</time></trkpt>
<trkpt lat="46.073968056589365" lon="7.247743662446737"><ele></ele><time>2013-8-1T16:1:28Z</time></trkpt>
<trkpt lat="46.07398632913828" lon="7.247739806771278"><ele></ele><time>2013-8-1T16:1:31Z</time></trkpt>
<trkpt lat="46.074007619172335" lon="7.247738214209676"><ele></ele><time>2013-8-1T16:1:34Z</time></trkpt>
<trkpt lat="46.074124881997705" lon="7.247696639969945"><ele></ele><time>2013-8-1T16:1:37Z</time></trkpt>
<trkpt lat="46.07414332218468" lon="7.247698567807674"><ele></ele><time>2013-8-1T16:1:40Z</time></trkpt>
<trkpt lat="46.07416000217199" lon="7.24769689142704"><ele></ele><time>2013-8-1T16:1:43Z</time></trkpt>
<trkpt lat="46.07417844235897" lon="7.247697897255421"><ele></ele><time>2013-8-1T16:1:46Z</time></trkpt>
<trkpt lat="46.07419562526047" lon="7.247702004387975"><ele></ele><time>2013-8-1T16:1:49Z</time></trkpt>
<trkpt lat="46.074248012155294" lon="7.247706865891814"><ele></ele><time>2013-8-1T16:1:52Z</time></trkpt>
<trkpt lat="46.07429176568985" lon="7.2477073688060045"><ele></ele><time>2013-8-1T16:1:55Z</time></trkpt>
<trkpt lat="46.074307188391685" lon="7.2477067820727825"><ele></ele><time>2013-8-1T16:1:58Z</time></trkpt>
<trkpt lat="46.074323868379" lon="7.247708374634385"><ele></ele><time>2013-8-1T16:2:1Z</time></trkpt>
<trkpt lat="46.074341889470816" lon="7.247704854235053"><ele></ele><time>2013-8-1T16:2:4Z</time></trkpt>
<trkpt lat="46.07436100021005" lon="7.247702507302165"><ele></ele><time>2013-8-1T16:2:7Z</time></trkpt>
<trkpt lat="46.074471808969975" lon="7.247671242803335"><ele></ele><time>2013-8-1T16:2:10Z</time></trkpt>
<trkpt lat="46.07449200935662" lon="7.247662357985973"><ele></ele><time>2013-8-1T16:2:13Z</time></trkpt>
<trkpt lat="46.07450919225812" lon="7.247652551159263"><ele></ele><time>2013-8-1T16:2:16Z</time></trkpt>
<trkpt lat="46.07452453114092" lon="7.247639140114188"><ele></ele><time>2013-8-1T16:2:19Z</time></trkpt>
<trkpt lat="46.074541714042425" lon="7.2476293332874775"><ele></ele><time>2013-8-1T16:2:22Z</time></trkpt>
<trkpt lat="46.074597453698516" lon="7.247607037425041"><ele></ele><time>2013-8-1T16:2:25Z</time></trkpt>
<trkpt lat="46.07461656443775" lon="7.247598571702838"><ele></ele><time>2013-8-1T16:2:28Z</time></trkpt>
<trkpt lat="46.07467599213123" lon="7.24756839685142"><ele></ele><time>2013-8-1T16:2:31Z</time></trkpt>
<trkpt lat="46.074696527794" lon="7.247553141787648"><ele></ele><time>2013-8-1T16:2:34Z</time></trkpt>
<trkpt lat="46.07471798546612" lon="7.247543586418033"><ele></ele><time>2013-8-1T16:2:37Z</time></trkpt>
<trkpt lat="46.07473969459534" lon="7.2475404012948275"><ele></ele><time>2013-8-1T16:2:40Z</time></trkpt>
<trkpt lat="46.074820160865784" lon="7.2475147526711226"><ele></ele><time>2013-8-1T16:2:43Z</time></trkpt>
<trkpt lat="46.074910685420036" lon="7.247497821226716"><ele></ele><time>2013-8-1T16:2:46Z</time></trkpt>
<trkpt lat="46.0749367531389" lon="7.2474923729896545"><ele></ele><time>2013-8-1T16:2:49Z</time></trkpt>
<trkpt lat="46.074959551915526" lon="7.2474848292768"><ele></ele><time>2013-8-1T16:2:52Z</time></trkpt>
<trkpt lat="46.07498276978731" lon="7.2474813926965"><ele></ele><time>2013-8-1T16:2:55Z</time></trkpt>
<trkpt lat="46.07500657439232" lon="7.247477872297168"><ele></ele><time>2013-8-1T16:2:58Z</time></trkpt>
<trkpt lat="46.07516013085842" lon="7.247449541464448"><ele></ele><time>2013-8-1T16:3:1Z</time></trkpt>
<trkpt lat="46.07520346529782" lon="7.24743839353323"><ele></ele><time>2013-8-1T16:3:4Z</time></trkpt>
<trkpt lat="46.075224755331874" lon="7.247434118762612"><ele></ele><time>2013-8-1T16:3:7Z</time></trkpt>
<trkpt lat="46.07524931430817" lon="7.247432442381978"><ele></ele><time>2013-8-1T16:3:10Z</time></trkpt>
<trkpt lat="46.07527479529381" lon="7.247426910325885"><ele></ele><time>2013-8-1T16:3:13Z</time></trkpt>
<trkpt lat="46.07529818080366" lon="7.247423054650426"><ele></ele><time>2013-8-1T16:3:16Z</time></trkpt>
<trkpt lat="46.07540546916425" lon="7.247416349127889"><ele></ele><time>2013-8-1T16:3:19Z</time></trkpt>
<trkpt lat="46.07542491517961" lon="7.2474160976707935"><ele></ele><time>2013-8-1T16:3:22Z</time></trkpt>
<trkpt lat="46.07544553466141" lon="7.247416935861111"><ele></ele><time>2013-8-1T16:3:25Z</time></trkpt>
<trkpt lat="46.075468668714166" lon="7.247411319985986"><ele></ele><time>2013-8-1T16:3:28Z</time></trkpt>
<trkpt lat="46.07549180276692" lon="7.247406542301178"><ele></ele><time>2013-8-1T16:3:31Z</time></trkpt>
<trkpt lat="46.075654244050384" lon="7.247367398813367"><ele></ele><time>2013-8-1T16:3:34Z</time></trkpt>
<trkpt lat="46.07567394152284" lon="7.2473666444420815"><ele></ele><time>2013-8-1T16:3:37Z</time></trkpt>
<trkpt lat="46.07569556683302" lon="7.247363207861781"><ele></ele><time>2013-8-1T16:3:40Z</time></trkpt>
<trkpt lat="46.075715431943536" lon="7.247361363843083"><ele></ele><time>2013-8-1T16:3:43Z</time></trkpt>
<trkpt lat="46.07573680579662" lon="7.247356502339244"><ele></ele><time>2013-8-1T16:3:46Z</time></trkpt>
<trkpt lat="46.075824312865734" lon="7.247334709390998"><ele></ele><time>2013-8-1T16:3:49Z</time></trkpt>
<trkpt lat="46.07588122598827" lon="7.247303361073136"><ele></ele><time>2013-8-1T16:3:52Z</time></trkpt>
<trkpt lat="46.07589949853718" lon="7.247293805703521"><ele></ele><time>2013-8-1T16:3:55Z</time></trkpt>
<trkpt lat="46.075917687267065" lon="7.247283412143588"><ele></ele><time>2013-8-1T16:3:58Z</time></trkpt>
<trkpt lat="46.075935289263725" lon="7.247278047725558"><ele></ele><time>2013-8-1T16:4:1Z</time></trkpt>
<trkpt lat="46.07595800422132" lon="7.247267486527562"><ele></ele><time>2013-8-1T16:4:4Z</time></trkpt>
<trkpt lat="46.075979713350534" lon="7.247258936986327"><ele></ele><time>2013-8-1T16:4:7Z</time></trkpt>
<trkpt lat="46.076050037518144" lon="7.247210657224059"><ele></ele><time>2013-8-1T16:4:10Z</time></trkpt>
<trkpt lat="46.07606504112482" lon="7.247199676930904"><ele></ele><time>2013-8-1T16:4:13Z</time></trkpt>
<trkpt lat="46.07608297839761" lon="7.247193390503526"><ele></ele><time>2013-8-1T16:4:16Z</time></trkpt>
<trkpt lat="46.07610175386071" lon="7.247193222865462"><ele></ele><time>2013-8-1T16:4:19Z</time></trkpt>
<trkpt lat="46.0761178471148" lon="7.247204538434744"><ele></ele><time>2013-8-1T16:4:22Z</time></trkpt>
<trkpt lat="46.07613964006305" lon="7.247274192050099"><ele></ele><time>2013-8-1T16:4:25Z</time></trkpt>
<trkpt lat="46.076134191825986" lon="7.247299253940582"><ele></ele><time>2013-8-1T16:4:28Z</time></trkpt>
<trkpt lat="46.07610745355487" lon="7.247345186769962"><ele></ele><time>2013-8-1T16:4:31Z</time></trkpt>
<trkpt lat="46.07608976773918" lon="7.247365806251764"><ele></ele><time>2013-8-1T16:4:34Z</time></trkpt>
<trkpt lat="46.07607241719961" lon="7.247386844828725"><ele></ele><time>2013-8-1T16:4:37Z</time></trkpt>
<trkpt lat="46.07605959288776" lon="7.247407212853432"><ele></ele><time>2013-8-1T16:4:40Z</time></trkpt>
<trkpt lat="46.07599647715688" lon="7.24750243127346"><ele></ele><time>2013-8-1T16:4:43Z</time></trkpt>
<trkpt lat="46.075978707522154" lon="7.247517853975296"><ele></ele><time>2013-8-1T16:4:46Z</time></trkpt>
<trkpt lat="46.07596135698259" lon="7.247534366324544"><ele></ele><time>2013-8-1T16:4:49Z</time></trkpt>
<trkpt lat="46.075948532670736" lon="7.247554315254092"><ele></ele><time>2013-8-1T16:4:52Z</time></trkpt>
<trkpt lat="46.07593411579728" lon="7.247577114030719"><ele></ele><time>2013-8-1T16:4:55Z</time></trkpt>
<trkpt lat="46.07592036947608" lon="7.2475966438651085"><ele></ele><time>2013-8-1T16:4:58Z</time></trkpt>
<trkpt lat="46.07588022015989" lon="7.2476511262357235"><ele></ele><time>2013-8-1T16:5:1Z</time></trkpt>
<trkpt lat="46.07584895566106" lon="7.2476770263165236"><ele></ele><time>2013-8-1T16:5:4Z</time></trkpt>
<trkpt lat="46.07583378441632" lon="7.2476917784661055"><ele></ele><time>2013-8-1T16:5:7Z</time></trkpt>
<trkpt lat="46.07582221738994" lon="7.2477076202631"><ele></ele><time>2013-8-1T16:5:10Z</time></trkpt>
<trkpt lat="46.075808722525835" lon="7.247723126783967"><ele></ele><time>2013-8-1T16:5:13Z</time></trkpt>
<trkpt lat="46.07579464092851" lon="7.247742237523198"><ele></ele><time>2013-8-1T16:5:16Z</time></trkpt>
<trkpt lat="46.07571207918227" lon="7.247844245284796"><ele></ele><time>2013-8-1T16:5:19Z</time></trkpt>
<trkpt lat="46.07569917105138" lon="7.247861931100488"><ele></ele><time>2013-8-1T16:5:22Z</time></trkpt>
<trkpt lat="46.07568450272083" lon="7.247880036011338"><ele></ele><time>2013-8-1T16:5:25Z</time></trkpt>
<trkpt lat="46.075670002028346" lon="7.247896799817681"><ele></ele><time>2013-8-1T16:5:28Z</time></trkpt>
<trkpt lat="46.07565357349813" lon="7.247912976890802"><ele></ele><time>2013-8-1T16:5:31Z</time></trkpt>
<trkpt lat="46.07555877417326" lon="7.24799738265574"><ele></ele><time>2013-8-1T16:5:34Z</time></trkpt>
<trkpt lat="46.07554167509079" lon="7.24800911732018"><ele></ele><time>2013-8-1T16:5:37Z</time></trkpt>
<trkpt lat="46.075525246560574" lon="7.248023366555572"><ele></ele><time>2013-8-1T16:5:40Z</time></trkpt>
<trkpt lat="46.07550881803036" lon="7.24803258664906"><ele></ele><time>2013-8-1T16:5:43Z</time></trkpt>
<trkpt lat="46.07549297623336" lon="7.2480410523712635"><ele></ele><time>2013-8-1T16:5:46Z</time></trkpt>
<trkpt lat="46.075408486649394" lon="7.248075166717172"><ele></ele><time>2013-8-1T16:5:49Z</time></trkpt>
<trkpt lat="46.07539222575724" lon="7.248080782592297"><ele></ele><time>2013-8-1T16:5:52Z</time></trkpt>
<trkpt lat="46.07537948526442" lon="7.248084722086787"><ele></ele><time>2013-8-1T16:5:55Z</time></trkpt>
<trkpt lat="46.07536221854389" lon="7.248090589419007"><ele></ele><time>2013-8-1T16:5:58Z</time></trkpt>
<trkpt lat="46.075346460565925" lon="7.24810048006475"><ele></ele><time>2013-8-1T16:6:1Z</time></trkpt>
<trkpt lat="46.07529876753688" lon="7.248129062354565"><ele></ele><time>2013-8-1T16:6:4Z</time></trkpt>
<trkpt lat="46.07528233900666" lon="7.248135348781943"><ele></ele><time>2013-8-1T16:6:7Z</time></trkpt>
<trkpt lat="46.075264401733875" lon="7.248144065961242"><ele></ele><time>2013-8-1T16:6:10Z</time></trkpt>
<trkpt lat="46.07524562627077" lon="7.248150100931525"><ele></ele><time>2013-8-1T16:6:13Z</time></trkpt>
<trkpt lat="46.07522651553154" lon="7.248153956606984"><ele></ele><time>2013-8-1T16:6:16Z</time></trkpt>
<trkpt lat="46.075208662077785" lon="7.24815764464438"><ele></ele><time>2013-8-1T16:6:19Z</time></trkpt>
<trkpt lat="46.07518837787211" lon="7.248161751776934"><ele></ele><time>2013-8-1T16:6:22Z</time></trkpt>
<trkpt lat="46.075167171657085" lon="7.248166194185615"><ele></ele><time>2013-8-1T16:6:25Z</time></trkpt>
<trkpt lat="46.07514822855592" lon="7.248169211670756"><ele></ele><time>2013-8-1T16:6:28Z</time></trkpt>
<trkpt lat="46.075057704001665" lon="7.248194692656398"><ele></ele><time>2013-8-1T16:6:31Z</time></trkpt>
<trkpt lat="46.07504026964307" lon="7.2482021525502205"><ele></ele><time>2013-8-1T16:6:34Z</time></trkpt>
<trkpt lat="46.0750247631222" lon="7.248210785910487"><ele></ele><time>2013-8-1T16:6:37Z</time></trkpt>
<trkpt lat="46.07500967569649" lon="7.24821631796658"><ele></ele><time>2013-8-1T16:6:40Z</time></trkpt>
<trkpt lat="46.07499240897596" lon="7.248228136450052"><ele></ele><time>2013-8-1T16:6:43Z</time></trkpt>
<trkpt lat="46.074888138100505" lon="7.248314889147878"><ele></ele><time>2013-8-1T16:6:46Z</time></trkpt>
<trkpt lat="46.07487573288381" lon="7.248333413153887"><ele></ele><time>2013-8-1T16:6:49Z</time></trkpt>
<trkpt lat="46.074864249676466" lon="7.248350847512484"><ele></ele><time>2013-8-1T16:6:52Z</time></trkpt>
<trkpt lat="46.074852012097836" lon="7.248369287699461"><ele></ele><time>2013-8-1T16:6:55Z</time></trkpt>
<trkpt lat="46.07483994215727" lon="7.248391415923834"><ele></ele><time>2013-8-1T16:6:58Z</time></trkpt>
<trkpt lat="46.07482535764575" lon="7.248417232185602"><ele></ele><time>2013-8-1T16:7:1Z</time></trkpt>
<trkpt lat="46.074777748435736" lon="7.248490825295448"><ele></ele><time>2013-8-1T16:7:4Z</time></trkpt>
<trkpt lat="46.07476240955293" lon="7.248511780053377"><ele></ele><time>2013-8-1T16:7:7Z</time></trkpt>
<trkpt lat="46.07474581338465" lon="7.2485296335071325"><ele></ele><time>2013-8-1T16:7:10Z</time></trkpt>
<trkpt lat="46.074729384854436" lon="7.248543631285429"><ele></ele><time>2013-8-1T16:7:13Z</time></trkpt>
<trkpt lat="46.07471329160035" lon="7.248556539416313"><ele></ele><time>2013-8-1T16:7:16Z</time></trkpt>
<trkpt lat="46.07469543814659" lon="7.2485696990042925"><ele></ele><time>2013-8-1T16:7:19Z</time></trkpt>
<trkpt lat="46.074678003787994" lon="7.248583193868399"><ele></ele><time>2013-8-1T16:7:22Z</time></trkpt>
<trkpt lat="46.074609104543924" lon="7.248629881069064"><ele></ele><time>2013-8-1T16:7:25Z</time></trkpt>
<trkpt lat="46.07456786558032" lon="7.248652763664722"><ele></ele><time>2013-8-1T16:7:28Z</time></trkpt>
<trkpt lat="46.074546659365296" lon="7.2486574575304985"><ele></ele><time>2013-8-1T16:7:31Z</time></trkpt>
<trkpt lat="46.07452629134059" lon="7.248662989586592"><ele></ele><time>2013-8-1T16:7:34Z</time></trkpt>
<trkpt lat="46.07451011426747" lon="7.248669192194939"><ele></ele><time>2013-8-1T16:7:37Z</time></trkpt>
<trkpt lat="46.07449251227081" lon="7.24867757409811"><ele></ele><time>2013-8-1T16:7:40Z</time></trkpt>
<trkpt lat="46.074460158124566" lon="7.248698361217976"><ele></ele><time>2013-8-1T16:7:43Z</time></trkpt>
<trkpt lat="46.074409782886505" lon="7.248747982084751"><ele></ele><time>2013-8-1T16:7:46Z</time></trkpt>
<trkpt lat="46.07437642291188" lon="7.248784862458706"><ele></ele><time>2013-8-1T16:7:49Z</time></trkpt>
<trkpt lat="46.07435957528651" lon="7.248801374807954"><ele></ele><time>2013-8-1T16:7:52Z</time></trkpt>
<trkpt lat="46.07434457167983" lon="7.248821156099439"><ele></ele><time>2013-8-1T16:7:55Z</time></trkpt>
<trkpt lat="46.07433032244444" lon="7.248837919905782"><ele></ele><time>2013-8-1T16:7:58Z</time></trkpt>
<trkpt lat="46.074314983561635" lon="7.248857617378235"><ele></ele><time>2013-8-1T16:8:1Z</time></trkpt>
<trkpt lat="46.074240719899535" lon="7.248979574069381"><ele></ele><time>2013-8-1T16:8:4Z</time></trkpt>
<trkpt lat="46.07422227971256" lon="7.249031290411949"><ele></ele><time>2013-8-1T16:8:7Z</time></trkpt>
<trkpt lat="46.074211383238435" lon="7.2490535862743855"><ele></ele><time>2013-8-1T16:8:10Z</time></trkpt>
<trkpt lat="46.07420057058334" lon="7.249074876308441"><ele></ele><time>2013-8-1T16:8:13Z</time></trkpt>
<trkpt lat="46.07418774627149" lon="7.249097507447004"><ele></ele><time>2013-8-1T16:8:16Z</time></trkpt>
<trkpt lat="46.07417701743543" lon="7.249122066423297"><ele></ele><time>2013-8-1T16:8:19Z</time></trkpt>
<trkpt lat="46.07416779734194" lon="7.24915006197989"><ele></ele><time>2013-8-1T16:8:22Z</time></trkpt>
<trkpt lat="46.074121026322246" lon="7.249277718365192"><ele></ele><time>2013-8-1T16:8:25Z</time></trkpt>
<trkpt lat="46.07410987839103" lon="7.249300014227629"><ele></ele><time>2013-8-1T16:8:28Z</time></trkpt>
<trkpt lat="46.074096551164985" lon="7.24932549521327"><ele></ele><time>2013-8-1T16:8:31Z</time></trkpt>
<trkpt lat="46.07409060001373" lon="7.2493489645421505"><ele></ele><time>2013-8-1T16:8:34Z</time></trkpt>
<trkpt lat="46.07408272102475" lon="7.249367656186223"><ele></ele><time>2013-8-1T16:8:37Z</time></trkpt>
<trkpt lat="46.074043745175004" lon="7.249445356428623"><ele></ele><time>2013-8-1T16:8:40Z</time></trkpt>
<trkpt lat="46.07401113957167" lon="7.249510148540139"><ele></ele><time>2013-8-1T16:8:43Z</time></trkpt>
<trkpt lat="46.074000243097544" lon="7.249535545706749"><ele></ele><time>2013-8-1T16:8:46Z</time></trkpt>
<trkpt lat="46.07399135828018" lon="7.249558512121439"><ele></ele><time>2013-8-1T16:8:49Z</time></trkpt>
<trkpt lat="46.07397903688252" lon="7.249579802155495"><ele></ele><time>2013-8-1T16:8:52Z</time></trkpt>
<trkpt lat="46.07396277599037" lon="7.24959765560925"><ele></ele><time>2013-8-1T16:8:55Z</time></trkpt>
<trkpt lat="46.07394835911691" lon="7.249611569568515"><ele></ele><time>2013-8-1T16:8:58Z</time></trkpt>
<trkpt lat="46.07388775795698" lon="7.24966705776751"><ele></ele><time>2013-8-1T16:9:1Z</time></trkpt>
<trkpt lat="46.07387107796967" lon="7.249679295346141"><ele></ele><time>2013-8-1T16:9:4Z</time></trkpt>
<trkpt lat="46.0738555714488" lon="7.2496941313147545"><ele></ele><time>2013-8-1T16:9:7Z</time></trkpt>
<trkpt lat="46.07383972965181" lon="7.2497085481882095"><ele></ele><time>2013-8-1T16:9:10Z</time></trkpt>
<trkpt lat="46.073732022196054" lon="7.249786164611578"><ele></ele><time>2013-8-1T16:9:13Z</time></trkpt>
<trkpt lat="46.07371408492327" lon="7.24979748018086"><ele></ele><time>2013-8-1T16:9:16Z</time></trkpt>
<trkpt lat="46.07369958423078" lon="7.249801754951477"><ele></ele><time>2013-8-1T16:9:19Z</time></trkpt>
<trkpt lat="46.07368131168187" lon="7.2498092148453"><ele></ele><time>2013-8-1T16:9:22Z</time></trkpt>
<trkpt lat="46.07366102747619" lon="7.2498163394629955"><ele></ele><time>2013-8-1T16:9:25Z</time></trkpt>
<trkpt lat="46.073590284213424" lon="7.249858248978853"><ele></ele><time>2013-8-1T16:9:28Z</time></trkpt>
<trkpt lat="46.07355751097202" lon="7.249884903430939"><ele></ele><time>2013-8-1T16:9:31Z</time></trkpt>
<trkpt lat="46.073542507365346" lon="7.2498988173902035"><ele></ele><time>2013-8-1T16:9:34Z</time></trkpt>
<trkpt lat="46.0735259950161" lon="7.24990988150239"><ele></ele><time>2013-8-1T16:9:37Z</time></trkpt>
<trkpt lat="46.07350621372461" lon="7.24992111325264"><ele></ele><time>2013-8-1T16:9:40Z</time></trkpt>
<trkpt lat="46.07349045574665" lon="7.249937374144793"><ele></ele><time>2013-8-1T16:9:43Z</time></trkpt>
<trkpt lat="46.073464220389724" lon="7.24997048266232"><ele></ele><time>2013-8-1T16:9:46Z</time></trkpt>
<trkpt lat="46.073397332802415" lon="7.250092942267656"><ele></ele><time>2013-8-1T16:9:49Z</time></trkpt>
<trkpt lat="46.073382245376706" lon="7.2501131426543"><ele></ele><time>2013-8-1T16:9:52Z</time></trkpt>
<trkpt lat="46.07336958870292" lon="7.250134600326419"><ele></ele><time>2013-8-1T16:9:55Z</time></trkpt>
<trkpt lat="46.073356345295906" lon="7.250156728550792"><ele></ele><time>2013-8-1T16:9:58Z</time></trkpt>
<trkpt lat="46.07334922067821" lon="7.250178437680006"><ele></ele><time>2013-8-1T16:10:1Z</time></trkpt>
<trkpt lat="46.073308400809765" lon="7.250270806252956"><ele></ele><time>2013-8-1T16:10:4Z</time></trkpt>
<trkpt lat="46.0732564330101" lon="7.250348338857293"><ele></ele><time>2013-8-1T16:10:7Z</time></trkpt>
<trkpt lat="46.07324369251728" lon="7.250362420454621"><ele></ele><time>2013-8-1T16:10:10Z</time></trkpt>
<trkpt lat="46.073230197653174" lon="7.2503850515931845"><ele></ele><time>2013-8-1T16:10:13Z</time></trkpt>
<trkpt lat="46.073216116055846" lon="7.250407934188843"><ele></ele><time>2013-8-1T16:10:16Z</time></trkpt>
<trkpt lat="46.073202369734645" lon="7.250432996079326"><ele></ele><time>2013-8-1T16:10:19Z</time></trkpt>
<trkpt lat="46.073124166578054" lon="7.250568782910705"><ele></ele><time>2013-8-1T16:10:22Z</time></trkpt>
<trkpt lat="46.07310933060944" lon="7.250590743497014"><ele></ele><time>2013-8-1T16:10:25Z</time></trkpt>
<trkpt lat="46.073094410821795" lon="7.250607758760452"><ele></ele><time>2013-8-1T16:10:28Z</time></trkpt>
<trkpt lat="46.073083598166704" lon="7.250629970803857"><ele></ele><time>2013-8-1T16:10:31Z</time></trkpt>
<trkpt lat="46.07307312078774" lon="7.250654194504023"><ele></ele><time>2013-8-1T16:10:34Z</time></trkpt>
<trkpt lat="46.07305074110627" lon="7.250745389610529"><ele></ele><time>2013-8-1T16:10:37Z</time></trkpt>
<trkpt lat="46.07305912300944" lon="7.25090422667563"><ele></ele><time>2013-8-1T16:10:40Z</time></trkpt>
<trkpt lat="46.073059206828475" lon="7.25093406625092"><ele></ele><time>2013-8-1T16:10:43Z</time></trkpt>
<trkpt lat="46.07305685989559" lon="7.250965666025877"><ele></ele><time>2013-8-1T16:10:46Z</time></trkpt>
<trkpt lat="46.07305568642914" lon="7.25099952891469"><ele></ele><time>2013-8-1T16:10:49Z</time></trkpt>
<trkpt lat="46.073050405830145" lon="7.251029452309012"><ele></ele><time>2013-8-1T16:10:52Z</time></trkpt>
<trkpt lat="46.073024002835155" lon="7.251150989905"><ele></ele><time>2013-8-1T16:10:55Z</time></trkpt>
<trkpt lat="46.07299969531596" lon="7.251193905249238"><ele></ele><time>2013-8-1T16:10:58Z</time></trkpt>
<trkpt lat="46.07298477552831" lon="7.25121159106493"><ele></ele><time>2013-8-1T16:11:1Z</time></trkpt>
<trkpt lat="46.07297086156905" lon="7.251227265223861"><ele></ele><time>2013-8-1T16:11:4Z</time></trkpt>
<trkpt lat="46.07295309193432" lon="7.251245453953743"><ele></ele><time>2013-8-1T16:11:7Z</time></trkpt>
<trkpt lat="46.07293817214668" lon="7.2512635588645935"><ele></ele><time>2013-8-1T16:11:10Z</time></trkpt>
<trkpt lat="46.072893496602774" lon="7.2513059712946415"><ele></ele><time>2013-8-1T16:11:13Z</time></trkpt>
<trkpt lat="46.072876984253526" lon="7.2513209749013186"><ele></ele><time>2013-8-1T16:11:16Z</time></trkpt>
<trkpt lat="46.07286055572331" lon="7.251340840011835"><ele></ele><time>2013-8-1T16:11:19Z</time></trkpt>
<trkpt lat="46.072845719754696" lon="7.25135718472302"><ele></ele><time>2013-8-1T16:11:22Z</time></trkpt>
<trkpt lat="46.07283214107156" lon="7.251362549141049"><ele></ele><time>2013-8-1T16:11:25Z</time></trkpt>
<trkpt lat="46.072756284847856" lon="7.2513949032872915"><ele></ele><time>2013-8-1T16:11:28Z</time></trkpt>
<trkpt lat="46.072730803862214" lon="7.251413092017174"><ele></ele><time>2013-8-1T16:11:31Z</time></trkpt>
<trkpt lat="46.07271873392165" lon="7.251419629901648"><ele></ele><time>2013-8-1T16:11:34Z</time></trkpt>
<trkpt lat="46.072707334533334" lon="7.2514358907938"><ele></ele><time>2013-8-1T16:11:37Z</time></trkpt>
<trkpt lat="46.072691828012466" lon="7.251452403143048"><ele></ele><time>2013-8-1T16:11:40Z</time></trkpt>
<trkpt lat="46.07267783023417" lon="7.251471932977438"><ele></ele><time>2013-8-1T16:11:43Z</time></trkpt>
<trkpt lat="46.072660982608795" lon="7.251489702612162"><ele></ele><time>2013-8-1T16:11:46Z</time></trkpt>
<trkpt lat="46.07259375974536" lon="7.25164795294404"><ele></ele><time>2013-8-1T16:11:49Z</time></trkpt>
<trkpt lat="46.072583785280585" lon="7.2516741044819355"><ele></ele><time>2013-8-1T16:11:52Z</time></trkpt>
<trkpt lat="46.07257481664419" lon="7.251699836924672"><ele></ele><time>2013-8-1T16:11:55Z</time></trkpt>
<trkpt lat="46.07256677001715" lon="7.2517309337854385"><ele></ele><time>2013-8-1T16:11:58Z</time></trkpt>
<trkpt lat="46.07255729846656" lon="7.251757504418492"><ele></ele><time>2013-8-1T16:12:1Z</time></trkpt>
<trkpt lat="46.07254690490663" lon="7.25177938118577"><ele></ele><time>2013-8-1T16:12:4Z</time></trkpt>
<trkpt lat="46.072517316788435" lon="7.251879628747702"><ele></ele><time>2013-8-1T16:12:7Z</time></trkpt>
<trkpt lat="46.072519244626164" lon="7.251995466649532"><ele></ele><time>2013-8-1T16:12:10Z</time></trkpt>
<trkpt lat="46.07252293266356" lon="7.252026982605457"><ele></ele><time>2013-8-1T16:12:13Z</time></trkpt>
<trkpt lat="46.072530057281256" lon="7.252054223790765"><ele></ele><time>2013-8-1T16:12:16Z</time></trkpt>
<trkpt lat="46.07253416441381" lon="7.252078950405121"><ele></ele><time>2013-8-1T16:12:19Z</time></trkpt>
<trkpt lat="46.07254003174603" lon="7.252103174105287"><ele></ele><time>2013-8-1T16:12:22Z</time></trkpt>
<trkpt lat="46.07254698872566" lon="7.25218590348959"><ele></ele><time>2013-8-1T16:12:25Z</time></trkpt>
<trkpt lat="46.07254648581147" lon="7.252212641760707"><ele></ele><time>2013-8-1T16:12:28Z</time></trkpt>
<trkpt lat="46.072547575458884" lon="7.252243738621473"><ele></ele><time>2013-8-1T16:12:31Z</time></trkpt>
<trkpt lat="46.07254925183952" lon="7.2522681299597025"><ele></ele><time>2013-8-1T16:12:34Z</time></trkpt>
<trkpt lat="46.07254397124052" lon="7.252300400286913"><ele></ele><time>2013-8-1T16:12:37Z</time></trkpt>
<trkpt lat="46.07251128181815" lon="7.252404503524303"><ele></ele><time>2013-8-1T16:12:40Z</time></trkpt>
<trkpt lat="46.072452273219824" lon="7.252541463822126"><ele></ele><time>2013-8-1T16:12:43Z</time></trkpt>
<trkpt lat="46.072437185794115" lon="7.252563927322626"><ele></ele><time>2013-8-1T16:12:46Z</time></trkpt>
<trkpt lat="46.07242360711098" lon="7.252591922879219"><ele></ele><time>2013-8-1T16:12:49Z</time></trkpt>
<trkpt lat="46.072406927123666" lon="7.2526132967323065"><ele></ele><time>2013-8-1T16:12:52Z</time></trkpt>
<trkpt lat="46.07238999567926" lon="7.252631988376379"><ele></ele><time>2013-8-1T16:12:55Z</time></trkpt>
<trkpt lat="46.072338530793786" lon="7.252714466303587"><ele></ele><time>2013-8-1T16:12:58Z</time></trkpt>
<trkpt lat="46.072311541065574" lon="7.252759393304586"><ele></ele><time>2013-8-1T16:13:1Z</time></trkpt>
<trkpt lat="46.07230005785823" lon="7.252780934795737"><ele></ele><time>2013-8-1T16:13:4Z</time></trkpt>
<trkpt lat="46.07228974811733" lon="7.2528008837252855"><ele></ele><time>2013-8-1T16:13:7Z</time></trkpt>
<trkpt lat="46.07228103093803" lon="7.252825107425451"><ele></ele><time>2013-8-1T16:13:10Z</time></trkpt>
<trkpt lat="46.07224113307893" lon="7.252911357209086"><ele></ele><time>2013-8-1T16:13:13Z</time></trkpt>
<trkpt lat="46.07220584526658" lon="7.253010934218764"><ele></ele><time>2013-8-1T16:13:16Z</time></trkpt>
<trkpt lat="46.07219746336341" lon="7.253037504851818"><ele></ele><time>2013-8-1T16:13:19Z</time></trkpt>
<trkpt lat="46.07218815945089" lon="7.253059046342969"><ele></ele><time>2013-8-1T16:13:22Z</time></trkpt>
<trkpt lat="46.07217986136675" lon="7.253080839291215"><ele></ele><time>2013-8-1T16:13:25Z</time></trkpt>
<trkpt lat="46.07216686941683" lon="7.253102967515588"><ele></ele><time>2013-8-1T16:13:28Z</time></trkpt>
<trkpt lat="46.07210517860949" lon="7.25324965082109"><ele></ele><time>2013-8-1T16:13:31Z</time></trkpt>
<trkpt lat="46.07209403067827" lon="7.253274712711573"><ele></ele><time>2013-8-1T16:13:34Z</time></trkpt>
<trkpt lat="46.07208120636642" lon="7.253294661641121"><ele></ele><time>2013-8-1T16:13:37Z</time></trkpt>
<trkpt lat="46.07206611894071" lon="7.253312347456813"><ele></ele><time>2013-8-1T16:13:40Z</time></trkpt>
<trkpt lat="46.07205228880048" lon="7.2533301170915365"><ele></ele><time>2013-8-1T16:13:43Z</time></trkpt>
<trkpt lat="46.07203879393637" lon="7.2533489763736725"><ele></ele><time>2013-8-1T16:13:46Z</time></trkpt>
<trkpt lat="46.072009624913335" lon="7.253379235044122"><ele></ele><time>2013-8-1T16:13:49Z</time></trkpt>
<trkpt lat="46.07198355719447" lon="7.253413517028093"><ele></ele><time>2013-8-1T16:13:52Z</time></trkpt>
<trkpt lat="46.07196930795908" lon="7.2534338850528"><ele></ele><time>2013-8-1T16:13:55Z</time></trkpt>
<trkpt lat="46.071953382343054" lon="7.253451403230429"><ele></ele><time>2013-8-1T16:13:58Z</time></trkpt>
<trkpt lat="46.07193888165057" lon="7.2534717712551355"><ele></ele><time>2013-8-1T16:14:1Z</time></trkpt>
<trkpt lat="46.07192186638713" lon="7.253489037975669"><ele></ele><time>2013-8-1T16:14:4Z</time></trkpt>
<trkpt lat="46.07189395464957" lon="7.253525163978338"><ele></ele><time>2013-8-1T16:14:7Z</time></trkpt>
<trkpt lat="46.071820026263595" lon="7.253612335771322"><ele></ele><time>2013-8-1T16:14:10Z</time></trkpt>
<trkpt lat="46.0718057770282" lon="7.253626836463809"><ele></ele><time>2013-8-1T16:14:13Z</time></trkpt>
<trkpt lat="46.07178934849799" lon="7.253641923889518"><ele></ele><time>2013-8-1T16:14:16Z</time></trkpt>
<trkpt lat="46.07177183032036" lon="7.253658100962639"><ele></ele><time>2013-8-1T16:14:19Z</time></trkpt>
<trkpt lat="46.07175724580884" lon="7.253673439845443"><ele></ele><time>2013-8-1T16:14:22Z</time></trkpt>
<trkpt lat="46.071694465354085" lon="7.253738986328244"><ele></ele><time>2013-8-1T16:14:25Z</time></trkpt>
<trkpt lat="46.071648113429546" lon="7.253778632730246"><ele></ele><time>2013-8-1T16:14:28Z</time></trkpt>
<trkpt lat="46.07163327746093" lon="7.253795061260462"><ele></ele><time>2013-8-1T16:14:31Z</time></trkpt>
<trkpt lat="46.071618776768446" lon="7.253811825066805"><ele></ele><time>2013-8-1T16:14:34Z</time></trkpt>
<trkpt lat="46.07159840874374" lon="7.253809813410044"><ele></ele><time>2013-8-1T16:14:37Z</time></trkpt>
<trkpt lat="46.07157787308097" lon="7.253815848380327"><ele></ele><time>2013-8-1T16:14:40Z</time></trkpt>
<trkpt lat="46.07149355113506" lon="7.253887681290507"><ele></ele><time>2013-8-1T16:14:43Z</time></trkpt>
<trkpt lat="46.07147444039583" lon="7.253934284672141"><ele></ele><time>2013-8-1T16:14:46Z</time></trkpt>
<trkpt lat="46.07146019116044" lon="7.253955826163292"><ele></ele><time>2013-8-1T16:14:49Z</time></trkpt>
<trkpt lat="46.07144451700151" lon="7.253979714587331"><ele></ele><time>2013-8-1T16:14:52Z</time></trkpt>
<trkpt lat="46.07142741791904" lon="7.254003435373306"><ele></ele><time>2013-8-1T16:14:55Z</time></trkpt>
<trkpt lat="46.07141434215009" lon="7.254025312140584"><ele></ele><time>2013-8-1T16:14:58Z</time></trkpt>
<trkpt lat="46.07133203186095" lon="7.254167217761278"><ele></ele><time>2013-8-1T16:15:1Z</time></trkpt>
<trkpt lat="46.0713208001107" lon="7.254191525280476"><ele></ele><time>2013-8-1T16:15:4Z</time></trkpt>
<trkpt lat="46.07130981981754" lon="7.254213485866785"><ele></ele><time>2013-8-1T16:15:7Z</time></trkpt>
<trkpt lat="46.07130143791437" lon="7.254238463938236"><ele></ele><time>2013-8-1T16:15:10Z</time></trkpt>
<trkpt lat="46.07126682065427" lon="7.254343405365944"><ele></ele><time>2013-8-1T16:15:13Z</time></trkpt>
<trkpt lat="46.07122943736613" lon="7.254487657919526"><ele></ele><time>2013-8-1T16:15:16Z</time></trkpt>
<trkpt lat="46.071223821491" lon="7.254514899104834"><ele></ele><time>2013-8-1T16:15:19Z</time></trkpt>
<trkpt lat="46.0712203849107" lon="7.2545473370701075"><ele></ele><time>2013-8-1T16:15:22Z</time></trkpt>
<trkpt lat="46.07121275737882" lon="7.254578182473779"><ele></ele><time>2013-8-1T16:15:25Z</time></trkpt>
<trkpt lat="46.07120747677982" lon="7.254611207172275"><ele></ele><time>2013-8-1T16:15:28Z</time></trkpt>
<trkpt lat="46.071160873398185" lon="7.254737690091133"><ele></ele><time>2013-8-1T16:15:31Z</time></trkpt>
<trkpt lat="46.07113312929869" lon="7.254831315949559"><ele></ele><time>2013-8-1T16:15:34Z</time></trkpt>
<trkpt lat="46.07112499885261" lon="7.254861490800977"><ele></ele><time>2013-8-1T16:15:37Z</time></trkpt>
<trkpt lat="46.071117455139756" lon="7.254889570176601"><ele></ele><time>2013-8-1T16:15:40Z</time></trkpt>
<trkpt lat="46.07110454700887" lon="7.254920667037368"><ele></ele><time>2013-8-1T16:15:43Z</time></trkpt>
<trkpt lat="46.07109507545829" lon="7.254952937364578"><ele></ele><time>2013-8-1T16:15:46Z</time></trkpt>
<trkpt lat="46.07106724753976" lon="7.255079671740532"><ele></ele><time>2013-8-1T16:15:49Z</time></trkpt>
<trkpt lat="46.071092057973146" lon="7.255143541842699"><ele></ele><time>2013-8-1T16:15:52Z</time></trkpt>
<trkpt lat="46.071165231987834" lon="7.2551540192216635"><ele></ele><time>2013-8-1T16:15:55Z</time></trkpt>
<trkpt lat="46.07117830775678" lon="7.255133483558893"><ele></ele><time>2013-8-1T16:15:58Z</time></trkpt>
<trkpt lat="46.07119012624025" lon="7.255102721974254"><ele></ele><time>2013-8-1T16:16:1Z</time></trkpt>
<trkpt lat="46.07120010070503" lon="7.255071122199297"><ele></ele><time>2013-8-1T16:16:4Z</time></trkpt>
<trkpt lat="46.071206806227565" lon="7.255033990368247"><ele></ele><time>2013-8-1T16:16:7Z</time></trkpt>
<trkpt lat="46.07121049426496" lon="7.254995349794626"><ele></ele><time>2013-8-1T16:16:10Z</time></trkpt>
<trkpt lat="46.071249386295676" lon="7.254870040342212"><ele></ele><time>2013-8-1T16:16:13Z</time></trkpt>
<trkpt lat="46.0712584387511" lon="7.254837602376938"><ele></ele><time>2013-8-1T16:16:16Z</time></trkpt>
<trkpt lat="46.071268832311034" lon="7.254803571850061"><ele></ele><time>2013-8-1T16:16:19Z</time></trkpt>
<trkpt lat="46.07127595692873" lon="7.254769625142217"><ele></ele><time>2013-8-1T16:16:22Z</time></trkpt>
<trkpt lat="46.07128266245127" lon="7.254739534109831"><ele></ele><time>2013-8-1T16:16:25Z</time></trkpt>
<trkpt lat="46.07129012234509" lon="7.254711035639048"><ele></ele><time>2013-8-1T16:16:28Z</time></trkpt>
<trkpt lat="46.07133010402322" lon="7.254588240757585"><ele></ele><time>2013-8-1T16:16:31Z</time></trkpt>
<trkpt lat="46.0713622905314" lon="7.254515737295151"><ele></ele><time>2013-8-1T16:16:34Z</time></trkpt>
<trkpt lat="46.071373857557774" lon="7.254490340128541"><ele></ele><time>2013-8-1T16:16:37Z</time></trkpt>
<trkpt lat="46.07138525694609" lon="7.254467122256756"><ele></ele><time>2013-8-1T16:16:40Z</time></trkpt>
<trkpt lat="46.07139464467764" lon="7.254446083679795"><ele></ele><time>2013-8-1T16:16:43Z</time></trkpt>
<trkpt lat="46.071407217532396" lon="7.254428146407008"><ele></ele><time>2013-8-1T16:16:46Z</time></trkpt>
<trkpt lat="46.07143077068031" lon="7.254388919100165"><ele></ele><time>2013-8-1T16:16:49Z</time></trkpt>
<trkpt lat="46.07151291333139" lon="7.254327395930886"><ele></ele><time>2013-8-1T16:16:52Z</time></trkpt>
<trkpt lat="46.07153051532805" lon="7.25431339815259"><ele></ele><time>2013-8-1T16:16:55Z</time></trkpt>
<trkpt lat="46.07154895551503" lon="7.254296885803342"><ele></ele><time>2013-8-1T16:16:58Z</time></trkpt>
<trkpt lat="46.07156873680651" lon="7.254285318776965"><ele></ele><time>2013-8-1T16:17:1Z</time></trkpt>
<trkpt lat="46.0715882666409" lon="7.254278361797333"><ele></ele><time>2013-8-1T16:17:4Z</time></trkpt>
<trkpt lat="46.07169035822153" lon="7.25422547198832"><ele></ele><time>2013-8-1T16:17:7Z</time></trkpt>
<trkpt lat="46.07174408622086" lon="7.254200158640742"><ele></ele><time>2013-8-1T16:17:10Z</time></trkpt>
<trkpt lat="46.07176126912236" lon="7.254189848899841"><ele></ele><time>2013-8-1T16:17:13Z</time></trkpt>
<trkpt lat="46.07177970930934" lon="7.25417903624475"><ele></ele><time>2013-8-1T16:17:16Z</time></trkpt>
<trkpt lat="46.07179773040116" lon="7.254168977960944"><ele></ele><time>2013-8-1T16:17:19Z</time></trkpt>
<trkpt lat="46.071815583854914" lon="7.254151543602347"><ele></ele><time>2013-8-1T16:17:22Z</time></trkpt>
<trkpt lat="46.071850368753076" lon="7.254131091758609"><ele></ele><time>2013-8-1T16:17:25Z</time></trkpt>
<trkpt lat="46.07188439927995" lon="7.254110975190997"><ele></ele><time>2013-8-1T16:17:28Z</time></trkpt>
<trkpt lat="46.07190099544823" lon="7.254105526953936"><ele></ele><time>2013-8-1T16:17:31Z</time></trkpt>
<trkpt lat="46.07191901654005" lon="7.254093876108527"><ele></ele><time>2013-8-1T16:17:34Z</time></trkpt>
<trkpt lat="46.07193460687995" lon="7.254080716520548"><ele></ele><time>2013-8-1T16:17:37Z</time></trkpt>
<trkpt lat="46.07195137068629" lon="7.254077196121216"><ele></ele><time>2013-8-1T16:17:40Z</time></trkpt>
<trkpt lat="46.07196922414005" lon="7.254065964370966"><ele></ele><time>2013-8-1T16:17:43Z</time></trkpt>
<trkpt lat="46.07205731794238" lon="7.254005111753941"><ele></ele><time>2013-8-1T16:17:46Z</time></trkpt>
<trkpt lat="46.07206888496876" lon="7.25400167517364"><ele></ele><time>2013-8-1T16:17:49Z</time></trkpt>
<trkpt lat="46.07207911089063" lon="7.253996729850769"><ele></ele><time>2013-8-1T16:17:52Z</time></trkpt>
<trkpt lat="46.07209017500281" lon="7.253983989357948"><ele></ele><time>2013-8-1T16:17:55Z</time></trkpt>
<trkpt lat="46.07218933291733" lon="7.2539412416517735"><ele></ele><time>2013-8-1T16:17:58Z</time></trkpt>
<trkpt lat="46.072246162220836" lon="7.253908216953278"><ele></ele><time>2013-8-1T16:18:1Z</time></trkpt>
<trkpt lat="46.072263177484274" lon="7.253899751231074"><ele></ele><time>2013-8-1T16:18:4Z</time></trkpt>
<trkpt lat="46.07228145003319" lon="7.253888854756951"><ele></ele><time>2013-8-1T16:18:7Z</time></trkpt>
<trkpt lat="46.072299387305975" lon="7.25388147868216"><ele></ele><time>2013-8-1T16:18:10Z</time></trkpt>
<trkpt lat="46.07231430709362" lon="7.253866642713547"><ele></ele><time>2013-8-1T16:18:13Z</time></trkpt>
<trkpt lat="46.07233182527125" lon="7.253852477297187"><ele></ele><time>2013-8-1T16:18:16Z</time></trkpt>
<trkpt lat="46.07245151884854" lon="7.253753235563636"><ele></ele><time>2013-8-1T16:18:19Z</time></trkpt>
<trkpt lat="46.072469372302294" lon="7.253737226128578"><ele></ele><time>2013-8-1T16:18:22Z</time></trkpt>
<trkpt lat="46.07248580083251" lon="7.253715516999364"><ele></ele><time>2013-8-1T16:18:25Z</time></trkpt>
<trkpt lat="46.072503151372075" lon="7.25369724445045"><ele></ele><time>2013-8-1T16:18:28Z</time></trkpt>
<trkpt lat="46.072519831359386" lon="7.253681654110551"><ele></ele><time>2013-8-1T16:18:31Z</time></trkpt>
<trkpt lat="46.07258437201381" lon="7.2536213882267475"><ele></ele><time>2013-8-1T16:18:34Z</time></trkpt>
<trkpt lat="46.07261270284653" lon="7.253582580015063"><ele></ele><time>2013-8-1T16:18:37Z</time></trkpt>
<trkpt lat="46.07262393459678" lon="7.253566654399037"><ele></ele><time>2013-8-1T16:18:40Z</time></trkpt>
<trkpt lat="46.07263717800379" lon="7.253551483154297"><ele></ele><time>2013-8-1T16:18:43Z</time></trkpt>
<trkpt lat="46.072648745030165" lon="7.2535318695008755"><ele></ele><time>2013-8-1T16:18:46Z</time></trkpt>
<trkpt lat="46.07266307808459" lon="7.253514267504215"><ele></ele><time>2013-8-1T16:18:49Z</time></trkpt>
<trkpt lat="46.07269409112632" lon="7.2534779738634825"><ele></ele><time>2013-8-1T16:18:52Z</time></trkpt>
<trkpt lat="46.07273633591831" lon="7.253431286662817"><ele></ele><time>2013-8-1T16:18:55Z</time></trkpt>
<trkpt lat="46.07276097871363" lon="7.253397004678845"><ele></ele><time>2013-8-1T16:18:58Z</time></trkpt>
<trkpt lat="46.07277564704418" lon="7.253382001072168"><ele></ele><time>2013-8-1T16:19:1Z</time></trkpt>
<trkpt lat="46.07279115356505" lon="7.253364734351635"><ele></ele><time>2013-8-1T16:19:4Z</time></trkpt>
<trkpt lat="46.072808587923646" lon="7.253347635269165"><ele></ele><time>2013-8-1T16:19:7Z</time></trkpt>
<trkpt lat="46.07282501645386" lon="7.253330955281854"><ele></ele><time>2013-8-1T16:19:10Z</time></trkpt>
<trkpt lat="46.072906823828816" lon="7.253256440162659"><ele></ele><time>2013-8-1T16:19:13Z</time></trkpt>
<trkpt lat="46.07291839085519" lon="7.253246968612075"><ele></ele><time>2013-8-1T16:19:16Z</time></trkpt>
<trkpt lat="46.07293155044317" lon="7.253234228119254"><ele></ele><time>2013-8-1T16:19:19Z</time></trkpt>
<trkpt lat="46.07294839806855" lon="7.253219643607736"><ele></ele><time>2013-8-1T16:19:22Z</time></trkpt>
<trkpt lat="46.07296474277973" lon="7.253199107944965"><ele></ele><time>2013-8-1T16:19:25Z</time></trkpt>
<trkpt lat="46.07301780022681" lon="7.253136746585369"><ele></ele><time>2013-8-1T16:19:28Z</time></trkpt>
<trkpt lat="46.073065996170044" lon="7.253056028857827"><ele></ele><time>2013-8-1T16:19:31Z</time></trkpt>
<trkpt lat="46.073074378073215" lon="7.25303515791893"><ele></ele><time>2013-8-1T16:19:34Z</time></trkpt>
<trkpt lat="46.0730785690248" lon="7.253010012209415"><ele></ele><time>2013-8-1T16:19:37Z</time></trkpt>
<trkpt lat="46.07308083213866" lon="7.25298335775733"><ele></ele><time>2013-8-1T16:19:40Z</time></trkpt>
<trkpt lat="46.07308133505285" lon="7.252961480990052"><ele></ele><time>2013-8-1T16:19:43Z</time></trkpt>
<trkpt lat="46.073091980069876" lon="7.252810774371028"><ele></ele><time>2013-8-1T16:19:46Z</time></trkpt>
<trkpt lat="46.07309265062213" lon="7.252778671681881"><ele></ele><time>2013-8-1T16:19:49Z</time></trkpt>
<trkpt lat="46.07309265062213" lon="7.252749754115939"><ele></ele><time>2013-8-1T16:19:52Z</time></trkpt>
<trkpt lat="46.073094913735986" lon="7.252725698053837"><ele></ele><time>2013-8-1T16:19:55Z</time></trkpt>
<trkpt lat="46.07310329563916" lon="7.252700384706259"><ele></ele><time>2013-8-1T16:19:58Z</time></trkpt>
<trkpt lat="46.07311117462814" lon="7.252686806023121"><ele></ele><time>2013-8-1T16:20:1Z</time></trkpt>
<trkpt lat="46.0731200594455" lon="7.25265939719975"><ele></ele><time>2013-8-1T16:20:4Z</time></trkpt>
<trkpt lat="46.07322106137872" lon="7.252554539591074"><ele></ele><time>2013-8-1T16:20:7Z</time></trkpt>
<trkpt lat="46.073239082470536" lon="7.252550013363361"><ele></ele><time>2013-8-1T16:20:10Z</time></trkpt>
<trkpt lat="46.07325425371528" lon="7.252542469650507"><ele></ele><time>2013-8-1T16:20:13Z</time></trkpt>
<trkpt lat="46.073269844055176" lon="7.25253920070827"><ele></ele><time>2013-8-1T16:20:16Z</time></trkpt>
<trkpt lat="46.07328727841377" lon="7.252537105232477"><ele></ele><time>2013-8-1T16:20:19Z</time></trkpt>
<trkpt lat="46.07330437749624" lon="7.252528639510274"><ele></ele><time>2013-8-1T16:20:22Z</time></trkpt>
<trkpt lat="46.07333832420409" lon="7.252523107454181"><ele></ele><time>2013-8-1T16:20:25Z</time></trkpt>
<trkpt lat="46.073469165712595" lon="7.252532746642828"><ele></ele><time>2013-8-1T16:20:28Z</time></trkpt>
<trkpt lat="46.073488192632794" lon="7.25252402946353"><ele></ele><time>2013-8-1T16:20:31Z</time></trkpt>
<trkpt lat="46.073508728295565" lon="7.252522688359022"><ele></ele><time>2013-8-1T16:20:34Z</time></trkpt>
<trkpt lat="46.073528761044145" lon="7.252522185444832"><ele></ele><time>2013-8-1T16:20:37Z</time></trkpt>
<trkpt lat="46.073548877611756" lon="7.252523358911276"><ele></ele><time>2013-8-1T16:20:40Z</time></trkpt>
<trkpt lat="46.07357058674097" lon="7.252516485750675"><ele></ele><time>2013-8-1T16:20:43Z</time></trkpt>
<trkpt lat="46.07365407049656" lon="7.252486813813448"><ele></ele><time>2013-8-1T16:20:46Z</time></trkpt>
<trkpt lat="46.07366957701743" lon="7.252475246787071"><ele></ele><time>2013-8-1T16:20:49Z</time></trkpt>
<trkpt lat="46.07368181459606" lon="7.252458231523633"><ele></ele><time>2013-8-1T16:20:52Z</time></trkpt>
<trkpt lat="46.073696399107575" lon="7.252445658668876"><ele></ele><time>2013-8-1T16:20:55Z</time></trkpt>
<trkpt lat="46.07371081598103" lon="7.252434846013784"><ele></ele><time>2013-8-1T16:20:58Z</time></trkpt>
<trkpt lat="46.07377083040774" lon="7.252397295087576"><ele></ele><time>2013-8-1T16:21:1Z</time></trkpt>
<trkpt lat="46.07380846515298" lon="7.252353373914957"><ele></ele><time>2013-8-1T16:21:4Z</time></trkpt>
<trkpt lat="46.073827827349305" lon="7.252339208498597"><ele></ele><time>2013-8-1T16:21:7Z</time></trkpt>
<trkpt lat="46.07383721508086" lon="7.252330323681235"><ele></ele><time>2013-8-1T16:21:10Z</time></trkpt>
<trkpt lat="46.07384777627885" lon="7.25231884047389"><ele></ele><time>2013-8-1T16:21:13Z</time></trkpt>
<trkpt lat="46.073858672752976" lon="7.252306016162038"><ele></ele><time>2013-8-1T16:21:16Z</time></trkpt>
<trkpt lat="46.07389194890857" lon="7.252215575426817"><ele></ele><time>2013-8-1T16:21:19Z</time></trkpt>
<trkpt lat="46.073903096839786" lon="7.252187328413129"><ele></ele><time>2013-8-1T16:21:22Z</time></trkpt>
<trkpt lat="46.07391390949488" lon="7.2521615121513605"><ele></ele><time>2013-8-1T16:21:25Z</time></trkpt>
<trkpt lat="46.07392346486449" lon="7.252136869356036"><ele></ele><time>2013-8-1T16:21:28Z</time></trkpt>
<trkpt lat="46.07393419370055" lon="7.252112478017807"><ele></ele><time>2013-8-1T16:21:31Z</time></trkpt>
<trkpt lat="46.07396529056132" lon="7.252047266811132"><ele></ele><time>2013-8-1T16:21:34Z</time></trkpt>
<trkpt lat="46.07397451065481" lon="7.2520301677286625"><ele></ele><time>2013-8-1T16:21:37Z</time></trkpt>
<trkpt lat="46.07398800551891" lon="7.2520124819129705"><ele></ele><time>2013-8-1T16:21:40Z</time></trkpt>
<trkpt lat="46.07400150038302" lon="7.25198800675571"><ele></ele><time>2013-8-1T16:21:43Z</time></trkpt>
<trkpt lat="46.0740165039897" lon="7.251972164958715"><ele></ele><time>2013-8-1T16:21:46Z</time></trkpt>
<trkpt lat="46.07403100468218" lon="7.251955987885594"><ele></ele><time>2013-8-1T16:21:49Z</time></trkpt>
<trkpt lat="46.07404533773661" lon="7.2519412357360125"><ele></ele><time>2013-8-1T16:21:52Z</time></trkpt>
<trkpt lat="46.07409085147083" lon="7.251886501908302"><ele></ele><time>2013-8-1T16:21:55Z</time></trkpt>
<trkpt lat="46.07420082204044" lon="7.2517801355570555"><ele></ele><time>2013-8-1T16:21:58Z</time></trkpt>
<trkpt lat="46.07421708293259" lon="7.251762617379427"><ele></ele><time>2013-8-1T16:22:1Z</time></trkpt>
<trkpt lat="46.07423502020538" lon="7.2517468594014645"><ele></ele><time>2013-8-1T16:22:4Z</time></trkpt>
<trkpt lat="46.074249939993024" lon="7.251734454184771"><ele></ele><time>2013-8-1T16:22:7Z</time></trkpt>
<trkpt lat="46.074266619980335" lon="7.251723054796457"><ele></ele><time>2013-8-1T16:22:10Z</time></trkpt>
<trkpt lat="46.07434742152691" lon="7.251663375645876"><ele></ele><time>2013-8-1T16:22:13Z</time></trkpt>
<trkpt lat="46.07436208985746" lon="7.251649210229516"><ele></ele><time>2013-8-1T16:22:16Z</time></trkpt>
<trkpt lat="46.07437969185412" lon="7.2516390681266785"><ele></ele><time>2013-8-1T16:22:19Z</time></trkpt>
<trkpt lat="46.07439637184143" lon="7.251627165824175"><ele></ele><time>2013-8-1T16:22:22Z</time></trkpt>
<trkpt lat="46.074410704895854" lon="7.2516122460365295"><ele></ele><time>2013-8-1T16:22:25Z</time></trkpt>
<trkpt lat="46.074424451217055" lon="7.251603696495295"><ele></ele><time>2013-8-1T16:22:28Z</time></trkpt>
<trkpt lat="46.07447935268283" lon="7.251571761444211"><ele></ele><time>2013-8-1T16:22:31Z</time></trkpt>
<trkpt lat="46.0745551250875" lon="7.25153504870832"><ele></ele><time>2013-8-1T16:22:34Z</time></trkpt>
<trkpt lat="46.07457063160837" lon="7.251528762280941"><ele></ele><time>2013-8-1T16:22:37Z</time></trkpt>
<trkpt lat="46.07458756305277" lon="7.2515239007771015"><ele></ele><time>2013-8-1T16:22:40Z</time></trkpt>
<trkpt lat="46.074604243040085" lon="7.2515130043029785"><ele></ele><time>2013-8-1T16:22:43Z</time></trkpt>
<trkpt lat="46.07471982948482" lon="7.251466065645218"><ele></ele><time>2013-8-1T16:22:46Z</time></trkpt>
<trkpt lat="46.07473977841437" lon="7.251459360122681"><ele></ele><time>2013-8-1T16:22:49Z</time></trkpt>
<trkpt lat="46.07475679367781" lon="7.2514476254582405"><ele></ele><time>2013-8-1T16:22:52Z</time></trkpt>
<trkpt lat="46.07477221637964" lon="7.251431783661246"><ele></ele><time>2013-8-1T16:22:55Z</time></trkpt>
<trkpt lat="46.074787471443415" lon="7.251419881358743"><ele></ele><time>2013-8-1T16:22:58Z</time></trkpt>
<trkpt lat="46.07480624690652" lon="7.251402698457241"><ele></ele><time>2013-8-1T16:23:1Z</time></trkpt>
<trkpt lat="46.074841283261776" lon="7.251380570232868"><ele></ele><time>2013-8-1T16:23:4Z</time></trkpt>
<trkpt lat="46.07491571456194" lon="7.251303875818849"><ele></ele><time>2013-8-1T16:23:7Z</time></trkpt>
<trkpt lat="46.07492887414992" lon="7.251288034021854"><ele></ele><time>2013-8-1T16:23:10Z</time></trkpt>
<trkpt lat="46.07494513504207" lon="7.251275964081287"><ele></ele><time>2013-8-1T16:23:13Z</time></trkpt>
<trkpt lat="46.07496307231486" lon="7.251256434246898"><ele></ele><time>2013-8-1T16:23:16Z</time></trkpt>
<trkpt lat="46.0749748069793" lon="7.25123506039381"><ele></ele><time>2013-8-1T16:23:19Z</time></trkpt>
<trkpt lat="46.07501554302871" lon="7.251199604943395"><ele></ele><time>2013-8-1T16:23:22Z</time></trkpt>
<trkpt lat="46.07502912171185" lon="7.2511861100792885"><ele></ele><time>2013-8-1T16:23:25Z</time></trkpt>
<trkpt lat="46.07504135929048" lon="7.251175297424197"><ele></ele><time>2013-8-1T16:23:28Z</time></trkpt>
<trkpt lat="46.07505401596427" lon="7.2511695977300406"><ele></ele><time>2013-8-1T16:23:31Z</time></trkpt>
<trkpt lat="46.0750696901232" lon="7.251159120351076"><ele></ele><time>2013-8-1T16:23:34Z</time></trkpt>
<trkpt lat="46.07508486136794" lon="7.251144116744399"><ele></ele><time>2013-8-1T16:23:37Z</time></trkpt>
<trkpt lat="46.075117299333215" lon="7.251121150329709"><ele></ele><time>2013-8-1T16:23:40Z</time></trkpt>
<trkpt lat="46.075149066746235" lon="7.251083599403501"><ele></ele><time>2013-8-1T16:23:43Z</time></trkpt>
<trkpt lat="46.07515904121101" lon="7.251070272177458"><ele></ele><time>2013-8-1T16:23:46Z</time></trkpt>
<trkpt lat="46.07516549527645" lon="7.25105619058013"><ele></ele><time>2013-8-1T16:23:49Z</time></trkpt>
<trkpt lat="46.075182259082794" lon="7.251049820333719"><ele></ele><time>2013-8-1T16:23:52Z</time></trkpt>
<trkpt lat="46.075204806402326" lon="7.251038588583469"><ele></ele><time>2013-8-1T16:23:55Z</time></trkpt>
<trkpt lat="46.075334222987294" lon="7.2509637381881475"><ele></ele><time>2013-8-1T16:23:58Z</time></trkpt>
<trkpt lat="46.07534813694656" lon="7.2509506624192"><ele></ele><time>2013-8-1T16:24:1Z</time></trkpt>
<trkpt lat="46.07536724768579" lon="7.2509413585066795"><ele></ele><time>2013-8-1T16:24:4Z</time></trkpt>
<trkpt lat="46.07538250274956" lon="7.250933647155762"><ele></ele><time>2013-8-1T16:24:7Z</time></trkpt>
<trkpt lat="46.075405636802316" lon="7.250915039330721"><ele></ele><time>2013-8-1T16:24:10Z</time></trkpt>
<trkpt lat="46.075440756976604" lon="7.2508833557367325"><ele></ele><time>2013-8-1T16:24:13Z</time></trkpt>
<trkpt lat="46.07550663873553" lon="7.250813283026218"><ele></ele><time>2013-8-1T16:24:16Z</time></trkpt>
<trkpt lat="46.07551636174321" lon="7.250795094296336"><ele></ele><time>2013-8-1T16:24:19Z</time></trkpt>
<trkpt lat="46.07553320936859" lon="7.250782018527389"><ele></ele><time>2013-8-1T16:24:22Z</time></trkpt>
<trkpt lat="46.07554905116558" lon="7.250769697129726"><ele></ele><time>2013-8-1T16:24:25Z</time></trkpt>
<trkpt lat="46.075563384220004" lon="7.250769278034568"><ele></ele><time>2013-8-1T16:24:28Z</time></trkpt>
<trkpt lat="46.075627002865076" lon="7.2507125325500965"><ele></ele><time>2013-8-1T16:24:31Z</time></trkpt>
<trkpt lat="46.075645023956895" lon="7.250702138990164"><ele></ele><time>2013-8-1T16:24:34Z</time></trkpt>
<trkpt lat="46.07568240724504" lon="7.250669030472636"><ele></ele><time>2013-8-1T16:24:37Z</time></trkpt>
<trkpt lat="46.07569992542267" lon="7.250657044351101"><ele></ele><time>2013-8-1T16:24:40Z</time></trkpt>
<trkpt lat="46.07571627013385" lon="7.250640615820885"><ele></ele><time>2013-8-1T16:24:43Z</time></trkpt>
<trkpt lat="46.07572792097926" lon="7.250618152320385"><ele></ele><time>2013-8-1T16:24:46Z</time></trkpt>
<trkpt lat="46.07574342750013" lon="7.250608596950769"><ele></ele><time>2013-8-1T16:24:49Z</time></trkpt>
<trkpt lat="46.07580419629812" lon="7.250553946942091"><ele></ele><time>2013-8-1T16:24:52Z</time></trkpt>
<trkpt lat="46.07583881355822" lon="7.250543888658285"><ele></ele><time>2013-8-1T16:24:55Z</time></trkpt>
<trkpt lat="46.07585993595421" lon="7.250536093488336"><ele></ele><time>2013-8-1T16:24:58Z</time></trkpt>
<trkpt lat="46.075878040865064" lon="7.25053726695478"><ele></ele><time>2013-8-1T16:25:1Z</time></trkpt>
<trkpt lat="46.07589438557625" lon="7.250528298318386"><ele></ele><time>2013-8-1T16:25:4Z</time></trkpt>
<trkpt lat="46.07591441832483" lon="7.250521592795849"><ele></ele><time>2013-8-1T16:25:7Z</time></trkpt>
<trkpt lat="46.07594375498593" lon="7.250525197014213"><ele></ele><time>2013-8-1T16:25:10Z</time></trkpt>
<trkpt lat="46.075998740270734" lon="7.250525867566466"><ele></ele><time>2013-8-1T16:25:13Z</time></trkpt>
<trkpt lat="46.076021287590265" lon="7.250526286661625"><ele></ele><time>2013-8-1T16:25:16Z</time></trkpt>
<trkpt lat="46.076040314510465" lon="7.250542715191841"><ele></ele><time>2013-8-1T16:25:19Z</time></trkpt>
<trkpt lat="46.076059425249696" lon="7.25055243819952"><ele></ele><time>2013-8-1T16:25:22Z</time></trkpt>
<trkpt lat="46.07607719488442" lon="7.250558640807867"><ele></ele><time>2013-8-1T16:25:25Z</time></trkpt>
<trkpt lat="46.07610376551747" lon="7.250560401007533"><ele></ele><time>2013-8-1T16:25:28Z</time></trkpt>
<trkpt lat="46.07615573331714" lon="7.250565094873309"><ele></ele><time>2013-8-1T16:25:31Z</time></trkpt>
<trkpt lat="46.07617584988475" lon="7.2505582217127085"><ele></ele><time>2013-8-1T16:25:34Z</time></trkpt>
<trkpt lat="46.07619144022465" lon="7.250570207834244"><ele></ele><time>2013-8-1T16:25:37Z</time></trkpt>
<trkpt lat="46.076206946745515" lon="7.250574314966798"><ele></ele><time>2013-8-1T16:25:40Z</time></trkpt>
<trkpt lat="46.076223039999604" lon="7.250587055459619"><ele></ele><time>2013-8-1T16:25:43Z</time></trkpt>
<trkpt lat="46.07624374330044" lon="7.250591916963458"><ele></ele><time>2013-8-1T16:25:46Z</time></trkpt>
<trkpt lat="46.0762922745198" lon="7.250593928620219"><ele></ele><time>2013-8-1T16:25:49Z</time></trkpt>
<trkpt lat="46.07633627951145" lon="7.250596527010202"><ele></ele><time>2013-8-1T16:25:52Z</time></trkpt>
<trkpt lat="46.07638472691178" lon="7.250582864508033"><ele></ele><time>2013-8-1T16:25:55Z</time></trkpt>
<trkpt lat="46.07640308327973" lon="7.250572722405195"><ele></ele><time>2013-8-1T16:25:58Z</time></trkpt>
<trkpt lat="46.07641397975385" lon="7.250575656071305"><ele></ele><time>2013-8-1T16:26:1Z</time></trkpt>
<trkpt lat="46.07642722316086" lon="7.250566938892007"><ele></ele><time>2013-8-1T16:26:4Z</time></trkpt>
<trkpt lat="46.076446920633316" lon="7.250562999397516"><ele></ele><time>2013-8-1T16:26:7Z</time></trkpt>
<trkpt lat="46.076535265892744" lon="7.250576661899686"><ele></ele><time>2013-8-1T16:26:10Z</time></trkpt>
<trkpt lat="46.07656384818256" lon="7.250555539503694"><ele></ele><time>2013-8-1T16:26:13Z</time></trkpt>
<trkpt lat="46.076580863446" lon="7.2505502589046955"><ele></ele><time>2013-8-1T16:26:16Z</time></trkpt>
<trkpt lat="46.07659771107137" lon="7.250542547553778"><ele></ele><time>2013-8-1T16:26:19Z</time></trkpt>
<trkpt lat="46.07661405578256" lon="7.250533998012543"><ele></ele><time>2013-8-1T16:26:22Z</time></trkpt>
<trkpt lat="46.076630568131804" lon="7.250536093488336"><ele></ele><time>2013-8-1T16:26:25Z</time></trkpt>
<trkpt lat="46.076648253947496" lon="7.250523939728737"><ele></ele><time>2013-8-1T16:26:28Z</time></trkpt>
<trkpt lat="46.07671866193414" lon="7.2505031526088715"><ele></ele><time>2013-8-1T16:26:31Z</time></trkpt>
<trkpt lat="46.0767687857151" lon="7.250496279448271"><ele></ele><time>2013-8-1T16:26:34Z</time></trkpt>
<trkpt lat="46.07678764499724" lon="7.2504913341254"><ele></ele><time>2013-8-1T16:26:37Z</time></trkpt>
<trkpt lat="46.076808515936136" lon="7.250495357438922"><ele></ele><time>2013-8-1T16:26:40Z</time></trkpt>
<trkpt lat="46.076827961951494" lon="7.250501057133079"><ele></ele><time>2013-8-1T16:26:43Z</time></trkpt>
<trkpt lat="46.076849000528455" lon="7.250508181750774"><ele></ele><time>2013-8-1T16:26:46Z</time></trkpt>
<trkpt lat="46.0768657643348" lon="7.2505193296819925"><ele></ele><time>2013-8-1T16:26:49Z</time></trkpt>
<trkpt lat="46.07692728750408" lon="7.2505455650389194"><ele></ele><time>2013-8-1T16:26:52Z</time></trkpt>
<trkpt lat="46.07697322033346" lon="7.250573141500354"><ele></ele><time>2013-8-1T16:26:55Z</time></trkpt>
<trkpt lat="46.07699300162494" lon="7.2505852952599525"><ele></ele><time>2013-8-1T16:26:58Z</time></trkpt>
<trkpt lat="46.077012699097395" lon="7.250586217269301"><ele></ele><time>2013-8-1T16:27:1Z</time></trkpt>
<trkpt lat="46.07703600078821" lon="7.250581355765462"><ele></ele><time>2013-8-1T16:27:4Z</time></trkpt>
<trkpt lat="46.07705594971776" lon="7.250579008832574"><ele></ele><time>2013-8-1T16:27:7Z</time></trkpt>
<trkpt lat="46.0772022139281" lon="7.250551348552108"><ele></ele><time>2013-8-1T16:27:10Z</time></trkpt>
<trkpt lat="46.07722509652376" lon="7.250544643029571"><ele></ele><time>2013-8-1T16:27:13Z</time></trkpt>
<trkpt lat="46.07724647037685" lon="7.250543301925063"><ele></ele><time>2013-8-1T16:27:16Z</time></trkpt>
<trkpt lat="46.077262898907065" lon="7.250540032982826"><ele></ele><time>2013-8-1T16:27:19Z</time></trkpt>
<trkpt lat="46.077280919998884" lon="7.250533662736416"><ele></ele><time>2013-8-1T16:27:22Z</time></trkpt>
<trkpt lat="46.07729424722493" lon="7.25053776986897"><ele></ele><time>2013-8-1T16:27:25Z</time></trkpt>
<trkpt lat="46.07734805904329" lon="7.250570710748434"><ele></ele><time>2013-8-1T16:27:28Z</time></trkpt>
<trkpt lat="46.077317548915744" lon="7.25062133744359"><ele></ele><time>2013-8-1T16:27:31Z</time></trkpt>
<trkpt lat="46.07729667797685" lon="7.250624857842922"><ele></ele><time>2013-8-1T16:27:34Z</time></trkpt>
<trkpt lat="46.077277483418584" lon="7.250627875328064"><ele></ele><time>2013-8-1T16:27:37Z</time></trkpt>
<trkpt lat="46.07726373709738" lon="7.250620247796178"><ele></ele><time>2013-8-1T16:27:40Z</time></trkpt>
<trkpt lat="46.07724152505398" lon="7.250622678548098"><ele></ele><time>2013-8-1T16:27:43Z</time></trkpt>
<trkpt lat="46.077220318838954" lon="7.250637179240584"><ele></ele><time>2013-8-1T16:27:46Z</time></trkpt>
<trkpt lat="46.07715946622193" lon="7.2506501711905"><ele></ele><time>2013-8-1T16:27:49Z</time></trkpt>
<trkpt lat="46.07714479789138" lon="7.250651344656944"><ele></ele><time>2013-8-1T16:27:52Z</time></trkpt>
<trkpt lat="46.077134404331446" lon="7.250659894198179"><ele></ele><time>2013-8-1T16:27:55Z</time></trkpt>
<trkpt lat="46.07712401077151" lon="7.250667102634907"><ele></ele><time>2013-8-1T16:27:58Z</time></trkpt>
<trkpt lat="46.07711596414447" lon="7.250677663832903"><ele></ele><time>2013-8-1T16:28:1Z</time></trkpt>
<trkpt lat="46.07701689004898" lon="7.250719154253602"><ele></ele><time>2013-8-1T16:28:4Z</time></trkpt>
<trkpt lat="46.07695478014648" lon="7.2507290448993444"><ele></ele><time>2013-8-1T16:28:7Z</time></trkpt>
<trkpt lat="46.07693583704531" lon="7.250733990222216"><ele></ele><time>2013-8-1T16:28:10Z</time></trkpt>
<trkpt lat="46.076917396858335" lon="7.250738516449928"><ele></ele><time>2013-8-1T16:28:13Z</time></trkpt>
<trkpt lat="46.076902225613594" lon="7.250739857554436"><ele></ele><time>2013-8-1T16:28:16Z</time></trkpt>
<trkpt lat="46.076888060197234" lon="7.250742120668292"><ele></ele><time>2013-8-1T16:28:19Z</time></trkpt>
<trkpt lat="46.07676928862929" lon="7.250790651887655"><ele></ele><time>2013-8-1T16:28:22Z</time></trkpt>
<trkpt lat="46.076754285022616" lon="7.250797105953097"><ele></ele><time>2013-8-1T16:28:25Z</time></trkpt>
<trkpt lat="46.07673240825534" lon="7.250808756798506"><ele></ele><time>2013-8-1T16:28:28Z</time></trkpt>
<trkpt lat="46.07671212404966" lon="7.250824766233563"><ele></ele><time>2013-8-1T16:28:31Z</time></trkpt>
<trkpt lat="46.07667708769441" lon="7.250860724598169"><ele></ele><time>2013-8-1T16:28:34Z</time></trkpt>
<trkpt lat="46.076635010540485" lon="7.250890396535397"><ele></ele><time>2013-8-1T16:28:37Z</time></trkpt>
<trkpt lat="46.076618330553174" lon="7.250902550294995"><ele></ele><time>2013-8-1T16:28:40Z</time></trkpt>
<trkpt lat="46.07660408131778" lon="7.250914955511689"><ele></ele><time>2013-8-1T16:28:43Z</time></trkpt>
<trkpt lat="46.07658388093114" lon="7.250931384041905"><ele></ele><time>2013-8-1T16:28:46Z</time></trkpt>
<trkpt lat="46.07657114043832" lon="7.250940352678299"><ele></ele><time>2013-8-1T16:28:49Z</time></trkpt>
<trkpt lat="46.0765565559268" lon="7.250947309657931"><ele></ele><time>2013-8-1T16:28:52Z</time></trkpt>
<trkpt lat="46.076506432145834" lon="7.250976227223873"><ele></ele><time>2013-8-1T16:28:55Z</time></trkpt>
<trkpt lat="46.07642713934183" lon="7.250998271629214"><ele></ele><time>2013-8-1T16:28:58Z</time></trkpt>
<trkpt lat="46.07640995644033" lon="7.251004809513688"><ele></ele><time>2013-8-1T16:29:1Z</time></trkpt>
<trkpt lat="46.07639528810978" lon="7.251010341569781"><ele></ele><time>2013-8-1T16:29:4Z</time></trkpt>
<trkpt lat="46.07638271525502" lon="7.251024255529046"><ele></ele><time>2013-8-1T16:29:7Z</time></trkpt>
<trkpt lat="46.076371064409614" lon="7.251035654917359"><ele></ele><time>2013-8-1T16:29:10Z</time></trkpt>
<trkpt lat="46.076308535411954" lon="7.251070439815521"><ele></ele><time>2013-8-1T16:29:13Z</time></trkpt>
<trkpt lat="46.07628791593015" lon="7.251078151166439"><ele></ele><time>2013-8-1T16:29:16Z</time></trkpt>
<trkpt lat="46.07626763172448" lon="7.251090053468943"><ele></ele><time>2013-8-1T16:29:19Z</time></trkpt>
<trkpt lat="46.076250448822975" lon="7.251102961599827"><ele></ele><time>2013-8-1T16:29:22Z</time></trkpt>
<trkpt lat="46.07623502612114" lon="7.251117546111345"><ele></ele><time>2013-8-1T16:29:25Z</time></trkpt>
<trkpt lat="46.0761609300971" lon="7.251183846965432"><ele></ele><time>2013-8-1T16:29:28Z</time></trkpt>
<trkpt lat="46.07612740248442" lon="7.251202454790473"><ele></ele><time>2013-8-1T16:29:31Z</time></trkpt>
<trkpt lat="46.0761128179729" lon="7.251214943826199"><ele></ele><time>2013-8-1T16:29:34Z</time></trkpt>
<trkpt lat="46.076094042509794" lon="7.251232294365764"><ele></ele><time>2013-8-1T16:29:37Z</time></trkpt>
<trkpt lat="46.07607384212315" lon="7.251251740381122"><ele></ele><time>2013-8-1T16:29:40Z</time></trkpt>
<trkpt lat="46.07606143690646" lon="7.251271437853575"><ele></ele><time>2013-8-1T16:29:43Z</time></trkpt>
<trkpt lat="46.076045678928494" lon="7.251293817535043"><ele></ele><time>2013-8-1T16:29:46Z</time></trkpt>
<trkpt lat="46.07594476081431" lon="7.251394651830196"><ele></ele><time>2013-8-1T16:29:49Z</time></trkpt>
<trkpt lat="46.07592573389411" lon="7.251410745084286"><ele></ele><time>2013-8-1T16:29:52Z</time></trkpt>
<trkpt lat="46.07590913772583" lon="7.251427341252565"><ele></ele><time>2013-8-1T16:29:55Z</time></trkpt>
<trkpt lat="46.07589304447174" lon="7.2514458652585745"><ele></ele><time>2013-8-1T16:29:58Z</time></trkpt>
<trkpt lat="46.07582858763635" lon="7.251540496945381"><ele></ele><time>2013-8-1T16:30:1Z</time></trkpt>
<trkpt lat="46.075823809951544" lon="7.251561367884278"><ele></ele><time>2013-8-1T16:30:4Z</time></trkpt>
<trkpt lat="46.07581685297191" lon="7.251577628776431"><ele></ele><time>2013-8-1T16:30:7Z</time></trkpt>
<trkpt lat="46.075810650363564" lon="7.251594476401806"><ele></ele><time>2013-8-1T16:30:10Z</time></trkpt>
<trkpt lat="46.07580604031682" lon="7.251612162217498"><ele></ele><time>2013-8-1T16:30:13Z</time></trkpt>
<trkpt lat="46.07579874806106" lon="7.251632194966078"><ele></ele><time>2013-8-1T16:30:16Z</time></trkpt>
<trkpt lat="46.07579003088176" lon="7.251656334847212"><ele></ele><time>2013-8-1T16:30:19Z</time></trkpt>
<trkpt lat="46.0757793020457" lon="7.251679385080934"><ele></ele><time>2013-8-1T16:30:22Z</time></trkpt>
<trkpt lat="46.07572691515088" lon="7.251829421147704"><ele></ele><time>2013-8-1T16:30:25Z</time></trkpt>
<trkpt lat="46.07571694068611" lon="7.251857919618487"><ele></ele><time>2013-8-1T16:30:28Z</time></trkpt>
<trkpt lat="46.07570445165038" lon="7.251886082813144"><ele></ele><time>2013-8-1T16:30:31Z</time></trkpt>
<trkpt lat="46.075693387538195" lon="7.251909468322992"><ele></ele><time>2013-8-1T16:30:34Z</time></trkpt>
<trkpt lat="46.075681652873755" lon="7.251932434737682"><ele></ele><time>2013-8-1T16:30:37Z</time></trkpt>
<trkpt lat="46.075647957623005" lon="7.252006195485592"><ele></ele><time>2013-8-1T16:30:40Z</time></trkpt>
<trkpt lat="46.0755876917392" lon="7.252115998417139"><ele></ele><time>2013-8-1T16:30:43Z</time></trkpt>
<trkpt lat="46.07557444833219" lon="7.252138294279575"><ele></ele><time>2013-8-1T16:30:46Z</time></trkpt>
<trkpt lat="46.07556070201099" lon="7.252162015065551"><ele></ele><time>2013-8-1T16:30:49Z</time></trkpt>
<trkpt lat="46.07554787769914" lon="7.252185400575399"><ele></ele><time>2013-8-1T16:30:52Z</time></trkpt>
<trkpt lat="46.0755358915776" lon="7.252208199352026"><ele></ele><time>2013-8-1T16:30:55Z</time></trkpt>
<trkpt lat="46.07547512277961" lon="7.252334598451853"><ele></ele><time>2013-8-1T16:30:58Z</time></trkpt>
<trkpt lat="46.0754219815135" lon="7.252425542101264"><ele></ele><time>2013-8-1T16:31:1Z</time></trkpt>
<trkpt lat="46.075411420315504" lon="7.252449933439493"><ele></ele><time>2013-8-1T16:31:4Z</time></trkpt>
<trkpt lat="46.07540144585073" lon="7.252472145482898"><ele></ele><time>2013-8-1T16:31:7Z</time></trkpt>
<trkpt lat="46.07539029791951" lon="7.2524957824498415"><ele></ele><time>2013-8-1T16:31:10Z</time></trkpt>
<trkpt lat="46.07537906616926" lon="7.2525187488645315"><ele></ele><time>2013-8-1T16:31:13Z</time></trkpt>
<trkpt lat="46.075300024822354" lon="7.252627797424793"><ele></ele><time>2013-8-1T16:31:16Z</time></trkpt>
<trkpt lat="46.075289798900485" lon="7.252645483240485"><ele></ele><time>2013-8-1T16:31:19Z</time></trkpt>
<trkpt lat="46.0752768907696" lon="7.252661744132638"><ele></ele><time>2013-8-1T16:31:22Z</time></trkpt>
<trkpt lat="46.075262976810336" lon="7.252675825729966"><ele></ele><time>2013-8-1T16:31:25Z</time></trkpt>
<trkpt lat="46.07524763792753" lon="7.252693008631468"><ele></ele><time>2013-8-1T16:31:28Z</time></trkpt>
<trkpt lat="46.075156442821026" lon="7.252793340012431"><ele></ele><time>2013-8-1T16:31:31Z</time></trkpt>
<trkpt lat="46.07514311559498" lon="7.25280792452395"><ele></ele><time>2013-8-1T16:31:34Z</time></trkpt>
<trkpt lat="46.075129033997655" lon="7.252823766320944"><ele></ele><time>2013-8-1T16:31:37Z</time></trkpt>
<trkpt lat="46.07511419802904" lon="7.2528380155563354"><ele></ele><time>2013-8-1T16:31:40Z</time></trkpt>
<trkpt lat="46.07510036788881" lon="7.252853773534298"><ele></ele><time>2013-8-1T16:31:43Z</time></trkpt>
<trkpt lat="46.075034737586975" lon="7.252951422706246"><ele></ele><time>2013-8-1T16:31:46Z</time></trkpt>
<trkpt lat="46.07502333819866" lon="7.252971203997731"><ele></ele><time>2013-8-1T16:31:49Z</time></trkpt>
<trkpt lat="46.075012777000666" lon="7.2529893927276134"><ele></ele><time>2013-8-1T16:31:52Z</time></trkpt>
<trkpt lat="46.07500422745943" lon="7.253008503466845"><ele></ele><time>2013-8-1T16:31:55Z</time></trkpt>
<trkpt lat="46.07499643228948" lon="7.253031469881535"><ele></ele><time>2013-8-1T16:31:58Z</time></trkpt>
<trkpt lat="46.07498888857663" lon="7.25305812433362"><ele></ele><time>2013-8-1T16:32:1Z</time></trkpt>
<trkpt lat="46.074955528602004" lon="7.253172537311912"><ele></ele><time>2013-8-1T16:32:4Z</time></trkpt>
<trkpt lat="46.07492267154157" lon="7.253278065472841"><ele></ele><time>2013-8-1T16:32:7Z</time></trkpt>
<trkpt lat="46.074915463104844" lon="7.253297679126263"><ele></ele><time>2013-8-1T16:32:10Z</time></trkpt>
<trkpt lat="46.07490934431553" lon="7.2533198073506355"><ele></ele><time>2013-8-1T16:32:13Z</time></trkpt>
<trkpt lat="46.07490196824074" lon="7.253342689946294"><ele></ele><time>2013-8-1T16:32:16Z</time></trkpt>
<trkpt lat="46.074892496690154" lon="7.253366829827428"><ele></ele><time>2013-8-1T16:32:19Z</time></trkpt>
<trkpt lat="46.074829548597336" lon="7.253513429313898"><ele></ele><time>2013-8-1T16:32:22Z</time></trkpt>
<trkpt lat="46.07482133433223" lon="7.253535557538271"><ele></ele><time>2013-8-1T16:32:25Z</time></trkpt>
<trkpt lat="46.074812365695834" lon="7.253555925562978"><ele></ele><time>2013-8-1T16:32:28Z</time></trkpt>
<trkpt lat="46.07480440288782" lon="7.253577467054129"><ele></ele><time>2013-8-1T16:32:31Z</time></trkpt>
<trkpt lat="46.07479702681303" lon="7.253598505631089"><ele></ele><time>2013-8-1T16:32:34Z</time></trkpt>
<trkpt lat="46.07475847005844" lon="7.253709398210049"><ele></ele><time>2013-8-1T16:32:37Z</time></trkpt>
<trkpt lat="46.074737096205354" lon="7.2537860088050365"><ele></ele><time>2013-8-1T16:32:40Z</time></trkpt>
<trkpt lat="46.07472963631153" lon="7.253810819238424"><ele></ele><time>2013-8-1T16:32:43Z</time></trkpt>
<trkpt lat="46.07472192496061" lon="7.253835294395685"><ele></ele><time>2013-8-1T16:32:46Z</time></trkpt>
<trkpt lat="46.0747121181339" lon="7.2538593504577875"><ele></ele><time>2013-8-1T16:32:49Z</time></trkpt>
<trkpt lat="46.074699964374304" lon="7.25388390943408"><ele></ele><time>2013-8-1T16:32:52Z</time></trkpt>
<trkpt lat="46.07468772679567" lon="7.253906959667802"><ele></ele><time>2013-8-1T16:32:55Z</time></trkpt>
<trkpt lat="46.07463232241571" lon="7.254002261906862"><ele></ele><time>2013-8-1T16:32:58Z</time></trkpt>
<trkpt lat="46.074614049866796" lon="7.2540457639843225"><ele></ele><time>2013-8-1T16:33:1Z</time></trkpt>
<trkpt lat="46.07460441067815" lon="7.254069233313203"><ele></ele><time>2013-8-1T16:33:4Z</time></trkpt>
<trkpt lat="46.074590999633074" lon="7.254088511690497"><ele></ele><time>2013-8-1T16:33:7Z</time></trkpt>
<trkpt lat="46.07457281090319" lon="7.2541064489632845"><ele></ele><time>2013-8-1T16:33:10Z</time></trkpt>
<trkpt lat="46.07455520890653" lon="7.254126984626055"><ele></ele><time>2013-8-1T16:33:13Z</time></trkpt>
<trkpt lat="46.074487483128905" lon="7.254240307956934"><ele></ele><time>2013-8-1T16:33:16Z</time></trkpt>
<trkpt lat="46.07447365298867" lon="7.254262855276465"><ele></ele><time>2013-8-1T16:33:19Z</time></trkpt>
<trkpt lat="46.074460661038756" lon="7.25428557023406"><ele></ele><time>2013-8-1T16:33:22Z</time></trkpt>
<trkpt lat="46.07444859109819" lon="7.254307195544243"><ele></ele><time>2013-8-1T16:33:25Z</time></trkpt>
<trkpt lat="46.074435180053115" lon="7.254327731207013"><ele></ele><time>2013-8-1T16:33:28Z</time></trkpt>
<trkpt lat="46.07439243234694" lon="7.2543921042233706"><ele></ele><time>2013-8-1T16:33:31Z</time></trkpt>
<trkpt lat="46.07428380288184" lon="7.254571560770273"><ele></ele><time>2013-8-1T16:33:34Z</time></trkpt>
<trkpt lat="46.07424834743142" lon="7.2546695452183485"><ele></ele><time>2013-8-1T16:33:37Z</time></trkpt>
<trkpt lat="46.07424373738468" lon="7.254708521068096"><ele></ele><time>2013-8-1T16:33:40Z</time></trkpt>
<trkpt lat="46.0742424800992" lon="7.254749173298478"><ele></ele><time>2013-8-1T16:33:43Z</time></trkpt>
<trkpt lat="46.074242228642106" lon="7.254786724224687"><ele></ele><time>2013-8-1T16:33:46Z</time></trkpt>
<trkpt lat="46.07424323447049" lon="7.254827544093132"><ele></ele><time>2013-8-1T16:33:49Z</time></trkpt>
<trkpt lat="46.07422580011189" lon="7.255043964833021"><ele></ele><time>2013-8-1T16:33:52Z</time></trkpt>
<trkpt lat="46.07420224696398" lon="7.255150079727173"><ele></ele><time>2013-8-1T16:33:55Z</time></trkpt>
<trkpt lat="46.07419503852725" lon="7.255186289548874"><ele></ele><time>2013-8-1T16:33:58Z</time></trkpt>
<trkpt lat="46.07418439351022" lon="7.255219565704465"><ele></ele><time>2013-8-1T16:34:1Z</time></trkpt>
<trkpt lat="46.07417433522642" lon="7.255249237641692"><ele></ele><time>2013-8-1T16:34:4Z</time></trkpt>
<trkpt lat="46.07416335493326" lon="7.255280669778585"><ele></ele><time>2013-8-1T16:34:7Z</time></trkpt>
<trkpt lat="46.07409428805113" lon="7.255474543198943"><ele></ele><time>2013-8-1T16:34:10Z</time></trkpt>
<trkpt lat="46.074049612507224" lon="7.255563642829657"><ele></ele><time>2013-8-1T16:34:13Z</time></trkpt>
<trkpt lat="46.07402949593961" lon="7.255591722205281"><ele></ele><time>2013-8-1T16:34:16Z</time></trkpt>
<trkpt lat="46.0740112233907" lon="7.255619382485747"><ele></ele><time>2013-8-1T16:34:19Z</time></trkpt>
<trkpt lat="46.073993453755975" lon="7.255646036937833"><ele></ele><time>2013-8-1T16:34:22Z</time></trkpt>
<trkpt lat="46.07397744432092" lon="7.255669757723808"><ele></ele><time>2013-8-1T16:34:25Z</time></trkpt>
<trkpt lat="46.07389488257468" lon="7.255842005833983"><ele></ele><time>2013-8-1T16:34:28Z</time></trkpt>
<trkpt lat="46.07387937605381" lon="7.25587117485702"><ele></ele><time>2013-8-1T16:34:31Z</time></trkpt>
<trkpt lat="46.0738626960665" lon="7.255899840965867"><ele></ele><time>2013-8-1T16:34:34Z</time></trkpt>
<trkpt lat="46.07384626753628" lon="7.25592490285635"><ele></ele><time>2013-8-1T16:34:37Z</time></trkpt>
<trkpt lat="46.0738315153867" lon="7.25595130585134"><ele></ele><time>2013-8-1T16:34:40Z</time></trkpt>
<trkpt lat="46.07377150095999" lon="7.256054654717445"><ele></ele><time>2013-8-1T16:34:43Z</time></trkpt>
<trkpt lat="46.07370536774397" lon="7.256164709106088"><ele></ele><time>2013-8-1T16:34:46Z</time></trkpt>
<trkpt lat="46.07369086705148" lon="7.256194297224283"><ele></ele><time>2013-8-1T16:34:49Z</time></trkpt>
<trkpt lat="46.073682736605406" lon="7.256225226446986"><ele></ele><time>2013-8-1T16:34:52Z</time></trkpt>
<trkpt lat="46.07367854565382" lon="7.256254479289055"><ele></ele><time>2013-8-1T16:34:55Z</time></trkpt>
<trkpt lat="46.07368818484247" lon="7.256458662450314"><ele></ele><time>2013-8-1T16:34:58Z</time></trkpt>
<trkpt lat="46.0736967343837" lon="7.256517084315419"><ele></ele><time>2013-8-1T16:35:1Z</time></trkpt>
<trkpt lat="46.07370008714497" lon="7.25654449313879"><ele></ele><time>2013-8-1T16:35:4Z</time></trkpt>
<trkpt lat="46.073701260611415" lon="7.2565733268857"><ele></ele><time>2013-8-1T16:35:7Z</time></trkpt>
<trkpt lat="46.07370427809656" lon="7.25660115480423"><ele></ele><time>2013-8-1T16:35:10Z</time></trkpt>
<trkpt lat="46.07370637357235" lon="7.256626971065998"><ele></ele><time>2013-8-1T16:35:13Z</time></trkpt>
<trkpt lat="46.07370285317302" lon="7.256683045998216"><ele></ele><time>2013-8-1T16:35:16Z</time></trkpt>
<trkpt lat="46.073693884536624" lon="7.2567962016910315"><ele></ele><time>2013-8-1T16:35:19Z</time></trkpt>
<trkpt lat="46.073692459613085" lon="7.256826460361481"><ele></ele><time>2013-8-1T16:35:22Z</time></trkpt>
<trkpt lat="46.073691034689546" lon="7.256851103156805"><ele></ele><time>2013-8-1T16:35:25Z</time></trkpt>
<trkpt lat="46.073687095195055" lon="7.256874572485685"><ele></ele><time>2013-8-1T16:35:28Z</time></trkpt>
<trkpt lat="46.07365951873362" lon="7.256995355710387"><ele></ele><time>2013-8-1T16:35:31Z</time></trkpt>
<trkpt lat="46.073650382459164" lon="7.2570194117724895"><ele></ele><time>2013-8-1T16:35:34Z</time></trkpt>
<trkpt lat="46.073641665279865" lon="7.257044138386846"><ele></ele><time>2013-8-1T16:35:37Z</time></trkpt>
<trkpt lat="46.073637222871184" lon="7.257065093144774"><ele></ele><time>2013-8-1T16:35:40Z</time></trkpt>
<trkpt lat="46.07363470830023" lon="7.2570847906172276"><ele></ele><time>2013-8-1T16:35:43Z</time></trkpt>
<trkpt lat="46.0736311879009" lon="7.2571413684636354"><ele></ele><time>2013-8-1T16:35:46Z</time></trkpt>
<trkpt lat="46.07361593283713" lon="7.257223092019558"><ele></ele><time>2013-8-1T16:35:49Z</time></trkpt>
<trkpt lat="46.07361123897135" lon="7.257251674309373"><ele></ele><time>2013-8-1T16:35:52Z</time></trkpt>
<trkpt lat="46.07360629364848" lon="7.257279334589839"><ele></ele><time>2013-8-1T16:35:55Z</time></trkpt>
<trkpt lat="46.07360654510558" lon="7.257308000698686"><ele></ele><time>2013-8-1T16:35:58Z</time></trkpt>
<trkpt lat="46.07360268943012" lon="7.257340271025896"><ele></ele><time>2013-8-1T16:36:1Z</time></trkpt>
<trkpt lat="46.07359640300274" lon="7.257449654862285"><ele></ele><time>2013-8-1T16:36:4Z</time></trkpt>
<trkpt lat="46.07359388843179" lon="7.257530372589827"><ele></ele><time>2013-8-1T16:36:7Z</time></trkpt>
<trkpt lat="46.073599169030786" lon="7.257562223821878"><ele></ele><time>2013-8-1T16:36:10Z</time></trkpt>
<trkpt lat="46.073608975857496" lon="7.257597595453262"><ele></ele><time>2013-8-1T16:36:13Z</time></trkpt>
<trkpt lat="46.073616268113256" lon="7.257624417543411"><ele></ele><time>2013-8-1T16:36:16Z</time></trkpt>
<trkpt lat="46.07362465001643" lon="7.2576505690813065"><ele></ele><time>2013-8-1T16:36:19Z</time></trkpt>
<trkpt lat="46.07367024756968" lon="7.257786775007844"><ele></ele><time>2013-8-1T16:36:22Z</time></trkpt>
<trkpt lat="46.073683658614755" lon="7.25781443528831"><ele></ele><time>2013-8-1T16:36:25Z</time></trkpt>
<trkpt lat="46.07369581237435" lon="7.2578408382833"><ele></ele><time>2013-8-1T16:36:28Z</time></trkpt>
<trkpt lat="46.07370796613395" lon="7.257865900173783"><ele></ele><time>2013-8-1T16:36:31Z</time></trkpt>
<trkpt lat="46.073720371350646" lon="7.257890040054917"><ele></ele><time>2013-8-1T16:36:34Z</time></trkpt>
<trkpt lat="46.07372984290123" lon="7.257913006469607"><ele></ele><time>2013-8-1T16:36:37Z</time></trkpt>
<trkpt lat="46.07373914681375" lon="7.257933542132378"><ele></ele><time>2013-8-1T16:36:40Z</time></trkpt>
<trkpt lat="46.073785247281194" lon="7.258040830492973"><ele></ele><time>2013-8-1T16:36:43Z</time></trkpt>
<trkpt lat="46.07379522174597" lon="7.258060444146395"><ele></ele><time>2013-8-1T16:36:46Z</time></trkpt>
<trkpt lat="46.07380595058203" lon="7.258084919303656"><ele></ele><time>2013-8-1T16:36:49Z</time></trkpt>
<trkpt lat="46.07381860725582" lon="7.258107466623187"><ele></ele><time>2013-8-1T16:36:52Z</time></trkpt>
<trkpt lat="46.073873760178685" lon="7.258187513798475"><ele></ele><time>2013-8-1T16:36:55Z</time></trkpt>
<trkpt lat="46.07393117621541" lon="7.258279211819172"><ele></ele><time>2013-8-1T16:36:58Z</time></trkpt>
<trkpt lat="46.07394592836499" lon="7.2583014238625765"><ele></ele><time>2013-8-1T16:37:1Z</time></trkpt>
<trkpt lat="46.07395900413394" lon="7.258326485753059"><ele></ele><time>2013-8-1T16:37:4Z</time></trkpt>
<trkpt lat="46.07397082261741" lon="7.25834995508194"><ele></ele><time>2013-8-1T16:37:7Z</time></trkpt>
<trkpt lat="46.07398389838636" lon="7.258371412754059"><ele></ele><time>2013-8-1T16:37:10Z</time></trkpt>
<trkpt lat="46.07408741489053" lon="7.2584969736635685"><ele></ele><time>2013-8-1T16:37:13Z</time></trkpt>
<trkpt lat="46.074105855077505" lon="7.258515581488609"><ele></ele><time>2013-8-1T16:37:16Z</time></trkpt>
<trkpt lat="46.07412454672158" lon="7.258534608408809"><ele></ele><time>2013-8-1T16:37:19Z</time></trkpt>
<trkpt lat="46.07414281927049" lon="7.25855472497642"><ele></ele><time>2013-8-1T16:37:22Z</time></trkpt>
<trkpt lat="46.07416234910488" lon="7.2585726622492075"><ele></ele><time>2013-8-1T16:37:25Z</time></trkpt>
<trkpt lat="46.07418137602508" lon="7.2585903480648994"><ele></ele><time>2013-8-1T16:37:28Z</time></trkpt>
<trkpt lat="46.07420023530722" lon="7.25861088372767"><ele></ele><time>2013-8-1T16:37:31Z</time></trkpt>
<trkpt lat="46.0743220243603" lon="7.258738875389099"><ele></ele><time>2013-8-1T16:37:34Z</time></trkpt>
<trkpt lat="46.07434364967048" lon="7.258759997785091"><ele></ele><time>2013-8-1T16:37:37Z</time></trkpt>
<trkpt lat="46.07436602935195" lon="7.258783467113972"><ele></ele><time>2013-8-1T16:37:40Z</time></trkpt>
<trkpt lat="46.074387822300196" lon="7.258808445185423"><ele></ele><time>2013-8-1T16:37:43Z</time></trkpt>
<trkpt lat="46.074407771229744" lon="7.258834596723318"><ele></ele><time>2013-8-1T16:37:46Z</time></trkpt>
<trkpt lat="46.07442461885512" lon="7.25886301137507"><ele></ele><time>2013-8-1T16:37:49Z</time></trkpt>
<trkpt lat="46.07445806264877" lon="7.258920930325985"><ele></ele><time>2013-8-1T16:37:52Z</time></trkpt>
<trkpt lat="46.0745464079082" lon="7.259111786261201"><ele></ele><time>2013-8-1T16:37:55Z</time></trkpt>
<trkpt lat="46.0746156424284" lon="7.259271796792746"><ele></ele><time>2013-8-1T16:37:58Z</time></trkpt>
<trkpt lat="46.07462947256863" lon="7.259304150938988"><ele></ele><time>2013-8-1T16:38:1Z</time></trkpt>
<trkpt lat="46.07464548200369" lon="7.2593324817717075"><ele></ele><time>2013-8-1T16:38:4Z</time></trkpt>
<trkpt lat="46.07466165907681" lon="7.259364249184728"><ele></ele><time>2013-8-1T16:38:7Z</time></trkpt>
<trkpt lat="46.074766013771296" lon="7.25960279814899"><ele></ele><time>2013-8-1T16:38:10Z</time></trkpt>
<trkpt lat="46.07482426799834" lon="7.259819554165006"><ele></ele><time>2013-8-1T16:38:13Z</time></trkpt>
<trkpt lat="46.07482535764575" lon="7.259859703481197"><ele></ele><time>2013-8-1T16:38:16Z</time></trkpt>
<trkpt lat="46.07482342980802" lon="7.259898511692882"><ele></ele><time>2013-8-1T16:38:19Z</time></trkpt>
<trkpt lat="46.07482133433223" lon="7.259938912466168"><ele></ele><time>2013-8-1T16:38:22Z</time></trkpt>
<trkpt lat="46.0748175624758" lon="7.259977720677853"><ele></ele><time>2013-8-1T16:38:25Z</time></trkpt>
<trkpt lat="46.07480339705944" lon="7.260094312950969"><ele></ele><time>2013-8-1T16:38:28Z</time></trkpt>
<trkpt lat="46.07477196492255" lon="7.260326324030757"><ele></ele><time>2013-8-1T16:38:31Z</time></trkpt>
<trkpt lat="46.074761571362615" lon="7.2603638749569654"><ele></ele><time>2013-8-1T16:38:34Z</time></trkpt>
<trkpt lat="46.07475243508816" lon="7.260404862463474"><ele></ele><time>2013-8-1T16:38:37Z</time></trkpt>
<trkpt lat="46.0747448913753" lon="7.260444173589349"><ele></ele><time>2013-8-1T16:38:40Z</time></trkpt>
<trkpt lat="46.07473215088248" lon="7.260477868840098"><ele></ele><time>2013-8-1T16:38:43Z</time></trkpt>
<trkpt lat="46.074685296043754" lon="7.260566968470812"><ele></ele><time>2013-8-1T16:38:46Z</time></trkpt>
<trkpt lat="46.074676578864455" lon="7.260601250454783"><ele></ele><time>2013-8-1T16:38:49Z</time></trkpt>
<trkpt lat="46.074660904705524" lon="7.260695043951273"><ele></ele><time>2013-8-1T16:38:52Z</time></trkpt>
<trkpt lat="46.07460013590753" lon="7.260819682851434"><ele></ele><time>2013-8-1T16:38:55Z</time></trkpt>
<trkpt lat="46.074583707377315" lon="7.26083954796195"><ele></ele><time>2013-8-1T16:38:58Z</time></trkpt>
<trkpt lat="46.074565183371305" lon="7.260858910158277"><ele></ele><time>2013-8-1T16:39:1Z</time></trkpt>
<trkpt lat="46.07454749755561" lon="7.260876931250095"><ele></ele><time>2013-8-1T16:39:4Z</time></trkpt>
<trkpt lat="46.074434677138925" lon="7.2608989756554365"><ele></ele><time>2013-8-1T16:39:7Z</time></trkpt>
<trkpt lat="46.07430098578334" lon="7.260903585702181"><ele></ele><time>2013-8-1T16:39:10Z</time></trkpt>
<trkpt lat="46.07423208653927" lon="7.260933006182313"><ele></ele><time>2013-8-1T16:39:13Z</time></trkpt>
<trkpt lat="46.07420677319169" lon="7.260936442762613"><ele></ele><time>2013-8-1T16:39:16Z</time></trkpt>
<trkpt lat="46.07418665662408" lon="7.26094163954258"><ele></ele><time>2013-8-1T16:39:19Z</time></trkpt>
<trkpt lat="46.07416519895196" lon="7.260939544066787"><ele></ele><time>2013-8-1T16:39:22Z</time></trkpt>
<trkpt lat="46.07414290308952" lon="7.260938873514533"><ele></ele><time>2013-8-1T16:39:25Z</time></trkpt>
<trkpt lat="46.07405170798302" lon="7.260948428884149"><ele></ele><time>2013-8-1T16:39:28Z</time></trkpt>
<trkpt lat="46.073960177600384" lon="7.260979609563947"><ele></ele><time>2013-8-1T16:39:31Z</time></trkpt>
<trkpt lat="46.07393612153828" lon="7.260987404733896"><ele></ele><time>2013-8-1T16:39:34Z</time></trkpt>
<trkpt lat="46.07391323894262" lon="7.2609941102564335"><ele></ele><time>2013-8-1T16:39:37Z</time></trkpt>
<trkpt lat="46.07388784177601" lon="7.26100173778832"><ele></ele><time>2013-8-1T16:39:40Z</time></trkpt>
<trkpt lat="46.07375473715365" lon="7.261028476059437"><ele></ele><time>2013-8-1T16:39:43Z</time></trkpt>
<trkpt lat="46.07364728115499" lon="7.26102327927947"><ele></ele><time>2013-8-1T16:39:46Z</time></trkpt>
<trkpt lat="46.07362465001643" lon="7.261021351441741"><ele></ele><time>2013-8-1T16:39:49Z</time></trkpt>
<trkpt lat="46.0736018512398" lon="7.261016992852092"><ele></ele><time>2013-8-1T16:39:52Z</time></trkpt>
<trkpt lat="46.07357645407319" lon="7.261006096377969"><ele></ele><time>2013-8-1T16:39:55Z</time></trkpt>
<trkpt lat="46.07354971580207" lon="7.26099637337029"><ele></ele><time>2013-8-1T16:39:58Z</time></trkpt>
<trkpt lat="46.073502860963345" lon="7.260988326743245"><ele></ele><time>2013-8-1T16:40:1Z</time></trkpt>
<trkpt lat="46.07337520457804" lon="7.260954547673464"><ele></ele><time>2013-8-1T16:40:4Z</time></trkpt>
<trkpt lat="46.073324577882886" lon="7.260945495218039"><ele></ele><time>2013-8-1T16:40:7Z</time></trkpt>
<trkpt lat="46.07330085709691" lon="7.260940130800009"><ele></ele><time>2013-8-1T16:40:10Z</time></trkpt>
<trkpt lat="46.073277303949" lon="7.260935017839074"><ele></ele><time>2013-8-1T16:40:13Z</time></trkpt>
<trkpt lat="46.07325433753431" lon="7.260933676734567"><ele></ele><time>2013-8-1T16:40:16Z</time></trkpt>
<trkpt lat="46.073232712224126" lon="7.26094214245677"><ele></ele><time>2013-8-1T16:40:19Z</time></trkpt>
<trkpt lat="46.07317487709224" lon="7.260966030880809"><ele></ele><time>2013-8-1T16:40:22Z</time></trkpt>
<trkpt lat="46.07307865284383" lon="7.260974831879139"><ele></ele><time>2013-8-1T16:40:25Z</time></trkpt>
<trkpt lat="46.07303272001445" lon="7.260989500209689"><ele></ele><time>2013-8-1T16:40:28Z</time></trkpt>
<trkpt lat="46.07301050797105" lon="7.260994277894497"><ele></ele><time>2013-8-1T16:40:31Z</time></trkpt>
<trkpt lat="46.07298703864217" lon="7.260991595685482"><ele></ele><time>2013-8-1T16:40:34Z</time></trkpt>
<trkpt lat="46.07296164147556" lon="7.260991428047419"><ele></ele><time>2013-8-1T16:40:37Z</time></trkpt>
<trkpt lat="46.07293331064284" lon="7.260992601513863"><ele></ele><time>2013-8-1T16:40:40Z</time></trkpt>
<trkpt lat="46.072739604860544" lon="7.261070469394326"><ele></ele><time>2013-8-1T16:40:43Z</time></trkpt>
<trkpt lat="46.072717141360044" lon="7.2610836289823055"><ele></ele><time>2013-8-1T16:40:46Z</time></trkpt>
<trkpt lat="46.072693672031164" lon="7.261097962036729"><ele></ele><time>2013-8-1T16:40:49Z</time></trkpt>
<trkpt lat="46.072669280692935" lon="7.261109193786979"><ele></ele><time>2013-8-1T16:40:52Z</time></trkpt>
<trkpt lat="46.07259786687791" lon="7.261158814653754"><ele></ele><time>2013-8-1T16:40:55Z</time></trkpt>
<trkpt lat="46.07248429208994" lon="7.261262750253081"><ele></ele><time>2013-8-1T16:40:58Z</time></trkpt>
<trkpt lat="46.07246149331331" lon="7.261275993660092"><ele></ele><time>2013-8-1T16:41:1Z</time></trkpt>
<trkpt lat="46.07243852689862" lon="7.261289656162262"><ele></ele><time>2013-8-1T16:41:4Z</time></trkpt>
<trkpt lat="46.07241011224687" lon="7.26130273193121"><ele></ele><time>2013-8-1T16:41:7Z</time></trkpt>
<trkpt lat="46.07237968593836" lon="7.2613192442804575"><ele></ele><time>2013-8-1T16:41:10Z</time></trkpt>
<trkpt lat="46.07229268178344" lon="7.261323183774948"><ele></ele><time>2013-8-1T16:41:13Z</time></trkpt>
<trkpt lat="46.07213946059346" lon="7.261382360011339"><ele></ele><time>2013-8-1T16:41:16Z</time></trkpt>
<trkpt lat="46.0721186734736" lon="7.261403230950236"><ele></ele><time>2013-8-1T16:41:19Z</time></trkpt>
<trkpt lat="46.07210014946759" lon="7.261428292840719"><ele></ele><time>2013-8-1T16:41:22Z</time></trkpt>
<trkpt lat="46.07208372093737" lon="7.261451007798314"><ele></ele><time>2013-8-1T16:41:25Z</time></trkpt>
<trkpt lat="46.07206704095006" lon="7.2614729683846235"><ele></ele><time>2013-8-1T16:41:28Z</time></trkpt>
<trkpt lat="46.07204935513437" lon="7.261494845151901"><ele></ele><time>2013-8-1T16:41:31Z</time></trkpt>
<trkpt lat="46.07201867736876" lon="7.261553183197975"><ele></ele><time>2013-8-1T16:41:34Z</time></trkpt>
<trkpt lat="46.07190342620015" lon="7.261760467663407"><ele></ele><time>2013-8-1T16:41:37Z</time></trkpt>
<trkpt lat="46.071888422593474" lon="7.261784942820668"><ele></ele><time>2013-8-1T16:41:40Z</time></trkpt>
<trkpt lat="46.0718734189868" lon="7.26181386038661"><ele></ele><time>2013-8-1T16:41:43Z</time></trkpt>
<trkpt lat="46.071859085932374" lon="7.261843280866742"><ele></ele><time>2013-8-1T16:41:46Z</time></trkpt>
<trkpt lat="46.071843495592475" lon="7.261875215917826"><ele></ele><time>2013-8-1T16:41:49Z</time></trkpt>
<trkpt lat="46.07182949781418" lon="7.261903965845704"><ele></ele><time>2013-8-1T16:41:52Z</time></trkpt>
<trkpt lat="46.07178666628897" lon="7.261992897838354"><ele></ele><time>2013-8-1T16:41:55Z</time></trkpt>
<trkpt lat="46.071746684610844" lon="7.262196326628327"><ele></ele><time>2013-8-1T16:41:58Z</time></trkpt>
<trkpt lat="46.07174215838313" lon="7.262235889211297"><ele></ele><time>2013-8-1T16:42:1Z</time></trkpt>
<trkpt lat="46.07173872180283" lon="7.262272099032998"><ele></ele><time>2013-8-1T16:42:4Z</time></trkpt>
<trkpt lat="46.07173075899482" lon="7.262301184237003"><ele></ele><time>2013-8-1T16:42:7Z</time></trkpt>
<trkpt lat="46.07172447256744" lon="7.262331945821643"><ele></ele><time>2013-8-1T16:42:10Z</time></trkpt>
<trkpt lat="46.071720784530044" lon="7.262370670214295"><ele></ele><time>2013-8-1T16:42:13Z</time></trkpt>
<trkpt lat="46.07171223498881" lon="7.262436468154192"><ele></ele><time>2013-8-1T16:42:16Z</time></trkpt>
<trkpt lat="46.07169119641185" lon="7.262603435665369"><ele></ele><time>2013-8-1T16:42:19Z</time></trkpt>
<trkpt lat="46.07169664464891" lon="7.262637801468372"><ele></ele><time>2013-8-1T16:42:22Z</time></trkpt>
<trkpt lat="46.071700332686305" lon="7.262668563053012"><ele></ele><time>2013-8-1T16:42:25Z</time></trkpt>
<trkpt lat="46.071706200018525" lon="7.262702342122793"><ele></ele><time>2013-8-1T16:42:28Z</time></trkpt>
<trkpt lat="46.07171726413071" lon="7.262737965211272"><ele></ele><time>2013-8-1T16:42:31Z</time></trkpt>
<trkpt lat="46.07174500823021" lon="7.262807618826628"><ele></ele><time>2013-8-1T16:42:34Z</time></trkpt>
<trkpt lat="46.071783397346735" lon="7.262871405109763"><ele></ele><time>2013-8-1T16:42:37Z</time></trkpt>
<trkpt lat="46.071783397346735" lon="7.262871405109763"><ele></ele><time>2013-8-1T16:42:40Z</time></trkpt>
<trkpt lat="46.071783397346735" lon="7.262871405109763"><ele></ele><time>2013-8-1T16:42:43Z</time></trkpt>
<trkpt lat="46.071783397346735" lon="7.262871405109763"><ele></ele><time>2013-8-1T16:42:46Z</time></trkpt>
<trkpt lat="46.071783397346735" lon="7.262871405109763"><ele></ele><time>2013-8-1T16:42:49Z</time></trkpt>
<trkpt lat="46.071783397346735" lon="7.262871405109763"><ele></ele><time>2013-8-1T16:42:52Z</time></trkpt>
<trkpt lat="46.071783397346735" lon="7.262871405109763"><ele></ele><time>2013-8-1T16:42:55Z</time></trkpt>
<trkpt lat="46.071783397346735" lon="7.262871405109763"><ele></ele><time>2013-8-1T16:42:58Z</time></trkpt>
<trkpt lat="46.07178306207061" lon="7.262909961864352"><ele></ele><time>2013-8-1T16:43:1Z</time></trkpt>
<trkpt lat="46.07178742066026" lon="7.262930748984218"><ele></ele><time>2013-8-1T16:43:4Z</time></trkpt>
<trkpt lat="46.071795132011175" lon="7.262991853058338"><ele></ele><time>2013-8-1T16:43:7Z</time></trkpt>
<trkpt lat="46.071816673502326" lon="7.2631054278463125"><ele></ele><time>2013-8-1T16:43:10Z</time></trkpt>
<trkpt lat="46.07181994244456" lon="7.263153120875359"><ele></ele><time>2013-8-1T16:43:13Z</time></trkpt>
<trkpt lat="46.07182413339615" lon="7.26319913752377"><ele></ele><time>2013-8-1T16:43:16Z</time></trkpt>
<trkpt lat="46.071828408166766" lon="7.263236436992884"><ele></ele><time>2013-8-1T16:43:19Z</time></trkpt>
<trkpt lat="46.07182807289064" lon="7.263272982090712"><ele></ele><time>2013-8-1T16:43:22Z</time></trkpt>
<trkpt lat="46.071828827261925" lon="7.263310784474015"><ele></ele><time>2013-8-1T16:43:25Z</time></trkpt>
<trkpt lat="46.07182648032904" lon="7.263349676504731"><ele></ele><time>2013-8-1T16:43:28Z</time></trkpt>
<trkpt lat="46.071808375418186" lon="7.26350306533277"><ele></ele><time>2013-8-1T16:43:31Z</time></trkpt>
<trkpt lat="46.071804352104664" lon="7.263540364801884"><ele></ele><time>2013-8-1T16:43:34Z</time></trkpt>
<trkpt lat="46.07179965823889" lon="7.2635795921087265"><ele></ele><time>2013-8-1T16:43:37Z</time></trkpt>
<trkpt lat="46.071794629096985" lon="7.263617562130094"><ele></ele><time>2013-8-1T16:43:40Z</time></trkpt>
<trkpt lat="46.07179001905024" lon="7.263656621798873"><ele></ele><time>2013-8-1T16:43:43Z</time></trkpt>
<trkpt lat="46.07178423553705" lon="7.26369509473443"><ele></ele><time>2013-8-1T16:43:46Z</time></trkpt>
<trkpt lat="46.07174752280116" lon="7.263954933732748"><ele></ele><time>2013-8-1T16:43:49Z</time></trkpt>
<trkpt lat="46.07173721306026" lon="7.2640296164900064"><ele></ele><time>2013-8-1T16:43:52Z</time></trkpt>
<trkpt lat="46.07173193246126" lon="7.264068592339754"><ele></ele><time>2013-8-1T16:43:55Z</time></trkpt>
<trkpt lat="46.071727657690644" lon="7.264109747484326"><ele></ele><time>2013-8-1T16:43:58Z</time></trkpt>
<trkpt lat="46.07172346673906" lon="7.264146208763123"><ele></ele><time>2013-8-1T16:44:1Z</time></trkpt>
<trkpt lat="46.071715503931046" lon="7.264218460768461"><ele></ele><time>2013-8-1T16:44:4Z</time></trkpt>
<trkpt lat="46.07169287279248" lon="7.264364389702678"><ele></ele><time>2013-8-1T16:44:7Z</time></trkpt>
<trkpt lat="46.07168801128864" lon="7.264402527362108"><ele></ele><time>2013-8-1T16:44:10Z</time></trkpt>
<trkpt lat="46.07168298214674" lon="7.264438318088651"><ele></ele><time>2013-8-1T16:44:13Z</time></trkpt>
<trkpt lat="46.07167912647128" lon="7.264473354443908"><ele></ele><time>2013-8-1T16:44:16Z</time></trkpt>
<trkpt lat="46.07167552225292" lon="7.264512665569782"><ele></ele><time>2013-8-1T16:44:19Z</time></trkpt>
<trkpt lat="46.07166571542621" lon="7.264584833756089"><ele></ele><time>2013-8-1T16:44:22Z</time></trkpt>
<trkpt lat="46.07163914479315" lon="7.264779377728701"><ele></ele><time>2013-8-1T16:44:25Z</time></trkpt>
<trkpt lat="46.07162967324257" lon="7.264811396598816"><ele></ele><time>2013-8-1T16:44:28Z</time></trkpt>
<trkpt lat="46.07162271626294" lon="7.264845259487629"><ele></ele><time>2013-8-1T16:44:31Z</time></trkpt>
<trkpt lat="46.0716178547591" lon="7.264882139861584"><ele></ele><time>2013-8-1T16:44:34Z</time></trkpt>
<trkpt lat="46.0716141667217" lon="7.264918684959412"><ele></ele><time>2013-8-1T16:44:37Z</time></trkpt>
<trkpt lat="46.07159312814474" lon="7.2651122231036425"><ele></ele><time>2013-8-1T16:44:40Z</time></trkpt>
<trkpt lat="46.07158089056611" lon="7.265229402109981"><ele></ele><time>2013-8-1T16:44:43Z</time></trkpt>
<trkpt lat="46.071580555289984" lon="7.265272233635187"><ele></ele><time>2013-8-1T16:44:46Z</time></trkpt>
<trkpt lat="46.07158273458481" lon="7.265315903350711"><ele></ele><time>2013-8-1T16:44:49Z</time></trkpt>
<trkpt lat="46.07158969156444" lon="7.265357309952378"><ele></ele><time>2013-8-1T16:44:52Z</time></trkpt>
<trkpt lat="46.071595307439566" lon="7.26539452560246"><ele></ele><time>2013-8-1T16:44:55Z</time></trkpt>
<trkpt lat="46.071600588038564" lon="7.265435680747032"><ele></ele><time>2013-8-1T16:44:58Z</time></trkpt>
<trkpt lat="46.07163721695542" lon="7.265654196962714"><ele></ele><time>2013-8-1T16:45:1Z</time></trkpt>
<trkpt lat="46.07165574096143" lon="7.265739608556032"><ele></ele><time>2013-8-1T16:45:4Z</time></trkpt>
<trkpt lat="46.07166035100818" lon="7.265781098976731"><ele></ele><time>2013-8-1T16:45:7Z</time></trkpt>
<trkpt lat="46.0716659668833" lon="7.26582208648324"><ele></ele><time>2013-8-1T16:45:10Z</time></trkpt>
<trkpt lat="46.07167024165392" lon="7.265862487256527"><ele></ele><time>2013-8-1T16:45:13Z</time></trkpt>
<trkpt lat="46.07167677953839" lon="7.265902804210782"><ele></ele><time>2013-8-1T16:45:16Z</time></trkpt>
<trkpt lat="46.07167870737612" lon="7.265945887193084"><ele></ele><time>2013-8-1T16:45:19Z</time></trkpt>
<trkpt lat="46.07162908650935" lon="7.266135569661856"><ele></ele><time>2013-8-1T16:45:22Z</time></trkpt>
<trkpt lat="46.07158960774541" lon="7.266186783090234"><ele></ele><time>2013-8-1T16:45:25Z</time></trkpt>
<trkpt lat="46.07156848534942" lon="7.26620958186686"><ele></ele><time>2013-8-1T16:45:28Z</time></trkpt>
<trkpt lat="46.07154727913439" lon="7.266239924356341"><ele></ele><time>2013-8-1T16:45:31Z</time></trkpt>
<trkpt lat="46.07152565382421" lon="7.266271356493235"><ele></ele><time>2013-8-1T16:45:34Z</time></trkpt>
<trkpt lat="46.071503860875964" lon="7.266299184411764"><ele></ele><time>2013-8-1T16:45:37Z</time></trkpt>
<trkpt lat="46.071353405714035" lon="7.2664701752364635"><ele></ele><time>2013-8-1T16:45:40Z</time></trkpt>
<trkpt lat="46.07124988920987" lon="7.266535134986043"><ele></ele><time>2013-8-1T16:45:43Z</time></trkpt>
<trkpt lat="46.07122465968132" lon="7.2665441036224365"><ele></ele><time>2013-8-1T16:45:46Z</time></trkpt>
<trkpt lat="46.07119565829635" lon="7.2665544133633375"><ele></ele><time>2013-8-1T16:45:49Z</time></trkpt>
<trkpt lat="46.07116933912039" lon="7.266569165512919"><ele></ele><time>2013-8-1T16:45:52Z</time></trkpt>
<trkpt lat="46.0710409283638" lon="7.266631023958325"><ele></ele><time>2013-8-1T16:45:55Z</time></trkpt>
<trkpt lat="46.070878989994526" lon="7.266720207408071"><ele></ele><time>2013-8-1T16:45:58Z</time></trkpt>
<trkpt lat="46.070849150419235" lon="7.2667331993579865"><ele></ele><time>2013-8-1T16:46:1Z</time></trkpt>
<trkpt lat="46.07082140631974" lon="7.266751807183027"><ele></ele><time>2013-8-1T16:46:4Z</time></trkpt>
<trkpt lat="46.07079676352441" lon="7.266777623444796"><ele></ele><time>2013-8-1T16:46:7Z</time></trkpt>
<trkpt lat="46.07077815569937" lon="7.26681056432426"><ele></ele><time>2013-8-1T16:46:10Z</time></trkpt>
<trkpt lat="46.07076968997717" lon="7.266852809116244"><ele></ele><time>2013-8-1T16:46:13Z</time></trkpt>
<trkpt lat="46.070777317509055" lon="7.267029918730259"><ele></ele><time>2013-8-1T16:46:16Z</time></trkpt>
<trkpt lat="46.07079139910638" lon="7.267072079703212"><ele></ele><time>2013-8-1T16:46:19Z</time></trkpt>
<trkpt lat="46.07091159559786" lon="7.267299396917224"><ele></ele><time>2013-8-1T16:46:22Z</time></trkpt>
<trkpt lat="46.070933640003204" lon="7.267337618395686"><ele></ele><time>2013-8-1T16:46:25Z</time></trkpt>
<trkpt lat="46.070956690236926" lon="7.267377935349941"><ele></ele><time>2013-8-1T16:46:28Z</time></trkpt>
<trkpt lat="46.07097798027098" lon="7.267417497932911"><ele></ele><time>2013-8-1T16:46:31Z</time></trkpt>
<trkpt lat="46.0710047185421" lon="7.267454629763961"><ele></ele><time>2013-8-1T16:46:34Z</time></trkpt>
<trkpt lat="46.07111167162657" lon="7.2675990499556065"><ele></ele><time>2013-8-1T16:46:37Z</time></trkpt>
<trkpt lat="46.0712671559304" lon="7.267883364111185"><ele></ele><time>2013-8-1T16:46:40Z</time></trkpt>
<trkpt lat="46.07128132134676" lon="7.268119482323527"><ele></ele><time>2013-8-1T16:46:43Z</time></trkpt>
<trkpt lat="46.07123882509768" lon="7.268266081809998"><ele></ele><time>2013-8-1T16:46:46Z</time></trkpt>
<trkpt lat="46.07121384702623" lon="7.2683090809732676"><ele></ele><time>2013-8-1T16:46:49Z</time></trkpt>
<trkpt lat="46.07118953950703" lon="7.268351158127189"><ele></ele><time>2013-8-1T16:46:52Z</time></trkpt>
<trkpt lat="46.07116590254009" lon="7.268390720710158"><ele></ele><time>2013-8-1T16:46:55Z</time></trkpt>
<trkpt lat="46.07114301994443" lon="7.268431959673762"><ele></ele><time>2013-8-1T16:46:58Z</time></trkpt>
<trkpt lat="46.070999186486006" lon="7.268696408718824"><ele></ele><time>2013-8-1T16:47:1Z</time></trkpt>
<trkpt lat="46.07100337743759" lon="7.268927916884422"><ele></ele><time>2013-8-1T16:47:4Z</time></trkpt>
<trkpt lat="46.0710271820426" lon="7.268962869420648"><ele></ele><time>2013-8-1T16:47:7Z</time></trkpt>
<trkpt lat="46.07105132192373" lon="7.268992541357875"><ele></ele><time>2013-8-1T16:47:10Z</time></trkpt>
<trkpt lat="46.07107361778617" lon="7.269020536914468"><ele></ele><time>2013-8-1T16:47:13Z</time></trkpt>
<trkpt lat="46.07109306380153" lon="7.2690538968890905"><ele></ele><time>2013-8-1T16:47:16Z</time></trkpt>
<trkpt lat="46.07110882177949" lon="7.269094046205282"><ele></ele><time>2013-8-1T16:47:19Z</time></trkpt>
<trkpt lat="46.071090968325734" lon="7.2692641988396645"><ele></ele><time>2013-8-1T16:47:22Z</time></trkpt>
<trkpt lat="46.07103900052607" lon="7.269398979842663"><ele></ele><time>2013-8-1T16:47:25Z</time></trkpt>
<trkpt lat="46.071023577824235" lon="7.2694276459515095"><ele></ele><time>2013-8-1T16:47:28Z</time></trkpt>
<trkpt lat="46.071003125980496" lon="7.269453462213278"><ele></ele><time>2013-8-1T16:47:31Z</time></trkpt>
<trkpt lat="46.07097873464227" lon="7.26948045194149"><ele></ele><time>2013-8-1T16:47:34Z</time></trkpt>
<trkpt lat="46.070954678580165" lon="7.269507693126798"><ele></ele><time>2013-8-1T16:47:37Z</time></trkpt>
<trkpt lat="46.07080053538084" lon="7.269627554342151"><ele></ele><time>2013-8-1T16:47:40Z</time></trkpt>
<trkpt lat="46.07074781320989" lon="7.2696552984416485"><ele></ele><time>2013-8-1T16:47:43Z</time></trkpt>
<trkpt lat="46.07072317041457" lon="7.269666865468025"><ele></ele><time>2013-8-1T16:47:46Z</time></trkpt>
<trkpt lat="46.07070087455213" lon="7.269680108875036"><ele></ele><time>2013-8-1T16:47:49Z</time></trkpt>
<trkpt lat="46.07068117707968" lon="7.26969201117754"><ele></ele><time>2013-8-1T16:47:52Z</time></trkpt>
<trkpt lat="46.07065938413143" lon="7.2697000578045845"><ele></ele><time>2013-8-1T16:47:55Z</time></trkpt>
<trkpt lat="46.07063893228769" lon="7.269704332575202"><ele></ele><time>2013-8-1T16:47:58Z</time></trkpt>
<trkpt lat="46.07054069638252" lon="7.269644653424621"><ele></ele><time>2013-8-1T16:48:1Z</time></trkpt>
<trkpt lat="46.070518316701055" lon="7.269615149125457"><ele></ele><time>2013-8-1T16:48:4Z</time></trkpt>
<trkpt lat="46.0704988706857" lon="7.26958891376853"><ele></ele><time>2013-8-1T16:48:7Z</time></trkpt>
<trkpt lat="46.07047766447067" lon="7.269562007859349"><ele></ele><time>2013-8-1T16:48:10Z</time></trkpt>
<trkpt lat="46.0704502556473" lon="7.269547926262021"><ele></ele><time>2013-8-1T16:48:13Z</time></trkpt>
<trkpt lat="46.07039049267769" lon="7.269563600420952"><ele></ele><time>2013-8-1T16:48:16Z</time></trkpt>
<trkpt lat="46.0703743994236" lon="7.26967248134315"><ele></ele><time>2013-8-1T16:48:19Z</time></trkpt>
<trkpt lat="46.07041899114847" lon="7.269700476899743"><ele></ele><time>2013-8-1T16:48:22Z</time></trkpt>
<trkpt lat="46.07044321484864" lon="7.269708104431629"><ele></ele><time>2013-8-1T16:48:25Z</time></trkpt>
<trkpt lat="46.0704658459872" lon="7.269717575982213"><ele></ele><time>2013-8-1T16:48:28Z</time></trkpt>
<trkpt lat="46.070485543459654" lon="7.269733417779207"><ele></ele><time>2013-8-1T16:48:31Z</time></trkpt>
<trkpt lat="46.07050490565598" lon="7.269751187413931"><ele></ele><time>2013-8-1T16:48:34Z</time></trkpt>
<trkpt lat="46.07055561617017" lon="7.269806005060673"><ele></ele><time>2013-8-1T16:48:37Z</time></trkpt>
<trkpt lat="46.070572631433606" lon="7.269835257902741"><ele></ele><time>2013-8-1T16:48:40Z</time></trkpt>
<trkpt lat="46.07060548849404" lon="7.269879346713424"><ele></ele><time>2013-8-1T16:48:43Z</time></trkpt>
<trkpt lat="46.07062401250005" lon="7.269903738051653"><ele></ele><time>2013-8-1T16:48:46Z</time></trkpt>
<trkpt lat="46.07064262032509" lon="7.269927877932787"><ele></ele><time>2013-8-1T16:48:49Z</time></trkpt>
<trkpt lat="46.070660054683685" lon="7.2699483297765255"><ele></ele><time>2013-8-1T16:48:52Z</time></trkpt>
<trkpt lat="46.070673214271665" lon="7.269968446344137"><ele></ele><time>2013-8-1T16:48:55Z</time></trkpt>
<trkpt lat="46.07075300998986" lon="7.270055701956153"><ele></ele><time>2013-8-1T16:48:58Z</time></trkpt>
<trkpt lat="46.070772456005216" lon="7.270066933706403"><ele></ele><time>2013-8-1T16:49:1Z</time></trkpt>
<trkpt lat="46.07079215347767" lon="7.270079171285033"><ele></ele><time>2013-8-1T16:49:4Z</time></trkpt>
<trkpt lat="46.070809587836266" lon="7.270093252882361"><ele></ele><time>2013-8-1T16:49:7Z</time></trkpt>
<trkpt lat="46.07083045877516" lon="7.270104149356484"><ele></ele><time>2013-8-1T16:49:10Z</time></trkpt>
<trkpt lat="46.070924336090684" lon="7.270157793536782"><ele></ele><time>2013-8-1T16:49:13Z</time></trkpt>
<trkpt lat="46.07096808962524" lon="7.270175227895379"><ele></ele><time>2013-8-1T16:49:16Z</time></trkpt>
<trkpt lat="46.0709909722209" lon="7.270187884569168"><ele></ele><time>2013-8-1T16:49:19Z</time></trkpt>
<trkpt lat="46.07100899331272" lon="7.270195176824927"><ele></ele><time>2013-8-1T16:49:22Z</time></trkpt>
<trkpt lat="46.0710253380239" lon="7.270205905660987"><ele></ele><time>2013-8-1T16:49:25Z</time></trkpt>
<trkpt lat="46.07104151509702" lon="7.270215293392539"><ele></ele><time>2013-8-1T16:49:28Z</time></trkpt>
<trkpt lat="46.07113170437515" lon="7.270268015563488"><ele></ele><time>2013-8-1T16:49:31Z</time></trkpt>
<trkpt lat="46.07114830054343" lon="7.270276313647628"><ele></ele><time>2013-8-1T16:49:34Z</time></trkpt>
<trkpt lat="46.07116464525461" lon="7.270282432436943"><ele></ele><time>2013-8-1T16:49:37Z</time></trkpt>
<trkpt lat="46.07118249870837" lon="7.2702861204743385"><ele></ele><time>2013-8-1T16:49:40Z</time></trkpt>
<trkpt lat="46.07120102271438" lon="7.270290898159146"><ele></ele><time>2013-8-1T16:49:43Z</time></trkpt>
<trkpt lat="46.07121971435845" lon="7.2702940832823515"><ele></ele><time>2013-8-1T16:49:46Z</time></trkpt>
<trkpt lat="46.0712378192693" lon="7.270298358052969"><ele></ele><time>2013-8-1T16:49:49Z</time></trkpt>
<trkpt lat="46.0712550021708" lon="7.270302465185523"><ele></ele><time>2013-8-1T16:49:52Z</time></trkpt>
<trkpt lat="46.07133102603257" lon="7.270327694714069"><ele></ele><time>2013-8-1T16:49:55Z</time></trkpt>
<trkpt lat="46.07135181315243" lon="7.270335573703051"><ele></ele><time>2013-8-1T16:49:58Z</time></trkpt>
<trkpt lat="46.07137318700552" lon="7.2703450452536345"><ele></ele><time>2013-8-1T16:50:1Z</time></trkpt>
<trkpt lat="46.07139338739216" lon="7.270351834595203"><ele></ele><time>2013-8-1T16:50:4Z</time></trkpt>
<trkpt lat="46.071415515616536" lon="7.270360132679343"><ele></ele><time>2013-8-1T16:50:7Z</time></trkpt>
<trkpt lat="46.071534706279635" lon="7.270404137670994"><ele></ele><time>2013-8-1T16:50:10Z</time></trkpt>
<trkpt lat="46.07157074846327" lon="7.270406149327755"><ele></ele><time>2013-8-1T16:50:13Z</time></trkpt>
<trkpt lat="46.071583572775126" lon="7.270408244803548"><ele></ele><time>2013-8-1T16:50:16Z</time></trkpt>
<trkpt lat="46.071600588038564" lon="7.270414866507053"><ele></ele><time>2013-8-1T16:50:19Z</time></trkpt>
<trkpt lat="46.07161802239716" lon="7.270417213439941"><ele></ele><time>2013-8-1T16:50:22Z</time></trkpt>
<trkpt lat="46.071718940511346" lon="7.270448813214898"><ele></ele><time>2013-8-1T16:50:25Z</time></trkpt>
<trkpt lat="46.07173486612737" lon="7.27045233361423"><ele></ele><time>2013-8-1T16:50:28Z</time></trkpt>
<trkpt lat="46.07174836099148" lon="7.270454680547118"><ele></ele><time>2013-8-1T16:50:31Z</time></trkpt>
<trkpt lat="46.07176319696009" lon="7.270454177632928"><ele></ele><time>2013-8-1T16:50:34Z</time></trkpt>
<trkpt lat="46.07178088277578" lon="7.270456021651626"><ele></ele><time>2013-8-1T16:50:37Z</time></trkpt>
<trkpt lat="46.071896217763424" lon="7.2704557701945305"><ele></ele><time>2013-8-1T16:50:40Z</time></trkpt>
<trkpt lat="46.07191474176943" lon="7.270453674718738"><ele></ele><time>2013-8-1T16:50:43Z</time></trkpt>
<trkpt lat="46.071930415928364" lon="7.270448226481676"><ele></ele><time>2013-8-1T16:50:46Z</time></trkpt>
<trkpt lat="46.07194986194372" lon="7.270441269502044"><ele></ele><time>2013-8-1T16:50:49Z</time></trkpt>
<trkpt lat="46.07197182253003" lon="7.270434983074665"><ele></ele><time>2013-8-1T16:50:52Z</time></trkpt>
<trkpt lat="46.071991603821516" lon="7.27042349986732"><ele></ele><time>2013-8-1T16:50:55Z</time></trkpt>
<trkpt lat="46.07204608619213" lon="7.270407993346453"><ele></ele><time>2013-8-1T16:50:58Z</time></trkpt>
<trkpt lat="46.072094198316336" lon="7.270386619493365"><ele></ele><time>2013-8-1T16:51:1Z</time></trkpt>
<trkpt lat="46.07211020775139" lon="7.270378237590194"><ele></ele><time>2013-8-1T16:51:4Z</time></trkpt>
<trkpt lat="46.07212848030031" lon="7.270370442420244"><ele></ele><time>2013-8-1T16:51:7Z</time></trkpt>
<trkpt lat="46.07214566320181" lon="7.270360551774502"><ele></ele><time>2013-8-1T16:51:10Z</time></trkpt>
<trkpt lat="46.072162510827184" lon="7.270352756604552"><ele></ele><time>2013-8-1T16:51:13Z</time></trkpt>
<trkpt lat="46.07221053913236" lon="7.270321827381849"><ele></ele><time>2013-8-1T16:51:16Z</time></trkpt>
<trkpt lat="46.07227851636708" lon="7.2702952567487955"><ele></ele><time>2013-8-1T16:51:19Z</time></trkpt>
<trkpt lat="46.072288658469915" lon="7.27027983404696"><ele></ele><time>2013-8-1T16:51:22Z</time></trkpt>
<trkpt lat="46.072302320972085" lon="7.270267177373171"><ele></ele><time>2013-8-1T16:51:25Z</time></trkpt>
<trkpt lat="46.07231363654137" lon="7.270257035270333"><ele></ele><time>2013-8-1T16:51:28Z</time></trkpt>
<trkpt lat="46.07232495211065" lon="7.270246222615242"><ele></ele><time>2013-8-1T16:51:31Z</time></trkpt>
<trkpt lat="46.072368789464235" lon="7.270215963944793"><ele></ele><time>2013-8-1T16:51:34Z</time></trkpt>
<trkpt lat="46.07240273617208" lon="7.270208168774843"><ele></ele><time>2013-8-1T16:51:37Z</time></trkpt>
<trkpt lat="46.07241606339812" lon="7.270200960338116"><ele></ele><time>2013-8-1T16:51:40Z</time></trkpt>
<trkpt lat="46.07242880389094" lon="7.270185956731439"><ele></ele><time>2013-8-1T16:51:43Z</time></trkpt>
<trkpt lat="46.07244280166924" lon="7.270176485180855"><ele></ele><time>2013-8-1T16:51:46Z</time></trkpt>
<trkpt lat="46.07245897874236" lon="7.270164331421256"><ele></ele><time>2013-8-1T16:51:49Z</time></trkpt>
<trkpt lat="46.07249694876373" lon="7.270135497674346"><ele></ele><time>2013-8-1T16:51:52Z</time></trkpt>
<trkpt lat="46.07258730567992" lon="7.270061820745468"><ele></ele><time>2013-8-1T16:51:55Z</time></trkpt>
<trkpt lat="46.072600381448865" lon="7.2700487449765205"><ele></ele><time>2013-8-1T16:51:58Z</time></trkpt>
<trkpt lat="46.07261136174202" lon="7.270029885694385"><ele></ele><time>2013-8-1T16:52:1Z</time></trkpt>
<trkpt lat="46.07262359932065" lon="7.270014127716422"><ele></ele><time>2013-8-1T16:52:4Z</time></trkpt>
<trkpt lat="46.072636591270566" lon="7.269998537376523"><ele></ele><time>2013-8-1T16:52:7Z</time></trkpt>
<trkpt lat="46.072675148025155" lon="7.2699506767094135"><ele></ele><time>2013-8-1T16:52:10Z</time></trkpt>
<trkpt lat="46.07271353714168" lon="7.2698720544576645"><ele></ele><time>2013-8-1T16:52:13Z</time></trkpt>
<trkpt lat="46.07272166758776" lon="7.269848836585879"><ele></ele><time>2013-8-1T16:52:16Z</time></trkpt>
<trkpt lat="46.0727297142148" lon="7.269827965646982"><ele></ele><time>2013-8-1T16:52:19Z</time></trkpt>
<trkpt lat="46.07273809611797" lon="7.269805585965514"><ele></ele><time>2013-8-1T16:52:22Z</time></trkpt>
<trkpt lat="46.0727471485734" lon="7.269781697541475"><ele></ele><time>2013-8-1T16:52:25Z</time></trkpt>
<trkpt lat="46.07279542833567" lon="7.269649431109428"><ele></ele><time>2013-8-1T16:52:28Z</time></trkpt>
<trkpt lat="46.07280573807657" lon="7.269631326198578"><ele></ele><time>2013-8-1T16:52:31Z</time></trkpt>
<trkpt lat="46.07281546108425" lon="7.269605342298746"><ele></ele><time>2013-8-1T16:52:34Z</time></trkpt>
<trkpt lat="46.07282585464418" lon="7.269583297893405"><ele></ele><time>2013-8-1T16:52:37Z</time></trkpt>
<trkpt lat="46.072834907099605" lon="7.2695619240403175"><ele></ele><time>2013-8-1T16:52:40Z</time></trkpt>
<trkpt lat="46.07285317964852" lon="7.2695177514106035"><ele></ele><time>2013-8-1T16:52:43Z</time></trkpt>
<trkpt lat="46.072865249589086" lon="7.269415073096752"><ele></ele><time>2013-8-1T16:52:46Z</time></trkpt>
<trkpt lat="46.07286415994167" lon="7.269347012042999"><ele></ele><time>2013-8-1T16:52:49Z</time></trkpt>
<trkpt lat="46.072864243760705" lon="7.269324632361531"><ele></ele><time>2013-8-1T16:52:52Z</time></trkpt>
<trkpt lat="46.072865752503276" lon="7.269301079213619"><ele></ele><time>2013-8-1T16:52:55Z</time></trkpt>
<trkpt lat="46.07286592014134" lon="7.269277609884739"><ele></ele><time>2013-8-1T16:52:58Z</time></trkpt>
<trkpt lat="46.072864746674895" lon="7.269252967089415"><ele></ele><time>2013-8-1T16:53:1Z</time></trkpt>
<trkpt lat="46.07284253463149" lon="7.269126819446683"><ele></ele><time>2013-8-1T16:53:4Z</time></trkpt>
<trkpt lat="46.07283800840378" lon="7.269109133630991"><ele></ele><time>2013-8-1T16:53:7Z</time></trkpt>
<trkpt lat="46.072832476347685" lon="7.26909002289176"><ele></ele><time>2013-8-1T16:53:10Z</time></trkpt>
<trkpt lat="46.07282493263483" lon="7.2690704092383385"><ele></ele><time>2013-8-1T16:53:13Z</time></trkpt>
<trkpt lat="46.072818310931325" lon="7.269050041213632"><ele></ele><time>2013-8-1T16:53:16Z</time></trkpt>
<trkpt lat="46.07281127013266" lon="7.2690303437411785"><ele></ele><time>2013-8-1T16:53:19Z</time></trkpt>
<trkpt lat="46.07279224321246" lon="7.268991535529494"><ele></ele><time>2013-8-1T16:53:22Z</time></trkpt>
<trkpt lat="46.07274781912565" lon="7.268873769789934"><ele></ele><time>2013-8-1T16:53:25Z</time></trkpt>
<trkpt lat="46.072741532698274" lon="7.268852228298783"><ele></ele><time>2013-8-1T16:53:28Z</time></trkpt>
<trkpt lat="46.07273356989026" lon="7.268832279369235"><ele></ele><time>2013-8-1T16:53:31Z</time></trkpt>
<trkpt lat="46.072725523263216" lon="7.268811073154211"><ele></ele><time>2013-8-1T16:53:34Z</time></trkpt>
<trkpt lat="46.0727178119123" lon="7.268791124224663"><ele></ele><time>2013-8-1T16:53:37Z</time></trkpt>
<trkpt lat="46.0726744774729" lon="7.268667910248041"><ele></ele><time>2013-8-1T16:53:40Z</time></trkpt>
<trkpt lat="46.072665425017476" lon="7.268651397898793"><ele></ele><time>2013-8-1T16:53:43Z</time></trkpt>
<trkpt lat="46.07265830039978" lon="7.268629102036357"><ele></ele><time>2013-8-1T16:53:46Z</time></trkpt>
<trkpt lat="46.072649247944355" lon="7.268608147278428"><ele></ele><time>2013-8-1T16:53:49Z</time></trkpt>
<trkpt lat="46.07264363206923" lon="7.26858576759696"><ele></ele><time>2013-8-1T16:53:52Z</time></trkpt>
<trkpt lat="46.072629215195775" lon="7.268519718199968"><ele></ele><time>2013-8-1T16:53:55Z</time></trkpt>
<trkpt lat="46.07260901480913" lon="7.268399856984615"><ele></ele><time>2013-8-1T16:53:58Z</time></trkpt>
<trkpt lat="46.07260909862816" lon="7.268375968560576"><ele></ele><time>2013-8-1T16:54:1Z</time></trkpt>
<trkpt lat="46.07261370867491" lon="7.268352415412664"><ele></ele><time>2013-8-1T16:54:4Z</time></trkpt>
<trkpt lat="46.072616558521986" lon="7.26832777261734"><ele></ele><time>2013-8-1T16:54:7Z</time></trkpt>
<trkpt lat="46.072619911283255" lon="7.268301118165255"><ele></ele><time>2013-8-1T16:54:10Z</time></trkpt>
<trkpt lat="46.07263533398509" lon="7.268204726278782"><ele></ele><time>2013-8-1T16:54:13Z</time></trkpt>
<trkpt lat="46.07263273559511" lon="7.268153261393309"><ele></ele><time>2013-8-1T16:54:16Z</time></trkpt>
<trkpt lat="46.07263172976673" lon="7.268128786236048"><ele></ele><time>2013-8-1T16:54:19Z</time></trkpt>
<trkpt lat="46.07262737117708" lon="7.268105736002326"><ele></ele><time>2013-8-1T16:54:22Z</time></trkpt>
<trkpt lat="46.0726210847497" lon="7.26808100938797"><ele></ele><time>2013-8-1T16:54:25Z</time></trkpt>
<trkpt lat="46.07261831872165" lon="7.2680572886019945"><ele></ele><time>2013-8-1T16:54:28Z</time></trkpt>
<trkpt lat="46.07261639088392" lon="7.268034825101495"><ele></ele><time>2013-8-1T16:54:31Z</time></trkpt>
<trkpt lat="46.07258613221347" lon="7.26793147623539"><ele></ele><time>2013-8-1T16:54:34Z</time></trkpt>
<trkpt lat="46.07257490046322" lon="7.267890153452754"><ele></ele><time>2013-8-1T16:54:37Z</time></trkpt>
<trkpt lat="46.07256836257875" lon="7.267869869247079"><ele></ele><time>2013-8-1T16:54:40Z</time></trkpt>
<trkpt lat="46.07256006449461" lon="7.267849585041404"><ele></ele><time>2013-8-1T16:54:43Z</time></trkpt>
<trkpt lat="46.07255218550563" lon="7.267830474302173"><ele></ele><time>2013-8-1T16:54:46Z</time></trkpt>
<trkpt lat="46.07254531234503" lon="7.26780935190618"><ele></ele><time>2013-8-1T16:54:49Z</time></trkpt>
<trkpt lat="46.07250197790563" lon="7.2676535323262215"><ele></ele><time>2013-8-1T16:54:52Z</time></trkpt>
<trkpt lat="46.07248596847057" lon="7.267631320282817"><ele></ele><time>2013-8-1T16:54:55Z</time></trkpt>
<trkpt lat="46.07248093932867" lon="7.2676060907542706"><ele></ele><time>2013-8-1T16:54:58Z</time></trkpt>
<trkpt lat="46.0724812746048" lon="7.267581112682819"><ele></ele><time>2013-8-1T16:55:1Z</time></trkpt>
<trkpt lat="46.07248253189027" lon="7.267555883154273"><ele></ele><time>2013-8-1T16:55:4Z</time></trkpt>
<trkpt lat="46.072495356202126" lon="7.267506681382656"><ele></ele><time>2013-8-1T16:55:7Z</time></trkpt>
<trkpt lat="46.07252343557775" lon="7.267448427155614"><ele></ele><time>2013-8-1T16:55:10Z</time></trkpt>
<trkpt lat="46.07253609225154" lon="7.267434597015381"><ele></ele><time>2013-8-1T16:55:13Z</time></trkpt>
<trkpt lat="46.072548162192106" lon="7.267420347779989"><ele></ele><time>2013-8-1T16:55:16Z</time></trkpt>
<trkpt lat="46.07256207615137" lon="7.267407355830073"><ele></ele><time>2013-8-1T16:55:19Z</time></trkpt>
<trkpt lat="46.07257364317775" lon="7.267388664186001"><ele></ele><time>2013-8-1T16:55:22Z</time></trkpt>
<trkpt lat="46.072582779452205" lon="7.267366284504533"><ele></ele><time>2013-8-1T16:55:25Z</time></trkpt>
<trkpt lat="46.07259560376406" lon="7.267233766615391"><ele></ele><time>2013-8-1T16:55:28Z</time></trkpt>
<trkpt lat="46.072596441954374" lon="7.267183726653457"><ele></ele><time>2013-8-1T16:55:31Z</time></trkpt>
<trkpt lat="46.072598956525326" lon="7.2671655379235744"><ele></ele><time>2013-8-1T16:55:34Z</time></trkpt>
<trkpt lat="46.07260641641915" lon="7.267147935926914"><ele></ele><time>2013-8-1T16:55:37Z</time></trkpt>
<trkpt lat="46.07261270284653" lon="7.267130753025413"><ele></ele><time>2013-8-1T16:55:40Z</time></trkpt>
<trkpt lat="46.07261831872165" lon="7.267112396657467"><ele></ele><time>2013-8-1T16:55:43Z</time></trkpt>
<trkpt lat="46.072641955688596" lon="7.2670824732631445"><ele></ele><time>2013-8-1T16:55:46Z</time></trkpt>
<trkpt lat="46.07265478000045" lon="7.267069397494197"><ele></ele><time>2013-8-1T16:55:49Z</time></trkpt>
<trkpt lat="46.072667771950364" lon="7.267057411372662"><ele></ele><time>2013-8-1T16:55:52Z</time></trkpt>
<trkpt lat="46.072681434452534" lon="7.267048191279173"><ele></ele><time>2013-8-1T16:55:55Z</time></trkpt>
<trkpt lat="46.07269400730729" lon="7.267037546262145"><ele></ele><time>2013-8-1T16:55:58Z</time></trkpt>
<trkpt lat="46.0727056581527" lon="7.2670250572264194"><ele></ele><time>2013-8-1T16:56:1Z</time></trkpt>
<trkpt lat="46.072734240442514" lon="7.267010221257806"><ele></ele><time>2013-8-1T16:56:4Z</time></trkpt>
<trkpt lat="46.07278252020478" lon="7.2669643722474575"><ele></ele><time>2013-8-1T16:56:7Z</time></trkpt>
<trkpt lat="46.072846138849854" lon="7.26686873473227"><ele></ele><time>2013-8-1T16:56:10Z</time></trkpt>
<trkpt lat="46.07286659069359" lon="7.266821460798383"><ele></ele><time>2013-8-1T16:56:13Z</time></trkpt>
<trkpt lat="46.07287916354835" lon="7.266797237098217"><ele></ele><time>2013-8-1T16:56:16Z</time></trkpt>
<trkpt lat="46.072891065850854" lon="7.266778461635113"><ele></ele><time>2013-8-1T16:56:19Z</time></trkpt>
<trkpt lat="46.072898022830486" lon="7.266757003962994"><ele></ele><time>2013-8-1T16:56:22Z</time></trkpt>
<trkpt lat="46.072905818000436" lon="7.26673143915832"><ele></ele><time>2013-8-1T16:56:25Z</time></trkpt>
<trkpt lat="46.07292543165386" lon="7.26668156683445"><ele></ele><time>2013-8-1T16:56:28Z</time></trkpt>
<trkpt lat="46.072963904589415" lon="7.266597915440798"><ele></ele><time>2013-8-1T16:56:31Z</time></trkpt>
<trkpt lat="46.07297144830227" lon="7.266580564901233"><ele></ele><time>2013-8-1T16:56:34Z</time></trkpt>
<trkpt lat="46.07298066839576" lon="7.266560699790716"><ele></ele><time>2013-8-1T16:56:37Z</time></trkpt>
<trkpt lat="46.072989888489246" lon="7.266541672870517"><ele></ele><time>2013-8-1T16:56:40Z</time></trkpt>
<trkpt lat="46.07299676164985" lon="7.2665199637413025"><ele></ele><time>2013-8-1T16:56:43Z</time></trkpt>
<trkpt lat="46.07304730452597" lon="7.266357857733965"><ele></ele><time>2013-8-1T16:56:46Z</time></trkpt>
<trkpt lat="46.07305099256337" lon="7.2663388308137655"><ele></ele><time>2013-8-1T16:56:49Z</time></trkpt>
<trkpt lat="46.073057278990746" lon="7.2663152776658535"><ele></ele><time>2013-8-1T16:56:52Z</time></trkpt>
<trkpt lat="46.073064068332314" lon="7.266293819993734"><ele></ele><time>2013-8-1T16:56:55Z</time></trkpt>
<trkpt lat="46.073069432750344" lon="7.266272027045488"><ele></ele><time>2013-8-1T16:56:58Z</time></trkpt>
<trkpt lat="46.07307613827288" lon="7.266152668744326"><ele></ele><time>2013-8-1T16:57:1Z</time></trkpt>
<trkpt lat="46.07307915575802" lon="7.266128193587065"><ele></ele><time>2013-8-1T16:57:4Z</time></trkpt>
<trkpt lat="46.07307915575802" lon="7.266105310991406"><ele></ele><time>2013-8-1T16:57:7Z</time></trkpt>
<trkpt lat="46.073079658672214" lon="7.26608200930059"><ele></ele><time>2013-8-1T16:57:10Z</time></trkpt>
<trkpt lat="46.073080664500594" lon="7.266057701781392"><ele></ele><time>2013-8-1T16:57:13Z</time></trkpt>
<trkpt lat="46.07308477163315" lon="7.2660343162715435"><ele></ele><time>2013-8-1T16:57:16Z</time></trkpt>
<trkpt lat="46.073089968413115" lon="7.266008667647839"><ele></ele><time>2013-8-1T16:57:19Z</time></trkpt>
<trkpt lat="46.07309181243181" lon="7.265981761738658"><ele></ele><time>2013-8-1T16:57:22Z</time></trkpt>
<trkpt lat="46.073097344487906" lon="7.265835497528315"><ele></ele><time>2013-8-1T16:57:25Z</time></trkpt>
<trkpt lat="46.07310405001044" lon="7.265813872218132"><ele></ele><time>2013-8-1T16:57:28Z</time></trkpt>
<trkpt lat="46.07310840860009" lon="7.265791492536664"><ele></ele><time>2013-8-1T16:57:31Z</time></trkpt>
<trkpt lat="46.07311528176069" lon="7.265769448131323"><ele></ele><time>2013-8-1T16:57:34Z</time></trkpt>
<trkpt lat="46.07312064617872" lon="7.265748241916299"><ele></ele><time>2013-8-1T16:57:37Z</time></trkpt>
<trkpt lat="46.07315090484917" lon="7.265642881393433"><ele></ele><time>2013-8-1T16:57:40Z</time></trkpt>
<trkpt lat="46.07316599227488" lon="7.265601307153702"><ele></ele><time>2013-8-1T16:57:43Z</time></trkpt>
<trkpt lat="46.07317068614066" lon="7.265581525862217"><ele></ele><time>2013-8-1T16:57:46Z</time></trkpt>
<trkpt lat="46.073175966739655" lon="7.265561241656542"><ele></ele><time>2013-8-1T16:57:49Z</time></trkpt>
<trkpt lat="46.07318300753832" lon="7.265539113432169"><ele></ele><time>2013-8-1T16:57:52Z</time></trkpt>
<trkpt lat="46.07320262119174" lon="7.265471136197448"><ele></ele><time>2013-8-1T16:57:55Z</time></trkpt>
<trkpt lat="46.07324562035501" lon="7.265337696298957"><ele></ele><time>2013-8-1T16:57:58Z</time></trkpt>
<trkpt lat="46.073251236230135" lon="7.265313724055886"><ele></ele><time>2013-8-1T16:58:1Z</time></trkpt>
<trkpt lat="46.073255175724626" lon="7.265293439850211"><ele></ele><time>2013-8-1T16:58:4Z</time></trkpt>
<trkpt lat="46.07325576245785" lon="7.265266701579094"><ele></ele><time>2013-8-1T16:58:7Z</time></trkpt>
<trkpt lat="46.07325626537204" lon="7.265241304412484"><ele></ele><time>2013-8-1T16:58:10Z</time></trkpt>
<trkpt lat="46.07327437028289" lon="7.265173746272922"><ele></ele><time>2013-8-1T16:58:13Z</time></trkpt>
<trkpt lat="46.073292810469866" lon="7.26506520062685"><ele></ele><time>2013-8-1T16:58:16Z</time></trkpt>
<trkpt lat="46.07329708524048" lon="7.265040390193462"><ele></ele><time>2013-8-1T16:58:19Z</time></trkpt>
<trkpt lat="46.07329825870693" lon="7.265017256140709"><ele></ele><time>2013-8-1T16:58:22Z</time></trkpt>
<trkpt lat="46.07330270111561" lon="7.2649935353547335"><ele></ele><time>2013-8-1T16:58:25Z</time></trkpt>
<trkpt lat="46.07331116683781" lon="7.264851713553071"><ele></ele><time>2013-8-1T16:58:28Z</time></trkpt>
<trkpt lat="46.07330965809524" lon="7.264830926433206"><ele></ele><time>2013-8-1T16:58:31Z</time></trkpt>
<trkpt lat="46.07330588623881" lon="7.264804104343057"><ele></ele><time>2013-8-1T16:58:34Z</time></trkpt>
<trkpt lat="46.07330244965851" lon="7.2647797130048275"><ele></ele><time>2013-8-1T16:58:37Z</time></trkpt>
<trkpt lat="46.07329700142145" lon="7.2647549863904715"><ele></ele><time>2013-8-1T16:58:40Z</time></trkpt>
<trkpt lat="46.073292223736644" lon="7.26467477157712"><ele></ele><time>2013-8-1T16:58:43Z</time></trkpt>
<trkpt lat="46.073287865146995" lon="7.2646254021674395"><ele></ele><time>2013-8-1T16:58:46Z</time></trkpt>
<trkpt lat="46.073285434395075" lon="7.264599082991481"><ele></ele><time>2013-8-1T16:58:49Z</time></trkpt>
<trkpt lat="46.07328384183347" lon="7.264574943110347"><ele></ele><time>2013-8-1T16:58:52Z</time></trkpt>
<trkpt lat="46.07327998615801" lon="7.264548623934388"><ele></ele><time>2013-8-1T16:58:55Z</time></trkpt>
<trkpt lat="46.07328141108155" lon="7.264520293101668"><ele></ele><time>2013-8-1T16:58:58Z</time></trkpt>
<trkpt lat="46.07329800724983" lon="7.264407388865948"><ele></ele><time>2013-8-1T16:59:1Z</time></trkpt>
<trkpt lat="46.073312340304255" lon="7.2643977496773005"><ele></ele><time>2013-8-1T16:59:4Z</time></trkpt>
<trkpt lat="46.07332223095" lon="7.264386434108019"><ele></ele><time>2013-8-1T16:59:7Z</time></trkpt>
<trkpt lat="46.07333312742412" lon="7.26437914185226"><ele></ele><time>2013-8-1T16:59:10Z</time></trkpt>
<trkpt lat="46.07334821484983" lon="7.264368161559105"><ele></ele><time>2013-8-1T16:59:13Z</time></trkpt>
<trkpt lat="46.073362715542316" lon="7.264358606189489"><ele></ele><time>2013-8-1T16:59:16Z</time></trkpt>
<trkpt lat="46.07337964698672" lon="7.264350978657603"><ele></ele><time>2013-8-1T16:59:19Z</time></trkpt>
<trkpt lat="46.07342675328255" lon="7.264302195981145"><ele></ele><time>2013-8-1T16:59:22Z</time></trkpt>
<trkpt lat="46.07343371026218" lon="7.264285935088992"><ele></ele><time>2013-8-1T16:59:25Z</time></trkpt>
<trkpt lat="46.07344209216535" lon="7.264267913997173"><ele></ele><time>2013-8-1T16:59:28Z</time></trkpt>
<trkpt lat="46.07345273718238" lon="7.264254922047257"><ele></ele><time>2013-8-1T16:59:31Z</time></trkpt>
<trkpt lat="46.07346631586552" lon="7.2642395831644535"><ele></ele><time>2013-8-1T16:59:34Z</time></trkpt>
<trkpt lat="46.073581483215094" lon="7.264135731384158"><ele></ele><time>2013-8-1T16:59:37Z</time></trkpt>
<trkpt lat="46.07359690591693" lon="7.264125589281321"><ele></ele><time>2013-8-1T16:59:40Z</time></trkpt>
<trkpt lat="46.073607383295894" lon="7.264118883758783"><ele></ele><time>2013-8-1T16:59:43Z</time></trkpt>
<trkpt lat="46.073618698865175" lon="7.264109579846263"><ele></ele><time>2013-8-1T16:59:46Z</time></trkpt>
<trkpt lat="46.073632864281535" lon="7.264103041961789"><ele></ele><time>2013-8-1T16:59:49Z</time></trkpt>
<trkpt lat="46.073683239519596" lon="7.264070939272642"><ele></ele><time>2013-8-1T16:59:52Z</time></trkpt>
<trkpt lat="46.07375188730657" lon="7.264046547934413"><ele></ele><time>2013-8-1T16:59:55Z</time></trkpt>
<trkpt lat="46.073769740760326" lon="7.2640463802963495"><ele></ele><time>2013-8-1T16:59:58Z</time></trkpt>
<trkpt lat="46.073784325271845" lon="7.264045458287001"><ele></ele><time>2013-8-1T17:0:1Z</time></trkpt>
<trkpt lat="46.07379974797368" lon="7.264045625925064"><ele></ele><time>2013-8-1T17:0:4Z</time></trkpt>
<trkpt lat="46.073811734095216" lon="7.264044536277652"><ele></ele><time>2013-8-1T17:0:7Z</time></trkpt>
<trkpt lat="46.073874598369" lon="7.264033639803529"><ele></ele><time>2013-8-1T17:0:10Z</time></trkpt>
<trkpt lat="46.073921201750636" lon="7.264028526842594"><ele></ele><time>2013-8-1T17:0:13Z</time></trkpt>
<trkpt lat="46.073937211185694" lon="7.2640307899564505"><ele></ele><time>2013-8-1T17:0:16Z</time></trkpt>
<trkpt lat="46.073952466249466" lon="7.264034226536751"><ele></ele><time>2013-8-1T17:0:19Z</time></trkpt>
<trkpt lat="46.073970068246126" lon="7.264034645631909"><ele></ele><time>2013-8-1T17:0:22Z</time></trkpt>
<trkpt lat="46.073986077681184" lon="7.264031879603863"><ele></ele><time>2013-8-1T17:0:25Z</time></trkpt>
<trkpt lat="46.074018850922585" lon="7.26403028704226"><ele></ele><time>2013-8-1T17:0:28Z</time></trkpt>
<trkpt lat="46.074100909754634" lon="7.264016540721059"><ele></ele><time>2013-8-1T17:0:31Z</time></trkpt>
<trkpt lat="46.07411767356098" lon="7.264017881825566"><ele></ele><time>2013-8-1T17:0:34Z</time></trkpt>
<trkpt lat="46.07413343153894" lon="7.264020228758454"><ele></ele><time>2013-8-1T17:0:37Z</time></trkpt>
<trkpt lat="46.07415069825947" lon="7.264018300920725"><ele></ele><time>2013-8-1T17:0:40Z</time></trkpt>
<trkpt lat="46.074165031313896" lon="7.264011595398188"><ele></ele><time>2013-8-1T17:0:43Z</time></trkpt>
<trkpt lat="46.074256310239434" lon="7.263995502144098"><ele></ele><time>2013-8-1T17:0:46Z</time></trkpt>
<trkpt lat="46.07428967021406" lon="7.263995250687003"><ele></ele><time>2013-8-1T17:0:49Z</time></trkpt>
<trkpt lat="46.074308026582" lon="7.2639975138008595"><ele></ele><time>2013-8-1T17:0:52Z</time></trkpt>
<trkpt lat="46.0743254609406" lon="7.263988628983498"><ele></ele><time>2013-8-1T17:0:55Z</time></trkpt>
<trkpt lat="46.074341805651784" lon="7.263986030593514"><ele></ele><time>2013-8-1T17:0:58Z</time></trkpt>
<trkpt lat="46.074355971068144" lon="7.263983096927404"><ele></ele><time>2013-8-1T17:1:1Z</time></trkpt>
<trkpt lat="46.074372148141265" lon="7.263974715024233"><ele></ele><time>2013-8-1T17:1:4Z</time></trkpt>
<trkpt lat="46.07445211149752" lon="7.263950239866972"><ele></ele><time>2013-8-1T17:1:7Z</time></trkpt>
<trkpt lat="46.074469378218055" lon="7.263950491324067"><ele></ele><time>2013-8-1T17:1:10Z</time></trkpt>
<trkpt lat="46.07448806986213" lon="7.263949820771813"><ele></ele><time>2013-8-1T17:1:13Z</time></trkpt>
<trkpt lat="46.074508521705866" lon="7.263951748609543"><ele></ele><time>2013-8-1T17:1:16Z</time></trkpt>
<trkpt lat="46.074526123702526" lon="7.263952754437923"><ele></ele><time>2013-8-1T17:1:19Z</time></trkpt>
<trkpt lat="46.07461145147681" lon="7.263948982581496"><ele></ele><time>2013-8-1T17:1:22Z</time></trkpt>
<trkpt lat="46.07466425746679" lon="7.263944456353784"><ele></ele><time>2013-8-1T17:1:25Z</time></trkpt>
<trkpt lat="46.074682949110866" lon="7.263944707810879"><ele></ele><time>2013-8-1T17:1:28Z</time></trkpt>
<trkpt lat="46.07470138929784" lon="7.263945043087006"><ele></ele><time>2013-8-1T17:1:31Z</time></trkpt>
<trkpt lat="46.07471647672355" lon="7.263942277058959"><ele></ele><time>2013-8-1T17:1:34Z</time></trkpt>
<trkpt lat="46.07473164796829" lon="7.2639384213835"><ele></ele><time>2013-8-1T17:1:37Z</time></trkpt>
<trkpt lat="46.074765007942915" lon="7.263943199068308"><ele></ele><time>2013-8-1T17:1:40Z</time></trkpt>
<trkpt lat="46.07484212145209" lon="7.263959292322397"><ele></ele><time>2013-8-1T17:1:43Z</time></trkpt>
<trkpt lat="46.07486005872488" lon="7.263961723074317"><ele></ele><time>2013-8-1T17:1:46Z</time></trkpt>
<trkpt lat="46.074876487255096" lon="7.2639671713113785"><ele></ele><time>2013-8-1T17:1:49Z</time></trkpt>
<trkpt lat="46.074894927442074" lon="7.263971362262964"><ele></ele><time>2013-8-1T17:1:52Z</time></trkpt>
<trkpt lat="46.074914960190654" lon="7.263975301757455"><ele></ele><time>2013-8-1T17:1:55Z</time></trkpt>
<trkpt lat="46.07500364072621" lon="7.263986701145768"><ele></ele><time>2013-8-1T17:1:58Z</time></trkpt>
<trkpt lat="46.075016213580966" lon="7.2639930713921785"><ele></ele><time>2013-8-1T17:2:1Z</time></trkpt>
<trkpt lat="46.075027361512184" lon="7.264006985351443"><ele></ele><time>2013-8-1T17:2:4Z</time></trkpt>
<trkpt lat="46.075030295178294" lon="7.264022575691342"><ele></ele><time>2013-8-1T17:2:7Z</time></trkpt>
<trkpt lat="46.075018560513854" lon="7.264036908745766"><ele></ele><time>2013-8-1T17:2:10Z</time></trkpt>
<trkpt lat="46.07494027353823" lon="7.2640325501561165"><ele></ele><time>2013-8-1T17:2:13Z</time></trkpt>
<trkpt lat="46.07489149086177" lon="7.264014026150107"><ele></ele><time>2013-8-1T17:2:16Z</time></trkpt>
<trkpt lat="46.074864249676466" lon="7.264004135504365"><ele></ele><time>2013-8-1T17:2:19Z</time></trkpt>
<trkpt lat="46.07483558356762" lon="7.263998435810208"><ele></ele><time>2013-8-1T17:2:22Z</time></trkpt>
<trkpt lat="46.07480549253523" lon="7.263993322849274"><ele></ele><time>2013-8-1T17:2:25Z</time></trkpt>
<trkpt lat="46.074775233864784" lon="7.2639907244592905"><ele></ele><time>2013-8-1T17:2:28Z</time></trkpt>
<trkpt lat="46.0746000520885" lon="7.2640216536819935"><ele></ele><time>2013-8-1T17:2:31Z</time></trkpt>
<trkpt lat="46.07438991777599" lon="7.264104718342423"><ele></ele><time>2013-8-1T17:2:34Z</time></trkpt>
<trkpt lat="46.07417483814061" lon="7.264213180169463"><ele></ele><time>2013-8-1T17:2:37Z</time></trkpt>
<trkpt lat="46.07414525002241" lon="7.264226591214538"><ele></ele><time>2013-8-1T17:2:40Z</time></trkpt>
<trkpt lat="46.07411591336131" lon="7.264243019744754"><ele></ele><time>2013-8-1T17:2:43Z</time></trkpt>
<trkpt lat="46.0740854870528" lon="7.26426187902689"><ele></ele><time>2013-8-1T17:2:46Z</time></trkpt>
<trkpt lat="46.07405480928719" lon="7.264277385547757"><ele></ele><time>2013-8-1T17:2:49Z</time></trkpt>
<trkpt lat="46.07396587729454" lon="7.2643296886235476"><ele></ele><time>2013-8-1T17:2:52Z</time></trkpt>
<trkpt lat="46.07376169413328" lon="7.264482993632555"><ele></ele><time>2013-8-1T17:2:55Z</time></trkpt>
<trkpt lat="46.073639234527946" lon="7.2646156791597605"><ele></ele><time>2013-8-1T17:2:58Z</time></trkpt>
<trkpt lat="46.073622135445476" lon="7.264656750485301"><ele></ele><time>2013-8-1T17:3:1Z</time></trkpt>
<trkpt lat="46.07361199334264" lon="7.264707125723362"><ele></ele><time>2013-8-1T17:3:4Z</time></trkpt>
<trkpt lat="46.07360235415399" lon="7.264749621972442"><ele></ele><time>2013-8-1T17:3:7Z</time></trkpt>
<trkpt lat="46.073597241193056" lon="7.264797817915678"><ele></ele><time>2013-8-1T17:3:10Z</time></trkpt>
<trkpt lat="46.07359950430691" lon="7.2648474387824535"><ele></ele><time>2013-8-1T17:3:13Z</time></trkpt>
<trkpt lat="46.07363604940474" lon="7.265213392674923"><ele></ele><time>2013-8-1T17:3:16Z</time></trkpt>
<trkpt lat="46.073662620037794" lon="7.2654930129647255"><ele></ele><time>2013-8-1T17:3:19Z</time></trkpt>
<trkpt lat="46.07363713905215" lon="7.265692418441176"><ele></ele><time>2013-8-1T17:3:22Z</time></trkpt>
<trkpt lat="46.073640156537294" lon="7.265744050964713"><ele></ele><time>2013-8-1T17:3:25Z</time></trkpt>
<trkpt lat="46.07364350929856" lon="7.265794510021806"><ele></ele><time>2013-8-1T17:3:28Z</time></trkpt>
<trkpt lat="46.07365272939205" lon="7.265840861946344"><ele></ele><time>2013-8-1T17:3:31Z</time></trkpt>
<trkpt lat="46.073665134608746" lon="7.265886710956693"><ele></ele><time>2013-8-1T17:3:34Z</time></trkpt>
<trkpt lat="46.07372699305415" lon="7.266009254381061"><ele></ele><time>2013-8-1T17:3:37Z</time></trkpt>
<trkpt lat="46.07379547320306" lon="7.266155686229467"><ele></ele><time>2013-8-1T17:3:40Z</time></trkpt>
<trkpt lat="46.07381894253194" lon="7.266258029267192"><ele></ele><time>2013-8-1T17:3:43Z</time></trkpt>
<trkpt lat="46.07382480986416" lon="7.266418626531959"><ele></ele><time>2013-8-1T17:3:46Z</time></trkpt>
<trkpt lat="46.07382455840707" lon="7.2664775513112545"><ele></ele><time>2013-8-1T17:3:49Z</time></trkpt>
<trkpt lat="46.07382556423545" lon="7.266533458605409"><ele></ele><time>2013-8-1T17:3:52Z</time></trkpt>
<trkpt lat="46.07382372021675" lon="7.266581989824772"><ele></ele><time>2013-8-1T17:3:55Z</time></trkpt>
<trkpt lat="46.07382137328386" lon="7.266635298728943"><ele></ele><time>2013-8-1T17:3:58Z</time></trkpt>
<trkpt lat="46.07381693087518" lon="7.266893964260817"><ele></ele><time>2013-8-1T17:4:1Z</time></trkpt>
<trkpt lat="46.073861103504896" lon="7.267089933156967"><ele></ele><time>2013-8-1T17:4:4Z</time></trkpt>
<trkpt lat="46.0738730058074" lon="7.267124634236097"><ele></ele><time>2013-8-1T17:4:7Z</time></trkpt>
<trkpt lat="46.07388323172927" lon="7.267154473811388"><ele></ele><time>2013-8-1T17:4:10Z</time></trkpt>
<trkpt lat="46.07389303855598" lon="7.2671896778047085"><ele></ele><time>2013-8-1T17:4:13Z</time></trkpt>
<trkpt lat="46.073903515934944" lon="7.267216667532921"><ele></ele><time>2013-8-1T17:4:16Z</time></trkpt>
<trkpt lat="46.07394140213728" lon="7.2672992292791605"><ele></ele><time>2013-8-1T17:4:19Z</time></trkpt>
<trkpt lat="46.07394970022142" lon="7.267326386645436"><ele></ele><time>2013-8-1T17:4:22Z</time></trkpt>
<trkpt lat="46.07396051287651" lon="7.267354801297188"><ele></ele><time>2013-8-1T17:4:25Z</time></trkpt>
<trkpt lat="46.073969062417746" lon="7.267385730519891"><ele></ele><time>2013-8-1T17:4:28Z</time></trkpt>
<trkpt lat="46.07397970743477" lon="7.267418671399355"><ele></ele><time>2013-8-1T17:4:31Z</time></trkpt>
<trkpt lat="46.074029160663486" lon="7.267534425482154"><ele></ele><time>2013-8-1T17:4:34Z</time></trkpt>
<trkpt lat="46.074064364656806" lon="7.267609192058444"><ele></ele><time>2013-8-1T17:4:37Z</time></trkpt>
<trkpt lat="46.07407928444445" lon="7.267630649730563"><ele></ele><time>2013-8-1T17:4:40Z</time></trkpt>
<trkpt lat="46.074092192575336" lon="7.267653364688158"><ele></ele><time>2013-8-1T17:4:43Z</time></trkpt>
<trkpt lat="46.07410568743944" lon="7.267674235627055"><ele></ele><time>2013-8-1T17:4:46Z</time></trkpt>
<trkpt lat="46.074121026322246" lon="7.267693430185318"><ele></ele><time>2013-8-1T17:4:49Z</time></trkpt>
<trkpt lat="46.07413234189153" lon="7.267712205648422"><ele></ele><time>2013-8-1T17:4:52Z</time></trkpt>
<trkpt lat="46.07417953200638" lon="7.267789822071791"><ele></ele><time>2013-8-1T17:4:55Z</time></trkpt>
<trkpt lat="46.074192356318235" lon="7.267806585878134"><ele></ele><time>2013-8-1T17:4:58Z</time></trkpt>
<trkpt lat="46.07420534826815" lon="7.2678210865706205"><ele></ele><time>2013-8-1T17:5:1Z</time></trkpt>
<trkpt lat="46.07422085478902" lon="7.267835754901171"><ele></ele><time>2013-8-1T17:5:4Z</time></trkpt>
<trkpt lat="46.07423166744411" lon="7.267850171774626"><ele></ele><time>2013-8-1T17:5:7Z</time></trkpt>
<trkpt lat="46.07429813593626" lon="7.267920831218362"><ele></ele><time>2013-8-1T17:5:10Z</time></trkpt>
<trkpt lat="46.07431213371456" lon="7.267935834825039"><ele></ele><time>2013-8-1T17:5:13Z</time></trkpt>
<trkpt lat="46.07432445511222" lon="7.267952095717192"><ele></ele><time>2013-8-1T17:5:16Z</time></trkpt>
<trkpt lat="46.07433903962374" lon="7.267964584752917"><ele></ele><time>2013-8-1T17:5:19Z</time></trkpt>
<trkpt lat="46.07435437850654" lon="7.267976067960262"><ele></ele><time>2013-8-1T17:5:22Z</time></trkpt>
<trkpt lat="46.07442948035896" lon="7.2680319752544165"><ele></ele><time>2013-8-1T17:5:25Z</time></trkpt>
<trkpt lat="46.07444607652724" lon="7.268043207004666"><ele></ele><time>2013-8-1T17:5:28Z</time></trkpt>
<trkpt lat="46.074459571391344" lon="7.268057623878121"><ele></ele><time>2013-8-1T17:5:31Z</time></trkpt>
<trkpt lat="46.07446862384677" lon="7.268070112913847"><ele></ele><time>2013-8-1T17:5:34Z</time></trkpt>
<trkpt lat="46.074483627453446" lon="7.268082518130541"><ele></ele><time>2013-8-1T17:5:37Z</time></trkpt>
<trkpt lat="46.0744946077466" lon="7.268100203946233"><ele></ele><time>2013-8-1T17:5:40Z</time></trkpt>
<trkpt lat="46.074519669637084" lon="7.268131468445063"><ele></ele><time>2013-8-1T17:5:43Z</time></trkpt>
<trkpt lat="46.07460776343942" lon="7.268255352973938"><ele></ele><time>2013-8-1T17:5:46Z</time></trkpt>
<trkpt lat="46.07462025247514" lon="7.26827354170382"><ele></ele><time>2013-8-1T17:5:49Z</time></trkpt>
<trkpt lat="46.07463039457798" lon="7.268293239176273"><ele></ele><time>2013-8-1T17:5:52Z</time></trkpt>
<trkpt lat="46.07463919557631" lon="7.268310757353902"><ele></ele><time>2013-8-1T17:5:55Z</time></trkpt>
<trkpt lat="46.07470951974392" lon="7.268387200310826"><ele></ele><time>2013-8-1T17:5:58Z</time></trkpt>
<trkpt lat="46.07471848838031" lon="7.26839667186141"><ele></ele><time>2013-8-1T17:6:1Z</time></trkpt>
<trkpt lat="46.074729301035404" lon="7.268409747630358"><ele></ele><time>2013-8-1T17:6:4Z</time></trkpt>
<trkpt lat="46.07474279589951" lon="7.268420560285449"><ele></ele><time>2013-8-1T17:6:7Z</time></trkpt>
<trkpt lat="46.074753273278475" lon="7.268433468416333"><ele></ele><time>2013-8-1T17:6:10Z</time></trkpt>
<trkpt lat="46.07476467266679" lon="7.268449226394296"><ele></ele><time>2013-8-1T17:6:13Z</time></trkpt>
<trkpt lat="46.07478864490986" lon="7.268471941351891"><ele></ele><time>2013-8-1T17:6:16Z</time></trkpt>
<trkpt lat="46.07484631240368" lon="7.268528435379267"><ele></ele><time>2013-8-1T17:6:19Z</time></trkpt>
<trkpt lat="46.07485645450652" lon="7.268541427329183"><ele></ele><time>2013-8-1T17:6:22Z</time></trkpt>
<trkpt lat="46.074870033189654" lon="7.268555089831352"><ele></ele><time>2013-8-1T17:6:25Z</time></trkpt>
<trkpt lat="46.0748831089586" lon="7.26856623776257"><ele></ele><time>2013-8-1T17:6:28Z</time></trkpt>
<trkpt lat="46.074895933270454" lon="7.268579229712486"><ele></ele><time>2013-8-1T17:6:31Z</time></trkpt>
<trkpt lat="46.07494991272688" lon="7.268637232482433"><ele></ele><time>2013-8-1T17:6:34Z</time></trkpt>
<trkpt lat="46.07496030628681" lon="7.268657768145204"><ele></ele><time>2013-8-1T17:6:37Z</time></trkpt>
<trkpt lat="46.07496935874224" lon="7.268676292151213"><ele></ele><time>2013-8-1T17:6:40Z</time></trkpt>
<trkpt lat="46.074977992102504" lon="7.268694397062063"><ele></ele><time>2013-8-1T17:6:43Z</time></trkpt>
<trkpt lat="46.074982518330216" lon="7.268709233030677"><ele></ele><time>2013-8-1T17:6:46Z</time></trkpt>
<trkpt lat="46.07498763129115" lon="7.2687275893986225"><ele></ele><time>2013-8-1T17:6:49Z</time></trkpt>
<trkpt lat="46.074992241337895" lon="7.268742425367236"><ele></ele><time>2013-8-1T17:6:52Z</time></trkpt>
<trkpt lat="46.07499970123172" lon="7.268762206658721"><ele></ele><time>2013-8-1T17:6:55Z</time></trkpt>
<trkpt lat="46.075039599090815" lon="7.268862873315811"><ele></ele><time>2013-8-1T17:6:58Z</time></trkpt>
<trkpt lat="46.07504898682237" lon="7.268878715112805"><ele></ele><time>2013-8-1T17:7:1Z</time></trkpt>
<trkpt lat="46.075056781992316" lon="7.268897071480751"><ele></ele><time>2013-8-1T17:7:4Z</time></trkpt>
<trkpt lat="46.075069857761264" lon="7.268910147249699"><ele></ele><time>2013-8-1T17:7:7Z</time></trkpt>
<trkpt lat="46.075079664587975" lon="7.268927162513137"><ele></ele><time>2013-8-1T17:7:10Z</time></trkpt>
<trkpt lat="46.07511721551418" lon="7.26896446198225"><ele></ele><time>2013-8-1T17:7:13Z</time></trkpt>
<trkpt lat="46.07516842894256" lon="7.269019950181246"><ele></ele><time>2013-8-1T17:7:16Z</time></trkpt>
<trkpt lat="46.07518301345408" lon="7.269028080627322"><ele></ele><time>2013-8-1T17:7:19Z</time></trkpt>
<trkpt lat="46.07519835233688" lon="7.269037049263716"><ele></ele><time>2013-8-1T17:7:22Z</time></trkpt>
<trkpt lat="46.075213607400656" lon="7.269053226336837"><ele></ele><time>2013-8-1T17:7:25Z</time></trkpt>
<trkpt lat="46.07522928155959" lon="7.269062781706452"><ele></ele><time>2013-8-1T17:7:28Z</time></trkpt>
<trkpt lat="46.07531066983938" lon="7.269126735627651"><ele></ele><time>2013-8-1T17:7:31Z</time></trkpt>
<trkpt lat="46.07532374560833" lon="7.269135117530823"><ele></ele><time>2013-8-1T17:7:34Z</time></trkpt>
<trkpt lat="46.075340174138546" lon="7.269141403958201"><ele></ele><time>2013-8-1T17:7:37Z</time></trkpt>
<trkpt lat="46.07535350136459" lon="7.269150288775563"><ele></ele><time>2013-8-1T17:7:40Z</time></trkpt>
<trkpt lat="46.07536448165774" lon="7.269159089773893"><ele></ele><time>2013-8-1T17:7:43Z</time></trkpt>
<trkpt lat="46.07537839561701" lon="7.269160849973559"><ele></ele><time>2013-8-1T17:7:46Z</time></trkpt>
<trkpt lat="46.07538837008178" lon="7.269175602123141"><ele></ele><time>2013-8-1T17:7:49Z</time></trkpt>
<trkpt lat="46.07539574615657" lon="7.269189264625311"><ele></ele><time>2013-8-1T17:7:52Z</time></trkpt>
<trkpt lat="46.07540991157293" lon="7.2692035138607025"><ele></ele><time>2013-8-1T17:7:55Z</time></trkpt>
<trkpt lat="46.07546431012452" lon="7.269258247688413"><ele></ele><time>2013-8-1T17:7:58Z</time></trkpt>
<trkpt lat="46.07547855935991" lon="7.269266294315457"><ele></ele><time>2013-8-1T17:8:1Z</time></trkpt>
<trkpt lat="46.0754909645766" lon="7.26927911862731"><ele></ele><time>2013-8-1T17:8:4Z</time></trkpt>
<trkpt lat="46.075504375621676" lon="7.2692900989204645"><ele></ele><time>2013-8-1T17:8:7Z</time></trkpt>
<trkpt lat="46.075591212138534" lon="7.2693669609725475"><ele></ele><time>2013-8-1T17:8:10Z</time></trkpt>
<trkpt lat="46.07560437172651" lon="7.269376013427973"><ele></ele><time>2013-8-1T17:8:13Z</time></trkpt>
<trkpt lat="46.07561686076224" lon="7.269382802769542"><ele></ele><time>2013-8-1T17:8:16Z</time></trkpt>
<trkpt lat="46.075629936531186" lon="7.269388251006603"><ele></ele><time>2013-8-1T17:8:19Z</time></trkpt>
<trkpt lat="46.07564586214721" lon="7.269398728385568"><ele></ele><time>2013-8-1T17:8:22Z</time></trkpt>
<trkpt lat="46.07570034451783" lon="7.2694373689591885"><ele></ele><time>2013-8-1T17:8:25Z</time></trkpt>
<trkpt lat="46.075729513540864" lon="7.269452875480056"><ele></ele><time>2013-8-1T17:8:28Z</time></trkpt>
<trkpt lat="46.07574359513819" lon="7.269465448334813"><ele></ele><time>2013-8-1T17:8:31Z</time></trkpt>
<trkpt lat="46.07575633563101" lon="7.269475674256682"><ele></ele><time>2013-8-1T17:8:34Z</time></trkpt>
<trkpt lat="46.07576790265739" lon="7.269483553245664"><ele></ele><time>2013-8-1T17:8:37Z</time></trkpt>
<trkpt lat="46.07577863149345" lon="7.269490007311106"><ele></ele><time>2013-8-1T17:8:40Z</time></trkpt>
<trkpt lat="46.075829677283764" lon="7.269517499953508"><ele></ele><time>2013-8-1T17:8:43Z</time></trkpt>
<trkpt lat="46.07584107667208" lon="7.26952537894249"><ele></ele><time>2013-8-1T17:8:46Z</time></trkpt>
<trkpt lat="46.07585524208844" lon="7.269539460539818"><ele></ele><time>2013-8-1T17:8:49Z</time></trkpt>
<trkpt lat="46.075866390019655" lon="7.2695492673665285"><ele></ele><time>2013-8-1T17:8:52Z</time></trkpt>
<trkpt lat="46.0758794657886" lon="7.269558487460017"><ele></ele><time>2013-8-1T17:8:55Z</time></trkpt>
<trkpt lat="46.075928919017315" lon="7.269576340913773"><ele></ele><time>2013-8-1T17:8:58Z</time></trkpt>
<trkpt lat="46.07593880966306" lon="7.269580867141485"><ele></ele><time>2013-8-1T17:9:1Z</time></trkpt>
<trkpt lat="46.07595498673618" lon="7.269587824121118"><ele></ele><time>2013-8-1T17:9:4Z</time></trkpt>
<trkpt lat="46.07596722431481" lon="7.269593691453338"><ele></ele><time>2013-8-1T17:9:7Z</time></trkpt>
<trkpt lat="46.07597795315087" lon="7.2695957869291306"><ele></ele><time>2013-8-1T17:9:10Z</time></trkpt>
<trkpt lat="46.07601718045771" lon="7.269614562392235"><ele></ele><time>2013-8-1T17:9:13Z</time></trkpt>
<trkpt lat="46.07606923207641" lon="7.269647670909762"><ele></ele><time>2013-8-1T17:9:16Z</time></trkpt>
<trkpt lat="46.076081804931164" lon="7.269658986479044"><ele></ele><time>2013-8-1T17:9:19Z</time></trkpt>
<trkpt lat="46.07609177939594" lon="7.269667452201247"><ele></ele><time>2013-8-1T17:9:22Z</time></trkpt>
<trkpt lat="46.07610745355487" lon="7.269677594304085"><ele></ele><time>2013-8-1T17:9:25Z</time></trkpt>
<trkpt lat="46.07611390762031" lon="7.269690586254001"><ele></ele><time>2013-8-1T17:9:28Z</time></trkpt>
<trkpt lat="46.07614668086171" lon="7.269710619002581"><ele></ele><time>2013-8-1T17:9:31Z</time></trkpt>
<trkpt lat="46.07615791261196" lon="7.269721180200577"><ele></ele><time>2013-8-1T17:9:34Z</time></trkpt>
<trkpt lat="46.07617090456188" lon="7.269729310646653"><ele></ele><time>2013-8-1T17:9:37Z</time></trkpt>
<trkpt lat="46.07618222013116" lon="7.269738698378205"><ele></ele><time>2013-8-1T17:9:40Z</time></trkpt>
<trkpt lat="46.07618951238692" lon="7.269750349223614"><ele></ele><time>2013-8-1T17:9:43Z</time></trkpt>
<trkpt lat="46.076226728037" lon="7.269802317023277"><ele></ele><time>2013-8-1T17:9:46Z</time></trkpt>
<trkpt lat="46.07624080963433" lon="7.269807010889053"><ele></ele><time>2013-8-1T17:9:49Z</time></trkpt>
<trkpt lat="46.0762491915375" lon="7.269820673391223"><ele></ele><time>2013-8-1T17:9:52Z</time></trkpt>
<trkpt lat="46.07626427896321" lon="7.269835928454995"><ele></ele><time>2013-8-1T17:9:55Z</time></trkpt>
<trkpt lat="46.07627643272281" lon="7.269849926233292"><ele></ele><time>2013-8-1T17:9:58Z</time></trkpt>
<trkpt lat="46.07628473080695" lon="7.269870964810252"><ele></ele><time>2013-8-1T17:10:1Z</time></trkpt>
<trkpt lat="46.07629663310945" lon="7.269883872941136"><ele></ele><time>2013-8-1T17:10:4Z</time></trkpt>
<trkpt lat="46.07631079852581" lon="7.269892003387213"><ele></ele><time>2013-8-1T17:10:7Z</time></trkpt>
<trkpt lat="46.0763580724597" lon="7.269932152703404"><ele></ele><time>2013-8-1T17:10:10Z</time></trkpt>
<trkpt lat="46.07636779546738" lon="7.269941959530115"><ele></ele><time>2013-8-1T17:10:13Z</time></trkpt>
<trkpt lat="46.076378440484405" lon="7.269948832690716"><ele></ele><time>2013-8-1T17:10:16Z</time></trkpt>
<trkpt lat="46.076391600072384" lon="7.269958555698395"><ele></ele><time>2013-8-1T17:10:19Z</time></trkpt>
<trkpt lat="46.07640249654651" lon="7.269974397495389"><ele></ele><time>2013-8-1T17:10:22Z</time></trkpt>
<trkpt lat="46.07645044103265" lon="7.270046062767506"><ele></ele><time>2013-8-1T17:10:25Z</time></trkpt>
<trkpt lat="46.076460583135486" lon="7.27005410939455"><ele></ele><time>2013-8-1T17:10:28Z</time></trkpt>
<trkpt lat="46.076472736895084" lon="7.2700652573257685"><ele></ele><time>2013-8-1T17:10:31Z</time></trkpt>
<trkpt lat="46.076482543721795" lon="7.27007657289505"><ele></ele><time>2013-8-1T17:10:34Z</time></trkpt>
<trkpt lat="46.0764926020056" lon="7.270086128264666"><ele></ele><time>2013-8-1T17:10:37Z</time></trkpt>
<trkpt lat="46.07650274410844" lon="7.270094593986869"><ele></ele><time>2013-8-1T17:10:40Z</time></trkpt>
<trkpt lat="46.0765081923455" lon="7.270113788545132"><ele></ele><time>2013-8-1T17:10:43Z</time></trkpt>
<trkpt lat="46.07653166167438" lon="7.270153518766165"><ele></ele><time>2013-8-1T17:10:46Z</time></trkpt>
<trkpt lat="46.076560663059354" lon="7.270203055813909"><ele></ele><time>2013-8-1T17:10:49Z</time></trkpt>
<trkpt lat="46.07656300999224" lon="7.270220573991537"><ele></ele><time>2013-8-1T17:10:52Z</time></trkpt>
<trkpt lat="46.07657164335251" lon="7.270228369161487"><ele></ele><time>2013-8-1T17:10:55Z</time></trkpt>
<trkpt lat="46.07658304274082" lon="7.270239349454641"><ele></ele><time>2013-8-1T17:10:58Z</time></trkpt>
<trkpt lat="46.07658782042563" lon="7.270255945622921"><ele></ele><time>2013-8-1T17:11:1Z</time></trkpt>
<trkpt lat="46.076600728556514" lon="7.270292239263654"><ele></ele><time>2013-8-1T17:11:4Z</time></trkpt>
<trkpt lat="46.076632998883724" lon="7.270392989739776"><ele></ele><time>2013-8-1T17:11:7Z</time></trkpt>
<trkpt lat="46.07664171606302" lon="7.27044990286231"><ele></ele><time>2013-8-1T17:11:10Z</time></trkpt>
<trkpt lat="46.07664364390075" lon="7.270472701638937"><ele></ele><time>2013-8-1T17:11:13Z</time></trkpt>
<trkpt lat="46.07664414681494" lon="7.27049726061523"><ele></ele><time>2013-8-1T17:11:16Z</time></trkpt>
<trkpt lat="46.076636519283056" lon="7.270520059391856"><ele></ele><time>2013-8-1T17:11:19Z</time></trkpt>
<trkpt lat="46.076627718284726" lon="7.270541852340102"><ele></ele><time>2013-8-1T17:11:22Z</time></trkpt>
<trkpt lat="46.07658480294049" lon="7.270597005262971"><ele></ele><time>2013-8-1T17:11:25Z</time></trkpt>
<trkpt lat="46.0765774268657" lon="7.270601699128747"><ele></ele><time>2013-8-1T17:11:28Z</time></trkpt>
<trkpt lat="46.076562171801925" lon="7.270603040233254"><ele></ele><time>2013-8-1T17:11:31Z</time></trkpt>
<trkpt lat="46.07655177824199" lon="7.270611170679331"><ele></ele><time>2013-8-1T17:11:34Z</time></trkpt>
<trkpt lat="46.0765393730253" lon="7.270608739927411"><ele></ele><time>2013-8-1T17:11:37Z</time></trkpt>
<trkpt lat="46.07652520760894" lon="7.270612511783838"><ele></ele><time>2013-8-1T17:11:40Z</time></trkpt>
<trkpt lat="46.076514814049006" lon="7.270622234791517"><ele></ele><time>2013-8-1T17:11:43Z</time></trkpt>
<trkpt lat="46.0765029117465" lon="7.270630029961467"><ele></ele><time>2013-8-1T17:11:46Z</time></trkpt>
<trkpt lat="46.076481537893414" lon="7.27065509185195"><ele></ele><time>2013-8-1T17:11:49Z</time></trkpt>
<trkpt lat="46.076472317799926" lon="7.270697085186839"><ele></ele><time>2013-8-1T17:11:52Z</time></trkpt>
<trkpt lat="46.07647215016186" lon="7.270710999146104"><ele></ele><time>2013-8-1T17:11:55Z</time></trkpt>
<trkpt lat="46.07647340744734" lon="7.2707299422472715"><ele></ele><time>2013-8-1T17:11:58Z</time></trkpt>
<trkpt lat="46.076472736895084" lon="7.270747208967805"><ele></ele><time>2013-8-1T17:12:1Z</time></trkpt>
<trkpt lat="46.07648170553148" lon="7.270761542022228"><ele></ele><time>2013-8-1T17:12:4Z</time></trkpt>
<trkpt lat="46.076501654461026" lon="7.270812001079321"><ele></ele><time>2013-8-1T17:12:7Z</time></trkpt>
<trkpt lat="46.076515819877386" lon="7.2708262503147125"><ele></ele><time>2013-8-1T17:12:10Z</time></trkpt>
<trkpt lat="46.076529482379556" lon="7.270840834826231"><ele></ele><time>2013-8-1T17:12:13Z</time></trkpt>
<trkpt lat="46.07654565945268" lon="7.270845863968134"><ele></ele><time>2013-8-1T17:12:16Z</time></trkpt>
<trkpt lat="46.07655739411712" lon="7.270854916423559"><ele></ele><time>2013-8-1T17:12:19Z</time></trkpt>
<trkpt lat="46.076570469886065" lon="7.27085935883224"><ele></ele><time>2013-8-1T17:12:22Z</time></trkpt>
<trkpt lat="46.07658253982663" lon="7.270866651087999"><ele></ele><time>2013-8-1T17:12:25Z</time></trkpt>
<trkpt lat="46.0766102001071" lon="7.270877715200186"><ele></ele><time>2013-8-1T17:12:28Z</time></trkpt>
<trkpt lat="46.07668882235885" lon="7.270938400179148"><ele></ele><time>2013-8-1T17:12:31Z</time></trkpt>
<trkpt lat="46.07671824283898" lon="7.270963294431567"><ele></ele><time>2013-8-1T17:12:34Z</time></trkpt>
<trkpt lat="46.07673383317888" lon="7.270975532010198"><ele></ele><time>2013-8-1T17:12:37Z</time></trkpt>
<trkpt lat="46.07674942351878" lon="7.27099128998816"><ele></ele><time>2013-8-1T17:12:40Z</time></trkpt>
<trkpt lat="46.07676065526903" lon="7.271004701033235"><ele></ele><time>2013-8-1T17:12:43Z</time></trkpt>
<trkpt lat="46.07677054591477" lon="7.271018363535404"><ele></ele><time>2013-8-1T17:12:46Z</time></trkpt>
<trkpt lat="46.0768261179328" lon="7.271090196445584"><ele></ele><time>2013-8-1T17:12:49Z</time></trkpt>
<trkpt lat="46.07690784148872" lon="7.271156664937735"><ele></ele><time>2013-8-1T17:12:52Z</time></trkpt>
<trkpt lat="46.07692116871476" lon="7.27117451839149"><ele></ele><time>2013-8-1T17:12:55Z</time></trkpt>
<trkpt lat="46.07693038880825" lon="7.271187761798501"><ele></ele><time>2013-8-1T17:12:58Z</time></trkpt>
<trkpt lat="46.07694388367236" lon="7.2712035197764635"><ele></ele><time>2013-8-1T17:13:1Z</time></trkpt>
<trkpt lat="46.076954612508416" lon="7.271220283582807"><ele></ele><time>2013-8-1T17:13:4Z</time></trkpt>
<trkpt lat="46.077031809836626" lon="7.271320028230548"><ele></ele><time>2013-8-1T17:13:7Z</time></trkpt>
<trkpt lat="46.077059134840965" lon="7.271350286900997"><ele></ele><time>2013-8-1T17:13:10Z</time></trkpt>
<trkpt lat="46.07706910930574" lon="7.271365625783801"><ele></ele><time>2013-8-1T17:13:13Z</time></trkpt>
<trkpt lat="46.07707950286567" lon="7.27138314396143"><ele></ele><time>2013-8-1T17:13:16Z</time></trkpt>
<trkpt lat="46.07708964496851" lon="7.271400159224868"><ele></ele><time>2013-8-1T17:13:19Z</time></trkpt>
<trkpt lat="46.07715703547001" lon="7.27148381061852"><ele></ele><time>2013-8-1T17:13:22Z</time></trkpt>
<trkpt lat="46.07719953171909" lon="7.271530497819185"><ele></ele><time>2013-8-1T17:13:25Z</time></trkpt>
<trkpt lat="46.07720824889839" lon="7.271544160321355"><ele></ele><time>2013-8-1T17:13:28Z</time></trkpt>
<trkpt lat="46.07721813954413" lon="7.271559666842222"><ele></ele><time>2013-8-1T17:13:31Z</time></trkpt>
<trkpt lat="46.07722601853311" lon="7.271573077887297"><ele></ele><time>2013-8-1T17:13:34Z</time></trkpt>
<trkpt lat="46.0772333946079" lon="7.27158741094172"><ele></ele><time>2013-8-1T17:13:37Z</time></trkpt>
<trkpt lat="46.07724194414914" lon="7.27160451002419"><ele></ele><time>2013-8-1T17:13:40Z</time></trkpt>
<trkpt lat="46.077335653826594" lon="7.271777177229524"><ele></ele><time>2013-8-1T17:13:43Z</time></trkpt>
<trkpt lat="46.07734831050038" lon="7.2717957850545645"><ele></ele><time>2013-8-1T17:13:46Z</time></trkpt>
<trkpt lat="46.077359626069665" lon="7.27181657217443"><ele></ele><time>2013-8-1T17:13:49Z</time></trkpt>
<trkpt lat="46.07737102545798" lon="7.271837778389454"><ele></ele><time>2013-8-1T17:13:52Z</time></trkpt>
<trkpt lat="46.07743523083627" lon="7.271954705938697"><ele></ele><time>2013-8-1T17:13:55Z</time></trkpt>
<trkpt lat="46.07745476067066" lon="7.271998208016157"><ele></ele><time>2013-8-1T17:13:58Z</time></trkpt>
<trkpt lat="46.07746104709804" lon="7.272018156945705"><ele></ele><time>2013-8-1T17:14:1Z</time></trkpt>
<trkpt lat="46.07746825553477" lon="7.272037100046873"><ele></ele><time>2013-8-1T17:14:4Z</time></trkpt>
<trkpt lat="46.07747764326632" lon="7.272056881338358"><ele></ele><time>2013-8-1T17:14:7Z</time></trkpt>
<trkpt lat="46.07749323360622" lon="7.272073393687606"><ele></ele><time>2013-8-1T17:14:10Z</time></trkpt>
<trkpt lat="46.0775338858366" lon="7.2721995413303375"><ele></ele><time>2013-8-1T17:14:13Z</time></trkpt>
<trkpt lat="46.07753396965563" lon="7.272221837192774"><ele></ele><time>2013-8-1T17:14:16Z</time></trkpt>
<trkpt lat="46.07753514312208" lon="7.272244216874242"><ele></ele><time>2013-8-1T17:14:19Z</time></trkpt>
<trkpt lat="46.07753422111273" lon="7.272259807214141"><ele></ele><time>2013-8-1T17:14:22Z</time></trkpt>
<trkpt lat="46.07753170654178" lon="7.272281013429165"><ele></ele><time>2013-8-1T17:14:25Z</time></trkpt>
<trkpt lat="46.0775391664356" lon="7.272298699244857"><ele></ele><time>2013-8-1T17:14:28Z</time></trkpt>
<trkpt lat="46.077545788139105" lon="7.2723379265517"><ele></ele><time>2013-8-1T17:14:31Z</time></trkpt>
<trkpt lat="46.077552661299706" lon="7.272377908229828"><ele></ele><time>2013-8-1T17:14:34Z</time></trkpt>
<trkpt lat="46.077556097880006" lon="7.2724001202732325"><ele></ele><time>2013-8-1T17:14:37Z</time></trkpt>
<trkpt lat="46.07755676843226" lon="7.272422416135669"><ele></ele><time>2013-8-1T17:14:40Z</time></trkpt>
<trkpt lat="46.07755760662258" lon="7.272445047274232"><ele></ele><time>2013-8-1T17:14:43Z</time></trkpt>
<trkpt lat="46.07756171375513" lon="7.272464158013463"><ele></ele><time>2013-8-1T17:14:46Z</time></trkpt>
<trkpt lat="46.077568335458636" lon="7.272528195753694"><ele></ele><time>2013-8-1T17:14:49Z</time></trkpt>
<trkpt lat="46.077559450641274" lon="7.272619474679232"><ele></ele><time>2013-8-1T17:14:52Z</time></trkpt>
<trkpt lat="46.07756104320288" lon="7.272640597075224"><ele></ele><time>2013-8-1T17:14:55Z</time></trkpt>
<trkpt lat="46.07756255194545" lon="7.27265895344317"><ele></ele><time>2013-8-1T17:14:58Z</time></trkpt>
<trkpt lat="46.07756028883159" lon="7.272677896544337"><ele></ele><time>2013-8-1T17:15:1Z</time></trkpt>
<trkpt lat="46.07755190692842" lon="7.2726919781416655"><ele></ele><time>2013-8-1T17:15:4Z</time></trkpt>
<trkpt lat="46.077527180314064" lon="7.272762972861528"><ele></ele><time>2013-8-1T17:15:7Z</time></trkpt>
<trkpt lat="46.077521815896034" lon="7.272784262895584"><ele></ele><time>2013-8-1T17:15:10Z</time></trkpt>
<trkpt lat="46.07752030715346" lon="7.27280605584383"><ele></ele><time>2013-8-1T17:15:13Z</time></trkpt>
<trkpt lat="46.07751720584929" lon="7.272826926782727"><ele></ele><time>2013-8-1T17:15:16Z</time></trkpt>
<trkpt lat="46.07751678675413" lon="7.272851904854178"><ele></ele><time>2013-8-1T17:15:19Z</time></trkpt>
<trkpt lat="46.07751611620188" lon="7.272879481315613"><ele></ele><time>2013-8-1T17:15:22Z</time></trkpt>
<trkpt lat="46.077515026554465" lon="7.272900436073542"><ele></ele><time>2013-8-1T17:15:25Z</time></trkpt>
<trkpt lat="46.0775167029351" lon="7.272922899574041"><ele></ele><time>2013-8-1T17:15:28Z</time></trkpt>
<trkpt lat="46.077535562217236" lon="7.273016022518277"><ele></ele><time>2013-8-1T17:15:31Z</time></trkpt>
<trkpt lat="46.077542435377836" lon="7.273038402199745"><ele></ele><time>2013-8-1T17:15:34Z</time></trkpt>
<trkpt lat="46.07755148783326" lon="7.273058267310262"><ele></ele><time>2013-8-1T17:15:37Z</time></trkpt>
<trkpt lat="46.077559534460306" lon="7.273077880963683"><ele></ele><time>2013-8-1T17:15:40Z</time></trkpt>
<trkpt lat="46.077566742897034" lon="7.273093722760677"><ele></ele><time>2013-8-1T17:15:43Z</time></trkpt>
<trkpt lat="46.07761594466865" lon="7.273202855139971"><ele></ele><time>2013-8-1T17:15:46Z</time></trkpt>
<trkpt lat="46.0776237398386" lon="7.273227581754327"><ele></ele><time>2013-8-1T17:15:49Z</time></trkpt>
<trkpt lat="46.07763103209436" lon="7.273251805454493"><ele></ele><time>2013-8-1T17:15:52Z</time></trkpt>
<trkpt lat="46.0776393301785" lon="7.273271000012755"><ele></ele><time>2013-8-1T17:15:55Z</time></trkpt>
<trkpt lat="46.07764469459653" lon="7.2732912842184305"><ele></ele><time>2013-8-1T17:15:58Z</time></trkpt>
<trkpt lat="46.07767587527633" lon="7.273401087149978"><ele></ele><time>2013-8-1T17:16:1Z</time></trkpt>
<trkpt lat="46.07768274843693" lon="7.273471662774682"><ele></ele><time>2013-8-1T17:16:4Z</time></trkpt>
<trkpt lat="46.07768274843693" lon="7.273500328883529"><ele></ele><time>2013-8-1T17:16:7Z</time></trkpt>
<trkpt lat="46.077681574970484" lon="7.273517930880189"><ele></ele><time>2013-8-1T17:16:10Z</time></trkpt>
<trkpt lat="46.07767512090504" lon="7.273539723828435"><ele></ele><time>2013-8-1T17:16:13Z</time></trkpt>
<trkpt lat="46.07766950502992" lon="7.273560427129269"><ele></ele><time>2013-8-1T17:16:16Z</time></trkpt>
<trkpt lat="46.077633714303374" lon="7.273617340251803"><ele></ele><time>2013-8-1T17:16:19Z</time></trkpt>
<trkpt lat="46.077619045972824" lon="7.273619351908565"><ele></ele><time>2013-8-1T17:16:22Z</time></trkpt>
<trkpt lat="46.077610244974494" lon="7.273630667477846"><ele></ele><time>2013-8-1T17:16:25Z</time></trkpt>
<trkpt lat="46.07760320417583" lon="7.273648185655475"><ele></ele><time>2013-8-1T17:16:28Z</time></trkpt>
<trkpt lat="46.07759146951139" lon="7.273668721318245"><ele></ele><time>2013-8-1T17:16:31Z</time></trkpt>
<trkpt lat="46.077583925798535" lon="7.273687915876508"><ele></ele><time>2013-8-1T17:16:34Z</time></trkpt>
<trkpt lat="46.07757680118084" lon="7.273733094334602"><ele></ele><time>2013-8-1T17:16:37Z</time></trkpt>
<trkpt lat="46.07759155333042" lon="7.2738072741776705"><ele></ele><time>2013-8-1T17:16:40Z</time></trkpt>
<trkpt lat="46.07760027050972" lon="7.273824205622077"><ele></ele><time>2013-8-1T17:16:43Z</time></trkpt>
<trkpt lat="46.07760764658451" lon="7.2738393768668175"><ele></ele><time>2013-8-1T17:16:46Z</time></trkpt>
<trkpt lat="46.077617621049285" lon="7.273858403787017"><ele></ele><time>2013-8-1T17:16:49Z</time></trkpt>
<trkpt lat="46.07763111591339" lon="7.273873910307884"><ele></ele><time>2013-8-1T17:16:52Z</time></trkpt>
<trkpt lat="46.07769842259586" lon="7.273890925571322"><ele></ele><time>2013-8-1T17:16:55Z</time></trkpt>
<trkpt lat="46.07778006233275" lon="7.273854548111558"><ele></ele><time>2013-8-1T17:16:58Z</time></trkpt>
<trkpt lat="46.07779481448233" lon="7.273853709921241"><ele></ele><time>2013-8-1T17:17:1Z</time></trkpt>
<trkpt lat="46.07781283557415" lon="7.2738532070070505"><ele></ele><time>2013-8-1T17:17:4Z</time></trkpt>
<trkpt lat="46.0778293479234" lon="7.27385220117867"><ele></ele><time>2013-8-1T17:17:7Z</time></trkpt>
<trkpt lat="46.077847285196185" lon="7.273845747113228"><ele></ele><time>2013-8-1T17:17:10Z</time></trkpt>
<trkpt lat="46.07795147225261" lon="7.2737907618284225"><ele></ele><time>2013-8-1T17:17:13Z</time></trkpt>
<trkpt lat="46.07802523300052" lon="7.273754719644785"><ele></ele><time>2013-8-1T17:17:16Z</time></trkpt>
<trkpt lat="46.07804283499718" lon="7.27374273352325"><ele></ele><time>2013-8-1T17:17:19Z</time></trkpt>
<trkpt lat="46.07806001789868" lon="7.273735525086522"><ele></ele><time>2013-8-1T17:17:22Z</time></trkpt>
<trkpt lat="46.078077955171466" lon="7.273731250315905"><ele></ele><time>2013-8-1T17:17:25Z</time></trkpt>
<trkpt lat="46.07809279114008" lon="7.273717503994703"><ele></ele><time>2013-8-1T17:17:28Z</time></trkpt>
<trkpt lat="46.07818465679884" lon="7.273652963340282"><ele></ele><time>2013-8-1T17:17:31Z</time></trkpt>
<trkpt lat="46.0781972296536" lon="7.273639887571335"><ele></ele><time>2013-8-1T17:17:34Z</time></trkpt>
<trkpt lat="46.078211730346084" lon="7.273625638335943"><ele></ele><time>2013-8-1T17:17:37Z</time></trkpt>
<trkpt lat="46.078226482495666" lon="7.273608706891537"><ele></ele><time>2013-8-1T17:17:40Z</time></trkpt>
<trkpt lat="46.07823855243623" lon="7.273592529818416"><ele></ele><time>2013-8-1T17:17:43Z</time></trkpt>
<trkpt lat="46.07824391685426" lon="7.2735636960715055"><ele></ele><time>2013-8-1T17:17:46Z</time></trkpt>
<trkpt lat="46.07825422659516" lon="7.273496808484197"><ele></ele><time>2013-8-1T17:17:49Z</time></trkpt>
<trkpt lat="46.07825204730034" lon="7.27345054037869"><ele></ele><time>2013-8-1T17:17:52Z</time></trkpt>
<trkpt lat="46.07825313694775" lon="7.2734282445162535"><ele></ele><time>2013-8-1T17:17:55Z</time></trkpt>
<trkpt lat="46.078250454738736" lon="7.2734093852341175"><ele></ele><time>2013-8-1T17:17:58Z</time></trkpt>
<trkpt lat="46.07824710197747" lon="7.273390106856823"><ele></ele><time>2013-8-1T17:18:1Z</time></trkpt>
<trkpt lat="46.078239139169455" lon="7.273344425484538"><ele></ele><time>2013-8-1T17:18:4Z</time></trkpt>
<trkpt lat="46.07821642421186" lon="7.273239819332957"><ele></ele><time>2013-8-1T17:18:7Z</time></trkpt>
<trkpt lat="46.07821692712605" lon="7.27321551181376"><ele></ele><time>2013-8-1T17:18:10Z</time></trkpt>
<trkpt lat="46.07821583747864" lon="7.273192880675197"><ele></ele><time>2013-8-1T17:18:13Z</time></trkpt>
<trkpt lat="46.07821650803089" lon="7.27317008189857"><ele></ele><time>2013-8-1T17:18:16Z</time></trkpt>
<trkpt lat="46.07822572812438" lon="7.273147534579039"><ele></ele><time>2013-8-1T17:18:19Z</time></trkpt>
<trkpt lat="46.07822958379984" lon="7.2731290105730295"><ele></ele><time>2013-8-1T17:18:22Z</time></trkpt>
<trkpt lat="46.0782574955374" lon="7.273062542080879"><ele></ele><time>2013-8-1T17:18:25Z</time></trkpt>
<trkpt lat="46.07827962376177" lon="7.273028260096908"><ele></ele><time>2013-8-1T17:18:28Z</time></trkpt>
<trkpt lat="46.078292364254594" lon="7.273015016689897"><ele></ele><time>2013-8-1T17:18:31Z</time></trkpt>
<trkpt lat="46.078307032585144" lon="7.273012921214104"><ele></ele><time>2013-8-1T17:18:34Z</time></trkpt>
<trkpt lat="46.07832538895309" lon="7.272998336702585"><ele></ele><time>2013-8-1T17:18:37Z</time></trkpt>
<trkpt lat="46.078344164416194" lon="7.273001940920949"><ele></ele><time>2013-8-1T17:18:40Z</time></trkpt>
<trkpt lat="46.07839286327362" lon="7.273037983104587"><ele></ele><time>2013-8-1T17:18:43Z</time></trkpt>
<trkpt lat="46.07844315469265" lon="7.273081569001079"><ele></ele><time>2013-8-1T17:18:46Z</time></trkpt>
<trkpt lat="46.078458493575454" lon="7.27308458648622"><ele></ele><time>2013-8-1T17:18:49Z</time></trkpt>
<trkpt lat="46.078474670648575" lon="7.273086262866855"><ele></ele><time>2013-8-1T17:18:52Z</time></trkpt>
<trkpt lat="46.07848992571235" lon="7.273085508495569"><ele></ele><time>2013-8-1T17:18:55Z</time></trkpt>
<trkpt lat="46.07850559987128" lon="7.273081233724952"><ele></ele><time>2013-8-1T17:18:58Z</time></trkpt>
<trkpt lat="46.07863074168563" lon="7.273065475746989"><ele></ele><time>2013-8-1T17:19:1Z</time></trkpt>
<trkpt lat="46.07864541001618" lon="7.273074863478541"><ele></ele><time>2013-8-1T17:19:4Z</time></trkpt>
<trkpt lat="46.078655971214175" lon="7.273082574829459"><ele></ele><time>2013-8-1T17:19:7Z</time></trkpt>
<trkpt lat="46.07866778969765" lon="7.2730939742177725"><ele></ele><time>2013-8-1T17:19:10Z</time></trkpt>
<trkpt lat="46.07868446968496" lon="7.273098835721612"><ele></ele><time>2013-8-1T17:19:13Z</time></trkpt>
<trkpt lat="46.078703412786126" lon="7.273101601749659"><ele></ele><time>2013-8-1T17:19:16Z</time></trkpt>
<trkpt lat="46.07871958985925" lon="7.273094728589058"><ele></ele><time>2013-8-1T17:19:19Z</time></trkpt>
<trkpt lat="46.07875135727227" lon="7.273048376664519"><ele></ele><time>2013-8-1T17:19:22Z</time></trkpt>
<trkpt lat="46.07875605113804" lon="7.273014932870865"><ele></ele><time>2013-8-1T17:19:25Z</time></trkpt>
<trkpt lat="46.078758146613836" lon="7.272987272590399"><ele></ele><time>2013-8-1T17:19:28Z</time></trkpt>
<trkpt lat="46.07876510359347" lon="7.272962210699916"><ele></ele><time>2013-8-1T17:19:31Z</time></trkpt>
<trkpt lat="46.07877583242953" lon="7.272940753027797"><ele></ele><time>2013-8-1T17:19:34Z</time></trkpt>
<trkpt lat="46.078805504366755" lon="7.272860454395413"><ele></ele><time>2013-8-1T17:19:37Z</time></trkpt>
<trkpt lat="46.07883014716208" lon="7.27278065867722"><ele></ele><time>2013-8-1T17:19:40Z</time></trkpt>
<trkpt lat="46.078831907361746" lon="7.272760374471545"><ele></ele><time>2013-8-1T17:19:43Z</time></trkpt>
<trkpt lat="46.078832410275936" lon="7.27273765951395"><ele></ele><time>2013-8-1T17:19:46Z</time></trkpt>
<trkpt lat="46.078837271779776" lon="7.272718297317624"><ele></ele><time>2013-8-1T17:19:49Z</time></trkpt>
<trkpt lat="46.07883693650365" lon="7.2726943250745535"><ele></ele><time>2013-8-1T17:19:52Z</time></trkpt>
<trkpt lat="46.078839199617505" lon="7.272561639547348"><ele></ele><time>2013-8-1T17:19:55Z</time></trkpt>
<trkpt lat="46.07883903197944" lon="7.272536493837833"><ele></ele><time>2013-8-1T17:19:58Z</time></trkpt>
<trkpt lat="46.07883794233203" lon="7.272511599585414"><ele></ele><time>2013-8-1T17:20:1Z</time></trkpt>
<trkpt lat="46.078836265951395" lon="7.272485615685582"><ele></ele><time>2013-8-1T17:20:4Z</time></trkpt>
<trkpt lat="46.07883391901851" lon="7.272460721433163"><ele></ele><time>2013-8-1T17:20:7Z</time></trkpt>
<trkpt lat="46.078830398619175" lon="7.272437419742346"><ele></ele><time>2013-8-1T17:20:10Z</time></trkpt>
<trkpt lat="46.07880223542452" lon="7.27229492738843"><ele></ele><time>2013-8-1T17:20:13Z</time></trkpt>
<trkpt lat="46.07879209332168" lon="7.272270452231169"><ele></ele><time>2013-8-1T17:20:16Z</time></trkpt>
<trkpt lat="46.07878337614238" lon="7.272247234359384"><ele></ele><time>2013-8-1T17:20:19Z</time></trkpt>
<trkpt lat="46.07877675443888" lon="7.27222116664052"><ele></ele><time>2013-8-1T17:20:22Z</time></trkpt>
<trkpt lat="46.078771306201816" lon="7.272196104750037"><ele></ele><time>2013-8-1T17:20:25Z</time></trkpt>
<trkpt lat="46.078766444697976" lon="7.272168276831508"><ele></ele><time>2013-8-1T17:20:28Z</time></trkpt>
<trkpt lat="46.07875638641417" lon="7.272091079503298"><ele></ele><time>2013-8-1T17:20:31Z</time></trkpt>
<trkpt lat="46.07872654683888" lon="7.271953364834189"><ele></ele><time>2013-8-1T17:20:34Z</time></trkpt>
<trkpt lat="46.07871774584055" lon="7.271925704553723"><ele></ele><time>2013-8-1T17:20:37Z</time></trkpt>
<trkpt lat="46.0787099506706" lon="7.271898295730352"><ele></ele><time>2013-8-1T17:20:40Z</time></trkpt>
<trkpt lat="46.07870542444289" lon="7.271870970726013"><ele></ele><time>2013-8-1T17:20:43Z</time></trkpt>
<trkpt lat="46.078671561554074" lon="7.27170517668128"><ele></ele><time>2013-8-1T17:20:46Z</time></trkpt>
<trkpt lat="46.07866678386927" lon="7.271681372076273"><ele></ele><time>2013-8-1T17:20:49Z</time></trkpt>
<trkpt lat="46.078662341460586" lon="7.271657735109329"><ele></ele><time>2013-8-1T17:20:52Z</time></trkpt>
<trkpt lat="46.078654546290636" lon="7.271631499752402"><ele></ele><time>2013-8-1T17:20:55Z</time></trkpt>
<trkpt lat="46.07864792458713" lon="7.271606521680951"><ele></ele><time>2013-8-1T17:20:58Z</time></trkpt>
<trkpt lat="46.07862453907728" lon="7.271482050418854"><ele></ele><time>2013-8-1T17:21:1Z</time></trkpt>
<trkpt lat="46.07862001284957" lon="7.271455228328705"><ele></ele><time>2013-8-1T17:21:4Z</time></trkpt>
<trkpt lat="46.078614480793476" lon="7.271427987143397"><ele></ele><time>2013-8-1T17:21:7Z</time></trkpt>
<trkpt lat="46.078609116375446" lon="7.2714008297771215"><ele></ele><time>2013-8-1T17:21:10Z</time></trkpt>
<trkpt lat="46.078602662310004" lon="7.271374175325036"><ele></ele><time>2013-8-1T17:21:13Z</time></trkpt>
<trkpt lat="46.07858874835074" lon="7.271326733753085"><ele></ele><time>2013-8-1T17:21:16Z</time></trkpt>
<trkpt lat="46.07856569811702" lon="7.271228497847915"><ele></ele><time>2013-8-1T17:21:19Z</time></trkpt>
<trkpt lat="46.07856368646026" lon="7.271203938871622"><ele></ele><time>2013-8-1T17:21:22Z</time></trkpt>
<trkpt lat="46.078561171889305" lon="7.27117795497179"><ele></ele><time>2013-8-1T17:21:25Z</time></trkpt>
<trkpt lat="46.07856175862253" lon="7.271151468157768"><ele></ele><time>2013-8-1T17:21:28Z</time></trkpt>
<trkpt lat="46.078566117212176" lon="7.271128166466951"><ele></ele><time>2013-8-1T17:21:31Z</time></trkpt>
<trkpt lat="46.07857131399214" lon="7.271113498136401"><ele></ele><time>2013-8-1T17:21:34Z</time></trkpt>
<trkpt lat="46.078595370054245" lon="7.271132944151759"><ele></ele><time>2013-8-1T17:21:37Z</time></trkpt>
<trkpt lat="46.078637447208166" lon="7.271227156743407"><ele></ele><time>2013-8-1T17:21:40Z</time></trkpt>
<trkpt lat="46.07865873724222" lon="7.271273005753756"><ele></ele><time>2013-8-1T17:21:43Z</time></trkpt>
<trkpt lat="46.07866887934506" lon="7.271294044330716"><ele></ele><time>2013-8-1T17:21:46Z</time></trkpt>
<trkpt lat="46.07868346385658" lon="7.271310640498996"><ele></ele><time>2013-8-1T17:21:49Z</time></trkpt>
<trkpt lat="46.07869855128229" lon="7.271327320486307"><ele></ele><time>2013-8-1T17:21:52Z</time></trkpt>
<trkpt lat="46.07871011830866" lon="7.271345341578126"><ele></ele><time>2013-8-1T17:21:55Z</time></trkpt>
<trkpt lat="46.07872118242085" lon="7.27136361412704"><ele></ele><time>2013-8-1T17:21:58Z</time></trkpt>
<trkpt lat="46.07878614217043" lon="7.271460006013513"><ele></ele><time>2013-8-1T17:22:1Z</time></trkpt>
<trkpt lat="46.07883467338979" lon="7.27153561078012"><ele></ele><time>2013-8-1T17:22:4Z</time></trkpt>
<trkpt lat="46.07884674333036" lon="7.27155857719481"><ele></ele><time>2013-8-1T17:22:7Z</time></trkpt>
<trkpt lat="46.07885755598545" lon="7.271578358486295"><ele></ele><time>2013-8-1T17:22:10Z</time></trkpt>
<trkpt lat="46.07886887155473" lon="7.271596798673272"><ele></ele><time>2013-8-1T17:22:13Z</time></trkpt>
<trkpt lat="46.07888152822852" lon="7.271618843078613"><ele></ele><time>2013-8-1T17:22:16Z</time></trkpt>
<trkpt lat="46.078998455777764" lon="7.271808525547385"><ele></ele><time>2013-8-1T17:22:19Z</time></trkpt>
<trkpt lat="46.079039527103305" lon="7.271861331537366"><ele></ele><time>2013-8-1T17:22:22Z</time></trkpt>
<trkpt lat="46.07905486598611" lon="7.271878765895963"><ele></ele><time>2013-8-1T17:22:25Z</time></trkpt>
<trkpt lat="46.07906777411699" lon="7.271900307387114"><ele></ele><time>2013-8-1T17:22:28Z</time></trkpt>
<trkpt lat="46.079077580943704" lon="7.271920423954725"><ele></ele><time>2013-8-1T17:22:31Z</time></trkpt>
<trkpt lat="46.07908705249429" lon="7.271943558007479"><ele></ele><time>2013-8-1T17:22:34Z</time></trkpt>
<trkpt lat="46.07917154207826" lon="7.2720785066485405"><ele></ele><time>2013-8-1T17:22:37Z</time></trkpt>
<trkpt lat="46.079187551513314" lon="7.272099209949374"><ele></ele><time>2013-8-1T17:22:40Z</time></trkpt>
<trkpt lat="46.07920481823385" lon="7.272113962098956"><ele></ele><time>2013-8-1T17:22:43Z</time></trkpt>
<trkpt lat="46.07922091148794" lon="7.2721318155527115"><ele></ele><time>2013-8-1T17:22:46Z</time></trkpt>
<trkpt lat="46.07923465780914" lon="7.272153273224831"><ele></ele><time>2013-8-1T17:22:49Z</time></trkpt>
<trkpt lat="46.07924739830196" lon="7.272177580744028"><ele></ele><time>2013-8-1T17:22:52Z</time></trkpt>
<trkpt lat="46.079341024160385" lon="7.272348823025823"><ele></ele><time>2013-8-1T17:22:55Z</time></trkpt>
<trkpt lat="46.07939827255905" lon="7.272487794980407"><ele></ele><time>2013-8-1T17:22:58Z</time></trkpt>
<trkpt lat="46.07940975576639" lon="7.272515119984746"><ele></ele><time>2013-8-1T17:23:1Z</time></trkpt>
<trkpt lat="46.07942182570696" lon="7.272540852427483"><ele></ele><time>2013-8-1T17:23:4Z</time></trkpt>
<trkpt lat="46.07943280600011" lon="7.272567171603441"><ele></ele><time>2013-8-1T17:23:7Z</time></trkpt>
<trkpt lat="46.079515032470226" lon="7.272732295095921"><ele></ele><time>2013-8-1T17:23:10Z</time></trkpt>
<trkpt lat="46.07962609268725" lon="7.2729208040982485"><ele></ele><time>2013-8-1T17:23:13Z</time></trkpt>
<trkpt lat="46.07964486815035" lon="7.272941842675209"><ele></ele><time>2013-8-1T17:23:16Z</time></trkpt>
<trkpt lat="46.07966280542314" lon="7.272962462157011"><ele></ele><time>2013-8-1T17:23:19Z</time></trkpt>
<trkpt lat="46.07967889867723" lon="7.272980650886893"><ele></ele><time>2013-8-1T17:23:22Z</time></trkpt>
<trkpt lat="46.079692309722304" lon="7.272999091073871"><ele></ele><time>2013-8-1T17:23:25Z</time></trkpt>
<trkpt lat="46.0797184612602" lon="7.273027002811432"><ele></ele><time>2013-8-1T17:23:28Z</time></trkpt>
<trkpt lat="46.07981032691896" lon="7.273065727204084"><ele></ele><time>2013-8-1T17:23:31Z</time></trkpt>
<trkpt lat="46.079825749620795" lon="7.273074192926288"><ele></ele><time>2013-8-1T17:23:34Z</time></trkpt>
<trkpt lat="46.07984075322747" lon="7.273080395534635"><ele></ele><time>2013-8-1T17:23:37Z</time></trkpt>
<trkpt lat="46.07985517010093" lon="7.273086681962013"><ele></ele><time>2013-8-1T17:23:40Z</time></trkpt>
<trkpt lat="46.07987008988857" lon="7.273090621456504"><ele></ele><time>2013-8-1T17:23:43Z</time></trkpt>
<trkpt lat="46.079953154549" lon="7.273111157119274"><ele></ele><time>2013-8-1T17:23:46Z</time></trkpt>
<trkpt lat="46.08000101521611" lon="7.2731387335807085"><ele></ele><time>2013-8-1T17:23:49Z</time></trkpt>
<trkpt lat="46.08001836575568" lon="7.273148540407419"><ele></ele><time>2013-8-1T17:23:52Z</time></trkpt>
<trkpt lat="46.08003546483815" lon="7.273160442709923"><ele></ele><time>2013-8-1T17:23:55Z</time></trkpt>
<trkpt lat="46.080052480101585" lon="7.273171674460173"><ele></ele><time>2013-8-1T17:23:58Z</time></trkpt>
<trkpt lat="46.080069495365024" lon="7.273182487115264"><ele></ele><time>2013-8-1T17:24:1Z</time></trkpt>
<trkpt lat="46.08008625917137" lon="7.273196317255497"><ele></ele><time>2013-8-1T17:24:4Z</time></trkpt>
<trkpt lat="46.080158427357674" lon="7.273257169872522"><ele></ele><time>2013-8-1T17:24:7Z</time></trkpt>
<trkpt lat="46.08020360581577" lon="7.273270329460502"><ele></ele><time>2013-8-1T17:24:10Z</time></trkpt>
<trkpt lat="46.08021869324148" lon="7.2732798010110855"><ele></ele><time>2013-8-1T17:24:13Z</time></trkpt>
<trkpt lat="46.08023294247687" lon="7.273291200399399"><ele></ele><time>2013-8-1T17:24:16Z</time></trkpt>
<trkpt lat="46.08025071211159" lon="7.273301174864173"><ele></ele><time>2013-8-1T17:24:19Z</time></trkpt>
<trkpt lat="46.0802694875747" lon="7.27330737747252"><ele></ele><time>2013-8-1T17:24:22Z</time></trkpt>
<trkpt lat="46.08037509955466" lon="7.273363955318928"><ele></ele><time>2013-8-1T17:24:25Z</time></trkpt>
<trkpt lat="46.08038892969489" lon="7.273370828479528"><ele></ele><time>2013-8-1T17:24:28Z</time></trkpt>
<trkpt lat="46.0804040171206" lon="7.273376192897558"><ele></ele><time>2013-8-1T17:24:31Z</time></trkpt>
<trkpt lat="46.080419439822435" lon="7.273383736610413"><ele></ele><time>2013-8-1T17:24:34Z</time></trkpt>
<trkpt lat="46.08043444342911" lon="7.27339044213295"><ele></ele><time>2013-8-1T17:24:37Z</time></trkpt>
<trkpt lat="46.080508790910244" lon="7.273423634469509"><ele></ele><time>2013-8-1T17:24:40Z</time></trkpt>
<trkpt lat="46.080523040145636" lon="7.2734341118484735"><ele></ele><time>2013-8-1T17:24:43Z</time></trkpt>
<trkpt lat="46.08053611591458" lon="7.273440817371011"><ele></ele><time>2013-8-1T17:24:46Z</time></trkpt>
<trkpt lat="46.08054969459772" lon="7.273446517065167"><ele></ele><time>2013-8-1T17:24:49Z</time></trkpt>
<trkpt lat="46.08056436292827" lon="7.273441404104233"><ele></ele><time>2013-8-1T17:24:52Z</time></trkpt>
<trkpt lat="46.08059252612293" lon="7.273436961695552"><ele></ele><time>2013-8-1T17:24:55Z</time></trkpt>
<trkpt lat="46.08064063824713" lon="7.2734553180634975"><ele></ele><time>2013-8-1T17:24:58Z</time></trkpt>
<trkpt lat="46.08067265711725" lon="7.273470321670175"><ele></ele><time>2013-8-1T17:25:1Z</time></trkpt>
<trkpt lat="46.08068606816232" lon="7.273482559248805"><ele></ele><time>2013-8-1T17:25:4Z</time></trkpt>
<trkpt lat="46.08070065267384" lon="7.273491444066167"><ele></ele><time>2013-8-1T17:25:7Z</time></trkpt>
<trkpt lat="46.08071490190923" lon="7.273500496521592"><ele></ele><time>2013-8-1T17:25:10Z</time></trkpt>
<trkpt lat="46.080728732049465" lon="7.273510890081525"><ele></ele><time>2013-8-1T17:25:13Z</time></trkpt>
<trkpt lat="46.08081045560539" lon="7.2736054379493"><ele></ele><time>2013-8-1T17:25:16Z</time></trkpt>
<trkpt lat="46.08088354580104" lon="7.273733764886856"><ele></ele><time>2013-8-1T17:25:19Z</time></trkpt>
<trkpt lat="46.08088815584779" lon="7.273759162053466"><ele></ele><time>2013-8-1T17:25:22Z</time></trkpt>
<trkpt lat="46.08089368790388" lon="7.273783972486854"><ele></ele><time>2013-8-1T17:25:25Z</time></trkpt>
<trkpt lat="46.080899722874165" lon="7.273811884224415"><ele></ele><time>2013-8-1T17:25:28Z</time></trkpt>
<trkpt lat="46.08092822134495" lon="7.2739283088594675"><ele></ele><time>2013-8-1T17:25:31Z</time></trkpt>
<trkpt lat="46.08094641007483" lon="7.274006260558963"><ele></ele><time>2013-8-1T17:25:34Z</time></trkpt>
<trkpt lat="46.080959904938936" lon="7.274097707122564"><ele></ele><time>2013-8-1T17:25:37Z</time></trkpt>
<trkpt lat="46.080974992364645" lon="7.274220418184996"><ele></ele><time>2013-8-1T17:25:40Z</time></trkpt>
<trkpt lat="46.08097901567817" lon="7.274252939969301"><ele></ele><time>2013-8-1T17:25:43Z</time></trkpt>
<trkpt lat="46.08098387718201" lon="7.274284288287163"><ele></ele><time>2013-8-1T17:25:46Z</time></trkpt>
<trkpt lat="46.08098848722875" lon="7.274316726252437"><ele></ele><time>2013-8-1T17:25:49Z</time></trkpt>
<trkpt lat="46.080995947122574" lon="7.2743456438183784"><ele></ele><time>2013-8-1T17:25:52Z</time></trkpt>
<trkpt lat="46.08104456216097" lon="7.274429379031062"><ele></ele><time>2013-8-1T17:25:55Z</time></trkpt>
<trkpt lat="46.08105847612023" lon="7.274442622438073"><ele></ele><time>2013-8-1T17:25:58Z</time></trkpt>
<trkpt lat="46.08107431791723" lon="7.2744546085596085"><ele></ele><time>2013-8-1T17:26:1Z</time></trkpt>
<trkpt lat="46.08108965680003" lon="7.274463577196002"><ele></ele><time>2013-8-1T17:26:4Z</time></trkpt>
<trkpt lat="46.08110533095896" lon="7.274464750662446"><ele></ele><time>2013-8-1T17:26:7Z</time></trkpt>
<trkpt lat="46.08113743364811" lon="7.274465002119541"><ele></ele><time>2013-8-1T17:26:10Z</time></trkpt>
<trkpt lat="46.081177331507206" lon="7.274462655186653"><ele></ele><time>2013-8-1T17:26:13Z</time></trkpt>
<trkpt lat="46.08119702897966" lon="7.274463158100843"><ele></ele><time>2013-8-1T17:26:16Z</time></trkpt>
<trkpt lat="46.08121798373759" lon="7.274462152272463"><ele></ele><time>2013-8-1T17:26:19Z</time></trkpt>
<trkpt lat="46.081236843019724" lon="7.2744610626250505"><ele></ele><time>2013-8-1T17:26:22Z</time></trkpt>
<trkpt lat="46.08125478029251" lon="7.27445125579834"><ele></ele><time>2013-8-1T17:26:25Z</time></trkpt>
<trkpt lat="46.08127028681338" lon="7.274442873895168"><ele></ele><time>2013-8-1T17:26:28Z</time></trkpt>
<trkpt lat="46.08131571672857" lon="7.274427618831396"><ele></ele><time>2013-8-1T17:26:31Z</time></trkpt>
<trkpt lat="46.08133189380169" lon="7.274422757327557"><ele></ele><time>2013-8-1T17:26:34Z</time></trkpt>
<trkpt lat="46.08143893070519" lon="7.274440275505185"><ele></ele><time>2013-8-1T17:26:37Z</time></trkpt>
<trkpt lat="46.081455862149596" lon="7.274445807561278"><ele></ele><time>2013-8-1T17:26:40Z</time></trkpt>
<trkpt lat="46.08147220686078" lon="7.2744507528841496"><ele></ele><time>2013-8-1T17:26:43Z</time></trkpt>
<trkpt lat="46.081487126648426" lon="7.27445368655026"><ele></ele><time>2013-8-1T17:26:46Z</time></trkpt>
<trkpt lat="46.081515960395336" lon="7.2744575422257185"><ele></ele><time>2013-8-1T17:26:49Z</time></trkpt>
<trkpt lat="46.0815333109349" lon="7.274459134787321"><ele></ele><time>2013-8-1T17:26:52Z</time></trkpt>
<trkpt lat="46.08158812858164" lon="7.27448302321136"><ele></ele><time>2013-8-1T17:26:55Z</time></trkpt>
<trkpt lat="46.081621488556266" lon="7.274495679885149"><ele></ele><time>2013-8-1T17:26:58Z</time></trkpt>
<trkpt lat="46.08165677636862" lon="7.274504229426384"><ele></ele><time>2013-8-1T17:27:1Z</time></trkpt>
<trkpt lat="46.08167236670852" lon="7.274511940777302"><ele></ele><time>2013-8-1T17:27:4Z</time></trkpt>
<trkpt lat="46.081688376143575" lon="7.274520490318537"><ele></ele><time>2013-8-1T17:27:7Z</time></trkpt>
<trkpt lat="46.08170279301703" lon="7.27452895604074"><ele></ele><time>2013-8-1T17:27:10Z</time></trkpt>
<trkpt lat="46.081719221547246" lon="7.274535158649087"><ele></ele><time>2013-8-1T17:27:13Z</time></trkpt>
<trkpt lat="46.081765573471785" lon="7.274562316015363"><ele></ele><time>2013-8-1T17:27:16Z</time></trkpt>
<trkpt lat="46.081797843798995" lon="7.274581929668784"><ele></ele><time>2013-8-1T17:27:19Z</time></trkpt>
<trkpt lat="46.08183179050684" lon="7.274596346542239"><ele></ele><time>2013-8-1T17:27:22Z</time></trkpt>
<trkpt lat="46.081847213208675" lon="7.274599364027381"><ele></ele><time>2013-8-1T17:27:25Z</time></trkpt>
<trkpt lat="46.08186104334891" lon="7.274605566635728"><ele></ele><time>2013-8-1T17:27:28Z</time></trkpt>
<trkpt lat="46.08187671750784" lon="7.274612355977297"><ele></ele><time>2013-8-1T17:27:31Z</time></trkpt>
<trkpt lat="46.08189197257161" lon="7.274617804214358"><ele></ele><time>2013-8-1T17:27:34Z</time></trkpt>
<trkpt lat="46.08197445049882" lon="7.274657702073455"><ele></ele><time>2013-8-1T17:27:37Z</time></trkpt>
<trkpt lat="46.081988364458084" lon="7.274662479758263"><ele></ele><time>2013-8-1T17:27:40Z</time></trkpt>
<trkpt lat="46.082003619521856" lon="7.274665497243404"><ele></ele><time>2013-8-1T17:27:43Z</time></trkpt>
<trkpt lat="46.08202097006142" lon="7.274671196937561"><ele></ele><time>2013-8-1T17:27:46Z</time></trkpt>
<trkpt lat="46.082037817686796" lon="7.274674801155925"><ele></ele><time>2013-8-1T17:27:49Z</time></trkpt>
<trkpt lat="46.08205282129347" lon="7.274683183059096"><ele></ele><time>2013-8-1T17:27:52Z</time></trkpt>
<trkpt lat="46.08206388540566" lon="7.27469558827579"><ele></ele><time>2013-8-1T17:27:55Z</time></trkpt>
<trkpt lat="46.08208165504038" lon="7.274731798097491"><ele></ele><time>2013-8-1T17:27:58Z</time></trkpt>
<trkpt lat="46.08209037221968" lon="7.274754932150245"><ele></ele><time>2013-8-1T17:28:1Z</time></trkpt>
<trkpt lat="46.082102693617344" lon="7.274832548573613"><ele></ele><time>2013-8-1T17:28:4Z</time></trkpt>
<trkpt lat="46.082100262865424" lon="7.274859957396984"><ele></ele><time>2013-8-1T17:28:7Z</time></trkpt>
<trkpt lat="46.082093473523855" lon="7.274883929640055"><ele></ele><time>2013-8-1T17:28:10Z</time></trkpt>
<trkpt lat="46.08208450488746" lon="7.274910332635045"><ele></ele><time>2013-8-1T17:28:13Z</time></trkpt>
<trkpt lat="46.082081235945225" lon="7.274936735630035"><ele></ele><time>2013-8-1T17:28:16Z</time></trkpt>
<trkpt lat="46.08207763172686" lon="7.274961797520518"><ele></ele><time>2013-8-1T17:28:19Z</time></trkpt>
<trkpt lat="46.08207318931818" lon="7.274984009563923"><ele></ele><time>2013-8-1T17:28:22Z</time></trkpt>
<trkpt lat="46.08206698670983" lon="7.2750521544367075"><ele></ele><time>2013-8-1T17:28:25Z</time></trkpt>
<trkpt lat="46.082065142691135" lon="7.2750721871852875"><ele></ele><time>2013-8-1T17:28:28Z</time></trkpt>
<trkpt lat="46.08206153847277" lon="7.275092303752899"><ele></ele><time>2013-8-1T17:28:31Z</time></trkpt>
<trkpt lat="46.08205801807344" lon="7.275112420320511"><ele></ele><time>2013-8-1T17:28:34Z</time></trkpt>
<trkpt lat="46.08205458149314" lon="7.275132285431027"><ele></ele><time>2013-8-1T17:28:37Z</time></trkpt>
<trkpt lat="46.082043098285794" lon="7.275200178846717"><ele></ele><time>2013-8-1T17:28:40Z</time></trkpt>
<trkpt lat="46.0820322856307" lon="7.275261031463742"><ele></ele><time>2013-8-1T17:28:43Z</time></trkpt>
<trkpt lat="46.08202734030783" lon="7.275285758078098"><ele></ele><time>2013-8-1T17:28:46Z</time></trkpt>
<trkpt lat="46.08202340081334" lon="7.275308137759566"><ele></ele><time>2013-8-1T17:28:49Z</time></trkpt>
<trkpt lat="46.08202105388045" lon="7.275330265983939"><ele></ele><time>2013-8-1T17:28:52Z</time></trkpt>
<trkpt lat="46.08201837167144" lon="7.275355327874422"><ele></ele><time>2013-8-1T17:28:55Z</time></trkpt>
<trkpt lat="46.08199163340032" lon="7.275472087785602"><ele></ele><time>2013-8-1T17:28:58Z</time></trkpt>
<trkpt lat="46.081977635622025" lon="7.275573005899787"><ele></ele><time>2013-8-1T17:29:1Z</time></trkpt>
<trkpt lat="46.08197403140366" lon="7.2755940444767475"><ele></ele><time>2013-8-1T17:29:4Z</time></trkpt>
<trkpt lat="46.08197109773755" lon="7.2756129037588835"><ele></ele><time>2013-8-1T17:29:7Z</time></trkpt>
<trkpt lat="46.081965984776616" lon="7.275633858516812"><ele></ele><time>2013-8-1T17:29:10Z</time></trkpt>
<trkpt lat="46.08196070417762" lon="7.2756570763885975"><ele></ele><time>2013-8-1T17:29:13Z</time></trkpt>
<trkpt lat="46.08192700892687" lon="7.275800239294767"><ele></ele><time>2013-8-1T17:29:16Z</time></trkpt>
<trkpt lat="46.08191778883338" lon="7.275850782170892"><ele></ele><time>2013-8-1T17:29:19Z</time></trkpt>
<trkpt lat="46.08191250823438" lon="7.2758744191378355"><ele></ele><time>2013-8-1T17:29:22Z</time></trkpt>
<trkpt lat="46.08190999366343" lon="7.275899900123477"><ele></ele><time>2013-8-1T17:29:25Z</time></trkpt>
<trkpt lat="46.08190655708313" lon="7.275924123823643"><ele></ele><time>2013-8-1T17:29:28Z</time></trkpt>
<trkpt lat="46.081901444122195" lon="7.275950275361538"><ele></ele><time>2013-8-1T17:29:31Z</time></trkpt>
<trkpt lat="46.08188359066844" lon="7.276024119928479"><ele></ele><time>2013-8-1T17:29:34Z</time></trkpt>
<trkpt lat="46.081840842962265" lon="7.276183040812612"><ele></ele><time>2013-8-1T17:29:37Z</time></trkpt>
<trkpt lat="46.08183522708714" lon="7.276209443807602"><ele></ele><time>2013-8-1T17:29:40Z</time></trkpt>
<trkpt lat="46.08182801865041" lon="7.27623526006937"><ele></ele><time>2013-8-1T17:29:43Z</time></trkpt>
<trkpt lat="46.08181972056627" lon="7.276260992512107"><ele></ele><time>2013-8-1T17:29:46Z</time></trkpt>
<trkpt lat="46.08181016519666" lon="7.276284797117114"><ele></ele><time>2013-8-1T17:29:49Z</time></trkpt>
<trkpt lat="46.08180086128414" lon="7.2763061709702015"><ele></ele><time>2013-8-1T17:29:52Z</time></trkpt>
<trkpt lat="46.08178837224841" lon="7.276329891756177"><ele></ele><time>2013-8-1T17:29:55Z</time></trkpt>
<trkpt lat="46.08175400644541" lon="7.2763842064887285"><ele></ele><time>2013-8-1T17:29:58Z</time></trkpt>
<trkpt lat="46.08172022737563" lon="7.2763750702142715"><ele></ele><time>2013-8-1T17:30:1Z</time></trkpt>
<trkpt lat="46.08170413412154" lon="7.276370460167527"><ele></ele><time>2013-8-1T17:30:4Z</time></trkpt>
<trkpt lat="46.08168963342905" lon="7.2763701248914"><ele></ele><time>2013-8-1T17:30:7Z</time></trkpt>
<trkpt lat="46.081675216555595" lon="7.276373393833637"><ele></ele><time>2013-8-1T17:30:10Z</time></trkpt>
<trkpt lat="46.08165945857763" lon="7.276377752423286"><ele></ele><time>2013-8-1T17:30:13Z</time></trkpt>
<trkpt lat="46.08162752352655" lon="7.2763960249722"><ele></ele><time>2013-8-1T17:30:16Z</time></trkpt>
<trkpt lat="46.081556528806686" lon="7.276405077427626"><ele></ele><time>2013-8-1T17:30:19Z</time></trkpt>
<trkpt lat="46.08153817243874" lon="7.276410022750497"><ele></ele><time>2013-8-1T17:30:22Z</time></trkpt>
<trkpt lat="46.08151897788048" lon="7.276412704959512"><ele></ele><time>2013-8-1T17:30:25Z</time></trkpt>
<trkpt lat="46.081499783322215" lon="7.276411363855004"><ele></ele><time>2013-8-1T17:30:28Z</time></trkpt>
<trkpt lat="46.08147983439267" lon="7.276409352198243"><ele></ele><time>2013-8-1T17:30:31Z</time></trkpt>
<trkpt lat="46.08140364289284" lon="7.276409603655338"><ele></ele><time>2013-8-1T17:30:34Z</time></trkpt>
<trkpt lat="46.08134706504643" lon="7.276408681645989"><ele></ele><time>2013-8-1T17:30:37Z</time></trkpt>
<trkpt lat="46.081293588504195" lon="7.276412704959512"><ele></ele><time>2013-8-1T17:30:40Z</time></trkpt>
<trkpt lat="46.081274477764964" lon="7.276413459330797"><ele></ele><time>2013-8-1T17:30:43Z</time></trkpt>
<trkpt lat="46.08125586993992" lon="7.276413878425956"><ele></ele><time>2013-8-1T17:30:46Z</time></trkpt>
<trkpt lat="46.081236843019724" lon="7.27641312405467"><ele></ele><time>2013-8-1T17:30:49Z</time></trkpt>
<trkpt lat="46.081217313185334" lon="7.276408262550831"><ele></ele><time>2013-8-1T17:30:52Z</time></trkpt>
<trkpt lat="46.08116324990988" lon="7.276411280035973"><ele></ele><time>2013-8-1T17:30:55Z</time></trkpt>
<trkpt lat="46.081100553274155" lon="7.2764398623257875"><ele></ele><time>2013-8-1T17:30:58Z</time></trkpt>
<trkpt lat="46.08105353079736" lon="7.276431480422616"><ele></ele><time>2013-8-1T17:31:1Z</time></trkpt>
<trkpt lat="46.08100902289152" lon="7.276422930881381"><ele></ele><time>2013-8-1T17:31:4Z</time></trkpt>
<trkpt lat="46.0809859726578" lon="7.276419745758176"><ele></ele><time>2013-8-1T17:31:7Z</time></trkpt>
<trkpt lat="46.080962754786015" lon="7.276417566463351"><ele></ele><time>2013-8-1T17:31:10Z</time></trkpt>
<trkpt lat="46.08093903400004" lon="7.276417901739478"><ele></ele><time>2013-8-1T17:31:13Z</time></trkpt>
<trkpt lat="46.08091724105179" lon="7.276424607262015"><ele></ele><time>2013-8-1T17:31:16Z</time></trkpt>
<trkpt lat="46.08087315224111" lon="7.2764437180012465"><ele></ele><time>2013-8-1T17:31:19Z</time></trkpt>
<trkpt lat="46.08074717223644" lon="7.276531225070357"><ele></ele><time>2013-8-1T17:31:22Z</time></trkpt>
<trkpt lat="46.08070903457701" lon="7.276602555066347"><ele></ele><time>2013-8-1T17:31:25Z</time></trkpt>
<trkpt lat="46.080694952979684" lon="7.276623006910086"><ele></ele><time>2013-8-1T17:31:28Z</time></trkpt>
<trkpt lat="46.080686235800385" lon="7.276646560057998"><ele></ele><time>2013-8-1T17:31:31Z</time></trkpt>
<trkpt lat="46.08067726716399" lon="7.276670532301068"><ele></ele><time>2013-8-1T17:31:34Z</time></trkpt>
<trkpt lat="46.08066653832793" lon="7.276692073792219"><ele></ele><time>2013-8-1T17:31:37Z</time></trkpt>
<trkpt lat="46.08061985112727" lon="7.276760637760162"><ele></ele><time>2013-8-1T17:31:40Z</time></trkpt>
<trkpt lat="46.080608032643795" lon="7.2767706122249365"><ele></ele><time>2013-8-1T17:31:43Z</time></trkpt>
<trkpt lat="46.08059613034129" lon="7.2767809219658375"><ele></ele><time>2013-8-1T17:31:46Z</time></trkpt>
<trkpt lat="46.080582635477185" lon="7.276789974421263"><ele></ele><time>2013-8-1T17:31:49Z</time></trkpt>
<trkpt lat="46.0805681347847" lon="7.2767966799438"><ele></ele><time>2013-8-1T17:31:52Z</time></trkpt>
<trkpt lat="46.0805525444448" lon="7.276800535619259"><ele></ele><time>2013-8-1T17:31:55Z</time></trkpt>
<trkpt lat="46.08053552918136" lon="7.276805145666003"><ele></ele><time>2013-8-1T17:31:58Z</time></trkpt>
<trkpt lat="46.08050166629255" lon="7.276811767369509"><ele></ele><time>2013-8-1T17:32:1Z</time></trkpt>
<trkpt lat="46.080482471734285" lon="7.276807744055986"><ele></ele><time>2013-8-1T17:32:4Z</time></trkpt>
<trkpt lat="46.080416925251484" lon="7.276814952492714"><ele></ele><time>2013-8-1T17:32:7Z</time></trkpt>
<trkpt lat="46.080400915816426" lon="7.2768280282616615"><ele></ele><time>2013-8-1T17:32:10Z</time></trkpt>
<trkpt lat="46.08038691803813" lon="7.276839595288038"><ele></ele><time>2013-8-1T17:32:13Z</time></trkpt>
<trkpt lat="46.08037258498371" lon="7.2768504079431295"><ele></ele><time>2013-8-1T17:32:16Z</time></trkpt>
<trkpt lat="46.08036017976701" lon="7.276860382407904"><ele></ele><time>2013-8-1T17:32:19Z</time></trkpt>
<trkpt lat="46.08029052615166" lon="7.276925845071673"><ele></ele><time>2013-8-1T17:32:22Z</time></trkpt>
<trkpt lat="46.080276779830456" lon="7.2769408486783504"><ele></ele><time>2013-8-1T17:32:25Z</time></trkpt>
<trkpt lat="46.080262111499906" lon="7.276955936104059"><ele></ele><time>2013-8-1T17:32:28Z</time></trkpt>
<trkpt lat="46.080246940255165" lon="7.276972196996212"><ele></ele><time>2013-8-1T17:32:31Z</time></trkpt>
<trkpt lat="46.08023294247687" lon="7.276987200602889"><ele></ele><time>2013-8-1T17:32:34Z</time></trkpt>
<trkpt lat="46.0801761969924" lon="7.277036402374506"><ele></ele><time>2013-8-1T17:32:37Z</time></trkpt>
<trkpt lat="46.08014811761677" lon="7.2770648170262575"><ele></ele><time>2013-8-1T17:32:40Z</time></trkpt>
<trkpt lat="46.08012163080275" lon="7.277100523933768"><ele></ele><time>2013-8-1T17:32:43Z</time></trkpt>
<trkpt lat="46.08008391223848" lon="7.277148133143783"><ele></ele><time>2013-8-1T17:32:46Z</time></trkpt>
<trkpt lat="46.08007016591728" lon="7.277157688513398"><ele></ele><time>2013-8-1T17:32:49Z</time></trkpt>
<trkpt lat="46.080056335777044" lon="7.277164226397872"><ele></ele><time>2013-8-1T17:32:52Z</time></trkpt>
<trkpt lat="46.080042170360684" lon="7.277169171720743"><ele></ele><time>2013-8-1T17:32:55Z</time></trkpt>
<trkpt lat="46.08002984896302" lon="7.277188450098038"><ele></ele><time>2013-8-1T17:32:58Z</time></trkpt>
<trkpt lat="46.08001400716603" lon="7.277200352400541"><ele></ele><time>2013-8-1T17:33:1Z</time></trkpt>
<trkpt lat="46.07992700301111" lon="7.277250811457634"><ele></ele><time>2013-8-1T17:33:4Z</time></trkpt>
<trkpt lat="46.07989205047488" lon="7.277268413454294"><ele></ele><time>2013-8-1T17:33:7Z</time></trkpt>
<trkpt lat="46.07987679541111" lon="7.277276543900371"><ele></ele><time>2013-8-1T17:33:10Z</time></trkpt>
<trkpt lat="46.07986179180443" lon="7.277285596355796"><ele></ele><time>2013-8-1T17:33:13Z</time></trkpt>
<trkpt lat="46.07984829694033" lon="7.277289871126413"><ele></ele><time>2013-8-1T17:33:16Z</time></trkpt>
<trkpt lat="46.07982348650694" lon="7.277302527800202"><ele></ele><time>2013-8-1T17:33:19Z</time></trkpt>
<trkpt lat="46.07978442683816" lon="7.277320381253958"><ele></ele><time>2013-8-1T17:33:22Z</time></trkpt>
<trkpt lat="46.079770093783736" lon="7.2773257456719875"><ele></ele><time>2013-8-1T17:33:25Z</time></trkpt>
<trkpt lat="46.079754838719964" lon="7.277331696823239"><ele></ele><time>2013-8-1T17:33:28Z</time></trkpt>
<trkpt lat="46.07973891310394" lon="7.2773342952132225"><ele></ele><time>2013-8-1T17:33:31Z</time></trkpt>
<trkpt lat="46.07972583733499" lon="7.277340246364474"><ele></ele><time>2013-8-1T17:33:34Z</time></trkpt>
<trkpt lat="46.07971200719476" lon="7.277345862239599"><ele></ele><time>2013-8-1T17:33:37Z</time></trkpt>
<trkpt lat="46.07966909185052" lon="7.277361201122403"><ele></ele><time>2013-8-1T17:33:40Z</time></trkpt>
<trkpt lat="46.07965249568224" lon="7.27736447006464"><ele></ele><time>2013-8-1T17:33:43Z</time></trkpt>
<trkpt lat="46.0796373244375" lon="7.277370085939765"><ele></ele><time>2013-8-1T17:33:46Z</time></trkpt>
<trkpt lat="46.079623494297266" lon="7.277378300204873"><ele></ele><time>2013-8-1T17:33:49Z</time></trkpt>
<trkpt lat="46.07959616929293" lon="7.277390956878662"><ele></ele><time>2013-8-1T17:33:52Z</time></trkpt>
<trkpt lat="46.07957932166755" lon="7.277394477277994"><ele></ele><time>2013-8-1T17:33:55Z</time></trkpt>
<trkpt lat="46.079564653337" lon="7.277397410944104"><ele></ele><time>2013-8-1T17:33:58Z</time></trkpt>
<trkpt lat="46.07954638078809" lon="7.277396405115724"><ele></ele><time>2013-8-1T17:34:1Z</time></trkpt>
<trkpt lat="46.07950723730028" lon="7.277407888323069"><ele></ele><time>2013-8-1T17:34:4Z</time></trkpt>
<trkpt lat="46.0794161260128" lon="7.277419958263636"><ele></ele><time>2013-8-1T17:34:7Z</time></trkpt>
<trkpt lat="46.07940095476806" lon="7.277420377358794"><ele></ele><time>2013-8-1T17:34:10Z</time></trkpt>
<trkpt lat="46.07938762754202" lon="7.277419874444604"><ele></ele><time>2013-8-1T17:34:13Z</time></trkpt>
<trkpt lat="46.07937312684953" lon="7.277418365702033"><ele></ele><time>2013-8-1T17:34:16Z</time></trkpt>
<trkpt lat="46.07935653068125" lon="7.2774191200733185"><ele></ele><time>2013-8-1T17:34:19Z</time></trkpt>
<trkpt lat="46.079274052754045" lon="7.27742750197649"><ele></ele><time>2013-8-1T17:34:22Z</time></trkpt>
<trkpt lat="46.07922342605889" lon="7.277421383187175"><ele></ele><time>2013-8-1T17:34:25Z</time></trkpt>
<trkpt lat="46.079206662252545" lon="7.277419539168477"><ele></ele><time>2013-8-1T17:34:28Z</time></trkpt>
<trkpt lat="46.07919082045555" lon="7.2774191200733185"><ele></ele><time>2013-8-1T17:34:31Z</time></trkpt>
<trkpt lat="46.07917657122016" lon="7.277415515854955"><ele></ele><time>2013-8-1T17:34:34Z</time></trkpt>
<trkpt lat="46.07916332781315" lon="7.277413755655289"><ele></ele><time>2013-8-1T17:34:37Z</time></trkpt>
<trkpt lat="46.07913449406624" lon="7.277410738170147"><ele></ele><time>2013-8-1T17:34:40Z</time></trkpt>
<trkpt lat="46.07911664061248" lon="7.277405625209212"><ele></ele><time>2013-8-1T17:34:43Z</time></trkpt>
<trkpt lat="46.079074731096625" lon="7.27738793939352"><ele></ele><time>2013-8-1T17:34:46Z</time></trkpt>
<trkpt lat="46.07906090095639" lon="7.277382407337427"><ele></ele><time>2013-8-1T17:34:49Z</time></trkpt>
<trkpt lat="46.079046819359064" lon="7.2773796413093805"><ele></ele><time>2013-8-1T17:34:52Z</time></trkpt>
<trkpt lat="46.07903047464788" lon="7.277373522520065"><ele></ele><time>2013-8-1T17:34:55Z</time></trkpt>
<trkpt lat="46.07901195064187" lon="7.277365475893021"><ele></ele><time>2013-8-1T17:34:58Z</time></trkpt>
<trkpt lat="46.07899543829262" lon="7.277367068454623"><ele></ele><time>2013-8-1T17:35:1Z</time></trkpt>
<trkpt lat="46.07898127287626" lon="7.27736740373075"><ele></ele><time>2013-8-1T17:35:4Z</time></trkpt>
<trkpt lat="46.07890977524221" lon="7.27736447006464"><ele></ele><time>2013-8-1T17:35:7Z</time></trkpt>
<trkpt lat="46.07889167033136" lon="7.277367739006877"><ele></ele><time>2013-8-1T17:35:10Z</time></trkpt>
<trkpt lat="46.0788756608963" lon="7.277380898594856"><ele></ele><time>2013-8-1T17:35:13Z</time></trkpt>
<trkpt lat="46.07886283658445" lon="7.277397243306041"><ele></ele><time>2013-8-1T17:35:16Z</time></trkpt>
<trkpt lat="46.07885051518679" lon="7.277414593845606"><ele></ele><time>2013-8-1T17:35:19Z</time></trkpt>
<trkpt lat="46.07883802615106" lon="7.277457844465971"><ele></ele><time>2013-8-1T17:35:22Z</time></trkpt>
<trkpt lat="46.0788568854332" lon="7.277580890804529"><ele></ele><time>2013-8-1T17:35:25Z</time></trkpt>
<trkpt lat="46.07886635698378" lon="7.277603857219219"><ele></ele><time>2013-8-1T17:35:28Z</time></trkpt>
<trkpt lat="46.078877504915" lon="7.277625063434243"><ele></ele><time>2013-8-1T17:35:31Z</time></trkpt>
<trkpt lat="46.07888865284622" lon="7.277645263820887"><ele></ele><time>2013-8-1T17:35:34Z</time></trkpt>
<trkpt lat="46.07889845967293" lon="7.277661943808198"><ele></ele><time>2013-8-1T17:35:37Z</time></trkpt>
<trkpt lat="46.07893567532301" lon="7.277707457542419"><ele></ele><time>2013-8-1T17:35:40Z</time></trkpt>
<trkpt lat="46.07894405722618" lon="7.277725310996175"><ele></ele><time>2013-8-1T17:35:43Z</time></trkpt>
<trkpt lat="46.07897716574371" lon="7.27777786552906"><ele></ele><time>2013-8-1T17:35:46Z</time></trkpt>
<trkpt lat="46.0789845418185" lon="7.277802173048258"><ele></ele><time>2013-8-1T17:35:49Z</time></trkpt>
<trkpt lat="46.07898814603686" lon="7.277823546901345"><ele></ele><time>2013-8-1T17:35:52Z</time></trkpt>
<trkpt lat="46.07899082824588" lon="7.277837712317705"><ele></ele><time>2013-8-1T17:35:55Z</time></trkpt>
<trkpt lat="46.07900247909129" lon="7.277856403961778"><ele></ele><time>2013-8-1T17:35:58Z</time></trkpt>
<trkpt lat="46.07901974581182" lon="7.2778829745948315"><ele></ele><time>2013-8-1T17:36:1Z</time></trkpt>
<trkpt lat="46.079046903178096" lon="7.277934774756432"><ele></ele><time>2013-8-1T17:36:4Z</time></trkpt>
<trkpt lat="46.07905872166157" lon="7.277965787798166"><ele></ele><time>2013-8-1T17:36:7Z</time></trkpt>
<trkpt lat="46.079067438840866" lon="7.277981294319034"><ele></ele><time>2013-8-1T17:36:10Z</time></trkpt>
<trkpt lat="46.07907531782985" lon="7.277994453907013"><ele></ele><time>2013-8-1T17:36:13Z</time></trkpt>
<trkpt lat="46.07907833531499" lon="7.2780119720846415"><ele></ele><time>2013-8-1T17:36:16Z</time></trkpt>
<trkpt lat="46.07910281047225" lon="7.2780693881213665"><ele></ele><time>2013-8-1T17:36:19Z</time></trkpt>
<trkpt lat="46.079124100506306" lon="7.278124038130045"><ele></ele><time>2013-8-1T17:36:22Z</time></trkpt>
<trkpt lat="46.07912837527692" lon="7.278143987059593"><ele></ele><time>2013-8-1T17:36:25Z</time></trkpt>
<trkpt lat="46.0791349131614" lon="7.278162175789475"><ele></ele><time>2013-8-1T17:36:28Z</time></trkpt>
<trkpt lat="46.07914488762617" lon="7.278181370347738"><ele></ele><time>2013-8-1T17:36:31Z</time></trkpt>
<trkpt lat="46.07915804721415" lon="7.278197463601828"><ele></ele><time>2013-8-1T17:36:34Z</time></trkpt>
<trkpt lat="46.079196352511644" lon="7.278271811082959"><ele></ele><time>2013-8-1T17:36:37Z</time></trkpt>
<trkpt lat="46.079207165166736" lon="7.278285641223192"><ele></ele><time>2013-8-1T17:36:40Z</time></trkpt>
<trkpt lat="46.07921781018376" lon="7.278301315382123"><ele></ele><time>2013-8-1T17:36:43Z</time></trkpt>
<trkpt lat="46.0792279522866" lon="7.2783194202929735"><ele></ele><time>2013-8-1T17:36:46Z</time></trkpt>
<trkpt lat="46.079238932579756" lon="7.278333334252238"><ele></ele><time>2013-8-1T17:36:49Z</time></trkpt>
<trkpt lat="46.079247146844864" lon="7.278349259868264"><ele></ele><time>2013-8-1T17:36:52Z</time></trkpt>
<trkpt lat="46.079255947843194" lon="7.278366191312671"><ele></ele><time>2013-8-1T17:36:55Z</time></trkpt>
<trkpt lat="46.07926634140313" lon="7.2783812787383795"><ele></ele><time>2013-8-1T17:36:58Z</time></trkpt>
<trkpt lat="46.079287296161056" lon="7.2784340009093285"><ele></ele><time>2013-8-1T17:37:1Z</time></trkpt>
<trkpt lat="46.079292576760054" lon="7.278448920696974"><ele></ele><time>2013-8-1T17:37:4Z</time></trkpt>
<trkpt lat="46.07930280268192" lon="7.278460403904319"><ele></ele><time>2013-8-1T17:37:7Z</time></trkpt>
<trkpt lat="46.0793127771467" lon="7.278473731130362"><ele></ele><time>2013-8-1T17:37:10Z</time></trkpt>
<trkpt lat="46.079321913421154" lon="7.278488148003817"><ele></ele><time>2013-8-1T17:37:13Z</time></trkpt>
<trkpt lat="46.079329792410135" lon="7.2784999664872885"><ele></ele><time>2013-8-1T17:37:16Z</time></trkpt>
<trkpt lat="46.07933767139912" lon="7.278516395017505"><ele></ele><time>2013-8-1T17:37:19Z</time></trkpt>
<trkpt lat="46.07935099862516" lon="7.278531566262245"><ele></ele><time>2013-8-1T17:37:22Z</time></trkpt>
<trkpt lat="46.07938268221915" lon="7.278598453849554"><ele></ele><time>2013-8-1T17:37:25Z</time></trkpt>
<trkpt lat="46.07939357869327" lon="7.278626365587115"><ele></ele><time>2013-8-1T17:37:28Z</time></trkpt>
<trkpt lat="46.079402128234506" lon="7.278641201555729"><ele></ele><time>2013-8-1T17:37:31Z</time></trkpt>
<trkpt lat="46.07941159978509" lon="7.278658635914326"><ele></ele><time>2013-8-1T17:37:34Z</time></trkpt>
<trkpt lat="46.079422160983086" lon="7.278672214597464"><ele></ele><time>2013-8-1T17:37:37Z</time></trkpt>
<trkpt lat="46.07943129725754" lon="7.278687888756394"><ele></ele><time>2013-8-1T17:37:40Z</time></trkpt>
<trkpt lat="46.079514026641846" lon="7.278777407482266"><ele></ele><time>2013-8-1T17:37:43Z</time></trkpt>
<trkpt lat="46.079550655558705" lon="7.278815545141697"><ele></ele><time>2013-8-1T17:37:46Z</time></trkpt>
<trkpt lat="46.07956473715603" lon="7.278827950358391"><ele></ele><time>2013-8-1T17:37:49Z</time></trkpt>
<trkpt lat="46.079578064382076" lon="7.278845384716988"><ele></ele><time>2013-8-1T17:37:52Z</time></trkpt>
<trkpt lat="46.07959281653166" lon="7.278857622295618"><ele></ele><time>2013-8-1T17:37:55Z</time></trkpt>
<trkpt lat="46.07960597611964" lon="7.278867345303297"><ele></ele><time>2013-8-1T17:37:58Z</time></trkpt>
<trkpt lat="46.079619051888585" lon="7.278875475749373"><ele></ele><time>2013-8-1T17:38:1Z</time></trkpt>
<trkpt lat="46.07971712015569" lon="7.278942195698619"><ele></ele><time>2013-8-1T17:38:4Z</time></trkpt>
<trkpt lat="46.079733800143" lon="7.278950912877917"><ele></ele><time>2013-8-1T17:38:7Z</time></trkpt>
<trkpt lat="46.07975014485419" lon="7.278961557894945"><ele></ele><time>2013-8-1T17:38:10Z</time></trkpt>
<trkpt lat="46.079764729365706" lon="7.278966838493943"><ele></ele><time>2013-8-1T17:38:13Z</time></trkpt>
<trkpt lat="46.07977923005819" lon="7.278974046930671"><ele></ele><time>2013-8-1T17:38:16Z</time></trkpt>
<trkpt lat="46.079809572547674" lon="7.278984608128667"><ele></ele><time>2013-8-1T17:38:19Z</time></trkpt>
<trkpt lat="46.079838993027806" lon="7.278992151841521"><ele></ele><time>2013-8-1T17:38:22Z</time></trkpt>
<trkpt lat="46.07988224364817" lon="7.278994414955378"><ele></ele><time>2013-8-1T17:38:25Z</time></trkpt>
<trkpt lat="46.07989892363548" lon="7.278992906212807"><ele></ele><time>2013-8-1T17:38:28Z</time></trkpt>
<trkpt lat="46.07991686090827" lon="7.278991816565394"><ele></ele><time>2013-8-1T17:38:31Z</time></trkpt>
<trkpt lat="46.07993429526687" lon="7.278989301994443"><ele></ele><time>2013-8-1T17:38:34Z</time></trkpt>
<trkpt lat="46.07995114289224" lon="7.278988715261221"><ele></ele><time>2013-8-1T17:38:37Z</time></trkpt>
<trkpt lat="46.08003764413297" lon="7.278950829058886"><ele></ele><time>2013-8-1T17:38:40Z</time></trkpt>
<trkpt lat="46.080133533105254" lon="7.278939094394445"><ele></ele><time>2013-8-1T17:38:43Z</time></trkpt>
<trkpt lat="46.08015499077737" lon="7.278942782431841"><ele></ele><time>2013-8-1T17:38:46Z</time></trkpt>
<trkpt lat="46.080174185335636" lon="7.278947476297617"><ele></ele><time>2013-8-1T17:38:49Z</time></trkpt>
<trkpt lat="46.08019195497036" lon="7.2789523378014565"><ele></ele><time>2013-8-1T17:38:52Z</time></trkpt>
<trkpt lat="46.08020855113864" lon="7.278959630057216"><ele></ele><time>2013-8-1T17:38:55Z</time></trkpt>
<trkpt lat="46.08029178343713" lon="7.279010089114308"><ele></ele><time>2013-8-1T17:38:58Z</time></trkpt>
<trkpt lat="46.08039563521743" lon="7.2790562734007835"><ele></ele><time>2013-8-1T17:39:1Z</time></trkpt>
<trkpt lat="46.08041524887085" lon="7.279059458523989"><ele></ele><time>2013-8-1T17:39:4Z</time></trkpt>
<trkpt lat="46.08043955639005" lon="7.279061553999782"><ele></ele><time>2013-8-1T17:39:7Z</time></trkpt>
<trkpt lat="46.08046017587185" lon="7.279066164046526"><ele></ele><time>2013-8-1T17:39:10Z</time></trkpt>
<trkpt lat="46.08048062771559" lon="7.279068427160382"><ele></ele><time>2013-8-1T17:39:13Z</time></trkpt>
<trkpt lat="46.08052580617368" lon="7.2790727857500315"><ele></ele><time>2013-8-1T17:39:16Z</time></trkpt>
<trkpt lat="46.08063275925815" lon="7.279140595346689"><ele></ele><time>2013-8-1T17:39:19Z</time></trkpt>
<trkpt lat="46.08067458495498" lon="7.279175380244851"><ele></ele><time>2013-8-1T17:39:22Z</time></trkpt>
<trkpt lat="46.08070408925414" lon="7.279195999726653"><ele></ele><time>2013-8-1T17:39:25Z</time></trkpt>
<trkpt lat="46.08072060160339" lon="7.279210332781076"><ele></ele><time>2013-8-1T17:39:28Z</time></trkpt>
<trkpt lat="46.08074122108519" lon="7.279226845130324"><ele></ele><time>2013-8-1T17:39:31Z</time></trkpt>
<trkpt lat="46.08075915835798" lon="7.279240088537335"><ele></ele><time>2013-8-1T17:39:34Z</time></trkpt>
<trkpt lat="46.08077676035464" lon="7.27925643324852"><ele></ele><time>2013-8-1T17:39:37Z</time></trkpt>
<trkpt lat="46.08081556856632" lon="7.2792839258909225"><ele></ele><time>2013-8-1T17:39:40Z</time></trkpt>
<trkpt lat="46.08089251443744" lon="7.27936296723783"><ele></ele><time>2013-8-1T17:39:43Z</time></trkpt>
<trkpt lat="46.08093517832458" lon="7.2794512286782265"><ele></ele><time>2013-8-1T17:39:46Z</time></trkpt>
<trkpt lat="46.08094691298902" lon="7.279469417408109"><ele></ele><time>2013-8-1T17:39:49Z</time></trkpt>
<trkpt lat="46.08095361851156" lon="7.279490623623133"><ele></ele><time>2013-8-1T17:39:52Z</time></trkpt>
<trkpt lat="46.080958312377334" lon="7.2795171942561865"><ele></ele><time>2013-8-1T17:39:55Z</time></trkpt>
<trkpt lat="46.080963760614395" lon="7.279544686898589"><ele></ele><time>2013-8-1T17:39:58Z</time></trkpt>
<trkpt lat="46.08097868040204" lon="7.279693381860852"><ele></ele><time>2013-8-1T17:40:1Z</time></trkpt>
<trkpt lat="46.08098345808685" lon="7.279720539227128"><ele></ele><time>2013-8-1T17:40:4Z</time></trkpt>
<trkpt lat="46.080987732857466" lon="7.2797477804124355"><ele></ele><time>2013-8-1T17:40:7Z</time></trkpt>
<trkpt lat="46.08099091798067" lon="7.279771501198411"><ele></ele><time>2013-8-1T17:40:10Z</time></trkpt>
<trkpt lat="46.08099611476064" lon="7.279793797060847"><ele></ele><time>2013-8-1T17:40:13Z</time></trkpt>
<trkpt lat="46.08100449666381" lon="7.279857750982046"><ele></ele><time>2013-8-1T17:40:16Z</time></trkpt>
<trkpt lat="46.08101396821439" lon="7.279930422082543"><ele></ele><time>2013-8-1T17:40:19Z</time></trkpt>
<trkpt lat="46.08101547695696" lon="7.2799512930214405"><ele></ele><time>2013-8-1T17:40:22Z</time></trkpt>
<trkpt lat="46.08101824298501" lon="7.279972415417433"><ele></ele><time>2013-8-1T17:40:25Z</time></trkpt>
<trkpt lat="46.08102151192725" lon="7.279993370175362"><ele></ele><time>2013-8-1T17:40:28Z</time></trkpt>
<trkpt lat="46.08102637343109" lon="7.280015833675861"><ele></ele><time>2013-8-1T17:40:31Z</time></trkpt>
<trkpt lat="46.08103299513459" lon="7.2800446674227715"><ele></ele><time>2013-8-1T17:40:34Z</time></trkpt>
<trkpt lat="46.08106618747115" lon="7.280205767601728"><ele></ele><time>2013-8-1T17:40:37Z</time></trkpt>
<trkpt lat="46.08107155188918" lon="7.280230158939958"><ele></ele><time>2013-8-1T17:40:40Z</time></trkpt>
<trkpt lat="46.08107540756464" lon="7.280253125354648"><ele></ele><time>2013-8-1T17:40:43Z</time></trkpt>
<trkpt lat="46.081083454191685" lon="7.280276259407401"><ele></ele><time>2013-8-1T17:40:46Z</time></trkpt>
<trkpt lat="46.081114299595356" lon="7.28036024607718"><ele></ele><time>2013-8-1T17:40:49Z</time></trkpt>
<trkpt lat="46.08113349415362" lon="7.280425541102886"><ele></ele><time>2013-8-1T17:40:52Z</time></trkpt>
<trkpt lat="46.08113785274327" lon="7.280447753146291"><ele></ele><time>2013-8-1T17:40:55Z</time></trkpt>
<trkpt lat="46.08114372007549" lon="7.280467366799712"><ele></ele><time>2013-8-1T17:40:58Z</time></trkpt>
<trkpt lat="46.08114883303642" lon="7.280486058443785"><ele></ele><time>2013-8-1T17:41:1Z</time></trkpt>
<trkpt lat="46.08115595765412" lon="7.2805058397352695"><ele></ele><time>2013-8-1T17:41:4Z</time></trkpt>
<trkpt lat="46.081197280436754" lon="7.280614469200373"><ele></ele><time>2013-8-1T17:41:7Z</time></trkpt>
<trkpt lat="46.08120247721672" lon="7.280634585767984"><ele></ele><time>2013-8-1T17:41:10Z</time></trkpt>
<trkpt lat="46.08120725490153" lon="7.280653780326247"><ele></ele><time>2013-8-1T17:41:13Z</time></trkpt>
<trkpt lat="46.081213960424066" lon="7.280672220513225"><ele></ele><time>2013-8-1T17:41:16Z</time></trkpt>
<trkpt lat="46.08121169731021" lon="7.280689487233758"><ele></ele><time>2013-8-1T17:41:19Z</time></trkpt>
<trkpt lat="46.081213960424066" lon="7.28071010671556"><ele></ele><time>2013-8-1T17:41:22Z</time></trkpt>
<trkpt lat="46.081217899918556" lon="7.280728714540601"><ele></ele><time>2013-8-1T17:41:25Z</time></trkpt>
<trkpt lat="46.08124346472323" lon="7.280820161104202"><ele></ele><time>2013-8-1T17:41:28Z</time></trkpt>
<trkpt lat="46.08124740421772" lon="7.280839271843433"><ele></ele><time>2013-8-1T17:41:31Z</time></trkpt>
<trkpt lat="46.08125377446413" lon="7.280852682888508"><ele></ele><time>2013-8-1T17:41:34Z</time></trkpt>
<trkpt lat="46.08126014471054" lon="7.280872296541929"><ele></ele><time>2013-8-1T17:41:37Z</time></trkpt>
<trkpt lat="46.081265173852444" lon="7.280890317633748"><ele></ele><time>2013-8-1T17:41:40Z</time></trkpt>
<trkpt lat="46.08128797262907" lon="7.280965084210038"><ele></ele><time>2013-8-1T17:41:43Z</time></trkpt>
<trkpt lat="46.08130515553057" lon="7.281058710068464"><ele></ele><time>2013-8-1T17:41:46Z</time></trkpt>
<trkpt lat="46.08130490407348" lon="7.281081844121218"><ele></ele><time>2013-8-1T17:41:49Z</time></trkpt>
<trkpt lat="46.08130741864443" lon="7.2811048943549395"><ele></ele><time>2013-8-1T17:41:52Z</time></trkpt>
<trkpt lat="46.08131186105311" lon="7.281125178560615"><ele></ele><time>2013-8-1T17:41:55Z</time></trkpt>
<trkpt lat="46.08131202869117" lon="7.281144205480814"><ele></ele><time>2013-8-1T17:41:58Z</time></trkpt>
<trkpt lat="46.081305742263794" lon="7.281242609024048"><ele></ele><time>2013-8-1T17:42:1Z</time></trkpt>
<trkpt lat="46.081293588504195" lon="7.281290888786316"><ele></ele><time>2013-8-1T17:42:4Z</time></trkpt>
<trkpt lat="46.08129073865712" lon="7.281315363943577"><ele></ele><time>2013-8-1T17:42:7Z</time></trkpt>
<trkpt lat="46.081292666494846" lon="7.28134335950017"><ele></ele><time>2013-8-1T17:42:10Z</time></trkpt>
<trkpt lat="46.081296522170305" lon="7.28136733174324"><ele></ele><time>2013-8-1T17:42:13Z</time></trkpt>
<trkpt lat="46.08130113221705" lon="7.281387532129884"><ele></ele><time>2013-8-1T17:42:16Z</time></trkpt>
<trkpt lat="46.081305323168635" lon="7.281408067792654"><ele></ele><time>2013-8-1T17:42:19Z</time></trkpt>
<trkpt lat="46.0813348274678" lon="7.281528599560261"><ele></ele><time>2013-8-1T17:42:22Z</time></trkpt>
<trkpt lat="46.08135947026312" lon="7.281591463834047"><ele></ele><time>2013-8-1T17:42:25Z</time></trkpt>
<trkpt lat="46.0813660081476" lon="7.281612167134881"><ele></ele><time>2013-8-1T17:42:28Z</time></trkpt>
<trkpt lat="46.08137254603207" lon="7.281632367521524"><ele></ele><time>2013-8-1T17:42:31Z</time></trkpt>
<trkpt lat="46.081381011754274" lon="7.281654244288802"><ele></ele><time>2013-8-1T17:42:34Z</time></trkpt>
<trkpt lat="46.08138746581972" lon="7.281677043065429"><ele></ele><time>2013-8-1T17:42:37Z</time></trkpt>
<trkpt lat="46.08144127763808" lon="7.28183344937861"><ele></ele><time>2013-8-1T17:42:40Z</time></trkpt>
<trkpt lat="46.081442618742585" lon="7.281853146851063"><ele></ele><time>2013-8-1T17:42:43Z</time></trkpt>
<trkpt lat="46.08144521713257" lon="7.2818744368851185"><ele></ele><time>2013-8-1T17:42:46Z</time></trkpt>
<trkpt lat="46.08144446276128" lon="7.281895810738206"><ele></ele><time>2013-8-1T17:42:49Z</time></trkpt>
<trkpt lat="46.0814471449703" lon="7.2819162625819445"><ele></ele><time>2013-8-1T17:42:52Z</time></trkpt>
<trkpt lat="46.08145225793123" lon="7.281941408291459"><ele></ele><time>2013-8-1T17:42:55Z</time></trkpt>
<trkpt lat="46.08147321268916" lon="7.282086834311485"><ele></ele><time>2013-8-1T17:42:58Z</time></trkpt>
<trkpt lat="46.08147673308849" lon="7.282108375802636"><ele></ele><time>2013-8-1T17:43:1Z</time></trkpt>
<trkpt lat="46.08148008584976" lon="7.282128240913153"><ele></ele><time>2013-8-1T17:43:4Z</time></trkpt>
<trkpt lat="46.081485617905855" lon="7.282146094366908"><ele></ele><time>2013-8-1T17:43:7Z</time></trkpt>
<trkpt lat="46.08149173669517" lon="7.282168138772249"><ele></ele><time>2013-8-1T17:43:10Z</time></trkpt>
<trkpt lat="46.08149844221771" lon="7.282185573130846"><ele></ele><time>2013-8-1T17:43:13Z</time></trkpt>
<trkpt lat="46.081526102498174" lon="7.282256232574582"><ele></ele><time>2013-8-1T17:43:16Z</time></trkpt>
<trkpt lat="46.08153213746846" lon="7.282274924218655"><ele></ele><time>2013-8-1T17:43:19Z</time></trkpt>
<trkpt lat="46.08154194429517" lon="7.282292861491442"><ele></ele><time>2013-8-1T17:43:22Z</time></trkpt>
<trkpt lat="46.081548146903515" lon="7.2823120560497046"><ele></ele><time>2013-8-1T17:43:25Z</time></trkpt>
<trkpt lat="46.08155569061637" lon="7.28232940658927"><ele></ele><time>2013-8-1T17:43:28Z</time></trkpt>
<trkpt lat="46.081603886559606" lon="7.282435270026326"><ele></ele><time>2013-8-1T17:43:31Z</time></trkpt>
<trkpt lat="46.08162023127079" lon="7.282471228390932"><ele></ele><time>2013-8-1T17:43:34Z</time></trkpt>
<trkpt lat="46.08163112774491" lon="7.28248530998826"><ele></ele><time>2013-8-1T17:43:37Z</time></trkpt>
<trkpt lat="46.081638503819704" lon="7.282498888671398"><ele></ele><time>2013-8-1T17:43:40Z</time></trkpt>
<trkpt lat="46.08164956793189" lon="7.282509952783585"><ele></ele><time>2013-8-1T17:43:43Z</time></trkpt>
<trkpt lat="46.081659626215696" lon="7.282522022724152"><ele></ele><time>2013-8-1T17:43:46Z</time></trkpt>
<trkpt lat="46.081667924299836" lon="7.282536691054702"><ele></ele><time>2013-8-1T17:43:49Z</time></trkpt>
<trkpt lat="46.0817182995379" lon="7.282598968595266"><ele></ele><time>2013-8-1T17:43:52Z</time></trkpt>
<trkpt lat="46.0817249212414" lon="7.282614726573229"><ele></ele><time>2013-8-1T17:43:55Z</time></trkpt>
<trkpt lat="46.08173414133489" lon="7.282627383247018"><ele></ele><time>2013-8-1T17:43:58Z</time></trkpt>
<trkpt lat="46.08174176886678" lon="7.282634675502777"><ele></ele><time>2013-8-1T17:44:1Z</time></trkpt>
<trkpt lat="46.08175015076995" lon="7.282642303034663"><ele></ele><time>2013-8-1T17:44:4Z</time></trkpt>
<trkpt lat="46.08178376220167" lon="7.282699467614293"><ele></ele><time>2013-8-1T17:44:7Z</time></trkpt>
<trkpt lat="46.081791976466775" lon="7.282715141773224"><ele></ele><time>2013-8-1T17:44:10Z</time></trkpt>
<trkpt lat="46.08179993927479" lon="7.2827276308089495"><ele></ele><time>2013-8-1T17:44:13Z</time></trkpt>
<trkpt lat="46.08180731534958" lon="7.282743640244007"><ele></ele><time>2013-8-1T17:44:16Z</time></trkpt>
<trkpt lat="46.08181167393923" lon="7.282761242240667"><ele></ele><time>2013-8-1T17:44:19Z</time></trkpt>
<trkpt lat="46.081819301471114" lon="7.282777335494757"><ele></ele><time>2013-8-1T17:44:22Z</time></trkpt>
<trkpt lat="46.081831622868776" lon="7.282790578901768"><ele></ele><time>2013-8-1T17:44:25Z</time></trkpt>
<trkpt lat="46.08184587210417" lon="7.282801391556859"><ele></ele><time>2013-8-1T17:44:28Z</time></trkpt>
<trkpt lat="46.08186707831919" lon="7.28282100521028"><ele></ele><time>2013-8-1T17:44:31Z</time></trkpt>
<trkpt lat="46.081918543204665" lon="7.282894263044"><ele></ele><time>2013-8-1T17:44:34Z</time></trkpt>
<trkpt lat="46.08192650601268" lon="7.282907841727138"><ele></ele><time>2013-8-1T17:44:37Z</time></trkpt>
<trkpt lat="46.081934133544564" lon="7.2829201631248"><ele></ele><time>2013-8-1T17:44:40Z</time></trkpt>
<trkpt lat="46.081944946199656" lon="7.282934160903096"><ele></ele><time>2013-8-1T17:44:43Z</time></trkpt>
<trkpt lat="46.081955172121525" lon="7.2829502541571856"><ele></ele><time>2013-8-1T17:44:46Z</time></trkpt>
<trkpt lat="46.0819876100868" lon="7.282993672415614"><ele></ele><time>2013-8-1T17:44:49Z</time></trkpt>
<trkpt lat="46.08200127258897" lon="7.2830091789364815"><ele></ele><time>2013-8-1T17:44:52Z</time></trkpt>
<trkpt lat="46.08201309107244" lon="7.283022673800588"><ele></ele><time>2013-8-1T17:44:55Z</time></trkpt>
<trkpt lat="46.08202616684139" lon="7.283034073188901"><ele></ele><time>2013-8-1T17:44:58Z</time></trkpt>
<trkpt lat="46.08203790150583" lon="7.283046646043658"><ele></ele><time>2013-8-1T17:45:1Z</time></trkpt>
<trkpt lat="46.08204888179898" lon="7.28305896744132"><ele></ele><time>2013-8-1T17:45:4Z</time></trkpt>
<trkpt lat="46.08205768279731" lon="7.283073468133807"><ele></ele><time>2013-8-1T17:45:7Z</time></trkpt>
<trkpt lat="46.08206782490015" lon="7.2830848675221205"><ele></ele><time>2013-8-1T17:45:10Z</time></trkpt>
<trkpt lat="46.0821551643312" lon="7.283186037093401"><ele></ele><time>2013-8-1T17:45:13Z</time></trkpt>
<trkpt lat="46.08216245658696" lon="7.283203471451998"><ele></ele><time>2013-8-1T17:45:16Z</time></trkpt>
<trkpt lat="46.08217335306108" lon="7.283215457573533"><ele></ele><time>2013-8-1T17:45:19Z</time></trkpt>
<trkpt lat="46.082181399688125" lon="7.283228617161512"><ele></ele><time>2013-8-1T17:45:22Z</time></trkpt>
<trkpt lat="46.08219061978161" lon="7.283243704587221"><ele></ele><time>2013-8-1T17:45:25Z</time></trkpt>
<trkpt lat="46.08221978880465" lon="7.28328175842762"><ele></ele><time>2013-8-1T17:45:28Z</time></trkpt>
<trkpt lat="46.08226018957794" lon="7.28333062492311"><ele></ele><time>2013-8-1T17:45:31Z</time></trkpt>
<trkpt lat="46.082268906757236" lon="7.283345544710755"><ele></ele><time>2013-8-1T17:45:34Z</time></trkpt>
<trkpt lat="46.08227904886007" lon="7.28335895575583"><ele></ele><time>2013-8-1T17:45:37Z</time></trkpt>
<trkpt lat="46.08228676021099" lon="7.283373372629285"><ele></ele><time>2013-8-1T17:45:40Z</time></trkpt>
<trkpt lat="46.082293298095465" lon="7.2833934891968966"><ele></ele><time>2013-8-1T17:45:43Z</time></trkpt>
<trkpt lat="46.08231894671917" lon="7.283421400934458"><ele></ele><time>2013-8-1T17:45:46Z</time></trkpt>
<trkpt lat="46.08233965002" lon="7.283444870263338"><ele></ele><time>2013-8-1T17:45:49Z</time></trkpt>
<trkpt lat="46.08236538246274" lon="7.283488539978862"><ele></ele><time>2013-8-1T17:45:52Z</time></trkpt>
<trkpt lat="46.08237661421299" lon="7.283506980165839"><ele></ele><time>2013-8-1T17:45:55Z</time></trkpt>
<trkpt lat="46.08238968998194" lon="7.283521145582199"><ele></ele><time>2013-8-1T17:45:58Z</time></trkpt>
<trkpt lat="46.08239974826574" lon="7.283535897731781"><ele></ele><time>2013-8-1T17:46:1Z</time></trkpt>
<trkpt lat="46.08240846544504" lon="7.283550649881363"><ele></ele><time>2013-8-1T17:46:4Z</time></trkpt>
<trkpt lat="46.08242020010948" lon="7.2835607919842005"><ele></ele><time>2013-8-1T17:46:7Z</time></trkpt>
<trkpt lat="46.08242757618427" lon="7.283570934087038"><ele></ele><time>2013-8-1T17:46:10Z</time></trkpt>
<trkpt lat="46.08243713155389" lon="7.283583339303732"><ele></ele><time>2013-8-1T17:46:13Z</time></trkpt>
<trkpt lat="46.0824659653008" lon="7.283608568832278"><ele></ele><time>2013-8-1T17:46:16Z</time></trkpt>
<trkpt lat="46.082488261163235" lon="7.283633295446634"><ele></ele><time>2013-8-1T17:46:19Z</time></trkpt>
<trkpt lat="46.08249865472317" lon="7.283650562167168"><ele></ele><time>2013-8-1T17:46:22Z</time></trkpt>
<trkpt lat="46.08250854536891" lon="7.2836623806506395"><ele></ele><time>2013-8-1T17:46:25Z</time></trkpt>
<trkpt lat="46.082520028576255" lon="7.283674031496048"><ele></ele><time>2013-8-1T17:46:28Z</time></trkpt>
<trkpt lat="46.08252765610814" lon="7.283687274903059"><ele></ele><time>2013-8-1T17:46:31Z</time></trkpt>
<trkpt lat="46.0825920291245" lon="7.283784756436944"><ele></ele><time>2013-8-1T17:46:34Z</time></trkpt>
<trkpt lat="46.08259940519929" lon="7.283804286271334"><ele></ele><time>2013-8-1T17:46:37Z</time></trkpt>
<trkpt lat="46.082611475139856" lon="7.283820463344455"><ele></ele><time>2013-8-1T17:46:40Z</time></trkpt>
<trkpt lat="46.082623125985265" lon="7.2838343773037195"><ele></ele><time>2013-8-1T17:46:43Z</time></trkpt>
<trkpt lat="46.082638716325164" lon="7.28384418413043"><ele></ele><time>2013-8-1T17:46:46Z</time></trkpt>
<trkpt lat="46.082662772387266" lon="7.283874778077006"><ele></ele><time>2013-8-1T17:46:49Z</time></trkpt>
<trkpt lat="46.08273737132549" lon="7.283996734768152"><ele></ele><time>2013-8-1T17:46:52Z</time></trkpt>
<trkpt lat="46.08274860307574" lon="7.284016432240605"><ele></ele><time>2013-8-1T17:46:55Z</time></trkpt>
<trkpt lat="46.08275966718793" lon="7.2840378899127245"><ele></ele><time>2013-8-1T17:46:58Z</time></trkpt>
<trkpt lat="46.08276947401464" lon="7.2840596828609705"><ele></ele><time>2013-8-1T17:47:1Z</time></trkpt>
<trkpt lat="46.082780538126826" lon="7.284074770286679"><ele></ele><time>2013-8-1T17:47:4Z</time></trkpt>
<trkpt lat="46.08279378153384" lon="7.284093964844942"><ele></ele><time>2013-8-1T17:47:7Z</time></trkpt>
<trkpt lat="46.08281104825437" lon="7.284135622903705"><ele></ele><time>2013-8-1T17:47:10Z</time></trkpt>
<trkpt lat="46.082833176478744" lon="7.2841766104102135"><ele></ele><time>2013-8-1T17:47:13Z</time></trkpt>
<trkpt lat="46.082842480391264" lon="7.284196810796857"><ele></ele><time>2013-8-1T17:47:16Z</time></trkpt>
<trkpt lat="46.08285555616021" lon="7.28425070643425"><ele></ele><time>2013-8-1T17:47:19Z</time></trkpt>
<trkpt lat="46.08285832218826" lon="7.284276355057955"><ele></ele><time>2013-8-1T17:47:22Z</time></trkpt>
<trkpt lat="46.08285555616021" lon="7.284297393634915"><ele></ele><time>2013-8-1T17:47:25Z</time></trkpt>
<trkpt lat="46.082856645807624" lon="7.284317510202527"><ele></ele><time>2013-8-1T17:47:28Z</time></trkpt>
<trkpt lat="46.082863602787256" lon="7.28433427400887"><ele></ele><time>2013-8-1T17:47:31Z</time></trkpt>
<trkpt lat="46.08288346789777" lon="7.284395042806864"><ele></ele><time>2013-8-1T17:47:34Z</time></trkpt>
<trkpt lat="46.08289746567607" lon="7.284444244578481"><ele></ele><time>2013-8-1T17:47:37Z</time></trkpt>
<trkpt lat="46.082918252795935" lon="7.284521358087659"><ele></ele><time>2013-8-1T17:47:40Z</time></trkpt>
<trkpt lat="46.08292294666171" lon="7.284543821588159"><ele></ele><time>2013-8-1T17:47:43Z</time></trkpt>
<trkpt lat="46.08292881399393" lon="7.2845671232789755"><ele></ele><time>2013-8-1T17:47:46Z</time></trkpt>
<trkpt lat="46.082934932783246" lon="7.284593442454934"><ele></ele><time>2013-8-1T17:47:49Z</time></trkpt>
<trkpt lat="46.08293870463967" lon="7.284616157412529"><ele></ele><time>2013-8-1T17:47:52Z</time></trkpt>
<trkpt lat="46.08294675126672" lon="7.284702910110354"><ele></ele><time>2013-8-1T17:47:55Z</time></trkpt>
<trkpt lat="46.082949014380574" lon="7.28472956456244"><ele></ele><time>2013-8-1T17:47:58Z</time></trkpt>
<trkpt lat="46.08294993638992" lon="7.28485562838614"><ele></ele><time>2013-8-1T17:48:1Z</time></trkpt>
<trkpt lat="46.08294943347573" lon="7.284879349172115"><ele></ele><time>2013-8-1T17:48:4Z</time></trkpt>
<trkpt lat="46.082949014380574" lon="7.284906506538391"><ele></ele><time>2013-8-1T17:48:7Z</time></trkpt>
<trkpt lat="46.082942225039005" lon="7.284932406619191"><ele></ele><time>2013-8-1T17:48:10Z</time></trkpt>
<trkpt lat="46.082940800115466" lon="7.284951684996486"><ele></ele><time>2013-8-1T17:48:13Z</time></trkpt>
<trkpt lat="46.08293350785971" lon="7.284973813220859"><ele></ele><time>2013-8-1T17:48:16Z</time></trkpt>
<trkpt lat="46.082921270281076" lon="7.285056207329035"><ele></ele><time>2013-8-1T17:48:19Z</time></trkpt>
<trkpt lat="46.08292286284268" lon="7.285176487639546"><ele></ele><time>2013-8-1T17:48:22Z</time></trkpt>
<trkpt lat="46.08292043209076" lon="7.285197274759412"><ele></ele><time>2013-8-1T17:48:25Z</time></trkpt>
<trkpt lat="46.08292822726071" lon="7.285218983888626"><ele></ele><time>2013-8-1T17:48:28Z</time></trkpt>
<trkpt lat="46.08293820172548" lon="7.285233652219176"><ele></ele><time>2013-8-1T17:48:31Z</time></trkpt>
<trkpt lat="46.08295571990311" lon="7.285239351913333"><ele></ele><time>2013-8-1T17:48:34Z</time></trkpt>
<trkpt lat="46.082971561700106" lon="7.285239100456238"><ele></ele><time>2013-8-1T17:48:37Z</time></trkpt>
<trkpt lat="46.083028223365545" lon="7.285187132656574"><ele></ele><time>2013-8-1T17:48:40Z</time></trkpt>
<trkpt lat="46.08303325250745" lon="7.28516492061317"><ele></ele><time>2013-8-1T17:48:43Z</time></trkpt>
<trkpt lat="46.08303585089743" lon="7.2851422894746065"><ele></ele><time>2013-8-1T17:48:46Z</time></trkpt>
<trkpt lat="46.08303727582097" lon="7.285119239240885"><ele></ele><time>2013-8-1T17:48:49Z</time></trkpt>
<trkpt lat="46.083038030192256" lon="7.285097613930702"><ele></ele><time>2013-8-1T17:48:52Z</time></trkpt>
<trkpt lat="46.08305353671312" lon="7.285007340833545"><ele></ele><time>2013-8-1T17:48:55Z</time></trkpt>
<trkpt lat="46.08307147398591" lon="7.284922851249576"><ele></ele><time>2013-8-1T17:48:58Z</time></trkpt>
<trkpt lat="46.083077089861035" lon="7.284905584529042"><ele></ele><time>2013-8-1T17:49:1Z</time></trkpt>
<trkpt lat="46.083082286641" lon="7.284889407455921"><ele></ele><time>2013-8-1T17:49:4Z</time></trkpt>
<trkpt lat="46.08308848924935" lon="7.284868201240897"><ele></ele><time>2013-8-1T17:49:7Z</time></trkpt>
<trkpt lat="46.08309360221028" lon="7.284848922863603"><ele></ele><time>2013-8-1T17:49:10Z</time></trkpt>
<trkpt lat="46.083121597766876" lon="7.28468413464725"><ele></ele><time>2013-8-1T17:49:13Z</time></trkpt>
<trkpt lat="46.083122016862035" lon="7.284661084413528"><ele></ele><time>2013-8-1T17:49:16Z</time></trkpt>
<trkpt lat="46.08312176540494" lon="7.284636441618204"><ele></ele><time>2013-8-1T17:49:19Z</time></trkpt>
<trkpt lat="46.08312511816621" lon="7.284610792994499"><ele></ele><time>2013-8-1T17:49:22Z</time></trkpt>
<trkpt lat="46.083126375451684" lon="7.284586066380143"><ele></ele><time>2013-8-1T17:49:25Z</time></trkpt>
<trkpt lat="46.08315001241863" lon="7.284433012828231"><ele></ele><time>2013-8-1T17:49:28Z</time></trkpt>
<trkpt lat="46.08315018005669" lon="7.284388421103358"><ele></ele><time>2013-8-1T17:49:31Z</time></trkpt>
<trkpt lat="46.08315001241863" lon="7.284366460517049"><ele></ele><time>2013-8-1T17:49:34Z</time></trkpt>
<trkpt lat="46.083147497847676" lon="7.284341901540756"><ele></ele><time>2013-8-1T17:49:37Z</time></trkpt>
<trkpt lat="46.083146994933486" lon="7.284318013116717"><ele></ele><time>2013-8-1T17:49:40Z</time></trkpt>
<trkpt lat="46.08314682729542" lon="7.284296220168471"><ele></ele><time>2013-8-1T17:49:43Z</time></trkpt>
<trkpt lat="46.083141043782234" lon="7.284272415563464"><ele></ele><time>2013-8-1T17:49:46Z</time></trkpt>
<trkpt lat="46.083128387108445" lon="7.284205444157124"><ele></ele><time>2013-8-1T17:49:49Z</time></trkpt>
<trkpt lat="46.08312486670911" lon="7.284184154123068"><ele></ele><time>2013-8-1T17:49:52Z</time></trkpt>
<trkpt lat="46.08312067575753" lon="7.284160517156124"><ele></ele><time>2013-8-1T17:49:55Z</time></trkpt>
<trkpt lat="46.08311799354851" lon="7.284137634560466"><ele></ele><time>2013-8-1T17:49:58Z</time></trkpt>
<trkpt lat="46.0831187479198" lon="7.284118020907044"><ele></ele><time>2013-8-1T17:50:1Z</time></trkpt>
<trkpt lat="46.083103409036994" lon="7.284008385613561"><ele></ele><time>2013-8-1T17:50:4Z</time></trkpt>
<trkpt lat="46.083090249449015" lon="7.283962704241276"><ele></ele><time>2013-8-1T17:50:7Z</time></trkpt>
<trkpt lat="46.08308522030711" lon="7.283939318731427"><ele></ele><time>2013-8-1T17:50:10Z</time></trkpt>
<trkpt lat="46.08307633548975" lon="7.283915262669325"><ele></ele><time>2013-8-1T17:50:13Z</time></trkpt>
<trkpt lat="46.08307340182364" lon="7.28389497846365"><ele></ele><time>2013-8-1T17:50:16Z</time></trkpt>
<trkpt lat="46.083077592775226" lon="7.283873436972499"><ele></ele><time>2013-8-1T17:50:19Z</time></trkpt>
<trkpt lat="46.08310382813215" lon="7.283790875226259"><ele></ele><time>2013-8-1T17:50:22Z</time></trkpt>
<trkpt lat="46.083109360188246" lon="7.28377478197217"><ele></ele><time>2013-8-1T17:50:25Z</time></trkpt>
<trkpt lat="46.08312243595719" lon="7.283767489716411"><ele></ele><time>2013-8-1T17:50:28Z</time></trkpt>
<trkpt lat="46.08313584700227" lon="7.283773524686694"><ele></ele><time>2013-8-1T17:50:31Z</time></trkpt>
<trkpt lat="46.08314137905836" lon="7.283780733123422"><ele></ele><time>2013-8-1T17:50:34Z</time></trkpt>
<trkpt lat="46.083141043782234" lon="7.283784504979849"><ele></ele><time>2013-8-1T17:50:37Z</time></trkpt>
<trkpt lat="46.083140121772885" lon="7.283783331513405"><ele></ele><time>2013-8-1T17:50:40Z</time></trkpt>
<trkpt lat="46.083140121772885" lon="7.283783331513405"><ele></ele><time>2013-8-1T17:50:43Z</time></trkpt>
<trkpt lat="46.083140121772885" lon="7.283783331513405"><ele></ele><time>2013-8-1T17:50:46Z</time></trkpt>
<trkpt lat="46.083140121772885" lon="7.283783331513405"><ele></ele><time>2013-8-1T17:50:49Z</time></trkpt>
<trkpt lat="46.08313987031579" lon="7.283787354826927"><ele></ele><time>2013-8-1T17:50:52Z</time></trkpt>
<trkpt lat="46.083148922771215" lon="7.283792719244957"><ele></ele><time>2013-8-1T17:50:55Z</time></trkpt>
<trkpt lat="46.083198292180896" lon="7.283881651237607"><ele></ele><time>2013-8-1T17:50:58Z</time></trkpt>
<trkpt lat="46.083202650770545" lon="7.2839009296149015"><ele></ele><time>2013-8-1T17:51:1Z</time></trkpt>
<trkpt lat="46.08322343789041" lon="7.283970834687352"><ele></ele><time>2013-8-1T17:51:4Z</time></trkpt>
<trkpt lat="46.08322746120393" lon="7.28399564512074"><ele></ele><time>2013-8-1T17:51:7Z</time></trkpt>
<trkpt lat="46.083228969946504" lon="7.284016348421574"><ele></ele><time>2013-8-1T17:51:10Z</time></trkpt>
<trkpt lat="46.0832326579839" lon="7.28403864428401"><ele></ele><time>2013-8-1T17:51:13Z</time></trkpt>
<trkpt lat="46.08323324471712" lon="7.284059934318066"><ele></ele><time>2013-8-1T17:51:16Z</time></trkpt>
<trkpt lat="46.08323173597455" lon="7.2841371316462755"><ele></ele><time>2013-8-1T17:51:19Z</time></trkpt>
<trkpt lat="46.083238357678056" lon="7.284204354509711"><ele></ele><time>2013-8-1T17:51:22Z</time></trkpt>
<trkpt lat="46.083246152848005" lon="7.284225728362799"><ele></ele><time>2013-8-1T17:51:25Z</time></trkpt>
<trkpt lat="46.083249086514115" lon="7.28424777276814"><ele></ele><time>2013-8-1T17:51:28Z</time></trkpt>
<trkpt lat="46.08325554057956" lon="7.284268895164132"><ele></ele><time>2013-8-1T17:51:31Z</time></trkpt>
<trkpt lat="46.083259815350175" lon="7.284290604293346"><ele></ele><time>2013-8-1T17:51:34Z</time></trkpt>
<trkpt lat="46.08326392248273" lon="7.28431323543191"><ele></ele><time>2013-8-1T17:51:37Z</time></trkpt>
<trkpt lat="46.08327087946236" lon="7.284358581528068"><ele></ele><time>2013-8-1T17:51:40Z</time></trkpt>
<trkpt lat="46.08328931964934" lon="7.2844822984188795"><ele></ele><time>2013-8-1T17:51:43Z</time></trkpt>
<trkpt lat="46.08329099602997" lon="7.284500487148762"><ele></ele><time>2013-8-1T17:51:46Z</time></trkpt>
<trkpt lat="46.08329468406737" lon="7.284520687535405"><ele></ele><time>2013-8-1T17:51:49Z</time></trkpt>
<trkpt lat="46.08329334296286" lon="7.284543737769127"><ele></ele><time>2013-8-1T17:51:52Z</time></trkpt>
<trkpt lat="46.08329677954316" lon="7.284569637849927"><ele></ele><time>2013-8-1T17:51:55Z</time></trkpt>
<trkpt lat="46.08330884948373" lon="7.284706765785813"><ele></ele><time>2013-8-1T17:51:58Z</time></trkpt>
<trkpt lat="46.083316560834646" lon="7.284803492948413"><ele></ele><time>2013-8-1T17:52:1Z</time></trkpt>
<trkpt lat="46.08330926857889" lon="7.284826375544071"><ele></ele><time>2013-8-1T17:52:4Z</time></trkpt>
<trkpt lat="46.08330750837922" lon="7.284845905378461"><ele></ele><time>2013-8-1T17:52:7Z</time></trkpt>
<trkpt lat="46.083309603855014" lon="7.2848716378211975"><ele></ele><time>2013-8-1T17:52:10Z</time></trkpt>
<trkpt lat="46.083305245265365" lon="7.28489083237946"><ele></ele><time>2013-8-1T17:52:13Z</time></trkpt>
<trkpt lat="46.08330340124667" lon="7.285018740221858"><ele></ele><time>2013-8-1T17:52:16Z</time></trkpt>
<trkpt lat="46.0832997970283" lon="7.285067858174443"><ele></ele><time>2013-8-1T17:52:19Z</time></trkpt>
<trkpt lat="46.083302814513445" lon="7.285091076046228"><ele></ele><time>2013-8-1T17:52:22Z</time></trkpt>
<trkpt lat="46.083305748179555" lon="7.285119239240885"><ele></ele><time>2013-8-1T17:52:25Z</time></trkpt>
<trkpt lat="46.083303736522794" lon="7.285145642235875"><ele></ele><time>2013-8-1T17:52:28Z</time></trkpt>
<trkpt lat="46.08329870738089" lon="7.285192748531699"><ele></ele><time>2013-8-1T17:52:31Z</time></trkpt>
<trkpt lat="46.08328613452613" lon="7.285233568400145"><ele></ele><time>2013-8-1T17:52:34Z</time></trkpt>
<trkpt lat="46.083281775936484" lon="7.285261061042547"><ele></ele><time>2013-8-1T17:52:37Z</time></trkpt>
<trkpt lat="46.08325914479792" lon="7.2853555250912905"><ele></ele><time>2013-8-1T17:52:40Z</time></trkpt>
<trkpt lat="46.08326107263565" lon="7.285376479849219"><ele></ele><time>2013-8-1T17:52:43Z</time></trkpt>
<trkpt lat="46.08325403183699" lon="7.285398691892624"><ele></ele><time>2013-8-1T17:52:46Z</time></trkpt>
<trkpt lat="46.08325503766537" lon="7.2854214906692505"><ele></ele><time>2013-8-1T17:52:49Z</time></trkpt>
<trkpt lat="46.08325227163732" lon="7.285440685227513"><ele></ele><time>2013-8-1T17:52:52Z</time></trkpt>
<trkpt lat="46.08325084671378" lon="7.285483684390783"><ele></ele><time>2013-8-1T17:52:55Z</time></trkpt>
<trkpt lat="46.08325797133148" lon="7.285603294149041"><ele></ele><time>2013-8-1T17:52:58Z</time></trkpt>
<trkpt lat="46.08325621113181" lon="7.2856244165450335"><ele></ele><time>2013-8-1T17:53:1Z</time></trkpt>
<trkpt lat="46.08325897715986" lon="7.285643024370074"><ele></ele><time>2013-8-1T17:53:4Z</time></trkpt>
<trkpt lat="46.08325864188373" lon="7.285670517012477"><ele></ele><time>2013-8-1T17:53:7Z</time></trkpt>
<trkpt lat="46.08323810622096" lon="7.285825414583087"><ele></ele><time>2013-8-1T17:53:10Z</time></trkpt>
<trkpt lat="46.08321430161595" lon="7.285921974107623"><ele></ele><time>2013-8-1T17:53:13Z</time></trkpt>
<trkpt lat="46.08320742845535" lon="7.285942928865552"><ele></ele><time>2013-8-1T17:53:16Z</time></trkpt>
<trkpt lat="46.083198795095086" lon="7.2859651409089565"><ele></ele><time>2013-8-1T17:53:19Z</time></trkpt>
<trkpt lat="46.083190916106105" lon="7.285979557782412"><ele></ele><time>2013-8-1T17:53:22Z</time></trkpt>
<trkpt lat="46.08318345621228" lon="7.2859972435981035"><ele></ele><time>2013-8-1T17:53:25Z</time></trkpt>
<trkpt lat="46.08316040597856" lon="7.286130599677563"><ele></ele><time>2013-8-1T17:53:28Z</time></trkpt>
<trkpt lat="46.083155209198594" lon="7.286150716245174"><ele></ele><time>2013-8-1T17:53:31Z</time></trkpt>
<trkpt lat="46.08315093442798" lon="7.286173682659864"><ele></ele><time>2013-8-1T17:53:34Z</time></trkpt>
<trkpt lat="46.0831462405622" lon="7.286196062341332"><ele></ele><time>2013-8-1T17:53:37Z</time></trkpt>
<trkpt lat="46.083144983276725" lon="7.286216430366039"><ele></ele><time>2013-8-1T17:53:40Z</time></trkpt>
<trkpt lat="46.083131823688745" lon="7.286313408985734"><ele></ele><time>2013-8-1T17:53:43Z</time></trkpt>
<trkpt lat="46.08313098549843" lon="7.286365460604429"><ele></ele><time>2013-8-1T17:53:46Z</time></trkpt>
<trkpt lat="46.083129895851016" lon="7.286392115056515"><ele></ele><time>2013-8-1T17:53:49Z</time></trkpt>
<trkpt lat="46.08313115313649" lon="7.286410890519619"><ele></ele><time>2013-8-1T17:53:52Z</time></trkpt>
<trkpt lat="46.08313106931746" lon="7.286431593820453"><ele></ele><time>2013-8-1T17:53:55Z</time></trkpt>
<trkpt lat="46.08312830328941" lon="7.28644953109324"><ele></ele><time>2013-8-1T17:53:58Z</time></trkpt>
<trkpt lat="46.08313350006938" lon="7.286465372890234"><ele></ele><time>2013-8-1T17:54:1Z</time></trkpt>
<trkpt lat="46.0831306502223" lon="7.286504600197077"><ele></ele><time>2013-8-1T17:54:4Z</time></trkpt>
<trkpt lat="46.08311749063432" lon="7.286611050367355"><ele></ele><time>2013-8-1T17:54:7Z</time></trkpt>
<trkpt lat="46.083113299682736" lon="7.286630244925618"><ele></ele><time>2013-8-1T17:54:10Z</time></trkpt>
<trkpt lat="46.08310567215085" lon="7.2866548877209425"><ele></ele><time>2013-8-1T17:54:13Z</time></trkpt>
<trkpt lat="46.08310072682798" lon="7.286675674840808"><ele></ele><time>2013-8-1T17:54:16Z</time></trkpt>
<trkpt lat="46.08309879899025" lon="7.2866967972368"><ele></ele><time>2013-8-1T17:54:19Z</time></trkpt>
<trkpt lat="46.08308169990778" lon="7.2867729887366295"><ele></ele><time>2013-8-1T17:54:22Z</time></trkpt>
<trkpt lat="46.0830754134804" lon="7.286864519119263"><ele></ele><time>2013-8-1T17:54:25Z</time></trkpt>
<trkpt lat="46.08307583257556" lon="7.286886312067509"><ele></ele><time>2013-8-1T17:54:28Z</time></trkpt>
<trkpt lat="46.08307239599526" lon="7.28690885938704"><ele></ele><time>2013-8-1T17:54:31Z</time></trkpt>
<trkpt lat="46.08306719921529" lon="7.2869296465069056"><ele></ele><time>2013-8-1T17:54:34Z</time></trkpt>
<trkpt lat="46.08306317590177" lon="7.286951271817088"><ele></ele><time>2013-8-1T17:54:37Z</time></trkpt>
<trkpt lat="46.08303811401129" lon="7.28707205504179"><ele></ele><time>2013-8-1T17:54:40Z</time></trkpt>
<trkpt lat="46.083002993837" lon="7.2871411219239235"><ele></ele><time>2013-8-1T17:54:43Z</time></trkpt>
<trkpt lat="46.082995031028986" lon="7.287162663415074"><ele></ele><time>2013-8-1T17:54:46Z</time></trkpt>
<trkpt lat="46.08298304490745" lon="7.287174481898546"><ele></ele><time>2013-8-1T17:54:49Z</time></trkpt>
<trkpt lat="46.082971561700106" lon="7.287192000076175"><ele></ele><time>2013-8-1T17:54:52Z</time></trkpt>
<trkpt lat="46.08296209014952" lon="7.287211697548628"><ele></ele><time>2013-8-1T17:54:55Z</time></trkpt>
<trkpt lat="46.0829390399158" lon="7.287244470790029"><ele></ele><time>2013-8-1T17:54:58Z</time></trkpt>
<trkpt lat="46.08287785202265" lon="7.287300378084183"><ele></ele><time>2013-8-1T17:55:1Z</time></trkpt>
<trkpt lat="46.08281188644469" lon="7.287359889596701"><ele></ele><time>2013-8-1T17:55:4Z</time></trkpt>
<trkpt lat="46.08280870132148" lon="7.287380676716566"><ele></ele><time>2013-8-1T17:55:7Z</time></trkpt>
<trkpt lat="46.082803923636675" lon="7.287407163530588"><ele></ele><time>2013-8-1T17:55:10Z</time></trkpt>
<trkpt lat="46.08280459418893" lon="7.287433482706547"><ele></ele><time>2013-8-1T17:55:13Z</time></trkpt>
<trkpt lat="46.082811299711466" lon="7.287460388615727"><ele></ele><time>2013-8-1T17:55:16Z</time></trkpt>
<trkpt lat="46.0828475933522" lon="7.2875012923032045"><ele></ele><time>2013-8-1T17:55:19Z</time></trkpt>
<trkpt lat="46.08291179873049" lon="7.287492826581001"><ele></ele><time>2013-8-1T17:55:22Z</time></trkpt>
<trkpt lat="46.082923617213964" lon="7.287485282868147"><ele></ele><time>2013-8-1T17:55:25Z</time></trkpt>
<trkpt lat="46.082938369363546" lon="7.287475308403373"><ele></ele><time>2013-8-1T17:55:28Z</time></trkpt>
<trkpt lat="46.08294993638992" lon="7.287462651729584"><ele></ele><time>2013-8-1T17:55:31Z</time></trkpt>
<trkpt lat="46.08296116814017" lon="7.2874524258077145"><ele></ele><time>2013-8-1T17:55:34Z</time></trkpt>
<trkpt lat="46.082974495366216" lon="7.287446055561304"><ele></ele><time>2013-8-1T17:55:37Z</time></trkpt>
<trkpt lat="46.082989582791924" lon="7.287443457171321"><ele></ele><time>2013-8-1T17:55:40Z</time></trkpt>
<trkpt lat="46.08301640488207" lon="7.287422502413392"><ele></ele><time>2013-8-1T17:55:43Z</time></trkpt>
<trkpt lat="46.083028139546514" lon="7.2874008771032095"><ele></ele><time>2013-8-1T17:55:46Z</time></trkpt>
<trkpt lat="46.08303828164935" lon="7.287386544048786"><ele></ele><time>2013-8-1T17:55:49Z</time></trkpt>
<trkpt lat="46.08304842375219" lon="7.287370869889855"><ele></ele><time>2013-8-1T17:55:52Z</time></trkpt>
<trkpt lat="46.0830598231405" lon="7.287356955930591"><ele></ele><time>2013-8-1T17:55:55Z</time></trkpt>
<trkpt lat="46.08307289890945" lon="7.287338515743613"><ele></ele><time>2013-8-1T17:55:58Z</time></trkpt>
<trkpt lat="46.08313266187906" lon="7.287277160212398"><ele></ele><time>2013-8-1T17:56:1Z</time></trkpt>
<trkpt lat="46.083155293017626" lon="7.2872500866651535"><ele></ele><time>2013-8-1T17:56:4Z</time></trkpt>
<trkpt lat="46.083170380443335" lon="7.287232987582684"><ele></ele><time>2013-8-1T17:56:7Z</time></trkpt>
<trkpt lat="46.083185970783234" lon="7.287220414727926"><ele></ele><time>2013-8-1T17:56:10Z</time></trkpt>
<trkpt lat="46.08319812454283" lon="7.287196023389697"><ele></ele><time>2013-8-1T17:56:13Z</time></trkpt>
<trkpt lat="46.0832101944834" lon="7.287179930135608"><ele></ele><time>2013-8-1T17:56:16Z</time></trkpt>
<trkpt lat="46.08327532187104" lon="7.2870860528200865"><ele></ele><time>2013-8-1T17:56:19Z</time></trkpt>
<trkpt lat="46.083301305770874" lon="7.287048082798719"><ele></ele><time>2013-8-1T17:56:22Z</time></trkpt>
<trkpt lat="46.08330616727471" lon="7.28702905587852"><ele></ele><time>2013-8-1T17:56:25Z</time></trkpt>
<trkpt lat="46.083318488672376" lon="7.287001060321927"><ele></ele><time>2013-8-1T17:56:28Z</time></trkpt>
<trkpt lat="46.08333332464099" lon="7.286981530487537"><ele></ele><time>2013-8-1T17:56:31Z</time></trkpt>
<trkpt lat="46.083341371268034" lon="7.286964263767004"><ele></ele><time>2013-8-1T17:56:34Z</time></trkpt>
<trkpt lat="46.08339929021895" lon="7.2868309915065765"><ele></ele><time>2013-8-1T17:56:37Z</time></trkpt>
<trkpt lat="46.08340306207538" lon="7.286802409216762"><ele></ele><time>2013-8-1T17:56:40Z</time></trkpt>
<trkpt lat="46.08341362327337" lon="7.286779610440135"><ele></ele><time>2013-8-1T17:56:43Z</time></trkpt>
<trkpt lat="46.08342275954783" lon="7.28676469065249"><ele></ele><time>2013-8-1T17:56:46Z</time></trkpt>
<trkpt lat="46.083430889993906" lon="7.286750106140971"><ele></ele><time>2013-8-1T17:56:49Z</time></trkpt>
<trkpt lat="46.083437176421285" lon="7.286731833592057"><ele></ele><time>2013-8-1T17:56:52Z</time></trkpt>
<trkpt lat="46.08345754444599" lon="7.286681877449155"><ele></ele><time>2013-8-1T17:56:55Z</time></trkpt>
<trkpt lat="46.08347992412746" lon="7.286648768931627"><ele></ele><time>2013-8-1T17:56:58Z</time></trkpt>
<trkpt lat="46.08351697213948" lon="7.286600153893232"><ele></ele><time>2013-8-1T17:57:1Z</time></trkpt>
<trkpt lat="46.083528036251664" lon="7.286583138629794"><ele></ele><time>2013-8-1T17:57:4Z</time></trkpt>
<trkpt lat="46.083538848906755" lon="7.286568554118276"><ele></ele><time>2013-8-1T17:57:7Z</time></trkpt>
<trkpt lat="46.08354119583964" lon="7.286550449207425"><ele></ele><time>2013-8-1T17:57:10Z</time></trkpt>
<trkpt lat="46.08354588970542" lon="7.286532511934638"><ele></ele><time>2013-8-1T17:57:13Z</time></trkpt>
<trkpt lat="46.083590146154165" lon="7.2864531353116035"><ele></ele><time>2013-8-1T17:57:16Z</time></trkpt>
<trkpt lat="46.08360204845667" lon="7.286437712609768"><ele></ele><time>2013-8-1T17:57:19Z</time></trkpt>
<trkpt lat="46.0836158785969" lon="7.2864192724227905"><ele></ele><time>2013-8-1T17:57:22Z</time></trkpt>
<trkpt lat="46.083626775071025" lon="7.2863986529409885"><ele></ele><time>2013-8-1T17:57:25Z</time></trkpt>
<trkpt lat="46.083636078983545" lon="7.286386918276548"><ele></ele><time>2013-8-1T17:57:28Z</time></trkpt>
<trkpt lat="46.08364714309573" lon="7.286367975175381"><ele></ele><time>2013-8-1T17:57:31Z</time></trkpt>
<trkpt lat="46.08365284278989" lon="7.286350876092911"><ele></ele><time>2013-8-1T17:57:34Z</time></trkpt>
<trkpt lat="46.08366273343563" lon="7.286314582452178"><ele></ele><time>2013-8-1T17:57:37Z</time></trkpt>
<trkpt lat="46.08368461020291" lon="7.28626144118607"><ele></ele><time>2013-8-1T17:57:40Z</time></trkpt>
<trkpt lat="46.08369399793446" lon="7.286242749541998"><ele></ele><time>2013-8-1T17:57:43Z</time></trkpt>
<trkpt lat="46.08370774425566" lon="7.286222297698259"><ele></ele><time>2013-8-1T17:57:46Z</time></trkpt>
<trkpt lat="46.08371755108237" lon="7.286202013492584"><ele></ele><time>2013-8-1T17:57:49Z</time></trkpt>
<trkpt lat="46.083724927157164" lon="7.2861789632588625"><ele></ele><time>2013-8-1T17:57:52Z</time></trkpt>
<trkpt lat="46.08373557217419" lon="7.28612070903182"><ele></ele><time>2013-8-1T17:57:55Z</time></trkpt>
<trkpt lat="46.083736661821604" lon="7.2860608622431755"><ele></ele><time>2013-8-1T17:57:58Z</time></trkpt>
<trkpt lat="46.08374001458287" lon="7.286043763160706"><ele></ele><time>2013-8-1T17:58:1Z</time></trkpt>
<trkpt lat="46.0837387572974" lon="7.286021215841174"><ele></ele><time>2013-8-1T17:58:4Z</time></trkpt>
<trkpt lat="46.083742612972856" lon="7.285997411236167"><ele></ele><time>2013-8-1T17:58:7Z</time></trkpt>
<trkpt lat="46.083745546638966" lon="7.285978049039841"><ele></ele><time>2013-8-1T17:58:10Z</time></trkpt>
<trkpt lat="46.083739595487714" lon="7.285953741520643"><ele></ele><time>2013-8-1T17:58:13Z</time></trkpt>
<trkpt lat="46.08373951166868" lon="7.285926835611463"><ele></ele><time>2013-8-1T17:58:16Z</time></trkpt>
<trkpt lat="46.083759712055326" lon="7.285835472866893"><ele></ele><time>2013-8-1T17:58:19Z</time></trkpt>
<trkpt lat="46.083765076473355" lon="7.2858149372041225"><ele></ele><time>2013-8-1T17:58:22Z</time></trkpt>
<trkpt lat="46.08377513475716" lon="7.28579381480813"><ele></ele><time>2013-8-1T17:58:25Z</time></trkpt>
<trkpt lat="46.08378469012678" lon="7.2857725247740746"><ele></ele><time>2013-8-1T17:58:28Z</time></trkpt>
<trkpt lat="46.08379625715315" lon="7.285754755139351"><ele></ele><time>2013-8-1T17:58:31Z</time></trkpt>
<trkpt lat="46.083807069808245" lon="7.2857332136482"><ele></ele><time>2013-8-1T17:58:34Z</time></trkpt>
<trkpt lat="46.08382727019489" lon="7.28569314815104"><ele></ele><time>2013-8-1T17:58:37Z</time></trkpt>
<trkpt lat="46.083865659311414" lon="7.285591308027506"><ele></ele><time>2013-8-1T17:58:40Z</time></trkpt>
<trkpt lat="46.08387270011008" lon="7.285565156489611"><ele></ele><time>2013-8-1T17:58:43Z</time></trkpt>
<trkpt lat="46.08388007618487" lon="7.285546381026506"><ele></ele><time>2013-8-1T17:58:46Z</time></trkpt>
<trkpt lat="46.08389432542026" lon="7.285527354106307"><ele></ele><time>2013-8-1T17:58:49Z</time></trkpt>
<trkpt lat="46.08390538953245" lon="7.285511260852218"><ele></ele><time>2013-8-1T17:58:52Z</time></trkpt>
<trkpt lat="46.083949143067" lon="7.285443367436528"><ele></ele><time>2013-8-1T17:58:55Z</time></trkpt>
<trkpt lat="46.0839716065675" lon="7.285416126251221"><ele></ele><time>2013-8-1T17:58:58Z</time></trkpt>
<trkpt lat="46.08398828655481" lon="7.285401960834861"><ele></ele><time>2013-8-1T17:59:1Z</time></trkpt>
<trkpt lat="46.08400915749371" lon="7.285393998026848"><ele></ele><time>2013-8-1T17:59:4Z</time></trkpt>
<trkpt lat="46.084026927128434" lon="7.285381341353059"><ele></ele><time>2013-8-1T17:59:7Z</time></trkpt>
<trkpt lat="46.084040170535445" lon="7.285371031612158"><ele></ele><time>2013-8-1T17:59:10Z</time></trkpt>
<trkpt lat="46.08405592851341" lon="7.285362482070923"><ele></ele><time>2013-8-1T17:59:13Z</time></trkpt>
<trkpt lat="46.08410345390439" lon="7.285309424623847"><ele></ele><time>2013-8-1T17:59:16Z</time></trkpt>
<trkpt lat="46.08411418274045" lon="7.285296767950058"><ele></ele><time>2013-8-1T17:59:19Z</time></trkpt>
<trkpt lat="46.084130108356476" lon="7.285289308056235"><ele></ele><time>2013-8-1T17:59:22Z</time></trkpt>
<trkpt lat="46.08414871618152" lon="7.28527489118278"><ele></ele><time>2013-8-1T17:59:25Z</time></trkpt>
<trkpt lat="46.08416547998786" lon="7.285260474309325"><ele></ele><time>2013-8-1T17:59:28Z</time></trkpt>
<trkpt lat="46.084235133603215" lon="7.285177074372768"><ele></ele><time>2013-8-1T17:59:31Z</time></trkpt>
<trkpt lat="46.08426111750305" lon="7.28514245711267"><ele></ele><time>2013-8-1T17:59:34Z</time></trkpt>
<trkpt lat="46.0842739418149" lon="7.285124603658915"><ele></ele><time>2013-8-1T17:59:37Z</time></trkpt>
<trkpt lat="46.084281988441944" lon="7.2851193230599165"><ele></ele><time>2013-8-1T17:59:40Z</time></trkpt>
<trkpt lat="46.08429539948702" lon="7.28510775603354"><ele></ele><time>2013-8-1T17:59:43Z</time></trkpt>
<trkpt lat="46.08430914580822" lon="7.285095853731036"><ele></ele><time>2013-8-1T17:59:46Z</time></trkpt>
<trkpt lat="46.084401765838265" lon="7.285036090761423"><ele></ele><time>2013-8-1T17:59:49Z</time></trkpt>
<trkpt lat="46.08440017327666" lon="7.285023937001824"><ele></ele><time>2013-8-1T17:59:52Z</time></trkpt>
<trkpt lat="46.08439992181957" lon="7.285014213994145"><ele></ele><time>2013-8-1T17:59:55Z</time></trkpt>
<trkpt lat="46.08444258570671" lon="7.285020584240556"><ele></ele><time>2013-8-1T17:59:58Z</time></trkpt>
<trkpt lat="46.0844742693007" lon="7.285018991678953"><ele></ele><time>2013-8-1T18:0:1Z</time></trkpt>
<trkpt lat="46.0845104791224" lon="7.285017063841224"><ele></ele><time>2013-8-1T18:0:4Z</time></trkpt>
<trkpt lat="46.08459438197315" lon="7.284856885671616"><ele></ele><time>2013-8-1T18:0:7Z</time></trkpt>
<trkpt lat="46.08463168144226" lon="7.284745657816529"><ele></ele><time>2013-8-1T18:0:10Z</time></trkpt>
<trkpt lat="46.08469672501087" lon="7.284608781337738"><ele></ele><time>2013-8-1T18:0:13Z</time></trkpt>
<trkpt lat="46.08486754819751" lon="7.2843194380402565"><ele></ele><time>2013-8-1T18:0:16Z</time></trkpt>
<trkpt lat="46.08496234752238" lon="7.284148950129747"><ele></ele><time>2013-8-1T18:0:19Z</time></trkpt>
<trkpt lat="46.08500844798982" lon="7.284074770286679"><ele></ele><time>2013-8-1T18:0:22Z</time></trkpt>
<trkpt lat="46.08505002222955" lon="7.283991286531091"><ele></ele><time>2013-8-1T18:0:25Z</time></trkpt>
<trkpt lat="46.08508363366127" lon="7.283894894644618"><ele></ele><time>2013-8-1T18:0:28Z</time></trkpt>
<trkpt lat="46.08509377576411" lon="7.28379774838686"><ele></ele><time>2013-8-1T18:0:31Z</time></trkpt>
<trkpt lat="46.08510450460017" lon="7.283693728968501"><ele></ele><time>2013-8-1T18:0:34Z</time></trkpt>
<trkpt lat="46.08509335666895" lon="7.283588536083698"><ele></ele><time>2013-8-1T18:0:37Z</time></trkpt>
<trkpt lat="46.08507692813873" lon="7.283487031236291"><ele></ele><time>2013-8-1T18:0:40Z</time></trkpt>
<trkpt lat="46.08504926785827" lon="7.283396506682038"><ele></ele><time>2013-8-1T18:0:43Z</time></trkpt>
<trkpt lat="46.08505127951503" lon="7.283300198614597"><ele></ele><time>2013-8-1T18:0:46Z</time></trkpt>
<trkpt lat="46.08504122123122" lon="7.283193580806255"><ele></ele><time>2013-8-1T18:0:49Z</time></trkpt>
<trkpt lat="46.08503493480384" lon="7.283080844208598"><ele></ele><time>2013-8-1T18:0:52Z</time></trkpt>
<trkpt lat="46.08502973802388" lon="7.282964251935482"><ele></ele><time>2013-8-1T18:0:55Z</time></trkpt>
<trkpt lat="46.08502982184291" lon="7.282850844785571"><ele></ele><time>2013-8-1T18:0:58Z</time></trkpt>
<trkpt lat="46.08502906747162" lon="7.282768366858363"><ele></ele><time>2013-8-1T18:1:1Z</time></trkpt>
<trkpt lat="46.08501917682588" lon="7.28270030580461"><ele></ele><time>2013-8-1T18:1:4Z</time></trkpt>
<trkpt lat="46.08501079492271" lon="7.282617995515466"><ele></ele><time>2013-8-1T18:1:7Z</time></trkpt>
<trkpt lat="46.08499998226762" lon="7.282547755166888"><ele></ele><time>2013-8-1T18:1:10Z</time></trkpt>
<trkpt lat="46.08497072942555" lon="7.282486064359546"><ele></ele><time>2013-8-1T18:1:13Z</time></trkpt>
<trkpt lat="46.084932843223214" lon="7.28243887424469"><ele></ele><time>2013-8-1T18:1:16Z</time></trkpt>
<trkpt lat="46.08489101752639" lon="7.282385649159551"><ele></ele><time>2013-8-1T18:1:19Z</time></trkpt>
<trkpt lat="46.08485438860953" lon="7.282333765178919"><ele></ele><time>2013-8-1T18:1:22Z</time></trkpt>
<trkpt lat="46.08469923958182" lon="7.282092534005642"><ele></ele><time>2013-8-1T18:1:25Z</time></trkpt>
<trkpt lat="46.084636794403195" lon="7.281979713588953"><ele></ele><time>2013-8-1T18:1:28Z</time></trkpt>
<trkpt lat="46.08460024930537" lon="7.281945683062077"><ele></ele><time>2013-8-1T18:1:31Z</time></trkpt>
<trkpt lat="46.08456864953041" lon="7.281918860971928"><ele></ele><time>2013-8-1T18:1:34Z</time></trkpt>
<trkpt lat="46.084549371153116" lon="7.281901175156236"><ele></ele><time>2013-8-1T18:1:37Z</time></trkpt>
<trkpt lat="46.0845382232219" lon="7.281872928142548"><ele></ele><time>2013-8-1T18:1:40Z</time></trkpt>
<trkpt lat="46.08454920351505" lon="7.281848704442382"><ele></ele><time>2013-8-1T18:1:43Z</time></trkpt>
<trkpt lat="46.08457040973008" lon="7.281824564561248"><ele></ele><time>2013-8-1T18:1:46Z</time></trkpt>
<trkpt lat="46.08462321572006" lon="7.281776117160916"><ele></ele><time>2013-8-1T18:1:49Z</time></trkpt>
<trkpt lat="46.08464132063091" lon="7.281759520992637"><ele></ele><time>2013-8-1T18:1:52Z</time></trkpt>
<trkpt lat="46.084651462733746" lon="7.281743930652738"><ele></ele><time>2013-8-1T18:1:55Z</time></trkpt>
<trkpt lat="46.08465037308633" lon="7.281749965623021"><ele></ele><time>2013-8-1T18:1:58Z</time></trkpt>
<trkpt lat="46.084649534896016" lon="7.281755413860083"><ele></ele><time>2013-8-1T18:2:1Z</time></trkpt>
<trkpt lat="46.084649534896016" lon="7.281755413860083"><ele></ele><time>2013-8-1T18:2:4Z</time></trkpt>
<trkpt lat="46.084649534896016" lon="7.281755413860083"><ele></ele><time>2013-8-1T18:2:7Z</time></trkpt>
<trkpt lat="46.084649534896016" lon="7.281755413860083"><ele></ele><time>2013-8-1T18:2:10Z</time></trkpt>
<trkpt lat="46.084649534896016" lon="7.281755413860083"><ele></ele><time>2013-8-1T18:2:13Z</time></trkpt>
<trkpt lat="46.084649534896016" lon="7.281755413860083"><ele></ele><time>2013-8-1T18:2:16Z</time></trkpt>
<trkpt lat="46.08468750491738" lon="7.2816662304103374"><ele></ele><time>2013-8-1T18:2:19Z</time></trkpt>
<trkpt lat="46.08479387126863" lon="7.28145525790751"><ele></ele><time>2013-8-1T18:2:22Z</time></trkpt>
<trkpt lat="46.08483552932739" lon="7.281402451917529"><ele></ele><time>2013-8-1T18:2:25Z</time></trkpt>
<trkpt lat="46.08488037250936" lon="7.281342688947916"><ele></ele><time>2013-8-1T18:2:28Z</time></trkpt>
<trkpt lat="46.08493351377547" lon="7.2812895476818085"><ele></ele><time>2013-8-1T18:2:31Z</time></trkpt>
<trkpt lat="46.08498975634575" lon="7.281246380880475"><ele></ele><time>2013-8-1T18:2:34Z</time></trkpt>
<trkpt lat="46.08504683710635" lon="7.281205728650093"><ele></ele><time>2013-8-1T18:2:37Z</time></trkpt>
<trkpt lat="46.08508950099349" lon="7.281151246279478"><ele></ele><time>2013-8-1T18:2:40Z</time></trkpt>
<trkpt lat="46.08512068167329" lon="7.28109416551888"><ele></ele><time>2013-8-1T18:2:43Z</time></trkpt>
<trkpt lat="46.085150856524706" lon="7.281038509681821"><ele></ele><time>2013-8-1T18:2:46Z</time></trkpt>
<trkpt lat="46.08517399057746" lon="7.280971622094512"><ele></ele><time>2013-8-1T18:2:49Z</time></trkpt>
<trkpt lat="46.085187485441566" lon="7.280910266563296"><ele></ele><time>2013-8-1T18:2:52Z</time></trkpt>
<trkpt lat="46.085193352773786" lon="7.280839942395687"><ele></ele><time>2013-8-1T18:2:55Z</time></trkpt>
<trkpt lat="46.08519067056477" lon="7.280771965160966"><ele></ele><time>2013-8-1T18:2:58Z</time></trkpt>
<trkpt lat="46.0851841326803" lon="7.2806887328624725"><ele></ele><time>2013-8-1T18:3:1Z</time></trkpt>
<trkpt lat="46.08518170192838" lon="7.280602399259806"><ele></ele><time>2013-8-1T18:3:4Z</time></trkpt>
<trkpt lat="46.08517692424357" lon="7.280416404828429"><ele></ele><time>2013-8-1T18:3:7Z</time></trkpt>
<trkpt lat="46.08519159257412" lon="7.2803091164678335"><ele></ele><time>2013-8-1T18:3:10Z</time></trkpt>
<trkpt lat="46.08522151596844" lon="7.280208952724934"><ele></ele><time>2013-8-1T18:3:13Z</time></trkpt>
<trkpt lat="46.08526040799916" lon="7.280106609687209"><ele></ele><time>2013-8-1T18:3:16Z</time></trkpt>
<trkpt lat="46.085299635306" lon="7.280008792877197"><ele></ele><time>2013-8-1T18:3:19Z</time></trkpt>
<trkpt lat="46.08533140271902" lon="7.279910305514932"><ele></ele><time>2013-8-1T18:3:22Z</time></trkpt>
<trkpt lat="46.085338024422526" lon="7.279839562252164"><ele></ele><time>2013-8-1T18:3:25Z</time></trkpt>
<trkpt lat="46.08534255065024" lon="7.279780050739646"><ele></ele><time>2013-8-1T18:3:28Z</time></trkpt>
<trkpt lat="46.08534439466894" lon="7.2797006741166115"><ele></ele><time>2013-8-1T18:3:31Z</time></trkpt>
<trkpt lat="46.08533886261284" lon="7.279610065743327"><ele></ele><time>2013-8-1T18:3:34Z</time></trkpt>
<trkpt lat="46.08533182181418" lon="7.279523061588407"><ele></ele><time>2013-8-1T18:3:37Z</time></trkpt>
<trkpt lat="46.085305167362094" lon="7.279428010806441"><ele></ele><time>2013-8-1T18:3:40Z</time></trkpt>
<trkpt lat="46.08528094366193" lon="7.279335558414459"><ele></ele><time>2013-8-1T18:3:43Z</time></trkpt>
<trkpt lat="46.085270550101995" lon="7.279232712462544"><ele></ele><time>2013-8-1T18:3:46Z</time></trkpt>
<trkpt lat="46.08526116237044" lon="7.279148139059544"><ele></ele><time>2013-8-1T18:3:49Z</time></trkpt>
<trkpt lat="46.08525604940951" lon="7.279069852083921"><ele></ele><time>2013-8-1T18:3:52Z</time></trkpt>
<trkpt lat="46.08525462448597" lon="7.278991313651204"><ele></ele><time>2013-8-1T18:3:55Z</time></trkpt>
<trkpt lat="46.08523509465158" lon="7.27891487069428"><ele></ele><time>2013-8-1T18:3:58Z</time></trkpt>
<trkpt lat="46.08522738330066" lon="7.278843456879258"><ele></ele><time>2013-8-1T18:4:1Z</time></trkpt>
<trkpt lat="46.0852134693414" lon="7.278776066377759"><ele></ele><time>2013-8-1T18:4:4Z</time></trkpt>
<trkpt lat="46.085195280611515" lon="7.278707334771752"><ele></ele><time>2013-8-1T18:4:7Z</time></trkpt>
<trkpt lat="46.085178684443235" lon="7.278645811602473"><ele></ele><time>2013-8-1T18:4:10Z</time></trkpt>
<trkpt lat="46.08516083098948" lon="7.278589736670256"><ele></ele><time>2013-8-1T18:4:13Z</time></trkpt>
<trkpt lat="46.085143061354756" lon="7.278530141338706"><ele></ele><time>2013-8-1T18:4:16Z</time></trkpt>
<trkpt lat="46.085131326690316" lon="7.278465181589127"><ele></ele><time>2013-8-1T18:4:19Z</time></trkpt>
<trkpt lat="46.08512227423489" lon="7.278392929583788"><ele></ele><time>2013-8-1T18:4:22Z</time></trkpt>
<trkpt lat="46.085113221779466" lon="7.278318414464593"><ele></ele><time>2013-8-1T18:4:25Z</time></trkpt>
<trkpt lat="46.08510509133339" lon="7.27824985049665"><ele></ele><time>2013-8-1T18:4:28Z</time></trkpt>
<trkpt lat="46.08509796671569" lon="7.278172820806503"><ele></ele><time>2013-8-1T18:4:31Z</time></trkpt>
<trkpt lat="46.08508304692805" lon="7.278086571022868"><ele></ele><time>2013-8-1T18:4:34Z</time></trkpt>
<trkpt lat="46.08506854623556" lon="7.278005350381136"><ele></ele><time>2013-8-1T18:4:37Z</time></trkpt>
<trkpt lat="46.085054548457265" lon="7.277927817776799"><ele></ele><time>2013-8-1T18:4:40Z</time></trkpt>
<trkpt lat="46.08503527007997" lon="7.27784919552505"><ele></ele><time>2013-8-1T18:4:43Z</time></trkpt>
<trkpt lat="46.085021356120706" lon="7.277774261310697"><ele></ele><time>2013-8-1T18:4:46Z</time></trkpt>
<trkpt lat="46.08500450849533" lon="7.2777121514081955"><ele></ele><time>2013-8-1T18:4:49Z</time></trkpt>
<trkpt lat="46.0849869903177" lon="7.277652220800519"><ele></ele><time>2013-8-1T18:4:52Z</time></trkpt>
<trkpt lat="46.08497676439583" lon="7.277597654610872"><ele></ele><time>2013-8-1T18:4:55Z</time></trkpt>
<trkpt lat="46.08497626148164" lon="7.27753646671772"><ele></ele><time>2013-8-1T18:4:58Z</time></trkpt>
<trkpt lat="46.08496553264558" lon="7.277468740940094"><ele></ele><time>2013-8-1T18:5:1Z</time></trkpt>
<trkpt lat="46.084950780496" lon="7.277389029040933"><ele></ele><time>2013-8-1T18:5:4Z</time></trkpt>
<trkpt lat="46.084945164620876" lon="7.277283584699035"><ele></ele><time>2013-8-1T18:5:7Z</time></trkpt>
<trkpt lat="46.084947595372796" lon="7.277180152013898"><ele></ele><time>2013-8-1T18:5:10Z</time></trkpt>
<trkpt lat="46.08495161868632" lon="7.277081161737442"><ele></ele><time>2013-8-1T18:5:13Z</time></trkpt>
<trkpt lat="46.08496000058949" lon="7.276980662718415"><ele></ele><time>2013-8-1T18:5:16Z</time></trkpt>
<trkpt lat="46.084974920377135" lon="7.276873206719756"><ele></ele><time>2013-8-1T18:5:19Z</time></trkpt>
<trkpt lat="46.084988079965115" lon="7.2767464723438025"><ele></ele><time>2013-8-1T18:5:22Z</time></trkpt>
<trkpt lat="46.08499528840184" lon="7.276620073243976"><ele></ele><time>2013-8-1T18:5:25Z</time></trkpt>
<trkpt lat="46.08498967252672" lon="7.276504905894399"><ele></ele><time>2013-8-1T18:5:28Z</time></trkpt>
<trkpt lat="46.084972908720374" lon="7.276398707181215"><ele></ele><time>2013-8-1T18:5:31Z</time></trkpt>
<trkpt lat="46.08494910411537" lon="7.276305919513106"><ele></ele><time>2013-8-1T18:5:34Z</time></trkpt>
<trkpt lat="46.08492379076779" lon="7.27624012157321"><ele></ele><time>2013-8-1T18:5:37Z</time></trkpt>
<trkpt lat="46.08489747159183" lon="7.276179855689406"><ele></ele><time>2013-8-1T18:5:40Z</time></trkpt>
<trkpt lat="46.08487735502422" lon="7.276099808514118"><ele></ele><time>2013-8-1T18:5:43Z</time></trkpt>
<trkpt lat="46.084855226799846" lon="7.276034764945507"><ele></ele><time>2013-8-1T18:5:46Z</time></trkpt>
<trkpt lat="46.084824884310365" lon="7.27599092759192"><ele></ele><time>2013-8-1T18:5:49Z</time></trkpt>
<trkpt lat="46.08480133116245" lon="7.275922615081072"><ele></ele><time>2013-8-1T18:5:52Z</time></trkpt>
<trkpt lat="46.084779957309365" lon="7.275855224579573"><ele></ele><time>2013-8-1T18:5:55Z</time></trkpt>
<trkpt lat="46.08475514687598" lon="7.275791019201279"><ele></ele><time>2013-8-1T18:5:58Z</time></trkpt>
<trkpt lat="46.084734443575144" lon="7.275733770802617"><ele></ele><time>2013-8-1T18:6:1Z</time></trkpt>
<trkpt lat="46.08472187072039" lon="7.275666715577245"><ele></ele><time>2013-8-1T18:6:4Z</time></trkpt>
<trkpt lat="46.08471273444593" lon="7.275606282055378"><ele></ele><time>2013-8-1T18:6:7Z</time></trkpt>
<trkpt lat="46.08471860177815" lon="7.275537298992276"><ele></ele><time>2013-8-1T18:6:10Z</time></trkpt>
<trkpt lat="46.08472195453942" lon="7.275467477738857"><ele></ele><time>2013-8-1T18:6:13Z</time></trkpt>
<trkpt lat="46.08472505584359" lon="7.2753949742764235"><ele></ele><time>2013-8-1T18:6:16Z</time></trkpt>
<trkpt lat="46.08472597785294" lon="7.275324901565909"><ele></ele><time>2013-8-1T18:6:19Z</time></trkpt>
<trkpt lat="46.08473218046129" lon="7.275274274870753"><ele></ele><time>2013-8-1T18:6:22Z</time></trkpt>
<trkpt lat="46.08473134227097" lon="7.275218619033694"><ele></ele><time>2013-8-1T18:6:25Z</time></trkpt>
<trkpt lat="46.08471524901688" lon="7.275149803608656"><ele></ele><time>2013-8-1T18:6:28Z</time></trkpt>
<trkpt lat="46.084704184904695" lon="7.275077551603317"><ele></ele><time>2013-8-1T18:6:31Z</time></trkpt>
<trkpt lat="46.08468574471772" lon="7.275013849139214"><ele></ele><time>2013-8-1T18:6:34Z</time></trkpt>
<trkpt lat="46.084656324237585" lon="7.274949140846729"><ele></ele><time>2013-8-1T18:6:37Z</time></trkpt>
<trkpt lat="46.0846331063658" lon="7.274887450039387"><ele></ele><time>2013-8-1T18:6:40Z</time></trkpt>
<trkpt lat="46.084568398073316" lon="7.274755015969276"><ele></ele><time>2013-8-1T18:6:43Z</time></trkpt>
<trkpt lat="46.084529254585505" lon="7.274686200544238"><ele></ele><time>2013-8-1T18:6:46Z</time></trkpt>
<trkpt lat="46.08448608778417" lon="7.2746186424046755"><ele></ele><time>2013-8-1T18:6:49Z</time></trkpt>
<trkpt lat="46.08444292098284" lon="7.274557622149587"><ele></ele><time>2013-8-1T18:6:52Z</time></trkpt>
<trkpt lat="46.084394892677665" lon="7.274498613551259"><ele></ele><time>2013-8-1T18:6:55Z</time></trkpt>
<trkpt lat="46.08430679887533" lon="7.274368442595005"><ele></ele><time>2013-8-1T18:6:58Z</time></trkpt>
<trkpt lat="46.0842633806169" lon="7.274299459531903"><ele></ele><time>2013-8-1T18:7:1Z</time></trkpt>
<trkpt lat="46.08421811833978" lon="7.27423969656229"><ele></ele><time>2013-8-1T18:7:4Z</time></trkpt>
<trkpt lat="46.084163719788194" lon="7.274189991876483"><ele></ele><time>2013-8-1T18:7:7Z</time></trkpt>
<trkpt lat="46.084109488874674" lon="7.274135258048773"><ele></ele><time>2013-8-1T18:7:10Z</time></trkpt>
<trkpt lat="46.08405810780823" lon="7.274068873375654"><ele></ele><time>2013-8-1T18:7:13Z</time></trkpt>
<trkpt lat="46.08401544392109" lon="7.273987401276827"><ele></ele><time>2013-8-1T18:7:16Z</time></trkpt>
<trkpt lat="46.08396892435849" lon="7.273771734908223"><ele></ele><time>2013-8-1T18:7:19Z</time></trkpt>
<trkpt lat="46.08397118747234" lon="7.273658327758312"><ele></ele><time>2013-8-1T18:7:22Z</time></trkpt>
<trkpt lat="46.08397747389972" lon="7.273544417694211"><ele></ele><time>2013-8-1T18:7:25Z</time></trkpt>
<trkpt lat="46.083995243534446" lon="7.27343637496233"><ele></ele><time>2013-8-1T18:7:28Z</time></trkpt>
<trkpt lat="46.08401007950306" lon="7.273322129622102"><ele></ele><time>2013-8-1T18:7:31Z</time></trkpt>
<trkpt lat="46.08402223326266" lon="7.273204950615764"><ele></ele><time>2013-8-1T18:7:34Z</time></trkpt>
<trkpt lat="46.08405064791441" lon="7.27308408357203"><ele></ele><time>2013-8-1T18:7:37Z</time></trkpt>
<trkpt lat="46.084087109193206" lon="7.272986434400082"><ele></ele><time>2013-8-1T18:7:40Z</time></trkpt>
<trkpt lat="46.08412776142359" lon="7.27287981659174"><ele></ele><time>2013-8-1T18:7:43Z</time></trkpt>
<trkpt lat="46.08416682109237" lon="7.2727676667273045"><ele></ele><time>2013-8-1T18:7:46Z</time></trkpt>
<trkpt lat="46.08420588076115" lon="7.272657863795757"><ele></ele><time>2013-8-1T18:7:49Z</time></trkpt>
<trkpt lat="46.084222896024585" lon="7.272559544071555"><ele></ele><time>2013-8-1T18:7:52Z</time></trkpt>
<trkpt lat="46.08422800898552" lon="7.272449741140008"><ele></ele><time>2013-8-1T18:7:55Z</time></trkpt>
<trkpt lat="46.08420646749437" lon="7.272332897409797"><ele></ele><time>2013-8-1T18:7:58Z</time></trkpt>
<trkpt lat="46.0841806512326" lon="7.272236756980419"><ele></ele><time>2013-8-1T18:8:1Z</time></trkpt>
<trkpt lat="46.08414201065898" lon="7.272130725905299"><ele></ele><time>2013-8-1T18:8:4Z</time></trkpt>
<trkpt lat="46.08410772867501" lon="7.272022683173418"><ele></ele><time>2013-8-1T18:8:7Z</time></trkpt>
<trkpt lat="46.084083588793874" lon="7.2718944400548935"><ele></ele><time>2013-8-1T18:8:10Z</time></trkpt>
<trkpt lat="46.08406389132142" lon="7.271770806983113"><ele></ele><time>2013-8-1T18:8:13Z</time></trkpt>
<trkpt lat="46.08401896432042" lon="7.271640300750732"><ele></ele><time>2013-8-1T18:8:16Z</time></trkpt>
<trkpt lat="46.083978647366166" lon="7.271532090380788"><ele></ele><time>2013-8-1T18:8:19Z</time></trkpt>
<trkpt lat="46.08393665403128" lon="7.271449360996485"><ele></ele><time>2013-8-1T18:8:22Z</time></trkpt>
<trkpt lat="46.08388745225966" lon="7.271362775936723"><ele></ele><time>2013-8-1T18:8:25Z</time></trkpt>
<trkpt lat="46.08382601290941" lon="7.271310305222869"><ele></ele><time>2013-8-1T18:8:28Z</time></trkpt>
<trkpt lat="46.08377069234848" lon="7.27125808596611"><ele></ele><time>2013-8-1T18:8:31Z</time></trkpt>
<trkpt lat="46.083712773397565" lon="7.271197400987148"><ele></ele><time>2013-8-1T18:8:34Z</time></trkpt>
<trkpt lat="46.08366256579757" lon="7.2711634542793036"><ele></ele><time>2013-8-1T18:8:37Z</time></trkpt>
<trkpt lat="46.08360975980759" lon="7.271120874211192"><ele></ele><time>2013-8-1T18:8:40Z</time></trkpt>
<trkpt lat="46.083545638248324" lon="7.271079383790493"><ele></ele><time>2013-8-1T18:8:43Z</time></trkpt>
<trkpt lat="46.08349182642996" lon="7.271022805944085"><ele></ele><time>2013-8-1T18:8:46Z</time></trkpt>
<trkpt lat="46.08344656415284" lon="7.270934712141752"><ele></ele><time>2013-8-1T18:8:49Z</time></trkpt>
<trkpt lat="46.08341680839658" lon="7.27084125392139"><ele></ele><time>2013-8-1T18:8:52Z</time></trkpt>
<trkpt lat="46.08338797464967" lon="7.2707664873450994"><ele></ele><time>2013-8-1T18:8:55Z</time></trkpt>
<trkpt lat="46.08335327357054" lon="7.270700018852949"><ele></ele><time>2013-8-1T18:8:58Z</time></trkpt>
<trkpt lat="46.08332360163331" lon="7.27062433026731"><ele></ele><time>2013-8-1T18:9:1Z</time></trkpt>
<trkpt lat="46.0832913313061" lon="7.270543444901705"><ele></ele><time>2013-8-1T18:9:4Z</time></trkpt>
<trkpt lat="46.0832448117435" lon="7.270468594506383"><ele></ele><time>2013-8-1T18:9:7Z</time></trkpt>
<trkpt lat="46.08319125138223" lon="7.270394414663315"><ele></ele><time>2013-8-1T18:9:10Z</time></trkpt>
<trkpt lat="46.08313148841262" lon="7.270324090495706"><ele></ele><time>2013-8-1T18:9:13Z</time></trkpt>
<trkpt lat="46.083067785948515" lon="7.270273296162486"><ele></ele><time>2013-8-1T18:9:16Z</time></trkpt>
<trkpt lat="46.08300341293216" lon="7.270216969773173"><ele></ele><time>2013-8-1T18:9:19Z</time></trkpt>
<trkpt lat="46.08295261859894" lon="7.27014547213912"><ele></ele><time>2013-8-1T18:9:22Z</time></trkpt>
<trkpt lat="46.082891430705786" lon="7.270079758018255"><ele></ele><time>2013-8-1T18:9:25Z</time></trkpt>
<trkpt lat="46.08282211236656" lon="7.270025359466672"><ele></ele><time>2013-8-1T18:9:28Z</time></trkpt>
<trkpt lat="46.082747178152204" lon="7.269953526556492"><ele></ele><time>2013-8-1T18:9:31Z</time></trkpt>
<trkpt lat="46.08264483511448" lon="7.269884878769517"><ele></ele><time>2013-8-1T18:9:34Z</time></trkpt>
<trkpt lat="46.082549784332514" lon="7.269826456904411"><ele></ele><time>2013-8-1T18:9:37Z</time></trkpt>
<trkpt lat="46.082465294748545" lon="7.269786475226283"><ele></ele><time>2013-8-1T18:9:40Z</time></trkpt>
<trkpt lat="46.08238382264972" lon="7.269734591245651"><ele></ele><time>2013-8-1T18:9:43Z</time></trkpt>
<trkpt lat="46.08230042271316" lon="7.26970718242228"><ele></ele><time>2013-8-1T18:9:46Z</time></trkpt>
<trkpt lat="46.08221819624305" lon="7.269676001742482"><ele></ele><time>2013-8-1T18:9:49Z</time></trkpt>
<trkpt lat="46.08212976716459" lon="7.269641049206257"><ele></ele><time>2013-8-1T18:9:52Z</time></trkpt>
<trkpt lat="46.08203890733421" lon="7.269605929031968"><ele></ele><time>2013-8-1T18:9:55Z</time></trkpt>
<trkpt lat="46.08194964006543" lon="7.269575837999582"><ele></ele><time>2013-8-1T18:9:58Z</time></trkpt>
<trkpt lat="46.081857020035386" lon="7.269563181325793"><ele></ele><time>2013-8-1T18:10:1Z</time></trkpt>
<trkpt lat="46.08176155015826" lon="7.269557733088732"><ele></ele><time>2013-8-1T18:10:4Z</time></trkpt>
<trkpt lat="46.08165845274925" lon="7.269560834392905"><ele></ele><time>2013-8-1T18:10:7Z</time></trkpt>
<trkpt lat="46.08156709000468" lon="7.26954935118556"><ele></ele><time>2013-8-1T18:10:10Z</time></trkpt>
<trkpt lat="46.081469021737576" lon="7.2695118840783834"><ele></ele><time>2013-8-1T18:10:13Z</time></trkpt>
<trkpt lat="46.08139920048416" lon="7.2694809548556805"><ele></ele><time>2013-8-1T18:10:16Z</time></trkpt>
<trkpt lat="46.08134949579835" lon="7.269413061439991"><ele></ele><time>2013-8-1T18:10:19Z</time></trkpt>
<trkpt lat="46.08132619410753" lon="7.269312143325806"><ele></ele><time>2013-8-1T18:10:22Z</time></trkpt>
<trkpt lat="46.08130490407348" lon="7.269246848300099"><ele></ele><time>2013-8-1T18:10:25Z</time></trkpt>
<trkpt lat="46.08129467815161" lon="7.269158000126481"><ele></ele><time>2013-8-1T18:10:28Z</time></trkpt>
<trkpt lat="46.081279926002026" lon="7.269047861918807"><ele></ele><time>2013-8-1T18:10:31Z</time></trkpt>
<trkpt lat="46.08127078972757" lon="7.268920289352536"><ele></ele><time>2013-8-1T18:10:34Z</time></trkpt>
<trkpt lat="46.081268694251776" lon="7.268780563026667"><ele></ele><time>2013-8-1T18:10:37Z</time></trkpt>
<trkpt lat="46.0812396928668" lon="7.268637819215655"><ele></ele><time>2013-8-1T18:10:40Z</time></trkpt>
<trkpt lat="46.08119862154126" lon="7.268535727635026"><ele></ele><time>2013-8-1T18:10:43Z</time></trkpt>
<trkpt lat="46.081137182191014" lon="7.268462218344212"><ele></ele><time>2013-8-1T18:10:46Z</time></trkpt>
<trkpt lat="46.08106476254761" lon="7.268413603305817"><ele></ele><time>2013-8-1T18:10:49Z</time></trkpt>
<trkpt lat="46.08100072480738" lon="7.268398012965918"><ele></ele><time>2013-8-1T18:10:52Z</time></trkpt>
<trkpt lat="46.08092780224979" lon="7.268424080684781"><ele></ele><time>2013-8-1T18:10:55Z</time></trkpt>
<trkpt lat="46.0808461625129" lon="7.268476467579603"><ele></ele><time>2013-8-1T18:10:58Z</time></trkpt>
<trkpt lat="46.080768294632435" lon="7.268557101488113"><ele></ele><time>2013-8-1T18:11:1Z</time></trkpt>
<trkpt lat="46.080717919394374" lon="7.2686472069472075"><ele></ele><time>2013-8-1T18:11:4Z</time></trkpt>
<trkpt lat="46.08067994937301" lon="7.268726164475083"><ele></ele><time>2013-8-1T18:11:7Z</time></trkpt>
<trkpt lat="46.080638794228435" lon="7.268780060112476"><ele></ele><time>2013-8-1T18:11:10Z</time></trkpt>
<trkpt lat="46.08059613034129" lon="7.268827585503459"><ele></ele><time>2013-8-1T18:11:13Z</time></trkpt>
<trkpt lat="46.08055975288153" lon="7.268881648778915"><ele></ele><time>2013-8-1T18:11:16Z</time></trkpt>
<trkpt lat="46.08052463270724" lon="7.268928922712803"><ele></ele><time>2013-8-1T18:11:19Z</time></trkpt>
<trkpt lat="46.08049739152193" lon="7.268949458375573"><ele></ele><time>2013-8-1T18:11:22Z</time></trkpt>
<trkpt lat="46.08044064603746" lon="7.268937891349196"><ele></ele><time>2013-8-1T18:11:25Z</time></trkpt>
<trkpt lat="46.08038901351392" lon="7.268881229683757"><ele></ele><time>2013-8-1T18:11:28Z</time></trkpt>
<trkpt lat="46.08035531826317" lon="7.268805541098118"><ele></ele><time>2013-8-1T18:11:31Z</time></trkpt>
<trkpt lat="46.08031952753663" lon="7.268727840855718"><ele></ele><time>2013-8-1T18:11:34Z</time></trkpt>
<trkpt lat="46.08027149923146" lon="7.268661120906472"><ele></ele><time>2013-8-1T18:11:37Z</time></trkpt>
<trkpt lat="46.08022925443947" lon="7.268591467291117"><ele></ele><time>2013-8-1T18:11:40Z</time></trkpt>
<trkpt lat="46.08017049729824" lon="7.268523992970586"><ele></ele><time>2013-8-1T18:11:43Z</time></trkpt>
<trkpt lat="46.08012640848756" lon="7.268438246101141"><ele></ele><time>2013-8-1T18:11:46Z</time></trkpt>
<trkpt lat="46.08009229414165" lon="7.2683456260710955"><ele></ele><time>2013-8-1T18:11:49Z</time></trkpt>
<trkpt lat="46.08011928386986" lon="7.26804974488914"><ele></ele><time>2013-8-1T18:11:52Z</time></trkpt>
<trkpt lat="46.08018038794398" lon="7.267980007454753"><ele></ele><time>2013-8-1T18:11:55Z</time></trkpt>
<trkpt lat="46.08023528940976" lon="7.267901636660099"><ele></ele><time>2013-8-1T18:11:58Z</time></trkpt>
<trkpt lat="46.080291448161006" lon="7.267811698839068"><ele></ele><time>2013-8-1T18:12:1Z</time></trkpt>
<trkpt lat="46.08033268712461" lon="7.267709271982312"><ele></ele><time>2013-8-1T18:12:4Z</time></trkpt>
<trkpt lat="46.08036336489022" lon="7.2675842978060246"><ele></ele><time>2013-8-1T18:12:7Z</time></trkpt>
<trkpt lat="46.080367136746645" lon="7.2674591559916735"><ele></ele><time>2013-8-1T18:12:10Z</time></trkpt>
<trkpt lat="46.0803572461009" lon="7.267328901216388"><ele></ele><time>2013-8-1T18:12:13Z</time></trkpt>
<trkpt lat="46.08035330660641" lon="7.2671931982040405"><ele></ele><time>2013-8-1T18:12:16Z</time></trkpt>
<trkpt lat="46.080366130918264" lon="7.26705489680171"><ele></ele><time>2013-8-1T18:12:19Z</time></trkpt>
<trkpt lat="46.08037191443145" lon="7.266917768865824"><ele></ele><time>2013-8-1T18:12:22Z</time></trkpt>
<trkpt lat="46.08036017976701" lon="7.266774605959654"><ele></ele><time>2013-8-1T18:12:25Z</time></trkpt>
<trkpt lat="46.08032036572695" lon="7.2666427586227655"><ele></ele><time>2013-8-1T18:12:28Z</time></trkpt>
<trkpt lat="46.080265967175364" lon="7.266509989276528"><ele></ele><time>2013-8-1T18:12:31Z</time></trkpt>
<trkpt lat="46.080207796767354" lon="7.26639473810792"><ele></ele><time>2013-8-1T18:12:34Z</time></trkpt>
<trkpt lat="46.08014551922679" lon="7.266279738396406"><ele></ele><time>2013-8-1T18:12:37Z</time></trkpt>
<trkpt lat="46.080074021592736" lon="7.2661753837019205"><ele></ele><time>2013-8-1T18:12:40Z</time></trkpt>
<trkpt lat="46.08001425862312" lon="7.266058707609773"><ele></ele><time>2013-8-1T18:12:43Z</time></trkpt>
<trkpt lat="46.07996086589992" lon="7.265923926606774"><ele></ele><time>2013-8-1T18:12:46Z</time></trkpt>
<trkpt lat="46.07991979457438" lon="7.265783278271556"><ele></ele><time>2013-8-1T18:12:49Z</time></trkpt>
<trkpt lat="46.079885344952345" lon="7.2656323201954365"><ele></ele><time>2013-8-1T18:12:52Z</time></trkpt>
<trkpt lat="46.079866820946336" lon="7.265481278300285"><ele></ele><time>2013-8-1T18:12:55Z</time></trkpt>
<trkpt lat="46.07986690476537" lon="7.265341300517321"><ele></ele><time>2013-8-1T18:12:58Z</time></trkpt>
<trkpt lat="46.07987369410694" lon="7.265198975801468"><ele></ele><time>2013-8-1T18:13:1Z</time></trkpt>
<trkpt lat="46.079903952777386" lon="7.265078444033861"><ele></ele><time>2013-8-1T18:13:4Z</time></trkpt>
<trkpt lat="46.07994175516069" lon="7.264962270855904"><ele></ele><time>2013-8-1T18:13:7Z</time></trkpt>
<trkpt lat="46.07996572740376" lon="7.264846349135041"><ele></ele><time>2013-8-1T18:13:10Z</time></trkpt>
<trkpt lat="46.07998902909458" lon="7.264723386615515"><ele></ele><time>2013-8-1T18:13:13Z</time></trkpt>
<trkpt lat="46.079993890598416" lon="7.2646106500178576"><ele></ele><time>2013-8-1T18:13:16Z</time></trkpt>
<trkpt lat="46.07999053783715" lon="7.264505876228213"><ele></ele><time>2013-8-1T18:13:19Z</time></trkpt>
<trkpt lat="46.07998718507588" lon="7.264404706656933"><ele></ele><time>2013-8-1T18:13:22Z</time></trkpt>
<trkpt lat="46.079989364370704" lon="7.264189543202519"><ele></ele><time>2013-8-1T18:13:25Z</time></trkpt>
<trkpt lat="46.0800067987293" lon="7.264079907909036"><ele></ele><time>2013-8-1T18:13:28Z</time></trkpt>
<trkpt lat="46.08003839850426" lon="7.26397261954844"><ele></ele><time>2013-8-1T18:13:31Z</time></trkpt>
<trkpt lat="46.08010360971093" lon="7.2637498285621405"><ele></ele><time>2013-8-1T18:13:34Z</time></trkpt>
<trkpt lat="46.08013269491494" lon="7.263654610142112"><ele></ele><time>2013-8-1T18:13:37Z</time></trkpt>
<trkpt lat="46.08016303740442" lon="7.2635572124272585"><ele></ele><time>2013-8-1T18:13:40Z</time></trkpt>
<trkpt lat="46.08019262552261" lon="7.26345612667501"><ele></ele><time>2013-8-1T18:13:43Z</time></trkpt>
<trkpt lat="46.08038004487753" lon="7.2628462594002485"><ele></ele><time>2013-8-1T18:13:46Z</time></trkpt>
<trkpt lat="46.08049009926617" lon="7.262548953294754"><ele></ele><time>2013-8-1T18:13:49Z</time></trkpt>
<trkpt lat="46.08051348477602" lon="7.26243051700294"><ele></ele><time>2013-8-1T18:13:52Z</time></trkpt>
<trkpt lat="46.08055832795799" lon="7.261977391317487"><ele></ele><time>2013-8-1T18:13:55Z</time></trkpt>
<trkpt lat="46.080660754814744" lon="7.261666841804981"><ele></ele><time>2013-8-1T18:13:58Z</time></trkpt>
<trkpt lat="46.08071004040539" lon="7.26157832890749"><ele></ele><time>2013-8-1T18:14:1Z</time></trkpt>
<trkpt lat="46.08076234348118" lon="7.261489229276776"><ele></ele><time>2013-8-1T18:14:4Z</time></trkpt>
<trkpt lat="46.080813808366656" lon="7.2613966930657625"><ele></ele><time>2013-8-1T18:14:7Z</time></trkpt>
<trkpt lat="46.080862674862146" lon="7.261298540979624"><ele></ele><time>2013-8-1T18:14:10Z</time></trkpt>
<trkpt lat="46.08090491965413" lon="7.26119427010417"><ele></ele><time>2013-8-1T18:14:13Z</time></trkpt>
<trkpt lat="46.08094071038067" lon="7.261087233200669"><ele></ele><time>2013-8-1T18:14:16Z</time></trkpt>
<trkpt lat="46.081077167764306" lon="7.260631760582328"><ele></ele><time>2013-8-1T18:14:19Z</time></trkpt>
<trkpt lat="46.08108940534294" lon="7.260512067005038"><ele></ele><time>2013-8-1T18:14:22Z</time></trkpt>
<trkpt lat="46.08112963847816" lon="7.2600313648581505"><ele></ele><time>2013-8-1T18:14:25Z</time></trkpt>
<trkpt lat="46.08112687245011" lon="7.259910246357322"><ele></ele><time>2013-8-1T18:14:28Z</time></trkpt>
<trkpt lat="46.081062415614724" lon="7.25945670157671"><ele></ele><time>2013-8-1T18:14:31Z</time></trkpt>
<trkpt lat="46.081060068681836" lon="7.2593398578464985"><ele></ele><time>2013-8-1T18:14:34Z</time></trkpt>
<trkpt lat="46.081060571596026" lon="7.259219828993082"><ele></ele><time>2013-8-1T18:14:37Z</time></trkpt>
<trkpt lat="46.08107046224177" lon="7.259096782654524"><ele></ele><time>2013-8-1T18:14:40Z</time></trkpt>
<trkpt lat="46.08108311891556" lon="7.25898421369493"><ele></ele><time>2013-8-1T18:14:43Z</time></trkpt>
<trkpt lat="46.08109359629452" lon="7.258871058002114"><ele></ele><time>2013-8-1T18:14:46Z</time></trkpt>
<trkpt lat="46.081104408949614" lon="7.258759830147028"><ele></ele><time>2013-8-1T18:14:49Z</time></trkpt>
<trkpt lat="46.08113307505846" lon="7.25854299031198"><ele></ele><time>2013-8-1T18:14:52Z</time></trkpt>
<trkpt lat="46.08115503564477" lon="7.258438384160399"><ele></ele><time>2013-8-1T18:14:55Z</time></trkpt>
<trkpt lat="46.08118177391589" lon="7.258330173790455"><ele></ele><time>2013-8-1T18:14:58Z</time></trkpt>
<trkpt lat="46.08121077530086" lon="7.2582263220101595"><ele></ele><time>2013-8-1T18:15:1Z</time></trkpt>
<trkpt lat="46.08123868703842" lon="7.258123978972435"><ele></ele><time>2013-8-1T18:15:4Z</time></trkpt>
<trkpt lat="46.081272130832076" lon="7.258026832714677"><ele></ele><time>2013-8-1T18:15:7Z</time></trkpt>
<trkpt lat="46.081311609596014" lon="7.257937313988805"><ele></ele><time>2013-8-1T18:15:10Z</time></trkpt>
<trkpt lat="46.081361062824726" lon="7.2578576020896435"><ele></ele><time>2013-8-1T18:15:13Z</time></trkpt>
<trkpt lat="46.08142074197531" lon="7.257789792492986"><ele></ele><time>2013-8-1T18:15:16Z</time></trkpt>
<trkpt lat="46.08156499452889" lon="7.257691724225879"><ele></ele><time>2013-8-1T18:15:19Z</time></trkpt>
<trkpt lat="46.081712348386645" lon="7.257635649293661"><ele></ele><time>2013-8-1T18:15:22Z</time></trkpt>
<trkpt lat="46.081854589283466" lon="7.257571360096335"><ele></ele><time>2013-8-1T18:15:25Z</time></trkpt>
<trkpt lat="46.08192114159465" lon="7.257535653188825"><ele></ele><time>2013-8-1T18:15:28Z</time></trkpt>
<trkpt lat="46.08198869973421" lon="7.2574894689023495"><ele></ele><time>2013-8-1T18:15:31Z</time></trkpt>
<trkpt lat="46.08205743134022" lon="7.25744454190135"><ele></ele><time>2013-8-1T18:15:34Z</time></trkpt>
<trkpt lat="46.0821274202317" lon="7.257404560223222"><ele></ele><time>2013-8-1T18:15:37Z</time></trkpt>
<trkpt lat="46.082203444093466" lon="7.257376313209534"><ele></ele><time>2013-8-1T18:15:40Z</time></trkpt>
<trkpt lat="46.082280641421676" lon="7.257363824173808"><ele></ele><time>2013-8-1T18:15:43Z</time></trkpt>
<trkpt lat="46.08235658146441" lon="7.257364997640252"><ele></ele><time>2013-8-1T18:15:46Z</time></trkpt>
<trkpt lat="46.08266553841531" lon="7.257370362058282"><ele></ele><time>2013-8-1T18:15:49Z</time></trkpt>
<trkpt lat="46.08281021006405" lon="7.257290901616216"><ele></ele><time>2013-8-1T18:15:52Z</time></trkpt>
<trkpt lat="46.082877265289426" lon="7.257242202758789"><ele></ele><time>2013-8-1T18:15:55Z</time></trkpt>
<trkpt lat="46.0830616671592" lon="7.257076492533088"><ele></ele><time>2013-8-1T18:15:58Z</time></trkpt>
<trkpt lat="46.08323064632714" lon="7.25691145285964"><ele></ele><time>2013-8-1T18:16:1Z</time></trkpt>
<trkpt lat="46.08340356498957" lon="7.256765021011233"><ele></ele><time>2013-8-1T18:16:4Z</time></trkpt>
<trkpt lat="46.08347003348172" lon="7.256729733198881"><ele></ele><time>2013-8-1T18:16:7Z</time></trkpt>
<trkpt lat="46.08353381976485" lon="7.256708275526762"><ele></ele><time>2013-8-1T18:16:10Z</time></trkpt>
<trkpt lat="46.08373682945967" lon="7.256683129817247"><ele></ele><time>2013-8-1T18:16:13Z</time></trkpt>
<trkpt lat="46.08386549167335" lon="7.256731744855642"><ele></ele><time>2013-8-1T18:16:16Z</time></trkpt>
<trkpt lat="46.084179477766156" lon="7.256941208615899"><ele></ele><time>2013-8-1T18:16:19Z</time></trkpt>
<trkpt lat="46.084311325103045" lon="7.257038354873657"><ele></ele><time>2013-8-1T18:16:22Z</time></trkpt>
<trkpt lat="46.084525901824236" lon="7.257173974066973"><ele></ele><time>2013-8-1T18:16:25Z</time></trkpt>
<trkpt lat="46.08460050076246" lon="7.257210100069642"><ele></ele><time>2013-8-1T18:16:28Z</time></trkpt>
<trkpt lat="46.084672501310706" lon="7.257249327376485"><ele></ele><time>2013-8-1T18:16:31Z</time></trkpt>
<trkpt lat="46.08474492095411" lon="7.257290314882994"><ele></ele><time>2013-8-1T18:16:34Z</time></trkpt>
<trkpt lat="46.084820022806525" lon="7.257331386208534"><ele></ele><time>2013-8-1T18:16:37Z</time></trkpt>
<trkpt lat="46.084895292297006" lon="7.257364662364125"><ele></ele><time>2013-8-1T18:16:40Z</time></trkpt>
<trkpt lat="46.08497500419617" lon="7.2573840245604515"><ele></ele><time>2013-8-1T18:16:43Z</time></trkpt>
<trkpt lat="46.085062343627214" lon="7.2573902271687984"><ele></ele><time>2013-8-1T18:16:46Z</time></trkpt>
<trkpt lat="46.085236268118024" lon="7.257373882457614"><ele></ele><time>2013-8-1T18:16:49Z</time></trkpt>
<trkpt lat="46.08532981015742" lon="7.257375055924058"><ele></ele><time>2013-8-1T18:16:52Z</time></trkpt>
<trkpt lat="46.08542611822486" lon="7.257390730082989"><ele></ele><time>2013-8-1T18:16:55Z</time></trkpt>
<trkpt lat="46.08552393503487" lon="7.257398273795843"><ele></ele><time>2013-8-1T18:16:58Z</time></trkpt>
<trkpt lat="46.08562351204455" lon="7.2573937475681305"><ele></ele><time>2013-8-1T18:17:1Z</time></trkpt>
<trkpt lat="46.08572904020548" lon="7.257364746183157"><ele></ele><time>2013-8-1T18:17:4Z</time></trkpt>
<trkpt lat="46.085831047967076" lon="7.257311102002859"><ele></ele><time>2013-8-1T18:17:7Z</time></trkpt>
<trkpt lat="46.08602559193969" lon="7.257150169461966"><ele></ele><time>2013-8-1T18:17:10Z</time></trkpt>
<trkpt lat="46.086124163120985" lon="7.257050676271319"><ele></ele><time>2013-8-1T18:17:13Z</time></trkpt>
<trkpt lat="46.08621443621814" lon="7.256940957158804"><ele></ele><time>2013-8-1T18:17:16Z</time></trkpt>
<trkpt lat="46.08629825524986" lon="7.256820760667324"><ele></ele><time>2013-8-1T18:17:19Z</time></trkpt>
<trkpt lat="46.086474526673555" lon="7.256561005488038"><ele></ele><time>2013-8-1T18:17:22Z</time></trkpt>
<trkpt lat="46.08655717223883" lon="7.256425721570849"><ele></ele><time>2013-8-1T18:17:25Z</time></trkpt>
<trkpt lat="46.08664878644049" lon="7.256291611120105"><ele></ele><time>2013-8-1T18:17:28Z</time></trkpt>
<trkpt lat="46.08673780225217" lon="7.256153142079711"><ele></ele><time>2013-8-1T18:17:31Z</time></trkpt>
<trkpt lat="46.08682103455067" lon="7.256011152639985"><ele></ele><time>2013-8-1T18:17:34Z</time></trkpt>
<trkpt lat="46.08690083026886" lon="7.255860697478056"><ele></ele><time>2013-8-1T18:17:37Z</time></trkpt>
<trkpt lat="46.08697886578739" lon="7.2557068057358265"><ele></ele><time>2013-8-1T18:17:40Z</time></trkpt>
<trkpt lat="46.08705287799239" lon="7.2555415984243155"><ele></ele><time>2013-8-1T18:17:43Z</time></trkpt>
<trkpt lat="46.08711532317102" lon="7.255371697247028"><ele></ele><time>2013-8-1T18:17:46Z</time></trkpt>
<trkpt lat="46.08717332594097" lon="7.255195090547204"><ele></ele><time>2013-8-1T18:17:49Z</time></trkpt>
<trkpt lat="46.08722319826484" lon="7.255015214905143"><ele></ele><time>2013-8-1T18:17:52Z</time></trkpt>
<trkpt lat="46.087264101952314" lon="7.254836512729526"><ele></ele><time>2013-8-1T18:17:55Z</time></trkpt>
<trkpt lat="46.087302239611745" lon="7.2546615824103355"><ele></ele><time>2013-8-1T18:17:58Z</time></trkpt>
<trkpt lat="46.08734465204179" lon="7.25449369288981"><ele></ele><time>2013-8-1T18:18:1Z</time></trkpt>
<trkpt lat="46.087395614013076" lon="7.254334352910519"><ele></ele><time>2013-8-1T18:18:4Z</time></trkpt>
<trkpt lat="46.08745629899204" lon="7.254175683483481"><ele></ele><time>2013-8-1T18:18:7Z</time></trkpt>
<trkpt lat="46.0875204205513" lon="7.254032269120216"><ele></ele><time>2013-8-1T18:18:10Z</time></trkpt>
<trkpt lat="46.08758688904345" lon="7.253895057365298"><ele></ele><time>2013-8-1T18:18:13Z</time></trkpt>
<trkpt lat="46.08765779994428" lon="7.253764299675822"><ele></ele><time>2013-8-1T18:18:16Z</time></trkpt>
<trkpt lat="46.08772770501673" lon="7.253633541986346"><ele></ele><time>2013-8-1T18:18:19Z</time></trkpt>
<trkpt lat="46.087795263156295" lon="7.25350177846849"><ele></ele><time>2013-8-1T18:18:22Z</time></trkpt>
<trkpt lat="46.087858295068145" lon="7.253365153446794"><ele></ele><time>2013-8-1T18:18:25Z</time></trkpt>
<trkpt lat="46.08791755512357" lon="7.253216123208404"><ele></ele><time>2013-8-1T18:18:28Z</time></trkpt>
<trkpt lat="46.08797002583742" lon="7.2530703619122505"><ele></ele><time>2013-8-1T18:18:31Z</time></trkpt>
<trkpt lat="46.08802383765578" lon="7.252924181520939"><ele></ele><time>2013-8-1T18:18:34Z</time></trkpt>
<trkpt lat="46.088075302541256" lon="7.252773893997073"><ele></ele><time>2013-8-1T18:18:37Z</time></trkpt>
<trkpt lat="46.088126515969634" lon="7.252618409693241"><ele></ele><time>2013-8-1T18:18:40Z</time></trkpt>
<trkpt lat="46.088177394121885" lon="7.252461416646838"><ele></ele><time>2013-8-1T18:18:43Z</time></trkpt>
<trkpt lat="46.08822877518833" lon="7.252307860180736"><ele></ele><time>2013-8-1T18:18:46Z</time></trkpt>
<trkpt lat="46.08828065916896" lon="7.252161595970392"><ele></ele><time>2013-8-1T18:18:49Z</time></trkpt>
<trkpt lat="46.088332794606686" lon="7.252041231840849"><ele></ele><time>2013-8-1T18:18:52Z</time></trkpt>
<trkpt lat="46.088387947529554" lon="7.251945259049535"><ele></ele><time>2013-8-1T18:18:55Z</time></trkpt>
<trkpt lat="46.08844477683306" lon="7.251875437796116"><ele></ele><time>2013-8-1T18:18:58Z</time></trkpt>
<trkpt lat="46.08851417899132" lon="7.2518399823457"><ele></ele><time>2013-8-1T18:19:1Z</time></trkpt>
<trkpt lat="46.0885928850621" lon="7.2518455144017935"><ele></ele><time>2013-8-1T18:19:4Z</time></trkpt>
<trkpt lat="46.088673267513514" lon="7.251886334270239"><ele></ele><time>2013-8-1T18:19:7Z</time></trkpt>
<trkpt lat="46.08874920755625" lon="7.251951294019818"><ele></ele><time>2013-8-1T18:19:10Z</time></trkpt>
<trkpt lat="46.08882891945541" lon="7.252028239890933"><ele></ele><time>2013-8-1T18:19:13Z</time></trkpt>
<trkpt lat="46.08913435600698" lon="7.252325965091586"><ele></ele><time>2013-8-1T18:19:16Z</time></trkpt>
<trkpt lat="46.08921348117292" lon="7.252406179904938"><ele></ele><time>2013-8-1T18:19:19Z</time></trkpt>
<trkpt lat="46.08929017558694" lon="7.25248446688056"><ele></ele><time>2013-8-1T18:19:22Z</time></trkpt>
<trkpt lat="46.089367708191276" lon="7.2525629214942455"><ele></ele><time>2013-8-1T18:19:25Z</time></trkpt>
<trkpt lat="46.08944959938526" lon="7.25264573469758"><ele></ele><time>2013-8-1T18:19:28Z</time></trkpt>
<trkpt lat="46.08970298431814" lon="7.252858886495233"><ele></ele><time>2013-8-1T18:19:31Z</time></trkpt>
<trkpt lat="46.08980071730912" lon="7.2528942581266165"><ele></ele><time>2013-8-1T18:19:34Z</time></trkpt>
<trkpt lat="46.09029491432011" lon="7.252943878993392"><ele></ele><time>2013-8-1T18:19:37Z</time></trkpt>
<trkpt lat="46.09066572971642" lon="7.252815719693899"><ele></ele><time>2013-8-1T18:19:40Z</time></trkpt>
<trkpt lat="46.09074912965298" lon="7.252794513478875"><ele></ele><time>2013-8-1T18:19:43Z</time></trkpt>
<trkpt lat="46.09082012437284" lon="7.252790322527289"><ele></ele><time>2013-8-1T18:19:46Z</time></trkpt>
<trkpt lat="46.090881396085024" lon="7.252812618389726"><ele></ele><time>2013-8-1T18:19:49Z</time></trkpt>
<trkpt lat="46.09093009494245" lon="7.252852600067854"><ele></ele><time>2013-8-1T18:19:52Z</time></trkpt>
<trkpt lat="46.09096429310739" lon="7.25291102193296"><ele></ele><time>2013-8-1T18:19:55Z</time></trkpt>
<trkpt lat="46.09098566696048" lon="7.252975730225444"><ele></ele><time>2013-8-1T18:19:58Z</time></trkpt>
<trkpt lat="46.090982146561146" lon="7.253035409376025"><ele></ele><time>2013-8-1T18:20:1Z</time></trkpt>
<trkpt lat="46.09097468666732" lon="7.253084443509579"><ele></ele><time>2013-8-1T18:20:4Z</time></trkpt>
<trkpt lat="46.090974351391196" lon="7.253132471814752"><ele></ele><time>2013-8-1T18:20:7Z</time></trkpt>
<trkpt lat="46.091009471565485" lon="7.253271443769336"><ele></ele><time>2013-8-1T18:20:10Z</time></trkpt>
<trkpt lat="46.09102279879153" lon="7.253315364941955"><ele></ele><time>2013-8-1T18:20:13Z</time></trkpt>
<trkpt lat="46.09104542993009" lon="7.253365237265825"><ele></ele><time>2013-8-1T18:20:16Z</time></trkpt>
<trkpt lat="46.09107535332441" lon="7.253415696322918"><ele></ele><time>2013-8-1T18:20:19Z</time></trkpt>
<trkpt lat="46.09110737219453" lon="7.253465820103884"><ele></ele><time>2013-8-1T18:20:22Z</time></trkpt>
<trkpt lat="46.09114366583526" lon="7.253516782075167"><ele></ele><time>2013-8-1T18:20:25Z</time></trkpt>
<trkpt lat="46.09117744490504" lon="7.253555757924914"><ele></ele><time>2013-8-1T18:20:28Z</time></trkpt>
<trkpt lat="46.091213235631585" lon="7.25359171628952"><ele></ele><time>2013-8-1T18:20:31Z</time></trkpt>
<trkpt lat="46.091243494302034" lon="7.2536305245012045"><ele></ele><time>2013-8-1T18:20:34Z</time></trkpt>
<trkpt lat="46.091274255886674" lon="7.253675702959299"><ele></ele><time>2013-8-1T18:20:37Z</time></trkpt>
<trkpt lat="46.091391099616885" lon="7.253851136192679"><ele></ele><time>2013-8-1T18:20:40Z</time></trkpt>
<trkpt lat="46.09141758643091" lon="7.253908384591341"><ele></ele><time>2013-8-1T18:20:43Z</time></trkpt>
<trkpt lat="46.09144994057715" lon="7.253968734294176"><ele></ele><time>2013-8-1T18:20:46Z</time></trkpt>
<trkpt lat="46.09147156588733" lon="7.254009218886495"><ele></ele><time>2013-8-1T18:20:49Z</time></trkpt>
<trkpt lat="46.09149444848299" lon="7.254041824489832"><ele></ele><time>2013-8-1T18:20:52Z</time></trkpt>
<trkpt lat="46.091517666354775" lon="7.254079459235072"><ele></ele><time>2013-8-1T18:20:55Z</time></trkpt>
<trkpt lat="46.09154180623591" lon="7.254124218598008"><ele></ele><time>2013-8-1T18:20:58Z</time></trkpt>
<trkpt lat="46.091575836762786" lon="7.25416679866612"><ele></ele><time>2013-8-1T18:21:1Z</time></trkpt>
<trkpt lat="46.09161757864058" lon="7.254212563857436"><ele></ele><time>2013-8-1T18:21:4Z</time></trkpt>
<trkpt lat="46.09166745096445" lon="7.25427676923573"><ele></ele><time>2013-8-1T18:21:7Z</time></trkpt>
<trkpt lat="46.09172252006829" lon="7.2543382085859776"><ele></ele><time>2013-8-1T18:21:10Z</time></trkpt>
<trkpt lat="46.091779517009854" lon="7.254397887736559"><ele></ele><time>2013-8-1T18:21:13Z</time></trkpt>
<trkpt lat="46.09184296801686" lon="7.254475587978959"><ele></ele><time>2013-8-1T18:21:16Z</time></trkpt>
<trkpt lat="46.09190348535776" lon="7.254552952945232"><ele></ele><time>2013-8-1T18:21:19Z</time></trkpt>
<trkpt lat="46.091962242498994" lon="7.254623109474778"><ele></ele><time>2013-8-1T18:21:22Z</time></trkpt>
<trkpt lat="46.09201923944056" lon="7.254679938778281"><ele></ele><time>2013-8-1T18:21:25Z</time></trkpt>
<trkpt lat="46.09219894744456" lon="7.254813043400645"><ele></ele><time>2013-8-1T18:21:28Z</time></trkpt>
<trkpt lat="46.09230816364288" lon="7.254933994263411"><ele></ele><time>2013-8-1T18:21:31Z</time></trkpt>
<trkpt lat="46.09241612255573" lon="7.255082856863737"><ele></ele><time>2013-8-1T18:21:34Z</time></trkpt>
<trkpt lat="46.09245803207159" lon="7.255157036706805"><ele></ele><time>2013-8-1T18:21:37Z</time></trkpt>
<trkpt lat="46.09249818138778" lon="7.255235658958554"><ele></ele><time>2013-8-1T18:21:40Z</time></trkpt>
<trkpt lat="46.092518800869584" lon="7.255324423313141"><ele></ele><time>2013-8-1T18:21:43Z</time></trkpt>
<trkpt lat="46.09254310838878" lon="7.255408326163888"><ele></ele><time>2013-8-1T18:21:46Z</time></trkpt>
<trkpt lat="46.09258929267526" lon="7.255585519596934"><ele></ele><time>2013-8-1T18:21:49Z</time></trkpt>
<trkpt lat="46.09261988662183" lon="7.255670595914125"><ele></ele><time>2013-8-1T18:21:52Z</time></trkpt>
<trkpt lat="46.09266464598477" lon="7.255741422995925"><ele></ele><time>2013-8-1T18:21:55Z</time></trkpt>
<trkpt lat="46.092894561588764" lon="7.255904451012611"><ele></ele><time>2013-8-1T18:21:58Z</time></trkpt>
<trkpt lat="46.093007465824485" lon="7.255972260609269"><ele></ele><time>2013-8-1T18:22:1Z</time></trkpt>
<trkpt lat="46.09304577112198" lon="7.256033029407263"><ele></ele><time>2013-8-1T18:22:4Z</time></trkpt>
<trkpt lat="46.09305272810161" lon="7.256189603358507"><ele></ele><time>2013-8-1T18:22:7Z</time></trkpt>
<trkpt lat="46.09296128153801" lon="7.256414657458663"><ele></ele><time>2013-8-1T18:22:10Z</time></trkpt>
<trkpt lat="46.09292280860245" lon="7.256773319095373"><ele></ele><time>2013-8-1T18:22:13Z</time></trkpt>
<trkpt lat="46.09301299788058" lon="7.257005078718066"><ele></ele><time>2013-8-1T18:22:16Z</time></trkpt>
<trkpt lat="46.09305524267256" lon="7.2570741456002"><ele></ele><time>2013-8-1T18:22:19Z</time></trkpt>
<trkpt lat="46.093102265149355" lon="7.257141033187509"><ele></ele><time>2013-8-1T18:22:22Z</time></trkpt>
<trkpt lat="46.093209721148014" lon="7.257215129211545"><ele></ele><time>2013-8-1T18:22:25Z</time></trkpt>
<trkpt lat="46.093267975375056" lon="7.257232815027237"><ele></ele><time>2013-8-1T18:22:28Z</time></trkpt>
<trkpt lat="46.09337920323014" lon="7.257246226072311"><ele></ele><time>2013-8-1T18:22:31Z</time></trkpt>
<trkpt lat="46.09349210746586" lon="7.257267767563462"><ele></ele><time>2013-8-1T18:22:34Z</time></trkpt>
<trkpt lat="46.0935712326318" lon="7.257422748953104"><ele></ele><time>2013-8-1T18:22:37Z</time></trkpt>
<trkpt lat="46.09357550740242" lon="7.25749634206295"><ele></ele><time>2013-8-1T18:22:40Z</time></trkpt>
<trkpt lat="46.09358808025718" lon="7.257561720907688"><ele></ele><time>2013-8-1T18:22:43Z</time></trkpt>
<trkpt lat="46.0936111304909" lon="7.2576093301177025"><ele></ele><time>2013-8-1T18:22:46Z</time></trkpt>
<trkpt lat="46.09364977106452" lon="7.257634559646249"><ele></ele><time>2013-8-1T18:22:49Z</time></trkpt>
<trkpt lat="46.093799974769354" lon="7.257768083363771"><ele></ele><time>2013-8-1T18:22:52Z</time></trkpt>
<trkpt lat="46.09383450821042" lon="7.25782223045826"><ele></ele><time>2013-8-1T18:22:55Z</time></trkpt>
<trkpt lat="46.093923188745975" lon="7.257881239056587"><ele></ele><time>2013-8-1T18:22:58Z</time></trkpt>
<trkpt lat="46.094066854566336" lon="7.257916610687971"><ele></ele><time>2013-8-1T18:23:1Z</time></trkpt>
<trkpt lat="46.09411303885281" lon="7.2579321172088385"><ele></ele><time>2013-8-1T18:23:4Z</time></trkpt>
<trkpt lat="46.094159139320254" lon="7.257955335080624"><ele></ele><time>2013-8-1T18:23:7Z</time></trkpt>
<trkpt lat="46.09440087340772" lon="7.258102856576443"><ele></ele><time>2013-8-1T18:23:10Z</time></trkpt>
<trkpt lat="46.09445543959737" lon="7.258128924295306"><ele></ele><time>2013-8-1T18:23:13Z</time></trkpt>
<trkpt lat="46.09451553784311" lon="7.258144095540047"><ele></ele><time>2013-8-1T18:23:16Z</time></trkpt>
<trkpt lat="46.09464772045612" lon="7.258142838254571"><ele></ele><time>2013-8-1T18:23:19Z</time></trkpt>
<trkpt lat="46.094776298850775" lon="7.258094139397144"><ele></ele><time>2013-8-1T18:23:22Z</time></trkpt>
<trkpt lat="46.094834888353944" lon="7.258065138012171"><ele></ele><time>2013-8-1T18:23:25Z</time></trkpt>
<trkpt lat="46.09489473514259" lon="7.2580411657691"><ele></ele><time>2013-8-1T18:23:28Z</time></trkpt>
<trkpt lat="46.09501778148115" lon="7.258007470518351"><ele></ele><time>2013-8-1T18:23:31Z</time></trkpt>
<trkpt lat="46.09520209953189" lon="7.257997244596481"><ele></ele><time>2013-8-1T18:23:34Z</time></trkpt>
<trkpt lat="46.095388596877456" lon="7.257979307323694"><ele></ele><time>2013-8-1T18:23:37Z</time></trkpt>
<trkpt lat="46.09551155939698" lon="7.257916107773781"><ele></ele><time>2013-8-1T18:23:40Z</time></trkpt>
<trkpt lat="46.095571238547564" lon="7.25788283161819"><ele></ele><time>2013-8-1T18:23:43Z</time></trkpt>
<trkpt lat="46.095634857192636" lon="7.257853159680963"><ele></ele><time>2013-8-1T18:23:46Z</time></trkpt>
<trkpt lat="46.09569386579096" lon="7.25782860070467"><ele></ele><time>2013-8-1T18:23:49Z</time></trkpt>
<trkpt lat="46.09580903314054" lon="7.257770597934723"><ele></ele><time>2013-8-1T18:23:52Z</time></trkpt>
<trkpt lat="46.09586561098695" lon="7.25772893987596"><ele></ele><time>2013-8-1T18:23:55Z</time></trkpt>
<trkpt lat="46.095967618748546" lon="7.257628943771124"><ele></ele><time>2013-8-1T18:23:58Z</time></trkpt>
<trkpt lat="46.09601782634854" lon="7.257578065618873"><ele></ele><time>2013-8-1T18:24:1Z</time></trkpt>
<trkpt lat="46.096113631501794" lon="7.2574499901384115"><ele></ele><time>2013-8-1T18:24:4Z</time></trkpt>
<trkpt lat="46.09615654684603" lon="7.257378492504358"><ele></ele><time>2013-8-1T18:24:7Z</time></trkpt>
<trkpt lat="46.096203653141856" lon="7.257314622402191"><ele></ele><time>2013-8-1T18:24:10Z</time></trkpt>
<trkpt lat="46.096424432471395" lon="7.25712644867599"><ele></ele><time>2013-8-1T18:24:13Z</time></trkpt>
<trkpt lat="46.09648536890745" lon="7.25709761492908"><ele></ele><time>2013-8-1T18:24:16Z</time></trkpt>
<trkpt lat="46.096544209867716" lon="7.2570765763521194"><ele></ele><time>2013-8-1T18:24:19Z</time></trkpt>
<trkpt lat="46.096654180437326" lon="7.257052436470985"><ele></ele><time>2013-8-1T18:24:22Z</time></trkpt>
<trkpt lat="46.09681745991111" lon="7.25709124468267"><ele></ele><time>2013-8-1T18:24:25Z</time></trkpt>
<trkpt lat="46.09687169082463" lon="7.257126700133085"><ele></ele><time>2013-8-1T18:24:28Z</time></trkpt>
<trkpt lat="46.09707738272846" lon="7.257320238277316"><ele></ele><time>2013-8-1T18:24:31Z</time></trkpt>
<trkpt lat="46.09712775796652" lon="7.25737220607698"><ele></ele><time>2013-8-1T18:24:34Z</time></trkpt>
<trkpt lat="46.097334707155824" lon="7.257584184408188"><ele></ele><time>2013-8-1T18:24:37Z</time></trkpt>
<trkpt lat="46.097457921132445" lon="7.257632967084646"><ele></ele><time>2013-8-1T18:24:40Z</time></trkpt>
<trkpt lat="46.09772731550038" lon="7.257645456120372"><ele></ele><time>2013-8-1T18:24:43Z</time></trkpt>
<trkpt lat="46.097793616354465" lon="7.2576467134058475"><ele></ele><time>2013-8-1T18:24:46Z</time></trkpt>
<trkpt lat="46.098252441734076" lon="7.257624501362443"><ele></ele><time>2013-8-1T18:24:49Z</time></trkpt>
<trkpt lat="46.09831614419818" lon="7.257616119459271"><ele></ele><time>2013-8-1T18:24:52Z</time></trkpt>
<trkpt lat="46.09856894239783" lon="7.257549315690994"><ele></ele><time>2013-8-1T18:24:55Z</time></trkpt>
<trkpt lat="46.09862443059683" lon="7.257533138617873"><ele></ele><time>2013-8-1T18:24:58Z</time></trkpt>
<trkpt lat="46.09867732040584" lon="7.257515452802181"><ele></ele><time>2013-8-1T18:25:1Z</time></trkpt>
<trkpt lat="46.09872501343489" lon="7.257496677339077"><ele></ele><time>2013-8-1T18:25:4Z</time></trkpt>
<trkpt lat="46.09877061098814" lon="7.257463987916708"><ele></ele><time>2013-8-1T18:25:7Z</time></trkpt>
<trkpt lat="46.09882241114974" lon="7.257444625720382"><ele></ele><time>2013-8-1T18:25:10Z</time></trkpt>
<trkpt lat="46.098875971511006" lon="7.257425179705024"><ele></ele><time>2013-8-1T18:25:13Z</time></trkpt>
<trkpt lat="46.09898552298546" lon="7.257389472797513"><ele></ele><time>2013-8-1T18:25:16Z</time></trkpt>
<trkpt lat="46.09908543527126" lon="7.257346641272306"><ele></ele><time>2013-8-1T18:25:19Z</time></trkpt>
<trkpt lat="46.0992078948766" lon="7.25729844532907"><ele></ele><time>2013-8-1T18:25:22Z</time></trkpt>
<trkpt lat="46.099340077489614" lon="7.257246058434248"><ele></ele><time>2013-8-1T18:25:25Z</time></trkpt>
<trkpt lat="46.09938642941415" lon="7.257222253829241"><ele></ele><time>2013-8-1T18:25:28Z</time></trkpt>
<trkpt lat="46.09943462535739" lon="7.257200796157122"><ele></ele><time>2013-8-1T18:25:31Z</time></trkpt>
<trkpt lat="46.09970770776272" lon="7.257099291309714"><ele></ele><time>2013-8-1T18:25:34Z</time></trkpt>
<trkpt lat="46.09991826117039" lon="7.256957720965147"><ele></ele><time>2013-8-1T18:25:37Z</time></trkpt>
<trkpt lat="46.10029645264149" lon="7.256669467315078"><ele></ele><time>2013-8-1T18:25:40Z</time></trkpt>
<trkpt lat="46.10035328194499" lon="7.256629653275013"><ele></ele><time>2013-8-1T18:25:43Z</time></trkpt>
<trkpt lat="46.10050960443914" lon="7.256494453176856"><ele></ele><time>2013-8-1T18:25:46Z</time></trkpt>
<trkpt lat="46.1006152164191" lon="7.256391271948814"><ele></ele><time>2013-8-1T18:25:49Z</time></trkpt>
<trkpt lat="46.10094512812793" lon="7.256068233400583"><ele></ele><time>2013-8-1T18:25:52Z</time></trkpt>
<trkpt lat="46.10128224827349" lon="7.255820212885737"><ele></ele><time>2013-8-1T18:25:55Z</time></trkpt>
<trkpt lat="46.10139448195696" lon="7.25574511103332"><ele></ele><time>2013-8-1T18:25:58Z</time></trkpt>
<trkpt lat="46.10157586634159" lon="7.255638996139169"><ele></ele><time>2013-8-1T18:26:1Z</time></trkpt>
<trkpt lat="46.10164225101471" lon="7.255607815459371"><ele></ele><time>2013-8-1T18:26:4Z</time></trkpt>
<trkpt lat="46.10190946608782" lon="7.25547244772315"><ele></ele><time>2013-8-1T18:26:7Z</time></trkpt>
<trkpt lat="46.10219059512019" lon="7.255470855161548"><ele></ele><time>2013-8-1T18:26:10Z</time></trkpt>
<trkpt lat="46.10253995284438" lon="7.255536234006286"><ele></ele><time>2013-8-1T18:26:13Z</time></trkpt>
<trkpt lat="46.10261061228812" lon="7.255539586767554"><ele></ele><time>2013-8-1T18:26:16Z</time></trkpt>
<trkpt lat="46.10282686538994" lon="7.255525756627321"><ele></ele><time>2013-8-1T18:26:19Z</time></trkpt>
<trkpt lat="46.10289081931114" lon="7.255514105781913"><ele></ele><time>2013-8-1T18:26:22Z</time></trkpt>
<trkpt lat="46.10295418649912" lon="7.255493067204952"><ele></ele><time>2013-8-1T18:26:25Z</time></trkpt>
<trkpt lat="46.10301772132516" lon="7.2554664965718985"><ele></ele><time>2013-8-1T18:26:28Z</time></trkpt>
<trkpt lat="46.103082932531834" lon="7.255444200709462"><ele></ele><time>2013-8-1T18:26:31Z</time></trkpt>
<trkpt lat="46.103147557005286" lon="7.255427520722151"><ele></ele><time>2013-8-1T18:26:34Z</time></trkpt>
<trkpt lat="46.10321570187807" lon="7.255417630076408"><ele></ele><time>2013-8-1T18:26:37Z</time></trkpt>
<trkpt lat="46.103615602478385" lon="7.255351832136512"><ele></ele><time>2013-8-1T18:26:40Z</time></trkpt>
<trkpt lat="46.10392824746668" lon="7.255335822701454"><ele></ele><time>2013-8-1T18:26:43Z</time></trkpt>
<trkpt lat="46.10404911451042" lon="7.255295254290104"><ele></ele><time>2013-8-1T18:26:46Z</time></trkpt>
<trkpt lat="46.10415615141392" lon="7.255232892930508"><ele></ele><time>2013-8-1T18:26:49Z</time></trkpt>
<trkpt lat="46.10436930321157" lon="7.255118228495121"><ele></ele><time>2013-8-1T18:26:52Z</time></trkpt>
<trkpt lat="46.10469619743526" lon="7.254947992041707"><ele></ele><time>2013-8-1T18:26:55Z</time></trkpt>
<trkpt lat="46.104897279292345" lon="7.254844726994634"><ele></ele><time>2013-8-1T18:26:58Z</time></trkpt>
<trkpt lat="46.105059552937746" lon="7.254795944318175"><ele></ele><time>2013-8-1T18:27:1Z</time></trkpt>
<trkpt lat="46.10526314936578" lon="7.254653368145227"><ele></ele><time>2013-8-1T18:27:4Z</time></trkpt>
<trkpt lat="46.10536566004157" lon="7.254582541063428"><ele></ele><time>2013-8-1T18:27:7Z</time></trkpt>
<trkpt lat="46.10542139969766" lon="7.254556138068438"><ele></ele><time>2013-8-1T18:27:10Z</time></trkpt>
<trkpt lat="46.10553078353405" lon="7.254504170268774"><ele></ele><time>2013-8-1T18:27:13Z</time></trkpt>
<trkpt lat="46.10558199696243" lon="7.254476761445403"><ele></ele><time>2013-8-1T18:27:16Z</time></trkpt>
<trkpt lat="46.105684507638216" lon="7.254423452541232"><ele></ele><time>2013-8-1T18:27:19Z</time></trkpt>
<trkpt lat="46.10583814792335" lon="7.254393110051751"><ele></ele><time>2013-8-1T18:27:22Z</time></trkpt>
<trkpt lat="46.10592649318278" lon="7.254368215799332"><ele></ele><time>2013-8-1T18:27:25Z</time></trkpt>
<trkpt lat="46.10596555285156" lon="7.254351451992989"><ele></ele><time>2013-8-1T18:27:28Z</time></trkpt>
<trkpt lat="46.10600721091032" lon="7.254321863874793"><ele></ele><time>2013-8-1T18:27:31Z</time></trkpt>
<trkpt lat="46.10604819841683" lon="7.254289845004678"><ele></ele><time>2013-8-1T18:27:34Z</time></trkpt>
<trkpt lat="46.106090946123004" lon="7.254257323220372"><ele></ele><time>2013-8-1T18:27:37Z</time></trkpt>
<trkpt lat="46.10621575266123" lon="7.254166714847088"><ele></ele><time>2013-8-1T18:27:40Z</time></trkpt>
<trkpt lat="46.10630393028259" lon="7.254118015989661"><ele></ele><time>2013-8-1T18:27:43Z</time></trkpt>
<trkpt lat="46.10635053366423" lon="7.25410376675427"><ele></ele><time>2013-8-1T18:27:46Z</time></trkpt>
<trkpt lat="46.10645564273" lon="7.254081554710865"><ele></ele><time>2013-8-1T18:27:49Z</time></trkpt>
<trkpt lat="46.10647274181247" lon="7.254088092595339"><ele></ele><time>2013-8-1T18:27:52Z</time></trkpt>
<trkpt lat="46.10656192526221" lon="7.2540834825485945"><ele></ele><time>2013-8-1T18:27:55Z</time></trkpt>
<trkpt lat="46.10657734796405" lon="7.254083063453436"><ele></ele><time>2013-8-1T18:27:58Z</time></trkpt>
<trkpt lat="46.10660852864385" lon="7.254085158929229"><ele></ele><time>2013-8-1T18:28:1Z</time></trkpt>
<trkpt lat="46.10662839375436" lon="7.254085578024387"><ele></ele><time>2013-8-1T18:28:4Z</time></trkpt>
<trkpt lat="46.10664482228458" lon="7.254087505862117"><ele></ele><time>2013-8-1T18:28:7Z</time></trkpt>
<trkpt lat="46.106660747900605" lon="7.254085494205356"><ele></ele><time>2013-8-1T18:28:10Z</time></trkpt>
<trkpt lat="46.10667793080211" lon="7.25408373400569"><ele></ele><time>2013-8-1T18:28:13Z</time></trkpt>
<trkpt lat="46.106708105653524" lon="7.254073424264789"><ele></ele><time>2013-8-1T18:28:16Z</time></trkpt>
<trkpt lat="46.106723276898265" lon="7.254067389294505"><ele></ele><time>2013-8-1T18:28:19Z</time></trkpt>
<trkpt lat="46.10673819668591" lon="7.2540628630667925"><ele></ele><time>2013-8-1T18:28:22Z</time></trkpt>
<trkpt lat="46.10675336793065" lon="7.254051212221384"><ele></ele><time>2013-8-1T18:28:25Z</time></trkpt>
<trkpt lat="46.10676736570895" lon="7.254045680165291"><ele></ele><time>2013-8-1T18:28:28Z</time></trkpt>
<trkpt lat="46.10684162937105" lon="7.25400167517364"><ele></ele><time>2013-8-1T18:28:31Z</time></trkpt>
<trkpt lat="46.10685160383582" lon="7.253993880003691"><ele></ele><time>2013-8-1T18:28:34Z</time></trkpt>
<trkpt lat="46.106864428147674" lon="7.253980552777648"><ele></ele><time>2013-8-1T18:28:37Z</time></trkpt>
<trkpt lat="46.10687607899308" lon="7.253968399018049"><ele></ele><time>2013-8-1T18:28:40Z</time></trkpt>
<trkpt lat="46.106886975467205" lon="7.2539597656577826"><ele></ele><time>2013-8-1T18:28:43Z</time></trkpt>
<trkpt lat="46.106957802549005" lon="7.253953395411372"><ele></ele><time>2013-8-1T18:28:46Z</time></trkpt>
<trkpt lat="46.1069699563086" lon="7.253963705152273"><ele></ele><time>2013-8-1T18:28:49Z</time></trkpt>
<trkpt lat="46.106972973793745" lon="7.253981726244092"><ele></ele><time>2013-8-1T18:28:52Z</time></trkpt>
<trkpt lat="46.1069718003273" lon="7.25400653667748"><ele></ele><time>2013-8-1T18:28:55Z</time></trkpt>
<trkpt lat="46.10696693882346" lon="7.2540272399783134"><ele></ele><time>2013-8-1T18:28:58Z</time></trkpt>
<trkpt lat="46.10693860799074" lon="7.2540978994220495"><ele></ele><time>2013-8-1T18:29:1Z</time></trkpt>
<trkpt lat="46.106920670717955" lon="7.2541258949786425"><ele></ele><time>2013-8-1T18:29:4Z</time></trkpt>
<trkpt lat="46.106914887204766" lon="7.254138216376305"><ele></ele><time>2013-8-1T18:29:7Z</time></trkpt>
<trkpt lat="46.10690876841545" lon="7.254151962697506"><ele></ele><time>2013-8-1T18:29:10Z</time></trkpt>
<trkpt lat="46.10690147615969" lon="7.2541688941419125"><ele></ele><time>2013-8-1T18:29:13Z</time></trkpt>
<trkpt lat="46.10689275898039" lon="7.25418247282505"><ele></ele><time>2013-8-1T18:29:16Z</time></trkpt>
<trkpt lat="46.10687565989792" lon="7.254207618534565"><ele></ele><time>2013-8-1T18:29:19Z</time></trkpt>
<trkpt lat="46.10684816725552" lon="7.254271991550922"><ele></ele><time>2013-8-1T18:29:22Z</time></trkpt>
<trkpt lat="46.106838611885905" lon="7.254286240786314"><ele></ele><time>2013-8-1T18:29:25Z</time></trkpt>
<trkpt lat="46.106832241639495" lon="7.254301914945245"><ele></ele><time>2013-8-1T18:29:28Z</time></trkpt>
<trkpt lat="46.10682411119342" lon="7.254316583275795"><ele></ele><time>2013-8-1T18:29:31Z</time></trkpt>
<trkpt lat="46.1068145558238" lon="7.254329156130552"><ele></ele><time>2013-8-1T18:29:34Z</time></trkpt>
<trkpt lat="46.10680709592998" lon="7.254344746470451"><ele></ele><time>2013-8-1T18:29:37Z</time></trkpt>
<trkpt lat="46.10677532851696" lon="7.254385817795992"><ele></ele><time>2013-8-1T18:29:40Z</time></trkpt>
<trkpt lat="46.106765354052186" lon="7.254399228841066"><ele></ele><time>2013-8-1T18:29:43Z</time></trkpt>
<trkpt lat="46.10675521194935" lon="7.254409370943904"><ele></ele><time>2013-8-1T18:29:46Z</time></trkpt>
<trkpt lat="46.10674322582781" lon="7.254412891343236"><ele></ele><time>2013-8-1T18:29:49Z</time></trkpt>
<trkpt lat="46.10673123970628" lon="7.254421105608344"><ele></ele><time>2013-8-1T18:29:52Z</time></trkpt>
<trkpt lat="46.10671682283282" lon="7.25442823022604"><ele></ele><time>2013-8-1T18:29:55Z</time></trkpt>
<trkpt lat="46.10670316033065" lon="7.254435354843736"><ele></ele><time>2013-8-1T18:29:58Z</time></trkpt>
<trkpt lat="46.10668295994401" lon="7.254445496946573"><ele></ele><time>2013-8-1T18:30:1Z</time></trkpt>
<trkpt lat="46.10664792358875" lon="7.254473911598325"><ele></ele><time>2013-8-1T18:30:4Z</time></trkpt>
<trkpt lat="46.106638703495264" lon="7.2544854786247015"><ele></ele><time>2013-8-1T18:30:7Z</time></trkpt>
<trkpt lat="46.10662621445954" lon="7.2544963750988245"><ele></ele><time>2013-8-1T18:30:10Z</time></trkpt>
<trkpt lat="46.106612803414464" lon="7.2545037511736155"><ele></ele><time>2013-8-1T18:30:13Z</time></trkpt>
<trkpt lat="46.106603080406785" lon="7.254513977095485"><ele></ele><time>2013-8-1T18:30:16Z</time></trkpt>
<trkpt lat="46.10658665187657" lon="7.25453426130116"><ele></ele><time>2013-8-1T18:30:19Z</time></trkpt>
<trkpt lat="46.106573743745685" lon="7.2545405477285385"><ele></ele><time>2013-8-1T18:30:22Z</time></trkpt>
<trkpt lat="46.1065037548542" lon="7.25456552579999"><ele></ele><time>2013-8-1T18:30:25Z</time></trkpt>
<trkpt lat="46.10649227164686" lon="7.254569632932544"><ele></ele><time>2013-8-1T18:30:28Z</time></trkpt>
<trkpt lat="46.10648078843951" lon="7.254574159160256"><ele></ele><time>2013-8-1T18:30:31Z</time></trkpt>
<trkpt lat="46.10647148452699" lon="7.2545753326267"><ele></ele><time>2013-8-1T18:30:34Z</time></trkpt>
<trkpt lat="46.10646151006222" lon="7.254584217444062"><ele></ele><time>2013-8-1T18:30:37Z</time></trkpt>
<trkpt lat="46.1064519546926" lon="7.254639538004994"><ele></ele><time>2013-8-1T18:30:40Z</time></trkpt>
<trkpt lat="46.106479447335005" lon="7.254653954878449"><ele></ele><time>2013-8-1T18:30:43Z</time></trkpt>
<trkpt lat="46.10650232993066" lon="7.254659151658416"><ele></ele><time>2013-8-1T18:30:46Z</time></trkpt>
<trkpt lat="46.10652328468859" lon="7.2546586487442255"><ele></ele><time>2013-8-1T18:30:49Z</time></trkpt>
<trkpt lat="46.10654063522816" lon="7.254664096981287"><ele></ele><time>2013-8-1T18:30:52Z</time></trkpt>
<trkpt lat="46.10655748285353" lon="7.2546615824103355"><ele></ele><time>2013-8-1T18:30:55Z</time></trkpt>
<trkpt lat="46.1065988894552" lon="7.254662839695811"><ele></ele><time>2013-8-1T18:30:58Z</time></trkpt>
<trkpt lat="46.10664742067456" lon="7.25466133095324"><ele></ele><time>2013-8-1T18:31:1Z</time></trkpt>
<trkpt lat="46.106662759557366" lon="7.2546574752777815"><ele></ele><time>2013-8-1T18:31:4Z</time></trkpt>
<trkpt lat="46.10667709261179" lon="7.254655966535211"><ele></ele><time>2013-8-1T18:31:7Z</time></trkpt>
<trkpt lat="46.10669226385653" lon="7.2546551283448935"><ele></ele><time>2013-8-1T18:31:10Z</time></trkpt>
<trkpt lat="46.106707099825144" lon="7.254657559096813"><ele></ele><time>2013-8-1T18:31:13Z</time></trkpt>
<trkpt lat="46.10677666962147" lon="7.254654793068767"><ele></ele><time>2013-8-1T18:31:16Z</time></trkpt>
<trkpt lat="46.1067904997617" lon="7.2546615824103355"><ele></ele><time>2013-8-1T18:31:19Z</time></trkpt>
<trkpt lat="46.10680374316871" lon="7.254663845524192"><ele></ele><time>2013-8-1T18:31:22Z</time></trkpt>
<trkpt lat="46.10681933350861" lon="7.25466619245708"><ele></ele><time>2013-8-1T18:31:25Z</time></trkpt>
<trkpt lat="46.10683584585786" lon="7.254667282104492"><ele></ele><time>2013-8-1T18:31:28Z</time></trkpt>
<trkpt lat="46.10684959217906" lon="7.254672981798649"><ele></ele><time>2013-8-1T18:31:31Z</time></trkpt>
<trkpt lat="46.1069390270859" lon="7.254695948213339"><ele></ele><time>2013-8-1T18:31:34Z</time></trkpt>
<trkpt lat="46.10695260576904" lon="7.254696954041719"><ele></ele><time>2013-8-1T18:31:37Z</time></trkpt>
<trkpt lat="46.106968531385064" lon="7.254697708413005"><ele></ele><time>2013-8-1T18:31:40Z</time></trkpt>
<trkpt lat="46.106986720114946" lon="7.254698881879449"><ele></ele><time>2013-8-1T18:31:43Z</time></trkpt>
<trkpt lat="46.10700096935034" lon="7.254700139164925"><ele></ele><time>2013-8-1T18:31:46Z</time></trkpt>
<trkpt lat="46.107014045119286" lon="7.254697121679783"><ele></ele><time>2013-8-1T18:31:49Z</time></trkpt>
<trkpt lat="46.107044806703925" lon="7.254695696756244"><ele></ele><time>2013-8-1T18:31:52Z</time></trkpt>
<trkpt lat="46.107088811695576" lon="7.254697792232037"><ele></ele><time>2013-8-1T18:31:55Z</time></trkpt>
<trkpt lat="46.10710415057838" lon="7.254693601280451"><ele></ele><time>2013-8-1T18:31:58Z</time></trkpt>
<trkpt lat="46.107118148356676" lon="7.254687147215009"><ele></ele><time>2013-8-1T18:32:1Z</time></trkpt>
<trkpt lat="46.10713357105851" lon="7.254681866616011"><ele></ele><time>2013-8-1T18:32:4Z</time></trkpt>
<trkpt lat="46.10718377865851" lon="7.254659654572606"><ele></ele><time>2013-8-1T18:32:7Z</time></trkpt>
<trkpt lat="46.10722057521343" lon="7.2546224389225245"><ele></ele><time>2013-8-1T18:32:10Z</time></trkpt>
<trkpt lat="46.107229543849826" lon="7.254611374810338"><ele></ele><time>2013-8-1T18:32:13Z</time></trkpt>
<trkpt lat="46.107237255200744" lon="7.254601065069437"><ele></ele><time>2013-8-1T18:32:16Z</time></trkpt>
<trkpt lat="46.107246056199074" lon="7.254587486386299"><ele></ele><time>2013-8-1T18:32:19Z</time></trkpt>
<trkpt lat="46.10725703649223" lon="7.254573740065098"><ele></ele><time>2013-8-1T18:32:22Z</time></trkpt>
<trkpt lat="46.10732099041343" lon="7.25450936704874"><ele></ele><time>2013-8-1T18:32:25Z</time></trkpt>
<trkpt lat="46.107334569096565" lon="7.2544975485652685"><ele></ele><time>2013-8-1T18:32:28Z</time></trkpt>
<trkpt lat="46.107347225770354" lon="7.254485813900828"><ele></ele><time>2013-8-1T18:32:31Z</time></trkpt>
<trkpt lat="46.107361391186714" lon="7.254472067579627"><ele></ele><time>2013-8-1T18:32:34Z</time></trkpt>
<trkpt lat="46.10737530514598" lon="7.254459830000997"><ele></ele><time>2013-8-1T18:32:37Z</time></trkpt>
<trkpt lat="46.107410341501236" lon="7.254411466419697"><ele></ele><time>2013-8-1T18:32:40Z</time></trkpt>
<trkpt lat="46.107414700090885" lon="7.254395876079798"><ele></ele><time>2013-8-1T18:32:43Z</time></trkpt>
<trkpt lat="46.10743246972561" lon="7.254365282133222"><ele></ele><time>2013-8-1T18:32:46Z</time></trkpt>
<trkpt lat="46.10743741504848" lon="7.254350110888481"><ele></ele><time>2013-8-1T18:32:49Z</time></trkpt>
<trkpt lat="46.10744361765683" lon="7.2543305810540915"><ele></ele><time>2013-8-1T18:32:52Z</time></trkpt>
<trkpt lat="46.10745300538838" lon="7.254311302676797"><ele></ele><time>2013-8-1T18:32:55Z</time></trkpt>
<trkpt lat="46.107458705082536" lon="7.25429973565042"><ele></ele><time>2013-8-1T18:32:58Z</time></trkpt>
<trkpt lat="46.10748770646751" lon="7.2542434092611074"><ele></ele><time>2013-8-1T18:33:1Z</time></trkpt>
<trkpt lat="46.10751511529088" lon="7.2542051039636135"><ele></ele><time>2013-8-1T18:33:4Z</time></trkpt>
<trkpt lat="46.10752617940307" lon="7.2541912738233805"><ele></ele><time>2013-8-1T18:33:7Z</time></trkpt>
<trkpt lat="46.10753766261041" lon="7.2541792038828135"><ele></ele><time>2013-8-1T18:33:10Z</time></trkpt>
<trkpt lat="46.107544703409076" lon="7.254165960475802"><ele></ele><time>2013-8-1T18:33:13Z</time></trkpt>
<trkpt lat="46.10755367204547" lon="7.254154058173299"><ele></ele><time>2013-8-1T18:33:16Z</time></trkpt>
<trkpt lat="46.10762106254697" lon="7.254092786461115"><ele></ele><time>2013-8-1T18:33:19Z</time></trkpt>
<trkpt lat="46.107643358409405" lon="7.254084991291165"><ele></ele><time>2013-8-1T18:33:22Z</time></trkpt>
<trkpt lat="46.10765618272126" lon="7.254080632701516"><ele></ele><time>2013-8-1T18:33:25Z</time></trkpt>
<trkpt lat="46.107667749747634" lon="7.2540719993412495"><ele></ele><time>2013-8-1T18:33:28Z</time></trkpt>
<trkpt lat="46.10768761485815" lon="7.254060264676809"><ele></ele><time>2013-8-1T18:33:31Z</time></trkpt>
<trkpt lat="46.10769784078002" lon="7.254046015441418"><ele></ele><time>2013-8-1T18:33:34Z</time></trkpt>
<trkpt lat="46.10774813219905" lon="7.253966135904193"><ele></ele><time>2013-8-1T18:33:37Z</time></trkpt>
<trkpt lat="46.10776271671057" lon="7.253930512815714"><ele></ele><time>2013-8-1T18:33:40Z</time></trkpt>
<trkpt lat="46.107768919318914" lon="7.2539126593619585"><ele></ele><time>2013-8-1T18:33:43Z</time></trkpt>
<trkpt lat="46.10777864232659" lon="7.253897404298186"><ele></ele><time>2013-8-1T18:33:46Z</time></trkpt>
<trkpt lat="46.10778735950589" lon="7.253887094557285"><ele></ele><time>2013-8-1T18:33:49Z</time></trkpt>
<trkpt lat="46.10779548995197" lon="7.253877706825733"><ele></ele><time>2013-8-1T18:33:52Z</time></trkpt>
<trkpt lat="46.10780538059771" lon="7.253866055980325"><ele></ele><time>2013-8-1T18:33:55Z</time></trkpt>
<trkpt lat="46.107871010899544" lon="7.253756169229746"><ele></ele><time>2013-8-1T18:33:58Z</time></trkpt>
<trkpt lat="46.107880314812064" lon="7.253747535869479"><ele></ele><time>2013-8-1T18:34:1Z</time></trkpt>
<trkpt lat="46.107889618724585" lon="7.253737645223737"><ele></ele><time>2013-8-1T18:34:4Z</time></trkpt>
<trkpt lat="46.10790001228452" lon="7.2537291795015335"><ele></ele><time>2013-8-1T18:34:7Z</time></trkpt>
<trkpt lat="46.10790638253093" lon="7.2537147626280785"><ele></ele><time>2013-8-1T18:34:10Z</time></trkpt>
<trkpt lat="46.10792750492692" lon="7.253683665767312"><ele></ele><time>2013-8-1T18:34:13Z</time></trkpt>
<trkpt lat="46.1079715937376" lon="7.253613760694861"><ele></ele><time>2013-8-1T18:34:16Z</time></trkpt>
<trkpt lat="46.10798039473593" lon="7.253601523116231"><ele></ele><time>2013-8-1T18:34:19Z</time></trkpt>
<trkpt lat="46.107988357543945" lon="7.253593225032091"><ele></ele><time>2013-8-1T18:34:22Z</time></trkpt>
<trkpt lat="46.10799699090421" lon="7.253580987453461"><ele></ele><time>2013-8-1T18:34:25Z</time></trkpt>
<trkpt lat="46.108006965368986" lon="7.253566067665815"><ele></ele><time>2013-8-1T18:34:28Z</time></trkpt>
<trkpt lat="46.10804493539035" lon="7.253503622487187"><ele></ele><time>2013-8-1T18:34:31Z</time></trkpt>
<trkpt lat="46.10805206000805" lon="7.25348467938602"><ele></ele><time>2013-8-1T18:34:34Z</time></trkpt>
<trkpt lat="46.108067482709885" lon="7.253439920023084"><ele></ele><time>2013-8-1T18:34:37Z</time></trkpt>
<trkpt lat="46.10807368531823" lon="7.2534240782260895"><ele></ele><time>2013-8-1T18:34:40Z</time></trkpt>
<trkpt lat="46.10808156430721" lon="7.253406140953302"><ele></ele><time>2013-8-1T18:34:43Z</time></trkpt>
<trkpt lat="46.10808977857232" lon="7.2533902153372765"><ele></ele><time>2013-8-1T18:34:46Z</time></trkpt>
<trkpt lat="46.10811802558601" lon="7.253336822614074"><ele></ele><time>2013-8-1T18:34:49Z</time></trkpt>
<trkpt lat="46.1081565823406" lon="7.253286279737949"><ele></ele><time>2013-8-1T18:34:52Z</time></trkpt>
<trkpt lat="46.10816806554794" lon="7.253281082957983"><ele></ele><time>2013-8-1T18:34:55Z</time></trkpt>
<trkpt lat="46.10817829146981" lon="7.253297679126263"><ele></ele><time>2013-8-1T18:34:58Z</time></trkpt>
<trkpt lat="46.10818197950721" lon="7.253318130970001"><ele></ele><time>2013-8-1T18:35:1Z</time></trkpt>
<trkpt lat="46.10818105749786" lon="7.253338331356645"><ele></ele><time>2013-8-1T18:35:4Z</time></trkpt>
<trkpt lat="46.10817611217499" lon="7.2534016985446215"><ele></ele><time>2013-8-1T18:35:7Z</time></trkpt>
<trkpt lat="46.10815566033125" lon="7.253444027155638"><ele></ele><time>2013-8-1T18:35:10Z</time></trkpt>
<trkpt lat="46.10813696868718" lon="7.253503371030092"><ele></ele><time>2013-8-1T18:35:13Z</time></trkpt>
<trkpt lat="46.10813671723008" lon="7.253521978855133"><ele></ele><time>2013-8-1T18:35:16Z</time></trkpt>
<trkpt lat="46.10813579522073" lon="7.253538658842444"><ele></ele><time>2013-8-1T18:35:19Z</time></trkpt>
<trkpt lat="46.10813847742975" lon="7.25355751812458"><ele></ele><time>2013-8-1T18:35:22Z</time></trkpt>
<trkpt lat="46.10814048908651" lon="7.253581071272492"><ele></ele><time>2013-8-1T18:35:25Z</time></trkpt>
<trkpt lat="46.10814266838133" lon="7.25360051728785"><ele></ele><time>2013-8-1T18:35:28Z</time></trkpt>
<trkpt lat="46.10814585350454" lon="7.253642426803708"><ele></ele><time>2013-8-1T18:35:31Z</time></trkpt>
<trkpt lat="46.108131939545274" lon="7.253782153129578"><ele></ele><time>2013-8-1T18:35:34Z</time></trkpt>
<trkpt lat="46.108127580955625" lon="7.2538013476878405"><ele></ele><time>2013-8-1T18:35:37Z</time></trkpt>
<trkpt lat="46.10812406055629" lon="7.253821883350611"><ele></ele><time>2013-8-1T18:35:40Z</time></trkpt>
<trkpt lat="46.108120288699865" lon="7.253843927755952"><ele></ele><time>2013-8-1T18:35:43Z</time></trkpt>
<trkpt lat="46.108118277043104" lon="7.253863122314215"><ele></ele><time>2013-8-1T18:35:46Z</time></trkpt>
<trkpt lat="46.10812347382307" lon="7.253943840041757"><ele></ele><time>2013-8-1T18:35:49Z</time></trkpt>
<trkpt lat="46.10812506638467" lon="7.253963788971305"><ele></ele><time>2013-8-1T18:35:52Z</time></trkpt>
<trkpt lat="46.108126072213054" lon="7.253983654081821"><ele></ele><time>2013-8-1T18:35:55Z</time></trkpt>
<trkpt lat="46.108128586784005" lon="7.254006452858448"><ele></ele><time>2013-8-1T18:35:58Z</time></trkpt>
<trkpt lat="46.1081304308027" lon="7.254025982692838"><ele></ele><time>2013-8-1T18:36:1Z</time></trkpt>
<trkpt lat="46.10813219100237" lon="7.2540451772511005"><ele></ele><time>2013-8-1T18:36:4Z</time></trkpt>
<trkpt lat="46.10812942497432" lon="7.254061438143253"><ele></ele><time>2013-8-1T18:36:7Z</time></trkpt>
<trkpt lat="46.108118360862136" lon="7.254134276881814"><ele></ele><time>2013-8-1T18:36:10Z</time></trkpt>
<trkpt lat="46.108112912625074" lon="7.2541494481265545"><ele></ele><time>2013-8-1T18:36:13Z</time></trkpt>
<trkpt lat="46.10810964368284" lon="7.2541677206754684"><ele></ele><time>2013-8-1T18:36:16Z</time></trkpt>
<trkpt lat="46.108104111626744" lon="7.254185238853097"><ele></ele><time>2013-8-1T18:36:19Z</time></trkpt>
<trkpt lat="46.108101680874825" lon="7.254205606877804"><ele></ele><time>2013-8-1T18:36:22Z</time></trkpt>
<trkpt lat="46.10808382742107" lon="7.2542548924684525"><ele></ele><time>2013-8-1T18:36:25Z</time></trkpt>
<trkpt lat="46.10807167366147" lon="7.254291521385312"><ele></ele><time>2013-8-1T18:36:28Z</time></trkpt>
<trkpt lat="46.10806907527149" lon="7.254307279363275"><ele></ele><time>2013-8-1T18:36:31Z</time></trkpt>
<trkpt lat="46.10806580632925" lon="7.254325048997998"><ele></ele><time>2013-8-1T18:36:34Z</time></trkpt>
<trkpt lat="46.10806203447282" lon="7.2543382085859776"><ele></ele><time>2013-8-1T18:36:37Z</time></trkpt>
<trkpt lat="46.10805708914995" lon="7.254355726763606"><ele></ele><time>2013-8-1T18:36:40Z</time></trkpt>
<trkpt lat="46.1080527305603" lon="7.254372658208013"><ele></ele><time>2013-8-1T18:36:43Z</time></trkpt>
<trkpt lat="46.10804921016097" lon="7.254393948242068"><ele></ele><time>2013-8-1T18:36:46Z</time></trkpt>
<trkpt lat="46.10804325900972" lon="7.254413058981299"><ele></ele><time>2013-8-1T18:36:49Z</time></trkpt>
<trkpt lat="46.10802959650755" lon="7.254483886063099"><ele></ele><time>2013-8-1T18:36:52Z</time></trkpt>
<trkpt lat="46.10802481882274" lon="7.254501488059759"><ele></ele><time>2013-8-1T18:36:55Z</time></trkpt>
<trkpt lat="46.10801953822374" lon="7.254518503323197"><ele></ele><time>2013-8-1T18:36:58Z</time></trkpt>
<trkpt lat="46.108012329787016" lon="7.254535015672445"><ele></ele><time>2013-8-1T18:37:1Z</time></trkpt>
<trkpt lat="46.108009396120906" lon="7.254555467516184"><ele></ele><time>2013-8-1T18:37:4Z</time></trkpt>
<trkpt lat="46.10798969864845" lon="7.254661833867431"><ele></ele><time>2013-8-1T18:37:7Z</time></trkpt>
<trkpt lat="46.10799053683877" lon="7.254679184406996"><ele></ele><time>2013-8-1T18:37:10Z</time></trkpt>
<trkpt lat="46.107993219047785" lon="7.254699133336544"><ele></ele><time>2013-8-1T18:37:13Z</time></trkpt>
<trkpt lat="46.107996152713895" lon="7.254716986790299"><ele></ele><time>2013-8-1T18:37:16Z</time></trkpt>
<trkpt lat="46.10799699090421" lon="7.254739953204989"><ele></ele><time>2013-8-1T18:37:19Z</time></trkpt>
<trkpt lat="46.10799481160939" lon="7.254792843014002"><ele></ele><time>2013-8-1T18:37:22Z</time></trkpt>
<trkpt lat="46.107981987297535" lon="7.254890156909823"><ele></ele><time>2013-8-1T18:37:25Z</time></trkpt>
<trkpt lat="46.10798123292625" lon="7.254910776391625"><ele></ele><time>2013-8-1T18:37:28Z</time></trkpt>
<trkpt lat="46.107978634536266" lon="7.254926702007651"><ele></ele><time>2013-8-1T18:37:31Z</time></trkpt>
<trkpt lat="46.10797620378435" lon="7.25494472309947"><ele></ele><time>2013-8-1T18:37:34Z</time></trkpt>
<trkpt lat="46.1079734377563" lon="7.254962828010321"><ele></ele><time>2013-8-1T18:37:37Z</time></trkpt>
<trkpt lat="46.10796120017767" lon="7.255031391978264"><ele></ele><time>2013-8-1T18:37:40Z</time></trkpt>
<trkpt lat="46.10795332118869" lon="7.255090232938528"><ele></ele><time>2013-8-1T18:37:43Z</time></trkpt>
<trkpt lat="46.10794703476131" lon="7.255110600963235"><ele></ele><time>2013-8-1T18:37:46Z</time></trkpt>
<trkpt lat="46.107944855466485" lon="7.255128705874085"><ele></ele><time>2013-8-1T18:37:49Z</time></trkpt>
<trkpt lat="46.1079406645149" lon="7.255149409174919"><ele></ele><time>2013-8-1T18:37:52Z</time></trkpt>
<trkpt lat="46.10792859457433" lon="7.255167178809643"><ele></ele><time>2013-8-1T18:37:55Z</time></trkpt>
<trkpt lat="46.10791828483343" lon="7.255185283720493"><ele></ele><time>2013-8-1T18:37:58Z</time></trkpt>
<trkpt lat="46.10788836143911" lon="7.255289889872074"><ele></ele><time>2013-8-1T18:38:1Z</time></trkpt>
<trkpt lat="46.107887690886855" lon="7.255310257896781"><ele></ele><time>2013-8-1T18:38:4Z</time></trkpt>
<trkpt lat="46.10788609832525" lon="7.255327524617314"><ele></ele><time>2013-8-1T18:38:7Z</time></trkpt>
<trkpt lat="46.107879308983684" lon="7.255340600386262"><ele></ele><time>2013-8-1T18:38:10Z</time></trkpt>
<trkpt lat="46.107876878231764" lon="7.255350574851036"><ele></ele><time>2013-8-1T18:38:13Z</time></trkpt>
<trkpt lat="46.10784972086549" lon="7.255410337820649"><ele></ele><time>2013-8-1T18:38:16Z</time></trkpt>
<trkpt lat="46.107836309820414" lon="7.255442859604955"><ele></ele><time>2013-8-1T18:38:19Z</time></trkpt>
<trkpt lat="46.10783010721207" lon="7.255457863211632"><ele></ele><time>2013-8-1T18:38:22Z</time></trkpt>
<trkpt lat="46.10782180912793" lon="7.255469597876072"><ele></ele><time>2013-8-1T18:38:25Z</time></trkpt>
<trkpt lat="46.10781569033861" lon="7.2554836794734"><ele></ele><time>2013-8-1T18:38:28Z</time></trkpt>
<trkpt lat="46.10780873335898" lon="7.2554947435855865"><ele></ele><time>2013-8-1T18:38:31Z</time></trkpt>
<trkpt lat="46.10779867507517" lon="7.255501952022314"><ele></ele><time>2013-8-1T18:38:34Z</time></trkpt>
<trkpt lat="46.10772424377501" lon="7.2556167002767324"><ele></ele><time>2013-8-1T18:38:37Z</time></trkpt>
<trkpt lat="46.10771837644279" lon="7.2556317038834095"><ele></ele><time>2013-8-1T18:38:40Z</time></trkpt>
<trkpt lat="46.107710748910904" lon="7.255644612014294"><ele></ele><time>2013-8-1T18:38:43Z</time></trkpt>
<trkpt lat="46.10769993625581" lon="7.255658442154527"><ele></ele><time>2013-8-1T18:38:46Z</time></trkpt>
<trkpt lat="46.10769004561007" lon="7.25566933862865"><ele></ele><time>2013-8-1T18:38:49Z</time></trkpt>
<trkpt lat="46.10767814330757" lon="7.255694484338164"><ele></ele><time>2013-8-1T18:38:52Z</time></trkpt>
<trkpt lat="46.107633635401726" lon="7.255784338340163"><ele></ele><time>2013-8-1T18:38:55Z</time></trkpt>
<trkpt lat="46.107624834403396" lon="7.255798587575555"><ele></ele><time>2013-8-1T18:38:58Z</time></trkpt>
<trkpt lat="46.107614608481526" lon="7.255812920629978"><ele></ele><time>2013-8-1T18:39:1Z</time></trkpt>
<trkpt lat="46.10760438255966" lon="7.255825828760862"><ele></ele><time>2013-8-1T18:39:4Z</time></trkpt>
<trkpt lat="46.10759289935231" lon="7.255838485434651"><ele></ele><time>2013-8-1T18:39:7Z</time></trkpt>
<trkpt lat="46.10755668953061" lon="7.2558914590626955"><ele></ele><time>2013-8-1T18:39:10Z</time></trkpt>
<trkpt lat="46.1075452901423" lon="7.25590193644166"><ele></ele><time>2013-8-1T18:39:13Z</time></trkpt>
<trkpt lat="46.10751746222377" lon="7.255938230082393"><ele></ele><time>2013-8-1T18:39:16Z</time></trkpt>
<trkpt lat="46.10750488936901" lon="7.255949378013611"><ele></ele><time>2013-8-1T18:39:19Z</time></trkpt>
<trkpt lat="46.107495250180364" lon="7.25595616735518"><ele></ele><time>2013-8-1T18:39:22Z</time></trkpt>
<trkpt lat="46.10748971812427" lon="7.255973182618618"><ele></ele><time>2013-8-1T18:39:25Z</time></trkpt>
<trkpt lat="46.107481587678194" lon="7.255986845120788"><ele></ele><time>2013-8-1T18:39:28Z</time></trkpt>
<trkpt lat="46.107454262673855" lon="7.256026491522789"><ele></ele><time>2013-8-1T18:39:31Z</time></trkpt>
<trkpt lat="46.10741931013763" lon="7.2560778725892305"><ele></ele><time>2013-8-1T18:39:34Z</time></trkpt>
<trkpt lat="46.1074086651206" lon="7.256090696901083"><ele></ele><time>2013-8-1T18:39:37Z</time></trkpt>
<trkpt lat="46.10739936120808" lon="7.256102012470365"><ele></ele><time>2013-8-1T18:39:40Z</time></trkpt>
<trkpt lat="46.107392236590385" lon="7.256112908944488"><ele></ele><time>2013-8-1T18:39:43Z</time></trkpt>
<trkpt lat="46.10738360323012" lon="7.256123973056674"><ele></ele><time>2013-8-1T18:39:46Z</time></trkpt>
<trkpt lat="46.1073447111994" lon="7.256213827058673"><ele></ele><time>2013-8-1T18:39:49Z</time></trkpt>
<trkpt lat="46.10733532346785" lon="7.256226483732462"><ele></ele><time>2013-8-1T18:39:52Z</time></trkpt>
<trkpt lat="46.10732853412628" lon="7.256239894777536"><ele></ele><time>2013-8-1T18:39:55Z</time></trkpt>
<trkpt lat="46.10731973312795" lon="7.256250204518437"><ele></ele><time>2013-8-1T18:39:58Z</time></trkpt>
<trkpt lat="46.10731151886284" lon="7.256262609735131"><ele></ele><time>2013-8-1T18:40:1Z</time></trkpt>
<trkpt lat="46.10729718580842" lon="7.256286749616265"><ele></ele><time>2013-8-1T18:40:4Z</time></trkpt>
<trkpt lat="46.107265166938305" lon="7.256317762658"><ele></ele><time>2013-8-1T18:40:7Z</time></trkpt>
<trkpt lat="46.10725569538772" lon="7.256330754607916"><ele></ele><time>2013-8-1T18:40:10Z</time></trkpt>
<trkpt lat="46.10724647529423" lon="7.256339974701405"><ele></ele><time>2013-8-1T18:40:13Z</time></trkpt>
<trkpt lat="46.10723616555333" lon="7.256347183138132"><ele></ele><time>2013-8-1T18:40:16Z</time></trkpt>
<trkpt lat="46.107227113097906" lon="7.256353888660669"><ele></ele><time>2013-8-1T18:40:19Z</time></trkpt>
<trkpt lat="46.107214288786054" lon="7.25636369548738"><ele></ele><time>2013-8-1T18:40:22Z</time></trkpt>
<trkpt lat="46.10719400458038" lon="7.25638029165566"><ele></ele><time>2013-8-1T18:40:25Z</time></trkpt>
<trkpt lat="46.10717757605016" lon="7.256404012441635"><ele></ele><time>2013-8-1T18:40:28Z</time></trkpt>
<trkpt lat="46.10713558271527" lon="7.256460003554821"><ele></ele><time>2013-8-1T18:40:31Z</time></trkpt>
<trkpt lat="46.10712870955467" lon="7.256471486762166"><ele></ele><time>2013-8-1T18:40:34Z</time></trkpt>
<trkpt lat="46.10712435096502" lon="7.2564878314733505"><ele></ele><time>2013-8-1T18:40:37Z</time></trkpt>
<trkpt lat="46.10711789689958" lon="7.256504846736789"><ele></ele><time>2013-8-1T18:40:40Z</time></trkpt>
<trkpt lat="46.10711035318673" lon="7.25652202963829"><ele></ele><time>2013-8-1T18:40:43Z</time></trkpt>
<trkpt lat="46.107093170285225" lon="7.256544912233949"><ele></ele><time>2013-8-1T18:40:46Z</time></trkpt>
<trkpt lat="46.10707682557404" lon="7.256569219753146"><ele></ele><time>2013-8-1T18:40:49Z</time></trkpt>
<trkpt lat="46.10705620609224" lon="7.256593108177185"><ele></ele><time>2013-8-1T18:40:52Z</time></trkpt>
<trkpt lat="46.107035502791405" lon="7.256632251664996"><ele></ele><time>2013-8-1T18:40:55Z</time></trkpt>
<trkpt lat="46.107031060382724" lon="7.256637867540121"><ele></ele><time>2013-8-1T18:40:58Z</time></trkpt>
<trkpt lat="46.1070217564702" lon="7.256647842004895"><ele></ele><time>2013-8-1T18:41:1Z</time></trkpt>
<trkpt lat="46.107018571347" lon="7.256661923602223"><ele></ele><time>2013-8-1T18:41:4Z</time></trkpt>
<trkpt lat="46.10701270401478" lon="7.256679944694042"><ele></ele><time>2013-8-1T18:41:7Z</time></trkpt>
<trkpt lat="46.10699191689491" lon="7.256700312718749"><ele></ele><time>2013-8-1T18:41:10Z</time></trkpt>
<trkpt lat="46.106985714286566" lon="7.256717914715409"><ele></ele><time>2013-8-1T18:41:13Z</time></trkpt>
<trkpt lat="46.10697993077338" lon="7.256731828674674"><ele></ele><time>2013-8-1T18:41:16Z</time></trkpt>
<trkpt lat="46.10696819610894" lon="7.256760410964489"><ele></ele><time>2013-8-1T18:41:19Z</time></trkpt>
<trkpt lat="46.1069598980248" lon="7.256775498390198"><ele></ele><time>2013-8-1T18:41:22Z</time></trkpt>
<trkpt lat="46.10695034265518" lon="7.256787484511733"><ele></ele><time>2013-8-1T18:41:25Z</time></trkpt>
<trkpt lat="46.10693911090493" lon="7.25679712370038"><ele></ele><time>2013-8-1T18:41:28Z</time></trkpt>
<trkpt lat="46.10693408176303" lon="7.2568094450980425"><ele></ele><time>2013-8-1T18:41:31Z</time></trkpt>
<trkpt lat="46.10689317807555" lon="7.256848169490695"><ele></ele><time>2013-8-1T18:41:34Z</time></trkpt>
<trkpt lat="46.10683978535235" lon="7.256886474788189"><ele></ele><time>2013-8-1T18:41:37Z</time></trkpt>
<trkpt lat="46.10683333128691" lon="7.256897035986185"><ele></ele><time>2013-8-1T18:41:40Z</time></trkpt>
<trkpt lat="46.10682520084083" lon="7.256903490051627"><ele></ele><time>2013-8-1T18:41:43Z</time></trkpt>
<trkpt lat="46.106812711805105" lon="7.256905250251293"><ele></ele><time>2013-8-1T18:41:46Z</time></trkpt>
<trkpt lat="46.10680256970227" lon="7.256915559992194"><ele></ele><time>2013-8-1T18:41:49Z</time></trkpt>
<trkpt lat="46.10680407844484" lon="7.256946573033929"><ele></ele><time>2013-8-1T18:41:52Z</time></trkpt>
<trkpt lat="46.10683970153332" lon="7.256976077333093"><ele></ele><time>2013-8-1T18:41:55Z</time></trkpt>
<trkpt lat="46.10685462132096" lon="7.256980519741774"><ele></ele><time>2013-8-1T18:41:58Z</time></trkpt>
<trkpt lat="46.10686752945185" lon="7.2569849621504545"><ele></ele><time>2013-8-1T18:42:1Z</time></trkpt>
<trkpt lat="46.106882113963366" lon="7.25697984918952"><ele></ele><time>2013-8-1T18:42:4Z</time></trkpt>
<trkpt lat="46.1068959441036" lon="7.2569717187434435"><ele></ele><time>2013-8-1T18:42:7Z</time></trkpt>
<trkpt lat="46.10690617002547" lon="7.256960403174162"><ele></ele><time>2013-8-1T18:42:10Z</time></trkpt>
<trkpt lat="46.106942715123296" lon="7.2569402027875185"><ele></ele><time>2013-8-1T18:42:13Z</time></trkpt>
<trkpt lat="46.10695570707321" lon="7.2569366823881865"><ele></ele><time>2013-8-1T18:42:16Z</time></trkpt>
<trkpt lat="46.106966687366366" lon="7.256937101483345"><ele></ele><time>2013-8-1T18:42:19Z</time></trkpt>
<trkpt lat="46.106976410374045" lon="7.2569390293210745"><ele></ele><time>2013-8-1T18:42:22Z</time></trkpt>
<trkpt lat="46.106985630467534" lon="7.256932659074664"><ele></ele><time>2013-8-1T18:42:25Z</time></trkpt>
<trkpt lat="46.107010608538985" lon="7.256923941895366"><ele></ele><time>2013-8-1T18:42:28Z</time></trkpt>
<trkpt lat="46.10705838538706" lon="7.256895275786519"><ele></ele><time>2013-8-1T18:42:31Z</time></trkpt>
<trkpt lat="46.10706953331828" lon="7.256888570263982"><ele></ele><time>2013-8-1T18:42:34Z</time></trkpt>
<trkpt lat="46.10708168707788" lon="7.256882283836603"><ele></ele><time>2013-8-1T18:42:37Z</time></trkpt>
<trkpt lat="46.10709249973297" lon="7.256877087056637"><ele></ele><time>2013-8-1T18:42:40Z</time></trkpt>
<trkpt lat="46.107104402035475" lon="7.25686845369637"><ele></ele><time>2013-8-1T18:42:43Z</time></trkpt>
<trkpt lat="46.107130302116275" lon="7.256861831992865"><ele></ele><time>2013-8-1T18:42:46Z</time></trkpt>
<trkpt lat="46.10717665404081" lon="7.256852276623249"><ele></ele><time>2013-8-1T18:42:49Z</time></trkpt>
<trkpt lat="46.107186460867524" lon="7.2568506840616465"><ele></ele><time>2013-8-1T18:42:52Z</time></trkpt>
<trkpt lat="46.107198782265186" lon="7.256848169490695"><ele></ele><time>2013-8-1T18:42:55Z</time></trkpt>
<trkpt lat="46.107209008187056" lon="7.256848840042949"><ele></ele><time>2013-8-1T18:42:58Z</time></trkpt>
<trkpt lat="46.10721982084215" lon="7.256849762052298"><ele></ele><time>2013-8-1T18:43:1Z</time></trkpt>
<trkpt lat="46.10723348334432" lon="7.256848001852632"><ele></ele><time>2013-8-1T18:43:4Z</time></trkpt>
<trkpt lat="46.10727287828922" lon="7.256837859749794"><ele></ele><time>2013-8-1T18:43:7Z</time></trkpt>
<trkpt lat="46.10730791464448" lon="7.256825873628259"><ele></ele><time>2013-8-1T18:43:10Z</time></trkpt>
<trkpt lat="46.107317386195064" lon="7.256826208904386"><ele></ele><time>2013-8-1T18:43:13Z</time></trkpt>
<trkpt lat="46.10733188688755" lon="7.256818749010563"><ele></ele><time>2013-8-1T18:43:16Z</time></trkpt>
<trkpt lat="46.10734412446618" lon="7.256813803687692"><ele></ele><time>2013-8-1T18:43:19Z</time></trkpt>
<trkpt lat="46.10735569149256" lon="7.256804583594203"><ele></ele><time>2013-8-1T18:43:22Z</time></trkpt>
<trkpt lat="46.107424423098564" lon="7.2567652724683285"><ele></ele><time>2013-8-1T18:43:25Z</time></trkpt>
<trkpt lat="46.1074382532388" lon="7.256757561117411"><ele></ele><time>2013-8-1T18:43:28Z</time></trkpt>
<trkpt lat="46.10744998790324" lon="7.256756303831935"><ele></ele><time>2013-8-1T18:43:31Z</time></trkpt>
<trkpt lat="46.10745979472995" lon="7.256751777604222"><ele></ele><time>2013-8-1T18:43:34Z</time></trkpt>
<trkpt lat="46.107469853013754" lon="7.256747670471668"><ele></ele><time>2013-8-1T18:43:37Z</time></trkpt>
<trkpt lat="46.107482593506575" lon="7.256743060424924"><ele></ele><time>2013-8-1T18:43:40Z</time></trkpt>
<trkpt lat="46.107493825256824" lon="7.256735349074006"><ele></ele><time>2013-8-1T18:43:43Z</time></trkpt>
<trkpt lat="46.10759038478136" lon="7.256692349910736"><ele></ele><time>2013-8-1T18:43:46Z</time></trkpt>
<trkpt lat="46.10760170035064" lon="7.256694193929434"><ele></ele><time>2013-8-1T18:43:49Z</time></trkpt>
<trkpt lat="46.10761511139572" lon="7.25669645704329"><ele></ele><time>2013-8-1T18:43:52Z</time></trkpt>
<trkpt lat="46.107628690078855" lon="7.256692266091704"><ele></ele><time>2013-8-1T18:43:55Z</time></trkpt>
<trkpt lat="46.10764151439071" lon="7.2566913440823555"><ele></ele><time>2013-8-1T18:43:58Z</time></trkpt>
<trkpt lat="46.10765157267451" lon="7.256681201979518"><ele></ele><time>2013-8-1T18:44:1Z</time></trkpt>
<trkpt lat="46.10766347497702" lon="7.256669718772173"><ele></ele><time>2013-8-1T18:44:4Z</time></trkpt>
<trkpt lat="46.10774134285748" lon="7.256653876975179"><ele></ele><time>2013-8-1T18:44:7Z</time></trkpt>
<trkpt lat="46.10775399953127" lon="7.256659744307399"><ele></ele><time>2013-8-1T18:44:10Z</time></trkpt>
<trkpt lat="46.10776489600539" lon="7.256659911945462"><ele></ele><time>2013-8-1T18:44:13Z</time></trkpt>
<trkpt lat="46.107779229059815" lon="7.256660079583526"><ele></ele><time>2013-8-1T18:44:16Z</time></trkpt>
<trkpt lat="46.10778920352459" lon="7.256659660488367"><ele></ele><time>2013-8-1T18:44:19Z</time></trkpt>
<trkpt lat="46.10781074501574" lon="7.256666952744126"><ele></ele><time>2013-8-1T18:44:22Z</time></trkpt>
<trkpt lat="46.107823150232434" lon="7.256672065705061"><ele></ele><time>2013-8-1T18:44:25Z</time></trkpt>
<trkpt lat="46.1078973300755" lon="7.256677094846964"><ele></ele><time>2013-8-1T18:44:28Z</time></trkpt>
<trkpt lat="46.107909651473165" lon="7.256670976057649"><ele></ele><time>2013-8-1T18:44:31Z</time></trkpt>
<trkpt lat="46.107919877395034" lon="7.256662342697382"><ele></ele><time>2013-8-1T18:44:34Z</time></trkpt>
<trkpt lat="46.107933623716235" lon="7.256654631346464"><ele></ele><time>2013-8-1T18:44:37Z</time></trkpt>
<trkpt lat="46.10794644802809" lon="7.2566448245197535"><ele></ele><time>2013-8-1T18:44:40Z</time></trkpt>
<trkpt lat="46.10797142609954" lon="7.256628228351474"><ele></ele><time>2013-8-1T18:44:43Z</time></trkpt>
<trkpt lat="46.10800034366548" lon="7.2566127218306065"><ele></ele><time>2013-8-1T18:44:46Z</time></trkpt>
<trkpt lat="46.1080252379179" lon="7.2566029988229275"><ele></ele><time>2013-8-1T18:44:49Z</time></trkpt>
<trkpt lat="46.108037140220404" lon="7.256594114005566"><ele></ele><time>2013-8-1T18:44:52Z</time></trkpt>
<trkpt lat="46.10804803669453" lon="7.2565812058746815"><ele></ele><time>2013-8-1T18:44:55Z</time></trkpt>
<trkpt lat="46.1080614477396" lon="7.256575506180525"><ele></ele><time>2013-8-1T18:44:58Z</time></trkpt>
<trkpt lat="46.10807930119336" lon="7.2565720696002245"><ele></ele><time>2013-8-1T18:45:1Z</time></trkpt>
<trkpt lat="46.10809321515262" lon="7.256565783172846"><ele></ele><time>2013-8-1T18:45:4Z</time></trkpt>
<trkpt lat="46.1081304308027" lon="7.256561843678355"><ele></ele><time>2013-8-1T18:45:7Z</time></trkpt>
<trkpt lat="46.10815733671188" lon="7.256567124277353"><ele></ele><time>2013-8-1T18:45:10Z</time></trkpt>
<trkpt lat="46.10816974192858" lon="7.256565699353814"><ele></ele><time>2013-8-1T18:45:13Z</time></trkpt>
<trkpt lat="46.10818290151656" lon="7.25655622780323"><ele></ele><time>2013-8-1T18:45:16Z</time></trkpt>
<trkpt lat="46.108196564018726" lon="7.25655522197485"><ele></ele><time>2013-8-1T18:45:19Z</time></trkpt>
<trkpt lat="46.1082065384835" lon="7.256552455946803"><ele></ele><time>2013-8-1T18:45:22Z</time></trkpt>
<trkpt lat="46.10821433365345" lon="7.256549438461661"><ele></ele><time>2013-8-1T18:45:25Z</time></trkpt>
<trkpt lat="46.10822665505111" lon="7.256540805101395"><ele></ele><time>2013-8-1T18:45:28Z</time></trkpt>
<trkpt lat="46.10830217599869" lon="7.256555976346135"><ele></ele><time>2013-8-1T18:45:31Z</time></trkpt>
<trkpt lat="46.10831491649151" lon="7.256551533937454"><ele></ele><time>2013-8-1T18:45:34Z</time></trkpt>
<trkpt lat="46.108331428840756" lon="7.256548432633281"><ele></ele><time>2013-8-1T18:45:37Z</time></trkpt>
<trkpt lat="46.10834433697164" lon="7.256547594442964"><ele></ele><time>2013-8-1T18:45:40Z</time></trkpt>
<trkpt lat="46.10839990898967" lon="7.2565405536442995"><ele></ele><time>2013-8-1T18:45:43Z</time></trkpt>
<trkpt lat="46.10841223038733" lon="7.256537871435285"><ele></ele><time>2013-8-1T18:45:46Z</time></trkpt>
<trkpt lat="46.10842547379434" lon="7.256537787616253"><ele></ele><time>2013-8-1T18:45:49Z</time></trkpt>
<trkpt lat="46.108436957001686" lon="7.256534686312079"><ele></ele><time>2013-8-1T18:45:52Z</time></trkpt>
<trkpt lat="46.10844684764743" lon="7.25652982480824"><ele></ele><time>2013-8-1T18:45:55Z</time></trkpt>
<trkpt lat="46.10846118070185" lon="7.256528651341796"><ele></ele><time>2013-8-1T18:45:58Z</time></trkpt>
<trkpt lat="46.108474088832736" lon="7.256517335772514"><ele></ele><time>2013-8-1T18:46:1Z</time></trkpt>
<trkpt lat="46.10848465003073" lon="7.256507696583867"><ele></ele><time>2013-8-1T18:46:4Z</time></trkpt>
<trkpt lat="46.10854424536228" lon="7.256487160921097"><ele></ele><time>2013-8-1T18:46:7Z</time></trkpt>
<trkpt lat="46.10855530947447" lon="7.256481377407908"><ele></ele><time>2013-8-1T18:46:10Z</time></trkpt>
<trkpt lat="46.108571318909526" lon="7.256476432085037"><ele></ele><time>2013-8-1T18:46:13Z</time></trkpt>
<trkpt lat="46.10858422704041" lon="7.256479617208242"><ele></ele><time>2013-8-1T18:46:16Z</time></trkpt>
<trkpt lat="46.1085984762758" lon="7.256480371579528"><ele></ele><time>2013-8-1T18:46:19Z</time></trkpt>
<trkpt lat="46.10861029475927" lon="7.256470983847976"><ele></ele><time>2013-8-1T18:46:22Z</time></trkpt>
<trkpt lat="46.10862244851887" lon="7.256466122344136"><ele></ele><time>2013-8-1T18:46:25Z</time></trkpt>
<trkpt lat="46.108669554814696" lon="7.256460506469011"><ele></ele><time>2013-8-1T18:46:28Z</time></trkpt>
<trkpt lat="46.10868204385042" lon="7.256452292203903"><ele></ele><time>2013-8-1T18:46:31Z</time></trkpt>
<trkpt lat="46.10869428142905" lon="7.256452376022935"><ele></ele><time>2013-8-1T18:46:34Z</time></trkpt>
<trkpt lat="46.10870601609349" lon="7.256452459841967"><ele></ele><time>2013-8-1T18:46:37Z</time></trkpt>
<trkpt lat="46.10872001387179" lon="7.256458662450314"><ele></ele><time>2013-8-1T18:46:40Z</time></trkpt>
<trkpt lat="46.108734933659434" lon="7.256459333002567"><ele></ele><time>2013-8-1T18:46:43Z</time></trkpt>
<trkpt lat="46.10877273604274" lon="7.256494788452983"><ele></ele><time>2013-8-1T18:46:46Z</time></trkpt>
<trkpt lat="46.10881833359599" lon="7.256527058780193"><ele></ele><time>2013-8-1T18:46:49Z</time></trkpt>
<trkpt lat="46.10883107408881" lon="7.25653812289238"><ele></ele><time>2013-8-1T18:46:52Z</time></trkpt>
<trkpt lat="46.108843898400664" lon="7.256546588614583"><ele></ele><time>2013-8-1T18:46:55Z</time></trkpt>
<trkpt lat="46.108857644721866" lon="7.25655329413712"><ele></ele><time>2013-8-1T18:46:58Z</time></trkpt>
<trkpt lat="46.10887139104307" lon="7.256556982174516"><ele></ele><time>2013-8-1T18:47:1Z</time></trkpt>
<trkpt lat="46.108936266973615" lon="7.256581708788872"><ele></ele><time>2013-8-1T18:47:4Z</time></trkpt>
<trkpt lat="46.10894674435258" lon="7.256589671596885"><ele></ele><time>2013-8-1T18:47:7Z</time></trkpt>
<trkpt lat="46.10895663499832" lon="7.256600568071008"><ele></ele><time>2013-8-1T18:47:10Z</time></trkpt>
<trkpt lat="46.10896568745375" lon="7.256602579727769"><ele></ele><time>2013-8-1T18:47:13Z</time></trkpt>
<trkpt lat="46.108982702717185" lon="7.25660459138453"><ele></ele><time>2013-8-1T18:47:16Z</time></trkpt>
<trkpt lat="46.10901505686343" lon="7.256616996601224"><ele></ele><time>2013-8-1T18:47:19Z</time></trkpt>
<trkpt lat="46.10904925502837" lon="7.256625881418586"><ele></ele><time>2013-8-1T18:47:22Z</time></trkpt>
<trkpt lat="46.10907247290015" lon="7.2566345147788525"><ele></ele><time>2013-8-1T18:47:25Z</time></trkpt>
<trkpt lat="46.10908747650683" lon="7.256632167845964"><ele></ele><time>2013-8-1T18:47:28Z</time></trkpt>
<trkpt lat="46.10910122282803" lon="7.256634933874011"><ele></ele><time>2013-8-1T18:47:31Z</time></trkpt>
<trkpt lat="46.1091130413115" lon="7.256633760407567"><ele></ele><time>2013-8-1T18:47:34Z</time></trkpt>
<trkpt lat="46.109126368537545" lon="7.256643651053309"><ele></ele><time>2013-8-1T18:47:37Z</time></trkpt>
<trkpt lat="46.10919979400933" lon="7.2566781006753445"><ele></ele><time>2013-8-1T18:47:40Z</time></trkpt>
<trkpt lat="46.10924287699163" lon="7.256739707663655"><ele></ele><time>2013-8-1T18:47:43Z</time></trkpt>
<trkpt lat="46.10925318673253" lon="7.256748843938112"><ele></ele><time>2013-8-1T18:47:46Z</time></trkpt>
<trkpt lat="46.10926785506308" lon="7.256753705441952"><ele></ele><time>2013-8-1T18:47:49Z</time></trkpt>
<trkpt lat="46.10928528942168" lon="7.256759824231267"><ele></ele><time>2013-8-1T18:47:52Z</time></trkpt>
<trkpt lat="46.10929308459163" lon="7.256763093173504"><ele></ele><time>2013-8-1T18:47:55Z</time></trkpt>
<trkpt lat="46.109292497858405" lon="7.256761165335774"><ele></ele><time>2013-8-1T18:47:58Z</time></trkpt>
<trkpt lat="46.10929719172418" lon="7.256796956062317"><ele></ele><time>2013-8-1T18:48:1Z</time></trkpt>
<trkpt lat="46.109305238351226" lon="7.256829729303718"><ele></ele><time>2013-8-1T18:48:4Z</time></trkpt>
<trkpt lat="46.10930775292218" lon="7.256838530302048"><ele></ele><time>2013-8-1T18:48:7Z</time></trkpt>
<trkpt lat="46.10930875875056" lon="7.256850181147456"><ele></ele><time>2013-8-1T18:48:10Z</time></trkpt>
<trkpt lat="46.109311021864414" lon="7.2568553779274225"><ele></ele><time>2013-8-1T18:48:13Z</time></trkpt>
<trkpt lat="46.109315967187285" lon="7.256860071793199"><ele></ele><time>2013-8-1T18:48:16Z</time></trkpt>
<trkpt lat="46.10932535491884" lon="7.25689385086298"><ele></ele><time>2013-8-1T18:48:19Z</time></trkpt>
<trkpt lat="46.10932535491884" lon="7.25689385086298"><ele></ele><time>2013-8-1T18:48:22Z</time></trkpt>
<trkpt lat="46.109324768185616" lon="7.256894102320075"><ele></ele><time>2013-8-1T18:48:25Z</time></trkpt>
<trkpt lat="46.109324768185616" lon="7.256894102320075"><ele></ele><time>2013-8-1T18:48:28Z</time></trkpt>
<trkpt lat="46.109324768185616" lon="7.256894102320075"><ele></ele><time>2013-8-1T18:48:31Z</time></trkpt>
<trkpt lat="46.109324768185616" lon="7.256894102320075"><ele></ele><time>2013-8-1T18:48:34Z</time></trkpt>
<trkpt lat="46.109324768185616" lon="7.256894102320075"><ele></ele><time>2013-8-1T18:48:37Z</time></trkpt>
<trkpt lat="46.109324768185616" lon="7.256894102320075"><ele></ele><time>2013-8-1T18:48:40Z</time></trkpt>
<trkpt lat="46.109324768185616" lon="7.256894102320075"><ele></ele><time>2013-8-1T18:48:43Z</time></trkpt>
<trkpt lat="46.109324768185616" lon="7.256894102320075"><ele></ele><time>2013-8-1T18:48:46Z</time></trkpt>
<trkpt lat="46.109324768185616" lon="7.256894102320075"><ele></ele><time>2013-8-1T18:48:49Z</time></trkpt>
<trkpt lat="46.109324768185616" lon="7.256894102320075"><ele></ele><time>2013-8-1T18:48:52Z</time></trkpt>
<trkpt lat="46.10933046787977" lon="7.256898880004883"><ele></ele><time>2013-8-1T18:48:55Z</time></trkpt>
<trkpt lat="46.10934077762067" lon="7.256897455081344"><ele></ele><time>2013-8-1T18:48:58Z</time></trkpt>
<trkpt lat="46.10938997939229" lon="7.25682595744729"><ele></ele><time>2013-8-1T18:49:1Z</time></trkpt>
<trkpt lat="46.10945535823703" lon="7.2568300645798445"><ele></ele><time>2013-8-1T18:49:4Z</time></trkpt>
<trkpt lat="46.10947497189045" lon="7.256830483675003"><ele></ele><time>2013-8-1T18:49:7Z</time></trkpt>
<trkpt lat="46.10949542373419" lon="7.256836518645287"><ele></ele><time>2013-8-1T18:49:10Z</time></trkpt>
<trkpt lat="46.10952090471983" lon="7.25684548728168"><ele></ele><time>2013-8-1T18:49:13Z</time></trkpt>
<trkpt lat="46.10954177565873" lon="7.256858730688691"><ele></ele><time>2013-8-1T18:49:16Z</time></trkpt>
<trkpt lat="46.109561221674085" lon="7.256861245259643"><ele></ele><time>2013-8-1T18:49:19Z</time></trkpt>
<trkpt lat="46.109582260251045" lon="7.256865352392197"><ele></ele><time>2013-8-1T18:49:22Z</time></trkpt>
<trkpt lat="46.109609669074416" lon="7.256871806457639"><ele></ele><time>2013-8-1T18:49:25Z</time></trkpt>
<trkpt lat="46.10963582061231" lon="7.2568703815341"><ele></ele><time>2013-8-1T18:49:28Z</time></trkpt>
<trkpt lat="46.109667336568236" lon="7.256864262744784"><ele></ele><time>2013-8-1T18:49:31Z</time></trkpt>
<trkpt lat="46.10969055444002" lon="7.256858143955469"><ele></ele><time>2013-8-1T18:49:34Z</time></trkpt>
<trkpt lat="46.10971477814019" lon="7.2568506840616465"><ele></ele><time>2013-8-1T18:49:37Z</time></trkpt>
<trkpt lat="46.10973095521331" lon="7.256856635212898"><ele></ele><time>2013-8-1T18:49:40Z</time></trkpt>
<trkpt lat="46.109752245247364" lon="7.256861831992865"><ele></ele><time>2013-8-1T18:49:43Z</time></trkpt>
<trkpt lat="46.10976959578693" lon="7.256866358220577"><ele></ele><time>2013-8-1T18:49:46Z</time></trkpt>
<trkpt lat="46.10979222692549" lon="7.256864095106721"><ele></ele><time>2013-8-1T18:49:49Z</time></trkpt>
<trkpt lat="46.10981510952115" lon="7.256867531687021"><ele></ele><time>2013-8-1T18:49:52Z</time></trkpt>
<trkpt lat="46.10983807593584" lon="7.256881697103381"><ele></ele><time>2013-8-1T18:49:55Z</time></trkpt>
<trkpt lat="46.109865652397275" lon="7.256881864741445"><ele></ele><time>2013-8-1T18:49:58Z</time></trkpt>
<trkpt lat="46.10989440232515" lon="7.256891001015902"><ele></ele><time>2013-8-1T18:50:1Z</time></trkpt>
<trkpt lat="46.10991770401597" lon="7.256906842812896"><ele></ele><time>2013-8-1T18:50:4Z</time></trkpt>
<trkpt lat="46.109941927716136" lon="7.256920337677002"><ele></ele><time>2013-8-1T18:50:7Z</time></trkpt>
<trkpt lat="46.10996933653951" lon="7.256945902481675"><ele></ele><time>2013-8-1T18:50:10Z</time></trkpt>
<trkpt lat="46.10998945310712" lon="7.2569602355360985"><ele></ele><time>2013-8-1T18:50:13Z</time></trkpt>
<trkpt lat="46.11000286415219" lon="7.256974568590522"><ele></ele><time>2013-8-1T18:50:16Z</time></trkpt>
<trkpt lat="46.11002423800528" lon="7.256980016827583"><ele></ele><time>2013-8-1T18:50:19Z</time></trkpt>
<trkpt lat="46.11004468984902" lon="7.256991416215897"><ele></ele><time>2013-8-1T18:50:22Z</time></trkpt>
<trkpt lat="46.11005801707506" lon="7.257014214992523"><ele></ele><time>2013-8-1T18:50:25Z</time></trkpt>
<trkpt lat="46.11007218249142" lon="7.257039360702038"><ele></ele><time>2013-8-1T18:50:28Z</time></trkpt>
<trkpt lat="46.11009079031646" lon="7.257040534168482"><ele></ele><time>2013-8-1T18:50:31Z</time></trkpt>
<trkpt lat="46.11010738648474" lon="7.257054280489683"><ele></ele><time>2013-8-1T18:50:34Z</time></trkpt>
<trkpt lat="46.1101286765188" lon="7.257076492533088"><ele></ele><time>2013-8-1T18:50:37Z</time></trkpt>
<trkpt lat="46.110143261030316" lon="7.257094429805875"><ele></ele><time>2013-8-1T18:50:40Z</time></trkpt>
<trkpt lat="46.110153486952186" lon="7.257118318229914"><ele></ele><time>2013-8-1T18:50:43Z</time></trkpt>
<trkpt lat="46.110170502215624" lon="7.25712837651372"><ele></ele><time>2013-8-1T18:50:46Z</time></trkpt>
<trkpt lat="46.11018592491746" lon="7.257138350978494"><ele></ele><time>2013-8-1T18:50:49Z</time></trkpt>
<trkpt lat="46.110199335962534" lon="7.257167939096689"><ele></ele><time>2013-8-1T18:50:52Z</time></trkpt>
<trkpt lat="46.110208723694086" lon="7.257197694852948"><ele></ele><time>2013-8-1T18:50:55Z</time></trkpt>
<trkpt lat="46.11022364348173" lon="7.257235497236252"><ele></ele><time>2013-8-1T18:50:58Z</time></trkpt>
<trkpt lat="46.110232109203935" lon="7.257268354296684"><ele></ele><time>2013-8-1T18:51:1Z</time></trkpt>
<trkpt lat="46.11025197431445" lon="7.257287800312042"><ele></ele><time>2013-8-1T18:51:4Z</time></trkpt>
<trkpt lat="46.11026966013014" lon="7.257313029840589"><ele></ele><time>2013-8-1T18:51:7Z</time></trkpt>
<trkpt lat="46.110286843031645" lon="7.257332308217883"><ele></ele><time>2013-8-1T18:51:10Z</time></trkpt>
<trkpt lat="46.11030084080994" lon="7.257362985983491"><ele></ele><time>2013-8-1T18:51:13Z</time></trkpt>
<trkpt lat="46.110313246026635" lon="7.257396932691336"><ele></ele><time>2013-8-1T18:51:16Z</time></trkpt>
<trkpt lat="46.11032431013882" lon="7.257427275180817"><ele></ele><time>2013-8-1T18:51:19Z</time></trkpt>
<trkpt lat="46.11035297624767" lon="7.257444290444255"><ele></ele><time>2013-8-1T18:51:22Z</time></trkpt>
<trkpt lat="46.11036462709308" lon="7.257469268515706"><ele></ele><time>2013-8-1T18:51:25Z</time></trkpt>
<trkpt lat="46.11037401482463" lon="7.25749097764492"><ele></ele><time>2013-8-1T18:51:28Z</time></trkpt>
<trkpt lat="46.110372338443995" lon="7.257489720359445"><ele></ele><time>2013-8-1T18:51:31Z</time></trkpt>
<trkpt lat="46.110374769195914" lon="7.2574900556355715"><ele></ele><time>2013-8-1T18:51:34Z</time></trkpt>
<trkpt lat="46.110374769195914" lon="7.2574900556355715"><ele></ele><time>2013-8-1T18:51:37Z</time></trkpt>
<trkpt lat="46.110374769195914" lon="7.2574900556355715"><ele></ele><time>2013-8-1T18:51:40Z</time></trkpt>
<trkpt lat="46.110374769195914" lon="7.2574900556355715"><ele></ele><time>2013-8-1T18:51:43Z</time></trkpt>
<trkpt lat="46.110374769195914" lon="7.2574900556355715"><ele></ele><time>2013-8-1T18:51:46Z</time></trkpt>
<trkpt lat="46.110374769195914" lon="7.2574900556355715"><ele></ele><time>2013-8-1T18:51:49Z</time></trkpt>
<trkpt lat="46.110374769195914" lon="7.2574900556355715"><ele></ele><time>2013-8-1T18:51:52Z</time></trkpt>
<trkpt lat="46.110374769195914" lon="7.2574900556355715"><ele></ele><time>2013-8-1T18:51:55Z</time></trkpt>
<trkpt lat="46.110374769195914" lon="7.2574900556355715"><ele></ele><time>2013-8-1T18:51:58Z</time></trkpt>
<trkpt lat="46.110374769195914" lon="7.2574900556355715"><ele></ele><time>2013-8-1T18:52:1Z</time></trkpt>
<trkpt lat="46.110374769195914" lon="7.2574900556355715"><ele></ele><time>2013-8-1T18:52:4Z</time></trkpt>
<trkpt lat="46.110374769195914" lon="7.2574900556355715"><ele></ele><time>2013-8-1T18:52:7Z</time></trkpt>
<trkpt lat="46.110374769195914" lon="7.2574900556355715"><ele></ele><time>2013-8-1T18:52:10Z</time></trkpt>
<trkpt lat="46.110374769195914" lon="7.2574900556355715"><ele></ele><time>2013-8-1T18:52:13Z</time></trkpt>
<trkpt lat="46.11037468537688" lon="7.2574894689023495"><ele></ele><time>2013-8-1T18:52:16Z</time></trkpt>
<trkpt lat="46.11037468537688" lon="7.2574894689023495"><ele></ele><time>2013-8-1T18:52:19Z</time></trkpt>
<trkpt lat="46.11037468537688" lon="7.2574894689023495"><ele></ele><time>2013-8-1T18:52:22Z</time></trkpt>
<trkpt lat="46.11037468537688" lon="7.2574894689023495"><ele></ele><time>2013-8-1T18:52:25Z</time></trkpt>
<trkpt lat="46.11037468537688" lon="7.2574894689023495"><ele></ele><time>2013-8-1T18:52:28Z</time></trkpt>
<trkpt lat="46.11037468537688" lon="7.2574894689023495"><ele></ele><time>2013-8-1T18:52:31Z</time></trkpt>
<trkpt lat="46.11037468537688" lon="7.2574894689023495"><ele></ele><time>2013-8-1T18:52:34Z</time></trkpt>
<trkpt lat="46.11037468537688" lon="7.2574894689023495"><ele></ele><time>2013-8-1T18:52:37Z</time></trkpt>
<trkpt lat="46.11037468537688" lon="7.2574894689023495"><ele></ele><time>2013-8-1T18:52:40Z</time></trkpt>
<trkpt lat="46.11037468537688" lon="7.2574894689023495"><ele></ele><time>2013-8-1T18:52:43Z</time></trkpt>
<trkpt lat="46.110374769195914" lon="7.2574900556355715"><ele></ele><time>2013-8-1T18:52:46Z</time></trkpt>
<trkpt lat="46.110374769195914" lon="7.2574900556355715"><ele></ele><time>2013-8-1T18:52:49Z</time></trkpt>
<trkpt lat="46.11038734205067" lon="7.257517548277974"><ele></ele><time>2013-8-1T18:52:52Z</time></trkpt>
<trkpt lat="46.11040762625635" lon="7.257539927959442"><ele></ele><time>2013-8-1T18:52:55Z</time></trkpt>
<trkpt lat="46.11046973615885" lon="7.257639756426215"><ele></ele><time>2013-8-1T18:52:58Z</time></trkpt>
<trkpt lat="46.11048901453614" lon="7.257661884650588"><ele></ele><time>2013-8-1T18:53:1Z</time></trkpt>
<trkpt lat="46.110501335933805" lon="7.257690047845244"><ele></ele><time>2013-8-1T18:53:4Z</time></trkpt>
<trkpt lat="46.110511561855674" lon="7.25770840421319"><ele></ele><time>2013-8-1T18:53:7Z</time></trkpt>
<trkpt lat="46.11051583662629" lon="7.257729945704341"><ele></ele><time>2013-8-1T18:53:10Z</time></trkpt>
<trkpt lat="46.11053243279457" lon="7.257747128605843"><ele></ele><time>2013-8-1T18:53:13Z</time></trkpt>
<trkpt lat="46.110549280419946" lon="7.257777890190482"><ele></ele><time>2013-8-1T18:53:16Z</time></trkpt>
<trkpt lat="46.11056948080659" lon="7.257812758907676"><ele></ele><time>2013-8-1T18:53:19Z</time></trkpt>
<trkpt lat="46.11058909446001" lon="7.257853830233216"><ele></ele><time>2013-8-1T18:53:22Z</time></trkpt>
<trkpt lat="46.1106033436954" lon="7.257887274026871"><ele></ele><time>2013-8-1T18:53:25Z</time></trkpt>
<trkpt lat="46.110618682578206" lon="7.2579229809343815"><ele></ele><time>2013-8-1T18:53:28Z</time></trkpt>
<trkpt lat="46.11063251271844" lon="7.257944019511342"><ele></ele><time>2013-8-1T18:53:31Z</time></trkpt>
<trkpt lat="46.11064785160124" lon="7.257984755560756"><ele></ele><time>2013-8-1T18:53:34Z</time></trkpt>
<trkpt lat="46.110656233504415" lon="7.258026916533709"><ele></ele><time>2013-8-1T18:53:37Z</time></trkpt>
<trkpt lat="46.110674757510424" lon="7.258053403347731"><ele></ele><time>2013-8-1T18:53:40Z</time></trkpt>
<trkpt lat="46.110690515488386" lon="7.258082572370768"><ele></ele><time>2013-8-1T18:53:43Z</time></trkpt>
<trkpt lat="46.110711470246315" lon="7.258111406117678"><ele></ele><time>2013-8-1T18:53:46Z</time></trkpt>
<trkpt lat="46.110727563500404" lon="7.258136300370097"><ele></ele><time>2013-8-1T18:53:49Z</time></trkpt>
<trkpt lat="46.11074206419289" lon="7.258157506585121"><ele></ele><time>2013-8-1T18:53:52Z</time></trkpt>
<trkpt lat="46.110772993415594" lon="7.258194051682949"><ele></ele><time>2013-8-1T18:53:55Z</time></trkpt>
<trkpt lat="46.110790595412254" lon="7.258229674771428"><ele></ele><time>2013-8-1T18:53:58Z</time></trkpt>
<trkpt lat="46.11079730093479" lon="7.258266555145383"><ele></ele><time>2013-8-1T18:54:1Z</time></trkpt>
<trkpt lat="46.110802330076694" lon="7.258282899856567"><ele></ele><time>2013-8-1T18:54:4Z</time></trkpt>
<trkpt lat="46.110809203237295" lon="7.258297568187118"><ele></ele><time>2013-8-1T18:54:7Z</time></trkpt>
<trkpt lat="46.110821440815926" lon="7.25832749158144"><ele></ele><time>2013-8-1T18:54:10Z</time></trkpt>
<trkpt lat="46.11084398813546" lon="7.258360181003809"><ele></ele><time>2013-8-1T18:54:13Z</time></trkpt>
<trkpt lat="46.11085304059088" lon="7.258386500179768"><ele></ele><time>2013-8-1T18:54:16Z</time></trkpt>
<trkpt lat="46.110855555161834" lon="7.258409298956394"><ele></ele><time>2013-8-1T18:54:19Z</time></trkpt>
<trkpt lat="46.11086569726467" lon="7.258435534313321"><ele></ele><time>2013-8-1T18:54:22Z</time></trkpt>
<trkpt lat="46.110880114138126" lon="7.258451711386442"><ele></ele><time>2013-8-1T18:54:25Z</time></trkpt>
<trkpt lat="46.11089972779155" lon="7.25847409106791"><ele></ele><time>2013-8-1T18:54:28Z</time></trkpt>
<trkpt lat="46.11091456376016" lon="7.258503427729011"><ele></ele><time>2013-8-1T18:54:31Z</time></trkpt>
<trkpt lat="46.110920095816255" lon="7.2585217002779245"><ele></ele><time>2013-8-1T18:54:34Z</time></trkpt>
<trkpt lat="46.11093250103295" lon="7.258534776046872"><ele></ele><time>2013-8-1T18:54:37Z</time></trkpt>
<trkpt lat="46.11094616353512" lon="7.25854835473001"><ele></ele><time>2013-8-1T18:54:40Z</time></trkpt>
<trkpt lat="46.11095521599054" lon="7.258563274517655"><ele></ele><time>2013-8-1T18:54:43Z</time></trkpt>
<trkpt lat="46.110960161313415" lon="7.258577020838857"><ele></ele><time>2013-8-1T18:54:46Z</time></trkpt>
<trkpt lat="46.11096644774079" lon="7.258595209568739"><ele></ele><time>2013-8-1T18:54:49Z</time></trkpt>
<trkpt lat="46.11097550019622" lon="7.258610129356384"><ele></ele><time>2013-8-1T18:54:52Z</time></trkpt>
<trkpt lat="46.11098094843328" lon="7.25861675105989"><ele></ele><time>2013-8-1T18:54:55Z</time></trkpt>
<trkpt lat="46.110986145213246" lon="7.258632928133011"><ele></ele><time>2013-8-1T18:54:58Z</time></trkpt>
<trkpt lat="46.11099461093545" lon="7.258652793243527"><ele></ele><time>2013-8-1T18:55:1Z</time></trkpt>
<trkpt lat="46.111001735553145" lon="7.258704258129001"><ele></ele><time>2013-8-1T18:55:4Z</time></trkpt>
<trkpt lat="46.11100148409605" lon="7.2587417252361774"><ele></ele><time>2013-8-1T18:55:7Z</time></trkpt>
<trkpt lat="46.11100475303829" lon="7.258769888430834"><ele></ele><time>2013-8-1T18:55:10Z</time></trkpt>
<trkpt lat="46.11100332811475" lon="7.258762093260884"><ele></ele><time>2013-8-1T18:55:13Z</time></trkpt>
<trkpt lat="46.11100500449538" lon="7.258758153766394"><ele></ele><time>2013-8-1T18:55:16Z</time></trkpt>
<trkpt lat="46.111011961475015" lon="7.258762763813138"><ele></ele><time>2013-8-1T18:55:19Z</time></trkpt>
<trkpt lat="46.111019337549806" lon="7.258780617266893"><ele></ele><time>2013-8-1T18:55:22Z</time></trkpt>
<trkpt lat="46.11103559844196" lon="7.258835518732667"><ele></ele><time>2013-8-1T18:55:25Z</time></trkpt>
<trkpt lat="46.111048925668" lon="7.258926210924983"><ele></ele><time>2013-8-1T18:55:28Z</time></trkpt>
<trkpt lat="46.111055966466665" lon="7.258990751579404"><ele></ele><time>2013-8-1T18:55:31Z</time></trkpt>
<trkpt lat="46.11105655319989" lon="7.259029056876898"><ele></ele><time>2013-8-1T18:55:34Z</time></trkpt>
<trkpt lat="46.11105521209538" lon="7.259053112939"><ele></ele><time>2013-8-1T18:55:37Z</time></trkpt>
<trkpt lat="46.11105185933411" lon="7.259078258648515"><ele></ele><time>2013-8-1T18:55:40Z</time></trkpt>
<trkpt lat="46.111062336713076" lon="7.259102985262871"><ele></ele><time>2013-8-1T18:55:43Z</time></trkpt>
<trkpt lat="46.111067617312074" lon="7.259119162335992"><ele></ele><time>2013-8-1T18:55:46Z</time></trkpt>
<trkpt lat="46.111076418310404" lon="7.259137183427811"><ele></ele><time>2013-8-1T18:55:49Z</time></trkpt>
<trkpt lat="46.111082369461656" lon="7.259160568937659"><ele></ele><time>2013-8-1T18:55:52Z</time></trkpt>
<trkpt lat="46.11109921708703" lon="7.259211866185069"><ele></ele><time>2013-8-1T18:55:55Z</time></trkpt>
<trkpt lat="46.111109694465995" lon="7.259259559214115"><ele></ele><time>2013-8-1T18:55:58Z</time></trkpt>
<trkpt lat="46.11111497506499" lon="7.2592906560748816"><ele></ele><time>2013-8-1T18:56:1Z</time></trkpt>
<trkpt lat="46.1111371871084" lon="7.259326446801424"><ele></ele><time>2013-8-1T18:56:4Z</time></trkpt>
<trkpt lat="46.1111527774483" lon="7.259349748492241"><ele></ele><time>2013-8-1T18:56:7Z</time></trkpt>
<trkpt lat="46.11116233281791" lon="7.259370451793075"><ele></ele><time>2013-8-1T18:56:10Z</time></trkpt>
<trkpt lat="46.11116426065564" lon="7.2593852039426565"><ele></ele><time>2013-8-1T18:56:13Z</time></trkpt>
<trkpt lat="46.11117255873978" lon="7.259398279711604"><ele></ele><time>2013-8-1T18:56:16Z</time></trkpt>
<trkpt lat="46.111178593710065" lon="7.259408673271537"><ele></ele><time>2013-8-1T18:56:19Z</time></trkpt>
<trkpt lat="46.11118856817484" lon="7.259420827031136"><ele></ele><time>2013-8-1T18:56:22Z</time></trkpt>
<trkpt lat="46.111199632287025" lon="7.259435746818781"><ele></ele><time>2013-8-1T18:56:25Z</time></trkpt>
<trkpt lat="46.11120675690472" lon="7.259459383785725"><ele></ele><time>2013-8-1T18:56:28Z</time></trkpt>
<trkpt lat="46.11121547408402" lon="7.259468771517277"><ele></ele><time>2013-8-1T18:56:31Z</time></trkpt>
<trkpt lat="46.11122318543494" lon="7.259485116228461"><ele></ele><time>2013-8-1T18:56:34Z</time></trkpt>
<trkpt lat="46.11123307608068" lon="7.259496264159679"><ele></ele><time>2013-8-1T18:56:37Z</time></trkpt>
<trkpt lat="46.11124279908836" lon="7.259512022137642"><ele></ele><time>2013-8-1T18:56:40Z</time></trkpt>
<trkpt lat="46.111245984211564" lon="7.2595233377069235"><ele></ele><time>2013-8-1T18:56:43Z</time></trkpt>
<trkpt lat="46.1112474091351" lon="7.259544460102916"><ele></ele><time>2013-8-1T18:56:46Z</time></trkpt>
<trkpt lat="46.111252354457974" lon="7.259561475366354"><ele></ele><time>2013-8-1T18:56:49Z</time></trkpt>
<trkpt lat="46.11125838942826" lon="7.2595801670104265"><ele></ele><time>2013-8-1T18:56:52Z</time></trkpt>
<trkpt lat="46.11126584932208" lon="7.259587710723281"><ele></ele><time>2013-8-1T18:56:55Z</time></trkpt>
<trkpt lat="46.11127750016749" lon="7.259593661874533"><ele></ele><time>2013-8-1T18:56:58Z</time></trkpt>
<trkpt lat="46.11128839664161" lon="7.25959986448288"><ele></ele><time>2013-8-1T18:57:1Z</time></trkpt>
<trkpt lat="46.11129694618285" lon="7.2596122696995735"><ele></ele><time>2013-8-1T18:57:4Z</time></trkpt>
<trkpt lat="46.11130725592375" lon="7.259625848382711"><ele></ele><time>2013-8-1T18:57:7Z</time></trkpt>
<trkpt lat="46.11131387762725" lon="7.259641187265515"><ele></ele><time>2013-8-1T18:57:10Z</time></trkpt>
<trkpt lat="46.1113251093775" lon="7.259654430672526"><ele></ele><time>2013-8-1T18:57:13Z</time></trkpt>
<trkpt lat="46.11133860424161" lon="7.25965853780508"><ele></ele><time>2013-8-1T18:57:16Z</time></trkpt>
<trkpt lat="46.11134706996381" lon="7.259660214185715"><ele></ele><time>2013-8-1T18:57:19Z</time></trkpt>
<trkpt lat="46.111358469352126" lon="7.259663064032793"><ele></ele><time>2013-8-1T18:57:22Z</time></trkpt>
<trkpt lat="46.11137238331139" lon="7.259672870859504"><ele></ele><time>2013-8-1T18:57:25Z</time></trkpt>
<trkpt lat="46.111383363604546" lon="7.259686533361673"><ele></ele><time>2013-8-1T18:57:28Z</time></trkpt>
<trkpt lat="46.11139400862157" lon="7.25970103405416"><ele></ele><time>2013-8-1T18:57:31Z</time></trkpt>
<trkpt lat="46.11141253262758" lon="7.259713774546981"><ele></ele><time>2013-8-1T18:57:34Z</time></trkpt>
<trkpt lat="46.111411191523075" lon="7.2597120981663465"><ele></ele><time>2013-8-1T18:57:37Z</time></trkpt>
<trkpt lat="46.11141345463693" lon="7.259707236662507"><ele></ele><time>2013-8-1T18:57:40Z</time></trkpt>
<trkpt lat="46.11141345463693" lon="7.259707236662507"><ele></ele><time>2013-8-1T18:57:43Z</time></trkpt>
<trkpt lat="46.11145528033376" lon="7.259763814508915"><ele></ele><time>2013-8-1T18:57:46Z</time></trkpt>
<trkpt lat="46.1114720441401" lon="7.259792732074857"><ele></ele><time>2013-8-1T18:57:49Z</time></trkpt>
<trkpt lat="46.11148143187165" lon="7.259817039594054"><ele></ele><time>2013-8-1T18:57:52Z</time></trkpt>
<trkpt lat="46.11148042604327" lon="7.259847968816757"><ele></ele><time>2013-8-1T18:57:55Z</time></trkpt>
<trkpt lat="46.11147640272975" lon="7.259870767593384"><ele></ele><time>2013-8-1T18:57:58Z</time></trkpt>
<trkpt lat="46.1114736367017" lon="7.259895410388708"><ele></ele><time>2013-8-1T18:58:1Z</time></trkpt>
<trkpt lat="46.111472798511386" lon="7.259922316297889"><ele></ele><time>2013-8-1T18:58:4Z</time></trkpt>
<trkpt lat="46.11148319207132" lon="7.259946707636118"><ele></ele><time>2013-8-1T18:58:7Z</time></trkpt>
<trkpt lat="46.111493250355124" lon="7.2599550895392895"><ele></ele><time>2013-8-1T18:58:10Z</time></trkpt>
<trkpt lat="46.111492244526744" lon="7.259951904416084"><ele></ele><time>2013-8-1T18:58:13Z</time></trkpt>
<trkpt lat="46.111492244526744" lon="7.259951904416084"><ele></ele><time>2013-8-1T18:58:16Z</time></trkpt>
<trkpt lat="46.111492244526744" lon="7.259951904416084"><ele></ele><time>2013-8-1T18:58:19Z</time></trkpt>
<trkpt lat="46.111492244526744" lon="7.259951904416084"><ele></ele><time>2013-8-1T18:58:22Z</time></trkpt>
<trkpt lat="46.111492244526744" lon="7.259951904416084"><ele></ele><time>2013-8-1T18:58:25Z</time></trkpt>
<trkpt lat="46.111492244526744" lon="7.259951904416084"><ele></ele><time>2013-8-1T18:58:28Z</time></trkpt>
<trkpt lat="46.111492244526744" lon="7.259951904416084"><ele></ele><time>2013-8-1T18:58:31Z</time></trkpt>
<trkpt lat="46.111492244526744" lon="7.259951904416084"><ele></ele><time>2013-8-1T18:58:34Z</time></trkpt>
<trkpt lat="46.111492244526744" lon="7.259951904416084"><ele></ele><time>2013-8-1T18:58:37Z</time></trkpt>
<trkpt lat="46.111492244526744" lon="7.259951904416084"><ele></ele><time>2013-8-1T18:58:40Z</time></trkpt>
<trkpt lat="46.111492244526744" lon="7.259951904416084"><ele></ele><time>2013-8-1T18:58:43Z</time></trkpt>
<trkpt lat="46.11149651929736" lon="7.259954251348972"><ele></ele><time>2013-8-1T18:58:46Z</time></trkpt>
<trkpt lat="46.1115584615618" lon="7.260015355423093"><ele></ele><time>2013-8-1T18:58:49Z</time></trkpt>
<trkpt lat="46.11164093948901" lon="7.260138066485524"><ele></ele><time>2013-8-1T18:58:52Z</time></trkpt>
<trkpt lat="46.11165049485862" lon="7.260164637118578"><ele></ele><time>2013-8-1T18:58:55Z</time></trkpt>
<trkpt lat="46.111667258664966" lon="7.260184669867158"><ele></ele><time>2013-8-1T18:58:58Z</time></trkpt>
<trkpt lat="46.1116742156446" lon="7.2602016013115644"><ele></ele><time>2013-8-1T18:59:1Z</time></trkpt>
<trkpt lat="46.111686704680324" lon="7.260215850546956"><ele></ele><time>2013-8-1T18:59:4Z</time></trkpt>
<trkpt lat="46.111708749085665" lon="7.260227082297206"><ele></ele><time>2013-8-1T18:59:7Z</time></trkpt>
<trkpt lat="46.1117260158062" lon="7.260253317654133"><ele></ele><time>2013-8-1T18:59:10Z</time></trkpt>
<trkpt lat="46.11174034886062" lon="7.260286509990692"><ele></ele><time>2013-8-1T18:59:13Z</time></trkpt>
<trkpt lat="46.1117516644299" lon="7.260312493890524"><ele></ele><time>2013-8-1T18:59:16Z</time></trkpt>
<trkpt lat="46.11176264472306" lon="7.260360857471824"><ele></ele><time>2013-8-1T18:59:19Z</time></trkpt>
<trkpt lat="46.11177798360586" lon="7.260396732017398"><ele></ele><time>2013-8-1T18:59:22Z</time></trkpt>
<trkpt lat="46.11178753897548" lon="7.260410562157631"><ele></ele><time>2013-8-1T18:59:25Z</time></trkpt>
<trkpt lat="46.111795753240585" lon="7.260423805564642"><ele></ele><time>2013-8-1T18:59:28Z</time></trkpt>
<trkpt lat="46.111800614744425" lon="7.260436713695526"><ele></ele><time>2013-8-1T18:59:31Z</time></trkpt>
<trkpt lat="46.111800195649266" lon="7.2604563273489475"><ele></ele><time>2013-8-1T18:59:34Z</time></trkpt>
<trkpt lat="46.11180949956179" lon="7.2604769468307495"><ele></ele><time>2013-8-1T18:59:37Z</time></trkpt>
<trkpt lat="46.11181704327464" lon="7.260497650131583"><ele></ele><time>2013-8-1T18:59:40Z</time></trkpt>
<trkpt lat="46.1118227429688" lon="7.260517766699195"><ele></ele><time>2013-8-1T18:59:43Z</time></trkpt>
<trkpt lat="46.111830370500684" lon="7.260542158037424"><ele></ele><time>2013-8-1T18:59:46Z</time></trkpt>
<trkpt lat="46.11183363944292" lon="7.260558921843767"><ele></ele><time>2013-8-1T18:59:49Z</time></trkpt>
<trkpt lat="46.11184302717447" lon="7.260580295696855"><ele></ele><time>2013-8-1T18:59:52Z</time></trkpt>
<trkpt lat="46.11185702495277" lon="7.26060745306313"><ele></ele><time>2013-8-1T18:59:55Z</time></trkpt>
<trkpt lat="46.11187672242522" lon="7.260633520781994"><ele></ele><time>2013-8-1T18:59:58Z</time></trkpt>
<trkpt lat="46.111887115985155" lon="7.260645758360624"><ele></ele><time>2013-8-1T19:0:1Z</time></trkpt>
<trkpt lat="46.11189256422222" lon="7.260657660663128"><ele></ele><time>2013-8-1T19:0:4Z</time></trkpt>
<trkpt lat="46.11189968883991" lon="7.260674005374312"><ele></ele><time>2013-8-1T19:0:7Z</time></trkpt>
<trkpt lat="46.1119160335511" lon="7.260684901848435"><ele></ele><time>2013-8-1T19:0:10Z</time></trkpt>
<trkpt lat="46.111928103491664" lon="7.260699821636081"><ele></ele><time>2013-8-1T19:0:13Z</time></trkpt>
<trkpt lat="46.11193581484258" lon="7.260718932375312"><ele></ele><time>2013-8-1T19:0:16Z</time></trkpt>
<trkpt lat="46.111949644982815" lon="7.260738126933575"><ele></ele><time>2013-8-1T19:0:19Z</time></trkpt>
<trkpt lat="46.111958445981145" lon="7.260757237672806"><ele></ele><time>2013-8-1T19:0:22Z</time></trkpt>
<trkpt lat="46.11196951009333" lon="7.260766290128231"><ele></ele><time>2013-8-1T19:0:25Z</time></trkpt>
<trkpt lat="46.111972108483315" lon="7.26077358238399"><ele></ele><time>2013-8-1T19:0:28Z</time></trkpt>
<trkpt lat="46.11197185702622" lon="7.260772744193673"><ele></ele><time>2013-8-1T19:0:31Z</time></trkpt>
<trkpt lat="46.11197185702622" lon="7.260772744193673"><ele></ele><time>2013-8-1T19:0:34Z</time></trkpt>
<trkpt lat="46.11197185702622" lon="7.260772744193673"><ele></ele><time>2013-8-1T19:0:37Z</time></trkpt>
<trkpt lat="46.111988201737404" lon="7.260784143581986"><ele></ele><time>2013-8-1T19:0:40Z</time></trkpt>
<trkpt lat="46.1119902972132" lon="7.260797219350934"><ele></ele><time>2013-8-1T19:0:43Z</time></trkpt>
<trkpt lat="46.111993147060275" lon="7.2608088701963425"><ele></ele><time>2013-8-1T19:0:46Z</time></trkpt>
<trkpt lat="46.11199675127864" lon="7.260805433616042"><ele></ele><time>2013-8-1T19:0:49Z</time></trkpt>
<trkpt lat="46.11199675127864" lon="7.260805433616042"><ele></ele><time>2013-8-1T19:0:52Z</time></trkpt>
<trkpt lat="46.112000355497" lon="7.260806020349264"><ele></ele><time>2013-8-1T19:0:55Z</time></trkpt>
<trkpt lat="46.11200706101954" lon="7.26081951521337"><ele></ele><time>2013-8-1T19:0:58Z</time></trkpt>
<trkpt lat="46.1120127607137" lon="7.260826472193003"><ele></ele><time>2013-8-1T19:1:1Z</time></trkpt>
<trkpt lat="46.11201980151236" lon="7.260835859924555"><ele></ele><time>2013-8-1T19:1:4Z</time></trkpt>
<trkpt lat="46.11202382482588" lon="7.260846756398678"><ele></ele><time>2013-8-1T19:1:7Z</time></trkpt>
<trkpt lat="46.11203254200518" lon="7.260863268747926"><ele></ele><time>2013-8-1T19:1:10Z</time></trkpt>
<trkpt lat="46.11203505657613" lon="7.2608827985823154"><ele></ele><time>2013-8-1T19:1:13Z</time></trkpt>
<trkpt lat="46.11202902160585" lon="7.260900065302849"><ele></ele><time>2013-8-1T19:1:16Z</time></trkpt>
<trkpt lat="46.112022399902344" lon="7.260921439155936"><ele></ele><time>2013-8-1T19:1:19Z</time></trkpt>
<trkpt lat="46.112034637480974" lon="7.260943315923214"><ele></ele><time>2013-8-1T19:1:22Z</time></trkpt>
<trkpt lat="46.11206095665693" lon="7.260979861021042"><ele></ele><time>2013-8-1T19:1:25Z</time></trkpt>
<trkpt lat="46.11207294277847" lon="7.260985309258103"><ele></ele><time>2013-8-1T19:1:28Z</time></trkpt>
<trkpt lat="46.11207931302488" lon="7.2609861474484205"><ele></ele><time>2013-8-1T19:1:31Z</time></trkpt>
<trkpt lat="46.112076714634895" lon="7.260989919304848"><ele></ele><time>2013-8-1T19:1:34Z</time></trkpt>
<trkpt lat="46.112076714634895" lon="7.260989919304848"><ele></ele><time>2013-8-1T19:1:37Z</time></trkpt>
<trkpt lat="46.11209942959249" lon="7.260992852970958"><ele></ele><time>2013-8-1T19:1:40Z</time></trkpt>
<trkpt lat="46.112103536725044" lon="7.260992601513863"><ele></ele><time>2013-8-1T19:1:43Z</time></trkpt>
<trkpt lat="46.11211661249399" lon="7.261000229045749"><ele></ele><time>2013-8-1T19:1:46Z</time></trkpt>
<trkpt lat="46.11212591640651" lon="7.261007186025381"><ele></ele><time>2013-8-1T19:1:49Z</time></trkpt>
<trkpt lat="46.112129939720035" lon="7.261006012558937"><ele></ele><time>2013-8-1T19:1:52Z</time></trkpt>
<trkpt lat="46.11214284785092" lon="7.261011628434062"><ele></ele><time>2013-8-1T19:1:55Z</time></trkpt>
<trkpt lat="46.112182745710015" lon="7.261045323684812"><ele></ele><time>2013-8-1T19:1:58Z</time></trkpt>
<trkpt lat="46.11218735575676" lon="7.261055884882808"><ele></ele><time>2013-8-1T19:2:1Z</time></trkpt>
<trkpt lat="46.11220143735409" lon="7.261062171310186"><ele></ele><time>2013-8-1T19:2:4Z</time></trkpt>
<trkpt lat="46.11221266910434" lon="7.261072564870119"><ele></ele><time>2013-8-1T19:2:7Z</time></trkpt>
<trkpt lat="46.11222348175943" lon="7.261080276221037"><ele></ele><time>2013-8-1T19:2:10Z</time></trkpt>
<trkpt lat="46.11222792416811" lon="7.26109704002738"><ele></ele><time>2013-8-1T19:2:13Z</time></trkpt>
<trkpt lat="46.11223664134741" lon="7.2611163184046745"><ele></ele><time>2013-8-1T19:2:16Z</time></trkpt>
<trkpt lat="46.112249214202166" lon="7.261136854067445"><ele></ele><time>2013-8-1T19:2:19Z</time></trkpt>
<trkpt lat="46.11226027831435" lon="7.261148672550917"><ele></ele><time>2013-8-1T19:2:22Z</time></trkpt>
<trkpt lat="46.11227469518781" lon="7.261161748319864"><ele></ele><time>2013-8-1T19:2:25Z</time></trkpt>
<trkpt lat="46.112294141203165" lon="7.26116887293756"><ele></ele><time>2013-8-1T19:2:28Z</time></trkpt>
<trkpt lat="46.11231283284724" lon="7.261175327003002"><ele></ele><time>2013-8-1T19:2:31Z</time></trkpt>
<trkpt lat="46.112329261377454" lon="7.261190162971616"><ele></ele><time>2013-8-1T19:2:34Z</time></trkpt>
<trkpt lat="46.11233823001385" lon="7.261201310902834"><ele></ele><time>2013-8-1T19:2:37Z</time></trkpt>
<trkpt lat="46.112348875030875" lon="7.261213129386306"><ele></ele><time>2013-8-1T19:2:40Z</time></trkpt>
<trkpt lat="46.11235742457211" lon="7.261225702241063"><ele></ele><time>2013-8-1T19:2:43Z</time></trkpt>
<trkpt lat="46.112354490906" lon="7.261221511289477"><ele></ele><time>2013-8-1T19:2:46Z</time></trkpt>
<trkpt lat="46.112356167286634" lon="7.261223858222365"><ele></ele><time>2013-8-1T19:2:49Z</time></trkpt>
<trkpt lat="46.112363962456584" lon="7.261240873485804"><ele></ele><time>2013-8-1T19:2:52Z</time></trkpt>
<trkpt lat="46.11237108707428" lon="7.261244980618358"><ele></ele><time>2013-8-1T19:2:55Z</time></trkpt>
<trkpt lat="46.11238533630967" lon="7.261251853778958"><ele></ele><time>2013-8-1T19:2:58Z</time></trkpt>
<trkpt lat="46.11239799298346" lon="7.261257637292147"><ele></ele><time>2013-8-1T19:3:1Z</time></trkpt>
<trkpt lat="46.1124097276479" lon="7.261254284530878"><ele></ele><time>2013-8-1T19:3:4Z</time></trkpt>
<trkpt lat="46.112415259703994" lon="7.261250009760261"><ele></ele><time>2013-8-1T19:3:7Z</time></trkpt>
<trkpt lat="46.11241517588496" lon="7.261252189055085"><ele></ele><time>2013-8-1T19:3:10Z</time></trkpt>
<trkpt lat="46.11241601407528" lon="7.2612532787024975"><ele></ele><time>2013-8-1T19:3:13Z</time></trkpt>
<trkpt lat="46.11241601407528" lon="7.2612532787024975"><ele></ele><time>2013-8-1T19:3:16Z</time></trkpt>
<trkpt lat="46.11241601407528" lon="7.2612532787024975"><ele></ele><time>2013-8-1T19:3:19Z</time></trkpt>
<trkpt lat="46.1124202888459" lon="7.26124850101769"><ele></ele><time>2013-8-1T19:3:22Z</time></trkpt>
<trkpt lat="46.112433951348066" lon="7.261248584836721"><ele></ele><time>2013-8-1T19:3:25Z</time></trkpt>
<trkpt lat="46.112465215846896" lon="7.261243807151914"><ele></ele><time>2013-8-1T19:3:28Z</time></trkpt>
<trkpt lat="46.112477872520685" lon="7.261254787445068"><ele></ele><time>2013-8-1T19:3:31Z</time></trkpt>
<trkpt lat="46.11249622888863" lon="7.2612756583839655"><ele></ele><time>2013-8-1T19:3:34Z</time></trkpt>
<trkpt lat="46.11251525580883" lon="7.261280519887805"><ele></ele><time>2013-8-1T19:3:37Z</time></trkpt>
<trkpt lat="46.112534115090966" lon="7.261274568736553"><ele></ele><time>2013-8-1T19:3:40Z</time></trkpt>
<trkpt lat="46.11255448311567" lon="7.261260990053415"><ele></ele><time>2013-8-1T19:3:43Z</time></trkpt>
<trkpt lat="46.11256571486592" lon="7.2612573858350515"><ele></ele><time>2013-8-1T19:3:46Z</time></trkpt>
<trkpt lat="46.112577533349395" lon="7.261262247338891"><ele></ele><time>2013-8-1T19:3:49Z</time></trkpt>
<trkpt lat="46.11258641816676" lon="7.261277083307505"><ele></ele><time>2013-8-1T19:3:52Z</time></trkpt>
<trkpt lat="46.11260360106826" lon="7.261289237067103"><ele></ele><time>2013-8-1T19:3:55Z</time></trkpt>
<trkpt lat="46.11261399462819" lon="7.26130080409348"><ele></ele><time>2013-8-1T19:3:58Z</time></trkpt>
<trkpt lat="46.11262698657811" lon="7.261318741366267"><ele></ele><time>2013-8-1T19:4:1Z</time></trkpt>
<trkpt lat="46.112641990184784" lon="7.261329051107168"><ele></ele><time>2013-8-1T19:4:4Z</time></trkpt>
<trkpt lat="46.11265003681183" lon="7.261341204866767"><ele></ele><time>2013-8-1T19:4:7Z</time></trkpt>
<trkpt lat="46.11266143620014" lon="7.261353023350239"><ele></ele><time>2013-8-1T19:4:10Z</time></trkpt>
<trkpt lat="46.11267593689263" lon="7.261364422738552"><ele></ele><time>2013-8-1T19:4:13Z</time></trkpt>
<trkpt lat="46.11268708482385" lon="7.2613766603171825"><ele></ele><time>2013-8-1T19:4:16Z</time></trkpt>
<trkpt lat="46.11269856803119" lon="7.261390322819352"><ele></ele><time>2013-8-1T19:4:19Z</time></trkpt>
<trkpt lat="46.11271474510431" lon="7.261403230950236"><ele></ele><time>2013-8-1T19:4:22Z</time></trkpt>
<trkpt lat="46.112731928005815" lon="7.261418988928199"><ele></ele><time>2013-8-1T19:4:25Z</time></trkpt>
<trkpt lat="46.112752966582775" lon="7.261434746906161"><ele></ele><time>2013-8-1T19:4:28Z</time></trkpt>
<trkpt lat="46.112779369577765" lon="7.26145226508379"><ele></ele><time>2013-8-1T19:4:31Z</time></trkpt>
<trkpt lat="46.11280065961182" lon="7.2614671010524035"><ele></ele><time>2013-8-1T19:4:34Z</time></trkpt>
<trkpt lat="46.11282446421683" lon="7.261487385258079"><ele></ele><time>2013-8-1T19:4:37Z</time></trkpt>
<trkpt lat="46.11285036429763" lon="7.261502053588629"><ele></ele><time>2013-8-1T19:4:40Z</time></trkpt>
<trkpt lat="46.11287819221616" lon="7.261514039710164"><ele></ele><time>2013-8-1T19:4:43Z</time></trkpt>
<trkpt lat="46.11290803179145" lon="7.261531138792634"><ele></ele><time>2013-8-1T19:4:46Z</time></trkpt>
<trkpt lat="46.11292873509228" lon="7.26154706440866"><ele></ele><time>2013-8-1T19:4:49Z</time></trkpt>
<trkpt lat="46.112942481413484" lon="7.261570114642382"><ele></ele><time>2013-8-1T19:4:52Z</time></trkpt>
<trkpt lat="46.11296192742884" lon="7.261596517637372"><ele></ele><time>2013-8-1T19:4:55Z</time></trkpt>
<trkpt lat="46.1129832174629" lon="7.261616550385952"><ele></ele><time>2013-8-1T19:4:58Z</time></trkpt>
<trkpt lat="46.113004591315985" lon="7.261616718024015"><ele></ele><time>2013-8-1T19:5:1Z</time></trkpt>
<trkpt lat="46.113025629892945" lon="7.261626608669758"><ele></ele><time>2013-8-1T19:5:4Z</time></trkpt>
<trkpt lat="46.11305354163051" lon="7.261617640033364"><ele></ele><time>2013-8-1T19:5:7Z</time></trkpt>
<trkpt lat="46.11308396793902" lon="7.2616225853562355"><ele></ele><time>2013-8-1T19:5:10Z</time></trkpt>
<trkpt lat="46.11311229877174" lon="7.261622752994299"><ele></ele><time>2013-8-1T19:5:13Z</time></trkpt>
<trkpt lat="46.11313635483384" lon="7.261641947552562"><ele></ele><time>2013-8-1T19:5:16Z</time></trkpt>
<trkpt lat="46.113163931295276" lon="7.261651838198304"><ele></ele><time>2013-8-1T19:5:19Z</time></trkpt>
<trkpt lat="46.1131988838315" lon="7.26166139356792"><ele></ele><time>2013-8-1T19:5:22Z</time></trkpt>
<trkpt lat="46.113235680386424" lon="7.261652173474431"><ele></ele><time>2013-8-1T19:5:25Z</time></trkpt>
<trkpt lat="46.11328144557774" lon="7.261675223708153"><ele></ele><time>2013-8-1T19:5:28Z</time></trkpt>
<trkpt lat="46.1133233550936" lon="7.26169609464705"><ele></ele><time>2013-8-1T19:5:31Z</time></trkpt>
<trkpt lat="46.113363755866885" lon="7.261734399944544"><ele></ele><time>2013-8-1T19:5:34Z</time></trkpt>
<trkpt lat="46.11340457573533" lon="7.261752337217331"><ele></ele><time>2013-8-1T19:5:37Z</time></trkpt>
<trkpt lat="46.11345553770661" lon="7.261783769354224"><ele></ele><time>2013-8-1T19:5:40Z</time></trkpt>
<trkpt lat="46.11350608058274" lon="7.261817464604974"><ele></ele><time>2013-8-1T19:5:43Z</time></trkpt>
<trkpt lat="46.11356056295335" lon="7.261839676648378"><ele></ele><time>2013-8-1T19:5:46Z</time></trkpt>
<trkpt lat="46.11361085437238" lon="7.261854093521833"><ele></ele><time>2013-8-1T19:5:49Z</time></trkpt>
<trkpt lat="46.113648153841496" lon="7.261875551193953"><ele></ele><time>2013-8-1T19:5:52Z</time></trkpt>
<trkpt lat="46.11366944387555" lon="7.26189692504704"><ele></ele><time>2013-8-1T19:5:55Z</time></trkpt>
<trkpt lat="46.113682771101594" lon="7.261924669146538"><ele></ele><time>2013-8-1T19:5:58Z</time></trkpt>
<trkpt lat="46.11369886435568" lon="7.2619465459138155"><ele></ele><time>2013-8-1T19:6:1Z</time></trkpt>
<trkpt lat="46.113705821335316" lon="7.261972362175584"><ele></ele><time>2013-8-1T19:6:4Z</time></trkpt>
<trkpt lat="46.11370858736336" lon="7.261987114325166"><ele></ele><time>2013-8-1T19:6:7Z</time></trkpt>
<trkpt lat="46.113722836598754" lon="7.2619936522096395"><ele></ele><time>2013-8-1T19:6:10Z</time></trkpt>
<trkpt lat="46.11374429427087" lon="7.262052074074745"><ele></ele><time>2013-8-1T19:6:13Z</time></trkpt>
<trkpt lat="46.113753179088235" lon="7.262060875073075"><ele></ele><time>2013-8-1T19:6:16Z</time></trkpt>
<trkpt lat="46.11376231536269" lon="7.262064144015312"><ele></ele><time>2013-8-1T19:6:19Z</time></trkpt>
<trkpt lat="46.11377606168389" lon="7.262077052146196"><ele></ele><time>2013-8-1T19:6:22Z</time></trkpt>
<trkpt lat="46.11379005946219" lon="7.262095073238015"><ele></ele><time>2013-8-1T19:6:25Z</time></trkpt>
<trkpt lat="46.113798609003425" lon="7.262121811509132"><ele></ele><time>2013-8-1T19:6:28Z</time></trkpt>
<trkpt lat="46.11382149159908" lon="7.262154249474406"><ele></ele><time>2013-8-1T19:6:31Z</time></trkpt>
<trkpt lat="46.113844541832805" lon="7.262187106534839"><ele></ele><time>2013-8-1T19:6:34Z</time></trkpt>
<trkpt lat="46.11385962925851" lon="7.262231446802616"><ele></ele><time>2013-8-1T19:6:37Z</time></trkpt>
<trkpt lat="46.11387035809457" lon="7.262279139831662"><ele></ele><time>2013-8-1T19:6:40Z</time></trkpt>
<trkpt lat="46.1138950008899" lon="7.262317109853029"><ele></ele><time>2013-8-1T19:6:43Z</time></trkpt>
<trkpt lat="46.113922242075205" lon="7.262348290532827"><ele></ele><time>2013-8-1T19:6:46Z</time></trkpt>
<trkpt lat="46.1139483936131" lon="7.2623894456774"><ele></ele><time>2013-8-1T19:6:49Z</time></trkpt>
<trkpt lat="46.11397999338806" lon="7.262435210868716"><ele></ele><time>2013-8-1T19:6:52Z</time></trkpt>
<trkpt lat="46.114007234573364" lon="7.2624740190804005"><ele></ele><time>2013-8-1T19:6:55Z</time></trkpt>
<trkpt lat="46.11402366310358" lon="7.262506959959865"><ele></ele><time>2013-8-1T19:6:58Z</time></trkpt>
<trkpt lat="46.11403053626418" lon="7.26253847591579"><ele></ele><time>2013-8-1T19:7:1Z</time></trkpt>
<trkpt lat="46.11403631977737" lon="7.2625600174069405"><ele></ele><time>2013-8-1T19:7:4Z</time></trkpt>
<trkpt lat="46.11404076218605" lon="7.262587929144502"><ele></ele><time>2013-8-1T19:7:7Z</time></trkpt>
<trkpt lat="46.11404118128121" lon="7.262622378766537"><ele></ele><time>2013-8-1T19:7:10Z</time></trkpt>
<trkpt lat="46.114050233736634" lon="7.262669401243329"><ele></ele><time>2013-8-1T19:7:13Z</time></trkpt>
<trkpt lat="46.114050233736634" lon="7.2627016715705395"><ele></ele><time>2013-8-1T19:7:16Z</time></trkpt>
<trkpt lat="46.114043863490224" lon="7.262747520580888"><ele></ele><time>2013-8-1T19:7:19Z</time></trkpt>
<trkpt lat="46.11404771916568" lon="7.2627717442810535"><ele></ele><time>2013-8-1T19:7:22Z</time></trkpt>
<trkpt lat="46.11404419876635" lon="7.262796219438314"><ele></ele><time>2013-8-1T19:7:25Z</time></trkpt>
<trkpt lat="46.11404721625149" lon="7.262805607169867"><ele></ele><time>2013-8-1T19:7:28Z</time></trkpt>
<trkpt lat="46.11405048519373" lon="7.262822957709432"><ele></ele><time>2013-8-1T19:7:31Z</time></trkpt>
<trkpt lat="46.11405107192695" lon="7.262826645746827"><ele></ele><time>2013-8-1T19:7:34Z</time></trkpt>
<trkpt lat="46.11404838971794" lon="7.262836452573538"><ele></ele><time>2013-8-1T19:7:37Z</time></trkpt>
<trkpt lat="46.114039085805416" lon="7.262903172522783"><ele></ele><time>2013-8-1T19:7:40Z</time></trkpt>
<trkpt lat="46.11403388902545" lon="7.26291180588305"><ele></ele><time>2013-8-1T19:7:43Z</time></trkpt>
<trkpt lat="46.114037996158004" lon="7.262927731499076"><ele></ele><time>2013-8-1T19:7:46Z</time></trkpt>
<trkpt lat="46.11403648741543" lon="7.262952541932464"><ele></ele><time>2013-8-1T19:7:49Z</time></trkpt>
<trkpt lat="46.1140311229974" lon="7.262969557195902"><ele></ele><time>2013-8-1T19:7:52Z</time></trkpt>
<trkpt lat="46.11402944661677" lon="7.263056477531791"><ele></ele><time>2013-8-1T19:7:55Z</time></trkpt>
<trkpt lat="46.11401352100074" lon="7.263119425624609"><ele></ele><time>2013-8-1T19:7:58Z</time></trkpt>
<trkpt lat="46.1140157841146" lon="7.26312143728137"><ele></ele><time>2013-8-1T19:8:1Z</time></trkpt>
<trkpt lat="46.11401586793363" lon="7.2631266340613365"><ele></ele><time>2013-8-1T19:8:4Z</time></trkpt>
<trkpt lat="46.11401586793363" lon="7.2631266340613365"><ele></ele><time>2013-8-1T19:8:7Z</time></trkpt>
<trkpt lat="46.11401377245784" lon="7.2631492651999"><ele></ele><time>2013-8-1T19:8:10Z</time></trkpt>
<trkpt lat="46.11401226371527" lon="7.2631770092993975"><ele></ele><time>2013-8-1T19:8:13Z</time></trkpt>
<trkpt lat="46.11401201225817" lon="7.263224450871348"><ele></ele><time>2013-8-1T19:8:16Z</time></trkpt>
<trkpt lat="46.1140105035156" lon="7.263250099495053"><ele></ele><time>2013-8-1T19:8:19Z</time></trkpt>
<trkpt lat="46.1140105035156" lon="7.263250099495053"><ele></ele><time>2013-8-1T19:8:22Z</time></trkpt>
<trkpt lat="46.1140105035156" lon="7.263250099495053"><ele></ele><time>2013-8-1T19:8:25Z</time></trkpt>
<trkpt lat="46.11400933004916" lon="7.263271305710077"><ele></ele><time>2013-8-1T19:8:28Z</time></trkpt>
<trkpt lat="46.114017041400075" lon="7.263296535238624"><ele></ele><time>2013-8-1T19:8:31Z</time></trkpt>
<trkpt lat="46.11402592621744" lon="7.263337187469006"><ele></ele><time>2013-8-1T19:8:34Z</time></trkpt>
<trkpt lat="46.11403875052929" lon="7.263368871062994"><ele></ele><time>2013-8-1T19:8:37Z</time></trkpt>
<trkpt lat="46.11405786126852" lon="7.263388065621257"><ele></ele><time>2013-8-1T19:8:40Z</time></trkpt>
<trkpt lat="46.114078564569354" lon="7.263405667617917"><ele></ele><time>2013-8-1T19:8:43Z</time></trkpt>
<trkpt lat="46.11409591510892" lon="7.263412456959486"><ele></ele><time>2013-8-1T19:8:46Z</time></trkpt>
<trkpt lat="46.11409591510892" lon="7.263412456959486"><ele></ele><time>2013-8-1T19:8:49Z</time></trkpt>
<trkpt lat="46.11409591510892" lon="7.263412456959486"><ele></ele><time>2013-8-1T19:8:52Z</time></trkpt>
<trkpt lat="46.11409591510892" lon="7.263412456959486"><ele></ele><time>2013-8-1T19:8:55Z</time></trkpt>
<trkpt lat="46.11409591510892" lon="7.263412456959486"><ele></ele><time>2013-8-1T19:8:58Z</time></trkpt>
<trkpt lat="46.1140969209373" lon="7.263410780578852"><ele></ele><time>2013-8-1T19:9:1Z</time></trkpt>
<trkpt lat="46.1140969209373" lon="7.263410780578852"><ele></ele><time>2013-8-1T19:9:4Z</time></trkpt>
<trkpt lat="46.114087868481874" lon="7.26341899484396"><ele></ele><time>2013-8-1T19:9:7Z</time></trkpt>
<trkpt lat="46.11409113742411" lon="7.263417569920421"><ele></ele><time>2013-8-1T19:9:10Z</time></trkpt>
<trkpt lat="46.11409113742411" lon="7.263417569920421"><ele></ele><time>2013-8-1T19:9:13Z</time></trkpt>
<trkpt lat="46.114086862653494" lon="7.263476327061653"><ele></ele><time>2013-8-1T19:9:16Z</time></trkpt>
<trkpt lat="46.11408082768321" lon="7.263559810817242"><ele></ele><time>2013-8-1T19:9:19Z</time></trkpt>
<trkpt lat="46.11406473442912" lon="7.263607084751129"><ele></ele><time>2013-8-1T19:9:22Z</time></trkpt>
<trkpt lat="46.11405249685049" lon="7.263663075864315"><ele></ele><time>2013-8-1T19:9:25Z</time></trkpt>
<trkpt lat="46.11407596617937" lon="7.263731304556131"><ele></ele><time>2013-8-1T19:9:28Z</time></trkpt>
<trkpt lat="46.11412365920842" lon="7.263783607631922"><ele></ele><time>2013-8-1T19:9:31Z</time></trkpt>
<trkpt lat="46.114145619794726" lon="7.263790983706713"><ele></ele><time>2013-8-1T19:9:34Z</time></trkpt>
<trkpt lat="46.11422650516033" lon="7.263824846595526"><ele></ele><time>2013-8-1T19:9:37Z</time></trkpt>
<trkpt lat="46.11430546268821" lon="7.263876227661967"><ele></ele><time>2013-8-1T19:9:40Z</time></trkpt>
<trkpt lat="46.114359609782696" lon="7.2639384213835"><ele></ele><time>2013-8-1T19:9:43Z</time></trkpt>
<trkpt lat="46.11439414322376" lon="7.263987874612212"><ele></ele><time>2013-8-1T19:9:46Z</time></trkpt>
<trkpt lat="46.11449162475765" lon="7.264085775241256"><ele></ele><time>2013-8-1T19:9:49Z</time></trkpt>
<trkpt lat="46.114555997774005" lon="7.264145538210869"><ele></ele><time>2013-8-1T19:9:52Z</time></trkpt>
<trkpt lat="46.11464065499604" lon="7.264218628406525"><ele></ele><time>2013-8-1T19:9:55Z</time></trkpt>
<trkpt lat="46.11465205438435" lon="7.264233632013202"><ele></ele><time>2013-8-1T19:9:58Z</time></trkpt>
<trkpt lat="46.11467049457133" lon="7.2642516531050205"><ele></ele><time>2013-8-1T19:10:1Z</time></trkpt>
<trkpt lat="46.11472690477967" lon="7.264327257871628"><ele></ele><time>2013-8-1T19:10:4Z</time></trkpt>
<trkpt lat="46.114740651100874" lon="7.264335388317704"><ele></ele><time>2013-8-1T19:10:7Z</time></trkpt>
<trkpt lat="46.11484265886247" lon="7.264421386644244"><ele></ele><time>2013-8-1T19:10:10Z</time></trkpt>
<trkpt lat="46.11492622643709" lon="7.264472180977464"><ele></ele><time>2013-8-1T19:10:13Z</time></trkpt>
<trkpt lat="46.11492622643709" lon="7.264472180977464"><ele></ele><time>2013-8-1T19:10:16Z</time></trkpt>
<trkpt lat="46.11492622643709" lon="7.264472180977464"><ele></ele><time>2013-8-1T19:10:19Z</time></trkpt>
<trkpt lat="46.11492622643709" lon="7.264472180977464"><ele></ele><time>2013-8-1T19:10:22Z</time></trkpt>
<trkpt lat="46.11492622643709" lon="7.264472180977464"><ele></ele><time>2013-8-1T19:10:25Z</time></trkpt>
<trkpt lat="46.11492622643709" lon="7.264472180977464"><ele></ele><time>2013-8-1T19:10:28Z</time></trkpt>
<trkpt lat="46.11492622643709" lon="7.264472180977464"><ele></ele><time>2013-8-1T19:10:31Z</time></trkpt>
<trkpt lat="46.11492647789419" lon="7.264472180977464"><ele></ele><time>2013-8-1T19:10:34Z</time></trkpt>
<trkpt lat="46.114975260570645" lon="7.264434043318033"><ele></ele><time>2013-8-1T19:10:37Z</time></trkpt>
<trkpt lat="46.114973835647106" lon="7.264319295063615"><ele></ele><time>2013-8-1T19:10:40Z</time></trkpt>
<trkpt lat="46.11496084369719" lon="7.264267411082983"><ele></ele><time>2013-8-1T19:10:43Z</time></trkpt>
<trkpt lat="46.11493536271155" lon="7.264221394434571"><ele></ele><time>2013-8-1T19:10:46Z</time></trkpt>
<trkpt lat="46.11493829637766" lon="7.264174958691001"><ele></ele><time>2013-8-1T19:10:49Z</time></trkpt>
<trkpt lat="46.11493729054928" lon="7.264129109680653"><ele></ele><time>2013-8-1T19:10:52Z</time></trkpt>
<trkpt lat="46.11493527889252" lon="7.264080746099353"><ele></ele><time>2013-8-1T19:10:55Z</time></trkpt>
<trkpt lat="46.114965956658125" lon="7.263985779136419"><ele></ele><time>2013-8-1T19:10:58Z</time></trkpt>
<trkpt lat="46.115053463727236" lon="7.263937331736088"><ele></ele><time>2013-8-1T19:11:1Z</time></trkpt>
<trkpt lat="46.11511582508683" lon="7.263928027823567"><ele></ele><time>2013-8-1T19:11:4Z</time></trkpt>
<trkpt lat="46.11516946926713" lon="7.263913108035922"><ele></ele><time>2013-8-1T19:11:7Z</time></trkpt>
<trkpt lat="46.11521925777197" lon="7.263899445533752"><ele></ele><time>2013-8-1T19:11:10Z</time></trkpt>
<trkpt lat="46.11525798216462" lon="7.263876814395189"><ele></ele><time>2013-8-1T19:11:13Z</time></trkpt>
<trkpt lat="46.115278685465455" lon="7.263840939849615"><ele></ele><time>2013-8-1T19:11:16Z</time></trkpt>
<trkpt lat="46.1152486782521" lon="7.263729628175497"><ele></ele><time>2013-8-1T19:11:19Z</time></trkpt>
<trkpt lat="46.11522110179067" lon="7.26368336006999"><ele></ele><time>2013-8-1T19:11:22Z</time></trkpt>
<trkpt lat="46.115185813978314" lon="7.263628458604217"><ele></ele><time>2013-8-1T19:11:25Z</time></trkpt>
<trkpt lat="46.11515589058399" lon="7.2635813523083925"><ele></ele><time>2013-8-1T19:11:28Z</time></trkpt>
<trkpt lat="46.11514055170119" lon="7.2635542787611485"><ele></ele><time>2013-8-1T19:11:31Z</time></trkpt>
<trkpt lat="46.11512755975127" lon="7.263525947928429"><ele></ele><time>2013-8-1T19:11:34Z</time></trkpt>
<trkpt lat="46.11511481925845" lon="7.263496443629265"><ele></ele><time>2013-8-1T19:11:37Z</time></trkpt>
<trkpt lat="46.115101324394345" lon="7.2633978724479675"><ele></ele><time>2013-8-1T19:11:40Z</time></trkpt>
<trkpt lat="46.11509847454727" lon="7.263363674283028"><ele></ele><time>2013-8-1T19:11:43Z</time></trkpt>
<trkpt lat="46.11509227193892" lon="7.263327967375517"><ele></ele><time>2013-8-1T19:11:46Z</time></trkpt>
<trkpt lat="46.11508397385478" lon="7.263297960162163"><ele></ele><time>2013-8-1T19:11:49Z</time></trkpt>
<trkpt lat="46.11508154310286" lon="7.263281615450978"><ele></ele><time>2013-8-1T19:11:52Z</time></trkpt>
<trkpt lat="46.11508288420737" lon="7.263272479176521"><ele></ele><time>2013-8-1T19:11:55Z</time></trkpt>
<trkpt lat="46.11508305184543" lon="7.263267617672682"><ele></ele><time>2013-8-1T19:11:58Z</time></trkpt>
<trkpt lat="46.1150536313653" lon="7.263203077018261"><ele></ele><time>2013-8-1T19:12:1Z</time></trkpt>
<trkpt lat="46.11499931663275" lon="7.263039294630289"><ele></ele><time>2013-8-1T19:12:4Z</time></trkpt>
<trkpt lat="46.114996718242764" lon="7.263028146699071"><ele></ele><time>2013-8-1T19:12:7Z</time></trkpt>
<trkpt lat="46.114996718242764" lon="7.263028146699071"><ele></ele><time>2013-8-1T19:12:10Z</time></trkpt>
<trkpt lat="46.114996718242764" lon="7.263028146699071"><ele></ele><time>2013-8-1T19:12:13Z</time></trkpt>
<trkpt lat="46.114996718242764" lon="7.263028146699071"><ele></ele><time>2013-8-1T19:12:16Z</time></trkpt>
<trkpt lat="46.114996718242764" lon="7.263028146699071"><ele></ele><time>2013-8-1T19:12:19Z</time></trkpt>
<trkpt lat="46.114996718242764" lon="7.263028146699071"><ele></ele><time>2013-8-1T19:12:22Z</time></trkpt>
<trkpt lat="46.114996718242764" lon="7.263028146699071"><ele></ele><time>2013-8-1T19:12:25Z</time></trkpt>
<trkpt lat="46.114996718242764" lon="7.263028146699071"><ele></ele><time>2013-8-1T19:12:28Z</time></trkpt>
<trkpt lat="46.114996718242764" lon="7.263028146699071"><ele></ele><time>2013-8-1T19:12:31Z</time></trkpt>
<trkpt lat="46.11499646678567" lon="7.263027308508754"><ele></ele><time>2013-8-1T19:12:34Z</time></trkpt>
<trkpt lat="46.11496419645846" lon="7.262907950207591"><ele></ele><time>2013-8-1T19:12:37Z</time></trkpt>
<trkpt lat="46.11492563970387" lon="7.262670490890741"><ele></ele><time>2013-8-1T19:12:40Z</time></trkpt>
<trkpt lat="46.11493393778801" lon="7.262593042105436"><ele></ele><time>2013-8-1T19:12:43Z</time></trkpt>
<trkpt lat="46.11491432413459" lon="7.262440323829651"><ele></ele><time>2013-8-1T19:12:46Z</time></trkpt>
<trkpt lat="46.114875515922904" lon="7.262373100966215"><ele></ele><time>2013-8-1T19:12:49Z</time></trkpt>
<trkpt lat="46.11483369022608" lon="7.262308392673731"><ele></ele><time>2013-8-1T19:12:52Z</time></trkpt>
<trkpt lat="46.11480301246047" lon="7.262236475944519"><ele></ele><time>2013-8-1T19:12:55Z</time></trkpt>
<trkpt lat="46.11478264443576" lon="7.262158021330833"><ele></ele><time>2013-8-1T19:12:58Z</time></trkpt>
<trkpt lat="46.11476831138134" lon="7.262092139571905"><ele></ele><time>2013-8-1T19:13:1Z</time></trkpt>
<trkpt lat="46.11475305631757" lon="7.262030700221658"><ele></ele><time>2013-8-1T19:13:4Z</time></trkpt>
<trkpt lat="46.11473989672959" lon="7.261974541470408"><ele></ele><time>2013-8-1T19:13:7Z</time></trkpt>
<trkpt lat="46.11473562195897" lon="7.26192626170814"><ele></ele><time>2013-8-1T19:13:10Z</time></trkpt>
<trkpt lat="46.11474199220538" lon="7.261885777115822"><ele></ele><time>2013-8-1T19:13:13Z</time></trkpt>
<trkpt lat="46.11475909128785" lon="7.261851746588945"><ele></ele><time>2013-8-1T19:13:16Z</time></trkpt>
<trkpt lat="46.11478851176798" lon="7.26184512488544"><ele></ele><time>2013-8-1T19:13:19Z</time></trkpt>
<trkpt lat="46.11481617204845" lon="7.26188032887876"><ele></ele><time>2013-8-1T19:13:22Z</time></trkpt>
<trkpt lat="46.11483628861606" lon="7.261937325820327"><ele></ele><time>2013-8-1T19:13:25Z</time></trkpt>
<trkpt lat="46.11485707573593" lon="7.262000190094113"><ele></ele><time>2013-8-1T19:13:28Z</time></trkpt>
<trkpt lat="46.11489739269018" lon="7.262109573930502"><ele></ele><time>2013-8-1T19:13:31Z</time></trkpt>
<trkpt lat="46.11491985619068" lon="7.262156261131167"><ele></ele><time>2013-8-1T19:13:34Z</time></trkpt>
<trkpt lat="46.11494416370988" lon="7.262199427932501"><ele></ele><time>2013-8-1T19:13:37Z</time></trkpt>
<trkpt lat="46.114968471229076" lon="7.26224728859961"><ele></ele><time>2013-8-1T19:13:40Z</time></trkpt>
<trkpt lat="46.11498925834894" lon="7.262293305248022"><ele></ele><time>2013-8-1T19:13:43Z</time></trkpt>
<trkpt lat="46.11501205712557" lon="7.2623388189822435"><ele></ele><time>2013-8-1T19:13:46Z</time></trkpt>
<trkpt lat="46.115041142329574" lon="7.262388691306114"><ele></ele><time>2013-8-1T19:13:49Z</time></trkpt>
<trkpt lat="46.11507131718099" lon="7.262438479810953"><ele></ele><time>2013-8-1T19:13:52Z</time></trkpt>
<trkpt lat="46.11510291695595" lon="7.2624878492206335"><ele></ele><time>2013-8-1T19:13:55Z</time></trkpt>
<trkpt lat="46.115131666883826" lon="7.262534704059362"><ele></ele><time>2013-8-1T19:13:58Z</time></trkpt>
<trkpt lat="46.115159997716546" lon="7.262580972164869"><ele></ele><time>2013-8-1T19:14:1Z</time></trkpt>
<trkpt lat="46.11519034020603" lon="7.262632353231311"><ele></ele><time>2013-8-1T19:14:4Z</time></trkpt>
<trkpt lat="46.11522370018065" lon="7.262681303545833"><ele></ele><time>2013-8-1T19:14:7Z</time></trkpt>
<trkpt lat="46.1152555514127" lon="7.262728996574879"><ele></ele><time>2013-8-1T19:14:10Z</time></trkpt>
<trkpt lat="46.11528681591153" lon="7.262778868898749"><ele></ele><time>2013-8-1T19:14:13Z</time></trkpt>
<trkpt lat="46.11532042734325" lon="7.262829160317779"><ele></ele><time>2013-8-1T19:14:16Z</time></trkpt>
<trkpt lat="46.11535353586078" lon="7.262869477272034"><ele></ele><time>2013-8-1T19:14:19Z</time></trkpt>
<trkpt lat="46.115386141464114" lon="7.262892946600914"><ele></ele><time>2013-8-1T19:14:22Z</time></trkpt>
<trkpt lat="46.115417908877134" lon="7.262907028198242"><ele></ele><time>2013-8-1T19:14:25Z</time></trkpt>
<trkpt lat="46.115448670461774" lon="7.262917924672365"><ele></ele><time>2013-8-1T19:14:28Z</time></trkpt>
<trkpt lat="46.11548370681703" lon="7.2629219479858875"><ele></ele><time>2013-8-1T19:14:31Z</time></trkpt>
<trkpt lat="46.1155148036778" lon="7.262922115623951"><ele></ele><time>2013-8-1T19:14:34Z</time></trkpt>
<trkpt lat="46.115545481443405" lon="7.262925216928124"><ele></ele><time>2013-8-1T19:14:37Z</time></trkpt>
<trkpt lat="46.11557657830417" lon="7.262928821146488"><ele></ele><time>2013-8-1T19:14:40Z</time></trkpt>
<trkpt lat="46.11561429686844" lon="7.262934688478708"><ele></ele><time>2013-8-1T19:14:43Z</time></trkpt>
<trkpt lat="46.11565025523305" lon="7.26294700987637"><ele></ele><time>2013-8-1T19:14:46Z</time></trkpt>
<trkpt lat="46.11568269319832" lon="7.262959415093064"><ele></ele><time>2013-8-1T19:14:49Z</time></trkpt>
<trkpt lat="46.11571295186877" lon="7.262973580509424"><ele></ele><time>2013-8-1T19:14:52Z</time></trkpt>
<trkpt lat="46.115740947425365" lon="7.262990763410926"><ele></ele><time>2013-8-1T19:14:55Z</time></trkpt>
<trkpt lat="46.11577204428613" lon="7.263004090636969"><ele></ele><time>2013-8-1T19:14:58Z</time></trkpt>
<trkpt lat="46.115803476423025" lon="7.263014568015933"><ele></ele><time>2013-8-1T19:15:1Z</time></trkpt>
<trkpt lat="46.11583516001701" lon="7.2630279790610075"><ele></ele><time>2013-8-1T19:15:4Z</time></trkpt>
<trkpt lat="46.115866005420685" lon="7.263045916333795"><ele></ele><time>2013-8-1T19:15:7Z</time></trkpt>
<trkpt lat="46.11589785665274" lon="7.2630709782242775"><ele></ele><time>2013-8-1T19:15:10Z</time></trkpt>
<trkpt lat="46.11592928878963" lon="7.263094279915094"><ele></ele><time>2013-8-1T19:15:13Z</time></trkpt>
<trkpt lat="46.11595460213721" lon="7.263120682910085"><ele></ele><time>2013-8-1T19:15:16Z</time></trkpt>
<trkpt lat="46.11597823910415" lon="7.263153539970517"><ele></ele><time>2013-8-1T19:15:19Z</time></trkpt>
<trkpt lat="46.11600095406175" lon="7.263187738135457"><ele></ele><time>2013-8-1T19:15:22Z</time></trkpt>
<trkpt lat="46.11602366901934" lon="7.2632132191210985"><ele></ele><time>2013-8-1T19:15:25Z</time></trkpt>
<trkpt lat="46.116046551615" lon="7.263235095888376"><ele></ele><time>2013-8-1T19:15:28Z</time></trkpt>
<trkpt lat="46.11606800928712" lon="7.263260409235954"><ele></ele><time>2013-8-1T19:15:31Z</time></trkpt>
<trkpt lat="46.11608921550214" lon="7.263292009010911"><ele></ele><time>2013-8-1T19:15:34Z</time></trkpt>
<trkpt lat="46.11610480584204" lon="7.263336600735784"><ele></ele><time>2013-8-1T19:15:37Z</time></trkpt>
<trkpt lat="46.116114277392626" lon="7.263381611555815"><ele></ele><time>2013-8-1T19:15:40Z</time></trkpt>
<trkpt lat="46.11612483859062" lon="7.263421677052975"><ele></ele><time>2013-8-1T19:15:43Z</time></trkpt>
<trkpt lat="46.11614285968244" lon="7.263453109189868"><ele></ele><time>2013-8-1T19:15:46Z</time></trkpt>
<trkpt lat="46.11617110669613" lon="7.263474315404892"><ele></ele><time>2013-8-1T19:15:49Z</time></trkpt>
<trkpt lat="46.11620874144137" lon="7.263489989563823"><ele></ele><time>2013-8-1T19:15:52Z</time></trkpt>
<trkpt lat="46.116248555481434" lon="7.263507843017578"><ele></ele><time>2013-8-1T19:15:55Z</time></trkpt>
<trkpt lat="46.11628895625472" lon="7.263529384508729"><ele></ele><time>2013-8-1T19:15:58Z</time></trkpt>
<trkpt lat="46.11633036285639" lon="7.263548830524087"><ele></ele><time>2013-8-1T19:16:1Z</time></trkpt>
<trkpt lat="46.11637428402901" lon="7.263567438349128"><ele></ele><time>2013-8-1T19:16:4Z</time></trkpt>
<trkpt lat="46.11641929484904" lon="7.263585040345788"><ele></ele><time>2013-8-1T19:16:7Z</time></trkpt>
<trkpt lat="46.116464054211974" lon="7.2636043187230825"><ele></ele><time>2013-8-1T19:16:10Z</time></trkpt>
<trkpt lat="46.11650831066072" lon="7.263626446947455"><ele></ele><time>2013-8-1T19:16:13Z</time></trkpt>
<trkpt lat="46.11655441112816" lon="7.263644887134433"><ele></ele><time>2013-8-1T19:16:16Z</time></trkpt>
<trkpt lat="46.11660612747073" lon="7.263654191046953"><ele></ele><time>2013-8-1T19:16:19Z</time></trkpt>
<trkpt lat="46.11665574833751" lon="7.263657292351127"><ele></ele><time>2013-8-1T19:16:22Z</time></trkpt>
<trkpt lat="46.11670142970979" lon="7.2636570408940315"><ele></ele><time>2013-8-1T19:16:25Z</time></trkpt>
<trkpt lat="46.116741579025984" lon="7.263656537979841"><ele></ele><time>2013-8-1T19:16:28Z</time></trkpt>
<trkpt lat="46.11678441055119" lon="7.263650419190526"><ele></ele><time>2013-8-1T19:16:31Z</time></trkpt>
<trkpt lat="46.11683419905603" lon="7.263640696182847"><ele></ele><time>2013-8-1T19:16:34Z</time></trkpt>
<trkpt lat="46.11688423901796" lon="7.263635750859976"><ele></ele><time>2013-8-1T19:16:37Z</time></trkpt>
<trkpt lat="46.11693344078958" lon="7.26363206282258"><ele></ele><time>2013-8-1T19:16:40Z</time></trkpt>
<trkpt lat="46.116983983665705" lon="7.26363206282258"><ele></ele><time>2013-8-1T19:16:43Z</time></trkpt>
<trkpt lat="46.117037711665034" lon="7.263633739203215"><ele></ele><time>2013-8-1T19:16:46Z</time></trkpt>
<trkpt lat="46.11709361895919" lon="7.263633655384183"><ele></ele><time>2013-8-1T19:16:49Z</time></trkpt>
<trkpt lat="46.11715053208172" lon="7.2636323142796755"><ele></ele><time>2013-8-1T19:16:52Z</time></trkpt>
<trkpt lat="46.11720769666135" lon="7.263633320108056"><ele></ele><time>2013-8-1T19:16:55Z</time></trkpt>
<trkpt lat="46.117266453802586" lon="7.263633739203215"><ele></ele><time>2013-8-1T19:16:58Z</time></trkpt>
<trkpt lat="46.11732563003898" lon="7.263634912669659"><ele></ele><time>2013-8-1T19:17:1Z</time></trkpt>
<trkpt lat="46.117384135723114" lon="7.263641282916069"><ele></ele><time>2013-8-1T19:17:4Z</time></trkpt>
<trkpt lat="46.11743777990341" lon="7.2636541072279215"><ele></ele><time>2013-8-1T19:17:7Z</time></trkpt>
<trkpt lat="46.11749159172177" lon="7.26366869173944"><ele></ele><time>2013-8-1T19:17:10Z</time></trkpt>
<trkpt lat="46.11754339188337" lon="7.263673134148121"><ele></ele><time>2013-8-1T19:17:13Z</time></trkpt>
<trkpt lat="46.1176008079201" lon="7.2636593878269196"><ele></ele><time>2013-8-1T19:17:16Z</time></trkpt>
<trkpt lat="46.11765906214714" lon="7.263629799708724"><ele></ele><time>2013-8-1T19:17:19Z</time></trkpt>
<trkpt lat="46.117716981098056" lon="7.263595769181848"><ele></ele><time>2013-8-1T19:17:22Z</time></trkpt>
<trkpt lat="46.11777439713478" lon="7.263559810817242"><ele></ele><time>2013-8-1T19:17:25Z</time></trkpt>
<trkpt lat="46.11782955005765" lon="7.263527791947126"><ele></ele><time>2013-8-1T19:17:28Z</time></trkpt>
<trkpt lat="46.11788612790406" lon="7.263507759198546"><ele></ele><time>2013-8-1T19:17:31Z</time></trkpt>
<trkpt lat="46.117940777912736" lon="7.2634953539818525"><ele></ele><time>2013-8-1T19:17:34Z</time></trkpt>
<trkpt lat="46.117992075160146" lon="7.263481440022588"><ele></ele><time>2013-8-1T19:17:37Z</time></trkpt>
<trkpt lat="46.11804488115013" lon="7.2634700406342745"><ele></ele><time>2013-8-1T19:17:40Z</time></trkpt>
<trkpt lat="46.11809492111206" lon="7.263469705358148"><ele></ele><time>2013-8-1T19:17:43Z</time></trkpt>
<trkpt lat="46.11814026720822" lon="7.263473309576511"><ele></ele><time>2013-8-1T19:17:46Z</time></trkpt>
<trkpt lat="46.118185529485345" lon="7.26346249692142"><ele></ele><time>2013-8-1T19:17:49Z</time></trkpt>
<trkpt lat="46.11822919920087" lon="7.263436680659652"><ele></ele><time>2013-8-1T19:17:52Z</time></trkpt>
<trkpt lat="46.118273036554456" lon="7.263409607112408"><ele></ele><time>2013-8-1T19:17:55Z</time></trkpt>
<trkpt lat="46.11831083893776" lon="7.263397201895714"><ele></ele><time>2013-8-1T19:17:58Z</time></trkpt>
<trkpt lat="46.11834361217916" lon="7.263392088934779"><ele></ele><time>2013-8-1T19:18:1Z</time></trkpt>
<trkpt lat="46.11837454140186" lon="7.26339703425765"><ele></ele><time>2013-8-1T19:18:4Z</time></trkpt>
<trkpt lat="46.11840454861522" lon="7.263406170532107"><ele></ele><time>2013-8-1T19:18:7Z</time></trkpt>
<trkpt lat="46.11843497492373" lon="7.26341312751174"><ele></ele><time>2013-8-1T19:18:10Z</time></trkpt>
<trkpt lat="46.1184658203274" lon="7.26341312751174"><ele></ele><time>2013-8-1T19:18:13Z</time></trkpt>
<trkpt lat="46.11849649809301" lon="7.263392508029938"><ele></ele><time>2013-8-1T19:18:16Z</time></trkpt>
<trkpt lat="46.11851795576513" lon="7.263351688161492"><ele></ele><time>2013-8-1T19:18:19Z</time></trkpt>
<trkpt lat="46.11851317808032" lon="7.2633124608546495"><ele></ele><time>2013-8-1T19:18:22Z</time></trkpt>
<trkpt lat="46.11848811618984" lon="7.263280861079693"><ele></ele><time>2013-8-1T19:18:25Z</time></trkpt>
<trkpt lat="46.11845601350069" lon="7.263260409235954"><ele></ele><time>2013-8-1T19:18:28Z</time></trkpt>
<trkpt lat="46.11841971985996" lon="7.26324993185699"><ele></ele><time>2013-8-1T19:18:31Z</time></trkpt>
<trkpt lat="46.11838074401021" lon="7.263240544125438"><ele></ele><time>2013-8-1T19:18:34Z</time></trkpt>
<trkpt lat="46.118335062637925" lon="7.263227803632617"><ele></ele><time>2013-8-1T19:18:37Z</time></trkpt>
<trkpt lat="46.11828996799886" lon="7.263214476406574"><ele></ele><time>2013-8-1T19:18:40Z</time></trkpt>
<trkpt lat="46.11824336461723" lon="7.263205591589212"><ele></ele><time>2013-8-1T19:18:43Z</time></trkpt>
<trkpt lat="46.118195839226246" lon="7.2632034961134195"><ele></ele><time>2013-8-1T19:18:46Z</time></trkpt>
<trkpt lat="46.11814705654979" lon="7.263205843046308"><ele></ele><time>2013-8-1T19:18:49Z</time></trkpt>
<trkpt lat="46.11809961497784" lon="7.263209028169513"><ele></ele><time>2013-8-1T19:18:52Z</time></trkpt>
<trkpt lat="46.11805292777717" lon="7.263210956007242"><ele></ele><time>2013-8-1T19:18:55Z</time></trkpt>
<trkpt lat="46.11800481565297" lon="7.263204166665673"><ele></ele><time>2013-8-1T19:18:58Z</time></trkpt>
<trkpt lat="46.117956871166825" lon="7.263192432001233"><ele></ele><time>2013-8-1T19:19:1Z</time></trkpt>
<trkpt lat="46.11790616065264" lon="7.263175752013922"><ele></ele><time>2013-8-1T19:19:4Z</time></trkpt>
<trkpt lat="46.11785578541458" lon="7.263160748407245"><ele></ele><time>2013-8-1T19:19:7Z</time></trkpt>
<trkpt lat="46.117803985252976" lon="7.263147085905075"><ele></ele><time>2013-8-1T19:19:10Z</time></trkpt>
<trkpt lat="46.11775612458587" lon="7.263130489736795"><ele></ele><time>2013-8-1T19:19:13Z</time></trkpt>
<trkpt lat="46.117709102109075" lon="7.263109451159835"><ele></ele><time>2013-8-1T19:19:16Z</time></trkpt>
<trkpt lat="46.11766358837485" lon="7.2630830481648445"><ele></ele><time>2013-8-1T19:19:19Z</time></trkpt>
<trkpt lat="46.11761908046901" lon="7.26304960437119"><ele></ele><time>2013-8-1T19:19:22Z</time></trkpt>
<trkpt lat="46.11758245155215" lon="7.263022363185883"><ele></ele><time>2013-8-1T19:19:25Z</time></trkpt>
<trkpt lat="46.117554288357496" lon="7.263001408427954"><ele></ele><time>2013-8-1T19:19:28Z</time></trkpt>
<trkpt lat="46.11753216013312" lon="7.262979364022613"><ele></ele><time>2013-8-1T19:19:31Z</time></trkpt>
<trkpt lat="46.117510283365846" lon="7.262960923835635"><ele></ele><time>2013-8-1T19:19:34Z</time></trkpt>
<trkpt lat="46.1174884904176" lon="7.262943992391229"><ele></ele><time>2013-8-1T19:19:37Z</time></trkpt>
<trkpt lat="46.11746619455516" lon="7.262928234413266"><ele></ele><time>2013-8-1T19:19:40Z</time></trkpt>
<trkpt lat="46.1174435634166" lon="7.262904094532132"><ele></ele><time>2013-8-1T19:19:43Z</time></trkpt>
<trkpt lat="46.1174210999161" lon="7.262878278270364"><ele></ele><time>2013-8-1T19:19:46Z</time></trkpt>
<trkpt lat="46.11737466417253" lon="7.262816587463021"><ele></ele><time>2013-8-1T19:19:49Z</time></trkpt>
<trkpt lat="46.117309872061014" lon="7.2627608478069305"><ele></ele><time>2013-8-1T19:19:52Z</time></trkpt>
<trkpt lat="46.11727709881961" lon="7.262739222496748"><ele></ele><time>2013-8-1T19:19:55Z</time></trkpt>
<trkpt lat="46.11724021844566" lon="7.262719105929136"><ele></ele><time>2013-8-1T19:19:58Z</time></trkpt>
<trkpt lat="46.117203338071704" lon="7.262700162827969"><ele></ele><time>2013-8-1T19:20:1Z</time></trkpt>
<trkpt lat="46.11717626452446" lon="7.262683315202594"><ele></ele><time>2013-8-1T19:20:4Z</time></trkpt>
<trkpt lat="46.11716503277421" lon="7.262652553617954"><ele></ele><time>2013-8-1T19:20:7Z</time></trkpt>
<trkpt lat="46.11716746352613" lon="7.262609805911779"><ele></ele><time>2013-8-1T19:20:10Z</time></trkpt>
<trkpt lat="46.117177940905094" lon="7.262572171166539"><ele></ele><time>2013-8-1T19:20:13Z</time></trkpt>
<trkpt lat="46.117199985310435" lon="7.262550126761198"><ele></ele><time>2013-8-1T19:20:16Z</time></trkpt>
<trkpt lat="46.11722714267671" lon="7.262549456208944"><ele></ele><time>2013-8-1T19:20:19Z</time></trkpt>
<trkpt lat="46.11725388094783" lon="7.262556245550513"><ele></ele><time>2013-8-1T19:20:22Z</time></trkpt>
<trkpt lat="46.11728464253247" lon="7.262586085125804"><ele></ele><time>2013-8-1T19:20:25Z</time></trkpt>
<trkpt lat="46.11731356009841" lon="7.262603770941496"><ele></ele><time>2013-8-1T19:20:28Z</time></trkpt>
<trkpt lat="46.117349518463016" lon="7.26262548007071"><ele></ele><time>2013-8-1T19:20:31Z</time></trkpt>
<trkpt lat="46.11738530918956" lon="7.2626421600580215"><ele></ele><time>2013-8-1T19:20:34Z</time></trkpt>
<trkpt lat="46.11742118373513" lon="7.262650541961193"><ele></ele><time>2013-8-1T19:20:37Z</time></trkpt>
<trkpt lat="46.11745831556618" lon="7.2626586724072695"><ele></ele><time>2013-8-1T19:20:40Z</time></trkpt>
<trkpt lat="46.117498464882374" lon="7.262670239433646"><ele></ele><time>2013-8-1T19:20:43Z</time></trkpt>
<trkpt lat="46.117541966959834" lon="7.262696139514446"><ele></ele><time>2013-8-1T19:20:46Z</time></trkpt>
<trkpt lat="46.117581110447645" lon="7.2627234645187855"><ele></ele><time>2013-8-1T19:20:49Z</time></trkpt>
<trkpt lat="46.11761078238487" lon="7.262738719582558"><ele></ele><time>2013-8-1T19:20:52Z</time></trkpt>
<trkpt lat="46.1176354251802" lon="7.26274617947638"><ele></ele><time>2013-8-1T19:20:55Z</time></trkpt>
<trkpt lat="46.11765939742327" lon="7.262753304094076"><ele></ele><time>2013-8-1T19:20:58Z</time></trkpt>
<trkpt lat="46.11769434995949" lon="7.262755315750837"><ele></ele><time>2013-8-1T19:21:1Z</time></trkpt>
<trkpt lat="46.11773567274213" lon="7.262750789523125"><ele></ele><time>2013-8-1T19:21:4Z</time></trkpt>
<trkpt lat="46.11777238547802" lon="7.262745928019285"><ele></ele><time>2013-8-1T19:21:7Z</time></trkpt>
<trkpt lat="46.117801973596215" lon="7.262743413448334"><ele></ele><time>2013-8-1T19:21:10Z</time></trkpt>
<trkpt lat="46.11782795749605" lon="7.262733019888401"><ele></ele><time>2013-8-1T19:21:13Z</time></trkpt>
<trkpt lat="46.11784723587334" lon="7.262720698490739"><ele></ele><time>2013-8-1T19:21:16Z</time></trkpt>
<trkpt lat="46.117907501757145" lon="7.262689685449004"><ele></ele><time>2013-8-1T19:21:19Z</time></trkpt>
<trkpt lat="46.11794798634946" lon="7.262667389586568"><ele></ele><time>2013-8-1T19:21:22Z</time></trkpt>
<trkpt lat="46.11799165606499" lon="7.262640232220292"><ele></ele><time>2013-8-1T19:21:25Z</time></trkpt>
<trkpt lat="46.11803390085697" lon="7.262616343796253"><ele></ele><time>2013-8-1T19:21:28Z</time></trkpt>
<trkpt lat="46.11807103268802" lon="7.262601004913449"><ele></ele><time>2013-8-1T19:21:31Z</time></trkpt>
<trkpt lat="46.11810891889036" lon="7.262591449543834"><ele></ele><time>2013-8-1T19:21:34Z</time></trkpt>
<trkpt lat="46.11814538016915" lon="7.262580553069711"><ele></ele><time>2013-8-1T19:21:37Z</time></trkpt>
<trkpt lat="46.11817857250571" lon="7.262567896395922"><ele></ele><time>2013-8-1T19:21:40Z</time></trkpt>
<trkpt lat="46.118203634396195" lon="7.26255901157856"><ele></ele><time>2013-8-1T19:21:43Z</time></trkpt>
<trkpt lat="46.11822249367833" lon="7.262552808970213"><ele></ele><time>2013-8-1T19:21:46Z</time></trkpt>
<trkpt lat="46.118239257484674" lon="7.262550797313452"><ele></ele><time>2013-8-1T19:21:49Z</time></trkpt>
<trkpt lat="46.118239257484674" lon="7.262550797313452"><ele></ele><time>2013-8-1T19:21:52Z</time></trkpt>
<trkpt lat="46.118239257484674" lon="7.262550797313452"><ele></ele><time>2013-8-1T19:21:55Z</time></trkpt>
<trkpt lat="46.118239257484674" lon="7.262550797313452"><ele></ele><time>2013-8-1T19:21:58Z</time></trkpt>
<trkpt lat="46.118239257484674" lon="7.262550797313452"><ele></ele><time>2013-8-1T19:22:1Z</time></trkpt>
<trkpt lat="46.11824621446431" lon="7.262561023235321"><ele></ele><time>2013-8-1T19:22:4Z</time></trkpt>
<trkpt lat="46.118250992149115" lon="7.2625738475471735"><ele></ele><time>2013-8-1T19:22:7Z</time></trkpt>
<trkpt lat="46.118250992149115" lon="7.2625738475471735"><ele></ele><time>2013-8-1T19:22:10Z</time></trkpt>
<trkpt lat="46.118301283568144" lon="7.262545181438327"><ele></ele><time>2013-8-1T19:22:13Z</time></trkpt>
<trkpt lat="46.11839742399752" lon="7.262541661038995"><ele></ele><time>2013-8-1T19:22:16Z</time></trkpt>
<trkpt lat="46.11840329132974" lon="7.262548366561532"><ele></ele><time>2013-8-1T19:22:19Z</time></trkpt>
<trkpt lat="46.11840329132974" lon="7.262548366561532"><ele></ele><time>2013-8-1T19:22:22Z</time></trkpt>
<trkpt lat="46.11840329132974" lon="7.262548366561532"><ele></ele><time>2013-8-1T19:22:25Z</time></trkpt>
<trkpt lat="46.11841158941388" lon="7.262545935809612"><ele></ele><time>2013-8-1T19:22:28Z</time></trkpt>
<trkpt lat="46.11844687722623" lon="7.262562783434987"><ele></ele><time>2013-8-1T19:22:31Z</time></trkpt>
<trkpt lat="46.118495743721724" lon="7.2625623643398285"><ele></ele><time>2013-8-1T19:22:34Z</time></trkpt>
<trkpt lat="46.118534887209535" lon="7.262525651603937"><ele></ele><time>2013-8-1T19:22:37Z</time></trkpt>
<trkpt lat="46.11855609342456" lon="7.262505199760199"><ele></ele><time>2013-8-1T19:22:40Z</time></trkpt>
<trkpt lat="46.11857947893441" lon="7.262486424297094"><ele></ele><time>2013-8-1T19:22:43Z</time></trkpt>
<trkpt lat="46.11860127188265" lon="7.262470498681068"><ele></ele><time>2013-8-1T19:22:46Z</time></trkpt>
<trkpt lat="46.118620885536075" lon="7.262458931654692"><ele></ele><time>2013-8-1T19:22:49Z</time></trkpt>
<trkpt lat="46.11866061575711" lon="7.262445269152522"><ele></ele><time>2013-8-1T19:22:52Z</time></trkpt>
<trkpt lat="46.11868802458048" lon="7.262438395991921"><ele></ele><time>2013-8-1T19:22:55Z</time></trkpt>
<trkpt lat="46.118720043450594" lon="7.2624333668500185"><ele></ele><time>2013-8-1T19:22:58Z</time></trkpt>
<trkpt lat="46.11875373870134" lon="7.262429092079401"><ele></ele><time>2013-8-1T19:23:1Z</time></trkpt>
<trkpt lat="46.118788439780474" lon="7.262422973290086"><ele></ele><time>2013-8-1T19:23:4Z</time></trkpt>
<trkpt lat="46.118907211348414" lon="7.26237628608942"><ele></ele><time>2013-8-1T19:23:7Z</time></trkpt>
<trkpt lat="46.11894610337913" lon="7.262347117066383"><ele></ele><time>2013-8-1T19:23:10Z</time></trkpt>
<trkpt lat="46.11898030154407" lon="7.262315433472395"><ele></ele><time>2013-8-1T19:23:13Z</time></trkpt>
<trkpt lat="46.119009805843234" lon="7.262279307469726"><ele></ele><time>2013-8-1T19:23:16Z</time></trkpt>
<trkpt lat="46.11903553828597" lon="7.262249803170562"><ele></ele><time>2013-8-1T19:23:19Z</time></trkpt>
<trkpt lat="46.1190668027848" lon="7.262225579470396"><ele></ele><time>2013-8-1T19:23:22Z</time></trkpt>
<trkpt lat="46.119105108082294" lon="7.2622080612927675"><ele></ele><time>2013-8-1T19:23:25Z</time></trkpt>
<trkpt lat="46.11914785578847" lon="7.262199847027659"><ele></ele><time>2013-8-1T19:23:28Z</time></trkpt>
<trkpt lat="46.11919278278947" lon="7.26218668743968"><ele></ele><time>2013-8-1T19:23:31Z</time></trkpt>
<trkpt lat="46.119232680648565" lon="7.262155003845692"><ele></ele><time>2013-8-1T19:23:34Z</time></trkpt>
<trkpt lat="46.119270734488964" lon="7.262119967490435"><ele></ele><time>2013-8-1T19:23:37Z</time></trkpt>
<trkpt lat="46.11930719576776" lon="7.262093815952539"><ele></ele><time>2013-8-1T19:23:40Z</time></trkpt>
<trkpt lat="46.11934030428529" lon="7.26207721978426"><ele></ele><time>2013-8-1T19:23:43Z</time></trkpt>
<trkpt lat="46.11936368979514" lon="7.262073699384928"><ele></ele><time>2013-8-1T19:23:46Z</time></trkpt>
<trkpt lat="46.11937617883086" lon="7.262064814567566"><ele></ele><time>2013-8-1T19:23:49Z</time></trkpt>
<trkpt lat="46.11938933841884" lon="7.2620463743805885"><ele></ele><time>2013-8-1T19:23:52Z</time></trkpt>
<trkpt lat="46.119404677301645" lon="7.262009829282761"><ele></ele><time>2013-8-1T19:23:55Z</time></trkpt>
<trkpt lat="46.11942244693637" lon="7.261963477358222"><ele></ele><time>2013-8-1T19:23:58Z</time></trkpt>
<trkpt lat="46.11944407224655" lon="7.261912180110812"><ele></ele><time>2013-8-1T19:24:1Z</time></trkpt>
<trkpt lat="46.11950115300715" lon="7.2618140280246735"><ele></ele><time>2013-8-1T19:24:4Z</time></trkpt>
<trkpt lat="46.11954079940915" lon="7.261774800717831"><ele></ele><time>2013-8-1T19:24:7Z</time></trkpt>
<trkpt lat="46.11957927234471" lon="7.261741356924176"><ele></ele><time>2013-8-1T19:24:10Z</time></trkpt>
<trkpt lat="46.119611794129014" lon="7.261710427701473"><ele></ele><time>2013-8-1T19:24:13Z</time></trkpt>
<trkpt lat="46.11964104697108" lon="7.2616850305348635"><ele></ele><time>2013-8-1T19:24:16Z</time></trkpt>
<trkpt lat="46.11966887488961" lon="7.261657789349556"><ele></ele><time>2013-8-1T19:24:19Z</time></trkpt>
<trkpt lat="46.11970064230263" lon="7.261635158210993"><ele></ele><time>2013-8-1T19:24:22Z</time></trkpt>
<trkpt lat="46.119732577353716" lon="7.2616116888821125"><ele></ele><time>2013-8-1T19:24:25Z</time></trkpt>
<trkpt lat="46.11977037973702" lon="7.261592661961913"><ele></ele><time>2013-8-1T19:24:28Z</time></trkpt>
<trkpt lat="46.119804326444864" lon="7.261583441868424"><ele></ele><time>2013-8-1T19:24:31Z</time></trkpt>
<trkpt lat="46.11984229646623" lon="7.261580256745219"><ele></ele><time>2013-8-1T19:24:34Z</time></trkpt>
<trkpt lat="46.11988336779177" lon="7.261579250916839"><ele></ele><time>2013-8-1T19:24:37Z</time></trkpt>
<trkpt lat="46.119926953688264" lon="7.261574724689126"><ele></ele><time>2013-8-1T19:24:40Z</time></trkpt>
<trkpt lat="46.120025692507625" lon="7.261545639485121"><ele></ele><time>2013-8-1T19:24:43Z</time></trkpt>
<trkpt lat="46.12006835639477" lon="7.261513872072101"><ele></ele><time>2013-8-1T19:24:46Z</time></trkpt>
<trkpt lat="46.12010607495904" lon="7.261480176821351"><ele></ele><time>2013-8-1T19:24:49Z</time></trkpt>
<trkpt lat="46.12013683654368" lon="7.261442206799984"><ele></ele><time>2013-8-1T19:24:52Z</time></trkpt>
<trkpt lat="46.120167849585414" lon="7.261403650045395"><ele></ele><time>2013-8-1T19:24:55Z</time></trkpt>
<trkpt lat="46.12019852735102" lon="7.261369116604328"><ele></ele><time>2013-8-1T19:24:58Z</time></trkpt>
<trkpt lat="46.120228534564376" lon="7.261340199038386"><ele></ele><time>2013-8-1T19:25:1Z</time></trkpt>
<trkpt lat="46.120251920074224" lon="7.2613227646797895"><ele></ele><time>2013-8-1T19:25:4Z</time></trkpt>
<trkpt lat="46.120283687487245" lon="7.261312119662762"><ele></ele><time>2013-8-1T19:25:7Z</time></trkpt>
<trkpt lat="46.12032257951796" lon="7.2612997982650995"><ele></ele><time>2013-8-1T19:25:10Z</time></trkpt>
<trkpt lat="46.12036515958607" lon="7.261279849335551"><ele></ele><time>2013-8-1T19:25:13Z</time></trkpt>
<trkpt lat="46.12040497362614" lon="7.261249339208007"><ele></ele><time>2013-8-1T19:25:16Z</time></trkpt>
<trkpt lat="46.120446883141994" lon="7.261211704462767"><ele></ele><time>2013-8-1T19:25:19Z</time></trkpt>
<trkpt lat="46.12049113959074" lon="7.261175494641066"><ele></ele><time>2013-8-1T19:25:22Z</time></trkpt>
<trkpt lat="46.12053413875401" lon="7.261143811047077"><ele></ele><time>2013-8-1T19:25:25Z</time></trkpt>
<trkpt lat="46.120575880631804" lon="7.261112043634057"><ele></ele><time>2013-8-1T19:25:28Z</time></trkpt>
<trkpt lat="46.120612509548664" lon="7.261084048077464"><ele></ele><time>2013-8-1T19:25:31Z</time></trkpt>
<trkpt lat="46.120648216456175" lon="7.261055801063776"><ele></ele><time>2013-8-1T19:25:34Z</time></trkpt>
<trkpt lat="46.12068643793464" lon="7.261028308421373"><ele></ele><time>2013-8-1T19:25:37Z</time></trkpt>
<trkpt lat="46.12072826363146" lon="7.261007688939571"><ele></ele><time>2013-8-1T19:25:40Z</time></trkpt>
<trkpt lat="46.12076925113797" lon="7.260991679504514"><ele></ele><time>2013-8-1T19:25:43Z</time></trkpt>
<trkpt lat="46.12080303020775" lon="7.2609764244407415"><ele></ele><time>2013-8-1T19:25:46Z</time></trkpt>
<trkpt lat="46.12083219923079" lon="7.260961588472128"><ele></ele><time>2013-8-1T19:25:49Z</time></trkpt>
<trkpt lat="46.12085751257837" lon="7.260949183255434"><ele></ele><time>2013-8-1T19:25:52Z</time></trkpt>
<trkpt lat="46.12088609486818" lon="7.260931916534901"><ele></ele><time>2013-8-1T19:25:55Z</time></trkpt>
<trkpt lat="46.12091735936701" lon="7.260914649814367"><ele></ele><time>2013-8-1T19:25:58Z</time></trkpt>
<trkpt lat="46.12094795331359" lon="7.2608948685228825"><ele></ele><time>2013-8-1T19:26:1Z</time></trkpt>
<trkpt lat="46.12098064273596" lon="7.260875003412366"><ele></ele><time>2013-8-1T19:26:4Z</time></trkpt>
<trkpt lat="46.12101593054831" lon="7.260859748348594"><ele></ele><time>2013-8-1T19:26:7Z</time></trkpt>
<trkpt lat="46.12105540931225" lon="7.26085027679801"><ele></ele><time>2013-8-1T19:26:10Z</time></trkpt>
<trkpt lat="46.12109002657235" lon="7.2608542162925005"><ele></ele><time>2013-8-1T19:26:13Z</time></trkpt>
<trkpt lat="46.12112489528954" lon="7.260866202414036"><ele></ele><time>2013-8-1T19:26:16Z</time></trkpt>
<trkpt lat="46.12116185948253" lon="7.260881625115871"><ele></ele><time>2013-8-1T19:26:19Z</time></trkpt>
<trkpt lat="46.12119949422777" lon="7.260891934856772"><ele></ele><time>2013-8-1T19:26:22Z</time></trkpt>
<trkpt lat="46.12123134545982" lon="7.260875506326556"><ele></ele><time>2013-8-1T19:26:25Z</time></trkpt>
<trkpt lat="46.12125816754997" lon="7.260841811075807"><ele></ele><time>2013-8-1T19:26:28Z</time></trkpt>
<trkpt lat="46.121287336573005" lon="7.260804008692503"><ele></ele><time>2013-8-1T19:26:31Z</time></trkpt>
<trkpt lat="46.121320528909564" lon="7.260758243501186"><ele></ele><time>2013-8-1T19:26:34Z</time></trkpt>
<trkpt lat="46.12135908566415" lon="7.260719183832407"><ele></ele><time>2013-8-1T19:26:37Z</time></trkpt>
<trkpt lat="46.12140250392258" lon="7.260685907676816"><ele></ele><time>2013-8-1T19:26:40Z</time></trkpt>
<trkpt lat="46.12145078368485" lon="7.260659085586667"><ele></ele><time>2013-8-1T19:26:43Z</time></trkpt>
<trkpt lat="46.12150258384645" lon="7.2606386337429285"><ele></ele><time>2013-8-1T19:26:46Z</time></trkpt>
<trkpt lat="46.121553713455796" lon="7.260623378679156"><ele></ele><time>2013-8-1T19:26:49Z</time></trkpt>
<trkpt lat="46.12160534597933" lon="7.26060451939702"><ele></ele><time>2013-8-1T19:26:52Z</time></trkpt>
<trkpt lat="46.12165505066514" lon="7.2605847381055355"><ele></ele><time>2013-8-1T19:26:55Z</time></trkpt>
<trkpt lat="46.12169796600938" lon="7.260568561032414"><ele></ele><time>2013-8-1T19:26:58Z</time></trkpt>
<trkpt lat="46.12173778004944" lon="7.260552886873484"><ele></ele><time>2013-8-1T19:27:1Z</time></trkpt>
<trkpt lat="46.12177801318467" lon="7.260534111410379"><ele></ele><time>2013-8-1T19:27:4Z</time></trkpt>
<trkpt lat="46.121817491948605" lon="7.2605078760534525"><ele></ele><time>2013-8-1T19:27:7Z</time></trkpt>
<trkpt lat="46.12185487523675" lon="7.2604722529649734"><ele></ele><time>2013-8-1T19:27:10Z</time></trkpt>
<trkpt lat="46.121889324858785" lon="7.260427493602037"><ele></ele><time>2013-8-1T19:27:13Z</time></trkpt>
<trkpt lat="46.12192561849952" lon="7.260373514145613"><ele></ele><time>2013-8-1T19:27:16Z</time></trkpt>
<trkpt lat="46.12195177003741" lon="7.260317439213395"><ele></ele><time>2013-8-1T19:27:19Z</time></trkpt>
<trkpt lat="46.12197666428983" lon="7.260256418958306"><ele></ele><time>2013-8-1T19:27:22Z</time></trkpt>
<trkpt lat="46.12200088799" lon="7.260196320712566"><ele></ele><time>2013-8-1T19:27:25Z</time></trkpt>
<trkpt lat="46.1220233514905" lon="7.2601379826664925"><ele></ele><time>2013-8-1T19:27:28Z</time></trkpt>
<trkpt lat="46.12205017358065" lon="7.260083416476846"><ele></ele><time>2013-8-1T19:27:31Z</time></trkpt>
<trkpt lat="46.12208001315594" lon="7.260038321837783"><ele></ele><time>2013-8-1T19:27:34Z</time></trkpt>
<trkpt lat="46.12210943363607" lon="7.260001860558987"><ele></ele><time>2013-8-1T19:27:37Z</time></trkpt>
<trkpt lat="46.12213893793523" lon="7.259968249127269"><ele></ele><time>2013-8-1T19:27:40Z</time></trkpt>
<trkpt lat="46.12217447720468" lon="7.259939247742295"><ele></ele><time>2013-8-1T19:27:43Z</time></trkpt>
<trkpt lat="46.12221563234925" lon="7.25992089137435"><ele></ele><time>2013-8-1T19:27:46Z</time></trkpt>
<trkpt lat="46.122252428904176" lon="7.259897505864501"><ele></ele><time>2013-8-1T19:27:49Z</time></trkpt>
<trkpt lat="46.12228939309716" lon="7.25986716337502"><ele></ele><time>2013-8-1T19:27:52Z</time></trkpt>
<trkpt lat="46.12232442945242" lon="7.25984419696033"><ele></ele><time>2013-8-1T19:27:55Z</time></trkpt>
<trkpt lat="46.12235737033188" lon="7.259826175868511"><ele></ele><time>2013-8-1T19:27:58Z</time></trkpt>
<trkpt lat="46.12239475362003" lon="7.259813100099564"><ele></ele><time>2013-8-1T19:28:1Z</time></trkpt>
<trkpt lat="46.1224324721843" lon="7.259806310757995"><ele></ele><time>2013-8-1T19:28:4Z</time></trkpt>
<trkpt lat="46.12246675416827" lon="7.259797090664506"><ele></ele><time>2013-8-1T19:28:7Z</time></trkpt>
<trkpt lat="46.12250564619899" lon="7.259780075401068"><ele></ele><time>2013-8-1T19:28:10Z</time></trkpt>
<trkpt lat="46.12254579551518" lon="7.259762976318598"><ele></ele><time>2013-8-1T19:28:13Z</time></trkpt>
<trkpt lat="46.12258577719331" lon="7.259749481454492"><ele></ele><time>2013-8-1T19:28:16Z</time></trkpt>
<trkpt lat="46.12262500450015" lon="7.259724419564009"><ele></ele><time>2013-8-1T19:28:19Z</time></trkpt>
<trkpt lat="46.12266649492085" lon="7.259687623009086"><ele></ele><time>2013-8-1T19:28:22Z</time></trkpt>
<trkpt lat="46.12270505167544" lon="7.259648311883211"><ele></ele><time>2013-8-1T19:28:25Z</time></trkpt>
<trkpt lat="46.122739585116506" lon="7.259614784270525"><ele></ele><time>2013-8-1T19:28:28Z</time></trkpt>
<trkpt lat="46.12277696840465" lon="7.259580250829458"><ele></ele><time>2013-8-1T19:28:31Z</time></trkpt>
<trkpt lat="46.12281510606408" lon="7.259550411254168"><ele></ele><time>2013-8-1T19:28:34Z</time></trkpt>
<trkpt lat="46.12285575829446" lon="7.259528450667858"><ele></ele><time>2013-8-1T19:28:37Z</time></trkpt>
<trkpt lat="46.12290060147643" lon="7.259503807872534"><ele></ele><time>2013-8-1T19:28:40Z</time></trkpt>
<trkpt lat="46.12294410355389" lon="7.25946499966085"><ele></ele><time>2013-8-1T19:28:43Z</time></trkpt>
<trkpt lat="46.1229832470417" lon="7.259422838687897"><ele></ele><time>2013-8-1T19:28:46Z</time></trkpt>
<trkpt lat="46.123018534854054" lon="7.259389143437147"><ele></ele><time>2013-8-1T19:28:49Z</time></trkpt>
<trkpt lat="46.123054744675756" lon="7.25936240516603"><ele></ele><time>2013-8-1T19:28:52Z</time></trkpt>
<trkpt lat="46.12309439107776" lon="7.259337091818452"><ele></ele><time>2013-8-1T19:28:55Z</time></trkpt>
<trkpt lat="46.1231336183846" lon="7.2593077551573515"><ele></ele><time>2013-8-1T19:28:58Z</time></trkpt>
<trkpt lat="46.123169073835015" lon="7.259269701316953"><ele></ele><time>2013-8-1T19:29:1Z</time></trkpt>
<trkpt lat="46.12320008687675" lon="7.259224858134985"><ele></ele><time>2013-8-1T19:29:4Z</time></trkpt>
<trkpt lat="46.12323076464236" lon="7.259176075458527"><ele></ele><time>2013-8-1T19:29:7Z</time></trkpt>
<trkpt lat="46.123263789340854" lon="7.259130897000432"><ele></ele><time>2013-8-1T19:29:10Z</time></trkpt>
<trkpt lat="46.123302010819316" lon="7.259096028283238"><ele></ele><time>2013-8-1T19:29:13Z</time></trkpt>
<trkpt lat="46.123345931991935" lon="7.259063925594091"><ele></ele><time>2013-8-1T19:29:16Z</time></trkpt>
<trkpt lat="46.12338717095554" lon="7.259033164009452"><ele></ele><time>2013-8-1T19:29:19Z</time></trkpt>
<trkpt lat="46.1234219558537" lon="7.259001648053527"><ele></ele><time>2013-8-1T19:29:22Z</time></trkpt>
<trkpt lat="46.12345305271447" lon="7.258980693295598"><ele></ele><time>2013-8-1T19:29:25Z</time></trkpt>
<trkpt lat="46.12347702495754" lon="7.25895588286221"><ele></ele><time>2013-8-1T19:29:28Z</time></trkpt>
<trkpt lat="46.12349655479193" lon="7.258922103792429"><ele></ele><time>2013-8-1T19:29:31Z</time></trkpt>
<trkpt lat="46.12351390533149" lon="7.258875165134668"><ele></ele><time>2013-8-1T19:29:34Z</time></trkpt>
<trkpt lat="46.12352999858558" lon="7.2588238678872585"><ele></ele><time>2013-8-1T19:29:37Z</time></trkpt>
<trkpt lat="46.123562352731824" lon="7.2587057668715715"><ele></ele><time>2013-8-1T19:29:40Z</time></trkpt>
<trkpt lat="46.12358322367072" lon="7.258648602291942"><ele></ele><time>2013-8-1T19:29:43Z</time></trkpt>
<trkpt lat="46.12360727973282" lon="7.25859085097909"><ele></ele><time>2013-8-1T19:29:46Z</time></trkpt>
<trkpt lat="46.123635275289416" lon="7.258534440770745"><ele></ele><time>2013-8-1T19:29:49Z</time></trkpt>
<trkpt lat="46.12366201356053" lon="7.258479790762067"><ele></ele><time>2013-8-1T19:29:52Z</time></trkpt>
<trkpt lat="46.123686069622636" lon="7.258426984772086"><ele></ele><time>2013-8-1T19:29:55Z</time></trkpt>
<trkpt lat="46.123710963875055" lon="7.258373089134693"><ele></ele><time>2013-8-1T19:29:58Z</time></trkpt>
<trkpt lat="46.12374197691679" lon="7.258319444954395"><ele></ele><time>2013-8-1T19:30:1Z</time></trkpt>
<trkpt lat="46.123776426538825" lon="7.25827518850565"><ele></ele><time>2013-8-1T19:30:4Z</time></trkpt>
<trkpt lat="46.12381272017956" lon="7.2582360450178385"><ele></ele><time>2013-8-1T19:30:7Z</time></trkpt>
<trkpt lat="46.12384716980159" lon="7.258195141330361"><ele></ele><time>2013-8-1T19:30:10Z</time></trkpt>
<trkpt lat="46.123885894194245" lon="7.258160607889295"><ele></ele><time>2013-8-1T19:30:13Z</time></trkpt>
<trkpt lat="46.12392126582563" lon="7.258132612332702"><ele></ele><time>2013-8-1T19:30:16Z</time></trkpt>
<trkpt lat="46.123957727104425" lon="7.25810956209898"><ele></ele><time>2013-8-1T19:30:19Z</time></trkpt>
<trkpt lat="46.124003659933805" lon="7.258091457188129"><ele></ele><time>2013-8-1T19:30:22Z</time></trkpt>
<trkpt lat="46.12404204905033" lon="7.258072094991803"><ele></ele><time>2013-8-1T19:30:25Z</time></trkpt>
<trkpt lat="46.124058896675706" lon="7.258032783865929"><ele></ele><time>2013-8-1T19:30:28Z</time></trkpt>
<trkpt lat="46.124047664925456" lon="7.2579998429864645"><ele></ele><time>2013-8-1T19:30:31Z</time></trkpt>
<trkpt lat="46.124022183939815" lon="7.257980480790138"><ele></ele><time>2013-8-1T19:30:34Z</time></trkpt>
<trkpt lat="46.12399024888873" lon="7.257974110543728"><ele></ele><time>2013-8-1T19:30:37Z</time></trkpt>
<trkpt lat="46.12395001575351" lon="7.257970841601491"><ele></ele><time>2013-8-1T19:30:40Z</time></trkpt>
<trkpt lat="46.12391103990376" lon="7.257986348122358"><ele></ele><time>2013-8-1T19:30:43Z</time></trkpt>
<trkpt lat="46.12386552616954" lon="7.258004201576114"><ele></ele><time>2013-8-1T19:30:46Z</time></trkpt>
<trkpt lat="46.12381674349308" lon="7.258018869906664"><ele></ele><time>2013-8-1T19:30:49Z</time></trkpt>
<trkpt lat="46.123777935281396" lon="7.258031191304326"><ele></ele><time>2013-8-1T19:30:52Z</time></trkpt>
<trkpt lat="46.12373937852681" lon="7.258048625662923"><ele></ele><time>2013-8-1T19:30:55Z</time></trkpt>
<trkpt lat="46.12370048649609" lon="7.258069412782788"><ele></ele><time>2013-8-1T19:30:58Z</time></trkpt>
<trkpt lat="46.12366176210344" lon="7.258099503815174"><ele></ele><time>2013-8-1T19:31:1Z</time></trkpt>
<trkpt lat="46.12361867912114" lon="7.258132696151733"><ele></ele><time>2013-8-1T19:31:4Z</time></trkpt>
<trkpt lat="46.123568220064044" lon="7.258162619546056"><ele></ele><time>2013-8-1T19:31:7Z</time></trkpt>
<trkpt lat="46.12352111376822" lon="7.258195895701647"><ele></ele><time>2013-8-1T19:31:10Z</time></trkpt>
<trkpt lat="46.12347182817757" lon="7.258224645629525"><ele></ele><time>2013-8-1T19:31:13Z</time></trkpt>
<trkpt lat="46.123425392434" lon="7.2582554910331964"><ele></ele><time>2013-8-1T19:31:16Z</time></trkpt>
<trkpt lat="46.1233841534704" lon="7.258288934826851"><ele></ele><time>2013-8-1T19:31:19Z</time></trkpt>
<trkpt lat="46.12335339188576" lon="7.258319444954395"><ele></ele><time>2013-8-1T19:31:22Z</time></trkpt>
<trkpt lat="46.1233233846724" lon="7.25835339166224"><ele></ele><time>2013-8-1T19:31:25Z</time></trkpt>
<trkpt lat="46.12329396419227" lon="7.258376944810152"><ele></ele><time>2013-8-1T19:31:28Z</time></trkpt>
<trkpt lat="46.123261945322156" lon="7.258396055549383"><ele></ele><time>2013-8-1T19:31:31Z</time></trkpt>
<trkpt lat="46.12322900444269" lon="7.258418435230851"><ele></ele><time>2013-8-1T19:31:34Z</time></trkpt>
<trkpt lat="46.123192962259054" lon="7.258445844054222"><ele></ele><time>2013-8-1T19:31:37Z</time></trkpt>
<trkpt lat="46.12311760894954" lon="7.258497644215822"><ele></ele><time>2013-8-1T19:31:40Z</time></trkpt>
<trkpt lat="46.1230802256614" lon="7.258513569831848"><ele></ele><time>2013-8-1T19:31:43Z</time></trkpt>
<trkpt lat="46.12288450822234" lon="7.258608536794782"><ele></ele><time>2013-8-1T19:31:46Z</time></trkpt>
<trkpt lat="46.12285131588578" lon="7.258630748838186"><ele></ele><time>2013-8-1T19:31:49Z</time></trkpt>
<trkpt lat="46.12281954847276" lon="7.258645165711641"><ele></ele><time>2013-8-1T19:31:52Z</time></trkpt>
<trkpt lat="46.12271536141634" lon="7.258683638647199"><ele></ele><time>2013-8-1T19:31:55Z</time></trkpt>
<trkpt lat="46.122670602053404" lon="7.258692355826497"><ele></ele><time>2013-8-1T19:31:58Z</time></trkpt>
<trkpt lat="46.122488463297486" lon="7.2587137296795845"><ele></ele><time>2013-8-1T19:32:1Z</time></trkpt>
<trkpt lat="46.122411182150245" lon="7.258763434365392"><ele></ele><time>2013-8-1T19:32:4Z</time></trkpt>
<trkpt lat="46.122368182986975" lon="7.258780365809798"><ele></ele><time>2013-8-1T19:32:7Z</time></trkpt>
<trkpt lat="46.12231772392988" lon="7.258777767419815"><ele></ele><time>2013-8-1T19:32:10Z</time></trkpt>
<trkpt lat="46.12227128818631" lon="7.258756393566728"><ele></ele><time>2013-8-1T19:32:13Z</time></trkpt>
<trkpt lat="46.12223105505109" lon="7.258726805448532"><ele></ele><time>2013-8-1T19:32:16Z</time></trkpt>
<trkpt lat="46.1221494153142" lon="7.258686488494277"><ele></ele><time>2013-8-1T19:32:19Z</time></trkpt>
<trkpt lat="46.12210691906512" lon="7.258674670010805"><ele></ele><time>2013-8-1T19:32:22Z</time></trkpt>
<trkpt lat="46.12196819856763" lon="7.25862848572433"><ele></ele><time>2013-8-1T19:32:25Z</time></trkpt>
<trkpt lat="46.12192142754793" lon="7.258627312257886"><ele></ele><time>2013-8-1T19:32:28Z</time></trkpt>
<trkpt lat="46.12173534929752" lon="7.258649608120322"><ele></ele><time>2013-8-1T19:32:31Z</time></trkpt>
<trkpt lat="46.121685644611716" lon="7.258664360269904"><ele></ele><time>2013-8-1T19:32:34Z</time></trkpt>
<trkpt lat="46.121637197211385" lon="7.2586948703974485"><ele></ele><time>2013-8-1T19:32:37Z</time></trkpt>
<trkpt lat="46.12159553915262" lon="7.25873694755137"><ele></ele><time>2013-8-1T19:32:40Z</time></trkpt>
<trkpt lat="46.121546756476164" lon="7.258784221485257"><ele></ele><time>2013-8-1T19:32:43Z</time></trkpt>
<trkpt lat="46.12148808315396" lon="7.258816743269563"><ele></ele><time>2013-8-1T19:32:46Z</time></trkpt>
<trkpt lat="46.12136294133961" lon="7.2588238678872585"><ele></ele><time>2013-8-1T19:32:49Z</time></trkpt>
<trkpt lat="46.1213050223887" lon="7.2588250413537025"><ele></ele><time>2013-8-1T19:32:52Z</time></trkpt>
<trkpt lat="46.12124861218035" lon="7.258831914514303"><ele></ele><time>2013-8-1T19:32:55Z</time></trkpt>
<trkpt lat="46.12118440680206" lon="7.25884004496038"><ele></ele><time>2013-8-1T19:32:58Z</time></trkpt>
<trkpt lat="46.121117854490876" lon="7.258849432691932"><ele></ele><time>2013-8-1T19:33:1Z</time></trkpt>
<trkpt lat="46.12104912288487" lon="7.258848594501615"><ele></ele><time>2013-8-1T19:33:4Z</time></trkpt>
<trkpt lat="46.120977541431785" lon="7.2588444873690605"><ele></ele><time>2013-8-1T19:33:7Z</time></trkpt>
<trkpt lat="46.1208401620388" lon="7.258827388286591"><ele></ele><time>2013-8-1T19:33:10Z</time></trkpt>
<trkpt lat="46.120770340785384" lon="7.258817162364721"><ele></ele><time>2013-8-1T19:33:13Z</time></trkpt>
<trkpt lat="46.12070278264582" lon="7.258808109909296"><ele></ele><time>2013-8-1T19:33:16Z</time></trkpt>
<trkpt lat="46.120635475963354" lon="7.258796542882919"><ele></ele><time>2013-8-1T19:33:19Z</time></trkpt>
<trkpt lat="46.12057361751795" lon="7.258781623095274"><ele></ele><time>2013-8-1T19:33:22Z</time></trkpt>
<trkpt lat="46.12051670439541" lon="7.25876972079277"><ele></ele><time>2013-8-1T19:33:25Z</time></trkpt>
<trkpt lat="46.120462054386735" lon="7.25876628421247"><ele></ele><time>2013-8-1T19:33:28Z</time></trkpt>
<trkpt lat="46.12036298029125" lon="7.258771313354373"><ele></ele><time>2013-8-1T19:33:31Z</time></trkpt>
<trkpt lat="46.12032878212631" lon="7.258779779076576"><ele></ele><time>2013-8-1T19:33:34Z</time></trkpt>
<trkpt lat="46.120301792398095" lon="7.258775923401117"><ele></ele><time>2013-8-1T19:33:37Z</time></trkpt>
<trkpt lat="46.12028335221112" lon="7.2587579023092985"><ele></ele><time>2013-8-1T19:33:40Z</time></trkpt>
<trkpt lat="46.12027773633599" lon="7.258720938116312"><ele></ele><time>2013-8-1T19:33:43Z</time></trkpt>
<trkpt lat="46.120278323069215" lon="7.258684812113643"><ele></ele><time>2013-8-1T19:33:46Z</time></trkpt>
<trkpt lat="46.12028477713466" lon="7.258650530129671"><ele></ele><time>2013-8-1T19:33:49Z</time></trkpt>
<trkpt lat="46.120293913409114" lon="7.258633347228169"><ele></ele><time>2013-8-1T19:33:52Z</time></trkpt>
<trkpt lat="46.120305228978395" lon="7.258630329743028"><ele></ele><time>2013-8-1T19:33:55Z</time></trkpt>
<trkpt lat="46.120310090482235" lon="7.258630497381091"><ele></ele><time>2013-8-1T19:33:58Z</time></trkpt>
<trkpt lat="46.12032836303115" lon="7.258640807121992"><ele></ele><time>2013-8-1T19:34:1Z</time></trkpt>
<trkpt lat="46.12033464945853" lon="7.258649859577417"><ele></ele><time>2013-8-1T19:34:4Z</time></trkpt>
<trkpt lat="46.12033523619175" lon="7.258647512644529"><ele></ele><time>2013-8-1T19:34:7Z</time></trkpt>
<trkpt lat="46.1203826777637" lon="7.25863485597074"><ele></ele><time>2013-8-1T19:34:10Z</time></trkpt>
<trkpt lat="46.120432214811444" lon="7.258598478510976"><ele></ele><time>2013-8-1T19:34:13Z</time></trkpt>
<trkpt lat="46.12047052010894" lon="7.2585812117904425"><ele></ele><time>2013-8-1T19:34:16Z</time></trkpt>
<trkpt lat="46.120519721880555" lon="7.258561430498958"><ele></ele><time>2013-8-1T19:34:19Z</time></trkpt>
<trkpt lat="46.12070269882679" lon="7.258477862924337"><ele></ele><time>2013-8-1T19:34:22Z</time></trkpt>
<trkpt lat="46.1207677423954" lon="7.258415753021836"><ele></ele><time>2013-8-1T19:34:25Z</time></trkpt>
<trkpt lat="46.12083219923079" lon="7.2583416569978"><ele></ele><time>2013-8-1T19:34:28Z</time></trkpt>
<trkpt lat="46.12088969908655" lon="7.258260017260909"><ele></ele><time>2013-8-1T19:34:31Z</time></trkpt>
<trkpt lat="46.12094518728554" lon="7.2581753600388765"><ele></ele><time>2013-8-1T19:34:34Z</time></trkpt>
<trkpt lat="46.12100327387452" lon="7.258088272064924"><ele></ele><time>2013-8-1T19:34:37Z</time></trkpt>
<trkpt lat="46.12106169573963" lon="7.25800302810967"><ele></ele><time>2013-8-1T19:34:40Z</time></trkpt>
<trkpt lat="46.121110897511244" lon="7.257920214906335"><ele></ele><time>2013-8-1T19:34:43Z</time></trkpt>
<trkpt lat="46.1211530584842" lon="7.257846454158425"><ele></ele><time>2013-8-1T19:34:46Z</time></trkpt>
<trkpt lat="46.12119471654296" lon="7.25777730345726"><ele></ele><time>2013-8-1T19:34:49Z</time></trkpt>
<trkpt lat="46.12123779952526" lon="7.257714690640569"><ele></ele><time>2013-8-1T19:34:52Z</time></trkpt>
<trkpt lat="46.12129203043878" lon="7.257662303745747"><ele></ele><time>2013-8-1T19:34:55Z</time></trkpt>
<trkpt lat="46.12135631963611" lon="7.257630284875631"><ele></ele><time>2013-8-1T19:34:58Z</time></trkpt>
<trkpt lat="46.12142815254629" lon="7.257589129731059"><ele></ele><time>2013-8-1T19:35:1Z</time></trkpt>
<trkpt lat="46.12150250002742" lon="7.257548309862614"><ele></ele><time>2013-8-1T19:35:4Z</time></trkpt>
<trkpt lat="46.12157642841339" lon="7.257510591298342"><ele></ele><time>2013-8-1T19:35:7Z</time></trkpt>
<trkpt lat="46.1216483451426" lon="7.2574816737324"><ele></ele><time>2013-8-1T19:35:10Z</time></trkpt>
<trkpt lat="46.12172386609018" lon="7.257468346506357"><ele></ele><time>2013-8-1T19:35:13Z</time></trkpt>
<trkpt lat="46.12180206924677" lon="7.257455186918378"><ele></ele><time>2013-8-1T19:35:16Z</time></trkpt>
<trkpt lat="46.12187624908984" lon="7.257443955168128"><ele></ele><time>2013-8-1T19:35:19Z</time></trkpt>
<trkpt lat="46.12195654772222" lon="7.257433980703354"><ele></ele><time>2013-8-1T19:35:22Z</time></trkpt>
<trkpt lat="46.122042713686824" lon="7.2574270237237215"><ele></ele><time>2013-8-1T19:35:25Z</time></trkpt>
<trkpt lat="46.122134579345584" lon="7.2574149537831545"><ele></ele><time>2013-8-1T19:35:28Z</time></trkpt>
<trkpt lat="46.122223092243075" lon="7.257393077015877"><ele></ele><time>2013-8-1T19:35:31Z</time></trkpt>
<trkpt lat="46.12230976112187" lon="7.257360136136413"><ele></ele><time>2013-8-1T19:35:34Z</time></trkpt>
<trkpt lat="46.12239299342036" lon="7.257322920486331"><ele></ele><time>2013-8-1T19:35:37Z</time></trkpt>
<trkpt lat="46.12247295677662" lon="7.257280591875315"><ele></ele><time>2013-8-1T19:35:40Z</time></trkpt>
<trkpt lat="46.12255266867578" lon="7.2572515066713095"><ele></ele><time>2013-8-1T19:35:43Z</time></trkpt>
<trkpt lat="46.12262458540499" lon="7.257240945473313"><ele></ele><time>2013-8-1T19:35:46Z</time></trkpt>
<trkpt lat="46.12268761731684" lon="7.257216135039926"><ele></ele><time>2013-8-1T19:35:49Z</time></trkpt>
<trkpt lat="46.122726425528526" lon="7.257162826135755"><ele></ele><time>2013-8-1T19:35:52Z</time></trkpt>
<trkpt lat="46.12276020459831" lon="7.257089400663972"><ele></ele><time>2013-8-1T19:35:55Z</time></trkpt>
<trkpt lat="46.12279255874455" lon="7.25700818002224"><ele></ele><time>2013-8-1T19:35:58Z</time></trkpt>
<trkpt lat="46.12282223068178" lon="7.256938861683011"><ele></ele><time>2013-8-1T19:36:1Z</time></trkpt>
<trkpt lat="46.12284821458161" lon="7.256864178925753"><ele></ele><time>2013-8-1T19:36:4Z</time></trkpt>
<trkpt lat="46.122867995873094" lon="7.256782623007894"><ele></ele><time>2013-8-1T19:36:7Z</time></trkpt>
<trkpt lat="46.12289750017226" lon="7.256703833118081"><ele></ele><time>2013-8-1T19:36:10Z</time></trkpt>
<trkpt lat="46.122929602861404" lon="7.256620600819588"><ele></ele><time>2013-8-1T19:36:13Z</time></trkpt>
<trkpt lat="46.12296665087342" lon="7.256533512845635"><ele></ele><time>2013-8-1T19:36:16Z</time></trkpt>
<trkpt lat="46.123011745512486" lon="7.256445502862334"><ele></ele><time>2013-8-1T19:36:19Z</time></trkpt>
<trkpt lat="46.12305952236056" lon="7.256360510364175"><ele></ele><time>2013-8-1T19:36:22Z</time></trkpt>
<trkpt lat="46.12311149016023" lon="7.256272416561842"><ele></ele><time>2013-8-1T19:36:25Z</time></trkpt>
<trkpt lat="46.123163709416986" lon="7.256197398528457"><ele></ele><time>2013-8-1T19:36:28Z</time></trkpt>
<trkpt lat="46.123224729672074" lon="7.256134366616607"><ele></ele><time>2013-8-1T19:36:31Z</time></trkpt>
<trkpt lat="46.12329379655421" lon="7.256076028570533"><ele></ele><time>2013-8-1T19:36:34Z</time></trkpt>
<trkpt lat="46.12337711267173" lon="7.256028922274709"><ele></ele><time>2013-8-1T19:36:37Z</time></trkpt>
<trkpt lat="46.12346285954118" lon="7.255983827635646"><ele></ele><time>2013-8-1T19:36:40Z</time></trkpt>
<trkpt lat="46.123549193143845" lon="7.255940577015281"><ele></ele><time>2013-8-1T19:36:43Z</time></trkpt>
<trkpt lat="46.123635275289416" lon="7.255899086594582"><ele></ele><time>2013-8-1T19:36:46Z</time></trkpt>
<trkpt lat="46.123723117634654" lon="7.255852483212948"><ele></ele><time>2013-8-1T19:36:49Z</time></trkpt>
<trkpt lat="46.12379880622029" lon="7.255805796012282"><ele></ele><time>2013-8-1T19:36:52Z</time></trkpt>
<trkpt lat="46.123872734606266" lon="7.255758438259363"><ele></ele><time>2013-8-1T19:36:55Z</time></trkpt>
<trkpt lat="46.12394968047738" lon="7.255717953667045"><ele></ele><time>2013-8-1T19:36:58Z</time></trkpt>
<trkpt lat="46.12402553670108" lon="7.25568643771112"><ele></ele><time>2013-8-1T19:37:1Z</time></trkpt>
<trkpt lat="46.124102398753166" lon="7.255659783259034"><ele></ele><time>2013-8-1T19:37:4Z</time></trkpt>
<trkpt lat="46.12417523749173" lon="7.255618376657367"><ele></ele><time>2013-8-1T19:37:7Z</time></trkpt>
<trkpt lat="46.124246986582875" lon="7.2555754613131285"><ele></ele><time>2013-8-1T19:37:10Z</time></trkpt>
<trkpt lat="46.12432007677853" lon="7.255540424957871"><ele></ele><time>2013-8-1T19:37:13Z</time></trkpt>
<trkpt lat="46.12439710646868" lon="7.255506897345185"><ele></ele><time>2013-8-1T19:37:16Z</time></trkpt>
<trkpt lat="46.124478578567505" lon="7.25546557456255"><ele></ele><time>2013-8-1T19:37:19Z</time></trkpt>
<trkpt lat="46.12456206232309" lon="7.2554184682667255"><ele></ele><time>2013-8-1T19:37:22Z</time></trkpt>
<trkpt lat="46.12465082667768" lon="7.255362560972571"><ele></ele><time>2013-8-1T19:37:25Z</time></trkpt>
<trkpt lat="46.12473774701357" lon="7.255311012268066"><ele></ele><time>2013-8-1T19:37:28Z</time></trkpt>
<trkpt lat="46.124826930463314" lon="7.255266839638352"><ele></ele><time>2013-8-1T19:37:31Z</time></trkpt>
<trkpt lat="46.12492633983493" lon="7.2552302945405245"><ele></ele><time>2013-8-1T19:37:34Z</time></trkpt>
<trkpt lat="46.125028263777494" lon="7.255209255963564"><ele></ele><time>2013-8-1T19:37:37Z</time></trkpt>
<trkpt lat="46.12512876279652" lon="7.25519391708076"><ele></ele><time>2013-8-1T19:37:40Z</time></trkpt>
<trkpt lat="46.12522951327264" lon="7.255179667845368"><ele></ele><time>2013-8-1T19:37:43Z</time></trkpt>
<trkpt lat="46.125330766662955" lon="7.2551707830280066"><ele></ele><time>2013-8-1T19:37:46Z</time></trkpt>
<trkpt lat="46.12543445080519" lon="7.255160557106137"><ele></ele><time>2013-8-1T19:37:49Z</time></trkpt>
<trkpt lat="46.12553997896612" lon="7.255151169374585"><ele></ele><time>2013-8-1T19:37:52Z</time></trkpt>
<trkpt lat="46.12564953044057" lon="7.255140272900462"><ele></ele><time>2013-8-1T19:37:55Z</time></trkpt>
<trkpt lat="46.12575254403055" lon="7.255117474123836"><ele></ele><time>2013-8-1T19:37:58Z</time></trkpt>
<trkpt lat="46.12585321068764" lon="7.255092328414321"><ele></ele><time>2013-8-1T19:38:1Z</time></trkpt>
<trkpt lat="46.12595253624022" lon="7.255067601799965"><ele></ele><time>2013-8-1T19:38:4Z</time></trkpt>
<trkpt lat="46.12605462782085" lon="7.255056370049715"><ele></ele><time>2013-8-1T19:38:7Z</time></trkpt>
<trkpt lat="46.126151690259576" lon="7.255044803023338"><ele></ele><time>2013-8-1T19:38:10Z</time></trkpt>
<trkpt lat="46.12624162808061" lon="7.255012532696128"><ele></ele><time>2013-8-1T19:38:13Z</time></trkpt>
<trkpt lat="46.12632251344621" lon="7.25495302118361"><ele></ele><time>2013-8-1T19:38:16Z</time></trkpt>
<trkpt lat="46.12638940103352" lon="7.254869202151895"><ele></ele><time>2013-8-1T19:38:19Z</time></trkpt>
<trkpt lat="46.1264337413013" lon="7.254770966246724"><ele></ele><time>2013-8-1T19:38:22Z</time></trkpt>
<trkpt lat="46.126474142074585" lon="7.25466275587678"><ele></ele><time>2013-8-1T19:38:25Z</time></trkpt>
<trkpt lat="46.12651387229562" lon="7.254556976258755"><ele></ele><time>2013-8-1T19:38:28Z</time></trkpt>
<trkpt lat="46.126559637486935" lon="7.254466870799661"><ele></ele><time>2013-8-1T19:38:31Z</time></trkpt>
<trkpt lat="46.1266237590462" lon="7.254382632672787"><ele></ele><time>2013-8-1T19:38:34Z</time></trkpt>
<trkpt lat="46.126698944717646" lon="7.25431096740067"><ele></ele><time>2013-8-1T19:38:37Z</time></trkpt>
<trkpt lat="46.126779494807124" lon="7.254250282421708"><ele></ele><time>2013-8-1T19:38:40Z</time></trkpt>
<trkpt lat="46.126857781782746" lon="7.254193117842078"><ele></ele><time>2013-8-1T19:38:43Z</time></trkpt>
<trkpt lat="46.126928608864546" lon="7.254132851958275"><ele></ele><time>2013-8-1T19:38:46Z</time></trkpt>
<trkpt lat="46.12699834629893" lon="7.254069233313203"><ele></ele><time>2013-8-1T19:38:49Z</time></trkpt>
<trkpt lat="46.12706481479108" lon="7.254009889438748"><ele></ele><time>2013-8-1T19:38:52Z</time></trkpt>
<trkpt lat="46.12713262438774" lon="7.253954568877816"><ele></ele><time>2013-8-1T19:38:55Z</time></trkpt>
<trkpt lat="46.12720437347889" lon="7.253907211124897"><ele></ele><time>2013-8-1T19:38:58Z</time></trkpt>
<trkpt lat="46.12728215754032" lon="7.253867061808705"><ele></ele><time>2013-8-1T19:39:1Z</time></trkpt>
<trkpt lat="46.127361031249166" lon="7.253820458427072"><ele></ele><time>2013-8-1T19:39:4Z</time></trkpt>
<trkpt lat="46.127444598823786" lon="7.253768155351281"><ele></ele><time>2013-8-1T19:39:7Z</time></trkpt>
<trkpt lat="46.12752070650458" lon="7.253698417916894"><ele></ele><time>2013-8-1T19:39:10Z</time></trkpt>
<trkpt lat="46.12759203650057" lon="7.2536208014935255"><ele></ele><time>2013-8-1T19:39:13Z</time></trkpt>
<trkpt lat="46.12766386941075" lon="7.253539999946952"><ele></ele><time>2013-8-1T19:39:16Z</time></trkpt>
<trkpt lat="46.12773369066417" lon="7.253464311361313"><ele></ele><time>2013-8-1T19:39:19Z</time></trkpt>
<trkpt lat="46.127809882164" lon="7.253400692716241"><ele></ele><time>2013-8-1T19:39:22Z</time></trkpt>
<trkpt lat="46.12788615748286" lon="7.253333050757647"><ele></ele><time>2013-8-1T19:39:25Z</time></trkpt>
<trkpt lat="46.1279584094882" lon="7.253260295838118"><ele></ele><time>2013-8-1T19:39:28Z</time></trkpt>
<trkpt lat="46.12803401425481" lon="7.253188211470842"><ele></ele><time>2013-8-1T19:39:31Z</time></trkpt>
<trkpt lat="46.128110541030765" lon="7.253122329711914"><ele></ele><time>2013-8-1T19:39:34Z</time></trkpt>
<trkpt lat="46.12818614579737" lon="7.253059549257159"><ele></ele><time>2013-8-1T19:39:37Z</time></trkpt>
<trkpt lat="46.12826141528785" lon="7.252997606992722"><ele></ele><time>2013-8-1T19:39:40Z</time></trkpt>
<trkpt lat="46.128340708091855" lon="7.252947064116597"><ele></ele><time>2013-8-1T19:39:43Z</time></trkpt>
<trkpt lat="46.12842310220003" lon="7.252910183742642"><ele></ele><time>2013-8-1T19:39:46Z</time></trkpt>
<trkpt lat="46.128510693088174" lon="7.2528839483857155"><ele></ele><time>2013-8-1T19:39:49Z</time></trkpt>
<trkpt lat="46.12859861925244" lon="7.2528518456965685"><ele></ele><time>2013-8-1T19:39:52Z</time></trkpt>
<trkpt lat="46.12867908552289" lon="7.252809517085552"><ele></ele><time>2013-8-1T19:39:55Z</time></trkpt>
<trkpt lat="46.1287581268698" lon="7.252751095220447"><ele></ele><time>2013-8-1T19:39:58Z</time></trkpt>
<trkpt lat="46.12883104942739" lon="7.252685129642487"><ele></ele><time>2013-8-1T19:40:1Z</time></trkpt>
<trkpt lat="46.12889651209116" lon="7.252631150186062"><ele></ele><time>2013-8-1T19:40:4Z</time></trkpt>
<trkpt lat="46.12895920872688" lon="7.252586726099253"><ele></ele><time>2013-8-1T19:40:7Z</time></trkpt>
<trkpt lat="46.12902274355292" lon="7.252551186829805"><ele></ele><time>2013-8-1T19:40:10Z</time></trkpt>
<trkpt lat="46.129088373854756" lon="7.252523694187403"><ele></ele><time>2013-8-1T19:40:13Z</time></trkpt>
<trkpt lat="46.12915174104273" lon="7.25249033421278"><ele></ele><time>2013-8-1T19:40:16Z</time></trkpt>
<trkpt lat="46.12920588813722" lon="7.252434175461531"><ele></ele><time>2013-8-1T19:40:19Z</time></trkpt>
<trkpt lat="46.12925215624273" lon="7.252355134114623"><ele></ele><time>2013-8-1T19:40:22Z</time></trkpt>
<trkpt lat="46.12929808907211" lon="7.252283385023475"><ele></ele><time>2013-8-1T19:40:25Z</time></trkpt>
<trkpt lat="46.12935441546142" lon="7.252218006178737"><ele></ele><time>2013-8-1T19:40:28Z</time></trkpt>
<trkpt lat="46.12941996194422" lon="7.252172911539674"><ele></ele><time>2013-8-1T19:40:31Z</time></trkpt>
<trkpt lat="46.1294867657125" lon="7.252115998417139"><ele></ele><time>2013-8-1T19:40:34Z</time></trkpt>
<trkpt lat="46.12954493612051" lon="7.252036621794105"><ele></ele><time>2013-8-1T19:40:37Z</time></trkpt>
<trkpt lat="46.12960193306208" lon="7.25194207392633"><ele></ele><time>2013-8-1T19:40:40Z</time></trkpt>
<trkpt lat="46.12965825945139" lon="7.251848699524999"><ele></ele><time>2013-8-1T19:40:43Z</time></trkpt>
<trkpt lat="46.12971500493586" lon="7.251759432256222"><ele></ele><time>2013-8-1T19:40:46Z</time></trkpt>
<trkpt lat="46.12976965494454" lon="7.251669745892286"><ele></ele><time>2013-8-1T19:40:49Z</time></trkpt>
<trkpt lat="46.12982296384871" lon="7.251577544957399"><ele></ele><time>2013-8-1T19:40:52Z</time></trkpt>
<trkpt lat="46.129877949133515" lon="7.251486936584115"><ele></ele><time>2013-8-1T19:40:55Z</time></trkpt>
<trkpt lat="46.12994257360697" lon="7.251420971006155"><ele></ele><time>2013-8-1T19:40:58Z</time></trkpt>
<trkpt lat="46.130019687116146" lon="7.251376295462251"><ele></ele><time>2013-8-1T19:41:1Z</time></trkpt>
<trkpt lat="46.13010962493718" lon="7.251344360411167"><ele></ele><time>2013-8-1T19:41:4Z</time></trkpt>
<trkpt lat="46.13019009120762" lon="7.25130102597177"><ele></ele><time>2013-8-1T19:41:7Z</time></trkpt>
<trkpt lat="46.13026041537523" lon="7.251239502802491"><ele></ele><time>2013-8-1T19:41:10Z</time></trkpt>
<trkpt lat="46.13032151944935" lon="7.251162305474281"><ele></ele><time>2013-8-1T19:41:13Z</time></trkpt>
<trkpt lat="46.13037759438157" lon="7.251073038205504"><ele></ele><time>2013-8-1T19:41:16Z</time></trkpt>
<trkpt lat="46.13043048419058" lon="7.250978322699666"><ele></ele><time>2013-8-1T19:41:19Z</time></trkpt>
<trkpt lat="46.13051966764033" lon="7.25077916868031"><ele></ele><time>2013-8-1T19:41:22Z</time></trkpt>
<trkpt lat="46.13057205453515" lon="7.250677747651935"><ele></ele><time>2013-8-1T19:41:25Z</time></trkpt>
<trkpt lat="46.13062586635351" lon="7.250596610829234"><ele></ele><time>2013-8-1T19:41:28Z</time></trkpt>
<trkpt lat="46.13068210892379" lon="7.250525197014213"><ele></ele><time>2013-8-1T19:41:31Z</time></trkpt>
<trkpt lat="46.13080943003297" lon="7.25038044154644"><ele></ele><time>2013-8-1T19:41:34Z</time></trkpt>
<trkpt lat="46.13086667843163" lon="7.250294107943773"><ele></ele><time>2013-8-1T19:41:37Z</time></trkpt>
<trkpt lat="46.130921160802245" lon="7.2502009849995375"><ele></ele><time>2013-8-1T19:41:40Z</time></trkpt>
<trkpt lat="46.13097757101059" lon="7.25010534748435"><ele></ele><time>2013-8-1T19:41:43Z</time></trkpt>
<trkpt lat="46.131029622629285" lon="7.250029072165489"><ele></ele><time>2013-8-1T19:41:46Z</time></trkpt>
<trkpt lat="46.131084859371185" lon="7.2499671299010515"><ele></ele><time>2013-8-1T19:41:49Z</time></trkpt>
<trkpt lat="46.131145460531116" lon="7.249905187636614"><ele></ele><time>2013-8-1T19:41:52Z</time></trkpt>
<trkpt lat="46.13121167756617" lon="7.2498357854783535"><ele></ele><time>2013-8-1T19:41:55Z</time></trkpt>
<trkpt lat="46.131277391687036" lon="7.249762946739793"><ele></ele><time>2013-8-1T19:41:58Z</time></trkpt>
<trkpt lat="46.13133656792343" lon="7.249677954241633"><ele></ele><time>2013-8-1T19:42:1Z</time></trkpt>
<trkpt lat="46.1313827522099" lon="7.249575946480036"><ele></ele><time>2013-8-1T19:42:4Z</time></trkpt>
<trkpt lat="46.13141787238419" lon="7.2494579292833805"><ele></ele><time>2013-8-1T19:42:7Z</time></trkpt>
<trkpt lat="46.13144419156015" lon="7.249340079724789"><ele></ele><time>2013-8-1T19:42:10Z</time></trkpt>
<trkpt lat="46.13146958872676" lon="7.249223571270704"><ele></ele><time>2013-8-1T19:42:13Z</time></trkpt>
<trkpt lat="46.131498254835606" lon="7.24910949356854"><ele></ele><time>2013-8-1T19:42:16Z</time></trkpt>
<trkpt lat="46.131527591496706" lon="7.249000193551183"><ele></ele><time>2013-8-1T19:42:19Z</time></trkpt>
<trkpt lat="46.13166362978518" lon="7.248578332364559"><ele></ele><time>2013-8-1T19:42:22Z</time></trkpt>
<trkpt lat="46.131704868748784" lon="7.248480515554547"><ele></ele><time>2013-8-1T19:42:25Z</time></trkpt>
<trkpt lat="46.13173797726631" lon="7.248373227193952"><ele></ele><time>2013-8-1T19:42:28Z</time></trkpt>
<trkpt lat="46.13176102750003" lon="7.248268201947212"><ele></ele><time>2013-8-1T19:42:31Z</time></trkpt>
<trkpt lat="46.13177410326898" lon="7.248168205842376"><ele></ele><time>2013-8-1T19:42:34Z</time></trkpt>
<trkpt lat="46.13178055733442" lon="7.248068293556571"><ele></ele><time>2013-8-1T19:42:37Z</time></trkpt>
<trkpt lat="46.131787011399865" lon="7.247970309108496"><ele></ele><time>2013-8-1T19:42:40Z</time></trkpt>
<trkpt lat="46.13179254345596" lon="7.247871151193976"><ele></ele><time>2013-8-1T19:42:43Z</time></trkpt>
<trkpt lat="46.13180126063526" lon="7.247781381011009"><ele></ele><time>2013-8-1T19:42:46Z</time></trkpt>
<trkpt lat="46.13181592896581" lon="7.2476952988654375"><ele></ele><time>2013-8-1T19:42:49Z</time></trkpt>
<trkpt lat="46.13183797337115" lon="7.247614162042737"><ele></ele><time>2013-8-1T19:42:52Z</time></trkpt>
<trkpt lat="46.13191952928901" lon="7.247289195656776"><ele></ele><time>2013-8-1T19:42:55Z</time></trkpt>
<trkpt lat="46.1319422442466" lon="7.247019382193685"><ele></ele><time>2013-8-1T19:42:58Z</time></trkpt>
<trkpt lat="46.13195825368166" lon="7.246921984478831"><ele></ele><time>2013-8-1T19:43:1Z</time></trkpt>
<trkpt lat="46.13201726227999" lon="7.2467474732548"><ele></ele><time>2013-8-1T19:43:4Z</time></trkpt>
<trkpt lat="46.13205363973975" lon="7.246666336432099"><ele></ele><time>2013-8-1T19:43:7Z</time></trkpt>
<trkpt lat="46.13209563307464" lon="7.24658478051424"><ele></ele><time>2013-8-1T19:43:10Z</time></trkpt>
<trkpt lat="46.132139302790165" lon="7.24651244468987"><ele></ele><time>2013-8-1T19:43:13Z</time></trkpt>
<trkpt lat="46.13219101913273" lon="7.246445557102561"><ele></ele><time>2013-8-1T19:43:16Z</time></trkpt>
<trkpt lat="46.13224474713206" lon="7.24637808278203"><ele></ele><time>2013-8-1T19:43:19Z</time></trkpt>
<trkpt lat="46.13230216316879" lon="7.246310021728277"><ele></ele><time>2013-8-1T19:43:22Z</time></trkpt>
<trkpt lat="46.13236175850034" lon="7.246240368112922"><ele></ele><time>2013-8-1T19:43:25Z</time></trkpt>
<trkpt lat="46.13242043182254" lon="7.246172055602074"><ele></ele><time>2013-8-1T19:43:28Z</time></trkpt>
<trkpt lat="46.13247851841152" lon="7.246102737262845"><ele></ele><time>2013-8-1T19:43:31Z</time></trkpt>
<trkpt lat="46.13253643736243" lon="7.246022270992398"><ele></ele><time>2013-8-1T19:43:34Z</time></trkpt>
<trkpt lat="46.132637271657586" lon="7.245706105604768"><ele></ele><time>2013-8-1T19:43:37Z</time></trkpt>
<trkpt lat="46.13268110901117" lon="7.2454647067934275"><ele></ele><time>2013-8-1T19:43:40Z</time></trkpt>
<trkpt lat="46.13269946537912" lon="7.2453392297029495"><ele></ele><time>2013-8-1T19:43:43Z</time></trkpt>
<trkpt lat="46.13270139321685" lon="7.2452043648809195"><ele></ele><time>2013-8-1T19:43:46Z</time></trkpt>
<trkpt lat="46.13269954919815" lon="7.245075786486268"><ele></ele><time>2013-8-1T19:43:49Z</time></trkpt>
<trkpt lat="46.13269669935107" lon="7.244948213919997"><ele></ele><time>2013-8-1T19:43:52Z</time></trkpt>
<trkpt lat="46.132716815918684" lon="7.244594665244222"><ele></ele><time>2013-8-1T19:43:55Z</time></trkpt>
<trkpt lat="46.13274296745658" lon="7.24451101385057"><ele></ele><time>2013-8-1T19:43:58Z</time></trkpt>
<trkpt lat="46.13278009928763" lon="7.244458878412843"><ele></ele><time>2013-8-1T19:44:1Z</time></trkpt>
<trkpt lat="46.13284036517143" lon="7.244433732703328"><ele></ele><time>2013-8-1T19:44:4Z</time></trkpt>
<trkpt lat="46.132929380983114" lon="7.244411185383797"><ele></ele><time>2013-8-1T19:44:7Z</time></trkpt>
<trkpt lat="46.13301076926291" lon="7.244372293353081"><ele></ele><time>2013-8-1T19:44:10Z</time></trkpt>
<trkpt lat="46.133170360699296" lon="7.244252767413855"><ele></ele><time>2013-8-1T19:44:13Z</time></trkpt>
<trkpt lat="46.13332852721214" lon="7.244134750217199"><ele></ele><time>2013-8-1T19:44:16Z</time></trkpt>
<trkpt lat="46.133470768108964" lon="7.2440139669924974"><ele></ele><time>2013-8-1T19:44:19Z</time></trkpt>
<trkpt lat="46.13353866152465" lon="7.243948504328728"><ele></ele><time>2013-8-1T19:44:22Z</time></trkpt>
<trkpt lat="46.133608147501945" lon="7.243888825178146"><ele></ele><time>2013-8-1T19:44:25Z</time></trkpt>
<trkpt lat="46.13368442282081" lon="7.243845658376813"><ele></ele><time>2013-8-1T19:44:28Z</time></trkpt>
<trkpt lat="46.13377142697573" lon="7.243835683912039"><ele></ele><time>2013-8-1T19:44:31Z</time></trkpt>
<trkpt lat="46.13386304117739" lon="7.2438540402799845"><ele></ele><time>2013-8-1T19:44:34Z</time></trkpt>
<trkpt lat="46.13395373336971" lon="7.243882538750768"><ele></ele><time>2013-8-1T19:44:37Z</time></trkpt>
<trkpt lat="46.13404526375234" lon="7.243934255093336"><ele></ele><time>2013-8-1T19:44:40Z</time></trkpt>
<trkpt lat="46.13413495011628" lon="7.244008267298341"><ele></ele><time>2013-8-1T19:44:43Z</time></trkpt>
<trkpt lat="46.134209632873535" lon="7.244066772982478"><ele></ele><time>2013-8-1T19:44:46Z</time></trkpt>
<trkpt lat="46.134289260953665" lon="7.244097534567118"><ele></ele><time>2013-8-1T19:44:49Z</time></trkpt>
<trkpt lat="46.13437500782311" lon="7.2440961096435785"><ele></ele><time>2013-8-1T19:44:52Z</time></trkpt>
<trkpt lat="46.134462179616094" lon="7.24407322704792"><ele></ele><time>2013-8-1T19:44:55Z</time></trkpt>
<trkpt lat="46.13454909995198" lon="7.244040202349424"><ele></ele><time>2013-8-1T19:44:58Z</time></trkpt>
<trkpt lat="46.13464130088687" lon="7.244004411622882"><ele></ele><time>2013-8-1T19:45:1Z</time></trkpt>
<trkpt lat="46.134737273678184" lon="7.243959987536073"><ele></ele><time>2013-8-1T19:45:4Z</time></trkpt>
<trkpt lat="46.134837940335274" lon="7.243933081626892"><ele></ele><time>2013-8-1T19:45:7Z</time></trkpt>
<trkpt lat="46.13494221121073" lon="7.243928471580148"><ele></ele><time>2013-8-1T19:45:10Z</time></trkpt>
<trkpt lat="46.13504430279136" lon="7.243925705552101"><ele></ele><time>2013-8-1T19:45:13Z</time></trkpt>
<trkpt lat="46.13514664582908" lon="7.243908019736409"><ele></ele><time>2013-8-1T19:45:16Z</time></trkpt>
<trkpt lat="46.135243121534586" lon="7.243870552629232"><ele></ele><time>2013-8-1T19:45:19Z</time></trkpt>
<trkpt lat="46.13532844930887" lon="7.243834091350436"><ele></ele><time>2013-8-1T19:45:22Z</time></trkpt>
<trkpt lat="46.135414615273476" lon="7.243801401928067"><ele></ele><time>2013-8-1T19:45:25Z</time></trkpt>
<trkpt lat="46.13551402464509" lon="7.243781117722392"><ele></ele><time>2013-8-1T19:45:28Z</time></trkpt>
<trkpt lat="46.13561267964542" lon="7.243759576231241"><ele></ele><time>2013-8-1T19:45:31Z</time></trkpt>
<trkpt lat="46.13571401685476" lon="7.243721606209874"><ele></ele><time>2013-8-1T19:45:34Z</time></trkpt>
<trkpt lat="46.13581200130284" lon="7.2436717338860035"><ele></ele><time>2013-8-1T19:45:37Z</time></trkpt>
<trkpt lat="46.13590939901769" lon="7.243611132726073"><ele></ele><time>2013-8-1T19:45:40Z</time></trkpt>
<trkpt lat="46.13600512035191" lon="7.2435306664556265"><ele></ele><time>2013-8-1T19:45:43Z</time></trkpt>
<trkpt lat="46.136098243296146" lon="7.243441315367818"><ele></ele><time>2013-8-1T19:45:46Z</time></trkpt>
<trkpt lat="46.13618583418429" lon="7.243344588205218"><ele></ele><time>2013-8-1T19:45:49Z</time></trkpt>
<trkpt lat="46.13626789301634" lon="7.2432264033705"><ele></ele><time>2013-8-1T19:45:52Z</time></trkpt>
<trkpt lat="46.136346431449056" lon="7.243108553811908"><ele></ele><time>2013-8-1T19:45:55Z</time></trkpt>
<trkpt lat="46.13642429932952" lon="7.2429899498820305"><ele></ele><time>2013-8-1T19:45:58Z</time></trkpt>
<trkpt lat="46.13651474006474" lon="7.242886433377862"><ele></ele><time>2013-8-1T19:46:1Z</time></trkpt>
<trkpt lat="46.136613646522164" lon="7.242799932137132"><ele></ele><time>2013-8-1T19:46:4Z</time></trkpt>
<trkpt lat="46.13670903258026" lon="7.242706473916769"><ele></ele><time>2013-8-1T19:46:7Z</time></trkpt>
<trkpt lat="46.1367950309068" lon="7.242592228576541"><ele></ele><time>2013-8-1T19:46:10Z</time></trkpt>
<trkpt lat="46.13688396289945" lon="7.2424601297825575"><ele></ele><time>2013-8-1T19:46:13Z</time></trkpt>
<trkpt lat="46.136966943740845" lon="7.2423293720930815"><ele></ele><time>2013-8-1T19:46:16Z</time></trkpt>
<trkpt lat="46.13705109804869" lon="7.242192579433322"><ele></ele><time>2013-8-1T19:46:19Z</time></trkpt>
<trkpt lat="46.13713726401329" lon="7.242058804258704"><ele></ele><time>2013-8-1T19:46:22Z</time></trkpt>
<trkpt lat="46.137228878214955" lon="7.241926789283752"><ele></ele><time>2013-8-1T19:46:25Z</time></trkpt>
<trkpt lat="46.13732543773949" lon="7.241795277222991"><ele></ele><time>2013-8-1T19:46:28Z</time></trkpt>
<trkpt lat="46.13742216490209" lon="7.241677343845367"><ele></ele><time>2013-8-1T19:46:31Z</time></trkpt>
<trkpt lat="46.13751696422696" lon="7.241578018292785"><ele></ele><time>2013-8-1T19:46:34Z</time></trkpt>
<trkpt lat="46.137610422447324" lon="7.241491936147213"><ele></ele><time>2013-8-1T19:46:37Z</time></trkpt>
<trkpt lat="46.137689212337136" lon="7.241420773789287"><ele></ele><time>2013-8-1T19:46:40Z</time></trkpt>
<trkpt lat="46.13776230253279" lon="7.241341145709157"><ele></ele><time>2013-8-1T19:46:43Z</time></trkpt>
<trkpt lat="46.13782089203596" lon="7.241240059956908"><ele></ele><time>2013-8-1T19:46:46Z</time></trkpt>
<trkpt lat="46.13786003552377" lon="7.241118438541889"><ele></ele><time>2013-8-1T19:46:49Z</time></trkpt>
<trkpt lat="46.13788576796651" lon="7.24098558537662"><ele></ele><time>2013-8-1T19:46:52Z</time></trkpt>
<trkpt lat="46.13791317678988" lon="7.240848457440734"><ele></ele><time>2013-8-1T19:46:55Z</time></trkpt>
<trkpt lat="46.13794284872711" lon="7.240708479657769"><ele></ele><time>2013-8-1T19:46:58Z</time></trkpt>
<trkpt lat="46.137977382168174" lon="7.2405782248824835"><ele></ele><time>2013-8-1T19:47:1Z</time></trkpt>
<trkpt lat="46.13802934996784" lon="7.240460542961955"><ele></ele><time>2013-8-1T19:47:4Z</time></trkpt>
<trkpt lat="46.13808911293745" lon="7.240345794707537"><ele></ele><time>2013-8-1T19:47:7Z</time></trkpt>
<trkpt lat="46.13816128112376" lon="7.240226687863469"><ele></ele><time>2013-8-1T19:47:10Z</time></trkpt>
<trkpt lat="46.13823177292943" lon="7.240108083933592"><ele></ele><time>2013-8-1T19:47:13Z</time></trkpt>
<trkpt lat="46.138306790962815" lon="7.239990485832095"><ele></ele><time>2013-8-1T19:47:16Z</time></trkpt>
<trkpt lat="46.138378540053964" lon="7.239864841103554"><ele></ele><time>2013-8-1T19:47:19Z</time></trkpt>
<trkpt lat="46.13844299688935" lon="7.239720588549972"><ele></ele><time>2013-8-1T19:47:22Z</time></trkpt>
<trkpt lat="46.13849085755646" lon="7.239574743434787"><ele></ele><time>2013-8-1T19:47:25Z</time></trkpt>
<trkpt lat="46.13852396607399" lon="7.2394193429499865"><ele></ele><time>2013-8-1T19:47:28Z</time></trkpt>
<trkpt lat="46.138549195602536" lon="7.239257320761681"><ele></ele><time>2013-8-1T19:47:31Z</time></trkpt>
<trkpt lat="46.13857149146497" lon="7.239089012145996"><ele></ele><time>2013-8-1T19:47:34Z</time></trkpt>
<trkpt lat="46.13859915174544" lon="7.238921290263534"><ele></ele><time>2013-8-1T19:47:37Z</time></trkpt>
<trkpt lat="46.138645336031914" lon="7.23875985480845"><ele></ele><time>2013-8-1T19:47:40Z</time></trkpt>
<trkpt lat="46.13870677538216" lon="7.238609232008457"><ele></ele><time>2013-8-1T19:47:43Z</time></trkpt>
<trkpt lat="46.13877869211137" lon="7.23845399916172"><ele></ele><time>2013-8-1T19:47:46Z</time></trkpt>
<trkpt lat="46.138846166431904" lon="7.2383052203804255"><ele></ele><time>2013-8-1T19:47:49Z</time></trkpt>
<trkpt lat="46.13891816698015" lon="7.238158788532019"><ele></ele><time>2013-8-1T19:47:52Z</time></trkpt>
<trkpt lat="46.13899217918515" lon="7.238009758293629"><ele></ele><time>2013-8-1T19:47:55Z</time></trkpt>
<trkpt lat="46.13907138817012" lon="7.237866427749395"><ele></ele><time>2013-8-1T19:47:58Z</time></trkpt>
<trkpt lat="46.139153111726046" lon="7.237721169367433"><ele></ele><time>2013-8-1T19:48:1Z</time></trkpt>
<trkpt lat="46.1392227653414" lon="7.237557386979461"><ele></ele><time>2013-8-1T19:48:4Z</time></trkpt>
<trkpt lat="46.1392814386636" lon="7.2373822052031755"><ele></ele><time>2013-8-1T19:48:7Z</time></trkpt>
<trkpt lat="46.13931991159916" lon="7.237202078104019"><ele></ele><time>2013-8-1T19:48:10Z</time></trkpt>
<trkpt lat="46.13935209810734" lon="7.237018765881658"><ele></ele><time>2013-8-1T19:48:13Z</time></trkpt>
<trkpt lat="46.13938797265291" lon="7.2368362080305815"><ele></ele><time>2013-8-1T19:48:16Z</time></trkpt>
<trkpt lat="46.13943382166326" lon="7.236666390672326"><ele></ele><time>2013-8-1T19:48:19Z</time></trkpt>
<trkpt lat="46.13949861377478" lon="7.236508894711733"><ele></ele><time>2013-8-1T19:48:22Z</time></trkpt>
<trkpt lat="46.13956952467561" lon="7.23635433241725"><ele></ele><time>2013-8-1T19:48:25Z</time></trkpt>
<trkpt lat="46.13967622630298" lon="7.236250480636954"><ele></ele><time>2013-8-1T19:48:28Z</time></trkpt>
<trkpt lat="46.13978862762451" lon="7.236173450946808"><ele></ele><time>2013-8-1T19:48:31Z</time></trkpt>
<trkpt lat="46.13988686352968" lon="7.2361134365201"><ele></ele><time>2013-8-1T19:48:34Z</time></trkpt>
<trkpt lat="46.1399603728205" lon="7.236044788733125"><ele></ele><time>2013-8-1T19:48:37Z</time></trkpt>
<trkpt lat="46.140024745836854" lon="7.235990222543478"><ele></ele><time>2013-8-1T19:48:40Z</time></trkpt>
<trkpt lat="46.140080988407135" lon="7.23595904186368"><ele></ele><time>2013-8-1T19:48:43Z</time></trkpt>
<trkpt lat="46.14012851379812" lon="7.235955437645316"><ele></ele><time>2013-8-1T19:48:46Z</time></trkpt>
<trkpt lat="46.140173776075244" lon="7.235996089875698"><ele></ele><time>2013-8-1T19:48:49Z</time></trkpt>
<trkpt lat="46.1402019392699" lon="7.236060295253992"><ele></ele><time>2013-8-1T19:48:52Z</time></trkpt>
<trkpt lat="46.140211494639516" lon="7.236121566966176"><ele></ele><time>2013-8-1T19:48:55Z</time></trkpt>
<trkpt lat="46.140209566801786" lon="7.236181581392884"><ele></ele><time>2013-8-1T19:48:58Z</time></trkpt>
<trkpt lat="46.14020227454603" lon="7.236235225573182"><ele></ele><time>2013-8-1T19:49:1Z</time></trkpt>
<trkpt lat="46.14020713604987" lon="7.236281912773848"><ele></ele><time>2013-8-1T19:49:4Z</time></trkpt>
<trkpt lat="46.14023404195905" lon="7.236341508105397"><ele></ele><time>2013-8-1T19:49:7Z</time></trkpt>
<trkpt lat="46.14022867754102" lon="7.236384339630604"><ele></ele><time>2013-8-1T19:49:10Z</time></trkpt>
<trkpt lat="46.140210488811135" lon="7.236439744010568"><ele></ele><time>2013-8-1T19:49:13Z</time></trkpt>
<trkpt lat="46.14017897285521" lon="7.236496405676007"><ele></ele><time>2013-8-1T19:49:16Z</time></trkpt>
<trkpt lat="46.140134800225496" lon="7.236552312970161"><ele></ele><time>2013-8-1T19:49:19Z</time></trkpt>
<trkpt lat="46.140099596232176" lon="7.236613500863314"><ele></ele><time>2013-8-1T19:49:22Z</time></trkpt>
<trkpt lat="46.14006766118109" lon="7.236678879708052"><ele></ele><time>2013-8-1T19:49:25Z</time></trkpt>
<trkpt lat="46.14003136754036" lon="7.236729254946113"><ele></ele><time>2013-8-1T19:49:28Z</time></trkpt>
<trkpt lat="46.139994990080595" lon="7.236776361241937"><ele></ele><time>2013-8-1T19:49:31Z</time></trkpt>
<trkpt lat="46.139952996745706" lon="7.236833861097693"><ele></ele><time>2013-8-1T19:49:34Z</time></trkpt>
<trkpt lat="46.139909913763404" lon="7.236907118931413"><ele></ele><time>2013-8-1T19:49:37Z</time></trkpt>
<trkpt lat="46.1398721113801" lon="7.236995883285999"><ele></ele><time>2013-8-1T19:49:40Z</time></trkpt>
<trkpt lat="46.139841517433524" lon="7.237087162211537"><ele></ele><time>2013-8-1T19:49:43Z</time></trkpt>
<trkpt lat="46.139822071418166" lon="7.23716402426362"><ele></ele><time>2013-8-1T19:49:46Z</time></trkpt>
<trkpt lat="46.13980597816408" lon="7.237226469442248"><ele></ele><time>2013-8-1T19:49:49Z</time></trkpt>
<trkpt lat="46.13979382440448" lon="7.237291093915701"><ele></ele><time>2013-8-1T19:49:52Z</time></trkpt>
<trkpt lat="46.1397825088352" lon="7.237363010644913"><ele></ele><time>2013-8-1T19:49:55Z</time></trkpt>
<trkpt lat="46.13977580331266" lon="7.237435849383473"><ele></ele><time>2013-8-1T19:49:58Z</time></trkpt>
<trkpt lat="46.139770774170756" lon="7.237514974549413"><ele></ele><time>2013-8-1T19:50:1Z</time></trkpt>
<trkpt lat="46.1397737916559" lon="7.237593261525035"><ele></ele><time>2013-8-1T19:50:4Z</time></trkpt>
<trkpt lat="46.13978208974004" lon="7.237672805786133"><ele></ele><time>2013-8-1T19:50:7Z</time></trkpt>
<trkpt lat="46.13978904671967" lon="7.237741788849235"><ele></ele><time>2013-8-1T19:50:10Z</time></trkpt>
<trkpt lat="46.1397996917367" lon="7.237811274826527"><ele></ele><time>2013-8-1T19:50:13Z</time></trkpt>
<trkpt lat="46.13981209695339" lon="7.237883862107992"><ele></ele><time>2013-8-1T19:50:16Z</time></trkpt>
<trkpt lat="46.13982852548361" lon="7.237959550693631"><ele></ele><time>2013-8-1T19:50:19Z</time></trkpt>
<trkpt lat="46.13983950577676" lon="7.2380634024739265"><ele></ele><time>2013-8-1T19:50:22Z</time></trkpt>
<trkpt lat="46.1398530844599" lon="7.238171696662903"><ele></ele><time>2013-8-1T19:50:25Z</time></trkpt>
<trkpt lat="46.13986859098077" lon="7.238271860405803"><ele></ele><time>2013-8-1T19:50:28Z</time></trkpt>
<trkpt lat="46.139879655092955" lon="7.238352242857218"><ele></ele><time>2013-8-1T19:50:31Z</time></trkpt>
<trkpt lat="46.139875799417496" lon="7.238412676379085"><ele></ele><time>2013-8-1T19:50:34Z</time></trkpt>
<trkpt lat="46.139890467748046" lon="7.23843396641314"><ele></ele><time>2013-8-1T19:50:37Z</time></trkpt>
<trkpt lat="46.13990421406925" lon="7.238417034968734"><ele></ele><time>2013-8-1T19:50:40Z</time></trkpt>
<trkpt lat="46.139915864914656" lon="7.238370766863227"><ele></ele><time>2013-8-1T19:50:43Z</time></trkpt>
<trkpt lat="46.13992131315172" lon="7.238306142389774"><ele></ele><time>2013-8-1T19:50:46Z</time></trkpt>
<trkpt lat="46.13993715494871" lon="7.238228609785438"><ele></ele><time>2013-8-1T19:50:49Z</time></trkpt>
<trkpt lat="46.13996154628694" lon="7.2381550166755915"><ele></ele><time>2013-8-1T19:50:52Z</time></trkpt>
<trkpt lat="46.13998216576874" lon="7.238092236220837"><ele></ele><time>2013-8-1T19:50:55Z</time></trkpt>
<trkpt lat="46.140007730573416" lon="7.2380363289266825"><ele></ele><time>2013-8-1T19:50:58Z</time></trkpt>
<trkpt lat="46.14004343748093" lon="7.237996682524681"><ele></ele><time>2013-8-1T19:51:1Z</time></trkpt>
<trkpt lat="46.14009599201381" lon="7.237983355298638"><ele></ele><time>2013-8-1T19:51:4Z</time></trkpt>
<trkpt lat="46.14014913327992" lon="7.237984612584114"><ele></ele><time>2013-8-1T19:51:7Z</time></trkpt>
<trkpt lat="46.14021711051464" lon="7.237992659211159"><ele></ele><time>2013-8-1T19:51:10Z</time></trkpt>
<trkpt lat="46.1402970738709" lon="7.238004980608821"><ele></ele><time>2013-8-1T19:51:13Z</time></trkpt>
<trkpt lat="46.14038432948291" lon="7.237995006144047"><ele></ele><time>2013-8-1T19:51:16Z</time></trkpt>
<trkpt lat="46.140474267303944" lon="7.237977907061577"><ele></ele><time>2013-8-1T19:51:19Z</time></trkpt>
<trkpt lat="46.140561774373055" lon="7.237960221245885"><ele></ele><time>2013-8-1T19:51:22Z</time></trkpt>
<trkpt lat="46.14064425230026" lon="7.237952593713999"><ele></ele><time>2013-8-1T19:51:25Z</time></trkpt>
<trkpt lat="46.14071633666754" lon="7.237949324771762"><ele></ele><time>2013-8-1T19:51:28Z</time></trkpt>
<trkpt lat="46.140781631693244" lon="7.237950833514333"><ele></ele><time>2013-8-1T19:51:31Z</time></trkpt>
<trkpt lat="46.14084047265351" lon="7.2379497438669205"><ele></ele><time>2013-8-1T19:51:34Z</time></trkpt>
<trkpt lat="46.14089101552963" lon="7.237938679754734"><ele></ele><time>2013-8-1T19:51:37Z</time></trkpt>
<trkpt lat="46.1409408878535" lon="7.237909846007824"><ele></ele><time>2013-8-1T19:51:40Z</time></trkpt>
<trkpt lat="46.14098799414933" lon="7.2378696128726006"><ele></ele><time>2013-8-1T19:51:43Z</time></trkpt>
<trkpt lat="46.141031831502914" lon="7.237818734720349"><ele></ele><time>2013-8-1T19:51:46Z</time></trkpt>
<trkpt lat="46.14108446985483" lon="7.237753691151738"><ele></ele><time>2013-8-1T19:51:49Z</time></trkpt>
<trkpt lat="46.14114104770124" lon="7.237680098041892"><ele></ele><time>2013-8-1T19:51:52Z</time></trkpt>
<trkpt lat="46.14119787700474" lon="7.237614216282964"><ele></ele><time>2013-8-1T19:51:55Z</time></trkpt>
<trkpt lat="46.14125529304147" lon="7.237546071410179"><ele></ele><time>2013-8-1T19:51:58Z</time></trkpt>
<trkpt lat="46.14131497219205" lon="7.23747868090868"><ele></ele><time>2013-8-1T19:52:1Z</time></trkpt>
<trkpt lat="46.14137314260006" lon="7.237411709502339"><ele></ele><time>2013-8-1T19:52:4Z</time></trkpt>
<trkpt lat="46.14142200909555" lon="7.237346665933728"><ele></ele><time>2013-8-1T19:52:7Z</time></trkpt>
<trkpt lat="46.14146878011525" lon="7.2372697200626135"><ele></ele><time>2013-8-1T19:52:10Z</time></trkpt>
<trkpt lat="46.14151488058269" lon="7.23719528876245"><ele></ele><time>2013-8-1T19:52:13Z</time></trkpt>
<trkpt lat="46.14156173542142" lon="7.237124713137746"><ele></ele><time>2013-8-1T19:52:16Z</time></trkpt>
<trkpt lat="46.14160523749888" lon="7.237041983753443"><ele></ele><time>2013-8-1T19:52:19Z</time></trkpt>
<trkpt lat="46.14163792692125" lon="7.23694508895278"><ele></ele><time>2013-8-1T19:52:22Z</time></trkpt>
<trkpt lat="46.141662653535604" lon="7.236836962401867"><ele></ele><time>2013-8-1T19:52:25Z</time></trkpt>
<trkpt lat="46.14168100990355" lon="7.236739732325077"><ele></ele><time>2013-8-1T19:52:28Z</time></trkpt>
<trkpt lat="46.141696935519576" lon="7.236643927171826"><ele></ele><time>2013-8-1T19:52:31Z</time></trkpt>
<trkpt lat="46.141717387363315" lon="7.2365431766957045"><ele></ele><time>2013-8-1T19:52:34Z</time></trkpt>
<trkpt lat="46.1417440418154" lon="7.236450221389532"><ele></ele><time>2013-8-1T19:52:37Z</time></trkpt>
<trkpt lat="46.14177195355296" lon="7.236378807574511"><ele></ele><time>2013-8-1T19:52:40Z</time></trkpt>
<trkpt lat="46.141808247193694" lon="7.236310243606567"><ele></ele><time>2013-8-1T19:52:43Z</time></trkpt>
<trkpt lat="46.14185920916498" lon="7.236252576112747"><ele></ele><time>2013-8-1T19:52:46Z</time></trkpt>
<trkpt lat="46.141916289925575" lon="7.236184095963836"><ele></ele><time>2013-8-1T19:52:49Z</time></trkpt>
<trkpt lat="46.14197622053325" lon="7.236109999939799"><ele></ele><time>2013-8-1T19:52:52Z</time></trkpt>
<trkpt lat="46.1420445330441" lon="7.236032132059336"><ele></ele><time>2013-8-1T19:52:55Z</time></trkpt>
<trkpt lat="46.142114605754614" lon="7.235954515635967"><ele></ele><time>2013-8-1T19:52:58Z</time></trkpt>
<trkpt lat="46.14218677394092" lon="7.235880838707089"><ele></ele><time>2013-8-1T19:53:1Z</time></trkpt>
<trkpt lat="46.14227805286646" lon="7.235807245597243"><ele></ele><time>2013-8-1T19:53:4Z</time></trkpt>
<trkpt lat="46.142366314306855" lon="7.235719906166196"><ele></ele><time>2013-8-1T19:53:7Z</time></trkpt>
<trkpt lat="46.1424502171576" lon="7.235608426854014"><ele></ele><time>2013-8-1T19:53:10Z</time></trkpt>
<trkpt lat="46.14252925850451" lon="7.235486218705773"><ele></ele><time>2013-8-1T19:53:13Z</time></trkpt>
<trkpt lat="46.14260075613856" lon="7.235352443531156"><ele></ele><time>2013-8-1T19:53:16Z</time></trkpt>
<trkpt lat="46.14267208613455" lon="7.235214728862047"><ele></ele><time>2013-8-1T19:53:19Z</time></trkpt>
<trkpt lat="46.14274685271084" lon="7.235078439116478"><ele></ele><time>2013-8-1T19:53:22Z</time></trkpt>
<trkpt lat="46.142821703106165" lon="7.234934605658054"><ele></ele><time>2013-8-1T19:53:25Z</time></trkpt>
<trkpt lat="46.142901415005326" lon="7.234789179638028"><ele></ele><time>2013-8-1T19:53:28Z</time></trkpt>
<trkpt lat="46.142987832427025" lon="7.2346524707973"><ele></ele><time>2013-8-1T19:53:31Z</time></trkpt>
<trkpt lat="46.14307944662869" lon="7.2345243114978075"><ele></ele><time>2013-8-1T19:53:34Z</time></trkpt>
<trkpt lat="46.143175503239036" lon="7.234406629577279"><ele></ele><time>2013-8-1T19:53:37Z</time></trkpt>
<trkpt lat="46.143274242058396" lon="7.234294479712844"><ele></ele><time>2013-8-1T19:53:40Z</time></trkpt>
<trkpt lat="46.143381195142865" lon="7.234181324020028"><ele></ele><time>2013-8-1T19:53:43Z</time></trkpt>
<trkpt lat="46.14348655566573" lon="7.234080992639065"><ele></ele><time>2013-8-1T19:53:46Z</time></trkpt>
<trkpt lat="46.1435935087502" lon="7.233984684571624"><ele></ele><time>2013-8-1T19:53:49Z</time></trkpt>
<trkpt lat="46.14371353760362" lon="7.2339055594056845"><ele></ele><time>2013-8-1T19:53:52Z</time></trkpt>
<trkpt lat="46.14383633248508" lon="7.233832720667124"><ele></ele><time>2013-8-1T19:53:55Z</time></trkpt>
<trkpt lat="46.143962983042" lon="7.233762312680483"><ele></ele><time>2013-8-1T19:53:58Z</time></trkpt>
<trkpt lat="46.14409441128373" lon="7.233697101473808"><ele></ele><time>2013-8-1T19:54:1Z</time></trkpt>
<trkpt lat="46.14423028193414" lon="7.233625520020723"><ele></ele><time>2013-8-1T19:54:4Z</time></trkpt>
<trkpt lat="46.14435249008238" lon="7.233570367097855"><ele></ele><time>2013-8-1T19:54:7Z</time></trkpt>
<trkpt lat="46.144462041556835" lon="7.233526362106204"><ele></ele><time>2013-8-1T19:54:10Z</time></trkpt>
<trkpt lat="46.144553907215595" lon="7.233492163941264"><ele></ele><time>2013-8-1T19:54:13Z</time></trkpt>
<trkpt lat="46.144628589972854" lon="7.233463162556291"><ele></ele><time>2013-8-1T19:54:16Z</time></trkpt>
<trkpt lat="46.14468508400023" lon="7.233443548902869"><ele></ele><time>2013-8-1T19:54:19Z</time></trkpt>
<trkpt lat="46.14473185501993" lon="7.233419492840767"><ele></ele><time>2013-8-1T19:54:22Z</time></trkpt>
<trkpt lat="46.144767394289374" lon="7.233391162008047"><ele></ele><time>2013-8-1T19:54:25Z</time></trkpt>
<trkpt lat="46.14480033516884" lon="7.23337029106915"><ele></ele><time>2013-8-1T19:54:28Z</time></trkpt>
<trkpt lat="46.144829923287034" lon="7.233366686850786"><ele></ele><time>2013-8-1T19:54:31Z</time></trkpt>
<trkpt lat="46.14485464990139" lon="7.233379343524575"><ele></ele><time>2013-8-1T19:54:34Z</time></trkpt>
</trkseg></trk></gpx>